<?xml version="1.0" encoding="UTF-8" standalone="no" ?>
<gpx xmlns="http://www.topografix.com/GPX/1/1" xmlns:xsi="http://www.w3.org/2001/XMLSchema-instance" xsi:schemaLocation="http://www.topografix.com/GPX/1/1 http://www.topografix.com/GPX/1/1/gpx.xsd" version="1.1" creator="VisuGPX - https://www.visugpx.com">
  <metadata>
    <name>French-divide 2021</name>
  </metadata>
  <trk>
    <name><![CDATA[02 FD]]></name>
    <trkseg>
      <trkpt lat="50.27295" lon="3.53535">
        <ele>59.74</ele>
        <time>2021-08-08T02:48:14Z</time>
      </trkpt>
      <trkpt lat="50.27295" lon="3.53535">
        <ele>59.74</ele>
        <time>2021-08-08T02:48:15Z</time>
      </trkpt>
      <trkpt lat="50.27295" lon="3.53538">
        <ele>59.74</ele>
        <time>2021-08-08T02:48:29Z</time>
      </trkpt>
      <trkpt lat="50.27296" lon="3.53537">
        <ele>59.74</ele>
        <time>2021-08-08T02:48:34Z</time>
      </trkpt>
      <trkpt lat="50.27293" lon="3.53535">
        <ele>58.3</ele>
        <time>2021-08-08T02:48:37Z</time>
      </trkpt>
      <trkpt lat="50.27291" lon="3.53534">
        <ele>58.3</ele>
        <time>2021-08-08T02:48:38Z</time>
      </trkpt>
      <trkpt lat="50.27287" lon="3.53534">
        <ele>58.3</ele>
        <time>2021-08-08T02:48:41Z</time>
      </trkpt>
      <trkpt lat="50.27284" lon="3.53534">
        <ele>58.3</ele>
        <time>2021-08-08T02:48:42Z</time>
      </trkpt>
      <trkpt lat="50.27282" lon="3.53534">
        <ele>58.3</ele>
        <time>2021-08-08T02:48:43Z</time>
      </trkpt>
      <trkpt lat="50.27276" lon="3.5353">
        <ele>58.3</ele>
        <time>2021-08-08T02:48:45Z</time>
      </trkpt>
      <trkpt lat="50.2727" lon="3.53528">
        <ele>58.3</ele>
        <time>2021-08-08T02:48:47Z</time>
      </trkpt>
      <trkpt lat="50.27267" lon="3.53527">
        <ele>58.3</ele>
        <time>2021-08-08T02:48:48Z</time>
      </trkpt>
      <trkpt lat="50.27256" lon="3.53523">
        <ele>58.3</ele>
        <time>2021-08-08T02:48:51Z</time>
      </trkpt>
      <trkpt lat="50.27215" lon="3.53513">
        <ele>58.3</ele>
        <time>2021-08-08T02:49:00Z</time>
      </trkpt>
      <trkpt lat="50.27197" lon="3.5351">
        <ele>60.7</ele>
        <time>2021-08-08T02:49:04Z</time>
      </trkpt>
      <trkpt lat="50.2716" lon="3.53507">
        <ele>61.66</ele>
        <time>2021-08-08T02:49:13Z</time>
      </trkpt>
      <trkpt lat="50.27149" lon="3.53506">
        <ele>65.51</ele>
        <time>2021-08-08T02:49:19Z</time>
      </trkpt>
      <trkpt lat="50.27149" lon="3.53507">
        <ele>65.51</ele>
        <time>2021-08-08T02:49:22Z</time>
      </trkpt>
      <trkpt lat="50.27149" lon="3.53507">
        <ele>67.91</ele>
        <time>2021-08-08T02:49:30Z</time>
      </trkpt>
      <trkpt lat="50.2715" lon="3.53507">
        <ele>70.79</ele>
        <time>2021-08-08T02:49:43Z</time>
      </trkpt>
      <trkpt lat="50.27149" lon="3.53507">
        <ele>72.24</ele>
        <time>2021-08-08T02:49:50Z</time>
      </trkpt>
      <trkpt lat="50.27147" lon="3.53507">
        <ele>73.68</ele>
        <time>2021-08-08T02:50:01Z</time>
      </trkpt>
      <trkpt lat="50.27134" lon="3.53506">
        <ele>73.68</ele>
        <time>2021-08-08T02:50:06Z</time>
      </trkpt>
      <trkpt lat="50.27104" lon="3.53504">
        <ele>73.2</ele>
        <time>2021-08-08T02:50:14Z</time>
      </trkpt>
      <trkpt lat="50.27062" lon="3.53501">
        <ele>72.24</ele>
        <time>2021-08-08T02:50:24Z</time>
      </trkpt>
      <trkpt lat="50.27054" lon="3.535">
        <ele>72.24</ele>
        <time>2021-08-08T02:50:26Z</time>
      </trkpt>
      <trkpt lat="50.2705" lon="3.53499">
        <ele>72.24</ele>
        <time>2021-08-08T02:50:27Z</time>
      </trkpt>
      <trkpt lat="50.27046" lon="3.53498">
        <ele>72.24</ele>
        <time>2021-08-08T02:50:28Z</time>
      </trkpt>
      <trkpt lat="50.27041" lon="3.53498">
        <ele>71.76</ele>
        <time>2021-08-08T02:50:29Z</time>
      </trkpt>
      <trkpt lat="50.27037" lon="3.53497">
        <ele>72.24</ele>
        <time>2021-08-08T02:50:30Z</time>
      </trkpt>
      <trkpt lat="50.27033" lon="3.53496">
        <ele>72.24</ele>
        <time>2021-08-08T02:50:31Z</time>
      </trkpt>
      <trkpt lat="50.27029" lon="3.53496">
        <ele>72.24</ele>
        <time>2021-08-08T02:50:32Z</time>
      </trkpt>
      <trkpt lat="50.26988" lon="3.53492">
        <ele>72.72</ele>
        <time>2021-08-08T02:50:41Z</time>
      </trkpt>
      <trkpt lat="50.26979" lon="3.5349">
        <ele>72.72</ele>
        <time>2021-08-08T02:50:43Z</time>
      </trkpt>
      <trkpt lat="50.26974" lon="3.5349">
        <ele>72.72</ele>
        <time>2021-08-08T02:50:44Z</time>
      </trkpt>
      <trkpt lat="50.26928" lon="3.53487">
        <ele>73.2</ele>
        <time>2021-08-08T02:50:54Z</time>
      </trkpt>
      <trkpt lat="50.26893" lon="3.53484">
        <ele>49.16</ele>
        <time>2021-08-08T02:51:02Z</time>
      </trkpt>
      <trkpt lat="50.26889" lon="3.53483">
        <ele>73.2</ele>
        <time>2021-08-08T02:51:03Z</time>
      </trkpt>
      <trkpt lat="50.26851" lon="3.5348">
        <ele>74.16</ele>
        <time>2021-08-08T02:51:13Z</time>
      </trkpt>
      <trkpt lat="50.26818" lon="3.53478">
        <ele>76.08</ele>
        <time>2021-08-08T02:51:22Z</time>
      </trkpt>
      <trkpt lat="50.26788" lon="3.53473">
        <ele>76.08</ele>
        <time>2021-08-08T02:51:30Z</time>
      </trkpt>
      <trkpt lat="50.26747" lon="3.53458">
        <ele>77.04</ele>
        <time>2021-08-08T02:51:42Z</time>
      </trkpt>
      <trkpt lat="50.26719" lon="3.53448">
        <ele>78</ele>
        <time>2021-08-08T02:51:51Z</time>
      </trkpt>
      <trkpt lat="50.26679" lon="3.53435">
        <ele>79.45</ele>
        <time>2021-08-08T02:52:03Z</time>
      </trkpt>
      <trkpt lat="50.26644" lon="3.53425">
        <ele>78.97</ele>
        <time>2021-08-08T02:52:12Z</time>
      </trkpt>
      <trkpt lat="50.26622" lon="3.5342">
        <ele>78</ele>
        <time>2021-08-08T02:52:18Z</time>
      </trkpt>
      <trkpt lat="50.26581" lon="3.53408">
        <ele>78</ele>
        <time>2021-08-08T02:52:29Z</time>
      </trkpt>
      <trkpt lat="50.26547" lon="3.534">
        <ele>78</ele>
        <time>2021-08-08T02:52:38Z</time>
      </trkpt>
      <trkpt lat="50.26521" lon="3.53392">
        <ele>78</ele>
        <time>2021-08-08T02:52:45Z</time>
      </trkpt>
      <trkpt lat="50.26506" lon="3.53388">
        <ele>79.45</ele>
        <time>2021-08-08T02:52:49Z</time>
      </trkpt>
      <trkpt lat="50.26468" lon="3.53377">
        <ele>79.45</ele>
        <time>2021-08-08T02:52:59Z</time>
      </trkpt>
      <trkpt lat="50.26429" lon="3.53367">
        <ele>80.41</ele>
        <time>2021-08-08T02:53:10Z</time>
      </trkpt>
      <trkpt lat="50.2639" lon="3.53357">
        <ele>81.37</ele>
        <time>2021-08-08T02:53:21Z</time>
      </trkpt>
      <trkpt lat="50.26356" lon="3.53348">
        <ele>82.81</ele>
        <time>2021-08-08T02:53:31Z</time>
      </trkpt>
      <trkpt lat="50.26324" lon="3.53336">
        <ele>83.77</ele>
        <time>2021-08-08T02:53:41Z</time>
      </trkpt>
      <trkpt lat="50.26297" lon="3.53326">
        <ele>84.25</ele>
        <time>2021-08-08T02:53:49Z</time>
      </trkpt>
      <trkpt lat="50.26263" lon="3.53309">
        <ele>84.73</ele>
        <time>2021-08-08T02:53:59Z</time>
      </trkpt>
      <trkpt lat="50.26226" lon="3.53298">
        <ele>85.69</ele>
        <time>2021-08-08T02:54:10Z</time>
      </trkpt>
      <trkpt lat="50.26202" lon="3.53295">
        <ele>87.14</ele>
        <time>2021-08-08T02:54:18Z</time>
      </trkpt>
      <trkpt lat="50.2618" lon="3.53296">
        <ele>87.62</ele>
        <time>2021-08-08T02:54:27Z</time>
      </trkpt>
      <trkpt lat="50.26179" lon="3.53295">
        <ele>88.1</ele>
        <time>2021-08-08T02:54:28Z</time>
      </trkpt>
      <trkpt lat="50.26177" lon="3.53295">
        <ele>88.1</ele>
        <time>2021-08-08T02:54:29Z</time>
      </trkpt>
      <trkpt lat="50.26158" lon="3.53301">
        <ele>89.06</ele>
        <time>2021-08-08T02:54:37Z</time>
      </trkpt>
      <trkpt lat="50.26133" lon="3.53307">
        <ele>89.06</ele>
        <time>2021-08-08T02:54:45Z</time>
      </trkpt>
      <trkpt lat="50.26108" lon="3.53313">
        <ele>89.54</ele>
        <time>2021-08-08T02:54:52Z</time>
      </trkpt>
      <trkpt lat="50.2607" lon="3.5332">
        <ele>90.5</ele>
        <time>2021-08-08T02:55:02Z</time>
      </trkpt>
      <trkpt lat="50.26034" lon="3.53313">
        <ele>90.5</ele>
        <time>2021-08-08T02:55:11Z</time>
      </trkpt>
      <trkpt lat="50.25995" lon="3.5329">
        <ele>90.98</ele>
        <time>2021-08-08T02:55:21Z</time>
      </trkpt>
      <trkpt lat="50.25968" lon="3.53278">
        <ele>89.54</ele>
        <time>2021-08-08T02:55:27Z</time>
      </trkpt>
      <trkpt lat="50.25927" lon="3.53267">
        <ele>88.58</ele>
        <time>2021-08-08T02:55:35Z</time>
      </trkpt>
      <trkpt lat="50.25917" lon="3.53267">
        <ele>87.14</ele>
        <time>2021-08-08T02:55:37Z</time>
      </trkpt>
      <trkpt lat="50.25861" lon="3.53269">
        <ele>86.66</ele>
        <time>2021-08-08T02:55:47Z</time>
      </trkpt>
      <trkpt lat="50.25792" lon="3.53271">
        <ele>84.25</ele>
        <time>2021-08-08T02:55:59Z</time>
      </trkpt>
      <trkpt lat="50.25729" lon="3.53273">
        <ele>82.33</ele>
        <time>2021-08-08T02:56:10Z</time>
      </trkpt>
      <trkpt lat="50.2568" lon="3.53274">
        <ele>81.85</ele>
        <time>2021-08-08T02:56:19Z</time>
      </trkpt>
      <trkpt lat="50.25629" lon="3.53273">
        <ele>81.37</ele>
        <time>2021-08-08T02:56:28Z</time>
      </trkpt>
      <trkpt lat="50.2559" lon="3.53275">
        <ele>80.41</ele>
        <time>2021-08-08T02:56:35Z</time>
      </trkpt>
      <trkpt lat="50.25551" lon="3.53284">
        <ele>78.97</ele>
        <time>2021-08-08T02:56:42Z</time>
      </trkpt>
      <trkpt lat="50.25497" lon="3.53304">
        <ele>78.48</ele>
        <time>2021-08-08T02:56:52Z</time>
      </trkpt>
      <trkpt lat="50.25456" lon="3.53318">
        <ele>78</ele>
        <time>2021-08-08T02:57:00Z</time>
      </trkpt>
      <trkpt lat="50.2545" lon="3.53319">
        <ele>78</ele>
        <time>2021-08-08T02:57:01Z</time>
      </trkpt>
      <trkpt lat="50.25406" lon="3.53313">
        <ele>77.04</ele>
        <time>2021-08-08T02:57:09Z</time>
      </trkpt>
      <trkpt lat="50.25396" lon="3.53311">
        <ele>76.08</ele>
        <time>2021-08-08T02:57:11Z</time>
      </trkpt>
      <trkpt lat="50.25392" lon="3.5331">
        <ele>76.08</ele>
        <time>2021-08-08T02:57:12Z</time>
      </trkpt>
      <trkpt lat="50.25388" lon="3.53306">
        <ele>76.08</ele>
        <time>2021-08-08T02:57:13Z</time>
      </trkpt>
      <trkpt lat="50.25384" lon="3.53303">
        <ele>76.08</ele>
        <time>2021-08-08T02:57:14Z</time>
      </trkpt>
      <trkpt lat="50.25379" lon="3.53302">
        <ele>76.08</ele>
        <time>2021-08-08T02:57:15Z</time>
      </trkpt>
      <trkpt lat="50.25375" lon="3.53303">
        <ele>76.56</ele>
        <time>2021-08-08T02:57:16Z</time>
      </trkpt>
      <trkpt lat="50.2537" lon="3.53306">
        <ele>76.56</ele>
        <time>2021-08-08T02:57:17Z</time>
      </trkpt>
      <trkpt lat="50.25366" lon="3.53307">
        <ele>76.56</ele>
        <time>2021-08-08T02:57:18Z</time>
      </trkpt>
      <trkpt lat="50.25361" lon="3.53307">
        <ele>75.6</ele>
        <time>2021-08-08T02:57:19Z</time>
      </trkpt>
      <trkpt lat="50.25356" lon="3.53308">
        <ele>75.6</ele>
        <time>2021-08-08T02:57:20Z</time>
      </trkpt>
      <trkpt lat="50.25308" lon="3.53311">
        <ele>72.72</ele>
        <time>2021-08-08T02:57:28Z</time>
      </trkpt>
      <trkpt lat="50.25243" lon="3.53318">
        <ele>69.83</ele>
        <time>2021-08-08T02:57:38Z</time>
      </trkpt>
      <trkpt lat="50.25214" lon="3.53327">
        <ele>69.83</ele>
        <time>2021-08-08T02:57:43Z</time>
      </trkpt>
      <trkpt lat="50.25209" lon="3.53331">
        <ele>69.35</ele>
        <time>2021-08-08T02:57:44Z</time>
      </trkpt>
      <trkpt lat="50.25205" lon="3.53335">
        <ele>69.35</ele>
        <time>2021-08-08T02:57:45Z</time>
      </trkpt>
      <trkpt lat="50.25201" lon="3.53341">
        <ele>69.35</ele>
        <time>2021-08-08T02:57:46Z</time>
      </trkpt>
      <trkpt lat="50.25198" lon="3.53346">
        <ele>69.35</ele>
        <time>2021-08-08T02:57:47Z</time>
      </trkpt>
      <trkpt lat="50.25186" lon="3.5337">
        <ele>69.35</ele>
        <time>2021-08-08T02:57:51Z</time>
      </trkpt>
      <trkpt lat="50.25152" lon="3.53412">
        <ele>67.91</ele>
        <time>2021-08-08T02:57:59Z</time>
      </trkpt>
      <trkpt lat="50.25148" lon="3.53417">
        <ele>67.91</ele>
        <time>2021-08-08T02:58:00Z</time>
      </trkpt>
      <trkpt lat="50.25129" lon="3.53443">
        <ele>69.35</ele>
        <time>2021-08-08T02:58:06Z</time>
      </trkpt>
      <trkpt lat="50.25127" lon="3.53447">
        <ele>69.35</ele>
        <time>2021-08-08T02:58:07Z</time>
      </trkpt>
      <trkpt lat="50.25112" lon="3.53479">
        <ele>70.31</ele>
        <time>2021-08-08T02:58:14Z</time>
      </trkpt>
      <trkpt lat="50.25084" lon="3.53534">
        <ele>71.27</ele>
        <time>2021-08-08T02:58:26Z</time>
      </trkpt>
      <trkpt lat="50.25058" lon="3.53582">
        <ele>72.24</ele>
        <time>2021-08-08T02:58:36Z</time>
      </trkpt>
      <trkpt lat="50.25033" lon="3.53633">
        <ele>73.2</ele>
        <time>2021-08-08T02:58:46Z</time>
      </trkpt>
      <trkpt lat="50.25031" lon="3.53637">
        <ele>73.2</ele>
        <time>2021-08-08T02:58:47Z</time>
      </trkpt>
      <trkpt lat="50.25004" lon="3.53691">
        <ele>73.2</ele>
        <time>2021-08-08T02:58:57Z</time>
      </trkpt>
      <trkpt lat="50.24973" lon="3.53736">
        <ele>73.2</ele>
        <time>2021-08-08T02:59:06Z</time>
      </trkpt>
      <trkpt lat="50.2496" lon="3.53748">
        <ele>72.24</ele>
        <time>2021-08-08T02:59:10Z</time>
      </trkpt>
      <trkpt lat="50.24956" lon="3.53745">
        <ele>71.27</ele>
        <time>2021-08-08T02:59:11Z</time>
      </trkpt>
      <trkpt lat="50.24947" lon="3.53734">
        <ele>71.27</ele>
        <time>2021-08-08T02:59:14Z</time>
      </trkpt>
      <trkpt lat="50.24943" lon="3.53732">
        <ele>70.31</ele>
        <time>2021-08-08T02:59:15Z</time>
      </trkpt>
      <trkpt lat="50.24937" lon="3.53729">
        <ele>70.31</ele>
        <time>2021-08-08T02:59:16Z</time>
      </trkpt>
      <trkpt lat="50.24907" lon="3.53721">
        <ele>67.91</ele>
        <time>2021-08-08T02:59:21Z</time>
      </trkpt>
      <trkpt lat="50.249" lon="3.53721">
        <ele>66.95</ele>
        <time>2021-08-08T02:59:22Z</time>
      </trkpt>
      <trkpt lat="50.24894" lon="3.53723">
        <ele>66.95</ele>
        <time>2021-08-08T02:59:23Z</time>
      </trkpt>
      <trkpt lat="50.24889" lon="3.53725">
        <ele>66.95</ele>
        <time>2021-08-08T02:59:24Z</time>
      </trkpt>
      <trkpt lat="50.24883" lon="3.5373">
        <ele>66.47</ele>
        <time>2021-08-08T02:59:25Z</time>
      </trkpt>
      <trkpt lat="50.24879" lon="3.53735">
        <ele>66.47</ele>
        <time>2021-08-08T02:59:26Z</time>
      </trkpt>
      <trkpt lat="50.24875" lon="3.5374">
        <ele>66.47</ele>
        <time>2021-08-08T02:59:27Z</time>
      </trkpt>
      <trkpt lat="50.24871" lon="3.53746">
        <ele>66.47</ele>
        <time>2021-08-08T02:59:28Z</time>
      </trkpt>
      <trkpt lat="50.24867" lon="3.53754">
        <ele>66.47</ele>
        <time>2021-08-08T02:59:29Z</time>
      </trkpt>
      <trkpt lat="50.24837" lon="3.53807">
        <ele>65.51</ele>
        <time>2021-08-08T02:59:37Z</time>
      </trkpt>
      <trkpt lat="50.24834" lon="3.53814">
        <ele>65.51</ele>
        <time>2021-08-08T02:59:38Z</time>
      </trkpt>
      <trkpt lat="50.24804" lon="3.53867">
        <ele>62.62</ele>
        <time>2021-08-08T02:59:46Z</time>
      </trkpt>
      <trkpt lat="50.24801" lon="3.53873">
        <ele>62.62</ele>
        <time>2021-08-08T02:59:47Z</time>
      </trkpt>
      <trkpt lat="50.248" lon="3.5388">
        <ele>62.14</ele>
        <time>2021-08-08T02:59:48Z</time>
      </trkpt>
      <trkpt lat="50.24799" lon="3.53886">
        <ele>62.14</ele>
        <time>2021-08-08T02:59:49Z</time>
      </trkpt>
      <trkpt lat="50.248" lon="3.53891">
        <ele>62.14</ele>
        <time>2021-08-08T02:59:50Z</time>
      </trkpt>
      <trkpt lat="50.248" lon="3.53896">
        <ele>62.14</ele>
        <time>2021-08-08T02:59:51Z</time>
      </trkpt>
      <trkpt lat="50.24801" lon="3.53899">
        <ele>62.14</ele>
        <time>2021-08-08T02:59:52Z</time>
      </trkpt>
      <trkpt lat="50.24801" lon="3.53901">
        <ele>62.14</ele>
        <time>2021-08-08T02:59:53Z</time>
      </trkpt>
      <trkpt lat="50.248" lon="3.53904">
        <ele>62.14</ele>
        <time>2021-08-08T02:59:54Z</time>
      </trkpt>
      <trkpt lat="50.24802" lon="3.53924">
        <ele>62.14</ele>
        <time>2021-08-08T03:00:00Z</time>
      </trkpt>
      <trkpt lat="50.24806" lon="3.5398">
        <ele>63.1</ele>
        <time>2021-08-08T03:00:09Z</time>
      </trkpt>
      <trkpt lat="50.24807" lon="3.54039">
        <ele>63.1</ele>
        <time>2021-08-08T03:00:17Z</time>
      </trkpt>
      <trkpt lat="50.24799" lon="3.54108">
        <ele>60.22</ele>
        <time>2021-08-08T03:00:25Z</time>
      </trkpt>
      <trkpt lat="50.2479" lon="3.54162">
        <ele>59.26</ele>
        <time>2021-08-08T03:00:32Z</time>
      </trkpt>
      <trkpt lat="50.2478" lon="3.54199">
        <ele>61.18</ele>
        <time>2021-08-08T03:00:39Z</time>
      </trkpt>
      <trkpt lat="50.24775" lon="3.54225">
        <ele>60.22</ele>
        <time>2021-08-08T03:00:44Z</time>
      </trkpt>
      <trkpt lat="50.24765" lon="3.54256">
        <ele>56.86</ele>
        <time>2021-08-08T03:00:50Z</time>
      </trkpt>
      <trkpt lat="50.24753" lon="3.54273">
        <ele>55.41</ele>
        <time>2021-08-08T03:00:55Z</time>
      </trkpt>
      <trkpt lat="50.24745" lon="3.54294">
        <ele>56.37</ele>
        <time>2021-08-08T03:01:01Z</time>
      </trkpt>
      <trkpt lat="50.24735" lon="3.54338">
        <ele>58.78</ele>
        <time>2021-08-08T03:01:11Z</time>
      </trkpt>
      <trkpt lat="50.24724" lon="3.54379">
        <ele>58.78</ele>
        <time>2021-08-08T03:01:19Z</time>
      </trkpt>
      <trkpt lat="50.24712" lon="3.54409">
        <ele>59.26</ele>
        <time>2021-08-08T03:01:26Z</time>
      </trkpt>
      <trkpt lat="50.247" lon="3.54437">
        <ele>60.22</ele>
        <time>2021-08-08T03:01:33Z</time>
      </trkpt>
      <trkpt lat="50.24695" lon="3.54451">
        <ele>60.7</ele>
        <time>2021-08-08T03:01:40Z</time>
      </trkpt>
      <trkpt lat="50.24694" lon="3.54453">
        <ele>62.14</ele>
        <time>2021-08-08T03:01:43Z</time>
      </trkpt>
      <trkpt lat="50.24694" lon="3.54453">
        <ele>62.14</ele>
        <time>2021-08-08T03:01:44Z</time>
      </trkpt>
      <trkpt lat="50.24694" lon="3.54455">
        <ele>61.18</ele>
        <time>2021-08-08T03:01:48Z</time>
      </trkpt>
      <trkpt lat="50.24689" lon="3.54479">
        <ele>61.18</ele>
        <time>2021-08-08T03:01:53Z</time>
      </trkpt>
      <trkpt lat="50.24682" lon="3.54538">
        <ele>59.74</ele>
        <time>2021-08-08T03:02:02Z</time>
      </trkpt>
      <trkpt lat="50.2468" lon="3.54588">
        <ele>59.74</ele>
        <time>2021-08-08T03:02:09Z</time>
      </trkpt>
      <trkpt lat="50.24679" lon="3.54596">
        <ele>59.74</ele>
        <time>2021-08-08T03:02:10Z</time>
      </trkpt>
      <trkpt lat="50.24673" lon="3.54658">
        <ele>59.26</ele>
        <time>2021-08-08T03:02:18Z</time>
      </trkpt>
      <trkpt lat="50.24672" lon="3.54667">
        <ele>59.26</ele>
        <time>2021-08-08T03:02:19Z</time>
      </trkpt>
      <trkpt lat="50.24667" lon="3.54729">
        <ele>60.7</ele>
        <time>2021-08-08T03:02:26Z</time>
      </trkpt>
      <trkpt lat="50.24667" lon="3.54737">
        <ele>60.7</ele>
        <time>2021-08-08T03:02:27Z</time>
      </trkpt>
      <trkpt lat="50.24669" lon="3.54781">
        <ele>62.14</ele>
        <time>2021-08-08T03:02:34Z</time>
      </trkpt>
      <trkpt lat="50.24672" lon="3.54808">
        <ele>63.1</ele>
        <time>2021-08-08T03:02:39Z</time>
      </trkpt>
      <trkpt lat="50.24676" lon="3.54838">
        <ele>61.66</ele>
        <time>2021-08-08T03:02:43Z</time>
      </trkpt>
      <trkpt lat="50.24681" lon="3.54873">
        <ele>61.18</ele>
        <time>2021-08-08T03:02:48Z</time>
      </trkpt>
      <trkpt lat="50.24683" lon="3.5492">
        <ele>60.7</ele>
        <time>2021-08-08T03:02:55Z</time>
      </trkpt>
      <trkpt lat="50.24684" lon="3.54988">
        <ele>60.22</ele>
        <time>2021-08-08T03:03:05Z</time>
      </trkpt>
      <trkpt lat="50.24684" lon="3.54995">
        <ele>60.22</ele>
        <time>2021-08-08T03:03:06Z</time>
      </trkpt>
      <trkpt lat="50.24685" lon="3.55003">
        <ele>60.22</ele>
        <time>2021-08-08T03:03:07Z</time>
      </trkpt>
      <trkpt lat="50.24688" lon="3.55071">
        <ele>59.26</ele>
        <time>2021-08-08T03:03:16Z</time>
      </trkpt>
      <trkpt lat="50.24689" lon="3.55085">
        <ele>59.26</ele>
        <time>2021-08-08T03:03:18Z</time>
      </trkpt>
      <trkpt lat="50.24689" lon="3.55092">
        <ele>59.26</ele>
        <time>2021-08-08T03:03:19Z</time>
      </trkpt>
      <trkpt lat="50.24689" lon="3.55099">
        <ele>59.26</ele>
        <time>2021-08-08T03:03:20Z</time>
      </trkpt>
      <trkpt lat="50.24685" lon="3.5515">
        <ele>58.78</ele>
        <time>2021-08-08T03:03:27Z</time>
      </trkpt>
      <trkpt lat="50.24683" lon="3.55158">
        <ele>58.78</ele>
        <time>2021-08-08T03:03:28Z</time>
      </trkpt>
      <trkpt lat="50.24682" lon="3.55165">
        <ele>58.78</ele>
        <time>2021-08-08T03:03:29Z</time>
      </trkpt>
      <trkpt lat="50.24677" lon="3.55198">
        <ele>60.22</ele>
        <time>2021-08-08T03:03:34Z</time>
      </trkpt>
      <trkpt lat="50.24668" lon="3.55247">
        <ele>60.22</ele>
        <time>2021-08-08T03:03:41Z</time>
      </trkpt>
      <trkpt lat="50.24657" lon="3.55333">
        <ele>58.78</ele>
        <time>2021-08-08T03:03:52Z</time>
      </trkpt>
      <trkpt lat="50.24642" lon="3.5539">
        <ele>58.78</ele>
        <time>2021-08-08T03:04:00Z</time>
      </trkpt>
      <trkpt lat="50.24632" lon="3.55451">
        <ele>58.78</ele>
        <time>2021-08-08T03:04:08Z</time>
      </trkpt>
      <trkpt lat="50.24623" lon="3.55515">
        <ele>60.22</ele>
        <time>2021-08-08T03:04:17Z</time>
      </trkpt>
      <trkpt lat="50.24621" lon="3.55528">
        <ele>60.22</ele>
        <time>2021-08-08T03:04:19Z</time>
      </trkpt>
      <trkpt lat="50.2462" lon="3.55534">
        <ele>60.22</ele>
        <time>2021-08-08T03:04:20Z</time>
      </trkpt>
      <trkpt lat="50.24607" lon="3.55574">
        <ele>60.7</ele>
        <time>2021-08-08T03:04:27Z</time>
      </trkpt>
      <trkpt lat="50.24596" lon="3.55596">
        <ele>60.7</ele>
        <time>2021-08-08T03:04:31Z</time>
      </trkpt>
      <trkpt lat="50.24594" lon="3.55601">
        <ele>60.7</ele>
        <time>2021-08-08T03:04:32Z</time>
      </trkpt>
      <trkpt lat="50.24576" lon="3.55632">
        <ele>61.66</ele>
        <time>2021-08-08T03:04:39Z</time>
      </trkpt>
      <trkpt lat="50.24561" lon="3.55657">
        <ele>61.66</ele>
        <time>2021-08-08T03:04:44Z</time>
      </trkpt>
      <trkpt lat="50.24542" lon="3.55694">
        <ele>62.14</ele>
        <time>2021-08-08T03:04:53Z</time>
      </trkpt>
      <trkpt lat="50.2453" lon="3.55722">
        <ele>62.62</ele>
        <time>2021-08-08T03:05:00Z</time>
      </trkpt>
      <trkpt lat="50.24528" lon="3.55729">
        <ele>62.62</ele>
        <time>2021-08-08T03:05:01Z</time>
      </trkpt>
      <trkpt lat="50.24526" lon="3.55736">
        <ele>62.62</ele>
        <time>2021-08-08T03:05:02Z</time>
      </trkpt>
      <trkpt lat="50.24519" lon="3.55764">
        <ele>62.62</ele>
        <time>2021-08-08T03:05:06Z</time>
      </trkpt>
      <trkpt lat="50.24514" lon="3.55801">
        <ele>62.62</ele>
        <time>2021-08-08T03:05:12Z</time>
      </trkpt>
      <trkpt lat="50.24513" lon="3.55821">
        <ele>62.62</ele>
        <time>2021-08-08T03:05:15Z</time>
      </trkpt>
      <trkpt lat="50.24513" lon="3.55828">
        <ele>62.62</ele>
        <time>2021-08-08T03:05:16Z</time>
      </trkpt>
      <trkpt lat="50.24511" lon="3.5585">
        <ele>63.1</ele>
        <time>2021-08-08T03:05:19Z</time>
      </trkpt>
      <trkpt lat="50.24509" lon="3.55876">
        <ele>63.1</ele>
        <time>2021-08-08T03:05:23Z</time>
      </trkpt>
      <trkpt lat="50.24499" lon="3.55925">
        <ele>63.58</ele>
        <time>2021-08-08T03:05:31Z</time>
      </trkpt>
      <trkpt lat="50.24484" lon="3.55953">
        <ele>64.07</ele>
        <time>2021-08-08T03:05:37Z</time>
      </trkpt>
      <trkpt lat="50.24471" lon="3.55971">
        <ele>64.07</ele>
        <time>2021-08-08T03:05:41Z</time>
      </trkpt>
      <trkpt lat="50.24447" lon="3.56004">
        <ele>64.07</ele>
        <time>2021-08-08T03:05:48Z</time>
      </trkpt>
      <trkpt lat="50.24431" lon="3.5603">
        <ele>62.62</ele>
        <time>2021-08-08T03:05:53Z</time>
      </trkpt>
      <trkpt lat="50.24398" lon="3.56086">
        <ele>63.1</ele>
        <time>2021-08-08T03:06:03Z</time>
      </trkpt>
      <trkpt lat="50.24397" lon="3.56091">
        <ele>63.1</ele>
        <time>2021-08-08T03:06:04Z</time>
      </trkpt>
      <trkpt lat="50.24398" lon="3.56096">
        <ele>63.1</ele>
        <time>2021-08-08T03:06:05Z</time>
      </trkpt>
      <trkpt lat="50.24399" lon="3.56101">
        <ele>63.1</ele>
        <time>2021-08-08T03:06:06Z</time>
      </trkpt>
      <trkpt lat="50.24399" lon="3.56104">
        <ele>63.1</ele>
        <time>2021-08-08T03:06:07Z</time>
      </trkpt>
      <trkpt lat="50.244" lon="3.56108">
        <ele>64.55</ele>
        <time>2021-08-08T03:06:08Z</time>
      </trkpt>
      <trkpt lat="50.24402" lon="3.56112">
        <ele>64.55</ele>
        <time>2021-08-08T03:06:09Z</time>
      </trkpt>
      <trkpt lat="50.24404" lon="3.56115">
        <ele>64.55</ele>
        <time>2021-08-08T03:06:10Z</time>
      </trkpt>
      <trkpt lat="50.24406" lon="3.56118">
        <ele>65.03</ele>
        <time>2021-08-08T03:06:11Z</time>
      </trkpt>
      <trkpt lat="50.24414" lon="3.56141">
        <ele>66.47</ele>
        <time>2021-08-08T03:06:18Z</time>
      </trkpt>
      <trkpt lat="50.24423" lon="3.56162">
        <ele>67.43</ele>
        <time>2021-08-08T03:06:26Z</time>
      </trkpt>
      <trkpt lat="50.24434" lon="3.56181">
        <ele>69.35</ele>
        <time>2021-08-08T03:06:34Z</time>
      </trkpt>
      <trkpt lat="50.24445" lon="3.56198">
        <ele>71.27</ele>
        <time>2021-08-08T03:06:42Z</time>
      </trkpt>
      <trkpt lat="50.24456" lon="3.56211">
        <ele>73.2</ele>
        <time>2021-08-08T03:06:50Z</time>
      </trkpt>
      <trkpt lat="50.24468" lon="3.56221">
        <ele>74.64</ele>
        <time>2021-08-08T03:06:58Z</time>
      </trkpt>
      <trkpt lat="50.24482" lon="3.56232">
        <ele>75.6</ele>
        <time>2021-08-08T03:07:06Z</time>
      </trkpt>
      <trkpt lat="50.24498" lon="3.56246">
        <ele>78</ele>
        <time>2021-08-08T03:07:15Z</time>
      </trkpt>
      <trkpt lat="50.24514" lon="3.56259">
        <ele>79.45</ele>
        <time>2021-08-08T03:07:24Z</time>
      </trkpt>
      <trkpt lat="50.2453" lon="3.56267">
        <ele>80.89</ele>
        <time>2021-08-08T03:07:33Z</time>
      </trkpt>
      <trkpt lat="50.24544" lon="3.56275">
        <ele>82.33</ele>
        <time>2021-08-08T03:07:41Z</time>
      </trkpt>
      <trkpt lat="50.24559" lon="3.56286">
        <ele>83.77</ele>
        <time>2021-08-08T03:07:49Z</time>
      </trkpt>
      <trkpt lat="50.24578" lon="3.56305">
        <ele>84.73</ele>
        <time>2021-08-08T03:07:59Z</time>
      </trkpt>
      <trkpt lat="50.246" lon="3.56325">
        <ele>85.69</ele>
        <time>2021-08-08T03:08:09Z</time>
      </trkpt>
      <trkpt lat="50.24623" lon="3.56343">
        <ele>86.66</ele>
        <time>2021-08-08T03:08:19Z</time>
      </trkpt>
      <trkpt lat="50.24649" lon="3.56363">
        <ele>87.14</ele>
        <time>2021-08-08T03:08:29Z</time>
      </trkpt>
      <trkpt lat="50.24678" lon="3.56384">
        <ele>87.62</ele>
        <time>2021-08-08T03:08:39Z</time>
      </trkpt>
      <trkpt lat="50.24703" lon="3.56409">
        <ele>88.1</ele>
        <time>2021-08-08T03:08:48Z</time>
      </trkpt>
      <trkpt lat="50.24705" lon="3.56446">
        <ele>89.54</ele>
        <time>2021-08-08T03:08:55Z</time>
      </trkpt>
      <trkpt lat="50.24704" lon="3.56507">
        <ele>90.5</ele>
        <time>2021-08-08T03:09:06Z</time>
      </trkpt>
      <trkpt lat="50.24703" lon="3.56567">
        <ele>90.98</ele>
        <time>2021-08-08T03:09:16Z</time>
      </trkpt>
      <trkpt lat="50.24703" lon="3.56615">
        <ele>91.94</ele>
        <time>2021-08-08T03:09:24Z</time>
      </trkpt>
      <trkpt lat="50.24701" lon="3.56687">
        <ele>92.9</ele>
        <time>2021-08-08T03:09:36Z</time>
      </trkpt>
      <trkpt lat="50.247" lon="3.56712">
        <ele>92.9</ele>
        <time>2021-08-08T03:09:40Z</time>
      </trkpt>
      <trkpt lat="50.24701" lon="3.56717">
        <ele>92.9</ele>
        <time>2021-08-08T03:09:41Z</time>
      </trkpt>
      <trkpt lat="50.24701" lon="3.56723">
        <ele>92.9</ele>
        <time>2021-08-08T03:09:42Z</time>
      </trkpt>
      <trkpt lat="50.24696" lon="3.56786">
        <ele>93.39</ele>
        <time>2021-08-08T03:09:52Z</time>
      </trkpt>
      <trkpt lat="50.24693" lon="3.56864">
        <ele>94.83</ele>
        <time>2021-08-08T03:10:04Z</time>
      </trkpt>
      <trkpt lat="50.24691" lon="3.56927">
        <ele>95.31</ele>
        <time>2021-08-08T03:10:14Z</time>
      </trkpt>
      <trkpt lat="50.2469" lon="3.56988">
        <ele>96.27</ele>
        <time>2021-08-08T03:10:23Z</time>
      </trkpt>
      <trkpt lat="50.24689" lon="3.57051">
        <ele>96.27</ele>
        <time>2021-08-08T03:10:32Z</time>
      </trkpt>
      <trkpt lat="50.2469" lon="3.57128">
        <ele>96.75</ele>
        <time>2021-08-08T03:10:43Z</time>
      </trkpt>
      <trkpt lat="50.2469" lon="3.57197">
        <ele>97.71</ele>
        <time>2021-08-08T03:10:53Z</time>
      </trkpt>
      <trkpt lat="50.2469" lon="3.57285">
        <ele>97.71</ele>
        <time>2021-08-08T03:11:05Z</time>
      </trkpt>
      <trkpt lat="50.24689" lon="3.57367">
        <ele>98.19</ele>
        <time>2021-08-08T03:11:16Z</time>
      </trkpt>
      <trkpt lat="50.2469" lon="3.57435">
        <ele>98.19</ele>
        <time>2021-08-08T03:11:25Z</time>
      </trkpt>
      <trkpt lat="50.24691" lon="3.575">
        <ele>96.75</ele>
        <time>2021-08-08T03:11:33Z</time>
      </trkpt>
      <trkpt lat="50.24691" lon="3.5757">
        <ele>96.27</ele>
        <time>2021-08-08T03:11:41Z</time>
      </trkpt>
      <trkpt lat="50.24692" lon="3.57578">
        <ele>96.27</ele>
        <time>2021-08-08T03:11:42Z</time>
      </trkpt>
      <trkpt lat="50.24692" lon="3.57586">
        <ele>96.27</ele>
        <time>2021-08-08T03:11:43Z</time>
      </trkpt>
      <trkpt lat="50.24692" lon="3.57602">
        <ele>96.27</ele>
        <time>2021-08-08T03:11:45Z</time>
      </trkpt>
      <trkpt lat="50.2469" lon="3.57665">
        <ele>96.27</ele>
        <time>2021-08-08T03:11:53Z</time>
      </trkpt>
      <trkpt lat="50.24686" lon="3.57761">
        <ele>96.27</ele>
        <time>2021-08-08T03:12:05Z</time>
      </trkpt>
      <trkpt lat="50.24677" lon="3.57848">
        <ele>95.79</ele>
        <time>2021-08-08T03:12:15Z</time>
      </trkpt>
      <trkpt lat="50.24664" lon="3.5796">
        <ele>95.31</ele>
        <time>2021-08-08T03:12:28Z</time>
      </trkpt>
      <trkpt lat="50.24655" lon="3.58038">
        <ele>94.83</ele>
        <time>2021-08-08T03:12:37Z</time>
      </trkpt>
      <trkpt lat="50.24635" lon="3.58111">
        <ele>93.87</ele>
        <time>2021-08-08T03:12:46Z</time>
      </trkpt>
      <trkpt lat="50.24606" lon="3.58191">
        <ele>93.87</ele>
        <time>2021-08-08T03:12:57Z</time>
      </trkpt>
      <trkpt lat="50.24584" lon="3.5826">
        <ele>93.87</ele>
        <time>2021-08-08T03:13:06Z</time>
      </trkpt>
      <trkpt lat="50.24566" lon="3.58319">
        <ele>93.87</ele>
        <time>2021-08-08T03:13:14Z</time>
      </trkpt>
      <trkpt lat="50.24563" lon="3.58327">
        <ele>93.87</ele>
        <time>2021-08-08T03:13:15Z</time>
      </trkpt>
      <trkpt lat="50.24559" lon="3.58342">
        <ele>93.87</ele>
        <time>2021-08-08T03:13:17Z</time>
      </trkpt>
      <trkpt lat="50.24557" lon="3.58349">
        <ele>93.87</ele>
        <time>2021-08-08T03:13:18Z</time>
      </trkpt>
      <trkpt lat="50.24544" lon="3.58395">
        <ele>93.87</ele>
        <time>2021-08-08T03:13:24Z</time>
      </trkpt>
      <trkpt lat="50.24541" lon="3.58403">
        <ele>93.87</ele>
        <time>2021-08-08T03:13:25Z</time>
      </trkpt>
      <trkpt lat="50.2454" lon="3.58411">
        <ele>93.87</ele>
        <time>2021-08-08T03:13:26Z</time>
      </trkpt>
      <trkpt lat="50.24538" lon="3.58418">
        <ele>93.87</ele>
        <time>2021-08-08T03:13:27Z</time>
      </trkpt>
      <trkpt lat="50.24536" lon="3.58426">
        <ele>93.39</ele>
        <time>2021-08-08T03:13:28Z</time>
      </trkpt>
      <trkpt lat="50.24522" lon="3.58499">
        <ele>93.87</ele>
        <time>2021-08-08T03:13:37Z</time>
      </trkpt>
      <trkpt lat="50.24512" lon="3.58551">
        <ele>93.39</ele>
        <time>2021-08-08T03:13:44Z</time>
      </trkpt>
      <trkpt lat="50.24501" lon="3.58599">
        <ele>93.39</ele>
        <time>2021-08-08T03:13:51Z</time>
      </trkpt>
      <trkpt lat="50.24498" lon="3.58605">
        <ele>93.39</ele>
        <time>2021-08-08T03:13:52Z</time>
      </trkpt>
      <trkpt lat="50.24495" lon="3.58609">
        <ele>93.39</ele>
        <time>2021-08-08T03:13:53Z</time>
      </trkpt>
      <trkpt lat="50.2449" lon="3.58613">
        <ele>91.94</ele>
        <time>2021-08-08T03:13:54Z</time>
      </trkpt>
      <trkpt lat="50.24486" lon="3.58617">
        <ele>91.94</ele>
        <time>2021-08-08T03:13:55Z</time>
      </trkpt>
      <trkpt lat="50.24443" lon="3.58645">
        <ele>90.98</ele>
        <time>2021-08-08T03:14:04Z</time>
      </trkpt>
      <trkpt lat="50.24409" lon="3.58672">
        <ele>89.54</ele>
        <time>2021-08-08T03:14:11Z</time>
      </trkpt>
      <trkpt lat="50.24401" lon="3.5868">
        <ele>89.54</ele>
        <time>2021-08-08T03:14:13Z</time>
      </trkpt>
      <trkpt lat="50.24397" lon="3.58686">
        <ele>89.54</ele>
        <time>2021-08-08T03:14:14Z</time>
      </trkpt>
      <trkpt lat="50.2438" lon="3.58709">
        <ele>89.06</ele>
        <time>2021-08-08T03:14:18Z</time>
      </trkpt>
      <trkpt lat="50.24373" lon="3.58723">
        <ele>88.58</ele>
        <time>2021-08-08T03:14:20Z</time>
      </trkpt>
      <trkpt lat="50.24355" lon="3.58782">
        <ele>87.62</ele>
        <time>2021-08-08T03:14:27Z</time>
      </trkpt>
      <trkpt lat="50.24346" lon="3.58818">
        <ele>86.18</ele>
        <time>2021-08-08T03:14:31Z</time>
      </trkpt>
      <trkpt lat="50.24329" lon="3.58863">
        <ele>87.62</ele>
        <time>2021-08-08T03:14:37Z</time>
      </trkpt>
      <trkpt lat="50.24311" lon="3.58913">
        <ele>87.62</ele>
        <time>2021-08-08T03:14:44Z</time>
      </trkpt>
      <trkpt lat="50.24284" lon="3.58978">
        <ele>86.66</ele>
        <time>2021-08-08T03:14:53Z</time>
      </trkpt>
      <trkpt lat="50.24254" lon="3.59034">
        <ele>83.29</ele>
        <time>2021-08-08T03:15:00Z</time>
      </trkpt>
      <trkpt lat="50.24249" lon="3.5904">
        <ele>83.29</ele>
        <time>2021-08-08T03:15:01Z</time>
      </trkpt>
      <trkpt lat="50.24243" lon="3.59046">
        <ele>82.33</ele>
        <time>2021-08-08T03:15:02Z</time>
      </trkpt>
      <trkpt lat="50.24237" lon="3.59051">
        <ele>81.37</ele>
        <time>2021-08-08T03:15:03Z</time>
      </trkpt>
      <trkpt lat="50.242" lon="3.59075">
        <ele>77.04</ele>
        <time>2021-08-08T03:15:08Z</time>
      </trkpt>
      <trkpt lat="50.24168" lon="3.59097">
        <ele>75.12</ele>
        <time>2021-08-08T03:15:13Z</time>
      </trkpt>
      <trkpt lat="50.24159" lon="3.59106">
        <ele>75.12</ele>
        <time>2021-08-08T03:15:15Z</time>
      </trkpt>
      <trkpt lat="50.24155" lon="3.59112">
        <ele>75.12</ele>
        <time>2021-08-08T03:15:16Z</time>
      </trkpt>
      <trkpt lat="50.24152" lon="3.59119">
        <ele>75.12</ele>
        <time>2021-08-08T03:15:17Z</time>
      </trkpt>
      <trkpt lat="50.24127" lon="3.59191">
        <ele>74.16</ele>
        <time>2021-08-08T03:15:26Z</time>
      </trkpt>
      <trkpt lat="50.24111" lon="3.59235">
        <ele>74.16</ele>
        <time>2021-08-08T03:15:33Z</time>
      </trkpt>
      <trkpt lat="50.24105" lon="3.59249">
        <ele>75.6</ele>
        <time>2021-08-08T03:15:36Z</time>
      </trkpt>
      <trkpt lat="50.24104" lon="3.59255">
        <ele>75.6</ele>
        <time>2021-08-08T03:15:37Z</time>
      </trkpt>
      <trkpt lat="50.24105" lon="3.5926">
        <ele>76.08</ele>
        <time>2021-08-08T03:15:38Z</time>
      </trkpt>
      <trkpt lat="50.24105" lon="3.59264">
        <ele>76.08</ele>
        <time>2021-08-08T03:15:39Z</time>
      </trkpt>
      <trkpt lat="50.24106" lon="3.5927">
        <ele>76.56</ele>
        <time>2021-08-08T03:15:40Z</time>
      </trkpt>
      <trkpt lat="50.24106" lon="3.59275">
        <ele>76.56</ele>
        <time>2021-08-08T03:15:41Z</time>
      </trkpt>
      <trkpt lat="50.24116" lon="3.5932">
        <ele>77.52</ele>
        <time>2021-08-08T03:15:50Z</time>
      </trkpt>
      <trkpt lat="50.2413" lon="3.59356">
        <ele>78.48</ele>
        <time>2021-08-08T03:15:58Z</time>
      </trkpt>
      <trkpt lat="50.2415" lon="3.59386">
        <ele>79.93</ele>
        <time>2021-08-08T03:16:06Z</time>
      </trkpt>
      <trkpt lat="50.2417" lon="3.59418">
        <ele>81.37</ele>
        <time>2021-08-08T03:16:15Z</time>
      </trkpt>
      <trkpt lat="50.24188" lon="3.59451">
        <ele>83.29</ele>
        <time>2021-08-08T03:16:24Z</time>
      </trkpt>
      <trkpt lat="50.24214" lon="3.59487">
        <ele>85.21</ele>
        <time>2021-08-08T03:16:34Z</time>
      </trkpt>
      <trkpt lat="50.24237" lon="3.59523">
        <ele>86.66</ele>
        <time>2021-08-08T03:16:44Z</time>
      </trkpt>
      <trkpt lat="50.24238" lon="3.59533">
        <ele>86.66</ele>
        <time>2021-08-08T03:16:46Z</time>
      </trkpt>
      <trkpt lat="50.24237" lon="3.59537">
        <ele>86.66</ele>
        <time>2021-08-08T03:16:47Z</time>
      </trkpt>
      <trkpt lat="50.24234" lon="3.59541">
        <ele>86.66</ele>
        <time>2021-08-08T03:16:48Z</time>
      </trkpt>
      <trkpt lat="50.24232" lon="3.59544">
        <ele>87.14</ele>
        <time>2021-08-08T03:16:49Z</time>
      </trkpt>
      <trkpt lat="50.24229" lon="3.59547">
        <ele>87.14</ele>
        <time>2021-08-08T03:16:50Z</time>
      </trkpt>
      <trkpt lat="50.24205" lon="3.59567">
        <ele>88.58</ele>
        <time>2021-08-08T03:16:58Z</time>
      </trkpt>
      <trkpt lat="50.24186" lon="3.59575">
        <ele>90.02</ele>
        <time>2021-08-08T03:17:05Z</time>
      </trkpt>
      <trkpt lat="50.24166" lon="3.59584">
        <ele>91.46</ele>
        <time>2021-08-08T03:17:14Z</time>
      </trkpt>
      <trkpt lat="50.24148" lon="3.59593">
        <ele>92.9</ele>
        <time>2021-08-08T03:17:21Z</time>
      </trkpt>
      <trkpt lat="50.24123" lon="3.59608">
        <ele>94.83</ele>
        <time>2021-08-08T03:17:29Z</time>
      </trkpt>
      <trkpt lat="50.24098" lon="3.59626">
        <ele>96.27</ele>
        <time>2021-08-08T03:17:38Z</time>
      </trkpt>
      <trkpt lat="50.24066" lon="3.59652">
        <ele>97.71</ele>
        <time>2021-08-08T03:17:50Z</time>
      </trkpt>
      <trkpt lat="50.24032" lon="3.59681">
        <ele>98.67</ele>
        <time>2021-08-08T03:18:01Z</time>
      </trkpt>
      <trkpt lat="50.2399" lon="3.59713">
        <ele>98.67</ele>
        <time>2021-08-08T03:18:13Z</time>
      </trkpt>
      <trkpt lat="50.23944" lon="3.59744">
        <ele>99.63</ele>
        <time>2021-08-08T03:18:25Z</time>
      </trkpt>
      <trkpt lat="50.23899" lon="3.59775">
        <ele>102.04</ele>
        <time>2021-08-08T03:18:37Z</time>
      </trkpt>
      <trkpt lat="50.23861" lon="3.59808">
        <ele>102.04</ele>
        <time>2021-08-08T03:18:47Z</time>
      </trkpt>
      <trkpt lat="50.23814" lon="3.59851">
        <ele>102.04</ele>
        <time>2021-08-08T03:18:59Z</time>
      </trkpt>
      <trkpt lat="50.23776" lon="3.59888">
        <ele>102.04</ele>
        <time>2021-08-08T03:19:09Z</time>
      </trkpt>
      <trkpt lat="50.23771" lon="3.59899">
        <ele>102.04</ele>
        <time>2021-08-08T03:19:12Z</time>
      </trkpt>
      <trkpt lat="50.23772" lon="3.59904">
        <ele>102.04</ele>
        <time>2021-08-08T03:19:13Z</time>
      </trkpt>
      <trkpt lat="50.23789" lon="3.59934">
        <ele>103</ele>
        <time>2021-08-08T03:19:20Z</time>
      </trkpt>
      <trkpt lat="50.23824" lon="3.59988">
        <ele>103.96</ele>
        <time>2021-08-08T03:19:31Z</time>
      </trkpt>
      <trkpt lat="50.23851" lon="3.60038">
        <ele>104.44</ele>
        <time>2021-08-08T03:19:39Z</time>
      </trkpt>
      <trkpt lat="50.23877" lon="3.60097">
        <ele>104.92</ele>
        <time>2021-08-08T03:19:48Z</time>
      </trkpt>
      <trkpt lat="50.23915" lon="3.60187">
        <ele>105.88</ele>
        <time>2021-08-08T03:20:01Z</time>
      </trkpt>
      <trkpt lat="50.23945" lon="3.60256">
        <ele>107.32</ele>
        <time>2021-08-08T03:20:11Z</time>
      </trkpt>
      <trkpt lat="50.23948" lon="3.60263">
        <ele>107.32</ele>
        <time>2021-08-08T03:20:12Z</time>
      </trkpt>
      <trkpt lat="50.23994" lon="3.60329">
        <ele>108.29</ele>
        <time>2021-08-08T03:20:24Z</time>
      </trkpt>
      <trkpt lat="50.2401" lon="3.60356">
        <ele>109.25</ele>
        <time>2021-08-08T03:20:30Z</time>
      </trkpt>
      <trkpt lat="50.2401" lon="3.60359">
        <ele>109.25</ele>
        <time>2021-08-08T03:20:31Z</time>
      </trkpt>
      <trkpt lat="50.24009" lon="3.60363">
        <ele>109.25</ele>
        <time>2021-08-08T03:20:36Z</time>
      </trkpt>
      <trkpt lat="50.24009" lon="3.60363">
        <ele>109.25</ele>
        <time>2021-08-08T03:20:51Z</time>
      </trkpt>
      <trkpt lat="50.24009" lon="3.60363">
        <ele>109.25</ele>
        <time>2021-08-08T03:21:07Z</time>
      </trkpt>
      <trkpt lat="50.24009" lon="3.60363">
        <ele>109.25</ele>
        <time>2021-08-08T03:21:22Z</time>
      </trkpt>
      <trkpt lat="50.24009" lon="3.60364">
        <ele>109.73</ele>
        <time>2021-08-08T03:21:34Z</time>
      </trkpt>
      <trkpt lat="50.24009" lon="3.60365">
        <ele>109.73</ele>
        <time>2021-08-08T03:21:51Z</time>
      </trkpt>
      <trkpt lat="50.24009" lon="3.60365">
        <ele>109.73</ele>
        <time>2021-08-08T03:22:06Z</time>
      </trkpt>
      <trkpt lat="50.24009" lon="3.60369">
        <ele>109.73</ele>
        <time>2021-08-08T03:22:15Z</time>
      </trkpt>
      <trkpt lat="50.24007" lon="3.60376">
        <ele>109.73</ele>
        <time>2021-08-08T03:22:24Z</time>
      </trkpt>
      <trkpt lat="50.24004" lon="3.60392">
        <ele>109.73</ele>
        <time>2021-08-08T03:22:30Z</time>
      </trkpt>
      <trkpt lat="50.23999" lon="3.60421">
        <ele>109.73</ele>
        <time>2021-08-08T03:22:36Z</time>
      </trkpt>
      <trkpt lat="50.23994" lon="3.60463">
        <ele>109.73</ele>
        <time>2021-08-08T03:22:43Z</time>
      </trkpt>
      <trkpt lat="50.23983" lon="3.60529">
        <ele>110.69</ele>
        <time>2021-08-08T03:22:53Z</time>
      </trkpt>
      <trkpt lat="50.23967" lon="3.6059">
        <ele>111.65</ele>
        <time>2021-08-08T03:23:03Z</time>
      </trkpt>
      <trkpt lat="50.23946" lon="3.60647">
        <ele>112.13</ele>
        <time>2021-08-08T03:23:13Z</time>
      </trkpt>
      <trkpt lat="50.23927" lon="3.60689">
        <ele>113.57</ele>
        <time>2021-08-08T03:23:21Z</time>
      </trkpt>
      <trkpt lat="50.23903" lon="3.60733">
        <ele>114.05</ele>
        <time>2021-08-08T03:23:30Z</time>
      </trkpt>
      <trkpt lat="50.23881" lon="3.60775">
        <ele>115.01</ele>
        <time>2021-08-08T03:23:39Z</time>
      </trkpt>
      <trkpt lat="50.23874" lon="3.6079">
        <ele>115.5</ele>
        <time>2021-08-08T03:23:42Z</time>
      </trkpt>
      <trkpt lat="50.23872" lon="3.60795">
        <ele>115.5</ele>
        <time>2021-08-08T03:23:43Z</time>
      </trkpt>
      <trkpt lat="50.2387" lon="3.608">
        <ele>115.5</ele>
        <time>2021-08-08T03:23:44Z</time>
      </trkpt>
      <trkpt lat="50.23868" lon="3.60806">
        <ele>115.5</ele>
        <time>2021-08-08T03:23:45Z</time>
      </trkpt>
      <trkpt lat="50.23866" lon="3.60811">
        <ele>115.5</ele>
        <time>2021-08-08T03:23:46Z</time>
      </trkpt>
      <trkpt lat="50.23849" lon="3.60861">
        <ele>116.46</ele>
        <time>2021-08-08T03:23:55Z</time>
      </trkpt>
      <trkpt lat="50.23835" lon="3.60907">
        <ele>117.42</ele>
        <time>2021-08-08T03:24:03Z</time>
      </trkpt>
      <trkpt lat="50.23833" lon="3.60913">
        <ele>117.42</ele>
        <time>2021-08-08T03:24:04Z</time>
      </trkpt>
      <trkpt lat="50.23832" lon="3.60919">
        <ele>117.42</ele>
        <time>2021-08-08T03:24:05Z</time>
      </trkpt>
      <trkpt lat="50.23826" lon="3.60983">
        <ele>117.9</ele>
        <time>2021-08-08T03:24:15Z</time>
      </trkpt>
      <trkpt lat="50.23829" lon="3.61054">
        <ele>118.86</ele>
        <time>2021-08-08T03:24:26Z</time>
      </trkpt>
      <trkpt lat="50.23829" lon="3.61061">
        <ele>118.86</ele>
        <time>2021-08-08T03:24:27Z</time>
      </trkpt>
      <trkpt lat="50.23829" lon="3.61074">
        <ele>119.34</ele>
        <time>2021-08-08T03:24:29Z</time>
      </trkpt>
      <trkpt lat="50.23827" lon="3.61115">
        <ele>120.3</ele>
        <time>2021-08-08T03:24:36Z</time>
      </trkpt>
      <trkpt lat="50.23816" lon="3.61139">
        <ele>120.78</ele>
        <time>2021-08-08T03:24:41Z</time>
      </trkpt>
      <trkpt lat="50.23803" lon="3.6115">
        <ele>121.26</ele>
        <time>2021-08-08T03:24:45Z</time>
      </trkpt>
      <trkpt lat="50.23768" lon="3.61166">
        <ele>121.26</ele>
        <time>2021-08-08T03:24:54Z</time>
      </trkpt>
      <trkpt lat="50.23742" lon="3.61184">
        <ele>121.74</ele>
        <time>2021-08-08T03:25:01Z</time>
      </trkpt>
      <trkpt lat="50.23738" lon="3.61187">
        <ele>121.74</ele>
        <time>2021-08-08T03:25:02Z</time>
      </trkpt>
      <trkpt lat="50.23727" lon="3.61196">
        <ele>121.74</ele>
        <time>2021-08-08T03:25:05Z</time>
      </trkpt>
      <trkpt lat="50.23724" lon="3.61199">
        <ele>121.74</ele>
        <time>2021-08-08T03:25:06Z</time>
      </trkpt>
      <trkpt lat="50.23716" lon="3.61204">
        <ele>121.26</ele>
        <time>2021-08-08T03:25:08Z</time>
      </trkpt>
      <trkpt lat="50.23709" lon="3.61211">
        <ele>121.74</ele>
        <time>2021-08-08T03:25:10Z</time>
      </trkpt>
      <trkpt lat="50.23676" lon="3.61247">
        <ele>121.74</ele>
        <time>2021-08-08T03:25:20Z</time>
      </trkpt>
      <trkpt lat="50.23661" lon="3.61268">
        <ele>121.74</ele>
        <time>2021-08-08T03:25:25Z</time>
      </trkpt>
      <trkpt lat="50.23658" lon="3.61272">
        <ele>121.74</ele>
        <time>2021-08-08T03:25:26Z</time>
      </trkpt>
      <trkpt lat="50.23632" lon="3.6132">
        <ele>121.74</ele>
        <time>2021-08-08T03:25:36Z</time>
      </trkpt>
      <trkpt lat="50.2361" lon="3.61363">
        <ele>121.74</ele>
        <time>2021-08-08T03:25:45Z</time>
      </trkpt>
      <trkpt lat="50.23588" lon="3.61407">
        <ele>122.22</ele>
        <time>2021-08-08T03:25:54Z</time>
      </trkpt>
      <trkpt lat="50.23563" lon="3.61466">
        <ele>123.19</ele>
        <time>2021-08-08T03:26:05Z</time>
      </trkpt>
      <trkpt lat="50.23538" lon="3.61513">
        <ele>123.67</ele>
        <time>2021-08-08T03:26:15Z</time>
      </trkpt>
      <trkpt lat="50.23509" lon="3.61559">
        <ele>124.15</ele>
        <time>2021-08-08T03:26:26Z</time>
      </trkpt>
      <trkpt lat="50.23481" lon="3.61605">
        <ele>124.63</ele>
        <time>2021-08-08T03:26:36Z</time>
      </trkpt>
      <trkpt lat="50.23457" lon="3.61651">
        <ele>122.71</ele>
        <time>2021-08-08T03:26:44Z</time>
      </trkpt>
      <trkpt lat="50.23426" lon="3.61718">
        <ele>121.26</ele>
        <time>2021-08-08T03:26:54Z</time>
      </trkpt>
      <trkpt lat="50.23398" lon="3.6178">
        <ele>119.82</ele>
        <time>2021-08-08T03:27:03Z</time>
      </trkpt>
      <trkpt lat="50.23367" lon="3.61861">
        <ele>117.9</ele>
        <time>2021-08-08T03:27:13Z</time>
      </trkpt>
      <trkpt lat="50.23337" lon="3.61947">
        <ele>116.94</ele>
        <time>2021-08-08T03:27:24Z</time>
      </trkpt>
      <trkpt lat="50.23336" lon="3.61955">
        <ele>116.46</ele>
        <time>2021-08-08T03:27:25Z</time>
      </trkpt>
      <trkpt lat="50.23335" lon="3.61964">
        <ele>116.46</ele>
        <time>2021-08-08T03:27:26Z</time>
      </trkpt>
      <trkpt lat="50.23333" lon="3.61978">
        <ele>116.46</ele>
        <time>2021-08-08T03:27:28Z</time>
      </trkpt>
      <trkpt lat="50.2333" lon="3.61992">
        <ele>116.46</ele>
        <time>2021-08-08T03:27:30Z</time>
      </trkpt>
      <trkpt lat="50.23328" lon="3.61997">
        <ele>116.46</ele>
        <time>2021-08-08T03:27:31Z</time>
      </trkpt>
      <trkpt lat="50.23314" lon="3.62037">
        <ele>117.9</ele>
        <time>2021-08-08T03:27:38Z</time>
      </trkpt>
      <trkpt lat="50.23293" lon="3.621">
        <ele>118.86</ele>
        <time>2021-08-08T03:27:49Z</time>
      </trkpt>
      <trkpt lat="50.2327" lon="3.62157">
        <ele>119.82</ele>
        <time>2021-08-08T03:28:00Z</time>
      </trkpt>
      <trkpt lat="50.23241" lon="3.62208">
        <ele>120.3</ele>
        <time>2021-08-08T03:28:11Z</time>
      </trkpt>
      <trkpt lat="50.23221" lon="3.62242">
        <ele>122.22</ele>
        <time>2021-08-08T03:28:19Z</time>
      </trkpt>
      <trkpt lat="50.23205" lon="3.62269">
        <ele>123.19</ele>
        <time>2021-08-08T03:28:28Z</time>
      </trkpt>
      <trkpt lat="50.23204" lon="3.62291">
        <ele>125.59</ele>
        <time>2021-08-08T03:28:33Z</time>
      </trkpt>
      <trkpt lat="50.23211" lon="3.62299">
        <ele>126.07</ele>
        <time>2021-08-08T03:28:36Z</time>
      </trkpt>
      <trkpt lat="50.23214" lon="3.62298">
        <ele>125.59</ele>
        <time>2021-08-08T03:28:37Z</time>
      </trkpt>
      <trkpt lat="50.23217" lon="3.62298">
        <ele>126.07</ele>
        <time>2021-08-08T03:28:38Z</time>
      </trkpt>
      <trkpt lat="50.2322" lon="3.62296">
        <ele>126.07</ele>
        <time>2021-08-08T03:28:39Z</time>
      </trkpt>
      <trkpt lat="50.23223" lon="3.62294">
        <ele>125.59</ele>
        <time>2021-08-08T03:28:40Z</time>
      </trkpt>
      <trkpt lat="50.23227" lon="3.62291">
        <ele>125.59</ele>
        <time>2021-08-08T03:28:41Z</time>
      </trkpt>
      <trkpt lat="50.23264" lon="3.62273">
        <ele>124.63</ele>
        <time>2021-08-08T03:28:50Z</time>
      </trkpt>
      <trkpt lat="50.23304" lon="3.62259">
        <ele>124.15</ele>
        <time>2021-08-08T03:28:59Z</time>
      </trkpt>
      <trkpt lat="50.23348" lon="3.62252">
        <ele>124.15</ele>
        <time>2021-08-08T03:29:08Z</time>
      </trkpt>
      <trkpt lat="50.23386" lon="3.62253">
        <ele>123.67</ele>
        <time>2021-08-08T03:29:16Z</time>
      </trkpt>
      <trkpt lat="50.23439" lon="3.62261">
        <ele>123.67</ele>
        <time>2021-08-08T03:29:27Z</time>
      </trkpt>
      <trkpt lat="50.23444" lon="3.62263">
        <ele>123.67</ele>
        <time>2021-08-08T03:29:28Z</time>
      </trkpt>
      <trkpt lat="50.23479" lon="3.6227">
        <ele>123.67</ele>
        <time>2021-08-08T03:29:35Z</time>
      </trkpt>
      <trkpt lat="50.23537" lon="3.62283">
        <ele>123.67</ele>
        <time>2021-08-08T03:29:46Z</time>
      </trkpt>
      <trkpt lat="50.23585" lon="3.62291">
        <ele>121.74</ele>
        <time>2021-08-08T03:29:55Z</time>
      </trkpt>
      <trkpt lat="50.2364" lon="3.623">
        <ele>119.82</ele>
        <time>2021-08-08T03:30:04Z</time>
      </trkpt>
      <trkpt lat="50.23705" lon="3.62312">
        <ele>118.38</ele>
        <time>2021-08-08T03:30:14Z</time>
      </trkpt>
      <trkpt lat="50.23745" lon="3.6232">
        <ele>117.9</ele>
        <time>2021-08-08T03:30:21Z</time>
      </trkpt>
      <trkpt lat="50.23791" lon="3.62331">
        <ele>116.46</ele>
        <time>2021-08-08T03:30:29Z</time>
      </trkpt>
      <trkpt lat="50.23847" lon="3.62344">
        <ele>115.98</ele>
        <time>2021-08-08T03:30:39Z</time>
      </trkpt>
      <trkpt lat="50.23897" lon="3.62355">
        <ele>115.5</ele>
        <time>2021-08-08T03:30:48Z</time>
      </trkpt>
      <trkpt lat="50.23944" lon="3.62364">
        <ele>115.5</ele>
        <time>2021-08-08T03:30:57Z</time>
      </trkpt>
      <trkpt lat="50.23988" lon="3.62372">
        <ele>115.01</ele>
        <time>2021-08-08T03:31:06Z</time>
      </trkpt>
      <trkpt lat="50.2402" lon="3.62379">
        <ele>115.01</ele>
        <time>2021-08-08T03:31:14Z</time>
      </trkpt>
      <trkpt lat="50.24044" lon="3.62384">
        <ele>116.46</ele>
        <time>2021-08-08T03:31:21Z</time>
      </trkpt>
      <trkpt lat="50.24068" lon="3.62387">
        <ele>116.94</ele>
        <time>2021-08-08T03:31:28Z</time>
      </trkpt>
      <trkpt lat="50.24096" lon="3.62393">
        <ele>118.38</ele>
        <time>2021-08-08T03:31:36Z</time>
      </trkpt>
      <trkpt lat="50.24121" lon="3.62398">
        <ele>118.86</ele>
        <time>2021-08-08T03:31:43Z</time>
      </trkpt>
      <trkpt lat="50.24158" lon="3.62405">
        <ele>120.3</ele>
        <time>2021-08-08T03:31:54Z</time>
      </trkpt>
      <trkpt lat="50.24199" lon="3.62415">
        <ele>121.26</ele>
        <time>2021-08-08T03:32:05Z</time>
      </trkpt>
      <trkpt lat="50.24235" lon="3.62422">
        <ele>122.71</ele>
        <time>2021-08-08T03:32:15Z</time>
      </trkpt>
      <trkpt lat="50.24269" lon="3.62429">
        <ele>123.19</ele>
        <time>2021-08-08T03:32:24Z</time>
      </trkpt>
      <trkpt lat="50.243" lon="3.62437">
        <ele>123.67</ele>
        <time>2021-08-08T03:32:32Z</time>
      </trkpt>
      <trkpt lat="50.24333" lon="3.62444">
        <ele>124.63</ele>
        <time>2021-08-08T03:32:41Z</time>
      </trkpt>
      <trkpt lat="50.24362" lon="3.62452">
        <ele>125.11</ele>
        <time>2021-08-08T03:32:49Z</time>
      </trkpt>
      <trkpt lat="50.24391" lon="3.62458">
        <ele>125.11</ele>
        <time>2021-08-08T03:32:57Z</time>
      </trkpt>
      <trkpt lat="50.24391" lon="3.62458">
        <ele>125.59</ele>
        <time>2021-08-08T03:33:02Z</time>
      </trkpt>
      <trkpt lat="50.24391" lon="3.62458">
        <ele>125.59</ele>
        <time>2021-08-08T03:33:17Z</time>
      </trkpt>
      <trkpt lat="50.24394" lon="3.62457">
        <ele>125.59</ele>
        <time>2021-08-08T03:33:27Z</time>
      </trkpt>
      <trkpt lat="50.24405" lon="3.62461">
        <ele>125.59</ele>
        <time>2021-08-08T03:33:32Z</time>
      </trkpt>
      <trkpt lat="50.24429" lon="3.62465">
        <ele>125.59</ele>
        <time>2021-08-08T03:33:38Z</time>
      </trkpt>
      <trkpt lat="50.24438" lon="3.62466">
        <ele>125.59</ele>
        <time>2021-08-08T03:33:40Z</time>
      </trkpt>
      <trkpt lat="50.24442" lon="3.62466">
        <ele>125.59</ele>
        <time>2021-08-08T03:33:41Z</time>
      </trkpt>
      <trkpt lat="50.24447" lon="3.62468">
        <ele>125.59</ele>
        <time>2021-08-08T03:33:42Z</time>
      </trkpt>
      <trkpt lat="50.24484" lon="3.62476">
        <ele>122.71</ele>
        <time>2021-08-08T03:33:50Z</time>
      </trkpt>
      <trkpt lat="50.24485" lon="3.62478">
        <ele>122.71</ele>
        <time>2021-08-08T03:33:51Z</time>
      </trkpt>
      <trkpt lat="50.24484" lon="3.6248">
        <ele>123.19</ele>
        <time>2021-08-08T03:33:57Z</time>
      </trkpt>
      <trkpt lat="50.24483" lon="3.6248">
        <ele>123.19</ele>
        <time>2021-08-08T03:34:10Z</time>
      </trkpt>
      <trkpt lat="50.24482" lon="3.6248">
        <ele>122.71</ele>
        <time>2021-08-08T03:34:24Z</time>
      </trkpt>
      <trkpt lat="50.24482" lon="3.62478">
        <ele>122.71</ele>
        <time>2021-08-08T03:34:26Z</time>
      </trkpt>
      <trkpt lat="50.24483" lon="3.62476">
        <ele>122.71</ele>
        <time>2021-08-08T03:34:27Z</time>
      </trkpt>
      <trkpt lat="50.24484" lon="3.62476">
        <ele>122.71</ele>
        <time>2021-08-08T03:34:28Z</time>
      </trkpt>
      <trkpt lat="50.24487" lon="3.62477">
        <ele>123.19</ele>
        <time>2021-08-08T03:34:30Z</time>
      </trkpt>
      <trkpt lat="50.24496" lon="3.62494">
        <ele>124.15</ele>
        <time>2021-08-08T03:34:35Z</time>
      </trkpt>
      <trkpt lat="50.24498" lon="3.62498">
        <ele>124.15</ele>
        <time>2021-08-08T03:34:36Z</time>
      </trkpt>
      <trkpt lat="50.24512" lon="3.62521">
        <ele>123.19</ele>
        <time>2021-08-08T03:34:42Z</time>
      </trkpt>
      <trkpt lat="50.24517" lon="3.6253">
        <ele>122.22</ele>
        <time>2021-08-08T03:34:44Z</time>
      </trkpt>
      <trkpt lat="50.24541" lon="3.62563">
        <ele>119.34</ele>
        <time>2021-08-08T03:34:50Z</time>
      </trkpt>
      <trkpt lat="50.2458" lon="3.62626">
        <ele>118.38</ele>
        <time>2021-08-08T03:35:00Z</time>
      </trkpt>
      <trkpt lat="50.24605" lon="3.62662">
        <ele>118.38</ele>
        <time>2021-08-08T03:35:07Z</time>
      </trkpt>
      <trkpt lat="50.24632" lon="3.62696">
        <ele>118.38</ele>
        <time>2021-08-08T03:35:15Z</time>
      </trkpt>
      <trkpt lat="50.24673" lon="3.62741">
        <ele>117.9</ele>
        <time>2021-08-08T03:35:25Z</time>
      </trkpt>
      <trkpt lat="50.24708" lon="3.62771">
        <ele>117.9</ele>
        <time>2021-08-08T03:35:33Z</time>
      </trkpt>
      <trkpt lat="50.24726" lon="3.62783">
        <ele>117.9</ele>
        <time>2021-08-08T03:35:37Z</time>
      </trkpt>
      <trkpt lat="50.2473" lon="3.62787">
        <ele>117.9</ele>
        <time>2021-08-08T03:35:38Z</time>
      </trkpt>
      <trkpt lat="50.24745" lon="3.62795">
        <ele>117.9</ele>
        <time>2021-08-08T03:35:41Z</time>
      </trkpt>
      <trkpt lat="50.24756" lon="3.62798">
        <ele>117.9</ele>
        <time>2021-08-08T03:35:43Z</time>
      </trkpt>
      <trkpt lat="50.24761" lon="3.62798">
        <ele>117.9</ele>
        <time>2021-08-08T03:35:44Z</time>
      </trkpt>
      <trkpt lat="50.24766" lon="3.62797">
        <ele>117.9</ele>
        <time>2021-08-08T03:35:45Z</time>
      </trkpt>
      <trkpt lat="50.24772" lon="3.62796">
        <ele>117.9</ele>
        <time>2021-08-08T03:35:46Z</time>
      </trkpt>
      <trkpt lat="50.24776" lon="3.62795">
        <ele>117.9</ele>
        <time>2021-08-08T03:35:47Z</time>
      </trkpt>
      <trkpt lat="50.24781" lon="3.62793">
        <ele>117.9</ele>
        <time>2021-08-08T03:35:48Z</time>
      </trkpt>
      <trkpt lat="50.24799" lon="3.62782">
        <ele>117.9</ele>
        <time>2021-08-08T03:35:52Z</time>
      </trkpt>
      <trkpt lat="50.24803" lon="3.62779">
        <ele>117.9</ele>
        <time>2021-08-08T03:35:53Z</time>
      </trkpt>
      <trkpt lat="50.24821" lon="3.6277">
        <ele>117.9</ele>
        <time>2021-08-08T03:35:57Z</time>
      </trkpt>
      <trkpt lat="50.24826" lon="3.6277">
        <ele>117.9</ele>
        <time>2021-08-08T03:35:58Z</time>
      </trkpt>
      <trkpt lat="50.2483" lon="3.62771">
        <ele>117.9</ele>
        <time>2021-08-08T03:35:59Z</time>
      </trkpt>
      <trkpt lat="50.24835" lon="3.62773">
        <ele>117.9</ele>
        <time>2021-08-08T03:36:00Z</time>
      </trkpt>
      <trkpt lat="50.2484" lon="3.62776">
        <ele>117.9</ele>
        <time>2021-08-08T03:36:01Z</time>
      </trkpt>
      <trkpt lat="50.24853" lon="3.62785">
        <ele>117.9</ele>
        <time>2021-08-08T03:36:04Z</time>
      </trkpt>
      <trkpt lat="50.24858" lon="3.62788">
        <ele>117.9</ele>
        <time>2021-08-08T03:36:05Z</time>
      </trkpt>
      <trkpt lat="50.24862" lon="3.62791">
        <ele>117.9</ele>
        <time>2021-08-08T03:36:06Z</time>
      </trkpt>
      <trkpt lat="50.24867" lon="3.62794">
        <ele>117.9</ele>
        <time>2021-08-08T03:36:07Z</time>
      </trkpt>
      <trkpt lat="50.24872" lon="3.62797">
        <ele>117.9</ele>
        <time>2021-08-08T03:36:08Z</time>
      </trkpt>
      <trkpt lat="50.24877" lon="3.62799">
        <ele>117.9</ele>
        <time>2021-08-08T03:36:09Z</time>
      </trkpt>
      <trkpt lat="50.24902" lon="3.62812">
        <ele>117.42</ele>
        <time>2021-08-08T03:36:14Z</time>
      </trkpt>
      <trkpt lat="50.24943" lon="3.62816">
        <ele>116.94</ele>
        <time>2021-08-08T03:36:22Z</time>
      </trkpt>
      <trkpt lat="50.24963" lon="3.62813">
        <ele>116.94</ele>
        <time>2021-08-08T03:36:26Z</time>
      </trkpt>
      <trkpt lat="50.24966" lon="3.62814">
        <ele>116.94</ele>
        <time>2021-08-08T03:36:27Z</time>
      </trkpt>
      <trkpt lat="50.24969" lon="3.62815">
        <ele>116.94</ele>
        <time>2021-08-08T03:36:28Z</time>
      </trkpt>
      <trkpt lat="50.24971" lon="3.6282">
        <ele>116.94</ele>
        <time>2021-08-08T03:36:29Z</time>
      </trkpt>
      <trkpt lat="50.24972" lon="3.62824">
        <ele>116.94</ele>
        <time>2021-08-08T03:36:30Z</time>
      </trkpt>
      <trkpt lat="50.24971" lon="3.62829">
        <ele>116.94</ele>
        <time>2021-08-08T03:36:31Z</time>
      </trkpt>
      <trkpt lat="50.24969" lon="3.62834">
        <ele>116.94</ele>
        <time>2021-08-08T03:36:32Z</time>
      </trkpt>
      <trkpt lat="50.24967" lon="3.62838">
        <ele>116.46</ele>
        <time>2021-08-08T03:36:33Z</time>
      </trkpt>
      <trkpt lat="50.24952" lon="3.62886">
        <ele>115.5</ele>
        <time>2021-08-08T03:36:41Z</time>
      </trkpt>
      <trkpt lat="50.24943" lon="3.62907">
        <ele>115.5</ele>
        <time>2021-08-08T03:36:45Z</time>
      </trkpt>
      <trkpt lat="50.24939" lon="3.62907">
        <ele>115.5</ele>
        <time>2021-08-08T03:36:46Z</time>
      </trkpt>
      <trkpt lat="50.24935" lon="3.62907">
        <ele>115.5</ele>
        <time>2021-08-08T03:36:47Z</time>
      </trkpt>
      <trkpt lat="50.24931" lon="3.62906">
        <ele>115.5</ele>
        <time>2021-08-08T03:36:48Z</time>
      </trkpt>
      <trkpt lat="50.24927" lon="3.62905">
        <ele>115.5</ele>
        <time>2021-08-08T03:36:49Z</time>
      </trkpt>
      <trkpt lat="50.24923" lon="3.62905">
        <ele>115.5</ele>
        <time>2021-08-08T03:36:50Z</time>
      </trkpt>
      <trkpt lat="50.24919" lon="3.62903">
        <ele>115.5</ele>
        <time>2021-08-08T03:36:51Z</time>
      </trkpt>
      <trkpt lat="50.24916" lon="3.62902">
        <ele>116.94</ele>
        <time>2021-08-08T03:36:52Z</time>
      </trkpt>
      <trkpt lat="50.24913" lon="3.62902">
        <ele>116.94</ele>
        <time>2021-08-08T03:36:53Z</time>
      </trkpt>
      <trkpt lat="50.24892" lon="3.62896">
        <ele>117.42</ele>
        <time>2021-08-08T03:36:59Z</time>
      </trkpt>
      <trkpt lat="50.24867" lon="3.62888">
        <ele>117.42</ele>
        <time>2021-08-08T03:37:06Z</time>
      </trkpt>
      <trkpt lat="50.24859" lon="3.62884">
        <ele>117.42</ele>
        <time>2021-08-08T03:37:08Z</time>
      </trkpt>
      <trkpt lat="50.24855" lon="3.62881">
        <ele>117.42</ele>
        <time>2021-08-08T03:37:09Z</time>
      </trkpt>
      <trkpt lat="50.24851" lon="3.62877">
        <ele>117.42</ele>
        <time>2021-08-08T03:37:10Z</time>
      </trkpt>
      <trkpt lat="50.24848" lon="3.62873">
        <ele>117.42</ele>
        <time>2021-08-08T03:37:11Z</time>
      </trkpt>
      <trkpt lat="50.24845" lon="3.62869">
        <ele>117.42</ele>
        <time>2021-08-08T03:37:12Z</time>
      </trkpt>
      <trkpt lat="50.24825" lon="3.62836">
        <ele>118.38</ele>
        <time>2021-08-08T03:37:20Z</time>
      </trkpt>
      <trkpt lat="50.24809" lon="3.62814">
        <ele>118.86</ele>
        <time>2021-08-08T03:37:26Z</time>
      </trkpt>
      <trkpt lat="50.24805" lon="3.62815">
        <ele>118.86</ele>
        <time>2021-08-08T03:37:27Z</time>
      </trkpt>
      <trkpt lat="50.24802" lon="3.62817">
        <ele>118.86</ele>
        <time>2021-08-08T03:37:28Z</time>
      </trkpt>
      <trkpt lat="50.24799" lon="3.62821">
        <ele>118.86</ele>
        <time>2021-08-08T03:37:29Z</time>
      </trkpt>
      <trkpt lat="50.24781" lon="3.62839">
        <ele>118.86</ele>
        <time>2021-08-08T03:37:34Z</time>
      </trkpt>
      <trkpt lat="50.24748" lon="3.62861">
        <ele>117.42</ele>
        <time>2021-08-08T03:37:42Z</time>
      </trkpt>
      <trkpt lat="50.24724" lon="3.6287">
        <ele>117.42</ele>
        <time>2021-08-08T03:37:47Z</time>
      </trkpt>
      <trkpt lat="50.24719" lon="3.62871">
        <ele>117.42</ele>
        <time>2021-08-08T03:37:48Z</time>
      </trkpt>
      <trkpt lat="50.24698" lon="3.62867">
        <ele>118.86</ele>
        <time>2021-08-08T03:37:54Z</time>
      </trkpt>
      <trkpt lat="50.24694" lon="3.62864">
        <ele>118.86</ele>
        <time>2021-08-08T03:37:55Z</time>
      </trkpt>
      <trkpt lat="50.24677" lon="3.62851">
        <ele>118.86</ele>
        <time>2021-08-08T03:37:59Z</time>
      </trkpt>
      <trkpt lat="50.24663" lon="3.62833">
        <ele>118.86</ele>
        <time>2021-08-08T03:38:03Z</time>
      </trkpt>
      <trkpt lat="50.2466" lon="3.62828">
        <ele>118.86</ele>
        <time>2021-08-08T03:38:04Z</time>
      </trkpt>
      <trkpt lat="50.24657" lon="3.62825">
        <ele>118.86</ele>
        <time>2021-08-08T03:38:05Z</time>
      </trkpt>
      <trkpt lat="50.24655" lon="3.6282">
        <ele>118.86</ele>
        <time>2021-08-08T03:38:06Z</time>
      </trkpt>
      <trkpt lat="50.24651" lon="3.62816">
        <ele>118.86</ele>
        <time>2021-08-08T03:38:07Z</time>
      </trkpt>
      <trkpt lat="50.24648" lon="3.62812">
        <ele>118.86</ele>
        <time>2021-08-08T03:38:08Z</time>
      </trkpt>
      <trkpt lat="50.24644" lon="3.62807">
        <ele>118.86</ele>
        <time>2021-08-08T03:38:09Z</time>
      </trkpt>
      <trkpt lat="50.2464" lon="3.62802">
        <ele>118.86</ele>
        <time>2021-08-08T03:38:10Z</time>
      </trkpt>
      <trkpt lat="50.24611" lon="3.62761">
        <ele>119.82</ele>
        <time>2021-08-08T03:38:20Z</time>
      </trkpt>
      <trkpt lat="50.2459" lon="3.62739">
        <ele>120.3</ele>
        <time>2021-08-08T03:38:28Z</time>
      </trkpt>
      <trkpt lat="50.24574" lon="3.62746">
        <ele>120.3</ele>
        <time>2021-08-08T03:38:33Z</time>
      </trkpt>
      <trkpt lat="50.24562" lon="3.6276">
        <ele>118.86</ele>
        <time>2021-08-08T03:38:37Z</time>
      </trkpt>
      <trkpt lat="50.2456" lon="3.62765">
        <ele>118.38</ele>
        <time>2021-08-08T03:38:38Z</time>
      </trkpt>
      <trkpt lat="50.24557" lon="3.62771">
        <ele>118.38</ele>
        <time>2021-08-08T03:38:39Z</time>
      </trkpt>
      <trkpt lat="50.24557" lon="3.62777">
        <ele>118.38</ele>
        <time>2021-08-08T03:38:40Z</time>
      </trkpt>
      <trkpt lat="50.24558" lon="3.62781">
        <ele>118.38</ele>
        <time>2021-08-08T03:38:41Z</time>
      </trkpt>
      <trkpt lat="50.24561" lon="3.62783">
        <ele>119.34</ele>
        <time>2021-08-08T03:38:42Z</time>
      </trkpt>
      <trkpt lat="50.24564" lon="3.62785">
        <ele>119.34</ele>
        <time>2021-08-08T03:38:43Z</time>
      </trkpt>
      <trkpt lat="50.24578" lon="3.6279">
        <ele>120.78</ele>
        <time>2021-08-08T03:38:49Z</time>
      </trkpt>
      <trkpt lat="50.24583" lon="3.62798">
        <ele>119.34</ele>
        <time>2021-08-08T03:38:52Z</time>
      </trkpt>
      <trkpt lat="50.24581" lon="3.62801">
        <ele>119.34</ele>
        <time>2021-08-08T03:38:55Z</time>
      </trkpt>
      <trkpt lat="50.2458" lon="3.62802">
        <ele>119.34</ele>
        <time>2021-08-08T03:38:56Z</time>
      </trkpt>
      <trkpt lat="50.24579" lon="3.62804">
        <ele>119.34</ele>
        <time>2021-08-08T03:38:57Z</time>
      </trkpt>
      <trkpt lat="50.24578" lon="3.62806">
        <ele>119.34</ele>
        <time>2021-08-08T03:38:58Z</time>
      </trkpt>
      <trkpt lat="50.24577" lon="3.62808">
        <ele>119.34</ele>
        <time>2021-08-08T03:38:59Z</time>
      </trkpt>
      <trkpt lat="50.24576" lon="3.62812">
        <ele>119.34</ele>
        <time>2021-08-08T03:39:00Z</time>
      </trkpt>
      <trkpt lat="50.24575" lon="3.62816">
        <ele>119.34</ele>
        <time>2021-08-08T03:39:01Z</time>
      </trkpt>
      <trkpt lat="50.24574" lon="3.6282">
        <ele>119.34</ele>
        <time>2021-08-08T03:39:02Z</time>
      </trkpt>
      <trkpt lat="50.24574" lon="3.62825">
        <ele>119.34</ele>
        <time>2021-08-08T03:39:03Z</time>
      </trkpt>
      <trkpt lat="50.24568" lon="3.6287">
        <ele>118.86</ele>
        <time>2021-08-08T03:39:10Z</time>
      </trkpt>
      <trkpt lat="50.24565" lon="3.62881">
        <ele>118.86</ele>
        <time>2021-08-08T03:39:12Z</time>
      </trkpt>
      <trkpt lat="50.24562" lon="3.62888">
        <ele>118.86</ele>
        <time>2021-08-08T03:39:13Z</time>
      </trkpt>
      <trkpt lat="50.2456" lon="3.62894">
        <ele>118.86</ele>
        <time>2021-08-08T03:39:14Z</time>
      </trkpt>
      <trkpt lat="50.24559" lon="3.62898">
        <ele>118.86</ele>
        <time>2021-08-08T03:39:15Z</time>
      </trkpt>
      <trkpt lat="50.24558" lon="3.62905">
        <ele>118.86</ele>
        <time>2021-08-08T03:39:16Z</time>
      </trkpt>
      <trkpt lat="50.24557" lon="3.62912">
        <ele>118.86</ele>
        <time>2021-08-08T03:39:17Z</time>
      </trkpt>
      <trkpt lat="50.24552" lon="3.62947">
        <ele>118.86</ele>
        <time>2021-08-08T03:39:22Z</time>
      </trkpt>
      <trkpt lat="50.24551" lon="3.62955">
        <ele>118.86</ele>
        <time>2021-08-08T03:39:23Z</time>
      </trkpt>
      <trkpt lat="50.2455" lon="3.62963">
        <ele>117.9</ele>
        <time>2021-08-08T03:39:24Z</time>
      </trkpt>
      <trkpt lat="50.24541" lon="3.62997">
        <ele>119.34</ele>
        <time>2021-08-08T03:39:29Z</time>
      </trkpt>
      <trkpt lat="50.24525" lon="3.63035">
        <ele>117.9</ele>
        <time>2021-08-08T03:39:36Z</time>
      </trkpt>
      <trkpt lat="50.24515" lon="3.63064">
        <ele>117.9</ele>
        <time>2021-08-08T03:39:40Z</time>
      </trkpt>
      <trkpt lat="50.24511" lon="3.6307">
        <ele>117.9</ele>
        <time>2021-08-08T03:39:41Z</time>
      </trkpt>
      <trkpt lat="50.24507" lon="3.63074">
        <ele>117.42</ele>
        <time>2021-08-08T03:39:42Z</time>
      </trkpt>
      <trkpt lat="50.24503" lon="3.63079">
        <ele>116.94</ele>
        <time>2021-08-08T03:39:43Z</time>
      </trkpt>
      <trkpt lat="50.24499" lon="3.6308">
        <ele>117.42</ele>
        <time>2021-08-08T03:39:44Z</time>
      </trkpt>
      <trkpt lat="50.24495" lon="3.63082">
        <ele>117.42</ele>
        <time>2021-08-08T03:39:45Z</time>
      </trkpt>
      <trkpt lat="50.2449" lon="3.63082">
        <ele>117.42</ele>
        <time>2021-08-08T03:39:46Z</time>
      </trkpt>
      <trkpt lat="50.24486" lon="3.63083">
        <ele>117.42</ele>
        <time>2021-08-08T03:39:47Z</time>
      </trkpt>
      <trkpt lat="50.24461" lon="3.63083">
        <ele>117.42</ele>
        <time>2021-08-08T03:39:53Z</time>
      </trkpt>
      <trkpt lat="50.24456" lon="3.63085">
        <ele>117.42</ele>
        <time>2021-08-08T03:39:54Z</time>
      </trkpt>
      <trkpt lat="50.24438" lon="3.63088">
        <ele>117.42</ele>
        <time>2021-08-08T03:39:58Z</time>
      </trkpt>
      <trkpt lat="50.24414" lon="3.63094">
        <ele>117.42</ele>
        <time>2021-08-08T03:40:04Z</time>
      </trkpt>
      <trkpt lat="50.24413" lon="3.63098">
        <ele>117.42</ele>
        <time>2021-08-08T03:40:05Z</time>
      </trkpt>
      <trkpt lat="50.24413" lon="3.63103">
        <ele>117.42</ele>
        <time>2021-08-08T03:40:06Z</time>
      </trkpt>
      <trkpt lat="50.24419" lon="3.63127">
        <ele>117.42</ele>
        <time>2021-08-08T03:40:10Z</time>
      </trkpt>
      <trkpt lat="50.2442" lon="3.63134">
        <ele>117.42</ele>
        <time>2021-08-08T03:40:11Z</time>
      </trkpt>
      <trkpt lat="50.24423" lon="3.63154">
        <ele>117.42</ele>
        <time>2021-08-08T03:40:14Z</time>
      </trkpt>
      <trkpt lat="50.24431" lon="3.63208">
        <ele>117.9</ele>
        <time>2021-08-08T03:40:22Z</time>
      </trkpt>
      <trkpt lat="50.24433" lon="3.63221">
        <ele>117.42</ele>
        <time>2021-08-08T03:40:24Z</time>
      </trkpt>
      <trkpt lat="50.24433" lon="3.63228">
        <ele>117.42</ele>
        <time>2021-08-08T03:40:25Z</time>
      </trkpt>
      <trkpt lat="50.24435" lon="3.63234">
        <ele>117.42</ele>
        <time>2021-08-08T03:40:26Z</time>
      </trkpt>
      <trkpt lat="50.24442" lon="3.63267">
        <ele>115.98</ele>
        <time>2021-08-08T03:40:32Z</time>
      </trkpt>
      <trkpt lat="50.2444" lon="3.63276">
        <ele>115.5</ele>
        <time>2021-08-08T03:40:37Z</time>
      </trkpt>
      <trkpt lat="50.24441" lon="3.63281">
        <ele>115.5</ele>
        <time>2021-08-08T03:40:44Z</time>
      </trkpt>
      <trkpt lat="50.2444" lon="3.63286">
        <ele>119.34</ele>
        <time>2021-08-08T03:40:50Z</time>
      </trkpt>
      <trkpt lat="50.24439" lon="3.63286">
        <ele>119.34</ele>
        <time>2021-08-08T03:40:51Z</time>
      </trkpt>
      <trkpt lat="50.24439" lon="3.63289">
        <ele>120.3</ele>
        <time>2021-08-08T03:40:57Z</time>
      </trkpt>
      <trkpt lat="50.24443" lon="3.63295">
        <ele>121.26</ele>
        <time>2021-08-08T03:41:04Z</time>
      </trkpt>
      <trkpt lat="50.24448" lon="3.633">
        <ele>121.26</ele>
        <time>2021-08-08T03:41:16Z</time>
      </trkpt>
      <trkpt lat="50.24451" lon="3.63303">
        <ele>121.26</ele>
        <time>2021-08-08T03:41:20Z</time>
      </trkpt>
      <trkpt lat="50.24455" lon="3.63305">
        <ele>119.82</ele>
        <time>2021-08-08T03:41:21Z</time>
      </trkpt>
      <trkpt lat="50.24458" lon="3.63307">
        <ele>118.86</ele>
        <time>2021-08-08T03:41:22Z</time>
      </trkpt>
      <trkpt lat="50.24475" lon="3.63322">
        <ele>116.46</ele>
        <time>2021-08-08T03:41:28Z</time>
      </trkpt>
      <trkpt lat="50.24479" lon="3.6334">
        <ele>116.46</ele>
        <time>2021-08-08T03:41:34Z</time>
      </trkpt>
      <trkpt lat="50.24477" lon="3.63363">
        <ele>116.46</ele>
        <time>2021-08-08T03:41:43Z</time>
      </trkpt>
      <trkpt lat="50.24478" lon="3.63365">
        <ele>116.46</ele>
        <time>2021-08-08T03:41:48Z</time>
      </trkpt>
      <trkpt lat="50.24479" lon="3.63366">
        <ele>116.46</ele>
        <time>2021-08-08T03:41:50Z</time>
      </trkpt>
      <trkpt lat="50.2448" lon="3.63367">
        <ele>116.94</ele>
        <time>2021-08-08T03:41:51Z</time>
      </trkpt>
      <trkpt lat="50.24481" lon="3.63366">
        <ele>116.94</ele>
        <time>2021-08-08T03:41:52Z</time>
      </trkpt>
      <trkpt lat="50.24481" lon="3.63344">
        <ele>116.94</ele>
        <time>2021-08-08T03:41:58Z</time>
      </trkpt>
      <trkpt lat="50.24474" lon="3.63325">
        <ele>116.94</ele>
        <time>2021-08-08T03:42:03Z</time>
      </trkpt>
      <trkpt lat="50.24466" lon="3.633">
        <ele>116.46</ele>
        <time>2021-08-08T03:42:10Z</time>
      </trkpt>
      <trkpt lat="50.24465" lon="3.63275">
        <ele>115.98</ele>
        <time>2021-08-08T03:42:16Z</time>
      </trkpt>
      <trkpt lat="50.24462" lon="3.63239">
        <ele>115.5</ele>
        <time>2021-08-08T03:42:23Z</time>
      </trkpt>
      <trkpt lat="50.24458" lon="3.63226">
        <ele>115.5</ele>
        <time>2021-08-08T03:42:28Z</time>
      </trkpt>
      <trkpt lat="50.24458" lon="3.63217">
        <ele>115.5</ele>
        <time>2021-08-08T03:42:44Z</time>
      </trkpt>
      <trkpt lat="50.24459" lon="3.63213">
        <ele>115.5</ele>
        <time>2021-08-08T03:42:49Z</time>
      </trkpt>
      <trkpt lat="50.24466" lon="3.63212">
        <ele>115.98</ele>
        <time>2021-08-08T03:42:54Z</time>
      </trkpt>
      <trkpt lat="50.24468" lon="3.63218">
        <ele>115.98</ele>
        <time>2021-08-08T03:42:59Z</time>
      </trkpt>
      <trkpt lat="50.24461" lon="3.63213">
        <ele>115.98</ele>
        <time>2021-08-08T03:43:05Z</time>
      </trkpt>
      <trkpt lat="50.24457" lon="3.63215">
        <ele>115.98</ele>
        <time>2021-08-08T03:43:08Z</time>
      </trkpt>
      <trkpt lat="50.2446" lon="3.63221">
        <ele>115.98</ele>
        <time>2021-08-08T03:43:17Z</time>
      </trkpt>
      <trkpt lat="50.24461" lon="3.63218">
        <ele>115.98</ele>
        <time>2021-08-08T03:43:27Z</time>
      </trkpt>
      <trkpt lat="50.24462" lon="3.63234">
        <ele>115.98</ele>
        <time>2021-08-08T03:43:34Z</time>
      </trkpt>
      <trkpt lat="50.24465" lon="3.6326">
        <ele>115.98</ele>
        <time>2021-08-08T03:43:41Z</time>
      </trkpt>
      <trkpt lat="50.24469" lon="3.63272">
        <ele>115.98</ele>
        <time>2021-08-08T03:43:45Z</time>
      </trkpt>
      <trkpt lat="50.24471" lon="3.63273">
        <ele>115.98</ele>
        <time>2021-08-08T03:43:46Z</time>
      </trkpt>
      <trkpt lat="50.24473" lon="3.63275">
        <ele>115.98</ele>
        <time>2021-08-08T03:43:47Z</time>
      </trkpt>
      <trkpt lat="50.24474" lon="3.63276">
        <ele>115.98</ele>
        <time>2021-08-08T03:43:48Z</time>
      </trkpt>
      <trkpt lat="50.24476" lon="3.63277">
        <ele>115.98</ele>
        <time>2021-08-08T03:43:49Z</time>
      </trkpt>
      <trkpt lat="50.24479" lon="3.63277">
        <ele>115.98</ele>
        <time>2021-08-08T03:43:50Z</time>
      </trkpt>
      <trkpt lat="50.24482" lon="3.63277">
        <ele>115.98</ele>
        <time>2021-08-08T03:43:51Z</time>
      </trkpt>
      <trkpt lat="50.24484" lon="3.63276">
        <ele>115.98</ele>
        <time>2021-08-08T03:43:52Z</time>
      </trkpt>
      <trkpt lat="50.24497" lon="3.63277">
        <ele>115.98</ele>
        <time>2021-08-08T03:43:57Z</time>
      </trkpt>
      <trkpt lat="50.24499" lon="3.6328">
        <ele>115.98</ele>
        <time>2021-08-08T03:43:58Z</time>
      </trkpt>
      <trkpt lat="50.245" lon="3.63284">
        <ele>115.98</ele>
        <time>2021-08-08T03:43:59Z</time>
      </trkpt>
      <trkpt lat="50.24501" lon="3.63288">
        <ele>115.98</ele>
        <time>2021-08-08T03:44:00Z</time>
      </trkpt>
      <trkpt lat="50.24502" lon="3.63293">
        <ele>115.5</ele>
        <time>2021-08-08T03:44:01Z</time>
      </trkpt>
      <trkpt lat="50.24503" lon="3.63297">
        <ele>115.5</ele>
        <time>2021-08-08T03:44:02Z</time>
      </trkpt>
      <trkpt lat="50.24504" lon="3.63301">
        <ele>115.5</ele>
        <time>2021-08-08T03:44:03Z</time>
      </trkpt>
      <trkpt lat="50.24505" lon="3.63305">
        <ele>115.5</ele>
        <time>2021-08-08T03:44:04Z</time>
      </trkpt>
      <trkpt lat="50.24506" lon="3.63308">
        <ele>115.5</ele>
        <time>2021-08-08T03:44:05Z</time>
      </trkpt>
      <trkpt lat="50.24509" lon="3.63318">
        <ele>115.5</ele>
        <time>2021-08-08T03:44:09Z</time>
      </trkpt>
      <trkpt lat="50.24511" lon="3.63319">
        <ele>115.5</ele>
        <time>2021-08-08T03:44:10Z</time>
      </trkpt>
      <trkpt lat="50.24513" lon="3.63319">
        <ele>115.5</ele>
        <time>2021-08-08T03:44:11Z</time>
      </trkpt>
      <trkpt lat="50.24516" lon="3.63319">
        <ele>115.5</ele>
        <time>2021-08-08T03:44:12Z</time>
      </trkpt>
      <trkpt lat="50.24519" lon="3.6332">
        <ele>115.5</ele>
        <time>2021-08-08T03:44:13Z</time>
      </trkpt>
      <trkpt lat="50.24522" lon="3.63322">
        <ele>115.5</ele>
        <time>2021-08-08T03:44:14Z</time>
      </trkpt>
      <trkpt lat="50.24525" lon="3.63325">
        <ele>115.5</ele>
        <time>2021-08-08T03:44:15Z</time>
      </trkpt>
      <trkpt lat="50.24526" lon="3.63328">
        <ele>115.5</ele>
        <time>2021-08-08T03:44:16Z</time>
      </trkpt>
      <trkpt lat="50.24527" lon="3.63332">
        <ele>115.5</ele>
        <time>2021-08-08T03:44:17Z</time>
      </trkpt>
      <trkpt lat="50.24528" lon="3.63335">
        <ele>115.5</ele>
        <time>2021-08-08T03:44:18Z</time>
      </trkpt>
      <trkpt lat="50.24529" lon="3.63337">
        <ele>115.98</ele>
        <time>2021-08-08T03:44:19Z</time>
      </trkpt>
      <trkpt lat="50.2453" lon="3.63338">
        <ele>115.98</ele>
        <time>2021-08-08T03:44:20Z</time>
      </trkpt>
      <trkpt lat="50.24532" lon="3.63338">
        <ele>115.98</ele>
        <time>2021-08-08T03:44:21Z</time>
      </trkpt>
      <trkpt lat="50.24533" lon="3.63338">
        <ele>115.98</ele>
        <time>2021-08-08T03:44:22Z</time>
      </trkpt>
      <trkpt lat="50.24535" lon="3.63339">
        <ele>115.98</ele>
        <time>2021-08-08T03:44:23Z</time>
      </trkpt>
      <trkpt lat="50.24537" lon="3.6334">
        <ele>115.98</ele>
        <time>2021-08-08T03:44:24Z</time>
      </trkpt>
      <trkpt lat="50.24539" lon="3.63342">
        <ele>115.98</ele>
        <time>2021-08-08T03:44:25Z</time>
      </trkpt>
      <trkpt lat="50.2454" lon="3.63346">
        <ele>115.98</ele>
        <time>2021-08-08T03:44:26Z</time>
      </trkpt>
      <trkpt lat="50.24542" lon="3.6335">
        <ele>115.98</ele>
        <time>2021-08-08T03:44:27Z</time>
      </trkpt>
      <trkpt lat="50.24549" lon="3.63382">
        <ele>115.98</ele>
        <time>2021-08-08T03:44:34Z</time>
      </trkpt>
      <trkpt lat="50.24549" lon="3.63405">
        <ele>115.98</ele>
        <time>2021-08-08T03:44:40Z</time>
      </trkpt>
      <trkpt lat="50.24547" lon="3.63433">
        <ele>115.98</ele>
        <time>2021-08-08T03:44:47Z</time>
      </trkpt>
      <trkpt lat="50.24547" lon="3.63437">
        <ele>115.98</ele>
        <time>2021-08-08T03:44:51Z</time>
      </trkpt>
      <trkpt lat="50.24547" lon="3.63435">
        <ele>115.98</ele>
        <time>2021-08-08T03:44:55Z</time>
      </trkpt>
      <trkpt lat="50.24547" lon="3.63433">
        <ele>115.98</ele>
        <time>2021-08-08T03:44:56Z</time>
      </trkpt>
      <trkpt lat="50.24546" lon="3.6343">
        <ele>115.98</ele>
        <time>2021-08-08T03:44:58Z</time>
      </trkpt>
      <trkpt lat="50.24546" lon="3.63426">
        <ele>115.98</ele>
        <time>2021-08-08T03:44:59Z</time>
      </trkpt>
      <trkpt lat="50.24545" lon="3.63424">
        <ele>115.98</ele>
        <time>2021-08-08T03:45:00Z</time>
      </trkpt>
      <trkpt lat="50.24546" lon="3.63421">
        <ele>115.98</ele>
        <time>2021-08-08T03:45:01Z</time>
      </trkpt>
      <trkpt lat="50.24546" lon="3.63417">
        <ele>115.98</ele>
        <time>2021-08-08T03:45:02Z</time>
      </trkpt>
      <trkpt lat="50.24549" lon="3.63403">
        <ele>115.98</ele>
        <time>2021-08-08T03:45:06Z</time>
      </trkpt>
      <trkpt lat="50.24549" lon="3.63399">
        <ele>115.98</ele>
        <time>2021-08-08T03:45:07Z</time>
      </trkpt>
      <trkpt lat="50.24544" lon="3.63369">
        <ele>115.5</ele>
        <time>2021-08-08T03:45:14Z</time>
      </trkpt>
      <trkpt lat="50.24537" lon="3.63337">
        <ele>115.5</ele>
        <time>2021-08-08T03:45:23Z</time>
      </trkpt>
      <trkpt lat="50.24538" lon="3.63327">
        <ele>115.5</ele>
        <time>2021-08-08T03:45:29Z</time>
      </trkpt>
      <trkpt lat="50.24536" lon="3.63326">
        <ele>115.5</ele>
        <time>2021-08-08T03:45:37Z</time>
      </trkpt>
      <trkpt lat="50.24534" lon="3.63328">
        <ele>115.5</ele>
        <time>2021-08-08T03:45:50Z</time>
      </trkpt>
      <trkpt lat="50.24536" lon="3.63323">
        <ele>115.5</ele>
        <time>2021-08-08T03:46:03Z</time>
      </trkpt>
      <trkpt lat="50.24539" lon="3.63324">
        <ele>115.98</ele>
        <time>2021-08-08T03:46:12Z</time>
      </trkpt>
      <trkpt lat="50.24538" lon="3.63326">
        <ele>115.98</ele>
        <time>2021-08-08T03:46:17Z</time>
      </trkpt>
      <trkpt lat="50.24539" lon="3.63326">
        <ele>116.94</ele>
        <time>2021-08-08T03:46:25Z</time>
      </trkpt>
      <trkpt lat="50.2454" lon="3.63328">
        <ele>117.42</ele>
        <time>2021-08-08T03:46:35Z</time>
      </trkpt>
      <trkpt lat="50.24543" lon="3.63327">
        <ele>117.9</ele>
        <time>2021-08-08T03:46:42Z</time>
      </trkpt>
      <trkpt lat="50.24547" lon="3.63325">
        <ele>119.82</ele>
        <time>2021-08-08T03:46:53Z</time>
      </trkpt>
      <trkpt lat="50.24549" lon="3.63323">
        <ele>120.3</ele>
        <time>2021-08-08T03:47:00Z</time>
      </trkpt>
      <trkpt lat="50.24541" lon="3.63335">
        <ele>120.3</ele>
        <time>2021-08-08T03:47:10Z</time>
      </trkpt>
      <trkpt lat="50.24585" lon="3.63319">
        <ele>120.78</ele>
        <time>2021-08-08T03:47:36Z</time>
      </trkpt>
      <trkpt lat="50.24584" lon="3.63321">
        <ele>120.78</ele>
        <time>2021-08-08T03:47:37Z</time>
      </trkpt>
      <trkpt lat="50.24585" lon="3.63322">
        <ele>121.26</ele>
        <time>2021-08-08T03:47:38Z</time>
      </trkpt>
      <trkpt lat="50.24586" lon="3.63323">
        <ele>120.78</ele>
        <time>2021-08-08T03:47:39Z</time>
      </trkpt>
      <trkpt lat="50.24587" lon="3.63326">
        <ele>120.78</ele>
        <time>2021-08-08T03:47:40Z</time>
      </trkpt>
      <trkpt lat="50.24587" lon="3.63329">
        <ele>120.78</ele>
        <time>2021-08-08T03:47:41Z</time>
      </trkpt>
      <trkpt lat="50.24588" lon="3.63332">
        <ele>120.78</ele>
        <time>2021-08-08T03:47:42Z</time>
      </trkpt>
      <trkpt lat="50.24587" lon="3.63335">
        <ele>120.78</ele>
        <time>2021-08-08T03:47:43Z</time>
      </trkpt>
      <trkpt lat="50.24587" lon="3.63338">
        <ele>120.78</ele>
        <time>2021-08-08T03:47:44Z</time>
      </trkpt>
      <trkpt lat="50.24587" lon="3.63341">
        <ele>120.78</ele>
        <time>2021-08-08T03:47:45Z</time>
      </trkpt>
      <trkpt lat="50.24594" lon="3.63365">
        <ele>121.26</ele>
        <time>2021-08-08T03:47:52Z</time>
      </trkpt>
      <trkpt lat="50.2461" lon="3.63409">
        <ele>121.26</ele>
        <time>2021-08-08T03:48:01Z</time>
      </trkpt>
      <trkpt lat="50.2463" lon="3.63473">
        <ele>122.22</ele>
        <time>2021-08-08T03:48:12Z</time>
      </trkpt>
      <trkpt lat="50.24648" lon="3.63529">
        <ele>122.71</ele>
        <time>2021-08-08T03:48:22Z</time>
      </trkpt>
      <trkpt lat="50.24656" lon="3.63551">
        <ele>123.19</ele>
        <time>2021-08-08T03:48:26Z</time>
      </trkpt>
      <trkpt lat="50.24661" lon="3.63569">
        <ele>123.67</ele>
        <time>2021-08-08T03:48:29Z</time>
      </trkpt>
      <trkpt lat="50.24672" lon="3.6362">
        <ele>124.63</ele>
        <time>2021-08-08T03:48:37Z</time>
      </trkpt>
      <trkpt lat="50.24674" lon="3.63645">
        <ele>125.11</ele>
        <time>2021-08-08T03:48:41Z</time>
      </trkpt>
      <trkpt lat="50.24674" lon="3.63651">
        <ele>125.59</ele>
        <time>2021-08-08T03:48:42Z</time>
      </trkpt>
      <trkpt lat="50.24673" lon="3.63657">
        <ele>126.07</ele>
        <time>2021-08-08T03:48:43Z</time>
      </trkpt>
      <trkpt lat="50.24669" lon="3.63675">
        <ele>126.07</ele>
        <time>2021-08-08T03:48:46Z</time>
      </trkpt>
      <trkpt lat="50.24654" lon="3.63703">
        <ele>126.55</ele>
        <time>2021-08-08T03:48:52Z</time>
      </trkpt>
      <trkpt lat="50.24637" lon="3.63726">
        <ele>126.55</ele>
        <time>2021-08-08T03:48:59Z</time>
      </trkpt>
      <trkpt lat="50.24625" lon="3.63736">
        <ele>126.55</ele>
        <time>2021-08-08T03:49:04Z</time>
      </trkpt>
      <trkpt lat="50.24605" lon="3.63741">
        <ele>126.55</ele>
        <time>2021-08-08T03:49:11Z</time>
      </trkpt>
      <trkpt lat="50.24577" lon="3.63748">
        <ele>126.55</ele>
        <time>2021-08-08T03:49:20Z</time>
      </trkpt>
      <trkpt lat="50.24576" lon="3.63746">
        <ele>126.55</ele>
        <time>2021-08-08T03:49:21Z</time>
      </trkpt>
      <trkpt lat="50.24575" lon="3.63745">
        <ele>126.55</ele>
        <time>2021-08-08T03:49:22Z</time>
      </trkpt>
      <trkpt lat="50.24574" lon="3.63745">
        <ele>126.55</ele>
        <time>2021-08-08T03:49:23Z</time>
      </trkpt>
      <trkpt lat="50.24572" lon="3.63746">
        <ele>126.55</ele>
        <time>2021-08-08T03:49:24Z</time>
      </trkpt>
      <trkpt lat="50.24571" lon="3.63746">
        <ele>126.55</ele>
        <time>2021-08-08T03:49:25Z</time>
      </trkpt>
      <trkpt lat="50.24569" lon="3.63746">
        <ele>126.55</ele>
        <time>2021-08-08T03:49:26Z</time>
      </trkpt>
      <trkpt lat="50.24567" lon="3.63747">
        <ele>126.55</ele>
        <time>2021-08-08T03:49:27Z</time>
      </trkpt>
      <trkpt lat="50.24552" lon="3.63746">
        <ele>126.55</ele>
        <time>2021-08-08T03:49:32Z</time>
      </trkpt>
      <trkpt lat="50.24551" lon="3.63742">
        <ele>126.55</ele>
        <time>2021-08-08T03:49:33Z</time>
      </trkpt>
      <trkpt lat="50.24551" lon="3.63713">
        <ele>127.03</ele>
        <time>2021-08-08T03:49:40Z</time>
      </trkpt>
      <trkpt lat="50.24552" lon="3.63707">
        <ele>127.03</ele>
        <time>2021-08-08T03:49:42Z</time>
      </trkpt>
      <trkpt lat="50.2455" lon="3.63705">
        <ele>127.03</ele>
        <time>2021-08-08T03:49:43Z</time>
      </trkpt>
      <trkpt lat="50.24548" lon="3.63704">
        <ele>127.03</ele>
        <time>2021-08-08T03:49:44Z</time>
      </trkpt>
      <trkpt lat="50.24546" lon="3.63704">
        <ele>127.03</ele>
        <time>2021-08-08T03:49:45Z</time>
      </trkpt>
      <trkpt lat="50.24543" lon="3.63703">
        <ele>127.03</ele>
        <time>2021-08-08T03:49:46Z</time>
      </trkpt>
      <trkpt lat="50.24541" lon="3.63703">
        <ele>127.03</ele>
        <time>2021-08-08T03:49:47Z</time>
      </trkpt>
      <trkpt lat="50.2454" lon="3.63705">
        <ele>127.03</ele>
        <time>2021-08-08T03:49:48Z</time>
      </trkpt>
      <trkpt lat="50.24538" lon="3.63705">
        <ele>127.03</ele>
        <time>2021-08-08T03:49:49Z</time>
      </trkpt>
      <trkpt lat="50.24537" lon="3.63705">
        <ele>127.51</ele>
        <time>2021-08-08T03:49:53Z</time>
      </trkpt>
      <trkpt lat="50.24536" lon="3.63705">
        <ele>127.51</ele>
        <time>2021-08-08T03:50:06Z</time>
      </trkpt>
      <trkpt lat="50.24533" lon="3.63704">
        <ele>127.51</ele>
        <time>2021-08-08T03:50:12Z</time>
      </trkpt>
      <trkpt lat="50.24514" lon="3.63707">
        <ele>124.63</ele>
        <time>2021-08-08T03:50:18Z</time>
      </trkpt>
      <trkpt lat="50.24498" lon="3.6371">
        <ele>122.22</ele>
        <time>2021-08-08T03:50:22Z</time>
      </trkpt>
      <trkpt lat="50.24496" lon="3.63711">
        <ele>121.74</ele>
        <time>2021-08-08T03:50:23Z</time>
      </trkpt>
      <trkpt lat="50.24494" lon="3.63715">
        <ele>120.78</ele>
        <time>2021-08-08T03:50:24Z</time>
      </trkpt>
      <trkpt lat="50.24478" lon="3.63749">
        <ele>117.9</ele>
        <time>2021-08-08T03:50:29Z</time>
      </trkpt>
      <trkpt lat="50.24467" lon="3.63772">
        <ele>116.94</ele>
        <time>2021-08-08T03:50:32Z</time>
      </trkpt>
      <trkpt lat="50.24465" lon="3.6378">
        <ele>116.94</ele>
        <time>2021-08-08T03:50:33Z</time>
      </trkpt>
      <trkpt lat="50.24463" lon="3.63788">
        <ele>116.94</ele>
        <time>2021-08-08T03:50:34Z</time>
      </trkpt>
      <trkpt lat="50.24463" lon="3.63795">
        <ele>116.94</ele>
        <time>2021-08-08T03:50:35Z</time>
      </trkpt>
      <trkpt lat="50.24463" lon="3.63802">
        <ele>116.94</ele>
        <time>2021-08-08T03:50:36Z</time>
      </trkpt>
      <trkpt lat="50.24464" lon="3.63831">
        <ele>117.42</ele>
        <time>2021-08-08T03:50:40Z</time>
      </trkpt>
      <trkpt lat="50.24463" lon="3.63847">
        <ele>117.42</ele>
        <time>2021-08-08T03:50:42Z</time>
      </trkpt>
      <trkpt lat="50.24463" lon="3.63854">
        <ele>117.42</ele>
        <time>2021-08-08T03:50:43Z</time>
      </trkpt>
      <trkpt lat="50.24462" lon="3.63875">
        <ele>117.42</ele>
        <time>2021-08-08T03:50:46Z</time>
      </trkpt>
      <trkpt lat="50.24462" lon="3.63883">
        <ele>117.42</ele>
        <time>2021-08-08T03:50:47Z</time>
      </trkpt>
      <trkpt lat="50.24459" lon="3.63924">
        <ele>117.42</ele>
        <time>2021-08-08T03:50:53Z</time>
      </trkpt>
      <trkpt lat="50.24457" lon="3.63942">
        <ele>118.86</ele>
        <time>2021-08-08T03:50:56Z</time>
      </trkpt>
      <trkpt lat="50.24456" lon="3.63949">
        <ele>118.86</ele>
        <time>2021-08-08T03:50:57Z</time>
      </trkpt>
      <trkpt lat="50.24456" lon="3.63996">
        <ele>120.3</ele>
        <time>2021-08-08T03:51:05Z</time>
      </trkpt>
      <trkpt lat="50.24455" lon="3.6403">
        <ele>121.26</ele>
        <time>2021-08-08T03:51:12Z</time>
      </trkpt>
      <trkpt lat="50.24452" lon="3.64064">
        <ele>123.19</ele>
        <time>2021-08-08T03:51:20Z</time>
      </trkpt>
      <trkpt lat="50.24456" lon="3.6408">
        <ele>123.19</ele>
        <time>2021-08-08T03:51:24Z</time>
      </trkpt>
      <trkpt lat="50.24458" lon="3.64083">
        <ele>123.19</ele>
        <time>2021-08-08T03:51:25Z</time>
      </trkpt>
      <trkpt lat="50.24461" lon="3.64087">
        <ele>123.67</ele>
        <time>2021-08-08T03:51:26Z</time>
      </trkpt>
      <trkpt lat="50.24464" lon="3.6409">
        <ele>123.67</ele>
        <time>2021-08-08T03:51:27Z</time>
      </trkpt>
      <trkpt lat="50.24468" lon="3.64094">
        <ele>123.67</ele>
        <time>2021-08-08T03:51:28Z</time>
      </trkpt>
      <trkpt lat="50.24472" lon="3.64098">
        <ele>123.67</ele>
        <time>2021-08-08T03:51:29Z</time>
      </trkpt>
      <trkpt lat="50.24503" lon="3.64124">
        <ele>123.19</ele>
        <time>2021-08-08T03:51:37Z</time>
      </trkpt>
      <trkpt lat="50.24506" lon="3.64129">
        <ele>123.19</ele>
        <time>2021-08-08T03:51:38Z</time>
      </trkpt>
      <trkpt lat="50.24509" lon="3.64134">
        <ele>123.19</ele>
        <time>2021-08-08T03:51:39Z</time>
      </trkpt>
      <trkpt lat="50.24512" lon="3.64141">
        <ele>123.19</ele>
        <time>2021-08-08T03:51:40Z</time>
      </trkpt>
      <trkpt lat="50.24514" lon="3.64146">
        <ele>123.19</ele>
        <time>2021-08-08T03:51:41Z</time>
      </trkpt>
      <trkpt lat="50.24517" lon="3.64153">
        <ele>123.19</ele>
        <time>2021-08-08T03:51:42Z</time>
      </trkpt>
      <trkpt lat="50.2452" lon="3.64158">
        <ele>123.19</ele>
        <time>2021-08-08T03:51:43Z</time>
      </trkpt>
      <trkpt lat="50.24538" lon="3.64192">
        <ele>123.19</ele>
        <time>2021-08-08T03:51:49Z</time>
      </trkpt>
      <trkpt lat="50.24554" lon="3.64236">
        <ele>123.19</ele>
        <time>2021-08-08T03:51:56Z</time>
      </trkpt>
      <trkpt lat="50.24555" lon="3.64245">
        <ele>123.19</ele>
        <time>2021-08-08T03:51:57Z</time>
      </trkpt>
      <trkpt lat="50.24554" lon="3.64252">
        <ele>122.22</ele>
        <time>2021-08-08T03:51:58Z</time>
      </trkpt>
      <trkpt lat="50.24551" lon="3.64258">
        <ele>122.22</ele>
        <time>2021-08-08T03:51:59Z</time>
      </trkpt>
      <trkpt lat="50.24548" lon="3.64264">
        <ele>122.22</ele>
        <time>2021-08-08T03:52:00Z</time>
      </trkpt>
      <trkpt lat="50.24545" lon="3.6427">
        <ele>122.22</ele>
        <time>2021-08-08T03:52:01Z</time>
      </trkpt>
      <trkpt lat="50.24512" lon="3.64338">
        <ele>123.67</ele>
        <time>2021-08-08T03:52:12Z</time>
      </trkpt>
      <trkpt lat="50.24483" lon="3.64401">
        <ele>124.15</ele>
        <time>2021-08-08T03:52:22Z</time>
      </trkpt>
      <trkpt lat="50.24451" lon="3.64465">
        <ele>125.11</ele>
        <time>2021-08-08T03:52:32Z</time>
      </trkpt>
      <trkpt lat="50.24423" lon="3.64526">
        <ele>125.11</ele>
        <time>2021-08-08T03:52:41Z</time>
      </trkpt>
      <trkpt lat="50.24383" lon="3.64604">
        <ele>125.59</ele>
        <time>2021-08-08T03:52:53Z</time>
      </trkpt>
      <trkpt lat="50.2434" lon="3.64669">
        <ele>125.59</ele>
        <time>2021-08-08T03:53:04Z</time>
      </trkpt>
      <trkpt lat="50.24308" lon="3.6471">
        <ele>125.59</ele>
        <time>2021-08-08T03:53:12Z</time>
      </trkpt>
      <trkpt lat="50.24286" lon="3.64744">
        <ele>124.15</ele>
        <time>2021-08-08T03:53:18Z</time>
      </trkpt>
      <trkpt lat="50.24259" lon="3.64782">
        <ele>124.63</ele>
        <time>2021-08-08T03:53:26Z</time>
      </trkpt>
      <trkpt lat="50.24258" lon="3.64783">
        <ele>124.63</ele>
        <time>2021-08-08T03:53:27Z</time>
      </trkpt>
      <trkpt lat="50.24253" lon="3.64776">
        <ele>124.63</ele>
        <time>2021-08-08T03:53:30Z</time>
      </trkpt>
      <trkpt lat="50.24252" lon="3.64772">
        <ele>124.63</ele>
        <time>2021-08-08T03:53:31Z</time>
      </trkpt>
      <trkpt lat="50.24242" lon="3.64756">
        <ele>126.07</ele>
        <time>2021-08-08T03:53:36Z</time>
      </trkpt>
      <trkpt lat="50.24233" lon="3.64741">
        <ele>124.63</ele>
        <time>2021-08-08T03:53:39Z</time>
      </trkpt>
      <trkpt lat="50.242" lon="3.64698">
        <ele>124.15</ele>
        <time>2021-08-08T03:53:48Z</time>
      </trkpt>
      <trkpt lat="50.24192" lon="3.6469">
        <ele>124.15</ele>
        <time>2021-08-08T03:53:50Z</time>
      </trkpt>
      <trkpt lat="50.24188" lon="3.64687">
        <ele>124.15</ele>
        <time>2021-08-08T03:53:51Z</time>
      </trkpt>
      <trkpt lat="50.24149" lon="3.64642">
        <ele>124.15</ele>
        <time>2021-08-08T03:54:01Z</time>
      </trkpt>
      <trkpt lat="50.24109" lon="3.64597">
        <ele>123.67</ele>
        <time>2021-08-08T03:54:11Z</time>
      </trkpt>
      <trkpt lat="50.24075" lon="3.64562">
        <ele>125.11</ele>
        <time>2021-08-08T03:54:19Z</time>
      </trkpt>
      <trkpt lat="50.24029" lon="3.64508">
        <ele>123.67</ele>
        <time>2021-08-08T03:54:30Z</time>
      </trkpt>
      <trkpt lat="50.24015" lon="3.64484">
        <ele>123.67</ele>
        <time>2021-08-08T03:54:34Z</time>
      </trkpt>
      <trkpt lat="50.24013" lon="3.64477">
        <ele>123.67</ele>
        <time>2021-08-08T03:54:35Z</time>
      </trkpt>
      <trkpt lat="50.24013" lon="3.6447">
        <ele>123.67</ele>
        <time>2021-08-08T03:54:36Z</time>
      </trkpt>
      <trkpt lat="50.24012" lon="3.64453">
        <ele>123.67</ele>
        <time>2021-08-08T03:54:38Z</time>
      </trkpt>
      <trkpt lat="50.2401" lon="3.64445">
        <ele>123.67</ele>
        <time>2021-08-08T03:54:39Z</time>
      </trkpt>
      <trkpt lat="50.24008" lon="3.64438">
        <ele>123.67</ele>
        <time>2021-08-08T03:54:40Z</time>
      </trkpt>
      <trkpt lat="50.24005" lon="3.64432">
        <ele>123.67</ele>
        <time>2021-08-08T03:54:41Z</time>
      </trkpt>
      <trkpt lat="50.24001" lon="3.64427">
        <ele>123.67</ele>
        <time>2021-08-08T03:54:42Z</time>
      </trkpt>
      <trkpt lat="50.23996" lon="3.64424">
        <ele>123.67</ele>
        <time>2021-08-08T03:54:43Z</time>
      </trkpt>
      <trkpt lat="50.23991" lon="3.64423">
        <ele>123.67</ele>
        <time>2021-08-08T03:54:44Z</time>
      </trkpt>
      <trkpt lat="50.23985" lon="3.64424">
        <ele>124.15</ele>
        <time>2021-08-08T03:54:45Z</time>
      </trkpt>
      <trkpt lat="50.23981" lon="3.64427">
        <ele>124.15</ele>
        <time>2021-08-08T03:54:46Z</time>
      </trkpt>
      <trkpt lat="50.23976" lon="3.6443">
        <ele>124.15</ele>
        <time>2021-08-08T03:54:47Z</time>
      </trkpt>
      <trkpt lat="50.23971" lon="3.64431">
        <ele>124.15</ele>
        <time>2021-08-08T03:54:48Z</time>
      </trkpt>
      <trkpt lat="50.23966" lon="3.64431">
        <ele>124.15</ele>
        <time>2021-08-08T03:54:49Z</time>
      </trkpt>
      <trkpt lat="50.23961" lon="3.6443">
        <ele>123.67</ele>
        <time>2021-08-08T03:54:50Z</time>
      </trkpt>
      <trkpt lat="50.23956" lon="3.64428">
        <ele>123.67</ele>
        <time>2021-08-08T03:54:51Z</time>
      </trkpt>
      <trkpt lat="50.23952" lon="3.64425">
        <ele>123.67</ele>
        <time>2021-08-08T03:54:52Z</time>
      </trkpt>
      <trkpt lat="50.23947" lon="3.64422">
        <ele>126.07</ele>
        <time>2021-08-08T03:54:53Z</time>
      </trkpt>
      <trkpt lat="50.23943" lon="3.64419">
        <ele>126.07</ele>
        <time>2021-08-08T03:54:54Z</time>
      </trkpt>
      <trkpt lat="50.23904" lon="3.64403">
        <ele>126.07</ele>
        <time>2021-08-08T03:55:02Z</time>
      </trkpt>
      <trkpt lat="50.23894" lon="3.64401">
        <ele>124.63</ele>
        <time>2021-08-08T03:55:04Z</time>
      </trkpt>
      <trkpt lat="50.2384" lon="3.64394">
        <ele>124.63</ele>
        <time>2021-08-08T03:55:15Z</time>
      </trkpt>
      <trkpt lat="50.23817" lon="3.64392">
        <ele>126.07</ele>
        <time>2021-08-08T03:55:20Z</time>
      </trkpt>
      <trkpt lat="50.23759" lon="3.64387">
        <ele>126.55</ele>
        <time>2021-08-08T03:55:33Z</time>
      </trkpt>
      <trkpt lat="50.23747" lon="3.64387">
        <ele>126.55</ele>
        <time>2021-08-08T03:55:36Z</time>
      </trkpt>
      <trkpt lat="50.237" lon="3.6438">
        <ele>127.03</ele>
        <time>2021-08-08T03:55:47Z</time>
      </trkpt>
      <trkpt lat="50.23656" lon="3.64375">
        <ele>127.99</ele>
        <time>2021-08-08T03:55:57Z</time>
      </trkpt>
      <trkpt lat="50.23613" lon="3.6437">
        <ele>128.47</ele>
        <time>2021-08-08T03:56:07Z</time>
      </trkpt>
      <trkpt lat="50.23569" lon="3.64367">
        <ele>128.95</ele>
        <time>2021-08-08T03:56:17Z</time>
      </trkpt>
      <trkpt lat="50.2353" lon="3.6437">
        <ele>129.43</ele>
        <time>2021-08-08T03:56:26Z</time>
      </trkpt>
      <trkpt lat="50.23527" lon="3.64373">
        <ele>129.43</ele>
        <time>2021-08-08T03:56:27Z</time>
      </trkpt>
      <trkpt lat="50.23523" lon="3.64376">
        <ele>130.4</ele>
        <time>2021-08-08T03:56:28Z</time>
      </trkpt>
      <trkpt lat="50.23518" lon="3.64379">
        <ele>130.4</ele>
        <time>2021-08-08T03:56:29Z</time>
      </trkpt>
      <trkpt lat="50.23515" lon="3.64382">
        <ele>130.4</ele>
        <time>2021-08-08T03:56:30Z</time>
      </trkpt>
      <trkpt lat="50.2348" lon="3.64395">
        <ele>130.4</ele>
        <time>2021-08-08T03:56:38Z</time>
      </trkpt>
      <trkpt lat="50.23443" lon="3.6441">
        <ele>130.4</ele>
        <time>2021-08-08T03:56:47Z</time>
      </trkpt>
      <trkpt lat="50.234" lon="3.64427">
        <ele>130.4</ele>
        <time>2021-08-08T03:56:58Z</time>
      </trkpt>
      <trkpt lat="50.23361" lon="3.6444">
        <ele>131.36</ele>
        <time>2021-08-08T03:57:08Z</time>
      </trkpt>
      <trkpt lat="50.23328" lon="3.64452">
        <ele>131.36</ele>
        <time>2021-08-08T03:57:17Z</time>
      </trkpt>
      <trkpt lat="50.23291" lon="3.64462">
        <ele>131.36</ele>
        <time>2021-08-08T03:57:27Z</time>
      </trkpt>
      <trkpt lat="50.23251" lon="3.64473">
        <ele>131.84</ele>
        <time>2021-08-08T03:57:39Z</time>
      </trkpt>
      <trkpt lat="50.23229" lon="3.64479">
        <ele>132.8</ele>
        <time>2021-08-08T03:57:47Z</time>
      </trkpt>
      <trkpt lat="50.23202" lon="3.64483">
        <ele>132.8</ele>
        <time>2021-08-08T03:57:55Z</time>
      </trkpt>
      <trkpt lat="50.23164" lon="3.64491">
        <ele>132.8</ele>
        <time>2021-08-08T03:58:05Z</time>
      </trkpt>
      <trkpt lat="50.23131" lon="3.64496">
        <ele>133.28</ele>
        <time>2021-08-08T03:58:14Z</time>
      </trkpt>
      <trkpt lat="50.23101" lon="3.64501">
        <ele>133.28</ele>
        <time>2021-08-08T03:58:22Z</time>
      </trkpt>
      <trkpt lat="50.23065" lon="3.64509">
        <ele>130.88</ele>
        <time>2021-08-08T03:58:31Z</time>
      </trkpt>
      <trkpt lat="50.23025" lon="3.64519">
        <ele>130.88</ele>
        <time>2021-08-08T03:58:41Z</time>
      </trkpt>
      <trkpt lat="50.22993" lon="3.64532">
        <ele>131.36</ele>
        <time>2021-08-08T03:58:49Z</time>
      </trkpt>
      <trkpt lat="50.22963" lon="3.64546">
        <ele>131.36</ele>
        <time>2021-08-08T03:58:57Z</time>
      </trkpt>
      <trkpt lat="50.22959" lon="3.64548">
        <ele>131.36</ele>
        <time>2021-08-08T03:58:58Z</time>
      </trkpt>
      <trkpt lat="50.22955" lon="3.64551">
        <ele>131.36</ele>
        <time>2021-08-08T03:58:59Z</time>
      </trkpt>
      <trkpt lat="50.22952" lon="3.64554">
        <ele>131.36</ele>
        <time>2021-08-08T03:59:00Z</time>
      </trkpt>
      <trkpt lat="50.22948" lon="3.64556">
        <ele>131.36</ele>
        <time>2021-08-08T03:59:01Z</time>
      </trkpt>
      <trkpt lat="50.22945" lon="3.64558">
        <ele>131.36</ele>
        <time>2021-08-08T03:59:02Z</time>
      </trkpt>
      <trkpt lat="50.22941" lon="3.6456">
        <ele>131.36</ele>
        <time>2021-08-08T03:59:03Z</time>
      </trkpt>
      <trkpt lat="50.2291" lon="3.64579">
        <ele>132.32</ele>
        <time>2021-08-08T03:59:12Z</time>
      </trkpt>
      <trkpt lat="50.2289" lon="3.64587">
        <ele>132.32</ele>
        <time>2021-08-08T03:59:18Z</time>
      </trkpt>
      <trkpt lat="50.22878" lon="3.64591">
        <ele>132.32</ele>
        <time>2021-08-08T03:59:21Z</time>
      </trkpt>
      <trkpt lat="50.22874" lon="3.64593">
        <ele>132.32</ele>
        <time>2021-08-08T03:59:22Z</time>
      </trkpt>
      <trkpt lat="50.2287" lon="3.64595">
        <ele>132.32</ele>
        <time>2021-08-08T03:59:23Z</time>
      </trkpt>
      <trkpt lat="50.22866" lon="3.64596">
        <ele>132.32</ele>
        <time>2021-08-08T03:59:24Z</time>
      </trkpt>
      <trkpt lat="50.22861" lon="3.64598">
        <ele>132.32</ele>
        <time>2021-08-08T03:59:25Z</time>
      </trkpt>
      <trkpt lat="50.22854" lon="3.64601">
        <ele>132.32</ele>
        <time>2021-08-08T03:59:27Z</time>
      </trkpt>
      <trkpt lat="50.22816" lon="3.64617">
        <ele>132.8</ele>
        <time>2021-08-08T03:59:35Z</time>
      </trkpt>
      <trkpt lat="50.22762" lon="3.64638">
        <ele>132.8</ele>
        <time>2021-08-08T03:59:46Z</time>
      </trkpt>
      <trkpt lat="50.22712" lon="3.6466">
        <ele>132.8</ele>
        <time>2021-08-08T03:59:56Z</time>
      </trkpt>
      <trkpt lat="50.22689" lon="3.64677">
        <ele>131.36</ele>
        <time>2021-08-08T04:00:01Z</time>
      </trkpt>
      <trkpt lat="50.22649" lon="3.64708">
        <ele>131.84</ele>
        <time>2021-08-08T04:00:10Z</time>
      </trkpt>
      <trkpt lat="50.226" lon="3.64745">
        <ele>133.76</ele>
        <time>2021-08-08T04:00:21Z</time>
      </trkpt>
      <trkpt lat="50.22561" lon="3.64777">
        <ele>133.76</ele>
        <time>2021-08-08T04:00:29Z</time>
      </trkpt>
      <trkpt lat="50.22512" lon="3.64819">
        <ele>133.76</ele>
        <time>2021-08-08T04:00:39Z</time>
      </trkpt>
      <trkpt lat="50.22483" lon="3.64847">
        <ele>132.32</ele>
        <time>2021-08-08T04:00:45Z</time>
      </trkpt>
      <trkpt lat="50.22438" lon="3.64878">
        <ele>132.32</ele>
        <time>2021-08-08T04:00:54Z</time>
      </trkpt>
      <trkpt lat="50.22388" lon="3.64914">
        <ele>132.32</ele>
        <time>2021-08-08T04:01:04Z</time>
      </trkpt>
      <trkpt lat="50.22337" lon="3.64949">
        <ele>132.32</ele>
        <time>2021-08-08T04:01:14Z</time>
      </trkpt>
      <trkpt lat="50.22311" lon="3.64961">
        <ele>133.76</ele>
        <time>2021-08-08T04:01:19Z</time>
      </trkpt>
      <trkpt lat="50.22273" lon="3.64981">
        <ele>134.72</ele>
        <time>2021-08-08T04:01:28Z</time>
      </trkpt>
      <trkpt lat="50.2226" lon="3.64999">
        <ele>135.2</ele>
        <time>2021-08-08T04:01:33Z</time>
      </trkpt>
      <trkpt lat="50.22257" lon="3.65002">
        <ele>135.2</ele>
        <time>2021-08-08T04:01:34Z</time>
      </trkpt>
      <trkpt lat="50.22253" lon="3.65004">
        <ele>135.2</ele>
        <time>2021-08-08T04:01:35Z</time>
      </trkpt>
      <trkpt lat="50.22249" lon="3.65006">
        <ele>135.2</ele>
        <time>2021-08-08T04:01:36Z</time>
      </trkpt>
      <trkpt lat="50.22203" lon="3.65026">
        <ele>135.2</ele>
        <time>2021-08-08T04:01:46Z</time>
      </trkpt>
      <trkpt lat="50.22151" lon="3.6504">
        <ele>135.2</ele>
        <time>2021-08-08T04:01:57Z</time>
      </trkpt>
      <trkpt lat="50.22114" lon="3.65061">
        <ele>136.16</ele>
        <time>2021-08-08T04:02:05Z</time>
      </trkpt>
      <trkpt lat="50.22057" lon="3.65094">
        <ele>136.64</ele>
        <time>2021-08-08T04:02:17Z</time>
      </trkpt>
      <trkpt lat="50.22002" lon="3.65124">
        <ele>136.64</ele>
        <time>2021-08-08T04:02:27Z</time>
      </trkpt>
      <trkpt lat="50.21992" lon="3.65128">
        <ele>135.68</ele>
        <time>2021-08-08T04:02:29Z</time>
      </trkpt>
      <trkpt lat="50.21943" lon="3.65151">
        <ele>135.2</ele>
        <time>2021-08-08T04:02:38Z</time>
      </trkpt>
      <trkpt lat="50.21903" lon="3.65167">
        <ele>135.2</ele>
        <time>2021-08-08T04:02:46Z</time>
      </trkpt>
      <trkpt lat="50.21857" lon="3.65185">
        <ele>136.64</ele>
        <time>2021-08-08T04:02:56Z</time>
      </trkpt>
      <trkpt lat="50.21834" lon="3.65196">
        <ele>136.64</ele>
        <time>2021-08-08T04:03:01Z</time>
      </trkpt>
      <trkpt lat="50.21829" lon="3.65198">
        <ele>136.64</ele>
        <time>2021-08-08T04:03:02Z</time>
      </trkpt>
      <trkpt lat="50.21784" lon="3.65213">
        <ele>134.24</ele>
        <time>2021-08-08T04:03:11Z</time>
      </trkpt>
      <trkpt lat="50.2174" lon="3.65218">
        <ele>133.28</ele>
        <time>2021-08-08T04:03:19Z</time>
      </trkpt>
      <trkpt lat="50.21734" lon="3.65219">
        <ele>133.28</ele>
        <time>2021-08-08T04:03:20Z</time>
      </trkpt>
      <trkpt lat="50.21697" lon="3.65237">
        <ele>131.84</ele>
        <time>2021-08-08T04:03:27Z</time>
      </trkpt>
      <trkpt lat="50.21692" lon="3.6524">
        <ele>131.36</ele>
        <time>2021-08-08T04:03:28Z</time>
      </trkpt>
      <trkpt lat="50.21649" lon="3.65274">
        <ele>130.88</ele>
        <time>2021-08-08T04:03:37Z</time>
      </trkpt>
      <trkpt lat="50.21607" lon="3.65315">
        <ele>128.47</ele>
        <time>2021-08-08T04:03:45Z</time>
      </trkpt>
      <trkpt lat="50.21596" lon="3.65324">
        <ele>128.47</ele>
        <time>2021-08-08T04:03:47Z</time>
      </trkpt>
      <trkpt lat="50.2159" lon="3.65328">
        <ele>128.47</ele>
        <time>2021-08-08T04:03:48Z</time>
      </trkpt>
      <trkpt lat="50.21584" lon="3.6533">
        <ele>128.47</ele>
        <time>2021-08-08T04:03:49Z</time>
      </trkpt>
      <trkpt lat="50.21577" lon="3.65331">
        <ele>128.47</ele>
        <time>2021-08-08T04:03:50Z</time>
      </trkpt>
      <trkpt lat="50.21571" lon="3.65332">
        <ele>128.47</ele>
        <time>2021-08-08T04:03:51Z</time>
      </trkpt>
      <trkpt lat="50.21564" lon="3.65332">
        <ele>127.99</ele>
        <time>2021-08-08T04:03:52Z</time>
      </trkpt>
      <trkpt lat="50.21505" lon="3.65325">
        <ele>126.55</ele>
        <time>2021-08-08T04:04:01Z</time>
      </trkpt>
      <trkpt lat="50.2143" lon="3.65316">
        <ele>125.59</ele>
        <time>2021-08-08T04:04:12Z</time>
      </trkpt>
      <trkpt lat="50.21397" lon="3.65315">
        <ele>125.59</ele>
        <time>2021-08-08T04:04:17Z</time>
      </trkpt>
      <trkpt lat="50.21359" lon="3.65314">
        <ele>125.59</ele>
        <time>2021-08-08T04:04:23Z</time>
      </trkpt>
      <trkpt lat="50.21354" lon="3.65315">
        <ele>125.59</ele>
        <time>2021-08-08T04:04:24Z</time>
      </trkpt>
      <trkpt lat="50.21348" lon="3.65316">
        <ele>127.03</ele>
        <time>2021-08-08T04:04:25Z</time>
      </trkpt>
      <trkpt lat="50.21342" lon="3.65315">
        <ele>127.03</ele>
        <time>2021-08-08T04:04:26Z</time>
      </trkpt>
      <trkpt lat="50.213" lon="3.65314">
        <ele>127.03</ele>
        <time>2021-08-08T04:04:34Z</time>
      </trkpt>
      <trkpt lat="50.21258" lon="3.65314">
        <ele>128.95</ele>
        <time>2021-08-08T04:04:43Z</time>
      </trkpt>
      <trkpt lat="50.21221" lon="3.65314">
        <ele>128.95</ele>
        <time>2021-08-08T04:04:51Z</time>
      </trkpt>
      <trkpt lat="50.21216" lon="3.65315">
        <ele>129.92</ele>
        <time>2021-08-08T04:04:52Z</time>
      </trkpt>
      <trkpt lat="50.21212" lon="3.65317">
        <ele>129.92</ele>
        <time>2021-08-08T04:04:53Z</time>
      </trkpt>
      <trkpt lat="50.21208" lon="3.6532">
        <ele>129.92</ele>
        <time>2021-08-08T04:04:54Z</time>
      </trkpt>
      <trkpt lat="50.21204" lon="3.65324">
        <ele>129.92</ele>
        <time>2021-08-08T04:04:55Z</time>
      </trkpt>
      <trkpt lat="50.21202" lon="3.65328">
        <ele>129.92</ele>
        <time>2021-08-08T04:04:56Z</time>
      </trkpt>
      <trkpt lat="50.21199" lon="3.65334">
        <ele>129.92</ele>
        <time>2021-08-08T04:04:57Z</time>
      </trkpt>
      <trkpt lat="50.21197" lon="3.65341">
        <ele>130.88</ele>
        <time>2021-08-08T04:04:58Z</time>
      </trkpt>
      <trkpt lat="50.21196" lon="3.65344">
        <ele>130.88</ele>
        <time>2021-08-08T04:04:59Z</time>
      </trkpt>
      <trkpt lat="50.21194" lon="3.6535">
        <ele>130.88</ele>
        <time>2021-08-08T04:05:00Z</time>
      </trkpt>
      <trkpt lat="50.21176" lon="3.65408">
        <ele>131.84</ele>
        <time>2021-08-08T04:05:10Z</time>
      </trkpt>
      <trkpt lat="50.21153" lon="3.65489">
        <ele>132.8</ele>
        <time>2021-08-08T04:05:23Z</time>
      </trkpt>
      <trkpt lat="50.21133" lon="3.65571">
        <ele>133.76</ele>
        <time>2021-08-08T04:05:35Z</time>
      </trkpt>
      <trkpt lat="50.2111" lon="3.65666">
        <ele>135.68</ele>
        <time>2021-08-08T04:05:49Z</time>
      </trkpt>
      <trkpt lat="50.21091" lon="3.65744">
        <ele>136.64</ele>
        <time>2021-08-08T04:06:01Z</time>
      </trkpt>
      <trkpt lat="50.21074" lon="3.65815">
        <ele>138.09</ele>
        <time>2021-08-08T04:06:12Z</time>
      </trkpt>
      <trkpt lat="50.21055" lon="3.65875">
        <ele>139.05</ele>
        <time>2021-08-08T04:06:21Z</time>
      </trkpt>
      <trkpt lat="50.21026" lon="3.65949">
        <ele>139.05</ele>
        <time>2021-08-08T04:06:32Z</time>
      </trkpt>
      <trkpt lat="50.21012" lon="3.65978">
        <ele>137.61</ele>
        <time>2021-08-08T04:06:36Z</time>
      </trkpt>
      <trkpt lat="50.20975" lon="3.66049">
        <ele>136.64</ele>
        <time>2021-08-08T04:06:46Z</time>
      </trkpt>
      <trkpt lat="50.20938" lon="3.66115">
        <ele>136.64</ele>
        <time>2021-08-08T04:06:56Z</time>
      </trkpt>
      <trkpt lat="50.2092" lon="3.66146">
        <ele>137.61</ele>
        <time>2021-08-08T04:07:01Z</time>
      </trkpt>
      <trkpt lat="50.20888" lon="3.66212">
        <ele>138.09</ele>
        <time>2021-08-08T04:07:11Z</time>
      </trkpt>
      <trkpt lat="50.20866" lon="3.66269">
        <ele>139.53</ele>
        <time>2021-08-08T04:07:20Z</time>
      </trkpt>
      <trkpt lat="50.20849" lon="3.66322">
        <ele>140.01</ele>
        <time>2021-08-08T04:07:28Z</time>
      </trkpt>
      <trkpt lat="50.20847" lon="3.66328">
        <ele>140.01</ele>
        <time>2021-08-08T04:07:29Z</time>
      </trkpt>
      <trkpt lat="50.20827" lon="3.66395">
        <ele>140.97</ele>
        <time>2021-08-08T04:07:39Z</time>
      </trkpt>
      <trkpt lat="50.20814" lon="3.66449">
        <ele>141.45</ele>
        <time>2021-08-08T04:07:47Z</time>
      </trkpt>
      <trkpt lat="50.20812" lon="3.66456">
        <ele>141.45</ele>
        <time>2021-08-08T04:07:48Z</time>
      </trkpt>
      <trkpt lat="50.20804" lon="3.66482">
        <ele>142.41</ele>
        <time>2021-08-08T04:07:52Z</time>
      </trkpt>
      <trkpt lat="50.20803" lon="3.66487">
        <ele>142.41</ele>
        <time>2021-08-08T04:07:53Z</time>
      </trkpt>
      <trkpt lat="50.2079" lon="3.66542">
        <ele>142.41</ele>
        <time>2021-08-08T04:08:02Z</time>
      </trkpt>
      <trkpt lat="50.20792" lon="3.66548">
        <ele>142.41</ele>
        <time>2021-08-08T04:08:03Z</time>
      </trkpt>
      <trkpt lat="50.20795" lon="3.66553">
        <ele>142.41</ele>
        <time>2021-08-08T04:08:04Z</time>
      </trkpt>
      <trkpt lat="50.20801" lon="3.66561">
        <ele>142.41</ele>
        <time>2021-08-08T04:08:06Z</time>
      </trkpt>
      <trkpt lat="50.2083" lon="3.66598">
        <ele>143.85</ele>
        <time>2021-08-08T04:08:15Z</time>
      </trkpt>
      <trkpt lat="50.20861" lon="3.66641">
        <ele>144.82</ele>
        <time>2021-08-08T04:08:25Z</time>
      </trkpt>
      <trkpt lat="50.20893" lon="3.66684">
        <ele>145.78</ele>
        <time>2021-08-08T04:08:35Z</time>
      </trkpt>
      <trkpt lat="50.20899" lon="3.66694">
        <ele>145.78</ele>
        <time>2021-08-08T04:08:37Z</time>
      </trkpt>
      <trkpt lat="50.20901" lon="3.66701">
        <ele>145.78</ele>
        <time>2021-08-08T04:08:38Z</time>
      </trkpt>
      <trkpt lat="50.20902" lon="3.66708">
        <ele>145.78</ele>
        <time>2021-08-08T04:08:39Z</time>
      </trkpt>
      <trkpt lat="50.20901" lon="3.66715">
        <ele>145.78</ele>
        <time>2021-08-08T04:08:40Z</time>
      </trkpt>
      <trkpt lat="50.20899" lon="3.6672">
        <ele>145.78</ele>
        <time>2021-08-08T04:08:41Z</time>
      </trkpt>
      <trkpt lat="50.20896" lon="3.66725">
        <ele>145.78</ele>
        <time>2021-08-08T04:08:42Z</time>
      </trkpt>
      <trkpt lat="50.20893" lon="3.66729">
        <ele>145.78</ele>
        <time>2021-08-08T04:08:43Z</time>
      </trkpt>
      <trkpt lat="50.20883" lon="3.66742">
        <ele>145.78</ele>
        <time>2021-08-08T04:08:46Z</time>
      </trkpt>
      <trkpt lat="50.20856" lon="3.66788">
        <ele>143.85</ele>
        <time>2021-08-08T04:08:54Z</time>
      </trkpt>
      <trkpt lat="50.20807" lon="3.6687">
        <ele>141.45</ele>
        <time>2021-08-08T04:09:06Z</time>
      </trkpt>
      <trkpt lat="50.2079" lon="3.66898">
        <ele>141.45</ele>
        <time>2021-08-08T04:09:11Z</time>
      </trkpt>
      <trkpt lat="50.20786" lon="3.66904">
        <ele>141.45</ele>
        <time>2021-08-08T04:09:12Z</time>
      </trkpt>
      <trkpt lat="50.20783" lon="3.66908">
        <ele>141.45</ele>
        <time>2021-08-08T04:09:13Z</time>
      </trkpt>
      <trkpt lat="50.20773" lon="3.66921">
        <ele>142.89</ele>
        <time>2021-08-08T04:09:16Z</time>
      </trkpt>
      <trkpt lat="50.2077" lon="3.66926">
        <ele>142.89</ele>
        <time>2021-08-08T04:09:17Z</time>
      </trkpt>
      <trkpt lat="50.20761" lon="3.6694">
        <ele>143.37</ele>
        <time>2021-08-08T04:09:20Z</time>
      </trkpt>
      <trkpt lat="50.20758" lon="3.66944">
        <ele>143.37</ele>
        <time>2021-08-08T04:09:21Z</time>
      </trkpt>
      <trkpt lat="50.2074" lon="3.66979">
        <ele>144.34</ele>
        <time>2021-08-08T04:09:29Z</time>
      </trkpt>
      <trkpt lat="50.2072" lon="3.67009">
        <ele>145.78</ele>
        <time>2021-08-08T04:09:37Z</time>
      </trkpt>
      <trkpt lat="50.207" lon="3.67047">
        <ele>146.74</ele>
        <time>2021-08-08T04:09:45Z</time>
      </trkpt>
      <trkpt lat="50.20679" lon="3.67082">
        <ele>147.22</ele>
        <time>2021-08-08T04:09:53Z</time>
      </trkpt>
      <trkpt lat="50.20663" lon="3.67114">
        <ele>147.22</ele>
        <time>2021-08-08T04:10:00Z</time>
      </trkpt>
      <trkpt lat="50.20655" lon="3.67127">
        <ele>147.22</ele>
        <time>2021-08-08T04:10:03Z</time>
      </trkpt>
      <trkpt lat="50.20652" lon="3.67131">
        <ele>147.22</ele>
        <time>2021-08-08T04:10:04Z</time>
      </trkpt>
      <trkpt lat="50.20641" lon="3.6715">
        <ele>147.22</ele>
        <time>2021-08-08T04:10:08Z</time>
      </trkpt>
      <trkpt lat="50.20614" lon="3.67196">
        <ele>147.7</ele>
        <time>2021-08-08T04:10:17Z</time>
      </trkpt>
      <trkpt lat="50.20589" lon="3.67243">
        <ele>147.7</ele>
        <time>2021-08-08T04:10:26Z</time>
      </trkpt>
      <trkpt lat="50.20583" lon="3.67251">
        <ele>147.7</ele>
        <time>2021-08-08T04:10:30Z</time>
      </trkpt>
      <trkpt lat="50.20579" lon="3.67257">
        <ele>147.7</ele>
        <time>2021-08-08T04:10:33Z</time>
      </trkpt>
      <trkpt lat="50.20578" lon="3.6726">
        <ele>147.7</ele>
        <time>2021-08-08T04:10:34Z</time>
      </trkpt>
      <trkpt lat="50.20577" lon="3.67263">
        <ele>147.7</ele>
        <time>2021-08-08T04:10:35Z</time>
      </trkpt>
      <trkpt lat="50.20576" lon="3.67265">
        <ele>147.7</ele>
        <time>2021-08-08T04:10:36Z</time>
      </trkpt>
      <trkpt lat="50.20575" lon="3.67266">
        <ele>147.7</ele>
        <time>2021-08-08T04:10:37Z</time>
      </trkpt>
      <trkpt lat="50.20574" lon="3.67266">
        <ele>147.7</ele>
        <time>2021-08-08T04:10:38Z</time>
      </trkpt>
      <trkpt lat="50.20572" lon="3.67267">
        <ele>147.7</ele>
        <time>2021-08-08T04:10:39Z</time>
      </trkpt>
      <trkpt lat="50.20571" lon="3.67268">
        <ele>147.7</ele>
        <time>2021-08-08T04:10:40Z</time>
      </trkpt>
      <trkpt lat="50.20563" lon="3.6728">
        <ele>147.7</ele>
        <time>2021-08-08T04:10:45Z</time>
      </trkpt>
      <trkpt lat="50.20552" lon="3.673">
        <ele>147.7</ele>
        <time>2021-08-08T04:10:52Z</time>
      </trkpt>
      <trkpt lat="50.20543" lon="3.67323">
        <ele>146.26</ele>
        <time>2021-08-08T04:10:59Z</time>
      </trkpt>
      <trkpt lat="50.20531" lon="3.67347">
        <ele>145.78</ele>
        <time>2021-08-08T04:11:05Z</time>
      </trkpt>
      <trkpt lat="50.20507" lon="3.67388">
        <ele>144.82</ele>
        <time>2021-08-08T04:11:14Z</time>
      </trkpt>
      <trkpt lat="50.2049" lon="3.67418">
        <ele>144.34</ele>
        <time>2021-08-08T04:11:21Z</time>
      </trkpt>
      <trkpt lat="50.20465" lon="3.67456">
        <ele>141.93</ele>
        <time>2021-08-08T04:11:29Z</time>
      </trkpt>
      <trkpt lat="50.20462" lon="3.67462">
        <ele>141.93</ele>
        <time>2021-08-08T04:11:30Z</time>
      </trkpt>
      <trkpt lat="50.20458" lon="3.6747">
        <ele>141.93</ele>
        <time>2021-08-08T04:11:32Z</time>
      </trkpt>
      <trkpt lat="50.20456" lon="3.67471">
        <ele>141.93</ele>
        <time>2021-08-08T04:11:33Z</time>
      </trkpt>
      <trkpt lat="50.20454" lon="3.67469">
        <ele>141.45</ele>
        <time>2021-08-08T04:11:34Z</time>
      </trkpt>
      <trkpt lat="50.20451" lon="3.67467">
        <ele>141.45</ele>
        <time>2021-08-08T04:11:35Z</time>
      </trkpt>
      <trkpt lat="50.20449" lon="3.67464">
        <ele>141.45</ele>
        <time>2021-08-08T04:11:36Z</time>
      </trkpt>
      <trkpt lat="50.20447" lon="3.67462">
        <ele>141.45</ele>
        <time>2021-08-08T04:11:37Z</time>
      </trkpt>
      <trkpt lat="50.20444" lon="3.6746">
        <ele>141.45</ele>
        <time>2021-08-08T04:11:38Z</time>
      </trkpt>
      <trkpt lat="50.20436" lon="3.67456">
        <ele>141.45</ele>
        <time>2021-08-08T04:11:41Z</time>
      </trkpt>
      <trkpt lat="50.20435" lon="3.67454">
        <ele>141.45</ele>
        <time>2021-08-08T04:11:42Z</time>
      </trkpt>
      <trkpt lat="50.20433" lon="3.67452">
        <ele>141.45</ele>
        <time>2021-08-08T04:11:43Z</time>
      </trkpt>
      <trkpt lat="50.2042" lon="3.67441">
        <ele>141.93</ele>
        <time>2021-08-08T04:11:49Z</time>
      </trkpt>
      <trkpt lat="50.20418" lon="3.67438">
        <ele>141.93</ele>
        <time>2021-08-08T04:11:51Z</time>
      </trkpt>
      <trkpt lat="50.20418" lon="3.67435">
        <ele>141.93</ele>
        <time>2021-08-08T04:11:52Z</time>
      </trkpt>
      <trkpt lat="50.20417" lon="3.67432">
        <ele>141.93</ele>
        <time>2021-08-08T04:11:53Z</time>
      </trkpt>
      <trkpt lat="50.20415" lon="3.6743">
        <ele>141.93</ele>
        <time>2021-08-08T04:11:54Z</time>
      </trkpt>
      <trkpt lat="50.20413" lon="3.67427">
        <ele>141.93</ele>
        <time>2021-08-08T04:11:55Z</time>
      </trkpt>
      <trkpt lat="50.20411" lon="3.67425">
        <ele>141.93</ele>
        <time>2021-08-08T04:11:56Z</time>
      </trkpt>
      <trkpt lat="50.2041" lon="3.67423">
        <ele>141.93</ele>
        <time>2021-08-08T04:11:57Z</time>
      </trkpt>
      <trkpt lat="50.20408" lon="3.67421">
        <ele>141.93</ele>
        <time>2021-08-08T04:11:58Z</time>
      </trkpt>
      <trkpt lat="50.20407" lon="3.6742">
        <ele>141.93</ele>
        <time>2021-08-08T04:11:59Z</time>
      </trkpt>
      <trkpt lat="50.20406" lon="3.67419">
        <ele>141.93</ele>
        <time>2021-08-08T04:12:00Z</time>
      </trkpt>
      <trkpt lat="50.20395" lon="3.67408">
        <ele>141.93</ele>
        <time>2021-08-08T04:12:06Z</time>
      </trkpt>
      <trkpt lat="50.20386" lon="3.67392">
        <ele>141.93</ele>
        <time>2021-08-08T04:12:13Z</time>
      </trkpt>
      <trkpt lat="50.20385" lon="3.67386">
        <ele>141.93</ele>
        <time>2021-08-08T04:12:15Z</time>
      </trkpt>
      <trkpt lat="50.20383" lon="3.67383">
        <ele>141.93</ele>
        <time>2021-08-08T04:12:16Z</time>
      </trkpt>
      <trkpt lat="50.20382" lon="3.6738">
        <ele>141.93</ele>
        <time>2021-08-08T04:12:17Z</time>
      </trkpt>
      <trkpt lat="50.20375" lon="3.6737">
        <ele>141.93</ele>
        <time>2021-08-08T04:12:21Z</time>
      </trkpt>
      <trkpt lat="50.20372" lon="3.67368">
        <ele>141.93</ele>
        <time>2021-08-08T04:12:22Z</time>
      </trkpt>
      <trkpt lat="50.20364" lon="3.67354">
        <ele>142.41</ele>
        <time>2021-08-08T04:12:28Z</time>
      </trkpt>
      <trkpt lat="50.20363" lon="3.67351">
        <ele>142.41</ele>
        <time>2021-08-08T04:12:29Z</time>
      </trkpt>
      <trkpt lat="50.20362" lon="3.6735">
        <ele>142.41</ele>
        <time>2021-08-08T04:12:30Z</time>
      </trkpt>
      <trkpt lat="50.20359" lon="3.67349">
        <ele>142.41</ele>
        <time>2021-08-08T04:12:31Z</time>
      </trkpt>
      <trkpt lat="50.20347" lon="3.67337">
        <ele>142.41</ele>
        <time>2021-08-08T04:12:37Z</time>
      </trkpt>
      <trkpt lat="50.20338" lon="3.67324">
        <ele>142.41</ele>
        <time>2021-08-08T04:12:43Z</time>
      </trkpt>
      <trkpt lat="50.2033" lon="3.6731">
        <ele>142.41</ele>
        <time>2021-08-08T04:12:49Z</time>
      </trkpt>
      <trkpt lat="50.20324" lon="3.67303">
        <ele>142.41</ele>
        <time>2021-08-08T04:12:53Z</time>
      </trkpt>
      <trkpt lat="50.20323" lon="3.673">
        <ele>142.41</ele>
        <time>2021-08-08T04:12:54Z</time>
      </trkpt>
      <trkpt lat="50.20321" lon="3.67298">
        <ele>142.41</ele>
        <time>2021-08-08T04:12:55Z</time>
      </trkpt>
      <trkpt lat="50.20319" lon="3.67297">
        <ele>142.41</ele>
        <time>2021-08-08T04:12:56Z</time>
      </trkpt>
      <trkpt lat="50.20317" lon="3.67295">
        <ele>142.41</ele>
        <time>2021-08-08T04:12:57Z</time>
      </trkpt>
      <trkpt lat="50.20315" lon="3.67292">
        <ele>142.41</ele>
        <time>2021-08-08T04:12:58Z</time>
      </trkpt>
      <trkpt lat="50.20313" lon="3.6729">
        <ele>142.41</ele>
        <time>2021-08-08T04:12:59Z</time>
      </trkpt>
      <trkpt lat="50.20302" lon="3.67277">
        <ele>142.89</ele>
        <time>2021-08-08T04:13:06Z</time>
      </trkpt>
      <trkpt lat="50.20292" lon="3.67264">
        <ele>143.85</ele>
        <time>2021-08-08T04:13:12Z</time>
      </trkpt>
      <trkpt lat="50.2028" lon="3.67244">
        <ele>144.34</ele>
        <time>2021-08-08T04:13:19Z</time>
      </trkpt>
      <trkpt lat="50.2027" lon="3.67229">
        <ele>144.34</ele>
        <time>2021-08-08T04:13:25Z</time>
      </trkpt>
      <trkpt lat="50.20261" lon="3.67214">
        <ele>144.82</ele>
        <time>2021-08-08T04:13:31Z</time>
      </trkpt>
      <trkpt lat="50.2025" lon="3.67198">
        <ele>145.3</ele>
        <time>2021-08-08T04:13:38Z</time>
      </trkpt>
      <trkpt lat="50.20246" lon="3.67194">
        <ele>145.3</ele>
        <time>2021-08-08T04:13:40Z</time>
      </trkpt>
      <trkpt lat="50.20244" lon="3.67191">
        <ele>145.3</ele>
        <time>2021-08-08T04:13:41Z</time>
      </trkpt>
      <trkpt lat="50.20242" lon="3.67188">
        <ele>145.3</ele>
        <time>2021-08-08T04:13:42Z</time>
      </trkpt>
      <trkpt lat="50.20228" lon="3.67168">
        <ele>145.78</ele>
        <time>2021-08-08T04:13:49Z</time>
      </trkpt>
      <trkpt lat="50.20213" lon="3.67147">
        <ele>145.78</ele>
        <time>2021-08-08T04:13:56Z</time>
      </trkpt>
      <trkpt lat="50.20207" lon="3.67139">
        <ele>146.26</ele>
        <time>2021-08-08T04:13:58Z</time>
      </trkpt>
      <trkpt lat="50.20204" lon="3.67135">
        <ele>146.26</ele>
        <time>2021-08-08T04:13:59Z</time>
      </trkpt>
      <trkpt lat="50.20189" lon="3.67117">
        <ele>146.74</ele>
        <time>2021-08-08T04:14:05Z</time>
      </trkpt>
      <trkpt lat="50.20182" lon="3.67108">
        <ele>146.74</ele>
        <time>2021-08-08T04:14:08Z</time>
      </trkpt>
      <trkpt lat="50.20181" lon="3.67106">
        <ele>147.22</ele>
        <time>2021-08-08T04:14:09Z</time>
      </trkpt>
      <trkpt lat="50.20166" lon="3.67083">
        <ele>148.18</ele>
        <time>2021-08-08T04:14:17Z</time>
      </trkpt>
      <trkpt lat="50.20154" lon="3.67068">
        <ele>148.18</ele>
        <time>2021-08-08T04:14:23Z</time>
      </trkpt>
      <trkpt lat="50.20153" lon="3.67065">
        <ele>148.66</ele>
        <time>2021-08-08T04:14:24Z</time>
      </trkpt>
      <trkpt lat="50.20151" lon="3.67062">
        <ele>148.66</ele>
        <time>2021-08-08T04:14:25Z</time>
      </trkpt>
      <trkpt lat="50.20142" lon="3.67048">
        <ele>149.14</ele>
        <time>2021-08-08T04:14:31Z</time>
      </trkpt>
      <trkpt lat="50.20138" lon="3.67049">
        <ele>149.14</ele>
        <time>2021-08-08T04:14:33Z</time>
      </trkpt>
      <trkpt lat="50.20137" lon="3.67051">
        <ele>149.14</ele>
        <time>2021-08-08T04:14:34Z</time>
      </trkpt>
      <trkpt lat="50.20136" lon="3.67052">
        <ele>149.14</ele>
        <time>2021-08-08T04:14:35Z</time>
      </trkpt>
      <trkpt lat="50.20136" lon="3.67054">
        <ele>149.14</ele>
        <time>2021-08-08T04:14:36Z</time>
      </trkpt>
      <trkpt lat="50.20136" lon="3.67057">
        <ele>149.14</ele>
        <time>2021-08-08T04:14:37Z</time>
      </trkpt>
      <trkpt lat="50.20136" lon="3.6706">
        <ele>149.62</ele>
        <time>2021-08-08T04:14:38Z</time>
      </trkpt>
      <trkpt lat="50.20137" lon="3.67063">
        <ele>149.62</ele>
        <time>2021-08-08T04:14:39Z</time>
      </trkpt>
      <trkpt lat="50.20137" lon="3.67067">
        <ele>149.62</ele>
        <time>2021-08-08T04:14:40Z</time>
      </trkpt>
      <trkpt lat="50.20138" lon="3.6707">
        <ele>149.62</ele>
        <time>2021-08-08T04:14:41Z</time>
      </trkpt>
      <trkpt lat="50.20138" lon="3.67074">
        <ele>149.62</ele>
        <time>2021-08-08T04:14:42Z</time>
      </trkpt>
      <trkpt lat="50.20138" lon="3.67079">
        <ele>149.62</ele>
        <time>2021-08-08T04:14:43Z</time>
      </trkpt>
      <trkpt lat="50.20137" lon="3.67084">
        <ele>149.62</ele>
        <time>2021-08-08T04:14:44Z</time>
      </trkpt>
      <trkpt lat="50.20138" lon="3.67089">
        <ele>149.62</ele>
        <time>2021-08-08T04:14:45Z</time>
      </trkpt>
      <trkpt lat="50.20138" lon="3.67095">
        <ele>149.62</ele>
        <time>2021-08-08T04:14:46Z</time>
      </trkpt>
      <trkpt lat="50.20141" lon="3.67133">
        <ele>149.62</ele>
        <time>2021-08-08T04:14:52Z</time>
      </trkpt>
      <trkpt lat="50.20141" lon="3.67181">
        <ele>148.18</ele>
        <time>2021-08-08T04:14:59Z</time>
      </trkpt>
      <trkpt lat="50.20141" lon="3.67188">
        <ele>148.18</ele>
        <time>2021-08-08T04:15:00Z</time>
      </trkpt>
      <trkpt lat="50.20141" lon="3.67195">
        <ele>148.18</ele>
        <time>2021-08-08T04:15:01Z</time>
      </trkpt>
      <trkpt lat="50.20142" lon="3.67217">
        <ele>147.7</ele>
        <time>2021-08-08T04:15:04Z</time>
      </trkpt>
      <trkpt lat="50.20144" lon="3.67282">
        <ele>147.22</ele>
        <time>2021-08-08T04:15:13Z</time>
      </trkpt>
      <trkpt lat="50.20149" lon="3.6735">
        <ele>145.78</ele>
        <time>2021-08-08T04:15:22Z</time>
      </trkpt>
      <trkpt lat="50.20151" lon="3.67366">
        <ele>145.3</ele>
        <time>2021-08-08T04:15:24Z</time>
      </trkpt>
      <trkpt lat="50.20156" lon="3.6745">
        <ele>143.37</ele>
        <time>2021-08-08T04:15:34Z</time>
      </trkpt>
      <trkpt lat="50.20158" lon="3.67525">
        <ele>141.93</ele>
        <time>2021-08-08T04:15:42Z</time>
      </trkpt>
      <trkpt lat="50.20159" lon="3.67534">
        <ele>141.93</ele>
        <time>2021-08-08T04:15:43Z</time>
      </trkpt>
      <trkpt lat="50.20159" lon="3.67543">
        <ele>141.45</ele>
        <time>2021-08-08T04:15:44Z</time>
      </trkpt>
      <trkpt lat="50.20159" lon="3.67551">
        <ele>141.45</ele>
        <time>2021-08-08T04:15:45Z</time>
      </trkpt>
      <trkpt lat="50.2016" lon="3.6756">
        <ele>141.45</ele>
        <time>2021-08-08T04:15:46Z</time>
      </trkpt>
      <trkpt lat="50.20161" lon="3.67614">
        <ele>142.89</ele>
        <time>2021-08-08T04:15:54Z</time>
      </trkpt>
      <trkpt lat="50.20163" lon="3.6766">
        <ele>143.85</ele>
        <time>2021-08-08T04:16:02Z</time>
      </trkpt>
      <trkpt lat="50.20164" lon="3.67699">
        <ele>144.34</ele>
        <time>2021-08-08T04:16:09Z</time>
      </trkpt>
      <trkpt lat="50.20169" lon="3.67756">
        <ele>144.82</ele>
        <time>2021-08-08T04:16:18Z</time>
      </trkpt>
      <trkpt lat="50.20173" lon="3.67807">
        <ele>145.3</ele>
        <time>2021-08-08T04:16:26Z</time>
      </trkpt>
      <trkpt lat="50.20173" lon="3.67814">
        <ele>145.3</ele>
        <time>2021-08-08T04:16:27Z</time>
      </trkpt>
      <trkpt lat="50.20173" lon="3.6782">
        <ele>145.3</ele>
        <time>2021-08-08T04:16:28Z</time>
      </trkpt>
      <trkpt lat="50.20173" lon="3.67839">
        <ele>145.78</ele>
        <time>2021-08-08T04:16:31Z</time>
      </trkpt>
      <trkpt lat="50.20173" lon="3.67846">
        <ele>145.78</ele>
        <time>2021-08-08T04:16:32Z</time>
      </trkpt>
      <trkpt lat="50.20174" lon="3.67852">
        <ele>145.78</ele>
        <time>2021-08-08T04:16:33Z</time>
      </trkpt>
      <trkpt lat="50.20174" lon="3.67858">
        <ele>145.78</ele>
        <time>2021-08-08T04:16:34Z</time>
      </trkpt>
      <trkpt lat="50.20174" lon="3.67864">
        <ele>145.78</ele>
        <time>2021-08-08T04:16:35Z</time>
      </trkpt>
      <trkpt lat="50.20174" lon="3.67924">
        <ele>147.22</ele>
        <time>2021-08-08T04:16:45Z</time>
      </trkpt>
      <trkpt lat="50.20175" lon="3.67966">
        <ele>148.18</ele>
        <time>2021-08-08T04:16:53Z</time>
      </trkpt>
      <trkpt lat="50.20178" lon="3.68002">
        <ele>149.14</ele>
        <time>2021-08-08T04:17:00Z</time>
      </trkpt>
      <trkpt lat="50.20182" lon="3.68041">
        <ele>149.62</ele>
        <time>2021-08-08T04:17:07Z</time>
      </trkpt>
      <trkpt lat="50.20191" lon="3.68087">
        <ele>149.62</ele>
        <time>2021-08-08T04:17:15Z</time>
      </trkpt>
      <trkpt lat="50.20204" lon="3.68139">
        <ele>149.62</ele>
        <time>2021-08-08T04:17:24Z</time>
      </trkpt>
      <trkpt lat="50.20208" lon="3.68159">
        <ele>149.62</ele>
        <time>2021-08-08T04:17:27Z</time>
      </trkpt>
      <trkpt lat="50.20224" lon="3.68216">
        <ele>148.18</ele>
        <time>2021-08-08T04:17:35Z</time>
      </trkpt>
      <trkpt lat="50.20226" lon="3.68223">
        <ele>148.18</ele>
        <time>2021-08-08T04:17:36Z</time>
      </trkpt>
      <trkpt lat="50.20229" lon="3.68231">
        <ele>148.18</ele>
        <time>2021-08-08T04:17:37Z</time>
      </trkpt>
      <trkpt lat="50.20231" lon="3.68239">
        <ele>147.7</ele>
        <time>2021-08-08T04:17:38Z</time>
      </trkpt>
      <trkpt lat="50.20233" lon="3.68247">
        <ele>147.7</ele>
        <time>2021-08-08T04:17:39Z</time>
      </trkpt>
      <trkpt lat="50.20248" lon="3.68294">
        <ele>146.74</ele>
        <time>2021-08-08T04:17:45Z</time>
      </trkpt>
      <trkpt lat="50.20268" lon="3.68368">
        <ele>144.82</ele>
        <time>2021-08-08T04:17:54Z</time>
      </trkpt>
      <trkpt lat="50.20291" lon="3.68463">
        <ele>142.89</ele>
        <time>2021-08-08T04:18:05Z</time>
      </trkpt>
      <trkpt lat="50.20313" lon="3.68542">
        <ele>142.41</ele>
        <time>2021-08-08T04:18:14Z</time>
      </trkpt>
      <trkpt lat="50.20324" lon="3.68578">
        <ele>143.37</ele>
        <time>2021-08-08T04:18:19Z</time>
      </trkpt>
      <trkpt lat="50.20338" lon="3.68617">
        <ele>145.3</ele>
        <time>2021-08-08T04:18:26Z</time>
      </trkpt>
      <trkpt lat="50.20351" lon="3.6866">
        <ele>146.74</ele>
        <time>2021-08-08T04:18:34Z</time>
      </trkpt>
      <trkpt lat="50.20362" lon="3.68703">
        <ele>147.7</ele>
        <time>2021-08-08T04:18:42Z</time>
      </trkpt>
      <trkpt lat="50.20375" lon="3.68756">
        <ele>149.14</ele>
        <time>2021-08-08T04:18:52Z</time>
      </trkpt>
      <trkpt lat="50.20384" lon="3.68795">
        <ele>149.14</ele>
        <time>2021-08-08T04:18:59Z</time>
      </trkpt>
      <trkpt lat="50.20388" lon="3.68813">
        <ele>149.62</ele>
        <time>2021-08-08T04:19:02Z</time>
      </trkpt>
      <trkpt lat="50.204" lon="3.68862">
        <ele>149.62</ele>
        <time>2021-08-08T04:19:10Z</time>
      </trkpt>
      <trkpt lat="50.20403" lon="3.68866">
        <ele>149.62</ele>
        <time>2021-08-08T04:19:11Z</time>
      </trkpt>
      <trkpt lat="50.20407" lon="3.68875">
        <ele>149.62</ele>
        <time>2021-08-08T04:19:13Z</time>
      </trkpt>
      <trkpt lat="50.20409" lon="3.68892">
        <ele>149.62</ele>
        <time>2021-08-08T04:19:16Z</time>
      </trkpt>
      <trkpt lat="50.20407" lon="3.68914">
        <ele>149.62</ele>
        <time>2021-08-08T04:19:19Z</time>
      </trkpt>
      <trkpt lat="50.20408" lon="3.68921">
        <ele>149.62</ele>
        <time>2021-08-08T04:19:20Z</time>
      </trkpt>
      <trkpt lat="50.20409" lon="3.68928">
        <ele>149.62</ele>
        <time>2021-08-08T04:19:21Z</time>
      </trkpt>
      <trkpt lat="50.20412" lon="3.68944">
        <ele>149.62</ele>
        <time>2021-08-08T04:19:23Z</time>
      </trkpt>
      <trkpt lat="50.20412" lon="3.68951">
        <ele>149.62</ele>
        <time>2021-08-08T04:19:24Z</time>
      </trkpt>
      <trkpt lat="50.20412" lon="3.68957">
        <ele>149.62</ele>
        <time>2021-08-08T04:19:25Z</time>
      </trkpt>
      <trkpt lat="50.2041" lon="3.68963">
        <ele>149.62</ele>
        <time>2021-08-08T04:19:26Z</time>
      </trkpt>
      <trkpt lat="50.20409" lon="3.68965">
        <ele>149.62</ele>
        <time>2021-08-08T04:19:27Z</time>
      </trkpt>
      <trkpt lat="50.20405" lon="3.68977">
        <ele>148.66</ele>
        <time>2021-08-08T04:19:29Z</time>
      </trkpt>
      <trkpt lat="50.20382" lon="3.69014">
        <ele>148.66</ele>
        <time>2021-08-08T04:19:36Z</time>
      </trkpt>
      <trkpt lat="50.20356" lon="3.69053">
        <ele>148.66</ele>
        <time>2021-08-08T04:19:44Z</time>
      </trkpt>
      <trkpt lat="50.2034" lon="3.6908">
        <ele>148.66</ele>
        <time>2021-08-08T04:19:51Z</time>
      </trkpt>
      <trkpt lat="50.20337" lon="3.69087">
        <ele>149.62</ele>
        <time>2021-08-08T04:19:52Z</time>
      </trkpt>
      <trkpt lat="50.20317" lon="3.69118">
        <ele>150.1</ele>
        <time>2021-08-08T04:19:59Z</time>
      </trkpt>
      <trkpt lat="50.20295" lon="3.69154">
        <ele>150.58</ele>
        <time>2021-08-08T04:20:07Z</time>
      </trkpt>
      <trkpt lat="50.20274" lon="3.69187">
        <ele>151.06</ele>
        <time>2021-08-08T04:20:15Z</time>
      </trkpt>
      <trkpt lat="50.20261" lon="3.69215">
        <ele>152.03</ele>
        <time>2021-08-08T04:20:22Z</time>
      </trkpt>
      <trkpt lat="50.20244" lon="3.69247">
        <ele>152.51</ele>
        <time>2021-08-08T04:20:29Z</time>
      </trkpt>
      <trkpt lat="50.20234" lon="3.69264">
        <ele>153.47</ele>
        <time>2021-08-08T04:20:33Z</time>
      </trkpt>
      <trkpt lat="50.20213" lon="3.69294">
        <ele>153.47</ele>
        <time>2021-08-08T04:20:40Z</time>
      </trkpt>
      <trkpt lat="50.20191" lon="3.69332">
        <ele>153.95</ele>
        <time>2021-08-08T04:20:48Z</time>
      </trkpt>
      <trkpt lat="50.20174" lon="3.6937">
        <ele>154.91</ele>
        <time>2021-08-08T04:20:56Z</time>
      </trkpt>
      <trkpt lat="50.20155" lon="3.69415">
        <ele>155.39</ele>
        <time>2021-08-08T04:21:06Z</time>
      </trkpt>
      <trkpt lat="50.20134" lon="3.69453">
        <ele>155.39</ele>
        <time>2021-08-08T04:21:14Z</time>
      </trkpt>
      <trkpt lat="50.2012" lon="3.69476">
        <ele>156.35</ele>
        <time>2021-08-08T04:21:19Z</time>
      </trkpt>
      <trkpt lat="50.20104" lon="3.69499">
        <ele>156.35</ele>
        <time>2021-08-08T04:21:24Z</time>
      </trkpt>
      <trkpt lat="50.20101" lon="3.69504">
        <ele>156.35</ele>
        <time>2021-08-08T04:21:25Z</time>
      </trkpt>
      <trkpt lat="50.20092" lon="3.69518">
        <ele>156.35</ele>
        <time>2021-08-08T04:21:28Z</time>
      </trkpt>
      <trkpt lat="50.20074" lon="3.6955">
        <ele>156.83</ele>
        <time>2021-08-08T04:21:35Z</time>
      </trkpt>
      <trkpt lat="50.20071" lon="3.69555">
        <ele>157.31</ele>
        <time>2021-08-08T04:21:36Z</time>
      </trkpt>
      <trkpt lat="50.20044" lon="3.696">
        <ele>157.31</ele>
        <time>2021-08-08T04:21:46Z</time>
      </trkpt>
      <trkpt lat="50.20024" lon="3.69627">
        <ele>157.79</ele>
        <time>2021-08-08T04:21:54Z</time>
      </trkpt>
      <trkpt lat="50.20019" lon="3.6964">
        <ele>157.79</ele>
        <time>2021-08-08T04:21:58Z</time>
      </trkpt>
      <trkpt lat="50.20008" lon="3.6966">
        <ele>157.79</ele>
        <time>2021-08-08T04:22:04Z</time>
      </trkpt>
      <trkpt lat="50.19992" lon="3.69687">
        <ele>156.35</ele>
        <time>2021-08-08T04:22:11Z</time>
      </trkpt>
      <trkpt lat="50.19974" lon="3.69715">
        <ele>156.35</ele>
        <time>2021-08-08T04:22:18Z</time>
      </trkpt>
      <trkpt lat="50.19959" lon="3.69742">
        <ele>155.39</ele>
        <time>2021-08-08T04:22:25Z</time>
      </trkpt>
      <trkpt lat="50.19945" lon="3.6976">
        <ele>155.39</ele>
        <time>2021-08-08T04:22:30Z</time>
      </trkpt>
      <trkpt lat="50.19938" lon="3.69776">
        <ele>155.39</ele>
        <time>2021-08-08T04:22:36Z</time>
      </trkpt>
      <trkpt lat="50.19927" lon="3.69797">
        <ele>155.39</ele>
        <time>2021-08-08T04:22:43Z</time>
      </trkpt>
      <trkpt lat="50.19911" lon="3.69822">
        <ele>155.87</ele>
        <time>2021-08-08T04:22:49Z</time>
      </trkpt>
      <trkpt lat="50.19891" lon="3.69848">
        <ele>155.87</ele>
        <time>2021-08-08T04:22:56Z</time>
      </trkpt>
      <trkpt lat="50.19883" lon="3.69862">
        <ele>155.39</ele>
        <time>2021-08-08T04:23:01Z</time>
      </trkpt>
      <trkpt lat="50.19869" lon="3.69889">
        <ele>155.87</ele>
        <time>2021-08-08T04:23:09Z</time>
      </trkpt>
      <trkpt lat="50.1986" lon="3.69907">
        <ele>155.87</ele>
        <time>2021-08-08T04:23:15Z</time>
      </trkpt>
      <trkpt lat="50.19859" lon="3.6991">
        <ele>156.83</ele>
        <time>2021-08-08T04:23:16Z</time>
      </trkpt>
      <trkpt lat="50.19847" lon="3.6993">
        <ele>157.31</ele>
        <time>2021-08-08T04:23:23Z</time>
      </trkpt>
      <trkpt lat="50.19836" lon="3.69949">
        <ele>158.75</ele>
        <time>2021-08-08T04:23:30Z</time>
      </trkpt>
      <trkpt lat="50.19822" lon="3.69974">
        <ele>158.75</ele>
        <time>2021-08-08T04:23:37Z</time>
      </trkpt>
      <trkpt lat="50.19808" lon="3.70001">
        <ele>158.75</ele>
        <time>2021-08-08T04:23:44Z</time>
      </trkpt>
      <trkpt lat="50.19805" lon="3.70007">
        <ele>158.75</ele>
        <time>2021-08-08T04:23:46Z</time>
      </trkpt>
      <trkpt lat="50.19801" lon="3.7001">
        <ele>158.75</ele>
        <time>2021-08-08T04:23:48Z</time>
      </trkpt>
      <trkpt lat="50.198" lon="3.70012">
        <ele>158.75</ele>
        <time>2021-08-08T04:23:49Z</time>
      </trkpt>
      <trkpt lat="50.19789" lon="3.70033">
        <ele>159.24</ele>
        <time>2021-08-08T04:23:56Z</time>
      </trkpt>
      <trkpt lat="50.19774" lon="3.70064">
        <ele>159.72</ele>
        <time>2021-08-08T04:24:05Z</time>
      </trkpt>
      <trkpt lat="50.19759" lon="3.70086">
        <ele>159.72</ele>
        <time>2021-08-08T04:24:12Z</time>
      </trkpt>
      <trkpt lat="50.19747" lon="3.7011">
        <ele>159.72</ele>
        <time>2021-08-08T04:24:19Z</time>
      </trkpt>
      <trkpt lat="50.19723" lon="3.70148">
        <ele>159.72</ele>
        <time>2021-08-08T04:24:29Z</time>
      </trkpt>
      <trkpt lat="50.19706" lon="3.70176">
        <ele>160.2</ele>
        <time>2021-08-08T04:24:37Z</time>
      </trkpt>
      <trkpt lat="50.19691" lon="3.70204">
        <ele>160.2</ele>
        <time>2021-08-08T04:24:45Z</time>
      </trkpt>
      <trkpt lat="50.19676" lon="3.70233">
        <ele>160.2</ele>
        <time>2021-08-08T04:24:53Z</time>
      </trkpt>
      <trkpt lat="50.19667" lon="3.70249">
        <ele>160.2</ele>
        <time>2021-08-08T04:24:59Z</time>
      </trkpt>
      <trkpt lat="50.19659" lon="3.70261">
        <ele>158.75</ele>
        <time>2021-08-08T04:25:03Z</time>
      </trkpt>
      <trkpt lat="50.19647" lon="3.70282">
        <ele>158.27</ele>
        <time>2021-08-08T04:25:10Z</time>
      </trkpt>
      <trkpt lat="50.19639" lon="3.70294">
        <ele>158.27</ele>
        <time>2021-08-08T04:25:17Z</time>
      </trkpt>
      <trkpt lat="50.19629" lon="3.70313">
        <ele>158.27</ele>
        <time>2021-08-08T04:25:26Z</time>
      </trkpt>
      <trkpt lat="50.19623" lon="3.70323">
        <ele>158.27</ele>
        <time>2021-08-08T04:25:32Z</time>
      </trkpt>
      <trkpt lat="50.19617" lon="3.70332">
        <ele>159.72</ele>
        <time>2021-08-08T04:25:36Z</time>
      </trkpt>
      <trkpt lat="50.19608" lon="3.70349">
        <ele>160.2</ele>
        <time>2021-08-08T04:25:44Z</time>
      </trkpt>
      <trkpt lat="50.19597" lon="3.70367">
        <ele>160.68</ele>
        <time>2021-08-08T04:25:53Z</time>
      </trkpt>
      <trkpt lat="50.19588" lon="3.70387">
        <ele>161.64</ele>
        <time>2021-08-08T04:26:02Z</time>
      </trkpt>
      <trkpt lat="50.19576" lon="3.70408">
        <ele>162.6</ele>
        <time>2021-08-08T04:26:11Z</time>
      </trkpt>
      <trkpt lat="50.19567" lon="3.70428">
        <ele>163.08</ele>
        <time>2021-08-08T04:26:19Z</time>
      </trkpt>
      <trkpt lat="50.1956" lon="3.70443">
        <ele>163.56</ele>
        <time>2021-08-08T04:26:26Z</time>
      </trkpt>
      <trkpt lat="50.19548" lon="3.70463">
        <ele>163.56</ele>
        <time>2021-08-08T04:26:35Z</time>
      </trkpt>
      <trkpt lat="50.19535" lon="3.70478">
        <ele>164.04</ele>
        <time>2021-08-08T04:26:41Z</time>
      </trkpt>
      <trkpt lat="50.19521" lon="3.70495">
        <ele>164.52</ele>
        <time>2021-08-08T04:26:48Z</time>
      </trkpt>
      <trkpt lat="50.19513" lon="3.70511">
        <ele>164.52</ele>
        <time>2021-08-08T04:26:54Z</time>
      </trkpt>
      <trkpt lat="50.19512" lon="3.70522">
        <ele>164.52</ele>
        <time>2021-08-08T04:27:00Z</time>
      </trkpt>
      <trkpt lat="50.19508" lon="3.70528">
        <ele>165</ele>
        <time>2021-08-08T04:27:07Z</time>
      </trkpt>
      <trkpt lat="50.19503" lon="3.70538">
        <ele>165.48</ele>
        <time>2021-08-08T04:27:14Z</time>
      </trkpt>
      <trkpt lat="50.19502" lon="3.70539">
        <ele>165.48</ele>
        <time>2021-08-08T04:27:15Z</time>
      </trkpt>
      <trkpt lat="50.19501" lon="3.70541">
        <ele>165.48</ele>
        <time>2021-08-08T04:27:16Z</time>
      </trkpt>
      <trkpt lat="50.195" lon="3.70543">
        <ele>165.48</ele>
        <time>2021-08-08T04:27:17Z</time>
      </trkpt>
      <trkpt lat="50.19497" lon="3.7055">
        <ele>165.48</ele>
        <time>2021-08-08T04:27:21Z</time>
      </trkpt>
      <trkpt lat="50.19496" lon="3.70552">
        <ele>165.48</ele>
        <time>2021-08-08T04:27:22Z</time>
      </trkpt>
      <trkpt lat="50.19494" lon="3.70554">
        <ele>165.48</ele>
        <time>2021-08-08T04:27:24Z</time>
      </trkpt>
      <trkpt lat="50.19489" lon="3.70562">
        <ele>165.48</ele>
        <time>2021-08-08T04:27:30Z</time>
      </trkpt>
      <trkpt lat="50.19477" lon="3.70576">
        <ele>165.48</ele>
        <time>2021-08-08T04:27:37Z</time>
      </trkpt>
      <trkpt lat="50.1947" lon="3.70587">
        <ele>165.48</ele>
        <time>2021-08-08T04:27:43Z</time>
      </trkpt>
      <trkpt lat="50.19469" lon="3.70589">
        <ele>165.48</ele>
        <time>2021-08-08T04:27:44Z</time>
      </trkpt>
      <trkpt lat="50.19469" lon="3.7059">
        <ele>165.48</ele>
        <time>2021-08-08T04:27:45Z</time>
      </trkpt>
      <trkpt lat="50.19468" lon="3.70592">
        <ele>165.48</ele>
        <time>2021-08-08T04:27:46Z</time>
      </trkpt>
      <trkpt lat="50.19467" lon="3.70594">
        <ele>165.48</ele>
        <time>2021-08-08T04:27:47Z</time>
      </trkpt>
      <trkpt lat="50.19466" lon="3.70596">
        <ele>165.48</ele>
        <time>2021-08-08T04:27:48Z</time>
      </trkpt>
      <trkpt lat="50.19457" lon="3.70613">
        <ele>165.48</ele>
        <time>2021-08-08T04:27:54Z</time>
      </trkpt>
      <trkpt lat="50.19446" lon="3.70628">
        <ele>165.96</ele>
        <time>2021-08-08T04:28:01Z</time>
      </trkpt>
      <trkpt lat="50.19439" lon="3.70639">
        <ele>165.96</ele>
        <time>2021-08-08T04:28:06Z</time>
      </trkpt>
      <trkpt lat="50.19438" lon="3.70641">
        <ele>165.96</ele>
        <time>2021-08-08T04:28:07Z</time>
      </trkpt>
      <trkpt lat="50.19436" lon="3.70644">
        <ele>165.96</ele>
        <time>2021-08-08T04:28:08Z</time>
      </trkpt>
      <trkpt lat="50.19435" lon="3.70646">
        <ele>165.96</ele>
        <time>2021-08-08T04:28:09Z</time>
      </trkpt>
      <trkpt lat="50.19433" lon="3.70647">
        <ele>165.96</ele>
        <time>2021-08-08T04:28:10Z</time>
      </trkpt>
      <trkpt lat="50.19432" lon="3.70649">
        <ele>165.96</ele>
        <time>2021-08-08T04:28:11Z</time>
      </trkpt>
      <trkpt lat="50.19431" lon="3.70651">
        <ele>165.96</ele>
        <time>2021-08-08T04:28:12Z</time>
      </trkpt>
      <trkpt lat="50.1943" lon="3.70652">
        <ele>165.96</ele>
        <time>2021-08-08T04:28:13Z</time>
      </trkpt>
      <trkpt lat="50.19429" lon="3.70653">
        <ele>165.96</ele>
        <time>2021-08-08T04:28:14Z</time>
      </trkpt>
      <trkpt lat="50.19426" lon="3.70664">
        <ele>165.96</ele>
        <time>2021-08-08T04:28:19Z</time>
      </trkpt>
      <trkpt lat="50.19426" lon="3.70665">
        <ele>165.96</ele>
        <time>2021-08-08T04:28:20Z</time>
      </trkpt>
      <trkpt lat="50.19421" lon="3.70675">
        <ele>165.96</ele>
        <time>2021-08-08T04:28:25Z</time>
      </trkpt>
      <trkpt lat="50.1942" lon="3.70676">
        <ele>165.96</ele>
        <time>2021-08-08T04:28:26Z</time>
      </trkpt>
      <trkpt lat="50.19419" lon="3.70677">
        <ele>165.96</ele>
        <time>2021-08-08T04:28:27Z</time>
      </trkpt>
      <trkpt lat="50.19417" lon="3.70678">
        <ele>165.96</ele>
        <time>2021-08-08T04:28:28Z</time>
      </trkpt>
      <trkpt lat="50.19416" lon="3.7068">
        <ele>165.96</ele>
        <time>2021-08-08T04:28:29Z</time>
      </trkpt>
      <trkpt lat="50.19411" lon="3.70687">
        <ele>166.45</ele>
        <time>2021-08-08T04:28:35Z</time>
      </trkpt>
      <trkpt lat="50.19405" lon="3.70692">
        <ele>166.45</ele>
        <time>2021-08-08T04:28:39Z</time>
      </trkpt>
      <trkpt lat="50.19397" lon="3.70696">
        <ele>166.93</ele>
        <time>2021-08-08T04:28:47Z</time>
      </trkpt>
      <trkpt lat="50.19394" lon="3.70697">
        <ele>166.93</ele>
        <time>2021-08-08T04:28:57Z</time>
      </trkpt>
      <trkpt lat="50.19389" lon="3.70692">
        <ele>166.93</ele>
        <time>2021-08-08T04:29:10Z</time>
      </trkpt>
      <trkpt lat="50.19388" lon="3.70694">
        <ele>166.93</ele>
        <time>2021-08-08T04:29:18Z</time>
      </trkpt>
      <trkpt lat="50.19384" lon="3.70699">
        <ele>167.41</ele>
        <time>2021-08-08T04:29:27Z</time>
      </trkpt>
      <trkpt lat="50.19381" lon="3.70703">
        <ele>167.41</ele>
        <time>2021-08-08T04:29:30Z</time>
      </trkpt>
      <trkpt lat="50.19374" lon="3.70712">
        <ele>167.41</ele>
        <time>2021-08-08T04:29:36Z</time>
      </trkpt>
      <trkpt lat="50.19363" lon="3.70723">
        <ele>167.41</ele>
        <time>2021-08-08T04:29:43Z</time>
      </trkpt>
      <trkpt lat="50.1935" lon="3.70736">
        <ele>167.41</ele>
        <time>2021-08-08T04:29:50Z</time>
      </trkpt>
      <trkpt lat="50.19332" lon="3.70751">
        <ele>167.41</ele>
        <time>2021-08-08T04:29:56Z</time>
      </trkpt>
      <trkpt lat="50.19307" lon="3.7077">
        <ele>166.45</ele>
        <time>2021-08-08T04:30:03Z</time>
      </trkpt>
      <trkpt lat="50.19285" lon="3.70788">
        <ele>165.96</ele>
        <time>2021-08-08T04:30:10Z</time>
      </trkpt>
      <trkpt lat="50.19265" lon="3.70804">
        <ele>165.48</ele>
        <time>2021-08-08T04:30:16Z</time>
      </trkpt>
      <trkpt lat="50.19249" lon="3.70815">
        <ele>165.48</ele>
        <time>2021-08-08T04:30:22Z</time>
      </trkpt>
      <trkpt lat="50.19234" lon="3.70827">
        <ele>166.93</ele>
        <time>2021-08-08T04:30:29Z</time>
      </trkpt>
      <trkpt lat="50.19217" lon="3.70841">
        <ele>167.41</ele>
        <time>2021-08-08T04:30:37Z</time>
      </trkpt>
      <trkpt lat="50.19198" lon="3.70857">
        <ele>167.41</ele>
        <time>2021-08-08T04:30:44Z</time>
      </trkpt>
      <trkpt lat="50.19178" lon="3.70871">
        <ele>167.89</ele>
        <time>2021-08-08T04:30:51Z</time>
      </trkpt>
      <trkpt lat="50.19162" lon="3.70883">
        <ele>167.89</ele>
        <time>2021-08-08T04:30:57Z</time>
      </trkpt>
      <trkpt lat="50.19141" lon="3.70901">
        <ele>168.37</ele>
        <time>2021-08-08T04:31:04Z</time>
      </trkpt>
      <trkpt lat="50.19126" lon="3.70912">
        <ele>168.37</ele>
        <time>2021-08-08T04:31:09Z</time>
      </trkpt>
      <trkpt lat="50.19106" lon="3.70926">
        <ele>168.37</ele>
        <time>2021-08-08T04:31:16Z</time>
      </trkpt>
      <trkpt lat="50.19085" lon="3.70943">
        <ele>168.85</ele>
        <time>2021-08-08T04:31:24Z</time>
      </trkpt>
      <trkpt lat="50.19069" lon="3.70956">
        <ele>169.33</ele>
        <time>2021-08-08T04:31:31Z</time>
      </trkpt>
      <trkpt lat="50.19043" lon="3.70978">
        <ele>169.33</ele>
        <time>2021-08-08T04:31:39Z</time>
      </trkpt>
      <trkpt lat="50.19034" lon="3.70991">
        <ele>169.33</ele>
        <time>2021-08-08T04:31:44Z</time>
      </trkpt>
      <trkpt lat="50.19033" lon="3.70994">
        <ele>169.33</ele>
        <time>2021-08-08T04:31:45Z</time>
      </trkpt>
      <trkpt lat="50.19033" lon="3.71016">
        <ele>169.33</ele>
        <time>2021-08-08T04:31:52Z</time>
      </trkpt>
      <trkpt lat="50.19034" lon="3.71041">
        <ele>169.81</ele>
        <time>2021-08-08T04:32:00Z</time>
      </trkpt>
      <trkpt lat="50.19037" lon="3.71065">
        <ele>169.81</ele>
        <time>2021-08-08T04:32:06Z</time>
      </trkpt>
      <trkpt lat="50.19042" lon="3.71096">
        <ele>170.29</ele>
        <time>2021-08-08T04:32:13Z</time>
      </trkpt>
      <trkpt lat="50.19047" lon="3.71126">
        <ele>170.77</ele>
        <time>2021-08-08T04:32:20Z</time>
      </trkpt>
      <trkpt lat="50.19054" lon="3.71166">
        <ele>170.77</ele>
        <time>2021-08-08T04:32:29Z</time>
      </trkpt>
      <trkpt lat="50.19059" lon="3.71204">
        <ele>170.77</ele>
        <time>2021-08-08T04:32:37Z</time>
      </trkpt>
      <trkpt lat="50.19065" lon="3.71237">
        <ele>169.33</ele>
        <time>2021-08-08T04:32:44Z</time>
      </trkpt>
      <trkpt lat="50.19068" lon="3.71269">
        <ele>168.37</ele>
        <time>2021-08-08T04:32:51Z</time>
      </trkpt>
      <trkpt lat="50.1907" lon="3.71296">
        <ele>167.89</ele>
        <time>2021-08-08T04:32:57Z</time>
      </trkpt>
      <trkpt lat="50.19077" lon="3.7133">
        <ele>166.45</ele>
        <time>2021-08-08T04:33:05Z</time>
      </trkpt>
      <trkpt lat="50.19082" lon="3.71366">
        <ele>166.45</ele>
        <time>2021-08-08T04:33:12Z</time>
      </trkpt>
      <trkpt lat="50.19085" lon="3.71381">
        <ele>165.96</ele>
        <time>2021-08-08T04:33:15Z</time>
      </trkpt>
      <trkpt lat="50.19085" lon="3.71384">
        <ele>165.96</ele>
        <time>2021-08-08T04:33:16Z</time>
      </trkpt>
      <trkpt lat="50.19086" lon="3.71389">
        <ele>165.48</ele>
        <time>2021-08-08T04:33:17Z</time>
      </trkpt>
      <trkpt lat="50.19086" lon="3.71393">
        <ele>165.48</ele>
        <time>2021-08-08T04:33:18Z</time>
      </trkpt>
      <trkpt lat="50.19087" lon="3.71398">
        <ele>165.48</ele>
        <time>2021-08-08T04:33:19Z</time>
      </trkpt>
      <trkpt lat="50.19087" lon="3.71402">
        <ele>165.48</ele>
        <time>2021-08-08T04:33:20Z</time>
      </trkpt>
      <trkpt lat="50.19088" lon="3.71408">
        <ele>164.52</ele>
        <time>2021-08-08T04:33:21Z</time>
      </trkpt>
      <trkpt lat="50.19089" lon="3.71411">
        <ele>164.52</ele>
        <time>2021-08-08T04:33:22Z</time>
      </trkpt>
      <trkpt lat="50.19093" lon="3.71433">
        <ele>164.04</ele>
        <time>2021-08-08T04:33:27Z</time>
      </trkpt>
      <trkpt lat="50.19096" lon="3.71454">
        <ele>163.56</ele>
        <time>2021-08-08T04:33:33Z</time>
      </trkpt>
      <trkpt lat="50.19099" lon="3.71472">
        <ele>163.56</ele>
        <time>2021-08-08T04:33:41Z</time>
      </trkpt>
      <trkpt lat="50.19102" lon="3.71486">
        <ele>163.56</ele>
        <time>2021-08-08T04:33:47Z</time>
      </trkpt>
      <trkpt lat="50.19102" lon="3.71493">
        <ele>164.04</ele>
        <time>2021-08-08T04:33:50Z</time>
      </trkpt>
      <trkpt lat="50.19101" lon="3.71494">
        <ele>164.04</ele>
        <time>2021-08-08T04:33:51Z</time>
      </trkpt>
      <trkpt lat="50.191" lon="3.71496">
        <ele>164.04</ele>
        <time>2021-08-08T04:33:52Z</time>
      </trkpt>
      <trkpt lat="50.19087" lon="3.71502">
        <ele>164.04</ele>
        <time>2021-08-08T04:33:59Z</time>
      </trkpt>
      <trkpt lat="50.19085" lon="3.71501">
        <ele>164.04</ele>
        <time>2021-08-08T04:34:00Z</time>
      </trkpt>
      <trkpt lat="50.19084" lon="3.71501">
        <ele>164.04</ele>
        <time>2021-08-08T04:34:01Z</time>
      </trkpt>
      <trkpt lat="50.19082" lon="3.71501">
        <ele>164.04</ele>
        <time>2021-08-08T04:34:02Z</time>
      </trkpt>
      <trkpt lat="50.19079" lon="3.71502">
        <ele>164.04</ele>
        <time>2021-08-08T04:34:03Z</time>
      </trkpt>
      <trkpt lat="50.19062" lon="3.71505">
        <ele>164.04</ele>
        <time>2021-08-08T04:34:10Z</time>
      </trkpt>
      <trkpt lat="50.19055" lon="3.71506">
        <ele>165.48</ele>
        <time>2021-08-08T04:34:13Z</time>
      </trkpt>
      <trkpt lat="50.19037" lon="3.71507">
        <ele>165.48</ele>
        <time>2021-08-08T04:34:20Z</time>
      </trkpt>
      <trkpt lat="50.19012" lon="3.71511">
        <ele>165.48</ele>
        <time>2021-08-08T04:34:28Z</time>
      </trkpt>
      <trkpt lat="50.19001" lon="3.71518">
        <ele>165.96</ele>
        <time>2021-08-08T04:34:34Z</time>
      </trkpt>
      <trkpt lat="50.18994" lon="3.71535">
        <ele>166.93</ele>
        <time>2021-08-08T04:34:41Z</time>
      </trkpt>
      <trkpt lat="50.18988" lon="3.71544">
        <ele>167.41</ele>
        <time>2021-08-08T04:34:46Z</time>
      </trkpt>
      <trkpt lat="50.18978" lon="3.7156">
        <ele>167.89</ele>
        <time>2021-08-08T04:34:53Z</time>
      </trkpt>
      <trkpt lat="50.18976" lon="3.71567">
        <ele>167.89</ele>
        <time>2021-08-08T04:34:58Z</time>
      </trkpt>
      <trkpt lat="50.18975" lon="3.7157">
        <ele>167.89</ele>
        <time>2021-08-08T04:35:00Z</time>
      </trkpt>
      <trkpt lat="50.18968" lon="3.71591">
        <ele>168.85</ele>
        <time>2021-08-08T04:35:09Z</time>
      </trkpt>
      <trkpt lat="50.18964" lon="3.71609">
        <ele>168.85</ele>
        <time>2021-08-08T04:35:16Z</time>
      </trkpt>
      <trkpt lat="50.18956" lon="3.71628">
        <ele>169.33</ele>
        <time>2021-08-08T04:35:24Z</time>
      </trkpt>
      <trkpt lat="50.1895" lon="3.71643">
        <ele>169.81</ele>
        <time>2021-08-08T04:35:30Z</time>
      </trkpt>
      <trkpt lat="50.18947" lon="3.71654">
        <ele>169.81</ele>
        <time>2021-08-08T04:35:35Z</time>
      </trkpt>
      <trkpt lat="50.18944" lon="3.71663">
        <ele>170.29</ele>
        <time>2021-08-08T04:35:38Z</time>
      </trkpt>
      <trkpt lat="50.18937" lon="3.71674">
        <ele>170.77</ele>
        <time>2021-08-08T04:35:45Z</time>
      </trkpt>
      <trkpt lat="50.18934" lon="3.71681">
        <ele>170.77</ele>
        <time>2021-08-08T04:35:47Z</time>
      </trkpt>
      <trkpt lat="50.18933" lon="3.71685">
        <ele>170.77</ele>
        <time>2021-08-08T04:35:48Z</time>
      </trkpt>
      <trkpt lat="50.18932" lon="3.71689">
        <ele>170.77</ele>
        <time>2021-08-08T04:35:49Z</time>
      </trkpt>
      <trkpt lat="50.18931" lon="3.71699">
        <ele>170.77</ele>
        <time>2021-08-08T04:35:52Z</time>
      </trkpt>
      <trkpt lat="50.1893" lon="3.71701">
        <ele>171.25</ele>
        <time>2021-08-08T04:35:53Z</time>
      </trkpt>
      <trkpt lat="50.18929" lon="3.71704">
        <ele>171.25</ele>
        <time>2021-08-08T04:35:54Z</time>
      </trkpt>
      <trkpt lat="50.18928" lon="3.71707">
        <ele>171.25</ele>
        <time>2021-08-08T04:35:55Z</time>
      </trkpt>
      <trkpt lat="50.18927" lon="3.71709">
        <ele>171.25</ele>
        <time>2021-08-08T04:35:56Z</time>
      </trkpt>
      <trkpt lat="50.18927" lon="3.71715">
        <ele>171.25</ele>
        <time>2021-08-08T04:35:58Z</time>
      </trkpt>
      <trkpt lat="50.18927" lon="3.71718">
        <ele>171.25</ele>
        <time>2021-08-08T04:35:59Z</time>
      </trkpt>
      <trkpt lat="50.18927" lon="3.7172">
        <ele>171.73</ele>
        <time>2021-08-08T04:36:00Z</time>
      </trkpt>
      <trkpt lat="50.18927" lon="3.71735">
        <ele>171.73</ele>
        <time>2021-08-08T04:36:06Z</time>
      </trkpt>
      <trkpt lat="50.18928" lon="3.71758">
        <ele>172.69</ele>
        <time>2021-08-08T04:36:13Z</time>
      </trkpt>
      <trkpt lat="50.18928" lon="3.71784">
        <ele>173.17</ele>
        <time>2021-08-08T04:36:20Z</time>
      </trkpt>
      <trkpt lat="50.18923" lon="3.718">
        <ele>173.66</ele>
        <time>2021-08-08T04:36:26Z</time>
      </trkpt>
      <trkpt lat="50.18923" lon="3.71806">
        <ele>173.17</ele>
        <time>2021-08-08T04:36:28Z</time>
      </trkpt>
      <trkpt lat="50.18927" lon="3.71826">
        <ele>173.66</ele>
        <time>2021-08-08T04:36:36Z</time>
      </trkpt>
      <trkpt lat="50.18933" lon="3.71843">
        <ele>174.14</ele>
        <time>2021-08-08T04:36:44Z</time>
      </trkpt>
      <trkpt lat="50.18935" lon="3.71861">
        <ele>174.14</ele>
        <time>2021-08-08T04:36:51Z</time>
      </trkpt>
      <trkpt lat="50.18939" lon="3.71877">
        <ele>174.14</ele>
        <time>2021-08-08T04:36:56Z</time>
      </trkpt>
      <trkpt lat="50.18943" lon="3.71907">
        <ele>174.14</ele>
        <time>2021-08-08T04:37:04Z</time>
      </trkpt>
      <trkpt lat="50.18948" lon="3.71928">
        <ele>174.14</ele>
        <time>2021-08-08T04:37:12Z</time>
      </trkpt>
      <trkpt lat="50.18947" lon="3.71935">
        <ele>174.14</ele>
        <time>2021-08-08T04:37:15Z</time>
      </trkpt>
      <trkpt lat="50.18946" lon="3.71937">
        <ele>174.14</ele>
        <time>2021-08-08T04:37:16Z</time>
      </trkpt>
      <trkpt lat="50.18939" lon="3.71957">
        <ele>174.14</ele>
        <time>2021-08-08T04:37:23Z</time>
      </trkpt>
      <trkpt lat="50.18941" lon="3.71966">
        <ele>174.14</ele>
        <time>2021-08-08T04:37:26Z</time>
      </trkpt>
      <trkpt lat="50.18942" lon="3.71969">
        <ele>174.14</ele>
        <time>2021-08-08T04:37:27Z</time>
      </trkpt>
      <trkpt lat="50.18944" lon="3.71972">
        <ele>174.14</ele>
        <time>2021-08-08T04:37:28Z</time>
      </trkpt>
      <trkpt lat="50.18947" lon="3.71974">
        <ele>174.14</ele>
        <time>2021-08-08T04:37:29Z</time>
      </trkpt>
      <trkpt lat="50.1895" lon="3.71975">
        <ele>174.14</ele>
        <time>2021-08-08T04:37:30Z</time>
      </trkpt>
      <trkpt lat="50.18952" lon="3.71975">
        <ele>174.14</ele>
        <time>2021-08-08T04:37:31Z</time>
      </trkpt>
      <trkpt lat="50.18955" lon="3.71975">
        <ele>174.14</ele>
        <time>2021-08-08T04:37:32Z</time>
      </trkpt>
      <trkpt lat="50.18972" lon="3.71966">
        <ele>174.14</ele>
        <time>2021-08-08T04:37:40Z</time>
      </trkpt>
      <trkpt lat="50.18995" lon="3.71959">
        <ele>174.14</ele>
        <time>2021-08-08T04:37:48Z</time>
      </trkpt>
      <trkpt lat="50.1901" lon="3.71954">
        <ele>174.62</ele>
        <time>2021-08-08T04:37:55Z</time>
      </trkpt>
      <trkpt lat="50.19013" lon="3.71953">
        <ele>174.62</ele>
        <time>2021-08-08T04:38:04Z</time>
      </trkpt>
      <trkpt lat="50.19012" lon="3.71951">
        <ele>174.62</ele>
        <time>2021-08-08T04:38:05Z</time>
      </trkpt>
      <trkpt lat="50.1901" lon="3.7195">
        <ele>174.62</ele>
        <time>2021-08-08T04:38:06Z</time>
      </trkpt>
      <trkpt lat="50.19008" lon="3.71951">
        <ele>174.62</ele>
        <time>2021-08-08T04:38:07Z</time>
      </trkpt>
      <trkpt lat="50.19005" lon="3.71952">
        <ele>174.62</ele>
        <time>2021-08-08T04:38:08Z</time>
      </trkpt>
      <trkpt lat="50.19002" lon="3.71954">
        <ele>174.62</ele>
        <time>2021-08-08T04:38:09Z</time>
      </trkpt>
      <trkpt lat="50.18998" lon="3.71955">
        <ele>174.62</ele>
        <time>2021-08-08T04:38:10Z</time>
      </trkpt>
      <trkpt lat="50.18994" lon="3.71957">
        <ele>174.62</ele>
        <time>2021-08-08T04:38:11Z</time>
      </trkpt>
      <trkpt lat="50.1899" lon="3.71959">
        <ele>174.62</ele>
        <time>2021-08-08T04:38:12Z</time>
      </trkpt>
      <trkpt lat="50.18986" lon="3.71961">
        <ele>174.62</ele>
        <time>2021-08-08T04:38:13Z</time>
      </trkpt>
      <trkpt lat="50.18982" lon="3.71963">
        <ele>174.62</ele>
        <time>2021-08-08T04:38:14Z</time>
      </trkpt>
      <trkpt lat="50.18974" lon="3.71966">
        <ele>174.62</ele>
        <time>2021-08-08T04:38:16Z</time>
      </trkpt>
      <trkpt lat="50.18949" lon="3.7198">
        <ele>174.14</ele>
        <time>2021-08-08T04:38:22Z</time>
      </trkpt>
      <trkpt lat="50.18944" lon="3.71984">
        <ele>173.17</ele>
        <time>2021-08-08T04:38:23Z</time>
      </trkpt>
      <trkpt lat="50.18941" lon="3.71989">
        <ele>173.17</ele>
        <time>2021-08-08T04:38:24Z</time>
      </trkpt>
      <trkpt lat="50.18939" lon="3.71997">
        <ele>172.69</ele>
        <time>2021-08-08T04:38:25Z</time>
      </trkpt>
      <trkpt lat="50.18939" lon="3.72003">
        <ele>172.69</ele>
        <time>2021-08-08T04:38:26Z</time>
      </trkpt>
      <trkpt lat="50.18942" lon="3.7201">
        <ele>172.21</ele>
        <time>2021-08-08T04:38:27Z</time>
      </trkpt>
      <trkpt lat="50.18945" lon="3.72013">
        <ele>171.73</ele>
        <time>2021-08-08T04:38:28Z</time>
      </trkpt>
      <trkpt lat="50.18948" lon="3.72017">
        <ele>172.21</ele>
        <time>2021-08-08T04:38:29Z</time>
      </trkpt>
      <trkpt lat="50.18979" lon="3.72046">
        <ele>173.17</ele>
        <time>2021-08-08T04:38:38Z</time>
      </trkpt>
      <trkpt lat="50.1901" lon="3.72085">
        <ele>173.66</ele>
        <time>2021-08-08T04:38:48Z</time>
      </trkpt>
      <trkpt lat="50.19011" lon="3.72096">
        <ele>173.66</ele>
        <time>2021-08-08T04:38:50Z</time>
      </trkpt>
      <trkpt lat="50.19011" lon="3.72102">
        <ele>173.66</ele>
        <time>2021-08-08T04:38:51Z</time>
      </trkpt>
      <trkpt lat="50.1901" lon="3.72132">
        <ele>172.21</ele>
        <time>2021-08-08T04:38:55Z</time>
      </trkpt>
      <trkpt lat="50.19011" lon="3.72157">
        <ele>171.73</ele>
        <time>2021-08-08T04:38:58Z</time>
      </trkpt>
      <trkpt lat="50.19012" lon="3.72166">
        <ele>171.25</ele>
        <time>2021-08-08T04:38:59Z</time>
      </trkpt>
      <trkpt lat="50.19013" lon="3.72174">
        <ele>171.25</ele>
        <time>2021-08-08T04:39:00Z</time>
      </trkpt>
      <trkpt lat="50.19015" lon="3.72182">
        <ele>170.77</ele>
        <time>2021-08-08T04:39:01Z</time>
      </trkpt>
      <trkpt lat="50.19017" lon="3.72189">
        <ele>170.77</ele>
        <time>2021-08-08T04:39:02Z</time>
      </trkpt>
      <trkpt lat="50.1902" lon="3.72196">
        <ele>170.77</ele>
        <time>2021-08-08T04:39:03Z</time>
      </trkpt>
      <trkpt lat="50.19023" lon="3.72203">
        <ele>170.77</ele>
        <time>2021-08-08T04:39:04Z</time>
      </trkpt>
      <trkpt lat="50.19027" lon="3.72209">
        <ele>170.77</ele>
        <time>2021-08-08T04:39:05Z</time>
      </trkpt>
      <trkpt lat="50.19057" lon="3.72243">
        <ele>170.77</ele>
        <time>2021-08-08T04:39:12Z</time>
      </trkpt>
      <trkpt lat="50.19089" lon="3.7227">
        <ele>172.21</ele>
        <time>2021-08-08T04:39:20Z</time>
      </trkpt>
      <trkpt lat="50.19093" lon="3.72273">
        <ele>172.69</ele>
        <time>2021-08-08T04:39:21Z</time>
      </trkpt>
      <trkpt lat="50.19125" lon="3.72297">
        <ele>173.66</ele>
        <time>2021-08-08T04:39:30Z</time>
      </trkpt>
      <trkpt lat="50.19165" lon="3.72332">
        <ele>174.62</ele>
        <time>2021-08-08T04:39:41Z</time>
      </trkpt>
      <trkpt lat="50.19191" lon="3.72359">
        <ele>175.1</ele>
        <time>2021-08-08T04:39:48Z</time>
      </trkpt>
      <trkpt lat="50.19195" lon="3.72364">
        <ele>175.1</ele>
        <time>2021-08-08T04:39:49Z</time>
      </trkpt>
      <trkpt lat="50.19224" lon="3.7241">
        <ele>175.1</ele>
        <time>2021-08-08T04:39:58Z</time>
      </trkpt>
      <trkpt lat="50.19227" lon="3.72416">
        <ele>175.1</ele>
        <time>2021-08-08T04:39:59Z</time>
      </trkpt>
      <trkpt lat="50.19229" lon="3.72423">
        <ele>175.1</ele>
        <time>2021-08-08T04:40:00Z</time>
      </trkpt>
      <trkpt lat="50.19251" lon="3.7249">
        <ele>174.62</ele>
        <time>2021-08-08T04:40:09Z</time>
      </trkpt>
      <trkpt lat="50.19255" lon="3.72506">
        <ele>173.66</ele>
        <time>2021-08-08T04:40:11Z</time>
      </trkpt>
      <trkpt lat="50.19257" lon="3.72515">
        <ele>173.66</ele>
        <time>2021-08-08T04:40:12Z</time>
      </trkpt>
      <trkpt lat="50.19257" lon="3.72524">
        <ele>173.17</ele>
        <time>2021-08-08T04:40:13Z</time>
      </trkpt>
      <trkpt lat="50.19257" lon="3.72533">
        <ele>173.17</ele>
        <time>2021-08-08T04:40:14Z</time>
      </trkpt>
      <trkpt lat="50.19255" lon="3.72541">
        <ele>173.17</ele>
        <time>2021-08-08T04:40:15Z</time>
      </trkpt>
      <trkpt lat="50.19253" lon="3.72549">
        <ele>172.69</ele>
        <time>2021-08-08T04:40:16Z</time>
      </trkpt>
      <trkpt lat="50.19249" lon="3.72556">
        <ele>172.69</ele>
        <time>2021-08-08T04:40:17Z</time>
      </trkpt>
      <trkpt lat="50.19246" lon="3.72562">
        <ele>172.69</ele>
        <time>2021-08-08T04:40:18Z</time>
      </trkpt>
      <trkpt lat="50.19242" lon="3.72568">
        <ele>172.69</ele>
        <time>2021-08-08T04:40:19Z</time>
      </trkpt>
      <trkpt lat="50.19205" lon="3.72619">
        <ele>172.69</ele>
        <time>2021-08-08T04:40:28Z</time>
      </trkpt>
      <trkpt lat="50.19163" lon="3.72674">
        <ele>171.25</ele>
        <time>2021-08-08T04:40:37Z</time>
      </trkpt>
      <trkpt lat="50.19123" lon="3.72707">
        <ele>171.25</ele>
        <time>2021-08-08T04:40:45Z</time>
      </trkpt>
      <trkpt lat="50.19118" lon="3.7271">
        <ele>171.25</ele>
        <time>2021-08-08T04:40:46Z</time>
      </trkpt>
      <trkpt lat="50.19079" lon="3.72732">
        <ele>171.25</ele>
        <time>2021-08-08T04:40:54Z</time>
      </trkpt>
      <trkpt lat="50.19062" lon="3.72742">
        <ele>172.69</ele>
        <time>2021-08-08T04:40:58Z</time>
      </trkpt>
      <trkpt lat="50.19058" lon="3.72745">
        <ele>172.69</ele>
        <time>2021-08-08T04:40:59Z</time>
      </trkpt>
      <trkpt lat="50.19053" lon="3.72747">
        <ele>173.17</ele>
        <time>2021-08-08T04:41:00Z</time>
      </trkpt>
      <trkpt lat="50.19011" lon="3.72773">
        <ele>173.66</ele>
        <time>2021-08-08T04:41:10Z</time>
      </trkpt>
      <trkpt lat="50.18978" lon="3.72807">
        <ele>174.14</ele>
        <time>2021-08-08T04:41:19Z</time>
      </trkpt>
      <trkpt lat="50.18937" lon="3.72853">
        <ele>174.62</ele>
        <time>2021-08-08T04:41:30Z</time>
      </trkpt>
      <trkpt lat="50.18901" lon="3.72891">
        <ele>175.58</ele>
        <time>2021-08-08T04:41:39Z</time>
      </trkpt>
      <trkpt lat="50.18897" lon="3.72897">
        <ele>175.58</ele>
        <time>2021-08-08T04:41:40Z</time>
      </trkpt>
      <trkpt lat="50.18895" lon="3.72902">
        <ele>175.58</ele>
        <time>2021-08-08T04:41:41Z</time>
      </trkpt>
      <trkpt lat="50.18893" lon="3.72908">
        <ele>175.58</ele>
        <time>2021-08-08T04:41:42Z</time>
      </trkpt>
      <trkpt lat="50.18891" lon="3.72914">
        <ele>175.58</ele>
        <time>2021-08-08T04:41:43Z</time>
      </trkpt>
      <trkpt lat="50.18882" lon="3.72957">
        <ele>175.58</ele>
        <time>2021-08-08T04:41:50Z</time>
      </trkpt>
      <trkpt lat="50.18874" lon="3.72986">
        <ele>175.58</ele>
        <time>2021-08-08T04:41:55Z</time>
      </trkpt>
      <trkpt lat="50.1887" lon="3.72999">
        <ele>175.58</ele>
        <time>2021-08-08T04:41:57Z</time>
      </trkpt>
      <trkpt lat="50.18867" lon="3.73004">
        <ele>175.58</ele>
        <time>2021-08-08T04:41:58Z</time>
      </trkpt>
      <trkpt lat="50.18863" lon="3.73008">
        <ele>175.58</ele>
        <time>2021-08-08T04:41:59Z</time>
      </trkpt>
      <trkpt lat="50.18858" lon="3.73012">
        <ele>175.58</ele>
        <time>2021-08-08T04:42:00Z</time>
      </trkpt>
      <trkpt lat="50.18853" lon="3.73014">
        <ele>175.58</ele>
        <time>2021-08-08T04:42:01Z</time>
      </trkpt>
      <trkpt lat="50.18848" lon="3.73015">
        <ele>175.58</ele>
        <time>2021-08-08T04:42:02Z</time>
      </trkpt>
      <trkpt lat="50.18808" lon="3.73028">
        <ele>174.14</ele>
        <time>2021-08-08T04:42:10Z</time>
      </trkpt>
      <trkpt lat="50.18761" lon="3.73055">
        <ele>173.17</ele>
        <time>2021-08-08T04:42:19Z</time>
      </trkpt>
      <trkpt lat="50.18722" lon="3.73097">
        <ele>171.73</ele>
        <time>2021-08-08T04:42:27Z</time>
      </trkpt>
      <trkpt lat="50.187" lon="3.73133">
        <ele>170.77</ele>
        <time>2021-08-08T04:42:33Z</time>
      </trkpt>
      <trkpt lat="50.18697" lon="3.73138">
        <ele>169.81</ele>
        <time>2021-08-08T04:42:34Z</time>
      </trkpt>
      <trkpt lat="50.18695" lon="3.73144">
        <ele>169.81</ele>
        <time>2021-08-08T04:42:35Z</time>
      </trkpt>
      <trkpt lat="50.18692" lon="3.73152">
        <ele>169.81</ele>
        <time>2021-08-08T04:42:36Z</time>
      </trkpt>
      <trkpt lat="50.18689" lon="3.73166">
        <ele>169.81</ele>
        <time>2021-08-08T04:42:38Z</time>
      </trkpt>
      <trkpt lat="50.18687" lon="3.7317">
        <ele>168.85</ele>
        <time>2021-08-08T04:42:39Z</time>
      </trkpt>
      <trkpt lat="50.18684" lon="3.73187">
        <ele>168.85</ele>
        <time>2021-08-08T04:42:45Z</time>
      </trkpt>
      <trkpt lat="50.1868" lon="3.73201">
        <ele>168.85</ele>
        <time>2021-08-08T04:42:53Z</time>
      </trkpt>
      <trkpt lat="50.18673" lon="3.7322">
        <ele>169.81</ele>
        <time>2021-08-08T04:43:02Z</time>
      </trkpt>
      <trkpt lat="50.18662" lon="3.73236">
        <ele>169.81</ele>
        <time>2021-08-08T04:43:09Z</time>
      </trkpt>
      <trkpt lat="50.18654" lon="3.73249">
        <ele>170.29</ele>
        <time>2021-08-08T04:43:16Z</time>
      </trkpt>
      <trkpt lat="50.18649" lon="3.73259">
        <ele>170.77</ele>
        <time>2021-08-08T04:43:23Z</time>
      </trkpt>
      <trkpt lat="50.18645" lon="3.73265">
        <ele>171.25</ele>
        <time>2021-08-08T04:43:27Z</time>
      </trkpt>
      <trkpt lat="50.18636" lon="3.73272">
        <ele>171.25</ele>
        <time>2021-08-08T04:43:33Z</time>
      </trkpt>
      <trkpt lat="50.1863" lon="3.7328">
        <ele>171.73</ele>
        <time>2021-08-08T04:43:39Z</time>
      </trkpt>
      <trkpt lat="50.18629" lon="3.73281">
        <ele>171.73</ele>
        <time>2021-08-08T04:43:40Z</time>
      </trkpt>
      <trkpt lat="50.18624" lon="3.73289">
        <ele>172.21</ele>
        <time>2021-08-08T04:43:46Z</time>
      </trkpt>
      <trkpt lat="50.18617" lon="3.733">
        <ele>172.69</ele>
        <time>2021-08-08T04:43:54Z</time>
      </trkpt>
      <trkpt lat="50.18608" lon="3.73311">
        <ele>173.17</ele>
        <time>2021-08-08T04:44:01Z</time>
      </trkpt>
      <trkpt lat="50.18598" lon="3.73326">
        <ele>173.66</ele>
        <time>2021-08-08T04:44:09Z</time>
      </trkpt>
      <trkpt lat="50.18587" lon="3.73344">
        <ele>174.14</ele>
        <time>2021-08-08T04:44:17Z</time>
      </trkpt>
      <trkpt lat="50.18576" lon="3.73355">
        <ele>174.62</ele>
        <time>2021-08-08T04:44:24Z</time>
      </trkpt>
      <trkpt lat="50.18566" lon="3.73368">
        <ele>174.62</ele>
        <time>2021-08-08T04:44:32Z</time>
      </trkpt>
      <trkpt lat="50.18554" lon="3.73387">
        <ele>175.58</ele>
        <time>2021-08-08T04:44:40Z</time>
      </trkpt>
      <trkpt lat="50.18551" lon="3.73391">
        <ele>175.58</ele>
        <time>2021-08-08T04:44:42Z</time>
      </trkpt>
      <trkpt lat="50.18542" lon="3.73405">
        <ele>175.58</ele>
        <time>2021-08-08T04:44:49Z</time>
      </trkpt>
      <trkpt lat="50.18534" lon="3.73414">
        <ele>176.06</ele>
        <time>2021-08-08T04:44:54Z</time>
      </trkpt>
      <trkpt lat="50.18522" lon="3.7343">
        <ele>176.54</ele>
        <time>2021-08-08T04:45:01Z</time>
      </trkpt>
      <trkpt lat="50.18508" lon="3.73444">
        <ele>177.02</ele>
        <time>2021-08-08T04:45:07Z</time>
      </trkpt>
      <trkpt lat="50.18497" lon="3.73458">
        <ele>177.02</ele>
        <time>2021-08-08T04:45:14Z</time>
      </trkpt>
      <trkpt lat="50.1849" lon="3.73464">
        <ele>177.02</ele>
        <time>2021-08-08T04:45:17Z</time>
      </trkpt>
      <trkpt lat="50.18485" lon="3.73465">
        <ele>177.02</ele>
        <time>2021-08-08T04:45:19Z</time>
      </trkpt>
      <trkpt lat="50.18474" lon="3.73476">
        <ele>177.02</ele>
        <time>2021-08-08T04:45:25Z</time>
      </trkpt>
      <trkpt lat="50.18472" lon="3.73477">
        <ele>177.02</ele>
        <time>2021-08-08T04:45:26Z</time>
      </trkpt>
      <trkpt lat="50.1847" lon="3.73479">
        <ele>177.02</ele>
        <time>2021-08-08T04:45:27Z</time>
      </trkpt>
      <trkpt lat="50.18468" lon="3.73481">
        <ele>177.02</ele>
        <time>2021-08-08T04:45:28Z</time>
      </trkpt>
      <trkpt lat="50.18466" lon="3.73483">
        <ele>177.02</ele>
        <time>2021-08-08T04:45:29Z</time>
      </trkpt>
      <trkpt lat="50.18464" lon="3.73484">
        <ele>177.02</ele>
        <time>2021-08-08T04:45:30Z</time>
      </trkpt>
      <trkpt lat="50.18458" lon="3.73492">
        <ele>177.02</ele>
        <time>2021-08-08T04:45:35Z</time>
      </trkpt>
      <trkpt lat="50.18456" lon="3.73494">
        <ele>177.02</ele>
        <time>2021-08-08T04:45:36Z</time>
      </trkpt>
      <trkpt lat="50.18446" lon="3.73508">
        <ele>177.5</ele>
        <time>2021-08-08T04:45:43Z</time>
      </trkpt>
      <trkpt lat="50.18443" lon="3.73515">
        <ele>177.5</ele>
        <time>2021-08-08T04:45:51Z</time>
      </trkpt>
      <trkpt lat="50.18435" lon="3.73523">
        <ele>177.98</ele>
        <time>2021-08-08T04:45:56Z</time>
      </trkpt>
      <trkpt lat="50.18424" lon="3.73532">
        <ele>177.98</ele>
        <time>2021-08-08T04:46:03Z</time>
      </trkpt>
      <trkpt lat="50.18416" lon="3.73541">
        <ele>177.98</ele>
        <time>2021-08-08T04:46:08Z</time>
      </trkpt>
      <trkpt lat="50.18415" lon="3.73543">
        <ele>177.98</ele>
        <time>2021-08-08T04:46:09Z</time>
      </trkpt>
      <trkpt lat="50.18411" lon="3.73546">
        <ele>177.98</ele>
        <time>2021-08-08T04:46:12Z</time>
      </trkpt>
      <trkpt lat="50.1841" lon="3.73546">
        <ele>177.98</ele>
        <time>2021-08-08T04:46:13Z</time>
      </trkpt>
      <trkpt lat="50.18402" lon="3.73553">
        <ele>177.98</ele>
        <time>2021-08-08T04:46:19Z</time>
      </trkpt>
      <trkpt lat="50.18392" lon="3.73567">
        <ele>177.98</ele>
        <time>2021-08-08T04:46:26Z</time>
      </trkpt>
      <trkpt lat="50.18387" lon="3.73578">
        <ele>177.98</ele>
        <time>2021-08-08T04:46:32Z</time>
      </trkpt>
      <trkpt lat="50.1838" lon="3.73589">
        <ele>178.46</ele>
        <time>2021-08-08T04:46:38Z</time>
      </trkpt>
      <trkpt lat="50.1837" lon="3.73602">
        <ele>176.54</ele>
        <time>2021-08-08T04:46:44Z</time>
      </trkpt>
      <trkpt lat="50.18357" lon="3.73616">
        <ele>176.54</ele>
        <time>2021-08-08T04:46:51Z</time>
      </trkpt>
      <trkpt lat="50.18351" lon="3.73623">
        <ele>176.06</ele>
        <time>2021-08-08T04:46:55Z</time>
      </trkpt>
      <trkpt lat="50.1835" lon="3.73626">
        <ele>176.06</ele>
        <time>2021-08-08T04:46:56Z</time>
      </trkpt>
      <trkpt lat="50.18348" lon="3.73628">
        <ele>176.06</ele>
        <time>2021-08-08T04:46:57Z</time>
      </trkpt>
      <trkpt lat="50.18347" lon="3.7363">
        <ele>176.06</ele>
        <time>2021-08-08T04:46:58Z</time>
      </trkpt>
      <trkpt lat="50.1834" lon="3.73638">
        <ele>176.06</ele>
        <time>2021-08-08T04:47:04Z</time>
      </trkpt>
      <trkpt lat="50.18324" lon="3.73657">
        <ele>175.1</ele>
        <time>2021-08-08T04:47:11Z</time>
      </trkpt>
      <trkpt lat="50.18309" lon="3.73674">
        <ele>173.17</ele>
        <time>2021-08-08T04:47:17Z</time>
      </trkpt>
      <trkpt lat="50.18298" lon="3.73684">
        <ele>172.69</ele>
        <time>2021-08-08T04:47:22Z</time>
      </trkpt>
      <trkpt lat="50.18297" lon="3.73686">
        <ele>172.69</ele>
        <time>2021-08-08T04:47:23Z</time>
      </trkpt>
      <trkpt lat="50.18295" lon="3.73687">
        <ele>173.17</ele>
        <time>2021-08-08T04:47:24Z</time>
      </trkpt>
      <trkpt lat="50.18294" lon="3.73689">
        <ele>172.69</ele>
        <time>2021-08-08T04:47:25Z</time>
      </trkpt>
      <trkpt lat="50.18292" lon="3.73691">
        <ele>172.69</ele>
        <time>2021-08-08T04:47:26Z</time>
      </trkpt>
      <trkpt lat="50.18291" lon="3.73693">
        <ele>172.69</ele>
        <time>2021-08-08T04:47:27Z</time>
      </trkpt>
      <trkpt lat="50.18289" lon="3.73696">
        <ele>172.69</ele>
        <time>2021-08-08T04:47:28Z</time>
      </trkpt>
      <trkpt lat="50.18288" lon="3.73699">
        <ele>172.69</ele>
        <time>2021-08-08T04:47:29Z</time>
      </trkpt>
      <trkpt lat="50.18286" lon="3.73702">
        <ele>172.21</ele>
        <time>2021-08-08T04:47:30Z</time>
      </trkpt>
      <trkpt lat="50.18284" lon="3.73704">
        <ele>172.21</ele>
        <time>2021-08-08T04:47:31Z</time>
      </trkpt>
      <trkpt lat="50.18283" lon="3.73706">
        <ele>172.21</ele>
        <time>2021-08-08T04:47:32Z</time>
      </trkpt>
      <trkpt lat="50.18276" lon="3.7372">
        <ele>171.73</ele>
        <time>2021-08-08T04:47:39Z</time>
      </trkpt>
      <trkpt lat="50.18274" lon="3.73722">
        <ele>171.73</ele>
        <time>2021-08-08T04:47:40Z</time>
      </trkpt>
      <trkpt lat="50.18272" lon="3.73725">
        <ele>171.73</ele>
        <time>2021-08-08T04:47:41Z</time>
      </trkpt>
      <trkpt lat="50.1827" lon="3.73728">
        <ele>171.25</ele>
        <time>2021-08-08T04:47:42Z</time>
      </trkpt>
      <trkpt lat="50.18267" lon="3.73731">
        <ele>171.25</ele>
        <time>2021-08-08T04:47:43Z</time>
      </trkpt>
      <trkpt lat="50.18254" lon="3.73746">
        <ele>170.77</ele>
        <time>2021-08-08T04:47:49Z</time>
      </trkpt>
      <trkpt lat="50.18242" lon="3.73763">
        <ele>172.21</ele>
        <time>2021-08-08T04:47:56Z</time>
      </trkpt>
      <trkpt lat="50.18228" lon="3.73779">
        <ele>173.17</ele>
        <time>2021-08-08T04:48:03Z</time>
      </trkpt>
      <trkpt lat="50.18219" lon="3.73795">
        <ele>173.66</ele>
        <time>2021-08-08T04:48:10Z</time>
      </trkpt>
      <trkpt lat="50.18202" lon="3.73814">
        <ele>175.1</ele>
        <time>2021-08-08T04:48:18Z</time>
      </trkpt>
      <trkpt lat="50.18184" lon="3.73837">
        <ele>175.58</ele>
        <time>2021-08-08T04:48:27Z</time>
      </trkpt>
      <trkpt lat="50.18172" lon="3.73854">
        <ele>176.06</ele>
        <time>2021-08-08T04:48:34Z</time>
      </trkpt>
      <trkpt lat="50.18168" lon="3.73879">
        <ele>176.06</ele>
        <time>2021-08-08T04:48:41Z</time>
      </trkpt>
      <trkpt lat="50.1818" lon="3.73908">
        <ele>176.54</ele>
        <time>2021-08-08T04:48:50Z</time>
      </trkpt>
      <trkpt lat="50.18196" lon="3.73938">
        <ele>176.54</ele>
        <time>2021-08-08T04:48:58Z</time>
      </trkpt>
      <trkpt lat="50.18207" lon="3.73961">
        <ele>176.54</ele>
        <time>2021-08-08T04:49:05Z</time>
      </trkpt>
      <trkpt lat="50.18211" lon="3.73974">
        <ele>176.54</ele>
        <time>2021-08-08T04:49:10Z</time>
      </trkpt>
      <trkpt lat="50.18211" lon="3.73978">
        <ele>176.54</ele>
        <time>2021-08-08T04:49:12Z</time>
      </trkpt>
      <trkpt lat="50.18211" lon="3.73981">
        <ele>176.54</ele>
        <time>2021-08-08T04:49:13Z</time>
      </trkpt>
      <trkpt lat="50.1821" lon="3.73982">
        <ele>176.54</ele>
        <time>2021-08-08T04:49:14Z</time>
      </trkpt>
      <trkpt lat="50.1821" lon="3.73985">
        <ele>175.1</ele>
        <time>2021-08-08T04:49:15Z</time>
      </trkpt>
      <trkpt lat="50.18209" lon="3.73989">
        <ele>175.1</ele>
        <time>2021-08-08T04:49:16Z</time>
      </trkpt>
      <trkpt lat="50.18208" lon="3.73993">
        <ele>175.1</ele>
        <time>2021-08-08T04:49:17Z</time>
      </trkpt>
      <trkpt lat="50.18206" lon="3.73998">
        <ele>175.1</ele>
        <time>2021-08-08T04:49:18Z</time>
      </trkpt>
      <trkpt lat="50.18198" lon="3.7403">
        <ele>174.62</ele>
        <time>2021-08-08T04:49:25Z</time>
      </trkpt>
      <trkpt lat="50.18194" lon="3.74057">
        <ele>173.66</ele>
        <time>2021-08-08T04:49:31Z</time>
      </trkpt>
      <trkpt lat="50.18191" lon="3.74082">
        <ele>173.17</ele>
        <time>2021-08-08T04:49:37Z</time>
      </trkpt>
      <trkpt lat="50.18186" lon="3.74109">
        <ele>169.81</ele>
        <time>2021-08-08T04:49:42Z</time>
      </trkpt>
      <trkpt lat="50.18185" lon="3.74116">
        <ele>169.33</ele>
        <time>2021-08-08T04:49:43Z</time>
      </trkpt>
      <trkpt lat="50.18184" lon="3.74124">
        <ele>169.33</ele>
        <time>2021-08-08T04:49:44Z</time>
      </trkpt>
      <trkpt lat="50.18184" lon="3.74132">
        <ele>168.85</ele>
        <time>2021-08-08T04:49:45Z</time>
      </trkpt>
      <trkpt lat="50.18183" lon="3.74141">
        <ele>168.85</ele>
        <time>2021-08-08T04:49:46Z</time>
      </trkpt>
      <trkpt lat="50.18183" lon="3.74148">
        <ele>168.85</ele>
        <time>2021-08-08T04:49:47Z</time>
      </trkpt>
      <trkpt lat="50.18178" lon="3.74186">
        <ele>165.96</ele>
        <time>2021-08-08T04:49:52Z</time>
      </trkpt>
      <trkpt lat="50.18178" lon="3.74194">
        <ele>165.48</ele>
        <time>2021-08-08T04:49:53Z</time>
      </trkpt>
      <trkpt lat="50.18179" lon="3.74201">
        <ele>165.48</ele>
        <time>2021-08-08T04:49:54Z</time>
      </trkpt>
      <trkpt lat="50.18179" lon="3.74207">
        <ele>165.48</ele>
        <time>2021-08-08T04:49:55Z</time>
      </trkpt>
      <trkpt lat="50.18179" lon="3.74212">
        <ele>165.48</ele>
        <time>2021-08-08T04:49:56Z</time>
      </trkpt>
      <trkpt lat="50.1818" lon="3.74222">
        <ele>165.48</ele>
        <time>2021-08-08T04:50:01Z</time>
      </trkpt>
      <trkpt lat="50.1818" lon="3.7423">
        <ele>165.48</ele>
        <time>2021-08-08T04:50:11Z</time>
      </trkpt>
      <trkpt lat="50.18179" lon="3.74238">
        <ele>165.48</ele>
        <time>2021-08-08T04:50:18Z</time>
      </trkpt>
      <trkpt lat="50.18178" lon="3.7424">
        <ele>165.48</ele>
        <time>2021-08-08T04:50:19Z</time>
      </trkpt>
      <trkpt lat="50.18177" lon="3.74243">
        <ele>165.48</ele>
        <time>2021-08-08T04:50:20Z</time>
      </trkpt>
      <trkpt lat="50.18176" lon="3.74246">
        <ele>165.48</ele>
        <time>2021-08-08T04:50:21Z</time>
      </trkpt>
      <trkpt lat="50.18176" lon="3.74249">
        <ele>165.48</ele>
        <time>2021-08-08T04:50:22Z</time>
      </trkpt>
      <trkpt lat="50.18176" lon="3.74252">
        <ele>165.48</ele>
        <time>2021-08-08T04:50:23Z</time>
      </trkpt>
      <trkpt lat="50.18176" lon="3.74255">
        <ele>165.48</ele>
        <time>2021-08-08T04:50:24Z</time>
      </trkpt>
      <trkpt lat="50.18176" lon="3.74259">
        <ele>165.48</ele>
        <time>2021-08-08T04:50:25Z</time>
      </trkpt>
      <trkpt lat="50.18175" lon="3.74264">
        <ele>165.48</ele>
        <time>2021-08-08T04:50:26Z</time>
      </trkpt>
      <trkpt lat="50.18174" lon="3.74267">
        <ele>165.48</ele>
        <time>2021-08-08T04:50:27Z</time>
      </trkpt>
      <trkpt lat="50.18169" lon="3.74296">
        <ele>165.48</ele>
        <time>2021-08-08T04:50:34Z</time>
      </trkpt>
      <trkpt lat="50.1817" lon="3.74326">
        <ele>165.48</ele>
        <time>2021-08-08T04:50:41Z</time>
      </trkpt>
      <trkpt lat="50.18169" lon="3.74334">
        <ele>165.48</ele>
        <time>2021-08-08T04:50:43Z</time>
      </trkpt>
      <trkpt lat="50.18169" lon="3.74338">
        <ele>165.48</ele>
        <time>2021-08-08T04:50:44Z</time>
      </trkpt>
      <trkpt lat="50.18169" lon="3.74343">
        <ele>165.48</ele>
        <time>2021-08-08T04:50:45Z</time>
      </trkpt>
      <trkpt lat="50.18167" lon="3.74364">
        <ele>165.48</ele>
        <time>2021-08-08T04:50:50Z</time>
      </trkpt>
      <trkpt lat="50.18161" lon="3.74395">
        <ele>165.48</ele>
        <time>2021-08-08T04:50:57Z</time>
      </trkpt>
      <trkpt lat="50.18157" lon="3.74414">
        <ele>165.48</ele>
        <time>2021-08-08T04:51:04Z</time>
      </trkpt>
      <trkpt lat="50.18153" lon="3.74433">
        <ele>165</ele>
        <time>2021-08-08T04:51:10Z</time>
      </trkpt>
      <trkpt lat="50.18151" lon="3.74452">
        <ele>165</ele>
        <time>2021-08-08T04:51:17Z</time>
      </trkpt>
      <trkpt lat="50.18152" lon="3.74455">
        <ele>165</ele>
        <time>2021-08-08T04:51:28Z</time>
      </trkpt>
      <trkpt lat="50.18153" lon="3.74455">
        <ele>165</ele>
        <time>2021-08-08T04:51:39Z</time>
      </trkpt>
      <trkpt lat="50.18153" lon="3.74466">
        <ele>165.48</ele>
        <time>2021-08-08T04:51:46Z</time>
      </trkpt>
      <trkpt lat="50.18153" lon="3.7447">
        <ele>165.48</ele>
        <time>2021-08-08T04:51:48Z</time>
      </trkpt>
      <trkpt lat="50.18152" lon="3.74473">
        <ele>165.48</ele>
        <time>2021-08-08T04:51:49Z</time>
      </trkpt>
      <trkpt lat="50.18152" lon="3.74478">
        <ele>165.48</ele>
        <time>2021-08-08T04:51:50Z</time>
      </trkpt>
      <trkpt lat="50.18152" lon="3.74481">
        <ele>165.48</ele>
        <time>2021-08-08T04:51:51Z</time>
      </trkpt>
      <trkpt lat="50.18151" lon="3.74484">
        <ele>165.48</ele>
        <time>2021-08-08T04:51:52Z</time>
      </trkpt>
      <trkpt lat="50.1815" lon="3.74488">
        <ele>165.48</ele>
        <time>2021-08-08T04:51:53Z</time>
      </trkpt>
      <trkpt lat="50.18148" lon="3.74512">
        <ele>165</ele>
        <time>2021-08-08T04:51:59Z</time>
      </trkpt>
      <trkpt lat="50.18145" lon="3.74541">
        <ele>165</ele>
        <time>2021-08-08T04:52:07Z</time>
      </trkpt>
      <trkpt lat="50.18141" lon="3.74566">
        <ele>164.52</ele>
        <time>2021-08-08T04:52:15Z</time>
      </trkpt>
      <trkpt lat="50.18139" lon="3.74595">
        <ele>164.04</ele>
        <time>2021-08-08T04:52:22Z</time>
      </trkpt>
      <trkpt lat="50.18136" lon="3.74623">
        <ele>163.08</ele>
        <time>2021-08-08T04:52:28Z</time>
      </trkpt>
      <trkpt lat="50.1813" lon="3.74651">
        <ele>163.08</ele>
        <time>2021-08-08T04:52:34Z</time>
      </trkpt>
      <trkpt lat="50.18125" lon="3.74675">
        <ele>163.08</ele>
        <time>2021-08-08T04:52:41Z</time>
      </trkpt>
      <trkpt lat="50.18124" lon="3.74686">
        <ele>163.08</ele>
        <time>2021-08-08T04:52:44Z</time>
      </trkpt>
      <trkpt lat="50.1812" lon="3.74712">
        <ele>164.52</ele>
        <time>2021-08-08T04:52:51Z</time>
      </trkpt>
      <trkpt lat="50.18117" lon="3.74747">
        <ele>164.52</ele>
        <time>2021-08-08T04:52:59Z</time>
      </trkpt>
      <trkpt lat="50.18117" lon="3.74759">
        <ele>165</ele>
        <time>2021-08-08T04:53:03Z</time>
      </trkpt>
      <trkpt lat="50.18113" lon="3.74785">
        <ele>165</ele>
        <time>2021-08-08T04:53:11Z</time>
      </trkpt>
      <trkpt lat="50.18112" lon="3.7479">
        <ele>165</ele>
        <time>2021-08-08T04:53:13Z</time>
      </trkpt>
      <trkpt lat="50.1811" lon="3.74792">
        <ele>165</ele>
        <time>2021-08-08T04:53:14Z</time>
      </trkpt>
      <trkpt lat="50.18103" lon="3.74803">
        <ele>165</ele>
        <time>2021-08-08T04:53:21Z</time>
      </trkpt>
      <trkpt lat="50.18102" lon="3.74836">
        <ele>165</ele>
        <time>2021-08-08T04:53:27Z</time>
      </trkpt>
      <trkpt lat="50.18101" lon="3.74862">
        <ele>165.48</ele>
        <time>2021-08-08T04:53:34Z</time>
      </trkpt>
      <trkpt lat="50.18101" lon="3.74865">
        <ele>165.48</ele>
        <time>2021-08-08T04:53:35Z</time>
      </trkpt>
      <trkpt lat="50.18098" lon="3.7488">
        <ele>165.96</ele>
        <time>2021-08-08T04:53:41Z</time>
      </trkpt>
      <trkpt lat="50.18099" lon="3.74883">
        <ele>165.96</ele>
        <time>2021-08-08T04:53:42Z</time>
      </trkpt>
      <trkpt lat="50.181" lon="3.74892">
        <ele>165.96</ele>
        <time>2021-08-08T04:53:48Z</time>
      </trkpt>
      <trkpt lat="50.18101" lon="3.74901">
        <ele>165.96</ele>
        <time>2021-08-08T04:53:54Z</time>
      </trkpt>
      <trkpt lat="50.18098" lon="3.74912">
        <ele>167.41</ele>
        <time>2021-08-08T04:54:02Z</time>
      </trkpt>
      <trkpt lat="50.18098" lon="3.74925">
        <ele>167.89</ele>
        <time>2021-08-08T04:54:11Z</time>
      </trkpt>
      <trkpt lat="50.18098" lon="3.74932">
        <ele>167.89</ele>
        <time>2021-08-08T04:54:15Z</time>
      </trkpt>
      <trkpt lat="50.18098" lon="3.74934">
        <ele>167.89</ele>
        <time>2021-08-08T04:54:16Z</time>
      </trkpt>
      <trkpt lat="50.18097" lon="3.74939">
        <ele>167.89</ele>
        <time>2021-08-08T04:54:18Z</time>
      </trkpt>
      <trkpt lat="50.18096" lon="3.74943">
        <ele>167.89</ele>
        <time>2021-08-08T04:54:20Z</time>
      </trkpt>
      <trkpt lat="50.18096" lon="3.74956">
        <ele>167.89</ele>
        <time>2021-08-08T04:54:26Z</time>
      </trkpt>
      <trkpt lat="50.18093" lon="3.74968">
        <ele>167.89</ele>
        <time>2021-08-08T04:54:33Z</time>
      </trkpt>
      <trkpt lat="50.18093" lon="3.7497">
        <ele>168.37</ele>
        <time>2021-08-08T04:54:34Z</time>
      </trkpt>
      <trkpt lat="50.18092" lon="3.74972">
        <ele>168.37</ele>
        <time>2021-08-08T04:54:35Z</time>
      </trkpt>
      <trkpt lat="50.1809" lon="3.74978">
        <ele>168.37</ele>
        <time>2021-08-08T04:54:40Z</time>
      </trkpt>
      <trkpt lat="50.18087" lon="3.74996">
        <ele>169.33</ele>
        <time>2021-08-08T04:54:48Z</time>
      </trkpt>
      <trkpt lat="50.18085" lon="3.75012">
        <ele>169.81</ele>
        <time>2021-08-08T04:54:56Z</time>
      </trkpt>
      <trkpt lat="50.18084" lon="3.75031">
        <ele>170.29</ele>
        <time>2021-08-08T04:55:04Z</time>
      </trkpt>
      <trkpt lat="50.18084" lon="3.75037">
        <ele>170.77</ele>
        <time>2021-08-08T04:55:06Z</time>
      </trkpt>
      <trkpt lat="50.18084" lon="3.7504">
        <ele>170.77</ele>
        <time>2021-08-08T04:55:07Z</time>
      </trkpt>
      <trkpt lat="50.18084" lon="3.75044">
        <ele>170.77</ele>
        <time>2021-08-08T04:55:08Z</time>
      </trkpt>
      <trkpt lat="50.18081" lon="3.75061">
        <ele>170.77</ele>
        <time>2021-08-08T04:55:14Z</time>
      </trkpt>
      <trkpt lat="50.18081" lon="3.75064">
        <ele>170.77</ele>
        <time>2021-08-08T04:55:15Z</time>
      </trkpt>
      <trkpt lat="50.18081" lon="3.75068">
        <ele>170.77</ele>
        <time>2021-08-08T04:55:16Z</time>
      </trkpt>
      <trkpt lat="50.1808" lon="3.75072">
        <ele>170.77</ele>
        <time>2021-08-08T04:55:17Z</time>
      </trkpt>
      <trkpt lat="50.1808" lon="3.75074">
        <ele>171.25</ele>
        <time>2021-08-08T04:55:18Z</time>
      </trkpt>
      <trkpt lat="50.18075" lon="3.751">
        <ele>171.25</ele>
        <time>2021-08-08T04:55:27Z</time>
      </trkpt>
      <trkpt lat="50.18074" lon="3.75111">
        <ele>171.25</ele>
        <time>2021-08-08T04:55:30Z</time>
      </trkpt>
      <trkpt lat="50.18073" lon="3.75115">
        <ele>171.25</ele>
        <time>2021-08-08T04:55:31Z</time>
      </trkpt>
      <trkpt lat="50.18073" lon="3.75119">
        <ele>171.25</ele>
        <time>2021-08-08T04:55:32Z</time>
      </trkpt>
      <trkpt lat="50.18072" lon="3.75125">
        <ele>170.29</ele>
        <time>2021-08-08T04:55:33Z</time>
      </trkpt>
      <trkpt lat="50.18071" lon="3.75131">
        <ele>169.81</ele>
        <time>2021-08-08T04:55:34Z</time>
      </trkpt>
      <trkpt lat="50.1807" lon="3.75138">
        <ele>169.33</ele>
        <time>2021-08-08T04:55:35Z</time>
      </trkpt>
      <trkpt lat="50.18069" lon="3.75163">
        <ele>167.89</ele>
        <time>2021-08-08T04:55:40Z</time>
      </trkpt>
      <trkpt lat="50.18067" lon="3.75197">
        <ele>164.04</ele>
        <time>2021-08-08T04:55:45Z</time>
      </trkpt>
      <trkpt lat="50.18066" lon="3.75221">
        <ele>165.96</ele>
        <time>2021-08-08T04:55:49Z</time>
      </trkpt>
      <trkpt lat="50.18065" lon="3.75233">
        <ele>166.93</ele>
        <time>2021-08-08T04:55:53Z</time>
      </trkpt>
      <trkpt lat="50.18065" lon="3.75236">
        <ele>166.93</ele>
        <time>2021-08-08T04:55:54Z</time>
      </trkpt>
      <trkpt lat="50.18059" lon="3.75266">
        <ele>166.93</ele>
        <time>2021-08-08T04:56:02Z</time>
      </trkpt>
      <trkpt lat="50.18057" lon="3.75274">
        <ele>166.93</ele>
        <time>2021-08-08T04:56:05Z</time>
      </trkpt>
      <trkpt lat="50.18057" lon="3.75277">
        <ele>167.41</ele>
        <time>2021-08-08T04:56:06Z</time>
      </trkpt>
      <trkpt lat="50.18056" lon="3.7528">
        <ele>167.41</ele>
        <time>2021-08-08T04:56:07Z</time>
      </trkpt>
      <trkpt lat="50.18056" lon="3.75282">
        <ele>167.41</ele>
        <time>2021-08-08T04:56:08Z</time>
      </trkpt>
      <trkpt lat="50.18056" lon="3.75285">
        <ele>167.41</ele>
        <time>2021-08-08T04:56:09Z</time>
      </trkpt>
      <trkpt lat="50.18055" lon="3.75288">
        <ele>167.41</ele>
        <time>2021-08-08T04:56:10Z</time>
      </trkpt>
      <trkpt lat="50.18054" lon="3.75303">
        <ele>167.89</ele>
        <time>2021-08-08T04:56:17Z</time>
      </trkpt>
      <trkpt lat="50.18051" lon="3.75312">
        <ele>168.37</ele>
        <time>2021-08-08T04:56:23Z</time>
      </trkpt>
      <trkpt lat="50.18051" lon="3.75324">
        <ele>168.85</ele>
        <time>2021-08-08T04:56:29Z</time>
      </trkpt>
      <trkpt lat="50.18048" lon="3.75343">
        <ele>169.81</ele>
        <time>2021-08-08T04:56:37Z</time>
      </trkpt>
      <trkpt lat="50.18049" lon="3.75346">
        <ele>169.81</ele>
        <time>2021-08-08T04:56:38Z</time>
      </trkpt>
      <trkpt lat="50.18047" lon="3.75363">
        <ele>169.81</ele>
        <time>2021-08-08T04:56:46Z</time>
      </trkpt>
      <trkpt lat="50.18046" lon="3.75379">
        <ele>169.81</ele>
        <time>2021-08-08T04:56:53Z</time>
      </trkpt>
      <trkpt lat="50.18046" lon="3.75397">
        <ele>169.81</ele>
        <time>2021-08-08T04:57:00Z</time>
      </trkpt>
      <trkpt lat="50.18044" lon="3.75415">
        <ele>170.29</ele>
        <time>2021-08-08T04:57:09Z</time>
      </trkpt>
      <trkpt lat="50.18041" lon="3.75429">
        <ele>170.29</ele>
        <time>2021-08-08T04:57:16Z</time>
      </trkpt>
      <trkpt lat="50.1804" lon="3.75431">
        <ele>170.29</ele>
        <time>2021-08-08T04:57:17Z</time>
      </trkpt>
      <trkpt lat="50.1804" lon="3.75434">
        <ele>170.29</ele>
        <time>2021-08-08T04:57:18Z</time>
      </trkpt>
      <trkpt lat="50.18037" lon="3.7545">
        <ele>170.29</ele>
        <time>2021-08-08T04:57:26Z</time>
      </trkpt>
      <trkpt lat="50.18036" lon="3.75461">
        <ele>170.29</ele>
        <time>2021-08-08T04:57:30Z</time>
      </trkpt>
      <trkpt lat="50.18035" lon="3.75463">
        <ele>170.29</ele>
        <time>2021-08-08T04:57:31Z</time>
      </trkpt>
      <trkpt lat="50.18035" lon="3.75466">
        <ele>170.29</ele>
        <time>2021-08-08T04:57:32Z</time>
      </trkpt>
      <trkpt lat="50.18034" lon="3.75468">
        <ele>170.29</ele>
        <time>2021-08-08T04:57:33Z</time>
      </trkpt>
      <trkpt lat="50.18033" lon="3.75471">
        <ele>170.29</ele>
        <time>2021-08-08T04:57:34Z</time>
      </trkpt>
      <trkpt lat="50.18033" lon="3.75473">
        <ele>170.29</ele>
        <time>2021-08-08T04:57:35Z</time>
      </trkpt>
      <trkpt lat="50.18032" lon="3.75477">
        <ele>170.29</ele>
        <time>2021-08-08T04:57:36Z</time>
      </trkpt>
      <trkpt lat="50.18032" lon="3.75482">
        <ele>170.29</ele>
        <time>2021-08-08T04:57:37Z</time>
      </trkpt>
      <trkpt lat="50.18029" lon="3.75502">
        <ele>170.29</ele>
        <time>2021-08-08T04:57:42Z</time>
      </trkpt>
      <trkpt lat="50.18027" lon="3.75505">
        <ele>170.77</ele>
        <time>2021-08-08T04:57:43Z</time>
      </trkpt>
      <trkpt lat="50.1802" lon="3.75515">
        <ele>170.77</ele>
        <time>2021-08-08T04:57:48Z</time>
      </trkpt>
      <trkpt lat="50.18011" lon="3.75518">
        <ele>170.77</ele>
        <time>2021-08-08T04:57:55Z</time>
      </trkpt>
      <trkpt lat="50.1801" lon="3.75521">
        <ele>170.77</ele>
        <time>2021-08-08T04:57:57Z</time>
      </trkpt>
      <trkpt lat="50.1801" lon="3.75524">
        <ele>170.77</ele>
        <time>2021-08-08T04:57:58Z</time>
      </trkpt>
      <trkpt lat="50.18011" lon="3.75526">
        <ele>170.77</ele>
        <time>2021-08-08T04:57:59Z</time>
      </trkpt>
      <trkpt lat="50.18012" lon="3.75528">
        <ele>170.77</ele>
        <time>2021-08-08T04:58:00Z</time>
      </trkpt>
      <trkpt lat="50.18011" lon="3.75531">
        <ele>170.77</ele>
        <time>2021-08-08T04:58:01Z</time>
      </trkpt>
      <trkpt lat="50.18011" lon="3.75533">
        <ele>170.77</ele>
        <time>2021-08-08T04:58:02Z</time>
      </trkpt>
      <trkpt lat="50.18011" lon="3.75536">
        <ele>170.77</ele>
        <time>2021-08-08T04:58:03Z</time>
      </trkpt>
      <trkpt lat="50.18011" lon="3.75538">
        <ele>170.77</ele>
        <time>2021-08-08T04:58:04Z</time>
      </trkpt>
      <trkpt lat="50.18011" lon="3.7554">
        <ele>170.77</ele>
        <time>2021-08-08T04:58:05Z</time>
      </trkpt>
      <trkpt lat="50.18012" lon="3.75542">
        <ele>170.77</ele>
        <time>2021-08-08T04:58:06Z</time>
      </trkpt>
      <trkpt lat="50.18013" lon="3.75543">
        <ele>170.77</ele>
        <time>2021-08-08T04:58:07Z</time>
      </trkpt>
      <trkpt lat="50.18015" lon="3.75546">
        <ele>170.77</ele>
        <time>2021-08-08T04:58:13Z</time>
      </trkpt>
      <trkpt lat="50.18014" lon="3.75543">
        <ele>171.25</ele>
        <time>2021-08-08T04:58:30Z</time>
      </trkpt>
      <trkpt lat="50.18014" lon="3.75549">
        <ele>171.25</ele>
        <time>2021-08-08T04:58:35Z</time>
      </trkpt>
      <trkpt lat="50.18014" lon="3.7555">
        <ele>171.25</ele>
        <time>2021-08-08T04:58:36Z</time>
      </trkpt>
      <trkpt lat="50.18013" lon="3.75552">
        <ele>171.25</ele>
        <time>2021-08-08T04:58:37Z</time>
      </trkpt>
      <trkpt lat="50.18011" lon="3.75563">
        <ele>171.25</ele>
        <time>2021-08-08T04:58:44Z</time>
      </trkpt>
      <trkpt lat="50.18011" lon="3.75565">
        <ele>171.25</ele>
        <time>2021-08-08T04:58:50Z</time>
      </trkpt>
      <trkpt lat="50.1801" lon="3.75567">
        <ele>171.25</ele>
        <time>2021-08-08T04:58:56Z</time>
      </trkpt>
      <trkpt lat="50.18009" lon="3.75567">
        <ele>171.25</ele>
        <time>2021-08-08T04:59:04Z</time>
      </trkpt>
      <trkpt lat="50.1801" lon="3.75568">
        <ele>171.25</ele>
        <time>2021-08-08T04:59:13Z</time>
      </trkpt>
      <trkpt lat="50.18013" lon="3.75566">
        <ele>170.77</ele>
        <time>2021-08-08T04:59:30Z</time>
      </trkpt>
      <trkpt lat="50.18016" lon="3.7557">
        <ele>170.77</ele>
        <time>2021-08-08T04:59:45Z</time>
      </trkpt>
      <trkpt lat="50.18015" lon="3.75573">
        <ele>170.77</ele>
        <time>2021-08-08T05:00:01Z</time>
      </trkpt>
      <trkpt lat="50.18012" lon="3.75573">
        <ele>170.77</ele>
        <time>2021-08-08T05:00:19Z</time>
      </trkpt>
      <trkpt lat="50.18013" lon="3.75573">
        <ele>170.77</ele>
        <time>2021-08-08T05:00:34Z</time>
      </trkpt>
      <trkpt lat="50.18012" lon="3.75568">
        <ele>170.77</ele>
        <time>2021-08-08T05:00:48Z</time>
      </trkpt>
      <trkpt lat="50.18011" lon="3.75568">
        <ele>170.77</ele>
        <time>2021-08-08T05:01:00Z</time>
      </trkpt>
      <trkpt lat="50.18011" lon="3.75567">
        <ele>170.77</ele>
        <time>2021-08-08T05:01:22Z</time>
      </trkpt>
      <trkpt lat="50.18011" lon="3.75567">
        <ele>170.77</ele>
        <time>2021-08-08T05:01:36Z</time>
      </trkpt>
      <trkpt lat="50.18012" lon="3.75566">
        <ele>170.77</ele>
        <time>2021-08-08T05:01:49Z</time>
      </trkpt>
      <trkpt lat="50.18011" lon="3.75565">
        <ele>170.29</ele>
        <time>2021-08-08T05:02:03Z</time>
      </trkpt>
      <trkpt lat="50.18008" lon="3.75563">
        <ele>170.29</ele>
        <time>2021-08-08T05:02:16Z</time>
      </trkpt>
      <trkpt lat="50.18008" lon="3.75567">
        <ele>170.29</ele>
        <time>2021-08-08T05:02:35Z</time>
      </trkpt>
      <trkpt lat="50.18009" lon="3.75566">
        <ele>170.29</ele>
        <time>2021-08-08T05:02:52Z</time>
      </trkpt>
      <trkpt lat="50.1801" lon="3.75568">
        <ele>170.29</ele>
        <time>2021-08-08T05:03:04Z</time>
      </trkpt>
      <trkpt lat="50.18012" lon="3.75568">
        <ele>170.29</ele>
        <time>2021-08-08T05:03:13Z</time>
      </trkpt>
      <trkpt lat="50.18012" lon="3.75568">
        <ele>170.29</ele>
        <time>2021-08-08T05:03:25Z</time>
      </trkpt>
      <trkpt lat="50.18012" lon="3.75571">
        <ele>170.29</ele>
        <time>2021-08-08T05:03:27Z</time>
      </trkpt>
      <trkpt lat="50.1801" lon="3.75581">
        <ele>169.81</ele>
        <time>2021-08-08T05:03:31Z</time>
      </trkpt>
      <trkpt lat="50.18009" lon="3.75584">
        <ele>169.81</ele>
        <time>2021-08-08T05:03:32Z</time>
      </trkpt>
      <trkpt lat="50.18008" lon="3.75587">
        <ele>169.81</ele>
        <time>2021-08-08T05:03:33Z</time>
      </trkpt>
      <trkpt lat="50.18007" lon="3.75591">
        <ele>169.81</ele>
        <time>2021-08-08T05:03:34Z</time>
      </trkpt>
      <trkpt lat="50.17999" lon="3.75618">
        <ele>169.81</ele>
        <time>2021-08-08T05:03:40Z</time>
      </trkpt>
      <trkpt lat="50.17993" lon="3.75647">
        <ele>168.85</ele>
        <time>2021-08-08T05:03:45Z</time>
      </trkpt>
      <trkpt lat="50.17986" lon="3.75672">
        <ele>168.85</ele>
        <time>2021-08-08T05:03:49Z</time>
      </trkpt>
      <trkpt lat="50.17984" lon="3.75678">
        <ele>168.85</ele>
        <time>2021-08-08T05:03:50Z</time>
      </trkpt>
      <trkpt lat="50.17972" lon="3.75729">
        <ele>168.37</ele>
        <time>2021-08-08T05:03:57Z</time>
      </trkpt>
      <trkpt lat="50.17958" lon="3.75778">
        <ele>167.89</ele>
        <time>2021-08-08T05:04:03Z</time>
      </trkpt>
      <trkpt lat="50.17952" lon="3.75793">
        <ele>167.89</ele>
        <time>2021-08-08T05:04:05Z</time>
      </trkpt>
      <trkpt lat="50.1795" lon="3.75802">
        <ele>167.89</ele>
        <time>2021-08-08T05:04:06Z</time>
      </trkpt>
      <trkpt lat="50.17938" lon="3.75856">
        <ele>167.89</ele>
        <time>2021-08-08T05:04:13Z</time>
      </trkpt>
      <trkpt lat="50.17931" lon="3.75893">
        <ele>167.89</ele>
        <time>2021-08-08T05:04:18Z</time>
      </trkpt>
      <trkpt lat="50.17929" lon="3.75901">
        <ele>167.89</ele>
        <time>2021-08-08T05:04:19Z</time>
      </trkpt>
      <trkpt lat="50.17912" lon="3.75969">
        <ele>167.89</ele>
        <time>2021-08-08T05:04:28Z</time>
      </trkpt>
      <trkpt lat="50.17893" lon="3.76054">
        <ele>165</ele>
        <time>2021-08-08T05:04:38Z</time>
      </trkpt>
      <trkpt lat="50.17891" lon="3.76063">
        <ele>165.48</ele>
        <time>2021-08-08T05:04:39Z</time>
      </trkpt>
      <trkpt lat="50.17889" lon="3.76073">
        <ele>164.52</ele>
        <time>2021-08-08T05:04:40Z</time>
      </trkpt>
      <trkpt lat="50.17874" lon="3.76149">
        <ele>163.56</ele>
        <time>2021-08-08T05:04:48Z</time>
      </trkpt>
      <trkpt lat="50.17856" lon="3.76227">
        <ele>163.08</ele>
        <time>2021-08-08T05:04:56Z</time>
      </trkpt>
      <trkpt lat="50.17841" lon="3.76292">
        <ele>163.08</ele>
        <time>2021-08-08T05:05:03Z</time>
      </trkpt>
      <trkpt lat="50.17822" lon="3.76373">
        <ele>163.08</ele>
        <time>2021-08-08T05:05:12Z</time>
      </trkpt>
      <trkpt lat="50.17806" lon="3.76433">
        <ele>164.52</ele>
        <time>2021-08-08T05:05:19Z</time>
      </trkpt>
      <trkpt lat="50.17799" lon="3.76461">
        <ele>165.48</ele>
        <time>2021-08-08T05:05:23Z</time>
      </trkpt>
      <trkpt lat="50.17797" lon="3.76468">
        <ele>165.48</ele>
        <time>2021-08-08T05:05:24Z</time>
      </trkpt>
      <trkpt lat="50.1779" lon="3.76494">
        <ele>166.45</ele>
        <time>2021-08-08T05:05:28Z</time>
      </trkpt>
      <trkpt lat="50.17789" lon="3.765">
        <ele>166.45</ele>
        <time>2021-08-08T05:05:29Z</time>
      </trkpt>
      <trkpt lat="50.17787" lon="3.76507">
        <ele>166.45</ele>
        <time>2021-08-08T05:05:30Z</time>
      </trkpt>
      <trkpt lat="50.17786" lon="3.76514">
        <ele>166.45</ele>
        <time>2021-08-08T05:05:31Z</time>
      </trkpt>
      <trkpt lat="50.17785" lon="3.76521">
        <ele>166.45</ele>
        <time>2021-08-08T05:05:32Z</time>
      </trkpt>
      <trkpt lat="50.17783" lon="3.76528">
        <ele>166.45</ele>
        <time>2021-08-08T05:05:33Z</time>
      </trkpt>
      <trkpt lat="50.17772" lon="3.7657">
        <ele>165</ele>
        <time>2021-08-08T05:05:38Z</time>
      </trkpt>
      <trkpt lat="50.17752" lon="3.76651">
        <ele>162.12</ele>
        <time>2021-08-08T05:05:46Z</time>
      </trkpt>
      <trkpt lat="50.17729" lon="3.76739">
        <ele>162.12</ele>
        <time>2021-08-08T05:05:55Z</time>
      </trkpt>
      <trkpt lat="50.17719" lon="3.76781">
        <ele>163.56</ele>
        <time>2021-08-08T05:06:00Z</time>
      </trkpt>
      <trkpt lat="50.17701" lon="3.76853">
        <ele>164.52</ele>
        <time>2021-08-08T05:06:09Z</time>
      </trkpt>
      <trkpt lat="50.17686" lon="3.76915">
        <ele>165</ele>
        <time>2021-08-08T05:06:17Z</time>
      </trkpt>
      <trkpt lat="50.17672" lon="3.76968">
        <ele>163.56</ele>
        <time>2021-08-08T05:06:23Z</time>
      </trkpt>
      <trkpt lat="50.17647" lon="3.77067">
        <ele>161.64</ele>
        <time>2021-08-08T05:06:33Z</time>
      </trkpt>
      <trkpt lat="50.17624" lon="3.77167">
        <ele>160.2</ele>
        <time>2021-08-08T05:06:43Z</time>
      </trkpt>
      <trkpt lat="50.17598" lon="3.77272">
        <ele>158.75</ele>
        <time>2021-08-08T05:06:53Z</time>
      </trkpt>
      <trkpt lat="50.17578" lon="3.77356">
        <ele>158.27</ele>
        <time>2021-08-08T05:07:02Z</time>
      </trkpt>
      <trkpt lat="50.17561" lon="3.77428">
        <ele>157.79</ele>
        <time>2021-08-08T05:07:10Z</time>
      </trkpt>
      <trkpt lat="50.17545" lon="3.77495">
        <ele>157.31</ele>
        <time>2021-08-08T05:07:17Z</time>
      </trkpt>
      <trkpt lat="50.17521" lon="3.77596">
        <ele>154.91</ele>
        <time>2021-08-08T05:07:27Z</time>
      </trkpt>
      <trkpt lat="50.17494" lon="3.77702">
        <ele>153.47</ele>
        <time>2021-08-08T05:07:37Z</time>
      </trkpt>
      <trkpt lat="50.17472" lon="3.77792">
        <ele>152.03</ele>
        <time>2021-08-08T05:07:46Z</time>
      </trkpt>
      <trkpt lat="50.17448" lon="3.77887">
        <ele>150.58</ele>
        <time>2021-08-08T05:07:55Z</time>
      </trkpt>
      <trkpt lat="50.17435" lon="3.77941">
        <ele>149.14</ele>
        <time>2021-08-08T05:08:00Z</time>
      </trkpt>
      <trkpt lat="50.1741" lon="3.7805">
        <ele>148.18</ele>
        <time>2021-08-08T05:08:10Z</time>
      </trkpt>
      <trkpt lat="50.17384" lon="3.7815">
        <ele>144.82</ele>
        <time>2021-08-08T05:08:19Z</time>
      </trkpt>
      <trkpt lat="50.17378" lon="3.78172">
        <ele>144.34</ele>
        <time>2021-08-08T05:08:21Z</time>
      </trkpt>
      <trkpt lat="50.17366" lon="3.78218">
        <ele>145.78</ele>
        <time>2021-08-08T05:08:25Z</time>
      </trkpt>
      <trkpt lat="50.17344" lon="3.78302">
        <ele>142.89</ele>
        <time>2021-08-08T05:08:32Z</time>
      </trkpt>
      <trkpt lat="50.17334" lon="3.78354">
        <ele>140.01</ele>
        <time>2021-08-08T05:08:36Z</time>
      </trkpt>
      <trkpt lat="50.17333" lon="3.78371">
        <ele>140.01</ele>
        <time>2021-08-08T05:08:37Z</time>
      </trkpt>
      <trkpt lat="50.17334" lon="3.78383">
        <ele>140.01</ele>
        <time>2021-08-08T05:08:38Z</time>
      </trkpt>
      <trkpt lat="50.17336" lon="3.78398">
        <ele>140.01</ele>
        <time>2021-08-08T05:08:39Z</time>
      </trkpt>
      <trkpt lat="50.17339" lon="3.78412">
        <ele>140.01</ele>
        <time>2021-08-08T05:08:40Z</time>
      </trkpt>
      <trkpt lat="50.17341" lon="3.78423">
        <ele>140.01</ele>
        <time>2021-08-08T05:08:41Z</time>
      </trkpt>
      <trkpt lat="50.17359" lon="3.78503">
        <ele>140.01</ele>
        <time>2021-08-08T05:08:48Z</time>
      </trkpt>
      <trkpt lat="50.17371" lon="3.78549">
        <ele>142.89</ele>
        <time>2021-08-08T05:08:54Z</time>
      </trkpt>
      <trkpt lat="50.17375" lon="3.78562">
        <ele>142.89</ele>
        <time>2021-08-08T05:08:56Z</time>
      </trkpt>
      <trkpt lat="50.17377" lon="3.78568">
        <ele>142.89</ele>
        <time>2021-08-08T05:08:57Z</time>
      </trkpt>
      <trkpt lat="50.17379" lon="3.78575">
        <ele>142.89</ele>
        <time>2021-08-08T05:08:58Z</time>
      </trkpt>
      <trkpt lat="50.17387" lon="3.78603">
        <ele>143.37</ele>
        <time>2021-08-08T05:09:02Z</time>
      </trkpt>
      <trkpt lat="50.17391" lon="3.7861">
        <ele>143.37</ele>
        <time>2021-08-08T05:09:03Z</time>
      </trkpt>
      <trkpt lat="50.17402" lon="3.78637">
        <ele>144.34</ele>
        <time>2021-08-08T05:09:08Z</time>
      </trkpt>
      <trkpt lat="50.17406" lon="3.78647">
        <ele>144.34</ele>
        <time>2021-08-08T05:09:11Z</time>
      </trkpt>
      <trkpt lat="50.17405" lon="3.78651">
        <ele>144.82</ele>
        <time>2021-08-08T05:09:12Z</time>
      </trkpt>
      <trkpt lat="50.17403" lon="3.78653">
        <ele>144.82</ele>
        <time>2021-08-08T05:09:13Z</time>
      </trkpt>
      <trkpt lat="50.17401" lon="3.78653">
        <ele>144.82</ele>
        <time>2021-08-08T05:09:14Z</time>
      </trkpt>
      <trkpt lat="50.17399" lon="3.78651">
        <ele>144.82</ele>
        <time>2021-08-08T05:09:15Z</time>
      </trkpt>
      <trkpt lat="50.17396" lon="3.78648">
        <ele>144.82</ele>
        <time>2021-08-08T05:09:16Z</time>
      </trkpt>
      <trkpt lat="50.17371" lon="3.78623">
        <ele>144.82</ele>
        <time>2021-08-08T05:09:22Z</time>
      </trkpt>
      <trkpt lat="50.17363" lon="3.78615">
        <ele>143.85</ele>
        <time>2021-08-08T05:09:24Z</time>
      </trkpt>
      <trkpt lat="50.17339" lon="3.78596">
        <ele>143.37</ele>
        <time>2021-08-08T05:09:31Z</time>
      </trkpt>
      <trkpt lat="50.1731" lon="3.78594">
        <ele>140.49</ele>
        <time>2021-08-08T05:09:36Z</time>
      </trkpt>
      <trkpt lat="50.17262" lon="3.78589">
        <ele>139.05</ele>
        <time>2021-08-08T05:09:43Z</time>
      </trkpt>
      <trkpt lat="50.17257" lon="3.7859">
        <ele>139.05</ele>
        <time>2021-08-08T05:09:44Z</time>
      </trkpt>
      <trkpt lat="50.17254" lon="3.78593">
        <ele>139.05</ele>
        <time>2021-08-08T05:09:45Z</time>
      </trkpt>
      <trkpt lat="50.17253" lon="3.78599">
        <ele>139.05</ele>
        <time>2021-08-08T05:09:46Z</time>
      </trkpt>
      <trkpt lat="50.17252" lon="3.78604">
        <ele>139.05</ele>
        <time>2021-08-08T05:09:47Z</time>
      </trkpt>
      <trkpt lat="50.17252" lon="3.78609">
        <ele>139.05</ele>
        <time>2021-08-08T05:09:48Z</time>
      </trkpt>
      <trkpt lat="50.17251" lon="3.78614">
        <ele>139.05</ele>
        <time>2021-08-08T05:09:49Z</time>
      </trkpt>
      <trkpt lat="50.17249" lon="3.78632">
        <ele>139.05</ele>
        <time>2021-08-08T05:09:52Z</time>
      </trkpt>
      <trkpt lat="50.17248" lon="3.78667">
        <ele>139.05</ele>
        <time>2021-08-08T05:09:59Z</time>
      </trkpt>
      <trkpt lat="50.17248" lon="3.7867">
        <ele>139.05</ele>
        <time>2021-08-08T05:10:04Z</time>
      </trkpt>
      <trkpt lat="50.17246" lon="3.78672">
        <ele>140.49</ele>
        <time>2021-08-08T05:10:07Z</time>
      </trkpt>
      <trkpt lat="50.17246" lon="3.78677">
        <ele>140.49</ele>
        <time>2021-08-08T05:10:15Z</time>
      </trkpt>
      <trkpt lat="50.17246" lon="3.78679">
        <ele>140.49</ele>
        <time>2021-08-08T05:10:23Z</time>
      </trkpt>
      <trkpt lat="50.17245" lon="3.7868">
        <ele>140.97</ele>
        <time>2021-08-08T05:10:30Z</time>
      </trkpt>
      <trkpt lat="50.17241" lon="3.7868">
        <ele>141.45</ele>
        <time>2021-08-08T05:10:38Z</time>
      </trkpt>
      <trkpt lat="50.17237" lon="3.78681">
        <ele>142.41</ele>
        <time>2021-08-08T05:10:48Z</time>
      </trkpt>
      <trkpt lat="50.17236" lon="3.78681">
        <ele>140.97</ele>
        <time>2021-08-08T05:10:50Z</time>
      </trkpt>
      <trkpt lat="50.17233" lon="3.78675">
        <ele>140.01</ele>
        <time>2021-08-08T05:10:57Z</time>
      </trkpt>
      <trkpt lat="50.17233" lon="3.78674">
        <ele>139.53</ele>
        <time>2021-08-08T05:11:00Z</time>
      </trkpt>
      <trkpt lat="50.17232" lon="3.78672">
        <ele>139.53</ele>
        <time>2021-08-08T05:11:01Z</time>
      </trkpt>
      <trkpt lat="50.1723" lon="3.78656">
        <ele>139.05</ele>
        <time>2021-08-08T05:11:08Z</time>
      </trkpt>
      <trkpt lat="50.1723" lon="3.78648">
        <ele>139.05</ele>
        <time>2021-08-08T05:11:11Z</time>
      </trkpt>
      <trkpt lat="50.1723" lon="3.78646">
        <ele>139.05</ele>
        <time>2021-08-08T05:11:12Z</time>
      </trkpt>
      <trkpt lat="50.1723" lon="3.78639">
        <ele>139.05</ele>
        <time>2021-08-08T05:11:14Z</time>
      </trkpt>
      <trkpt lat="50.1723" lon="3.78635">
        <ele>139.05</ele>
        <time>2021-08-08T05:11:15Z</time>
      </trkpt>
      <trkpt lat="50.17229" lon="3.78596">
        <ele>138.57</ele>
        <time>2021-08-08T05:11:23Z</time>
      </trkpt>
      <trkpt lat="50.17229" lon="3.78572">
        <ele>140.01</ele>
        <time>2021-08-08T05:11:28Z</time>
      </trkpt>
      <trkpt lat="50.17225" lon="3.78541">
        <ele>140.49</ele>
        <time>2021-08-08T05:11:35Z</time>
      </trkpt>
      <trkpt lat="50.17218" lon="3.78501">
        <ele>140.49</ele>
        <time>2021-08-08T05:11:42Z</time>
      </trkpt>
      <trkpt lat="50.17227" lon="3.78466">
        <ele>140.49</ele>
        <time>2021-08-08T05:11:48Z</time>
      </trkpt>
      <trkpt lat="50.17228" lon="3.78459">
        <ele>139.05</ele>
        <time>2021-08-08T05:11:49Z</time>
      </trkpt>
      <trkpt lat="50.17228" lon="3.78452">
        <ele>139.05</ele>
        <time>2021-08-08T05:11:50Z</time>
      </trkpt>
      <trkpt lat="50.17228" lon="3.78445">
        <ele>139.05</ele>
        <time>2021-08-08T05:11:51Z</time>
      </trkpt>
      <trkpt lat="50.17223" lon="3.78395">
        <ele>139.05</ele>
        <time>2021-08-08T05:11:59Z</time>
      </trkpt>
      <trkpt lat="50.17214" lon="3.7835">
        <ele>138.57</ele>
        <time>2021-08-08T05:12:07Z</time>
      </trkpt>
      <trkpt lat="50.17202" lon="3.78304">
        <ele>138.57</ele>
        <time>2021-08-08T05:12:15Z</time>
      </trkpt>
      <trkpt lat="50.17192" lon="3.78258">
        <ele>138.57</ele>
        <time>2021-08-08T05:12:23Z</time>
      </trkpt>
      <trkpt lat="50.17182" lon="3.78211">
        <ele>138.57</ele>
        <time>2021-08-08T05:12:31Z</time>
      </trkpt>
      <trkpt lat="50.17165" lon="3.78141">
        <ele>138.57</ele>
        <time>2021-08-08T05:12:42Z</time>
      </trkpt>
      <trkpt lat="50.17151" lon="3.78085">
        <ele>138.57</ele>
        <time>2021-08-08T05:12:51Z</time>
      </trkpt>
      <trkpt lat="50.17134" lon="3.78018">
        <ele>138.09</ele>
        <time>2021-08-08T05:13:02Z</time>
      </trkpt>
      <trkpt lat="50.17121" lon="3.7798">
        <ele>138.09</ele>
        <time>2021-08-08T05:13:10Z</time>
      </trkpt>
      <trkpt lat="50.17113" lon="3.77947">
        <ele>138.09</ele>
        <time>2021-08-08T05:13:17Z</time>
      </trkpt>
      <trkpt lat="50.17104" lon="3.77921">
        <ele>138.09</ele>
        <time>2021-08-08T05:13:23Z</time>
      </trkpt>
      <trkpt lat="50.17095" lon="3.7789">
        <ele>138.09</ele>
        <time>2021-08-08T05:13:29Z</time>
      </trkpt>
      <trkpt lat="50.17081" lon="3.77842">
        <ele>138.09</ele>
        <time>2021-08-08T05:13:38Z</time>
      </trkpt>
      <trkpt lat="50.1707" lon="3.77809">
        <ele>138.09</ele>
        <time>2021-08-08T05:13:45Z</time>
      </trkpt>
      <trkpt lat="50.17065" lon="3.77791">
        <ele>138.09</ele>
        <time>2021-08-08T05:13:51Z</time>
      </trkpt>
      <trkpt lat="50.17058" lon="3.77772">
        <ele>138.09</ele>
        <time>2021-08-08T05:13:58Z</time>
      </trkpt>
      <trkpt lat="50.17049" lon="3.77746">
        <ele>138.09</ele>
        <time>2021-08-08T05:14:04Z</time>
      </trkpt>
      <trkpt lat="50.17033" lon="3.777">
        <ele>138.09</ele>
        <time>2021-08-08T05:14:13Z</time>
      </trkpt>
      <trkpt lat="50.17017" lon="3.77662">
        <ele>138.09</ele>
        <time>2021-08-08T05:14:21Z</time>
      </trkpt>
      <trkpt lat="50.17" lon="3.77628">
        <ele>138.09</ele>
        <time>2021-08-08T05:14:29Z</time>
      </trkpt>
      <trkpt lat="50.16977" lon="3.77594">
        <ele>138.09</ele>
        <time>2021-08-08T05:14:37Z</time>
      </trkpt>
      <trkpt lat="50.16954" lon="3.77569">
        <ele>138.09</ele>
        <time>2021-08-08T05:14:44Z</time>
      </trkpt>
      <trkpt lat="50.16926" lon="3.77543">
        <ele>138.09</ele>
        <time>2021-08-08T05:14:52Z</time>
      </trkpt>
      <trkpt lat="50.16891" lon="3.77521">
        <ele>138.09</ele>
        <time>2021-08-08T05:15:01Z</time>
      </trkpt>
      <trkpt lat="50.16887" lon="3.77519">
        <ele>138.09</ele>
        <time>2021-08-08T05:15:02Z</time>
      </trkpt>
      <trkpt lat="50.16883" lon="3.77518">
        <ele>138.09</ele>
        <time>2021-08-08T05:15:03Z</time>
      </trkpt>
      <trkpt lat="50.16845" lon="3.77503">
        <ele>138.09</ele>
        <time>2021-08-08T05:15:13Z</time>
      </trkpt>
      <trkpt lat="50.16815" lon="3.77497">
        <ele>138.09</ele>
        <time>2021-08-08T05:15:21Z</time>
      </trkpt>
      <trkpt lat="50.1681" lon="3.77497">
        <ele>138.09</ele>
        <time>2021-08-08T05:15:22Z</time>
      </trkpt>
      <trkpt lat="50.16781" lon="3.77499">
        <ele>138.09</ele>
        <time>2021-08-08T05:15:29Z</time>
      </trkpt>
      <trkpt lat="50.16749" lon="3.77508">
        <ele>138.09</ele>
        <time>2021-08-08T05:15:37Z</time>
      </trkpt>
      <trkpt lat="50.16718" lon="3.77521">
        <ele>138.09</ele>
        <time>2021-08-08T05:15:45Z</time>
      </trkpt>
      <trkpt lat="50.16683" lon="3.77533">
        <ele>138.09</ele>
        <time>2021-08-08T05:15:54Z</time>
      </trkpt>
      <trkpt lat="50.16667" lon="3.7754">
        <ele>138.09</ele>
        <time>2021-08-08T05:15:58Z</time>
      </trkpt>
      <trkpt lat="50.16662" lon="3.77542">
        <ele>138.09</ele>
        <time>2021-08-08T05:15:59Z</time>
      </trkpt>
      <trkpt lat="50.16632" lon="3.77554">
        <ele>138.09</ele>
        <time>2021-08-08T05:16:07Z</time>
      </trkpt>
      <trkpt lat="50.1661" lon="3.77562">
        <ele>139.05</ele>
        <time>2021-08-08T05:16:13Z</time>
      </trkpt>
      <trkpt lat="50.16607" lon="3.77563">
        <ele>139.05</ele>
        <time>2021-08-08T05:16:14Z</time>
      </trkpt>
      <trkpt lat="50.16564" lon="3.77579">
        <ele>139.05</ele>
        <time>2021-08-08T05:16:25Z</time>
      </trkpt>
      <trkpt lat="50.16524" lon="3.77593">
        <ele>139.05</ele>
        <time>2021-08-08T05:16:35Z</time>
      </trkpt>
      <trkpt lat="50.16501" lon="3.77601">
        <ele>137.61</ele>
        <time>2021-08-08T05:16:41Z</time>
      </trkpt>
      <trkpt lat="50.1647" lon="3.77615">
        <ele>137.61</ele>
        <time>2021-08-08T05:16:49Z</time>
      </trkpt>
      <trkpt lat="50.16434" lon="3.77627">
        <ele>139.05</ele>
        <time>2021-08-08T05:16:58Z</time>
      </trkpt>
      <trkpt lat="50.16398" lon="3.77629">
        <ele>139.05</ele>
        <time>2021-08-08T05:17:06Z</time>
      </trkpt>
      <trkpt lat="50.16382" lon="3.7763">
        <ele>138.57</ele>
        <time>2021-08-08T05:17:10Z</time>
      </trkpt>
      <trkpt lat="50.16355" lon="3.7763">
        <ele>138.57</ele>
        <time>2021-08-08T05:17:17Z</time>
      </trkpt>
      <trkpt lat="50.16327" lon="3.77626">
        <ele>138.57</ele>
        <time>2021-08-08T05:17:24Z</time>
      </trkpt>
      <trkpt lat="50.16295" lon="3.77621">
        <ele>138.57</ele>
        <time>2021-08-08T05:17:32Z</time>
      </trkpt>
      <trkpt lat="50.1629" lon="3.7762">
        <ele>138.57</ele>
        <time>2021-08-08T05:17:33Z</time>
      </trkpt>
      <trkpt lat="50.1626" lon="3.7761">
        <ele>138.57</ele>
        <time>2021-08-08T05:17:41Z</time>
      </trkpt>
      <trkpt lat="50.16232" lon="3.77595">
        <ele>138.57</ele>
        <time>2021-08-08T05:17:48Z</time>
      </trkpt>
      <trkpt lat="50.16201" lon="3.77577">
        <ele>138.57</ele>
        <time>2021-08-08T05:17:56Z</time>
      </trkpt>
      <trkpt lat="50.16185" lon="3.77565">
        <ele>138.57</ele>
        <time>2021-08-08T05:18:00Z</time>
      </trkpt>
      <trkpt lat="50.1615" lon="3.77538">
        <ele>139.05</ele>
        <time>2021-08-08T05:18:10Z</time>
      </trkpt>
      <trkpt lat="50.16122" lon="3.77512">
        <ele>139.05</ele>
        <time>2021-08-08T05:18:18Z</time>
      </trkpt>
      <trkpt lat="50.16091" lon="3.77477">
        <ele>139.05</ele>
        <time>2021-08-08T05:18:26Z</time>
      </trkpt>
      <trkpt lat="50.16061" lon="3.77438">
        <ele>139.05</ele>
        <time>2021-08-08T05:18:34Z</time>
      </trkpt>
      <trkpt lat="50.1603" lon="3.77387">
        <ele>139.05</ele>
        <time>2021-08-08T05:18:44Z</time>
      </trkpt>
      <trkpt lat="50.16002" lon="3.77337">
        <ele>139.05</ele>
        <time>2021-08-08T05:18:53Z</time>
      </trkpt>
      <trkpt lat="50.15983" lon="3.77294">
        <ele>137.61</ele>
        <time>2021-08-08T05:19:00Z</time>
      </trkpt>
      <trkpt lat="50.15964" lon="3.77243">
        <ele>137.61</ele>
        <time>2021-08-08T05:19:08Z</time>
      </trkpt>
      <trkpt lat="50.15955" lon="3.77218">
        <ele>137.61</ele>
        <time>2021-08-08T05:19:12Z</time>
      </trkpt>
      <trkpt lat="50.15938" lon="3.77153">
        <ele>137.61</ele>
        <time>2021-08-08T05:19:22Z</time>
      </trkpt>
      <trkpt lat="50.15922" lon="3.77083">
        <ele>137.61</ele>
        <time>2021-08-08T05:19:32Z</time>
      </trkpt>
      <trkpt lat="50.15907" lon="3.77032">
        <ele>137.61</ele>
        <time>2021-08-08T05:19:40Z</time>
      </trkpt>
      <trkpt lat="50.15886" lon="3.76973">
        <ele>137.61</ele>
        <time>2021-08-08T05:19:49Z</time>
      </trkpt>
      <trkpt lat="50.15865" lon="3.76924">
        <ele>137.61</ele>
        <time>2021-08-08T05:19:57Z</time>
      </trkpt>
      <trkpt lat="50.15861" lon="3.76912">
        <ele>137.61</ele>
        <time>2021-08-08T05:19:59Z</time>
      </trkpt>
      <trkpt lat="50.15836" lon="3.76854">
        <ele>137.13</ele>
        <time>2021-08-08T05:20:08Z</time>
      </trkpt>
      <trkpt lat="50.15834" lon="3.76848">
        <ele>137.13</ele>
        <time>2021-08-08T05:20:09Z</time>
      </trkpt>
      <trkpt lat="50.15808" lon="3.76788">
        <ele>137.13</ele>
        <time>2021-08-08T05:20:19Z</time>
      </trkpt>
      <trkpt lat="50.15781" lon="3.76729">
        <ele>137.13</ele>
        <time>2021-08-08T05:20:29Z</time>
      </trkpt>
      <trkpt lat="50.15752" lon="3.76679">
        <ele>137.13</ele>
        <time>2021-08-08T05:20:38Z</time>
      </trkpt>
      <trkpt lat="50.15725" lon="3.7664">
        <ele>137.13</ele>
        <time>2021-08-08T05:20:46Z</time>
      </trkpt>
      <trkpt lat="50.15699" lon="3.76604">
        <ele>137.13</ele>
        <time>2021-08-08T05:20:54Z</time>
      </trkpt>
      <trkpt lat="50.15672" lon="3.76561">
        <ele>137.13</ele>
        <time>2021-08-08T05:21:03Z</time>
      </trkpt>
      <trkpt lat="50.15645" lon="3.76507">
        <ele>137.13</ele>
        <time>2021-08-08T05:21:13Z</time>
      </trkpt>
      <trkpt lat="50.15615" lon="3.76437">
        <ele>136.64</ele>
        <time>2021-08-08T05:21:25Z</time>
      </trkpt>
      <trkpt lat="50.15601" lon="3.76402">
        <ele>136.64</ele>
        <time>2021-08-08T05:21:32Z</time>
      </trkpt>
      <trkpt lat="50.1558" lon="3.76348">
        <ele>136.64</ele>
        <time>2021-08-08T05:21:41Z</time>
      </trkpt>
      <trkpt lat="50.1556" lon="3.76296">
        <ele>136.64</ele>
        <time>2021-08-08T05:21:49Z</time>
      </trkpt>
      <trkpt lat="50.15555" lon="3.76267">
        <ele>136.64</ele>
        <time>2021-08-08T05:21:53Z</time>
      </trkpt>
      <trkpt lat="50.15545" lon="3.76212">
        <ele>138.57</ele>
        <time>2021-08-08T05:22:01Z</time>
      </trkpt>
      <trkpt lat="50.15544" lon="3.76177">
        <ele>139.05</ele>
        <time>2021-08-08T05:22:08Z</time>
      </trkpt>
      <trkpt lat="50.15543" lon="3.76143">
        <ele>139.05</ele>
        <time>2021-08-08T05:22:15Z</time>
      </trkpt>
      <trkpt lat="50.15541" lon="3.76122">
        <ele>138.57</ele>
        <time>2021-08-08T05:22:21Z</time>
      </trkpt>
      <trkpt lat="50.15533" lon="3.76097">
        <ele>138.57</ele>
        <time>2021-08-08T05:22:28Z</time>
      </trkpt>
      <trkpt lat="50.15522" lon="3.76048">
        <ele>138.57</ele>
        <time>2021-08-08T05:22:36Z</time>
      </trkpt>
      <trkpt lat="50.15512" lon="3.75972">
        <ele>139.53</ele>
        <time>2021-08-08T05:22:47Z</time>
      </trkpt>
      <trkpt lat="50.15508" lon="3.75944">
        <ele>138.09</ele>
        <time>2021-08-08T05:22:51Z</time>
      </trkpt>
      <trkpt lat="50.15502" lon="3.75907">
        <ele>138.09</ele>
        <time>2021-08-08T05:22:56Z</time>
      </trkpt>
      <trkpt lat="50.15484" lon="3.75855">
        <ele>138.09</ele>
        <time>2021-08-08T05:23:04Z</time>
      </trkpt>
      <trkpt lat="50.15482" lon="3.75849">
        <ele>138.09</ele>
        <time>2021-08-08T05:23:05Z</time>
      </trkpt>
      <trkpt lat="50.15481" lon="3.75842">
        <ele>138.09</ele>
        <time>2021-08-08T05:23:06Z</time>
      </trkpt>
      <trkpt lat="50.1548" lon="3.75834">
        <ele>138.09</ele>
        <time>2021-08-08T05:23:07Z</time>
      </trkpt>
      <trkpt lat="50.15479" lon="3.75827">
        <ele>138.09</ele>
        <time>2021-08-08T05:23:08Z</time>
      </trkpt>
      <trkpt lat="50.15479" lon="3.75819">
        <ele>138.09</ele>
        <time>2021-08-08T05:23:09Z</time>
      </trkpt>
      <trkpt lat="50.1548" lon="3.75812">
        <ele>138.09</ele>
        <time>2021-08-08T05:23:10Z</time>
      </trkpt>
      <trkpt lat="50.15481" lon="3.75804">
        <ele>138.09</ele>
        <time>2021-08-08T05:23:11Z</time>
      </trkpt>
      <trkpt lat="50.15483" lon="3.75797">
        <ele>138.09</ele>
        <time>2021-08-08T05:23:12Z</time>
      </trkpt>
      <trkpt lat="50.15486" lon="3.75791">
        <ele>138.09</ele>
        <time>2021-08-08T05:23:13Z</time>
      </trkpt>
      <trkpt lat="50.15489" lon="3.75784">
        <ele>138.09</ele>
        <time>2021-08-08T05:23:14Z</time>
      </trkpt>
      <trkpt lat="50.15492" lon="3.75778">
        <ele>138.09</ele>
        <time>2021-08-08T05:23:15Z</time>
      </trkpt>
      <trkpt lat="50.15501" lon="3.7576">
        <ele>138.09</ele>
        <time>2021-08-08T05:23:18Z</time>
      </trkpt>
      <trkpt lat="50.15502" lon="3.75753">
        <ele>138.09</ele>
        <time>2021-08-08T05:23:19Z</time>
      </trkpt>
      <trkpt lat="50.15503" lon="3.75746">
        <ele>138.09</ele>
        <time>2021-08-08T05:23:20Z</time>
      </trkpt>
      <trkpt lat="50.15508" lon="3.75676">
        <ele>137.61</ele>
        <time>2021-08-08T05:23:29Z</time>
      </trkpt>
      <trkpt lat="50.15514" lon="3.75608">
        <ele>137.13</ele>
        <time>2021-08-08T05:23:38Z</time>
      </trkpt>
      <trkpt lat="50.1552" lon="3.75533">
        <ele>137.13</ele>
        <time>2021-08-08T05:23:48Z</time>
      </trkpt>
      <trkpt lat="50.15525" lon="3.75464">
        <ele>137.13</ele>
        <time>2021-08-08T05:23:58Z</time>
      </trkpt>
      <trkpt lat="50.15526" lon="3.75457">
        <ele>137.13</ele>
        <time>2021-08-08T05:23:59Z</time>
      </trkpt>
      <trkpt lat="50.15526" lon="3.75442">
        <ele>137.13</ele>
        <time>2021-08-08T05:24:01Z</time>
      </trkpt>
      <trkpt lat="50.15526" lon="3.75437">
        <ele>137.13</ele>
        <time>2021-08-08T05:24:02Z</time>
      </trkpt>
      <trkpt lat="50.15528" lon="3.75408">
        <ele>137.13</ele>
        <time>2021-08-08T05:24:06Z</time>
      </trkpt>
      <trkpt lat="50.15534" lon="3.75353">
        <ele>137.13</ele>
        <time>2021-08-08T05:24:14Z</time>
      </trkpt>
      <trkpt lat="50.15536" lon="3.75332">
        <ele>137.13</ele>
        <time>2021-08-08T05:24:17Z</time>
      </trkpt>
      <trkpt lat="50.15542" lon="3.75255">
        <ele>137.13</ele>
        <time>2021-08-08T05:24:28Z</time>
      </trkpt>
      <trkpt lat="50.15548" lon="3.7519">
        <ele>137.13</ele>
        <time>2021-08-08T05:24:37Z</time>
      </trkpt>
      <trkpt lat="50.15551" lon="3.75133">
        <ele>137.13</ele>
        <time>2021-08-08T05:24:45Z</time>
      </trkpt>
      <trkpt lat="50.15556" lon="3.75062">
        <ele>137.13</ele>
        <time>2021-08-08T05:24:55Z</time>
      </trkpt>
      <trkpt lat="50.15562" lon="3.74981">
        <ele>137.13</ele>
        <time>2021-08-08T05:25:06Z</time>
      </trkpt>
      <trkpt lat="50.15568" lon="3.74912">
        <ele>137.13</ele>
        <time>2021-08-08T05:25:15Z</time>
      </trkpt>
      <trkpt lat="50.15576" lon="3.7483">
        <ele>137.13</ele>
        <time>2021-08-08T05:25:26Z</time>
      </trkpt>
      <trkpt lat="50.15581" lon="3.74755">
        <ele>136.16</ele>
        <time>2021-08-08T05:25:36Z</time>
      </trkpt>
      <trkpt lat="50.15586" lon="3.74689">
        <ele>136.16</ele>
        <time>2021-08-08T05:25:45Z</time>
      </trkpt>
      <trkpt lat="50.15593" lon="3.74603">
        <ele>136.16</ele>
        <time>2021-08-08T05:25:57Z</time>
      </trkpt>
      <trkpt lat="50.15599" lon="3.74533">
        <ele>136.16</ele>
        <time>2021-08-08T05:26:07Z</time>
      </trkpt>
      <trkpt lat="50.15606" lon="3.74459">
        <ele>137.61</ele>
        <time>2021-08-08T05:26:17Z</time>
      </trkpt>
      <trkpt lat="50.15608" lon="3.74444">
        <ele>137.61</ele>
        <time>2021-08-08T05:26:19Z</time>
      </trkpt>
      <trkpt lat="50.15613" lon="3.74392">
        <ele>137.61</ele>
        <time>2021-08-08T05:26:27Z</time>
      </trkpt>
      <trkpt lat="50.15613" lon="3.74365">
        <ele>140.01</ele>
        <time>2021-08-08T05:26:34Z</time>
      </trkpt>
      <trkpt lat="50.15611" lon="3.74363">
        <ele>140.01</ele>
        <time>2021-08-08T05:26:35Z</time>
      </trkpt>
      <trkpt lat="50.15609" lon="3.74363">
        <ele>140.01</ele>
        <time>2021-08-08T05:26:36Z</time>
      </trkpt>
      <trkpt lat="50.15607" lon="3.74363">
        <ele>140.01</ele>
        <time>2021-08-08T05:26:37Z</time>
      </trkpt>
      <trkpt lat="50.15594" lon="3.74369">
        <ele>140.01</ele>
        <time>2021-08-08T05:26:41Z</time>
      </trkpt>
      <trkpt lat="50.15582" lon="3.74376">
        <ele>140.01</ele>
        <time>2021-08-08T05:26:44Z</time>
      </trkpt>
      <trkpt lat="50.15568" lon="3.74386">
        <ele>139.53</ele>
        <time>2021-08-08T05:26:47Z</time>
      </trkpt>
      <trkpt lat="50.15563" lon="3.7439">
        <ele>138.57</ele>
        <time>2021-08-08T05:26:48Z</time>
      </trkpt>
      <trkpt lat="50.15559" lon="3.74394">
        <ele>138.57</ele>
        <time>2021-08-08T05:26:49Z</time>
      </trkpt>
      <trkpt lat="50.15533" lon="3.74421">
        <ele>137.13</ele>
        <time>2021-08-08T05:26:55Z</time>
      </trkpt>
      <trkpt lat="50.15524" lon="3.74431">
        <ele>137.13</ele>
        <time>2021-08-08T05:26:57Z</time>
      </trkpt>
      <trkpt lat="50.1552" lon="3.74435">
        <ele>137.13</ele>
        <time>2021-08-08T05:26:58Z</time>
      </trkpt>
      <trkpt lat="50.15515" lon="3.74437">
        <ele>136.16</ele>
        <time>2021-08-08T05:26:59Z</time>
      </trkpt>
      <trkpt lat="50.15509" lon="3.74438">
        <ele>136.16</ele>
        <time>2021-08-08T05:27:00Z</time>
      </trkpt>
      <trkpt lat="50.15504" lon="3.74438">
        <ele>136.16</ele>
        <time>2021-08-08T05:27:01Z</time>
      </trkpt>
      <trkpt lat="50.15499" lon="3.74437">
        <ele>136.16</ele>
        <time>2021-08-08T05:27:02Z</time>
      </trkpt>
      <trkpt lat="50.15493" lon="3.74437">
        <ele>136.16</ele>
        <time>2021-08-08T05:27:03Z</time>
      </trkpt>
      <trkpt lat="50.1545" lon="3.74427">
        <ele>135.2</ele>
        <time>2021-08-08T05:27:11Z</time>
      </trkpt>
      <trkpt lat="50.1543" lon="3.7442">
        <ele>134.72</ele>
        <time>2021-08-08T05:27:15Z</time>
      </trkpt>
      <trkpt lat="50.15376" lon="3.74396">
        <ele>135.68</ele>
        <time>2021-08-08T05:27:26Z</time>
      </trkpt>
      <trkpt lat="50.15347" lon="3.74388">
        <ele>135.68</ele>
        <time>2021-08-08T05:27:32Z</time>
      </trkpt>
      <trkpt lat="50.15341" lon="3.74389">
        <ele>135.68</ele>
        <time>2021-08-08T05:27:33Z</time>
      </trkpt>
      <trkpt lat="50.15336" lon="3.74392">
        <ele>135.68</ele>
        <time>2021-08-08T05:27:34Z</time>
      </trkpt>
      <trkpt lat="50.15298" lon="3.74422">
        <ele>135.68</ele>
        <time>2021-08-08T05:27:42Z</time>
      </trkpt>
      <trkpt lat="50.1524" lon="3.74471">
        <ele>135.68</ele>
        <time>2021-08-08T05:27:54Z</time>
      </trkpt>
      <trkpt lat="50.15197" lon="3.74511">
        <ele>135.68</ele>
        <time>2021-08-08T05:28:03Z</time>
      </trkpt>
      <trkpt lat="50.15158" lon="3.74557">
        <ele>135.68</ele>
        <time>2021-08-08T05:28:12Z</time>
      </trkpt>
      <trkpt lat="50.15115" lon="3.74595">
        <ele>135.68</ele>
        <time>2021-08-08T05:28:21Z</time>
      </trkpt>
      <trkpt lat="50.15064" lon="3.74631">
        <ele>135.68</ele>
        <time>2021-08-08T05:28:31Z</time>
      </trkpt>
      <trkpt lat="50.15015" lon="3.74685">
        <ele>134.24</ele>
        <time>2021-08-08T05:28:42Z</time>
      </trkpt>
      <trkpt lat="50.14956" lon="3.74749">
        <ele>134.24</ele>
        <time>2021-08-08T05:28:55Z</time>
      </trkpt>
      <trkpt lat="50.1492" lon="3.74787">
        <ele>134.24</ele>
        <time>2021-08-08T05:29:03Z</time>
      </trkpt>
      <trkpt lat="50.14893" lon="3.74817">
        <ele>134.24</ele>
        <time>2021-08-08T05:29:09Z</time>
      </trkpt>
      <trkpt lat="50.1489" lon="3.74823">
        <ele>134.24</ele>
        <time>2021-08-08T05:29:10Z</time>
      </trkpt>
      <trkpt lat="50.14887" lon="3.7483">
        <ele>134.24</ele>
        <time>2021-08-08T05:29:11Z</time>
      </trkpt>
      <trkpt lat="50.14885" lon="3.74837">
        <ele>134.24</ele>
        <time>2021-08-08T05:29:12Z</time>
      </trkpt>
      <trkpt lat="50.14883" lon="3.74845">
        <ele>134.24</ele>
        <time>2021-08-08T05:29:13Z</time>
      </trkpt>
      <trkpt lat="50.14882" lon="3.74854">
        <ele>134.24</ele>
        <time>2021-08-08T05:29:14Z</time>
      </trkpt>
      <trkpt lat="50.14882" lon="3.74862">
        <ele>134.24</ele>
        <time>2021-08-08T05:29:15Z</time>
      </trkpt>
      <trkpt lat="50.14883" lon="3.74871">
        <ele>134.24</ele>
        <time>2021-08-08T05:29:16Z</time>
      </trkpt>
      <trkpt lat="50.14884" lon="3.74961">
        <ele>134.24</ele>
        <time>2021-08-08T05:29:26Z</time>
      </trkpt>
      <trkpt lat="50.14884" lon="3.74994">
        <ele>134.24</ele>
        <time>2021-08-08T05:29:30Z</time>
      </trkpt>
      <trkpt lat="50.14884" lon="3.75013">
        <ele>134.24</ele>
        <time>2021-08-08T05:29:32Z</time>
      </trkpt>
      <trkpt lat="50.14884" lon="3.75021">
        <ele>134.24</ele>
        <time>2021-08-08T05:29:33Z</time>
      </trkpt>
      <trkpt lat="50.14884" lon="3.75054">
        <ele>134.24</ele>
        <time>2021-08-08T05:29:37Z</time>
      </trkpt>
      <trkpt lat="50.14882" lon="3.7509">
        <ele>135.68</ele>
        <time>2021-08-08T05:29:42Z</time>
      </trkpt>
      <trkpt lat="50.14878" lon="3.75106">
        <ele>135.68</ele>
        <time>2021-08-08T05:29:46Z</time>
      </trkpt>
      <trkpt lat="50.14875" lon="3.75119">
        <ele>135.68</ele>
        <time>2021-08-08T05:29:50Z</time>
      </trkpt>
      <trkpt lat="50.14873" lon="3.75143">
        <ele>135.68</ele>
        <time>2021-08-08T05:29:56Z</time>
      </trkpt>
      <trkpt lat="50.14869" lon="3.75173">
        <ele>135.68</ele>
        <time>2021-08-08T05:30:01Z</time>
      </trkpt>
      <trkpt lat="50.14861" lon="3.75242">
        <ele>135.68</ele>
        <time>2021-08-08T05:30:10Z</time>
      </trkpt>
      <trkpt lat="50.14861" lon="3.7525">
        <ele>135.68</ele>
        <time>2021-08-08T05:30:11Z</time>
      </trkpt>
      <trkpt lat="50.14857" lon="3.75326">
        <ele>135.68</ele>
        <time>2021-08-08T05:30:20Z</time>
      </trkpt>
      <trkpt lat="50.14852" lon="3.75402">
        <ele>135.68</ele>
        <time>2021-08-08T05:30:29Z</time>
      </trkpt>
      <trkpt lat="50.14844" lon="3.75477">
        <ele>135.68</ele>
        <time>2021-08-08T05:30:38Z</time>
      </trkpt>
      <trkpt lat="50.14838" lon="3.755">
        <ele>136.16</ele>
        <time>2021-08-08T05:30:42Z</time>
      </trkpt>
      <trkpt lat="50.14834" lon="3.75503">
        <ele>136.16</ele>
        <time>2021-08-08T05:30:43Z</time>
      </trkpt>
      <trkpt lat="50.14831" lon="3.75505">
        <ele>136.16</ele>
        <time>2021-08-08T05:30:44Z</time>
      </trkpt>
      <trkpt lat="50.14795" lon="3.75514">
        <ele>136.64</ele>
        <time>2021-08-08T05:30:52Z</time>
      </trkpt>
      <trkpt lat="50.14749" lon="3.75519">
        <ele>137.61</ele>
        <time>2021-08-08T05:31:02Z</time>
      </trkpt>
      <trkpt lat="50.14715" lon="3.75526">
        <ele>139.53</ele>
        <time>2021-08-08T05:31:11Z</time>
      </trkpt>
      <trkpt lat="50.14681" lon="3.75544">
        <ele>140.49</ele>
        <time>2021-08-08T05:31:21Z</time>
      </trkpt>
      <trkpt lat="50.14642" lon="3.75573">
        <ele>141.45</ele>
        <time>2021-08-08T05:31:33Z</time>
      </trkpt>
      <trkpt lat="50.14607" lon="3.75598">
        <ele>143.37</ele>
        <time>2021-08-08T05:31:43Z</time>
      </trkpt>
      <trkpt lat="50.14597" lon="3.75602">
        <ele>143.37</ele>
        <time>2021-08-08T05:31:46Z</time>
      </trkpt>
      <trkpt lat="50.14594" lon="3.75598">
        <ele>143.37</ele>
        <time>2021-08-08T05:31:47Z</time>
      </trkpt>
      <trkpt lat="50.14593" lon="3.75594">
        <ele>143.85</ele>
        <time>2021-08-08T05:31:48Z</time>
      </trkpt>
      <trkpt lat="50.14585" lon="3.75545">
        <ele>144.34</ele>
        <time>2021-08-08T05:31:56Z</time>
      </trkpt>
      <trkpt lat="50.14576" lon="3.75467">
        <ele>143.37</ele>
        <time>2021-08-08T05:32:07Z</time>
      </trkpt>
      <trkpt lat="50.14574" lon="3.75459">
        <ele>143.37</ele>
        <time>2021-08-08T05:32:08Z</time>
      </trkpt>
      <trkpt lat="50.14572" lon="3.75453">
        <ele>143.37</ele>
        <time>2021-08-08T05:32:09Z</time>
      </trkpt>
      <trkpt lat="50.14569" lon="3.75446">
        <ele>143.37</ele>
        <time>2021-08-08T05:32:10Z</time>
      </trkpt>
      <trkpt lat="50.14537" lon="3.75371">
        <ele>143.37</ele>
        <time>2021-08-08T05:32:21Z</time>
      </trkpt>
      <trkpt lat="50.14509" lon="3.75321">
        <ele>142.41</ele>
        <time>2021-08-08T05:32:29Z</time>
      </trkpt>
      <trkpt lat="50.14498" lon="3.753">
        <ele>142.41</ele>
        <time>2021-08-08T05:32:32Z</time>
      </trkpt>
      <trkpt lat="50.14495" lon="3.75292">
        <ele>142.41</ele>
        <time>2021-08-08T05:32:33Z</time>
      </trkpt>
      <trkpt lat="50.14492" lon="3.75284">
        <ele>142.41</ele>
        <time>2021-08-08T05:32:34Z</time>
      </trkpt>
      <trkpt lat="50.14478" lon="3.75211">
        <ele>141.93</ele>
        <time>2021-08-08T05:32:42Z</time>
      </trkpt>
      <trkpt lat="50.14461" lon="3.75129">
        <ele>140.49</ele>
        <time>2021-08-08T05:32:51Z</time>
      </trkpt>
      <trkpt lat="50.14447" lon="3.75051">
        <ele>138.57</ele>
        <time>2021-08-08T05:32:59Z</time>
      </trkpt>
      <trkpt lat="50.14429" lon="3.74957">
        <ele>138.09</ele>
        <time>2021-08-08T05:33:09Z</time>
      </trkpt>
      <trkpt lat="50.14409" lon="3.74854">
        <ele>137.13</ele>
        <time>2021-08-08T05:33:20Z</time>
      </trkpt>
      <trkpt lat="50.14401" lon="3.74764">
        <ele>135.68</ele>
        <time>2021-08-08T05:33:29Z</time>
      </trkpt>
      <trkpt lat="50.14399" lon="3.7466">
        <ele>135.68</ele>
        <time>2021-08-08T05:33:40Z</time>
      </trkpt>
      <trkpt lat="50.14393" lon="3.74595">
        <ele>135.68</ele>
        <time>2021-08-08T05:33:47Z</time>
      </trkpt>
      <trkpt lat="50.1439" lon="3.74577">
        <ele>134.72</ele>
        <time>2021-08-08T05:33:49Z</time>
      </trkpt>
      <trkpt lat="50.14376" lon="3.74534">
        <ele>134.72</ele>
        <time>2021-08-08T05:33:54Z</time>
      </trkpt>
      <trkpt lat="50.14373" lon="3.74526">
        <ele>134.72</ele>
        <time>2021-08-08T05:33:55Z</time>
      </trkpt>
      <trkpt lat="50.14358" lon="3.74483">
        <ele>134.72</ele>
        <time>2021-08-08T05:34:00Z</time>
      </trkpt>
      <trkpt lat="50.14356" lon="3.74474">
        <ele>136.16</ele>
        <time>2021-08-08T05:34:01Z</time>
      </trkpt>
      <trkpt lat="50.14357" lon="3.74465">
        <ele>136.16</ele>
        <time>2021-08-08T05:34:02Z</time>
      </trkpt>
      <trkpt lat="50.1436" lon="3.74456">
        <ele>136.16</ele>
        <time>2021-08-08T05:34:03Z</time>
      </trkpt>
      <trkpt lat="50.14363" lon="3.74448">
        <ele>136.16</ele>
        <time>2021-08-08T05:34:04Z</time>
      </trkpt>
      <trkpt lat="50.14366" lon="3.7444">
        <ele>136.16</ele>
        <time>2021-08-08T05:34:05Z</time>
      </trkpt>
      <trkpt lat="50.14368" lon="3.74431">
        <ele>136.16</ele>
        <time>2021-08-08T05:34:06Z</time>
      </trkpt>
      <trkpt lat="50.14369" lon="3.74421">
        <ele>136.16</ele>
        <time>2021-08-08T05:34:07Z</time>
      </trkpt>
      <trkpt lat="50.14369" lon="3.74412">
        <ele>136.16</ele>
        <time>2021-08-08T05:34:08Z</time>
      </trkpt>
      <trkpt lat="50.14368" lon="3.74402">
        <ele>136.16</ele>
        <time>2021-08-08T05:34:09Z</time>
      </trkpt>
      <trkpt lat="50.14367" lon="3.74392">
        <ele>136.16</ele>
        <time>2021-08-08T05:34:10Z</time>
      </trkpt>
      <trkpt lat="50.14365" lon="3.74383">
        <ele>136.16</ele>
        <time>2021-08-08T05:34:11Z</time>
      </trkpt>
      <trkpt lat="50.14346" lon="3.74303">
        <ele>136.16</ele>
        <time>2021-08-08T05:34:20Z</time>
      </trkpt>
      <trkpt lat="50.14323" lon="3.74228">
        <ele>134.24</ele>
        <time>2021-08-08T05:34:29Z</time>
      </trkpt>
      <trkpt lat="50.14302" lon="3.74155">
        <ele>134.24</ele>
        <time>2021-08-08T05:34:38Z</time>
      </trkpt>
      <trkpt lat="50.14298" lon="3.7415">
        <ele>134.24</ele>
        <time>2021-08-08T05:34:39Z</time>
      </trkpt>
      <trkpt lat="50.14293" lon="3.74146">
        <ele>134.24</ele>
        <time>2021-08-08T05:34:40Z</time>
      </trkpt>
      <trkpt lat="50.14288" lon="3.74144">
        <ele>134.24</ele>
        <time>2021-08-08T05:34:41Z</time>
      </trkpt>
      <trkpt lat="50.14283" lon="3.74143">
        <ele>134.24</ele>
        <time>2021-08-08T05:34:42Z</time>
      </trkpt>
      <trkpt lat="50.14278" lon="3.74142">
        <ele>134.24</ele>
        <time>2021-08-08T05:34:43Z</time>
      </trkpt>
      <trkpt lat="50.14237" lon="3.74129">
        <ele>135.68</ele>
        <time>2021-08-08T05:34:51Z</time>
      </trkpt>
      <trkpt lat="50.14217" lon="3.74125">
        <ele>135.68</ele>
        <time>2021-08-08T05:34:56Z</time>
      </trkpt>
      <trkpt lat="50.14214" lon="3.74128">
        <ele>135.68</ele>
        <time>2021-08-08T05:34:57Z</time>
      </trkpt>
      <trkpt lat="50.14212" lon="3.74131">
        <ele>135.68</ele>
        <time>2021-08-08T05:34:58Z</time>
      </trkpt>
      <trkpt lat="50.14209" lon="3.74136">
        <ele>135.68</ele>
        <time>2021-08-08T05:34:59Z</time>
      </trkpt>
      <trkpt lat="50.14207" lon="3.74142">
        <ele>135.68</ele>
        <time>2021-08-08T05:35:00Z</time>
      </trkpt>
      <trkpt lat="50.14205" lon="3.74147">
        <ele>135.68</ele>
        <time>2021-08-08T05:35:01Z</time>
      </trkpt>
      <trkpt lat="50.14178" lon="3.74212">
        <ele>135.68</ele>
        <time>2021-08-08T05:35:11Z</time>
      </trkpt>
      <trkpt lat="50.14146" lon="3.7429">
        <ele>136.16</ele>
        <time>2021-08-08T05:35:23Z</time>
      </trkpt>
      <trkpt lat="50.14118" lon="3.74359">
        <ele>136.64</ele>
        <time>2021-08-08T05:35:33Z</time>
      </trkpt>
      <trkpt lat="50.14116" lon="3.74365">
        <ele>136.64</ele>
        <time>2021-08-08T05:35:34Z</time>
      </trkpt>
      <trkpt lat="50.14093" lon="3.74422">
        <ele>136.64</ele>
        <time>2021-08-08T05:35:42Z</time>
      </trkpt>
      <trkpt lat="50.14058" lon="3.74497">
        <ele>137.13</ele>
        <time>2021-08-08T05:35:53Z</time>
      </trkpt>
      <trkpt lat="50.14037" lon="3.74546">
        <ele>137.13</ele>
        <time>2021-08-08T05:36:00Z</time>
      </trkpt>
      <trkpt lat="50.14007" lon="3.74619">
        <ele>137.13</ele>
        <time>2021-08-08T05:36:10Z</time>
      </trkpt>
      <trkpt lat="50.13983" lon="3.74716">
        <ele>137.13</ele>
        <time>2021-08-08T05:36:22Z</time>
      </trkpt>
      <trkpt lat="50.13957" lon="3.74792">
        <ele>137.61</ele>
        <time>2021-08-08T05:36:32Z</time>
      </trkpt>
      <trkpt lat="50.13925" lon="3.74852">
        <ele>138.09</ele>
        <time>2021-08-08T05:36:41Z</time>
      </trkpt>
      <trkpt lat="50.139" lon="3.74893">
        <ele>138.57</ele>
        <time>2021-08-08T05:36:48Z</time>
      </trkpt>
      <trkpt lat="50.13897" lon="3.749">
        <ele>138.57</ele>
        <time>2021-08-08T05:36:49Z</time>
      </trkpt>
      <trkpt lat="50.13894" lon="3.74908">
        <ele>138.57</ele>
        <time>2021-08-08T05:36:50Z</time>
      </trkpt>
      <trkpt lat="50.13891" lon="3.74917">
        <ele>138.57</ele>
        <time>2021-08-08T05:36:51Z</time>
      </trkpt>
      <trkpt lat="50.1389" lon="3.74925">
        <ele>138.57</ele>
        <time>2021-08-08T05:36:52Z</time>
      </trkpt>
      <trkpt lat="50.13888" lon="3.74933">
        <ele>138.57</ele>
        <time>2021-08-08T05:36:53Z</time>
      </trkpt>
      <trkpt lat="50.1387" lon="3.74995">
        <ele>138.57</ele>
        <time>2021-08-08T05:37:01Z</time>
      </trkpt>
      <trkpt lat="50.13844" lon="3.75039">
        <ele>138.57</ele>
        <time>2021-08-08T05:37:08Z</time>
      </trkpt>
      <trkpt lat="50.13804" lon="3.75077">
        <ele>139.05</ele>
        <time>2021-08-08T05:37:17Z</time>
      </trkpt>
      <trkpt lat="50.13791" lon="3.7509">
        <ele>139.05</ele>
        <time>2021-08-08T05:37:20Z</time>
      </trkpt>
      <trkpt lat="50.13783" lon="3.75102">
        <ele>139.53</ele>
        <time>2021-08-08T05:37:22Z</time>
      </trkpt>
      <trkpt lat="50.1378" lon="3.75108">
        <ele>139.53</ele>
        <time>2021-08-08T05:37:23Z</time>
      </trkpt>
      <trkpt lat="50.13777" lon="3.75114">
        <ele>139.53</ele>
        <time>2021-08-08T05:37:24Z</time>
      </trkpt>
      <trkpt lat="50.13774" lon="3.75122">
        <ele>140.01</ele>
        <time>2021-08-08T05:37:25Z</time>
      </trkpt>
      <trkpt lat="50.13772" lon="3.75129">
        <ele>140.01</ele>
        <time>2021-08-08T05:37:26Z</time>
      </trkpt>
      <trkpt lat="50.1377" lon="3.75137">
        <ele>140.01</ele>
        <time>2021-08-08T05:37:27Z</time>
      </trkpt>
      <trkpt lat="50.13758" lon="3.752">
        <ele>140.49</ele>
        <time>2021-08-08T05:37:35Z</time>
      </trkpt>
      <trkpt lat="50.13746" lon="3.75295">
        <ele>140.49</ele>
        <time>2021-08-08T05:37:46Z</time>
      </trkpt>
      <trkpt lat="50.13739" lon="3.75367">
        <ele>140.97</ele>
        <time>2021-08-08T05:37:55Z</time>
      </trkpt>
      <trkpt lat="50.13734" lon="3.75389">
        <ele>141.93</ele>
        <time>2021-08-08T05:37:58Z</time>
      </trkpt>
      <trkpt lat="50.13717" lon="3.75438">
        <ele>142.89</ele>
        <time>2021-08-08T05:38:06Z</time>
      </trkpt>
      <trkpt lat="50.13691" lon="3.75485">
        <ele>144.34</ele>
        <time>2021-08-08T05:38:16Z</time>
      </trkpt>
      <trkpt lat="50.1366" lon="3.7553">
        <ele>144.34</ele>
        <time>2021-08-08T05:38:25Z</time>
      </trkpt>
      <trkpt lat="50.13626" lon="3.75577">
        <ele>144.82</ele>
        <time>2021-08-08T05:38:35Z</time>
      </trkpt>
      <trkpt lat="50.13601" lon="3.75623">
        <ele>145.78</ele>
        <time>2021-08-08T05:38:45Z</time>
      </trkpt>
      <trkpt lat="50.13592" lon="3.75638">
        <ele>145.78</ele>
        <time>2021-08-08T05:38:48Z</time>
      </trkpt>
      <trkpt lat="50.1358" lon="3.75652">
        <ele>145.78</ele>
        <time>2021-08-08T05:38:51Z</time>
      </trkpt>
      <trkpt lat="50.13551" lon="3.75683">
        <ele>143.85</ele>
        <time>2021-08-08T05:38:58Z</time>
      </trkpt>
      <trkpt lat="50.13543" lon="3.75696">
        <ele>143.85</ele>
        <time>2021-08-08T05:39:00Z</time>
      </trkpt>
      <trkpt lat="50.13513" lon="3.75749">
        <ele>143.37</ele>
        <time>2021-08-08T05:39:08Z</time>
      </trkpt>
      <trkpt lat="50.13509" lon="3.75755">
        <ele>144.34</ele>
        <time>2021-08-08T05:39:09Z</time>
      </trkpt>
      <trkpt lat="50.13502" lon="3.75763">
        <ele>144.34</ele>
        <time>2021-08-08T05:39:11Z</time>
      </trkpt>
      <trkpt lat="50.13479" lon="3.75788">
        <ele>144.34</ele>
        <time>2021-08-08T05:39:17Z</time>
      </trkpt>
      <trkpt lat="50.13476" lon="3.75794">
        <ele>144.34</ele>
        <time>2021-08-08T05:39:18Z</time>
      </trkpt>
      <trkpt lat="50.13454" lon="3.75846">
        <ele>145.78</ele>
        <time>2021-08-08T05:39:27Z</time>
      </trkpt>
      <trkpt lat="50.13447" lon="3.75862">
        <ele>146.26</ele>
        <time>2021-08-08T05:39:30Z</time>
      </trkpt>
      <trkpt lat="50.13426" lon="3.75905">
        <ele>146.74</ele>
        <time>2021-08-08T05:39:39Z</time>
      </trkpt>
      <trkpt lat="50.13408" lon="3.75938">
        <ele>147.22</ele>
        <time>2021-08-08T05:39:47Z</time>
      </trkpt>
      <trkpt lat="50.13401" lon="3.75941">
        <ele>147.22</ele>
        <time>2021-08-08T05:39:51Z</time>
      </trkpt>
      <trkpt lat="50.13398" lon="3.75946">
        <ele>147.22</ele>
        <time>2021-08-08T05:39:53Z</time>
      </trkpt>
      <trkpt lat="50.13397" lon="3.7595">
        <ele>147.22</ele>
        <time>2021-08-08T05:39:54Z</time>
      </trkpt>
      <trkpt lat="50.13397" lon="3.75953">
        <ele>147.7</ele>
        <time>2021-08-08T05:39:55Z</time>
      </trkpt>
      <trkpt lat="50.13397" lon="3.75957">
        <ele>147.7</ele>
        <time>2021-08-08T05:39:56Z</time>
      </trkpt>
      <trkpt lat="50.13397" lon="3.75961">
        <ele>147.7</ele>
        <time>2021-08-08T05:39:57Z</time>
      </trkpt>
      <trkpt lat="50.13398" lon="3.75965">
        <ele>147.7</ele>
        <time>2021-08-08T05:39:58Z</time>
      </trkpt>
      <trkpt lat="50.13398" lon="3.75969">
        <ele>148.18</ele>
        <time>2021-08-08T05:39:59Z</time>
      </trkpt>
      <trkpt lat="50.13398" lon="3.75973">
        <ele>148.18</ele>
        <time>2021-08-08T05:40:00Z</time>
      </trkpt>
      <trkpt lat="50.13405" lon="3.75995">
        <ele>149.14</ele>
        <time>2021-08-08T05:40:07Z</time>
      </trkpt>
      <trkpt lat="50.13422" lon="3.76023">
        <ele>150.1</ele>
        <time>2021-08-08T05:40:16Z</time>
      </trkpt>
      <trkpt lat="50.13434" lon="3.76035">
        <ele>151.06</ele>
        <time>2021-08-08T05:40:22Z</time>
      </trkpt>
      <trkpt lat="50.13454" lon="3.7605">
        <ele>152.03</ele>
        <time>2021-08-08T05:40:30Z</time>
      </trkpt>
      <trkpt lat="50.13488" lon="3.76072">
        <ele>153.95</ele>
        <time>2021-08-08T05:40:41Z</time>
      </trkpt>
      <trkpt lat="50.13495" lon="3.76083">
        <ele>154.43</ele>
        <time>2021-08-08T05:40:47Z</time>
      </trkpt>
      <trkpt lat="50.13499" lon="3.76082">
        <ele>154.91</ele>
        <time>2021-08-08T05:40:55Z</time>
      </trkpt>
      <trkpt lat="50.13501" lon="3.76081">
        <ele>154.91</ele>
        <time>2021-08-08T05:41:02Z</time>
      </trkpt>
      <trkpt lat="50.135" lon="3.76075">
        <ele>154.91</ele>
        <time>2021-08-08T05:41:17Z</time>
      </trkpt>
      <trkpt lat="50.135" lon="3.76077">
        <ele>155.39</ele>
        <time>2021-08-08T05:41:29Z</time>
      </trkpt>
      <trkpt lat="50.135" lon="3.76079">
        <ele>155.39</ele>
        <time>2021-08-08T05:41:41Z</time>
      </trkpt>
      <trkpt lat="50.13498" lon="3.76072">
        <ele>155.39</ele>
        <time>2021-08-08T05:42:01Z</time>
      </trkpt>
      <trkpt lat="50.13495" lon="3.76064">
        <ele>155.87</ele>
        <time>2021-08-08T05:42:20Z</time>
      </trkpt>
      <trkpt lat="50.13495" lon="3.76072">
        <ele>155.87</ele>
        <time>2021-08-08T05:42:35Z</time>
      </trkpt>
      <trkpt lat="50.13495" lon="3.76069">
        <ele>155.87</ele>
        <time>2021-08-08T05:42:53Z</time>
      </trkpt>
      <trkpt lat="50.13495" lon="3.76056">
        <ele>155.87</ele>
        <time>2021-08-08T05:43:07Z</time>
      </trkpt>
      <trkpt lat="50.13495" lon="3.76059">
        <ele>156.35</ele>
        <time>2021-08-08T05:43:26Z</time>
      </trkpt>
      <trkpt lat="50.13496" lon="3.76053">
        <ele>156.35</ele>
        <time>2021-08-08T05:43:44Z</time>
      </trkpt>
      <trkpt lat="50.13495" lon="3.76051">
        <ele>156.83</ele>
        <time>2021-08-08T05:44:03Z</time>
      </trkpt>
      <trkpt lat="50.13497" lon="3.76073">
        <ele>156.83</ele>
        <time>2021-08-08T05:44:21Z</time>
      </trkpt>
      <trkpt lat="50.13499" lon="3.76069">
        <ele>157.31</ele>
        <time>2021-08-08T05:44:37Z</time>
      </trkpt>
      <trkpt lat="50.135" lon="3.76066">
        <ele>157.31</ele>
        <time>2021-08-08T05:44:59Z</time>
      </trkpt>
      <trkpt lat="50.13499" lon="3.76069">
        <ele>157.31</ele>
        <time>2021-08-08T05:45:19Z</time>
      </trkpt>
      <trkpt lat="50.13499" lon="3.76074">
        <ele>157.31</ele>
        <time>2021-08-08T05:45:36Z</time>
      </trkpt>
      <trkpt lat="50.13499" lon="3.76065">
        <ele>157.31</ele>
        <time>2021-08-08T05:45:52Z</time>
      </trkpt>
      <trkpt lat="50.135" lon="3.76054">
        <ele>157.31</ele>
        <time>2021-08-08T05:46:09Z</time>
      </trkpt>
      <trkpt lat="50.135" lon="3.7606">
        <ele>157.31</ele>
        <time>2021-08-08T05:46:24Z</time>
      </trkpt>
      <trkpt lat="50.13499" lon="3.76074">
        <ele>157.31</ele>
        <time>2021-08-08T05:46:31Z</time>
      </trkpt>
      <trkpt lat="50.13498" lon="3.76075">
        <ele>157.31</ele>
        <time>2021-08-08T05:46:32Z</time>
      </trkpt>
      <trkpt lat="50.13497" lon="3.76074">
        <ele>157.31</ele>
        <time>2021-08-08T05:46:33Z</time>
      </trkpt>
      <trkpt lat="50.13484" lon="3.76067">
        <ele>157.31</ele>
        <time>2021-08-08T05:46:42Z</time>
      </trkpt>
      <trkpt lat="50.13472" lon="3.76063">
        <ele>155.87</ele>
        <time>2021-08-08T05:46:47Z</time>
      </trkpt>
      <trkpt lat="50.13458" lon="3.76065">
        <ele>155.87</ele>
        <time>2021-08-08T05:46:53Z</time>
      </trkpt>
      <trkpt lat="50.13444" lon="3.7605">
        <ele>153.95</ele>
        <time>2021-08-08T05:47:01Z</time>
      </trkpt>
      <trkpt lat="50.13442" lon="3.76048">
        <ele>153.95</ele>
        <time>2021-08-08T05:47:02Z</time>
      </trkpt>
      <trkpt lat="50.13427" lon="3.7604">
        <ele>153.47</ele>
        <time>2021-08-08T05:47:09Z</time>
      </trkpt>
      <trkpt lat="50.13417" lon="3.76044">
        <ele>153.47</ele>
        <time>2021-08-08T05:47:15Z</time>
      </trkpt>
      <trkpt lat="50.13415" lon="3.76041">
        <ele>153.47</ele>
        <time>2021-08-08T05:47:22Z</time>
      </trkpt>
      <trkpt lat="50.13413" lon="3.7604">
        <ele>153.47</ele>
        <time>2021-08-08T05:47:35Z</time>
      </trkpt>
      <trkpt lat="50.13414" lon="3.7604">
        <ele>153.47</ele>
        <time>2021-08-08T05:47:56Z</time>
      </trkpt>
      <trkpt lat="50.13411" lon="3.76038">
        <ele>153.47</ele>
        <time>2021-08-08T05:48:07Z</time>
      </trkpt>
      <trkpt lat="50.13415" lon="3.76036">
        <ele>153.47</ele>
        <time>2021-08-08T05:48:24Z</time>
      </trkpt>
      <trkpt lat="50.13415" lon="3.76038">
        <ele>153.47</ele>
        <time>2021-08-08T05:48:44Z</time>
      </trkpt>
      <trkpt lat="50.13415" lon="3.76037">
        <ele>153.47</ele>
        <time>2021-08-08T05:48:48Z</time>
      </trkpt>
      <trkpt lat="50.13415" lon="3.76036">
        <ele>153.47</ele>
        <time>2021-08-08T05:48:49Z</time>
      </trkpt>
      <trkpt lat="50.13415" lon="3.76034">
        <ele>153.47</ele>
        <time>2021-08-08T05:48:55Z</time>
      </trkpt>
      <trkpt lat="50.13415" lon="3.7604">
        <ele>153.47</ele>
        <time>2021-08-08T05:49:17Z</time>
      </trkpt>
      <trkpt lat="50.13417" lon="3.76038">
        <ele>153.47</ele>
        <time>2021-08-08T05:49:43Z</time>
      </trkpt>
      <trkpt lat="50.13418" lon="3.76043">
        <ele>153.47</ele>
        <time>2021-08-08T05:50:06Z</time>
      </trkpt>
      <trkpt lat="50.13418" lon="3.76045">
        <ele>153.47</ele>
        <time>2021-08-08T05:50:26Z</time>
      </trkpt>
      <trkpt lat="50.13418" lon="3.76049">
        <ele>153.47</ele>
        <time>2021-08-08T05:50:46Z</time>
      </trkpt>
      <trkpt lat="50.13417" lon="3.7605">
        <ele>153.47</ele>
        <time>2021-08-08T05:51:01Z</time>
      </trkpt>
      <trkpt lat="50.13417" lon="3.76045">
        <ele>153.47</ele>
        <time>2021-08-08T05:51:16Z</time>
      </trkpt>
      <trkpt lat="50.13417" lon="3.76037">
        <ele>153.47</ele>
        <time>2021-08-08T05:51:35Z</time>
      </trkpt>
      <trkpt lat="50.13418" lon="3.76035">
        <ele>153.47</ele>
        <time>2021-08-08T05:51:51Z</time>
      </trkpt>
      <trkpt lat="50.13417" lon="3.76031">
        <ele>153.47</ele>
        <time>2021-08-08T05:52:10Z</time>
      </trkpt>
      <trkpt lat="50.13414" lon="3.76032">
        <ele>153.47</ele>
        <time>2021-08-08T05:52:35Z</time>
      </trkpt>
      <trkpt lat="50.13415" lon="3.76031">
        <ele>153.47</ele>
        <time>2021-08-08T05:52:58Z</time>
      </trkpt>
      <trkpt lat="50.13414" lon="3.76032">
        <ele>153.47</ele>
        <time>2021-08-08T05:53:12Z</time>
      </trkpt>
      <trkpt lat="50.13417" lon="3.76037">
        <ele>153.47</ele>
        <time>2021-08-08T05:53:32Z</time>
      </trkpt>
      <trkpt lat="50.13414" lon="3.76041">
        <ele>153.47</ele>
        <time>2021-08-08T05:53:49Z</time>
      </trkpt>
      <trkpt lat="50.13417" lon="3.76041">
        <ele>152.99</ele>
        <time>2021-08-08T05:53:57Z</time>
      </trkpt>
      <trkpt lat="50.13417" lon="3.76041">
        <ele>152.99</ele>
        <time>2021-08-08T05:54:18Z</time>
      </trkpt>
      <trkpt lat="50.13418" lon="3.76047">
        <ele>152.99</ele>
        <time>2021-08-08T05:54:32Z</time>
      </trkpt>
      <trkpt lat="50.13417" lon="3.7605">
        <ele>152.99</ele>
        <time>2021-08-08T05:54:45Z</time>
      </trkpt>
      <trkpt lat="50.13417" lon="3.76048">
        <ele>152.99</ele>
        <time>2021-08-08T05:55:05Z</time>
      </trkpt>
      <trkpt lat="50.13414" lon="3.7605">
        <ele>152.51</ele>
        <time>2021-08-08T05:55:24Z</time>
      </trkpt>
      <trkpt lat="50.13415" lon="3.76044">
        <ele>152.51</ele>
        <time>2021-08-08T05:55:43Z</time>
      </trkpt>
      <trkpt lat="50.13416" lon="3.76044">
        <ele>152.51</ele>
        <time>2021-08-08T05:55:59Z</time>
      </trkpt>
      <trkpt lat="50.13417" lon="3.76041">
        <ele>152.51</ele>
        <time>2021-08-08T05:56:16Z</time>
      </trkpt>
      <trkpt lat="50.13415" lon="3.76038">
        <ele>152.51</ele>
        <time>2021-08-08T05:56:40Z</time>
      </trkpt>
      <trkpt lat="50.13415" lon="3.7604">
        <ele>152.51</ele>
        <time>2021-08-08T05:56:59Z</time>
      </trkpt>
      <trkpt lat="50.13412" lon="3.76047">
        <ele>152.51</ele>
        <time>2021-08-08T05:57:20Z</time>
      </trkpt>
      <trkpt lat="50.13416" lon="3.76045">
        <ele>152.03</ele>
        <time>2021-08-08T05:57:35Z</time>
      </trkpt>
      <trkpt lat="50.13416" lon="3.76043">
        <ele>152.03</ele>
        <time>2021-08-08T05:57:49Z</time>
      </trkpt>
      <trkpt lat="50.13411" lon="3.76043">
        <ele>151.54</ele>
        <time>2021-08-08T05:58:03Z</time>
      </trkpt>
      <trkpt lat="50.13407" lon="3.7604">
        <ele>151.54</ele>
        <time>2021-08-08T05:58:20Z</time>
      </trkpt>
      <trkpt lat="50.13411" lon="3.76036">
        <ele>151.54</ele>
        <time>2021-08-08T05:58:34Z</time>
      </trkpt>
      <trkpt lat="50.1341" lon="3.76036">
        <ele>151.54</ele>
        <time>2021-08-08T05:58:42Z</time>
      </trkpt>
      <trkpt lat="50.1341" lon="3.76037">
        <ele>151.54</ele>
        <time>2021-08-08T05:58:44Z</time>
      </trkpt>
      <trkpt lat="50.1341" lon="3.7604">
        <ele>151.54</ele>
        <time>2021-08-08T05:58:51Z</time>
      </trkpt>
      <trkpt lat="50.13409" lon="3.76039">
        <ele>151.54</ele>
        <time>2021-08-08T05:59:04Z</time>
      </trkpt>
      <trkpt lat="50.13413" lon="3.76037">
        <ele>151.54</ele>
        <time>2021-08-08T05:59:27Z</time>
      </trkpt>
      <trkpt lat="50.13412" lon="3.76036">
        <ele>151.54</ele>
        <time>2021-08-08T05:59:41Z</time>
      </trkpt>
      <trkpt lat="50.13411" lon="3.76035">
        <ele>151.54</ele>
        <time>2021-08-08T06:00:03Z</time>
      </trkpt>
      <trkpt lat="50.13413" lon="3.76038">
        <ele>151.54</ele>
        <time>2021-08-08T06:00:18Z</time>
      </trkpt>
      <trkpt lat="50.13415" lon="3.76039">
        <ele>151.54</ele>
        <time>2021-08-08T06:00:40Z</time>
      </trkpt>
      <trkpt lat="50.13412" lon="3.76042">
        <ele>151.54</ele>
        <time>2021-08-08T06:01:01Z</time>
      </trkpt>
      <trkpt lat="50.13413" lon="3.7604">
        <ele>151.54</ele>
        <time>2021-08-08T06:01:28Z</time>
      </trkpt>
      <trkpt lat="50.13413" lon="3.76043">
        <ele>151.54</ele>
        <time>2021-08-08T06:01:54Z</time>
      </trkpt>
      <trkpt lat="50.13417" lon="3.76039">
        <ele>151.54</ele>
        <time>2021-08-08T06:02:17Z</time>
      </trkpt>
      <trkpt lat="50.13418" lon="3.76042">
        <ele>151.54</ele>
        <time>2021-08-08T06:02:35Z</time>
      </trkpt>
      <trkpt lat="50.13419" lon="3.76041">
        <ele>151.54</ele>
        <time>2021-08-08T06:03:01Z</time>
      </trkpt>
      <trkpt lat="50.13416" lon="3.76038">
        <ele>151.54</ele>
        <time>2021-08-08T06:03:21Z</time>
      </trkpt>
      <trkpt lat="50.13415" lon="3.76037">
        <ele>151.54</ele>
        <time>2021-08-08T06:03:40Z</time>
      </trkpt>
      <trkpt lat="50.13417" lon="3.76038">
        <ele>151.54</ele>
        <time>2021-08-08T06:04:05Z</time>
      </trkpt>
      <trkpt lat="50.13415" lon="3.76041">
        <ele>151.54</ele>
        <time>2021-08-08T06:04:27Z</time>
      </trkpt>
      <trkpt lat="50.13418" lon="3.76039">
        <ele>151.54</ele>
        <time>2021-08-08T06:04:47Z</time>
      </trkpt>
      <trkpt lat="50.13418" lon="3.76038">
        <ele>151.54</ele>
        <time>2021-08-08T06:05:07Z</time>
      </trkpt>
      <trkpt lat="50.13419" lon="3.7604">
        <ele>151.54</ele>
        <time>2021-08-08T06:05:39Z</time>
      </trkpt>
      <trkpt lat="50.1342" lon="3.76039">
        <ele>151.54</ele>
        <time>2021-08-08T06:06:00Z</time>
      </trkpt>
      <trkpt lat="50.1342" lon="3.76034">
        <ele>151.54</ele>
        <time>2021-08-08T06:06:31Z</time>
      </trkpt>
      <trkpt lat="50.13419" lon="3.76038">
        <ele>151.54</ele>
        <time>2021-08-08T06:06:54Z</time>
      </trkpt>
      <trkpt lat="50.13419" lon="3.7604">
        <ele>151.54</ele>
        <time>2021-08-08T06:07:09Z</time>
      </trkpt>
      <trkpt lat="50.13418" lon="3.76041">
        <ele>151.54</ele>
        <time>2021-08-08T06:07:23Z</time>
      </trkpt>
      <trkpt lat="50.13421" lon="3.76041">
        <ele>151.54</ele>
        <time>2021-08-08T06:07:45Z</time>
      </trkpt>
      <trkpt lat="50.13417" lon="3.76039">
        <ele>151.54</ele>
        <time>2021-08-08T06:08:05Z</time>
      </trkpt>
      <trkpt lat="50.13417" lon="3.7604">
        <ele>152.03</ele>
        <time>2021-08-08T06:08:28Z</time>
      </trkpt>
      <trkpt lat="50.1342" lon="3.76039">
        <ele>152.03</ele>
        <time>2021-08-08T06:08:51Z</time>
      </trkpt>
      <trkpt lat="50.13422" lon="3.76041">
        <ele>152.03</ele>
        <time>2021-08-08T06:09:09Z</time>
      </trkpt>
      <trkpt lat="50.13422" lon="3.7604">
        <ele>152.03</ele>
        <time>2021-08-08T06:09:28Z</time>
      </trkpt>
      <trkpt lat="50.13423" lon="3.7604">
        <ele>152.03</ele>
        <time>2021-08-08T06:09:47Z</time>
      </trkpt>
      <trkpt lat="50.13422" lon="3.76039">
        <ele>152.03</ele>
        <time>2021-08-08T06:10:01Z</time>
      </trkpt>
      <trkpt lat="50.13421" lon="3.7604">
        <ele>152.03</ele>
        <time>2021-08-08T06:10:15Z</time>
      </trkpt>
      <trkpt lat="50.13421" lon="3.76041">
        <ele>152.03</ele>
        <time>2021-08-08T06:10:32Z</time>
      </trkpt>
      <trkpt lat="50.1342" lon="3.76042">
        <ele>152.03</ele>
        <time>2021-08-08T06:10:47Z</time>
      </trkpt>
      <trkpt lat="50.13418" lon="3.76041">
        <ele>152.03</ele>
        <time>2021-08-08T06:11:00Z</time>
      </trkpt>
      <trkpt lat="50.13417" lon="3.76038">
        <ele>152.03</ele>
        <time>2021-08-08T06:11:15Z</time>
      </trkpt>
      <trkpt lat="50.13415" lon="3.76037">
        <ele>152.03</ele>
        <time>2021-08-08T06:11:28Z</time>
      </trkpt>
      <trkpt lat="50.13414" lon="3.76034">
        <ele>152.03</ele>
        <time>2021-08-08T06:11:38Z</time>
      </trkpt>
      <trkpt lat="50.13417" lon="3.76035">
        <ele>152.03</ele>
        <time>2021-08-08T06:11:46Z</time>
      </trkpt>
      <trkpt lat="50.13417" lon="3.7604">
        <ele>152.03</ele>
        <time>2021-08-08T06:12:02Z</time>
      </trkpt>
      <trkpt lat="50.1342" lon="3.76045">
        <ele>151.54</ele>
        <time>2021-08-08T06:12:22Z</time>
      </trkpt>
      <trkpt lat="50.13418" lon="3.7604">
        <ele>151.54</ele>
        <time>2021-08-08T06:12:47Z</time>
      </trkpt>
      <trkpt lat="50.13418" lon="3.76041">
        <ele>151.54</ele>
        <time>2021-08-08T06:13:00Z</time>
      </trkpt>
      <trkpt lat="50.13418" lon="3.76038">
        <ele>151.54</ele>
        <time>2021-08-08T06:13:17Z</time>
      </trkpt>
      <trkpt lat="50.1342" lon="3.76042">
        <ele>151.54</ele>
        <time>2021-08-08T06:13:33Z</time>
      </trkpt>
      <trkpt lat="50.13419" lon="3.76042">
        <ele>151.54</ele>
        <time>2021-08-08T06:13:44Z</time>
      </trkpt>
      <trkpt lat="50.13417" lon="3.76042">
        <ele>151.54</ele>
        <time>2021-08-08T06:14:04Z</time>
      </trkpt>
      <trkpt lat="50.13418" lon="3.76047">
        <ele>151.06</ele>
        <time>2021-08-08T06:14:17Z</time>
      </trkpt>
      <trkpt lat="50.13416" lon="3.76045">
        <ele>151.06</ele>
        <time>2021-08-08T06:14:28Z</time>
      </trkpt>
      <trkpt lat="50.13413" lon="3.76041">
        <ele>151.54</ele>
        <time>2021-08-08T06:14:41Z</time>
      </trkpt>
      <trkpt lat="50.13417" lon="3.76042">
        <ele>151.06</ele>
        <time>2021-08-08T06:14:55Z</time>
      </trkpt>
      <trkpt lat="50.13414" lon="3.76044">
        <ele>151.06</ele>
        <time>2021-08-08T06:15:18Z</time>
      </trkpt>
      <trkpt lat="50.13414" lon="3.76044">
        <ele>151.06</ele>
        <time>2021-08-08T06:15:33Z</time>
      </trkpt>
      <trkpt lat="50.13418" lon="3.76043">
        <ele>151.06</ele>
        <time>2021-08-08T06:15:49Z</time>
      </trkpt>
      <trkpt lat="50.13416" lon="3.76043">
        <ele>151.06</ele>
        <time>2021-08-08T06:16:11Z</time>
      </trkpt>
      <trkpt lat="50.13415" lon="3.76046">
        <ele>151.06</ele>
        <time>2021-08-08T06:16:25Z</time>
      </trkpt>
      <trkpt lat="50.13411" lon="3.76043">
        <ele>151.06</ele>
        <time>2021-08-08T06:16:38Z</time>
      </trkpt>
      <trkpt lat="50.13411" lon="3.76042">
        <ele>151.06</ele>
        <time>2021-08-08T06:16:51Z</time>
      </trkpt>
      <trkpt lat="50.13414" lon="3.76039">
        <ele>151.06</ele>
        <time>2021-08-08T06:17:03Z</time>
      </trkpt>
      <trkpt lat="50.13416" lon="3.76036">
        <ele>150.58</ele>
        <time>2021-08-08T06:17:17Z</time>
      </trkpt>
      <trkpt lat="50.13417" lon="3.76039">
        <ele>150.58</ele>
        <time>2021-08-08T06:17:31Z</time>
      </trkpt>
      <trkpt lat="50.13417" lon="3.76043">
        <ele>150.58</ele>
        <time>2021-08-08T06:17:44Z</time>
      </trkpt>
      <trkpt lat="50.13417" lon="3.76041">
        <ele>150.58</ele>
        <time>2021-08-08T06:18:02Z</time>
      </trkpt>
      <trkpt lat="50.13415" lon="3.76044">
        <ele>150.58</ele>
        <time>2021-08-08T06:18:19Z</time>
      </trkpt>
      <trkpt lat="50.13414" lon="3.76044">
        <ele>150.58</ele>
        <time>2021-08-08T06:18:39Z</time>
      </trkpt>
      <trkpt lat="50.13415" lon="3.7604">
        <ele>150.58</ele>
        <time>2021-08-08T06:18:57Z</time>
      </trkpt>
      <trkpt lat="50.13418" lon="3.7604">
        <ele>150.58</ele>
        <time>2021-08-08T06:19:10Z</time>
      </trkpt>
      <trkpt lat="50.13416" lon="3.76039">
        <ele>150.58</ele>
        <time>2021-08-08T06:19:26Z</time>
      </trkpt>
      <trkpt lat="50.13416" lon="3.7604">
        <ele>150.58</ele>
        <time>2021-08-08T06:19:42Z</time>
      </trkpt>
      <trkpt lat="50.13421" lon="3.7604">
        <ele>150.1</ele>
        <time>2021-08-08T06:19:59Z</time>
      </trkpt>
      <trkpt lat="50.13418" lon="3.76039">
        <ele>150.1</ele>
        <time>2021-08-08T06:20:13Z</time>
      </trkpt>
      <trkpt lat="50.13417" lon="3.76044">
        <ele>150.1</ele>
        <time>2021-08-08T06:20:28Z</time>
      </trkpt>
      <trkpt lat="50.13419" lon="3.76043">
        <ele>150.1</ele>
        <time>2021-08-08T06:20:39Z</time>
      </trkpt>
      <trkpt lat="50.13419" lon="3.76041">
        <ele>150.1</ele>
        <time>2021-08-08T06:20:49Z</time>
      </trkpt>
      <trkpt lat="50.1342" lon="3.76038">
        <ele>150.1</ele>
        <time>2021-08-08T06:21:03Z</time>
      </trkpt>
      <trkpt lat="50.13421" lon="3.76039">
        <ele>150.1</ele>
        <time>2021-08-08T06:21:12Z</time>
      </trkpt>
      <trkpt lat="50.1342" lon="3.7604">
        <ele>150.1</ele>
        <time>2021-08-08T06:21:33Z</time>
      </trkpt>
      <trkpt lat="50.13419" lon="3.7604">
        <ele>150.1</ele>
        <time>2021-08-08T06:21:46Z</time>
      </trkpt>
      <trkpt lat="50.13417" lon="3.76041">
        <ele>150.1</ele>
        <time>2021-08-08T06:22:03Z</time>
      </trkpt>
      <trkpt lat="50.13413" lon="3.76043">
        <ele>150.1</ele>
        <time>2021-08-08T06:22:17Z</time>
      </trkpt>
      <trkpt lat="50.13413" lon="3.76041">
        <ele>150.1</ele>
        <time>2021-08-08T06:22:31Z</time>
      </trkpt>
      <trkpt lat="50.13417" lon="3.76037">
        <ele>150.1</ele>
        <time>2021-08-08T06:22:47Z</time>
      </trkpt>
      <trkpt lat="50.13416" lon="3.76038">
        <ele>150.1</ele>
        <time>2021-08-08T06:23:05Z</time>
      </trkpt>
      <trkpt lat="50.13411" lon="3.76044">
        <ele>150.1</ele>
        <time>2021-08-08T06:23:19Z</time>
      </trkpt>
      <trkpt lat="50.13413" lon="3.76045">
        <ele>150.1</ele>
        <time>2021-08-08T06:23:33Z</time>
      </trkpt>
      <trkpt lat="50.13413" lon="3.76042">
        <ele>149.62</ele>
        <time>2021-08-08T06:23:46Z</time>
      </trkpt>
      <trkpt lat="50.13413" lon="3.76041">
        <ele>149.62</ele>
        <time>2021-08-08T06:23:50Z</time>
      </trkpt>
      <trkpt lat="50.13412" lon="3.76042">
        <ele>149.62</ele>
        <time>2021-08-08T06:23:57Z</time>
      </trkpt>
      <trkpt lat="50.13412" lon="3.76041">
        <ele>149.62</ele>
        <time>2021-08-08T06:24:04Z</time>
      </trkpt>
      <trkpt lat="50.13411" lon="3.76042">
        <ele>149.62</ele>
        <time>2021-08-08T06:24:13Z</time>
      </trkpt>
      <trkpt lat="50.13414" lon="3.76043">
        <ele>149.62</ele>
        <time>2021-08-08T06:24:25Z</time>
      </trkpt>
      <trkpt lat="50.13415" lon="3.7604">
        <ele>149.62</ele>
        <time>2021-08-08T06:24:33Z</time>
      </trkpt>
      <trkpt lat="50.13414" lon="3.76037">
        <ele>149.62</ele>
        <time>2021-08-08T06:24:34Z</time>
      </trkpt>
      <trkpt lat="50.13415" lon="3.76033">
        <ele>149.62</ele>
        <time>2021-08-08T06:24:37Z</time>
      </trkpt>
      <trkpt lat="50.13418" lon="3.76039">
        <ele>149.62</ele>
        <time>2021-08-08T06:24:42Z</time>
      </trkpt>
      <trkpt lat="50.13423" lon="3.76053">
        <ele>149.62</ele>
        <time>2021-08-08T06:24:47Z</time>
      </trkpt>
      <trkpt lat="50.13433" lon="3.76096">
        <ele>149.62</ele>
        <time>2021-08-08T06:24:55Z</time>
      </trkpt>
      <trkpt lat="50.13443" lon="3.76133">
        <ele>149.62</ele>
        <time>2021-08-08T06:25:02Z</time>
      </trkpt>
      <trkpt lat="50.1345" lon="3.7614">
        <ele>151.06</ele>
        <time>2021-08-08T06:25:07Z</time>
      </trkpt>
      <trkpt lat="50.1345" lon="3.76138">
        <ele>151.06</ele>
        <time>2021-08-08T06:25:14Z</time>
      </trkpt>
      <trkpt lat="50.13451" lon="3.76138">
        <ele>151.06</ele>
        <time>2021-08-08T06:25:27Z</time>
      </trkpt>
      <trkpt lat="50.1345" lon="3.76142">
        <ele>151.06</ele>
        <time>2021-08-08T06:25:49Z</time>
      </trkpt>
      <trkpt lat="50.13452" lon="3.76145">
        <ele>151.54</ele>
        <time>2021-08-08T06:26:08Z</time>
      </trkpt>
      <trkpt lat="50.13454" lon="3.76145">
        <ele>151.54</ele>
        <time>2021-08-08T06:26:31Z</time>
      </trkpt>
      <trkpt lat="50.13454" lon="3.76142">
        <ele>151.54</ele>
        <time>2021-08-08T06:26:55Z</time>
      </trkpt>
      <trkpt lat="50.13452" lon="3.76138">
        <ele>151.54</ele>
        <time>2021-08-08T06:27:09Z</time>
      </trkpt>
      <trkpt lat="50.13452" lon="3.76136">
        <ele>151.54</ele>
        <time>2021-08-08T06:27:28Z</time>
      </trkpt>
      <trkpt lat="50.13452" lon="3.76137">
        <ele>151.54</ele>
        <time>2021-08-08T06:27:44Z</time>
      </trkpt>
      <trkpt lat="50.13451" lon="3.76138">
        <ele>151.54</ele>
        <time>2021-08-08T06:27:56Z</time>
      </trkpt>
      <trkpt lat="50.13452" lon="3.76138">
        <ele>151.54</ele>
        <time>2021-08-08T06:28:08Z</time>
      </trkpt>
      <trkpt lat="50.13452" lon="3.76141">
        <ele>151.54</ele>
        <time>2021-08-08T06:28:21Z</time>
      </trkpt>
      <trkpt lat="50.13452" lon="3.76143">
        <ele>151.54</ele>
        <time>2021-08-08T06:28:30Z</time>
      </trkpt>
      <trkpt lat="50.13452" lon="3.76142">
        <ele>151.54</ele>
        <time>2021-08-08T06:28:35Z</time>
      </trkpt>
      <trkpt lat="50.13452" lon="3.7614">
        <ele>151.54</ele>
        <time>2021-08-08T06:28:53Z</time>
      </trkpt>
      <trkpt lat="50.13454" lon="3.76137">
        <ele>151.54</ele>
        <time>2021-08-08T06:29:16Z</time>
      </trkpt>
      <trkpt lat="50.13453" lon="3.76137">
        <ele>151.54</ele>
        <time>2021-08-08T06:29:34Z</time>
      </trkpt>
      <trkpt lat="50.13453" lon="3.76137">
        <ele>151.54</ele>
        <time>2021-08-08T06:29:53Z</time>
      </trkpt>
      <trkpt lat="50.13453" lon="3.76138">
        <ele>151.54</ele>
        <time>2021-08-08T06:30:07Z</time>
      </trkpt>
      <trkpt lat="50.13453" lon="3.76139">
        <ele>152.03</ele>
        <time>2021-08-08T06:30:20Z</time>
      </trkpt>
      <trkpt lat="50.13453" lon="3.76138">
        <ele>151.54</ele>
        <time>2021-08-08T06:30:32Z</time>
      </trkpt>
      <trkpt lat="50.13453" lon="3.76139">
        <ele>151.06</ele>
        <time>2021-08-08T06:30:51Z</time>
      </trkpt>
      <trkpt lat="50.13454" lon="3.7614">
        <ele>151.06</ele>
        <time>2021-08-08T06:31:18Z</time>
      </trkpt>
      <trkpt lat="50.13453" lon="3.76139">
        <ele>151.06</ele>
        <time>2021-08-08T06:31:46Z</time>
      </trkpt>
      <trkpt lat="50.1345" lon="3.76141">
        <ele>151.06</ele>
        <time>2021-08-08T06:32:15Z</time>
      </trkpt>
      <trkpt lat="50.13452" lon="3.76139">
        <ele>151.06</ele>
        <time>2021-08-08T06:32:41Z</time>
      </trkpt>
      <trkpt lat="50.13455" lon="3.76138">
        <ele>150.58</ele>
        <time>2021-08-08T06:33:06Z</time>
      </trkpt>
      <trkpt lat="50.13453" lon="3.76138">
        <ele>150.58</ele>
        <time>2021-08-08T06:33:18Z</time>
      </trkpt>
      <trkpt lat="50.13452" lon="3.76139">
        <ele>150.58</ele>
        <time>2021-08-08T06:33:19Z</time>
      </trkpt>
      <trkpt lat="50.13445" lon="3.76132">
        <ele>150.1</ele>
        <time>2021-08-08T06:33:26Z</time>
      </trkpt>
      <trkpt lat="50.1344" lon="3.76114">
        <ele>149.14</ele>
        <time>2021-08-08T06:33:33Z</time>
      </trkpt>
      <trkpt lat="50.13435" lon="3.76084">
        <ele>148.66</ele>
        <time>2021-08-08T06:33:41Z</time>
      </trkpt>
      <trkpt lat="50.13428" lon="3.76055">
        <ele>148.18</ele>
        <time>2021-08-08T06:33:47Z</time>
      </trkpt>
      <trkpt lat="50.1342" lon="3.76028">
        <ele>147.7</ele>
        <time>2021-08-08T06:33:53Z</time>
      </trkpt>
      <trkpt lat="50.13413" lon="3.76015">
        <ele>146.74</ele>
        <time>2021-08-08T06:33:56Z</time>
      </trkpt>
      <trkpt lat="50.1341" lon="3.76009">
        <ele>146.26</ele>
        <time>2021-08-08T06:33:57Z</time>
      </trkpt>
      <trkpt lat="50.13402" lon="3.75988">
        <ele>145.3</ele>
        <time>2021-08-08T06:34:00Z</time>
      </trkpt>
      <trkpt lat="50.13401" lon="3.75979">
        <ele>144.34</ele>
        <time>2021-08-08T06:34:01Z</time>
      </trkpt>
      <trkpt lat="50.13399" lon="3.7597">
        <ele>144.34</ele>
        <time>2021-08-08T06:34:02Z</time>
      </trkpt>
      <trkpt lat="50.13398" lon="3.75961">
        <ele>143.37</ele>
        <time>2021-08-08T06:34:03Z</time>
      </trkpt>
      <trkpt lat="50.13398" lon="3.75952">
        <ele>142.89</ele>
        <time>2021-08-08T06:34:04Z</time>
      </trkpt>
      <trkpt lat="50.13397" lon="3.75942">
        <ele>142.89</ele>
        <time>2021-08-08T06:34:05Z</time>
      </trkpt>
      <trkpt lat="50.13394" lon="3.75911">
        <ele>141.45</ele>
        <time>2021-08-08T06:34:08Z</time>
      </trkpt>
      <trkpt lat="50.1339" lon="3.75848">
        <ele>139.05</ele>
        <time>2021-08-08T06:34:14Z</time>
      </trkpt>
      <trkpt lat="50.13389" lon="3.75838">
        <ele>138.57</ele>
        <time>2021-08-08T06:34:15Z</time>
      </trkpt>
      <trkpt lat="50.13387" lon="3.75829">
        <ele>138.57</ele>
        <time>2021-08-08T06:34:16Z</time>
      </trkpt>
      <trkpt lat="50.13384" lon="3.7582">
        <ele>138.57</ele>
        <time>2021-08-08T06:34:17Z</time>
      </trkpt>
      <trkpt lat="50.1338" lon="3.75812">
        <ele>138.09</ele>
        <time>2021-08-08T06:34:18Z</time>
      </trkpt>
      <trkpt lat="50.13375" lon="3.75805">
        <ele>137.13</ele>
        <time>2021-08-08T06:34:19Z</time>
      </trkpt>
      <trkpt lat="50.13371" lon="3.75799">
        <ele>137.13</ele>
        <time>2021-08-08T06:34:20Z</time>
      </trkpt>
      <trkpt lat="50.13366" lon="3.75794">
        <ele>137.13</ele>
        <time>2021-08-08T06:34:21Z</time>
      </trkpt>
      <trkpt lat="50.13361" lon="3.7579">
        <ele>136.64</ele>
        <time>2021-08-08T06:34:22Z</time>
      </trkpt>
      <trkpt lat="50.13356" lon="3.75785">
        <ele>136.16</ele>
        <time>2021-08-08T06:34:23Z</time>
      </trkpt>
      <trkpt lat="50.1335" lon="3.75783">
        <ele>136.16</ele>
        <time>2021-08-08T06:34:24Z</time>
      </trkpt>
      <trkpt lat="50.13344" lon="3.75785">
        <ele>136.16</ele>
        <time>2021-08-08T06:34:25Z</time>
      </trkpt>
      <trkpt lat="50.13338" lon="3.75787">
        <ele>136.16</ele>
        <time>2021-08-08T06:34:26Z</time>
      </trkpt>
      <trkpt lat="50.13328" lon="3.75791">
        <ele>135.68</ele>
        <time>2021-08-08T06:34:28Z</time>
      </trkpt>
      <trkpt lat="50.13322" lon="3.75792">
        <ele>135.68</ele>
        <time>2021-08-08T06:34:29Z</time>
      </trkpt>
      <trkpt lat="50.13282" lon="3.75812">
        <ele>134.24</ele>
        <time>2021-08-08T06:34:36Z</time>
      </trkpt>
      <trkpt lat="50.13277" lon="3.75817">
        <ele>134.24</ele>
        <time>2021-08-08T06:34:37Z</time>
      </trkpt>
      <trkpt lat="50.13274" lon="3.75824">
        <ele>134.24</ele>
        <time>2021-08-08T06:34:38Z</time>
      </trkpt>
      <trkpt lat="50.13271" lon="3.75832">
        <ele>134.24</ele>
        <time>2021-08-08T06:34:39Z</time>
      </trkpt>
      <trkpt lat="50.13269" lon="3.7584">
        <ele>134.24</ele>
        <time>2021-08-08T06:34:40Z</time>
      </trkpt>
      <trkpt lat="50.13268" lon="3.75848">
        <ele>134.24</ele>
        <time>2021-08-08T06:34:41Z</time>
      </trkpt>
      <trkpt lat="50.13267" lon="3.75857">
        <ele>134.24</ele>
        <time>2021-08-08T06:34:42Z</time>
      </trkpt>
      <trkpt lat="50.13265" lon="3.7588">
        <ele>135.2</ele>
        <time>2021-08-08T06:34:45Z</time>
      </trkpt>
      <trkpt lat="50.13262" lon="3.75884">
        <ele>135.2</ele>
        <time>2021-08-08T06:34:46Z</time>
      </trkpt>
      <trkpt lat="50.13258" lon="3.75887">
        <ele>136.16</ele>
        <time>2021-08-08T06:34:47Z</time>
      </trkpt>
      <trkpt lat="50.13234" lon="3.75902">
        <ele>136.16</ele>
        <time>2021-08-08T06:34:53Z</time>
      </trkpt>
      <trkpt lat="50.13213" lon="3.75918">
        <ele>136.16</ele>
        <time>2021-08-08T06:34:58Z</time>
      </trkpt>
      <trkpt lat="50.13209" lon="3.75921">
        <ele>134.72</ele>
        <time>2021-08-08T06:34:59Z</time>
      </trkpt>
      <trkpt lat="50.13204" lon="3.75923">
        <ele>134.72</ele>
        <time>2021-08-08T06:35:00Z</time>
      </trkpt>
      <trkpt lat="50.132" lon="3.75926">
        <ele>134.72</ele>
        <time>2021-08-08T06:35:01Z</time>
      </trkpt>
      <trkpt lat="50.13164" lon="3.75942">
        <ele>134.24</ele>
        <time>2021-08-08T06:35:09Z</time>
      </trkpt>
      <trkpt lat="50.13143" lon="3.75959">
        <ele>134.24</ele>
        <time>2021-08-08T06:35:14Z</time>
      </trkpt>
      <trkpt lat="50.13139" lon="3.75963">
        <ele>134.24</ele>
        <time>2021-08-08T06:35:15Z</time>
      </trkpt>
      <trkpt lat="50.13134" lon="3.75967">
        <ele>134.24</ele>
        <time>2021-08-08T06:35:16Z</time>
      </trkpt>
      <trkpt lat="50.13114" lon="3.75985">
        <ele>134.24</ele>
        <time>2021-08-08T06:35:21Z</time>
      </trkpt>
      <trkpt lat="50.13105" lon="3.75991">
        <ele>134.24</ele>
        <time>2021-08-08T06:35:23Z</time>
      </trkpt>
      <trkpt lat="50.13101" lon="3.75993">
        <ele>134.24</ele>
        <time>2021-08-08T06:35:24Z</time>
      </trkpt>
      <trkpt lat="50.13057" lon="3.75999">
        <ele>133.76</ele>
        <time>2021-08-08T06:35:33Z</time>
      </trkpt>
      <trkpt lat="50.13001" lon="3.76005">
        <ele>133.76</ele>
        <time>2021-08-08T06:35:45Z</time>
      </trkpt>
      <trkpt lat="50.12973" lon="3.76007">
        <ele>135.2</ele>
        <time>2021-08-08T06:35:51Z</time>
      </trkpt>
      <trkpt lat="50.1293" lon="3.76005">
        <ele>134.24</ele>
        <time>2021-08-08T06:36:00Z</time>
      </trkpt>
      <trkpt lat="50.12883" lon="3.75997">
        <ele>135.2</ele>
        <time>2021-08-08T06:36:10Z</time>
      </trkpt>
      <trkpt lat="50.1287" lon="3.75992">
        <ele>135.2</ele>
        <time>2021-08-08T06:36:13Z</time>
      </trkpt>
      <trkpt lat="50.12865" lon="3.75992">
        <ele>135.68</ele>
        <time>2021-08-08T06:36:14Z</time>
      </trkpt>
      <trkpt lat="50.1286" lon="3.75993">
        <ele>135.2</ele>
        <time>2021-08-08T06:36:15Z</time>
      </trkpt>
      <trkpt lat="50.12856" lon="3.75995">
        <ele>135.2</ele>
        <time>2021-08-08T06:36:16Z</time>
      </trkpt>
      <trkpt lat="50.12851" lon="3.76">
        <ele>135.2</ele>
        <time>2021-08-08T06:36:17Z</time>
      </trkpt>
      <trkpt lat="50.12848" lon="3.76003">
        <ele>135.2</ele>
        <time>2021-08-08T06:36:18Z</time>
      </trkpt>
      <trkpt lat="50.12844" lon="3.76008">
        <ele>135.2</ele>
        <time>2021-08-08T06:36:19Z</time>
      </trkpt>
      <trkpt lat="50.1284" lon="3.76014">
        <ele>135.2</ele>
        <time>2021-08-08T06:36:20Z</time>
      </trkpt>
      <trkpt lat="50.12837" lon="3.7602">
        <ele>135.2</ele>
        <time>2021-08-08T06:36:21Z</time>
      </trkpt>
      <trkpt lat="50.12832" lon="3.76034">
        <ele>135.2</ele>
        <time>2021-08-08T06:36:23Z</time>
      </trkpt>
      <trkpt lat="50.12825" lon="3.76056">
        <ele>134.24</ele>
        <time>2021-08-08T06:36:26Z</time>
      </trkpt>
      <trkpt lat="50.12813" lon="3.76126">
        <ele>134.24</ele>
        <time>2021-08-08T06:36:35Z</time>
      </trkpt>
      <trkpt lat="50.12804" lon="3.762">
        <ele>134.24</ele>
        <time>2021-08-08T06:36:45Z</time>
      </trkpt>
      <trkpt lat="50.128" lon="3.76231">
        <ele>134.24</ele>
        <time>2021-08-08T06:36:49Z</time>
      </trkpt>
      <trkpt lat="50.12796" lon="3.76261">
        <ele>134.24</ele>
        <time>2021-08-08T06:36:53Z</time>
      </trkpt>
      <trkpt lat="50.12794" lon="3.76268">
        <ele>134.24</ele>
        <time>2021-08-08T06:36:54Z</time>
      </trkpt>
      <trkpt lat="50.12791" lon="3.76275">
        <ele>134.24</ele>
        <time>2021-08-08T06:36:55Z</time>
      </trkpt>
      <trkpt lat="50.12788" lon="3.76281">
        <ele>135.2</ele>
        <time>2021-08-08T06:36:56Z</time>
      </trkpt>
      <trkpt lat="50.12784" lon="3.76286">
        <ele>135.2</ele>
        <time>2021-08-08T06:36:57Z</time>
      </trkpt>
      <trkpt lat="50.1278" lon="3.7629">
        <ele>135.2</ele>
        <time>2021-08-08T06:36:58Z</time>
      </trkpt>
      <trkpt lat="50.12776" lon="3.76293">
        <ele>135.2</ele>
        <time>2021-08-08T06:36:59Z</time>
      </trkpt>
      <trkpt lat="50.12771" lon="3.76295">
        <ele>135.2</ele>
        <time>2021-08-08T06:37:00Z</time>
      </trkpt>
      <trkpt lat="50.12734" lon="3.76313">
        <ele>136.16</ele>
        <time>2021-08-08T06:37:09Z</time>
      </trkpt>
      <trkpt lat="50.12683" lon="3.76337">
        <ele>136.64</ele>
        <time>2021-08-08T06:37:21Z</time>
      </trkpt>
      <trkpt lat="50.12643" lon="3.76359">
        <ele>135.2</ele>
        <time>2021-08-08T06:37:30Z</time>
      </trkpt>
      <trkpt lat="50.12631" lon="3.76367">
        <ele>136.16</ele>
        <time>2021-08-08T06:37:33Z</time>
      </trkpt>
      <trkpt lat="50.1259" lon="3.76401">
        <ele>136.64</ele>
        <time>2021-08-08T06:37:43Z</time>
      </trkpt>
      <trkpt lat="50.12545" lon="3.76411">
        <ele>137.13</ele>
        <time>2021-08-08T06:37:53Z</time>
      </trkpt>
      <trkpt lat="50.12488" lon="3.76412">
        <ele>137.61</ele>
        <time>2021-08-08T06:38:05Z</time>
      </trkpt>
      <trkpt lat="50.12457" lon="3.76401">
        <ele>138.09</ele>
        <time>2021-08-08T06:38:12Z</time>
      </trkpt>
      <trkpt lat="50.12426" lon="3.76379">
        <ele>138.09</ele>
        <time>2021-08-08T06:38:19Z</time>
      </trkpt>
      <trkpt lat="50.12422" lon="3.76375">
        <ele>138.09</ele>
        <time>2021-08-08T06:38:20Z</time>
      </trkpt>
      <trkpt lat="50.12418" lon="3.7637">
        <ele>138.09</ele>
        <time>2021-08-08T06:38:21Z</time>
      </trkpt>
      <trkpt lat="50.12415" lon="3.76366">
        <ele>138.09</ele>
        <time>2021-08-08T06:38:22Z</time>
      </trkpt>
      <trkpt lat="50.12413" lon="3.7636">
        <ele>138.09</ele>
        <time>2021-08-08T06:38:23Z</time>
      </trkpt>
      <trkpt lat="50.1241" lon="3.76354">
        <ele>136.16</ele>
        <time>2021-08-08T06:38:24Z</time>
      </trkpt>
      <trkpt lat="50.12408" lon="3.76345">
        <ele>136.16</ele>
        <time>2021-08-08T06:38:25Z</time>
      </trkpt>
      <trkpt lat="50.12406" lon="3.76338">
        <ele>136.16</ele>
        <time>2021-08-08T06:38:26Z</time>
      </trkpt>
      <trkpt lat="50.12405" lon="3.7633">
        <ele>136.16</ele>
        <time>2021-08-08T06:38:27Z</time>
      </trkpt>
      <trkpt lat="50.12403" lon="3.76322">
        <ele>136.16</ele>
        <time>2021-08-08T06:38:28Z</time>
      </trkpt>
      <trkpt lat="50.12401" lon="3.76315">
        <ele>136.16</ele>
        <time>2021-08-08T06:38:29Z</time>
      </trkpt>
      <trkpt lat="50.12399" lon="3.76308">
        <ele>135.68</ele>
        <time>2021-08-08T06:38:30Z</time>
      </trkpt>
      <trkpt lat="50.12397" lon="3.76301">
        <ele>135.68</ele>
        <time>2021-08-08T06:38:31Z</time>
      </trkpt>
      <trkpt lat="50.12394" lon="3.76295">
        <ele>135.68</ele>
        <time>2021-08-08T06:38:32Z</time>
      </trkpt>
      <trkpt lat="50.1239" lon="3.76289">
        <ele>135.2</ele>
        <time>2021-08-08T06:38:33Z</time>
      </trkpt>
      <trkpt lat="50.12376" lon="3.76269">
        <ele>135.2</ele>
        <time>2021-08-08T06:38:37Z</time>
      </trkpt>
      <trkpt lat="50.12372" lon="3.76266">
        <ele>135.2</ele>
        <time>2021-08-08T06:38:38Z</time>
      </trkpt>
      <trkpt lat="50.12367" lon="3.76265">
        <ele>135.2</ele>
        <time>2021-08-08T06:38:39Z</time>
      </trkpt>
      <trkpt lat="50.12362" lon="3.76265">
        <ele>135.2</ele>
        <time>2021-08-08T06:38:40Z</time>
      </trkpt>
      <trkpt lat="50.12357" lon="3.76265">
        <ele>135.2</ele>
        <time>2021-08-08T06:38:41Z</time>
      </trkpt>
      <trkpt lat="50.12353" lon="3.76266">
        <ele>135.2</ele>
        <time>2021-08-08T06:38:42Z</time>
      </trkpt>
      <trkpt lat="50.12313" lon="3.76267">
        <ele>135.2</ele>
        <time>2021-08-08T06:38:50Z</time>
      </trkpt>
      <trkpt lat="50.12254" lon="3.76264">
        <ele>135.2</ele>
        <time>2021-08-08T06:39:02Z</time>
      </trkpt>
      <trkpt lat="50.12226" lon="3.76263">
        <ele>135.68</ele>
        <time>2021-08-08T06:39:08Z</time>
      </trkpt>
      <trkpt lat="50.12221" lon="3.76265">
        <ele>135.68</ele>
        <time>2021-08-08T06:39:09Z</time>
      </trkpt>
      <trkpt lat="50.12217" lon="3.76268">
        <ele>135.68</ele>
        <time>2021-08-08T06:39:10Z</time>
      </trkpt>
      <trkpt lat="50.12213" lon="3.76271">
        <ele>135.68</ele>
        <time>2021-08-08T06:39:11Z</time>
      </trkpt>
      <trkpt lat="50.1221" lon="3.76275">
        <ele>135.68</ele>
        <time>2021-08-08T06:39:12Z</time>
      </trkpt>
      <trkpt lat="50.12206" lon="3.7628">
        <ele>135.68</ele>
        <time>2021-08-08T06:39:13Z</time>
      </trkpt>
      <trkpt lat="50.12192" lon="3.76298">
        <ele>136.64</ele>
        <time>2021-08-08T06:39:17Z</time>
      </trkpt>
      <trkpt lat="50.12188" lon="3.76301">
        <ele>136.64</ele>
        <time>2021-08-08T06:39:18Z</time>
      </trkpt>
      <trkpt lat="50.12156" lon="3.76321">
        <ele>136.64</ele>
        <time>2021-08-08T06:39:25Z</time>
      </trkpt>
      <trkpt lat="50.12141" lon="3.7633">
        <ele>137.61</ele>
        <time>2021-08-08T06:39:29Z</time>
      </trkpt>
      <trkpt lat="50.12106" lon="3.76349">
        <ele>138.09</ele>
        <time>2021-08-08T06:39:37Z</time>
      </trkpt>
      <trkpt lat="50.12057" lon="3.76361">
        <ele>138.57</ele>
        <time>2021-08-08T06:39:47Z</time>
      </trkpt>
      <trkpt lat="50.12014" lon="3.76369">
        <ele>138.57</ele>
        <time>2021-08-08T06:39:56Z</time>
      </trkpt>
      <trkpt lat="50.11975" lon="3.76388">
        <ele>139.05</ele>
        <time>2021-08-08T06:40:05Z</time>
      </trkpt>
      <trkpt lat="50.11971" lon="3.76395">
        <ele>139.53</ele>
        <time>2021-08-08T06:40:07Z</time>
      </trkpt>
      <trkpt lat="50.11971" lon="3.76401">
        <ele>139.53</ele>
        <time>2021-08-08T06:40:08Z</time>
      </trkpt>
      <trkpt lat="50.11978" lon="3.76444">
        <ele>139.53</ele>
        <time>2021-08-08T06:40:15Z</time>
      </trkpt>
      <trkpt lat="50.11996" lon="3.76514">
        <ele>140.01</ele>
        <time>2021-08-08T06:40:26Z</time>
      </trkpt>
      <trkpt lat="50.12006" lon="3.76587">
        <ele>140.97</ele>
        <time>2021-08-08T06:40:37Z</time>
      </trkpt>
      <trkpt lat="50.12011" lon="3.76653">
        <ele>141.93</ele>
        <time>2021-08-08T06:40:46Z</time>
      </trkpt>
      <trkpt lat="50.12018" lon="3.76752">
        <ele>139.53</ele>
        <time>2021-08-08T06:40:57Z</time>
      </trkpt>
      <trkpt lat="50.12015" lon="3.76838">
        <ele>138.57</ele>
        <time>2021-08-08T06:41:06Z</time>
      </trkpt>
      <trkpt lat="50.12011" lon="3.76874">
        <ele>138.57</ele>
        <time>2021-08-08T06:41:10Z</time>
      </trkpt>
      <trkpt lat="50.11992" lon="3.76949">
        <ele>138.09</ele>
        <time>2021-08-08T06:41:19Z</time>
      </trkpt>
      <trkpt lat="50.11984" lon="3.76978">
        <ele>138.09</ele>
        <time>2021-08-08T06:41:23Z</time>
      </trkpt>
      <trkpt lat="50.11975" lon="3.7704">
        <ele>138.09</ele>
        <time>2021-08-08T06:41:31Z</time>
      </trkpt>
      <trkpt lat="50.11974" lon="3.77072">
        <ele>139.53</ele>
        <time>2021-08-08T06:41:35Z</time>
      </trkpt>
      <trkpt lat="50.11977" lon="3.77141">
        <ele>140.97</ele>
        <time>2021-08-08T06:41:44Z</time>
      </trkpt>
      <trkpt lat="50.11974" lon="3.77233">
        <ele>141.93</ele>
        <time>2021-08-08T06:41:56Z</time>
      </trkpt>
      <trkpt lat="50.11971" lon="3.77283">
        <ele>143.37</ele>
        <time>2021-08-08T06:42:03Z</time>
      </trkpt>
      <trkpt lat="50.11972" lon="3.7729">
        <ele>143.85</ele>
        <time>2021-08-08T06:42:04Z</time>
      </trkpt>
      <trkpt lat="50.11974" lon="3.77297">
        <ele>143.37</ele>
        <time>2021-08-08T06:42:05Z</time>
      </trkpt>
      <trkpt lat="50.11976" lon="3.77305">
        <ele>143.37</ele>
        <time>2021-08-08T06:42:06Z</time>
      </trkpt>
      <trkpt lat="50.11979" lon="3.77311">
        <ele>143.37</ele>
        <time>2021-08-08T06:42:07Z</time>
      </trkpt>
      <trkpt lat="50.11984" lon="3.77317">
        <ele>143.37</ele>
        <time>2021-08-08T06:42:08Z</time>
      </trkpt>
      <trkpt lat="50.11988" lon="3.77322">
        <ele>143.37</ele>
        <time>2021-08-08T06:42:09Z</time>
      </trkpt>
      <trkpt lat="50.11992" lon="3.77327">
        <ele>143.37</ele>
        <time>2021-08-08T06:42:10Z</time>
      </trkpt>
      <trkpt lat="50.11998" lon="3.77332">
        <ele>143.37</ele>
        <time>2021-08-08T06:42:11Z</time>
      </trkpt>
      <trkpt lat="50.12003" lon="3.77336">
        <ele>143.37</ele>
        <time>2021-08-08T06:42:12Z</time>
      </trkpt>
      <trkpt lat="50.12024" lon="3.77355">
        <ele>142.41</ele>
        <time>2021-08-08T06:42:16Z</time>
      </trkpt>
      <trkpt lat="50.12028" lon="3.77361">
        <ele>142.41</ele>
        <time>2021-08-08T06:42:17Z</time>
      </trkpt>
      <trkpt lat="50.12032" lon="3.77368">
        <ele>142.41</ele>
        <time>2021-08-08T06:42:18Z</time>
      </trkpt>
      <trkpt lat="50.12036" lon="3.77376">
        <ele>142.41</ele>
        <time>2021-08-08T06:42:19Z</time>
      </trkpt>
      <trkpt lat="50.12038" lon="3.77385">
        <ele>141.93</ele>
        <time>2021-08-08T06:42:20Z</time>
      </trkpt>
      <trkpt lat="50.1204" lon="3.77394">
        <ele>141.93</ele>
        <time>2021-08-08T06:42:21Z</time>
      </trkpt>
      <trkpt lat="50.1204" lon="3.77403">
        <ele>142.41</ele>
        <time>2021-08-08T06:42:22Z</time>
      </trkpt>
      <trkpt lat="50.1204" lon="3.77413">
        <ele>142.41</ele>
        <time>2021-08-08T06:42:23Z</time>
      </trkpt>
      <trkpt lat="50.1204" lon="3.77422">
        <ele>142.41</ele>
        <time>2021-08-08T06:42:24Z</time>
      </trkpt>
      <trkpt lat="50.12039" lon="3.77431">
        <ele>142.41</ele>
        <time>2021-08-08T06:42:25Z</time>
      </trkpt>
      <trkpt lat="50.1203" lon="3.77525">
        <ele>142.41</ele>
        <time>2021-08-08T06:42:36Z</time>
      </trkpt>
      <trkpt lat="50.12019" lon="3.77622">
        <ele>143.37</ele>
        <time>2021-08-08T06:42:48Z</time>
      </trkpt>
      <trkpt lat="50.12006" lon="3.77703">
        <ele>144.34</ele>
        <time>2021-08-08T06:42:58Z</time>
      </trkpt>
      <trkpt lat="50.11989" lon="3.77777">
        <ele>145.78</ele>
        <time>2021-08-08T06:43:08Z</time>
      </trkpt>
      <trkpt lat="50.11975" lon="3.7786">
        <ele>146.26</ele>
        <time>2021-08-08T06:43:19Z</time>
      </trkpt>
      <trkpt lat="50.11972" lon="3.77886">
        <ele>144.82</ele>
        <time>2021-08-08T06:43:22Z</time>
      </trkpt>
      <trkpt lat="50.11955" lon="3.77956">
        <ele>143.85</ele>
        <time>2021-08-08T06:43:30Z</time>
      </trkpt>
      <trkpt lat="50.11936" lon="3.78037">
        <ele>142.41</ele>
        <time>2021-08-08T06:43:39Z</time>
      </trkpt>
      <trkpt lat="50.11925" lon="3.78136">
        <ele>140.01</ele>
        <time>2021-08-08T06:43:48Z</time>
      </trkpt>
      <trkpt lat="50.11906" lon="3.78243">
        <ele>138.57</ele>
        <time>2021-08-08T06:43:58Z</time>
      </trkpt>
      <trkpt lat="50.11885" lon="3.78332">
        <ele>137.61</ele>
        <time>2021-08-08T06:44:07Z</time>
      </trkpt>
      <trkpt lat="50.11884" lon="3.78342">
        <ele>137.61</ele>
        <time>2021-08-08T06:44:08Z</time>
      </trkpt>
      <trkpt lat="50.11885" lon="3.78352">
        <ele>137.13</ele>
        <time>2021-08-08T06:44:09Z</time>
      </trkpt>
      <trkpt lat="50.11886" lon="3.78363">
        <ele>137.13</ele>
        <time>2021-08-08T06:44:10Z</time>
      </trkpt>
      <trkpt lat="50.11888" lon="3.78373">
        <ele>136.64</ele>
        <time>2021-08-08T06:44:11Z</time>
      </trkpt>
      <trkpt lat="50.11891" lon="3.78383">
        <ele>136.64</ele>
        <time>2021-08-08T06:44:12Z</time>
      </trkpt>
      <trkpt lat="50.119" lon="3.78424">
        <ele>136.16</ele>
        <time>2021-08-08T06:44:16Z</time>
      </trkpt>
      <trkpt lat="50.11901" lon="3.78435">
        <ele>136.16</ele>
        <time>2021-08-08T06:44:17Z</time>
      </trkpt>
      <trkpt lat="50.119" lon="3.78445">
        <ele>135.68</ele>
        <time>2021-08-08T06:44:18Z</time>
      </trkpt>
      <trkpt lat="50.11899" lon="3.78455">
        <ele>135.68</ele>
        <time>2021-08-08T06:44:19Z</time>
      </trkpt>
      <trkpt lat="50.11897" lon="3.78465">
        <ele>135.68</ele>
        <time>2021-08-08T06:44:20Z</time>
      </trkpt>
      <trkpt lat="50.11894" lon="3.78474">
        <ele>135.68</ele>
        <time>2021-08-08T06:44:21Z</time>
      </trkpt>
      <trkpt lat="50.11886" lon="3.78502">
        <ele>135.68</ele>
        <time>2021-08-08T06:44:24Z</time>
      </trkpt>
      <trkpt lat="50.11871" lon="3.78535">
        <ele>135.68</ele>
        <time>2021-08-08T06:44:28Z</time>
      </trkpt>
      <trkpt lat="50.11857" lon="3.78559">
        <ele>135.68</ele>
        <time>2021-08-08T06:44:31Z</time>
      </trkpt>
      <trkpt lat="50.11855" lon="3.78567">
        <ele>135.68</ele>
        <time>2021-08-08T06:44:32Z</time>
      </trkpt>
      <trkpt lat="50.1183" lon="3.78659">
        <ele>137.61</ele>
        <time>2021-08-08T06:44:43Z</time>
      </trkpt>
      <trkpt lat="50.11808" lon="3.78742">
        <ele>138.09</ele>
        <time>2021-08-08T06:44:53Z</time>
      </trkpt>
      <trkpt lat="50.11781" lon="3.78838">
        <ele>138.57</ele>
        <time>2021-08-08T06:45:04Z</time>
      </trkpt>
      <trkpt lat="50.11756" lon="3.78937">
        <ele>138.57</ele>
        <time>2021-08-08T06:45:15Z</time>
      </trkpt>
      <trkpt lat="50.11731" lon="3.79047">
        <ele>137.13</ele>
        <time>2021-08-08T06:45:27Z</time>
      </trkpt>
      <trkpt lat="50.11725" lon="3.79084">
        <ele>137.13</ele>
        <time>2021-08-08T06:45:31Z</time>
      </trkpt>
      <trkpt lat="50.1172" lon="3.7915">
        <ele>137.13</ele>
        <time>2021-08-08T06:45:38Z</time>
      </trkpt>
      <trkpt lat="50.1172" lon="3.79159">
        <ele>137.13</ele>
        <time>2021-08-08T06:45:39Z</time>
      </trkpt>
      <trkpt lat="50.11709" lon="3.7925">
        <ele>137.13</ele>
        <time>2021-08-08T06:45:49Z</time>
      </trkpt>
      <trkpt lat="50.11695" lon="3.79342">
        <ele>137.13</ele>
        <time>2021-08-08T06:46:00Z</time>
      </trkpt>
      <trkpt lat="50.11682" lon="3.79418">
        <ele>138.57</ele>
        <time>2021-08-08T06:46:09Z</time>
      </trkpt>
      <trkpt lat="50.11668" lon="3.79502">
        <ele>138.57</ele>
        <time>2021-08-08T06:46:18Z</time>
      </trkpt>
      <trkpt lat="50.11648" lon="3.79602">
        <ele>137.13</ele>
        <time>2021-08-08T06:46:29Z</time>
      </trkpt>
      <trkpt lat="50.11626" lon="3.79677">
        <ele>136.64</ele>
        <time>2021-08-08T06:46:38Z</time>
      </trkpt>
      <trkpt lat="50.11624" lon="3.79685">
        <ele>136.64</ele>
        <time>2021-08-08T06:46:39Z</time>
      </trkpt>
      <trkpt lat="50.11618" lon="3.797">
        <ele>137.61</ele>
        <time>2021-08-08T06:46:41Z</time>
      </trkpt>
      <trkpt lat="50.11589" lon="3.7976">
        <ele>139.05</ele>
        <time>2021-08-08T06:46:49Z</time>
      </trkpt>
      <trkpt lat="50.11568" lon="3.79804">
        <ele>140.01</ele>
        <time>2021-08-08T06:46:55Z</time>
      </trkpt>
      <trkpt lat="50.11542" lon="3.79867">
        <ele>140.01</ele>
        <time>2021-08-08T06:47:03Z</time>
      </trkpt>
      <trkpt lat="50.11513" lon="3.79931">
        <ele>140.01</ele>
        <time>2021-08-08T06:47:12Z</time>
      </trkpt>
      <trkpt lat="50.11479" lon="3.79992">
        <ele>140.01</ele>
        <time>2021-08-08T06:47:21Z</time>
      </trkpt>
      <trkpt lat="50.11428" lon="3.80059">
        <ele>140.01</ele>
        <time>2021-08-08T06:47:32Z</time>
      </trkpt>
      <trkpt lat="50.114" lon="3.80116">
        <ele>140.01</ele>
        <time>2021-08-08T06:47:40Z</time>
      </trkpt>
      <trkpt lat="50.1138" lon="3.80184">
        <ele>140.49</ele>
        <time>2021-08-08T06:47:48Z</time>
      </trkpt>
      <trkpt lat="50.11369" lon="3.80241">
        <ele>140.49</ele>
        <time>2021-08-08T06:47:54Z</time>
      </trkpt>
      <trkpt lat="50.11366" lon="3.80249">
        <ele>140.49</ele>
        <time>2021-08-08T06:47:55Z</time>
      </trkpt>
      <trkpt lat="50.11363" lon="3.80256">
        <ele>140.49</ele>
        <time>2021-08-08T06:47:56Z</time>
      </trkpt>
      <trkpt lat="50.11358" lon="3.80263">
        <ele>140.49</ele>
        <time>2021-08-08T06:47:57Z</time>
      </trkpt>
      <trkpt lat="50.11354" lon="3.80269">
        <ele>140.49</ele>
        <time>2021-08-08T06:47:58Z</time>
      </trkpt>
      <trkpt lat="50.11348" lon="3.80275">
        <ele>140.49</ele>
        <time>2021-08-08T06:47:59Z</time>
      </trkpt>
      <trkpt lat="50.11311" lon="3.80319">
        <ele>140.49</ele>
        <time>2021-08-08T06:48:07Z</time>
      </trkpt>
      <trkpt lat="50.11268" lon="3.8037">
        <ele>139.53</ele>
        <time>2021-08-08T06:48:17Z</time>
      </trkpt>
      <trkpt lat="50.11266" lon="3.80376">
        <ele>139.53</ele>
        <time>2021-08-08T06:48:18Z</time>
      </trkpt>
      <trkpt lat="50.11267" lon="3.80382">
        <ele>139.53</ele>
        <time>2021-08-08T06:48:19Z</time>
      </trkpt>
      <trkpt lat="50.11269" lon="3.80388">
        <ele>139.53</ele>
        <time>2021-08-08T06:48:20Z</time>
      </trkpt>
      <trkpt lat="50.11273" lon="3.80391">
        <ele>139.53</ele>
        <time>2021-08-08T06:48:21Z</time>
      </trkpt>
      <trkpt lat="50.11277" lon="3.80395">
        <ele>139.53</ele>
        <time>2021-08-08T06:48:22Z</time>
      </trkpt>
      <trkpt lat="50.11282" lon="3.80398">
        <ele>140.97</ele>
        <time>2021-08-08T06:48:23Z</time>
      </trkpt>
      <trkpt lat="50.11329" lon="3.80436">
        <ele>140.97</ele>
        <time>2021-08-08T06:48:32Z</time>
      </trkpt>
      <trkpt lat="50.11356" lon="3.80458">
        <ele>140.97</ele>
        <time>2021-08-08T06:48:37Z</time>
      </trkpt>
      <trkpt lat="50.11371" lon="3.80476">
        <ele>140.97</ele>
        <time>2021-08-08T06:48:40Z</time>
      </trkpt>
      <trkpt lat="50.11375" lon="3.80484">
        <ele>139.53</ele>
        <time>2021-08-08T06:48:41Z</time>
      </trkpt>
      <trkpt lat="50.11378" lon="3.80492">
        <ele>139.53</ele>
        <time>2021-08-08T06:48:42Z</time>
      </trkpt>
      <trkpt lat="50.1138" lon="3.80501">
        <ele>138.57</ele>
        <time>2021-08-08T06:48:43Z</time>
      </trkpt>
      <trkpt lat="50.11381" lon="3.8051">
        <ele>138.57</ele>
        <time>2021-08-08T06:48:44Z</time>
      </trkpt>
      <trkpt lat="50.11381" lon="3.8052">
        <ele>138.57</ele>
        <time>2021-08-08T06:48:45Z</time>
      </trkpt>
      <trkpt lat="50.11381" lon="3.80529">
        <ele>138.57</ele>
        <time>2021-08-08T06:48:46Z</time>
      </trkpt>
      <trkpt lat="50.11383" lon="3.80603">
        <ele>140.49</ele>
        <time>2021-08-08T06:48:54Z</time>
      </trkpt>
      <trkpt lat="50.11399" lon="3.80677">
        <ele>139.05</ele>
        <time>2021-08-08T06:49:02Z</time>
      </trkpt>
      <trkpt lat="50.11426" lon="3.80754">
        <ele>139.05</ele>
        <time>2021-08-08T06:49:11Z</time>
      </trkpt>
      <trkpt lat="50.11472" lon="3.8087">
        <ele>139.05</ele>
        <time>2021-08-08T06:49:25Z</time>
      </trkpt>
      <trkpt lat="50.11502" lon="3.80953">
        <ele>140.01</ele>
        <time>2021-08-08T06:49:35Z</time>
      </trkpt>
      <trkpt lat="50.11512" lon="3.8098">
        <ele>138.57</ele>
        <time>2021-08-08T06:49:38Z</time>
      </trkpt>
      <trkpt lat="50.11536" lon="3.81039">
        <ele>138.57</ele>
        <time>2021-08-08T06:49:45Z</time>
      </trkpt>
      <trkpt lat="50.11539" lon="3.81048">
        <ele>138.57</ele>
        <time>2021-08-08T06:49:46Z</time>
      </trkpt>
      <trkpt lat="50.11541" lon="3.81057">
        <ele>138.57</ele>
        <time>2021-08-08T06:49:47Z</time>
      </trkpt>
      <trkpt lat="50.11543" lon="3.81064">
        <ele>138.57</ele>
        <time>2021-08-08T06:49:48Z</time>
      </trkpt>
      <trkpt lat="50.11543" lon="3.81073">
        <ele>138.57</ele>
        <time>2021-08-08T06:49:49Z</time>
      </trkpt>
      <trkpt lat="50.11541" lon="3.81081">
        <ele>138.57</ele>
        <time>2021-08-08T06:49:50Z</time>
      </trkpt>
      <trkpt lat="50.11539" lon="3.81087">
        <ele>138.57</ele>
        <time>2021-08-08T06:49:51Z</time>
      </trkpt>
      <trkpt lat="50.11535" lon="3.81092">
        <ele>138.57</ele>
        <time>2021-08-08T06:49:52Z</time>
      </trkpt>
      <trkpt lat="50.11531" lon="3.81098">
        <ele>138.57</ele>
        <time>2021-08-08T06:49:53Z</time>
      </trkpt>
      <trkpt lat="50.11527" lon="3.81104">
        <ele>138.57</ele>
        <time>2021-08-08T06:49:54Z</time>
      </trkpt>
      <trkpt lat="50.11499" lon="3.81154">
        <ele>140.97</ele>
        <time>2021-08-08T06:50:03Z</time>
      </trkpt>
      <trkpt lat="50.11461" lon="3.8123">
        <ele>141.93</ele>
        <time>2021-08-08T06:50:16Z</time>
      </trkpt>
      <trkpt lat="50.1145" lon="3.81256">
        <ele>142.41</ele>
        <time>2021-08-08T06:50:20Z</time>
      </trkpt>
      <trkpt lat="50.11446" lon="3.81262">
        <ele>142.41</ele>
        <time>2021-08-08T06:50:21Z</time>
      </trkpt>
      <trkpt lat="50.1142" lon="3.81309">
        <ele>143.37</ele>
        <time>2021-08-08T06:50:30Z</time>
      </trkpt>
      <trkpt lat="50.11402" lon="3.81359">
        <ele>145.3</ele>
        <time>2021-08-08T06:50:39Z</time>
      </trkpt>
      <trkpt lat="50.11398" lon="3.81383">
        <ele>145.3</ele>
        <time>2021-08-08T06:50:43Z</time>
      </trkpt>
      <trkpt lat="50.11392" lon="3.81467">
        <ele>146.26</ele>
        <time>2021-08-08T06:50:56Z</time>
      </trkpt>
      <trkpt lat="50.1139" lon="3.81565">
        <ele>146.74</ele>
        <time>2021-08-08T06:51:10Z</time>
      </trkpt>
      <trkpt lat="50.11392" lon="3.81627">
        <ele>148.18</ele>
        <time>2021-08-08T06:51:19Z</time>
      </trkpt>
      <trkpt lat="50.11393" lon="3.81697">
        <ele>149.62</ele>
        <time>2021-08-08T06:51:29Z</time>
      </trkpt>
      <trkpt lat="50.11384" lon="3.81779">
        <ele>149.14</ele>
        <time>2021-08-08T06:51:39Z</time>
      </trkpt>
      <trkpt lat="50.11369" lon="3.81853">
        <ele>148.18</ele>
        <time>2021-08-08T06:51:48Z</time>
      </trkpt>
      <trkpt lat="50.1134" lon="3.81907">
        <ele>147.7</ele>
        <time>2021-08-08T06:51:56Z</time>
      </trkpt>
      <trkpt lat="50.11292" lon="3.81958">
        <ele>149.14</ele>
        <time>2021-08-08T06:52:07Z</time>
      </trkpt>
      <trkpt lat="50.11253" lon="3.82005">
        <ele>147.7</ele>
        <time>2021-08-08T06:52:16Z</time>
      </trkpt>
      <trkpt lat="50.11216" lon="3.82057">
        <ele>146.26</ele>
        <time>2021-08-08T06:52:24Z</time>
      </trkpt>
      <trkpt lat="50.1119" lon="3.82119">
        <ele>144.34</ele>
        <time>2021-08-08T06:52:31Z</time>
      </trkpt>
      <trkpt lat="50.11185" lon="3.82128">
        <ele>143.37</ele>
        <time>2021-08-08T06:52:32Z</time>
      </trkpt>
      <trkpt lat="50.11181" lon="3.82134">
        <ele>143.37</ele>
        <time>2021-08-08T06:52:33Z</time>
      </trkpt>
      <trkpt lat="50.11175" lon="3.82141">
        <ele>142.89</ele>
        <time>2021-08-08T06:52:34Z</time>
      </trkpt>
      <trkpt lat="50.1117" lon="3.82148">
        <ele>141.93</ele>
        <time>2021-08-08T06:52:35Z</time>
      </trkpt>
      <trkpt lat="50.11163" lon="3.82155">
        <ele>141.93</ele>
        <time>2021-08-08T06:52:36Z</time>
      </trkpt>
      <trkpt lat="50.11147" lon="3.82175">
        <ele>141.93</ele>
        <time>2021-08-08T06:52:39Z</time>
      </trkpt>
      <trkpt lat="50.11142" lon="3.82182">
        <ele>143.37</ele>
        <time>2021-08-08T06:52:40Z</time>
      </trkpt>
      <trkpt lat="50.11121" lon="3.82223">
        <ele>145.3</ele>
        <time>2021-08-08T06:52:46Z</time>
      </trkpt>
      <trkpt lat="50.11095" lon="3.82275">
        <ele>145.78</ele>
        <time>2021-08-08T06:52:55Z</time>
      </trkpt>
      <trkpt lat="50.11066" lon="3.82321">
        <ele>144.82</ele>
        <time>2021-08-08T06:53:02Z</time>
      </trkpt>
      <trkpt lat="50.11061" lon="3.82326">
        <ele>144.82</ele>
        <time>2021-08-08T06:53:03Z</time>
      </trkpt>
      <trkpt lat="50.11022" lon="3.82362">
        <ele>145.3</ele>
        <time>2021-08-08T06:53:11Z</time>
      </trkpt>
      <trkpt lat="50.10979" lon="3.82406">
        <ele>147.22</ele>
        <time>2021-08-08T06:53:21Z</time>
      </trkpt>
      <trkpt lat="50.10975" lon="3.82409">
        <ele>147.22</ele>
        <time>2021-08-08T06:53:22Z</time>
      </trkpt>
      <trkpt lat="50.1097" lon="3.82411">
        <ele>147.22</ele>
        <time>2021-08-08T06:53:23Z</time>
      </trkpt>
      <trkpt lat="50.10964" lon="3.82411">
        <ele>145.78</ele>
        <time>2021-08-08T06:53:24Z</time>
      </trkpt>
      <trkpt lat="50.10958" lon="3.82411">
        <ele>145.3</ele>
        <time>2021-08-08T06:53:25Z</time>
      </trkpt>
      <trkpt lat="50.10951" lon="3.82411">
        <ele>144.82</ele>
        <time>2021-08-08T06:53:26Z</time>
      </trkpt>
      <trkpt lat="50.10939" lon="3.82408">
        <ele>144.34</ele>
        <time>2021-08-08T06:53:28Z</time>
      </trkpt>
      <trkpt lat="50.10932" lon="3.82406">
        <ele>144.34</ele>
        <time>2021-08-08T06:53:29Z</time>
      </trkpt>
      <trkpt lat="50.10887" lon="3.82384">
        <ele>143.85</ele>
        <time>2021-08-08T06:53:37Z</time>
      </trkpt>
      <trkpt lat="50.10851" lon="3.82366">
        <ele>146.26</ele>
        <time>2021-08-08T06:53:45Z</time>
      </trkpt>
      <trkpt lat="50.10828" lon="3.82368">
        <ele>147.7</ele>
        <time>2021-08-08T06:53:51Z</time>
      </trkpt>
      <trkpt lat="50.108" lon="3.82398">
        <ele>148.18</ele>
        <time>2021-08-08T06:53:59Z</time>
      </trkpt>
      <trkpt lat="50.10759" lon="3.82445">
        <ele>146.74</ele>
        <time>2021-08-08T06:54:09Z</time>
      </trkpt>
      <trkpt lat="50.10714" lon="3.82486">
        <ele>146.26</ele>
        <time>2021-08-08T06:54:18Z</time>
      </trkpt>
      <trkpt lat="50.10681" lon="3.82513">
        <ele>146.26</ele>
        <time>2021-08-08T06:54:24Z</time>
      </trkpt>
      <trkpt lat="50.10651" lon="3.82545">
        <ele>145.78</ele>
        <time>2021-08-08T06:54:30Z</time>
      </trkpt>
      <trkpt lat="50.10635" lon="3.82576">
        <ele>144.82</ele>
        <time>2021-08-08T06:54:34Z</time>
      </trkpt>
      <trkpt lat="50.10631" lon="3.82584">
        <ele>143.85</ele>
        <time>2021-08-08T06:54:35Z</time>
      </trkpt>
      <trkpt lat="50.10625" lon="3.82592">
        <ele>142.89</ele>
        <time>2021-08-08T06:54:36Z</time>
      </trkpt>
      <trkpt lat="50.1062" lon="3.82598">
        <ele>142.41</ele>
        <time>2021-08-08T06:54:37Z</time>
      </trkpt>
      <trkpt lat="50.10614" lon="3.82605">
        <ele>142.41</ele>
        <time>2021-08-08T06:54:38Z</time>
      </trkpt>
      <trkpt lat="50.10608" lon="3.8261">
        <ele>142.41</ele>
        <time>2021-08-08T06:54:39Z</time>
      </trkpt>
      <trkpt lat="50.10565" lon="3.82646">
        <ele>140.49</ele>
        <time>2021-08-08T06:54:46Z</time>
      </trkpt>
      <trkpt lat="50.10515" lon="3.82687">
        <ele>141.45</ele>
        <time>2021-08-08T06:54:55Z</time>
      </trkpt>
      <trkpt lat="50.10481" lon="3.82707">
        <ele>143.37</ele>
        <time>2021-08-08T06:55:03Z</time>
      </trkpt>
      <trkpt lat="50.10469" lon="3.82712">
        <ele>144.82</ele>
        <time>2021-08-08T06:55:06Z</time>
      </trkpt>
      <trkpt lat="50.10433" lon="3.82733">
        <ele>144.82</ele>
        <time>2021-08-08T06:55:15Z</time>
      </trkpt>
      <trkpt lat="50.10406" lon="3.82738">
        <ele>142.89</ele>
        <time>2021-08-08T06:55:22Z</time>
      </trkpt>
      <trkpt lat="50.104" lon="3.8273">
        <ele>142.89</ele>
        <time>2021-08-08T06:55:24Z</time>
      </trkpt>
      <trkpt lat="50.10397" lon="3.82723">
        <ele>142.89</ele>
        <time>2021-08-08T06:55:25Z</time>
      </trkpt>
      <trkpt lat="50.10375" lon="3.82683">
        <ele>140.49</ele>
        <time>2021-08-08T06:55:31Z</time>
      </trkpt>
      <trkpt lat="50.10355" lon="3.82649">
        <ele>139.05</ele>
        <time>2021-08-08T06:55:36Z</time>
      </trkpt>
      <trkpt lat="50.10313" lon="3.82579">
        <ele>139.53</ele>
        <time>2021-08-08T06:55:47Z</time>
      </trkpt>
      <trkpt lat="50.10309" lon="3.82565">
        <ele>139.53</ele>
        <time>2021-08-08T06:55:49Z</time>
      </trkpt>
      <trkpt lat="50.10298" lon="3.8252">
        <ele>141.45</ele>
        <time>2021-08-08T06:55:55Z</time>
      </trkpt>
      <trkpt lat="50.10296" lon="3.82513">
        <ele>141.45</ele>
        <time>2021-08-08T06:55:56Z</time>
      </trkpt>
      <trkpt lat="50.10292" lon="3.82506">
        <ele>141.45</ele>
        <time>2021-08-08T06:55:57Z</time>
      </trkpt>
      <trkpt lat="50.10289" lon="3.82502">
        <ele>141.45</ele>
        <time>2021-08-08T06:55:58Z</time>
      </trkpt>
      <trkpt lat="50.10284" lon="3.82497">
        <ele>141.45</ele>
        <time>2021-08-08T06:55:59Z</time>
      </trkpt>
      <trkpt lat="50.10279" lon="3.82492">
        <ele>141.45</ele>
        <time>2021-08-08T06:56:00Z</time>
      </trkpt>
      <trkpt lat="50.10275" lon="3.82488">
        <ele>141.45</ele>
        <time>2021-08-08T06:56:01Z</time>
      </trkpt>
      <trkpt lat="50.10259" lon="3.82475">
        <ele>140.01</ele>
        <time>2021-08-08T06:56:04Z</time>
      </trkpt>
      <trkpt lat="50.10219" lon="3.82446">
        <ele>139.53</ele>
        <time>2021-08-08T06:56:12Z</time>
      </trkpt>
      <trkpt lat="50.10169" lon="3.82426">
        <ele>139.53</ele>
        <time>2021-08-08T06:56:21Z</time>
      </trkpt>
      <trkpt lat="50.10142" lon="3.82415">
        <ele>139.05</ele>
        <time>2021-08-08T06:56:26Z</time>
      </trkpt>
      <trkpt lat="50.10138" lon="3.82411">
        <ele>140.49</ele>
        <time>2021-08-08T06:56:27Z</time>
      </trkpt>
      <trkpt lat="50.10133" lon="3.82406">
        <ele>140.49</ele>
        <time>2021-08-08T06:56:28Z</time>
      </trkpt>
      <trkpt lat="50.10129" lon="3.82401">
        <ele>140.49</ele>
        <time>2021-08-08T06:56:29Z</time>
      </trkpt>
      <trkpt lat="50.10125" lon="3.82394">
        <ele>140.49</ele>
        <time>2021-08-08T06:56:30Z</time>
      </trkpt>
      <trkpt lat="50.10122" lon="3.82388">
        <ele>140.49</ele>
        <time>2021-08-08T06:56:31Z</time>
      </trkpt>
      <trkpt lat="50.10119" lon="3.82381">
        <ele>140.49</ele>
        <time>2021-08-08T06:56:32Z</time>
      </trkpt>
      <trkpt lat="50.10117" lon="3.82374">
        <ele>140.49</ele>
        <time>2021-08-08T06:56:33Z</time>
      </trkpt>
      <trkpt lat="50.10115" lon="3.82367">
        <ele>140.49</ele>
        <time>2021-08-08T06:56:34Z</time>
      </trkpt>
      <trkpt lat="50.10114" lon="3.82361">
        <ele>140.97</ele>
        <time>2021-08-08T06:56:35Z</time>
      </trkpt>
      <trkpt lat="50.10113" lon="3.82353">
        <ele>140.97</ele>
        <time>2021-08-08T06:56:36Z</time>
      </trkpt>
      <trkpt lat="50.10113" lon="3.82346">
        <ele>140.97</ele>
        <time>2021-08-08T06:56:37Z</time>
      </trkpt>
      <trkpt lat="50.10114" lon="3.82339">
        <ele>141.45</ele>
        <time>2021-08-08T06:56:38Z</time>
      </trkpt>
      <trkpt lat="50.10116" lon="3.82332">
        <ele>141.45</ele>
        <time>2021-08-08T06:56:39Z</time>
      </trkpt>
      <trkpt lat="50.10119" lon="3.82326">
        <ele>141.45</ele>
        <time>2021-08-08T06:56:40Z</time>
      </trkpt>
      <trkpt lat="50.10122" lon="3.8232">
        <ele>141.45</ele>
        <time>2021-08-08T06:56:41Z</time>
      </trkpt>
      <trkpt lat="50.10155" lon="3.82265">
        <ele>141.45</ele>
        <time>2021-08-08T06:56:50Z</time>
      </trkpt>
      <trkpt lat="50.10193" lon="3.82209">
        <ele>141.45</ele>
        <time>2021-08-08T06:56:59Z</time>
      </trkpt>
      <trkpt lat="50.10218" lon="3.82173">
        <ele>140.01</ele>
        <time>2021-08-08T06:57:05Z</time>
      </trkpt>
      <trkpt lat="50.10263" lon="3.82109">
        <ele>140.01</ele>
        <time>2021-08-08T06:57:16Z</time>
      </trkpt>
      <trkpt lat="50.10312" lon="3.82046">
        <ele>140.01</ele>
        <time>2021-08-08T06:57:27Z</time>
      </trkpt>
      <trkpt lat="50.10337" lon="3.82012">
        <ele>140.01</ele>
        <time>2021-08-08T06:57:33Z</time>
      </trkpt>
      <trkpt lat="50.10339" lon="3.82005">
        <ele>140.01</ele>
        <time>2021-08-08T06:57:34Z</time>
      </trkpt>
      <trkpt lat="50.10341" lon="3.81997">
        <ele>140.01</ele>
        <time>2021-08-08T06:57:35Z</time>
      </trkpt>
      <trkpt lat="50.10341" lon="3.81988">
        <ele>140.01</ele>
        <time>2021-08-08T06:57:36Z</time>
      </trkpt>
      <trkpt lat="50.1034" lon="3.81981">
        <ele>140.01</ele>
        <time>2021-08-08T06:57:37Z</time>
      </trkpt>
      <trkpt lat="50.10337" lon="3.81974">
        <ele>140.01</ele>
        <time>2021-08-08T06:57:38Z</time>
      </trkpt>
      <trkpt lat="50.10334" lon="3.81967">
        <ele>139.53</ele>
        <time>2021-08-08T06:57:39Z</time>
      </trkpt>
      <trkpt lat="50.10331" lon="3.8196">
        <ele>139.53</ele>
        <time>2021-08-08T06:57:40Z</time>
      </trkpt>
      <trkpt lat="50.10327" lon="3.81954">
        <ele>139.53</ele>
        <time>2021-08-08T06:57:41Z</time>
      </trkpt>
      <trkpt lat="50.10292" lon="3.81894">
        <ele>139.05</ele>
        <time>2021-08-08T06:57:51Z</time>
      </trkpt>
      <trkpt lat="50.10268" lon="3.81854">
        <ele>140.01</ele>
        <time>2021-08-08T06:57:58Z</time>
      </trkpt>
      <trkpt lat="50.10252" lon="3.81825">
        <ele>140.49</ele>
        <time>2021-08-08T06:58:03Z</time>
      </trkpt>
      <trkpt lat="50.10232" lon="3.8177">
        <ele>140.49</ele>
        <time>2021-08-08T06:58:11Z</time>
      </trkpt>
      <trkpt lat="50.10216" lon="3.8168">
        <ele>139.53</ele>
        <time>2021-08-08T06:58:22Z</time>
      </trkpt>
      <trkpt lat="50.10214" lon="3.81672">
        <ele>139.53</ele>
        <time>2021-08-08T06:58:23Z</time>
      </trkpt>
      <trkpt lat="50.102" lon="3.81595">
        <ele>139.53</ele>
        <time>2021-08-08T06:58:33Z</time>
      </trkpt>
      <trkpt lat="50.10181" lon="3.81521">
        <ele>139.53</ele>
        <time>2021-08-08T06:58:43Z</time>
      </trkpt>
      <trkpt lat="50.10168" lon="3.81475">
        <ele>140.97</ele>
        <time>2021-08-08T06:58:49Z</time>
      </trkpt>
      <trkpt lat="50.10145" lon="3.81393">
        <ele>140.97</ele>
        <time>2021-08-08T06:59:00Z</time>
      </trkpt>
      <trkpt lat="50.10136" lon="3.81375">
        <ele>141.45</ele>
        <time>2021-08-08T06:59:03Z</time>
      </trkpt>
      <trkpt lat="50.10132" lon="3.81369">
        <ele>141.45</ele>
        <time>2021-08-08T06:59:04Z</time>
      </trkpt>
      <trkpt lat="50.10098" lon="3.81327">
        <ele>141.93</ele>
        <time>2021-08-08T06:59:13Z</time>
      </trkpt>
      <trkpt lat="50.10083" lon="3.81309">
        <ele>142.41</ele>
        <time>2021-08-08T06:59:17Z</time>
      </trkpt>
      <trkpt lat="50.10075" lon="3.81299">
        <ele>142.41</ele>
        <time>2021-08-08T06:59:19Z</time>
      </trkpt>
      <trkpt lat="50.10059" lon="3.81281">
        <ele>141.45</ele>
        <time>2021-08-08T06:59:23Z</time>
      </trkpt>
      <trkpt lat="50.10054" lon="3.81277">
        <ele>141.45</ele>
        <time>2021-08-08T06:59:24Z</time>
      </trkpt>
      <trkpt lat="50.1005" lon="3.81273">
        <ele>141.45</ele>
        <time>2021-08-08T06:59:25Z</time>
      </trkpt>
      <trkpt lat="50.10036" lon="3.81254">
        <ele>142.41</ele>
        <time>2021-08-08T06:59:29Z</time>
      </trkpt>
      <trkpt lat="50.10026" lon="3.8124">
        <ele>142.41</ele>
        <time>2021-08-08T06:59:32Z</time>
      </trkpt>
      <trkpt lat="50.10023" lon="3.81234">
        <ele>142.41</ele>
        <time>2021-08-08T06:59:33Z</time>
      </trkpt>
      <trkpt lat="50.10021" lon="3.81228">
        <ele>142.41</ele>
        <time>2021-08-08T06:59:34Z</time>
      </trkpt>
      <trkpt lat="50.10019" lon="3.81221">
        <ele>142.41</ele>
        <time>2021-08-08T06:59:35Z</time>
      </trkpt>
      <trkpt lat="50.10017" lon="3.81215">
        <ele>142.41</ele>
        <time>2021-08-08T06:59:36Z</time>
      </trkpt>
      <trkpt lat="50.10016" lon="3.81207">
        <ele>142.41</ele>
        <time>2021-08-08T06:59:37Z</time>
      </trkpt>
      <trkpt lat="50.10015" lon="3.812">
        <ele>142.41</ele>
        <time>2021-08-08T06:59:38Z</time>
      </trkpt>
      <trkpt lat="50.10016" lon="3.81193">
        <ele>142.41</ele>
        <time>2021-08-08T06:59:39Z</time>
      </trkpt>
      <trkpt lat="50.10016" lon="3.81187">
        <ele>142.89</ele>
        <time>2021-08-08T06:59:40Z</time>
      </trkpt>
      <trkpt lat="50.10022" lon="3.81125">
        <ele>144.34</ele>
        <time>2021-08-08T06:59:49Z</time>
      </trkpt>
      <trkpt lat="50.10022" lon="3.81119">
        <ele>144.34</ele>
        <time>2021-08-08T06:59:50Z</time>
      </trkpt>
      <trkpt lat="50.10022" lon="3.81112">
        <ele>144.34</ele>
        <time>2021-08-08T06:59:51Z</time>
      </trkpt>
      <trkpt lat="50.10021" lon="3.81106">
        <ele>144.34</ele>
        <time>2021-08-08T06:59:52Z</time>
      </trkpt>
      <trkpt lat="50.10019" lon="3.81099">
        <ele>144.82</ele>
        <time>2021-08-08T06:59:53Z</time>
      </trkpt>
      <trkpt lat="50.10017" lon="3.81093">
        <ele>144.82</ele>
        <time>2021-08-08T06:59:54Z</time>
      </trkpt>
      <trkpt lat="50.10015" lon="3.81086">
        <ele>144.82</ele>
        <time>2021-08-08T06:59:55Z</time>
      </trkpt>
      <trkpt lat="50.1" lon="3.81043">
        <ele>145.3</ele>
        <time>2021-08-08T07:00:03Z</time>
      </trkpt>
      <trkpt lat="50.09994" lon="3.81016">
        <ele>145.78</ele>
        <time>2021-08-08T07:00:07Z</time>
      </trkpt>
      <trkpt lat="50.09993" lon="3.8101">
        <ele>145.78</ele>
        <time>2021-08-08T07:00:08Z</time>
      </trkpt>
      <trkpt lat="50.09992" lon="3.80956">
        <ele>147.22</ele>
        <time>2021-08-08T07:00:16Z</time>
      </trkpt>
      <trkpt lat="50.09991" lon="3.8095">
        <ele>147.22</ele>
        <time>2021-08-08T07:00:17Z</time>
      </trkpt>
      <trkpt lat="50.0999" lon="3.80943">
        <ele>148.18</ele>
        <time>2021-08-08T07:00:18Z</time>
      </trkpt>
      <trkpt lat="50.09988" lon="3.80937">
        <ele>148.18</ele>
        <time>2021-08-08T07:00:19Z</time>
      </trkpt>
      <trkpt lat="50.09986" lon="3.80931">
        <ele>148.18</ele>
        <time>2021-08-08T07:00:20Z</time>
      </trkpt>
      <trkpt lat="50.09984" lon="3.80925">
        <ele>148.18</ele>
        <time>2021-08-08T07:00:21Z</time>
      </trkpt>
      <trkpt lat="50.09982" lon="3.80919">
        <ele>148.18</ele>
        <time>2021-08-08T07:00:22Z</time>
      </trkpt>
      <trkpt lat="50.09979" lon="3.80915">
        <ele>148.18</ele>
        <time>2021-08-08T07:00:23Z</time>
      </trkpt>
      <trkpt lat="50.09976" lon="3.80909">
        <ele>148.18</ele>
        <time>2021-08-08T07:00:24Z</time>
      </trkpt>
      <trkpt lat="50.09962" lon="3.8089">
        <ele>148.66</ele>
        <time>2021-08-08T07:00:28Z</time>
      </trkpt>
      <trkpt lat="50.09959" lon="3.80885">
        <ele>148.66</ele>
        <time>2021-08-08T07:00:29Z</time>
      </trkpt>
      <trkpt lat="50.09945" lon="3.80866">
        <ele>148.66</ele>
        <time>2021-08-08T07:00:33Z</time>
      </trkpt>
      <trkpt lat="50.09936" lon="3.80849">
        <ele>147.7</ele>
        <time>2021-08-08T07:00:36Z</time>
      </trkpt>
      <trkpt lat="50.0992" lon="3.80801">
        <ele>149.14</ele>
        <time>2021-08-08T07:00:43Z</time>
      </trkpt>
      <trkpt lat="50.09918" lon="3.80788">
        <ele>147.7</ele>
        <time>2021-08-08T07:00:45Z</time>
      </trkpt>
      <trkpt lat="50.09904" lon="3.80721">
        <ele>147.7</ele>
        <time>2021-08-08T07:00:54Z</time>
      </trkpt>
      <trkpt lat="50.09892" lon="3.80656">
        <ele>147.7</ele>
        <time>2021-08-08T07:01:02Z</time>
      </trkpt>
      <trkpt lat="50.09876" lon="3.80592">
        <ele>147.22</ele>
        <time>2021-08-08T07:01:10Z</time>
      </trkpt>
      <trkpt lat="50.09873" lon="3.80586">
        <ele>147.22</ele>
        <time>2021-08-08T07:01:11Z</time>
      </trkpt>
      <trkpt lat="50.0987" lon="3.8058">
        <ele>147.22</ele>
        <time>2021-08-08T07:01:12Z</time>
      </trkpt>
      <trkpt lat="50.09866" lon="3.80574">
        <ele>147.22</ele>
        <time>2021-08-08T07:01:13Z</time>
      </trkpt>
      <trkpt lat="50.09862" lon="3.80569">
        <ele>146.74</ele>
        <time>2021-08-08T07:01:14Z</time>
      </trkpt>
      <trkpt lat="50.09858" lon="3.80564">
        <ele>146.74</ele>
        <time>2021-08-08T07:01:15Z</time>
      </trkpt>
      <trkpt lat="50.09819" lon="3.80516">
        <ele>146.74</ele>
        <time>2021-08-08T07:01:25Z</time>
      </trkpt>
      <trkpt lat="50.09815" lon="3.8051">
        <ele>146.74</ele>
        <time>2021-08-08T07:01:26Z</time>
      </trkpt>
      <trkpt lat="50.09804" lon="3.80483">
        <ele>146.74</ele>
        <time>2021-08-08T07:01:30Z</time>
      </trkpt>
      <trkpt lat="50.09779" lon="3.80427">
        <ele>147.7</ele>
        <time>2021-08-08T07:01:39Z</time>
      </trkpt>
      <trkpt lat="50.09749" lon="3.80372">
        <ele>148.18</ele>
        <time>2021-08-08T07:01:49Z</time>
      </trkpt>
      <trkpt lat="50.0973" lon="3.80321">
        <ele>149.62</ele>
        <time>2021-08-08T07:01:58Z</time>
      </trkpt>
      <trkpt lat="50.09716" lon="3.80272">
        <ele>150.58</ele>
        <time>2021-08-08T07:02:07Z</time>
      </trkpt>
      <trkpt lat="50.09696" lon="3.8022">
        <ele>152.03</ele>
        <time>2021-08-08T07:02:17Z</time>
      </trkpt>
      <trkpt lat="50.09674" lon="3.80172">
        <ele>152.99</ele>
        <time>2021-08-08T07:02:27Z</time>
      </trkpt>
      <trkpt lat="50.09649" lon="3.80119">
        <ele>153.95</ele>
        <time>2021-08-08T07:02:38Z</time>
      </trkpt>
      <trkpt lat="50.09627" lon="3.80073">
        <ele>155.39</ele>
        <time>2021-08-08T07:02:48Z</time>
      </trkpt>
      <trkpt lat="50.09597" lon="3.80017">
        <ele>156.83</ele>
        <time>2021-08-08T07:03:00Z</time>
      </trkpt>
      <trkpt lat="50.0957" lon="3.79973">
        <ele>157.31</ele>
        <time>2021-08-08T07:03:10Z</time>
      </trkpt>
      <trkpt lat="50.0955" lon="3.79937">
        <ele>158.75</ele>
        <time>2021-08-08T07:03:18Z</time>
      </trkpt>
      <trkpt lat="50.09528" lon="3.79896">
        <ele>159.72</ele>
        <time>2021-08-08T07:03:27Z</time>
      </trkpt>
      <trkpt lat="50.09512" lon="3.79859">
        <ele>159.72</ele>
        <time>2021-08-08T07:03:35Z</time>
      </trkpt>
      <trkpt lat="50.0949" lon="3.79815">
        <ele>160.68</ele>
        <time>2021-08-08T07:03:44Z</time>
      </trkpt>
      <trkpt lat="50.09471" lon="3.79774">
        <ele>162.12</ele>
        <time>2021-08-08T07:03:52Z</time>
      </trkpt>
      <trkpt lat="50.09443" lon="3.79721">
        <ele>162.6</ele>
        <time>2021-08-08T07:04:03Z</time>
      </trkpt>
      <trkpt lat="50.09413" lon="3.79682">
        <ele>163.08</ele>
        <time>2021-08-08T07:04:13Z</time>
      </trkpt>
      <trkpt lat="50.09407" lon="3.79675">
        <ele>163.08</ele>
        <time>2021-08-08T07:04:15Z</time>
      </trkpt>
      <trkpt lat="50.09399" lon="3.79667">
        <ele>163.08</ele>
        <time>2021-08-08T07:04:17Z</time>
      </trkpt>
      <trkpt lat="50.09382" lon="3.79644">
        <ele>163.56</ele>
        <time>2021-08-08T07:04:23Z</time>
      </trkpt>
      <trkpt lat="50.09357" lon="3.79613">
        <ele>164.52</ele>
        <time>2021-08-08T07:04:31Z</time>
      </trkpt>
      <trkpt lat="50.09327" lon="3.79577">
        <ele>165</ele>
        <time>2021-08-08T07:04:42Z</time>
      </trkpt>
      <trkpt lat="50.09325" lon="3.79577">
        <ele>165.48</ele>
        <time>2021-08-08T07:04:43Z</time>
      </trkpt>
      <trkpt lat="50.09325" lon="3.79577">
        <ele>165.48</ele>
        <time>2021-08-08T07:04:48Z</time>
      </trkpt>
      <trkpt lat="50.09325" lon="3.79577">
        <ele>165.96</ele>
        <time>2021-08-08T07:04:59Z</time>
      </trkpt>
      <trkpt lat="50.09325" lon="3.79576">
        <ele>165.96</ele>
        <time>2021-08-08T07:05:14Z</time>
      </trkpt>
      <trkpt lat="50.09324" lon="3.79576">
        <ele>165.96</ele>
        <time>2021-08-08T07:05:30Z</time>
      </trkpt>
      <trkpt lat="50.09324" lon="3.79577">
        <ele>165.96</ele>
        <time>2021-08-08T07:05:42Z</time>
      </trkpt>
      <trkpt lat="50.09324" lon="3.79576">
        <ele>165.96</ele>
        <time>2021-08-08T07:05:58Z</time>
      </trkpt>
      <trkpt lat="50.09324" lon="3.79578">
        <ele>165.96</ele>
        <time>2021-08-08T07:06:00Z</time>
      </trkpt>
      <trkpt lat="50.09323" lon="3.79581">
        <ele>165.96</ele>
        <time>2021-08-08T07:06:01Z</time>
      </trkpt>
      <trkpt lat="50.09323" lon="3.79583">
        <ele>165.96</ele>
        <time>2021-08-08T07:06:02Z</time>
      </trkpt>
      <trkpt lat="50.09322" lon="3.79586">
        <ele>165.96</ele>
        <time>2021-08-08T07:06:03Z</time>
      </trkpt>
      <trkpt lat="50.09322" lon="3.7959">
        <ele>165.96</ele>
        <time>2021-08-08T07:06:04Z</time>
      </trkpt>
      <trkpt lat="50.09321" lon="3.79595">
        <ele>165.96</ele>
        <time>2021-08-08T07:06:05Z</time>
      </trkpt>
      <trkpt lat="50.0932" lon="3.796">
        <ele>165.96</ele>
        <time>2021-08-08T07:06:06Z</time>
      </trkpt>
      <trkpt lat="50.09319" lon="3.79605">
        <ele>165.96</ele>
        <time>2021-08-08T07:06:07Z</time>
      </trkpt>
      <trkpt lat="50.09316" lon="3.79617">
        <ele>165</ele>
        <time>2021-08-08T07:06:09Z</time>
      </trkpt>
      <trkpt lat="50.09299" lon="3.79685">
        <ele>162.12</ele>
        <time>2021-08-08T07:06:18Z</time>
      </trkpt>
      <trkpt lat="50.09279" lon="3.79771">
        <ele>160.68</ele>
        <time>2021-08-08T07:06:28Z</time>
      </trkpt>
      <trkpt lat="50.09249" lon="3.79876">
        <ele>158.27</ele>
        <time>2021-08-08T07:06:40Z</time>
      </trkpt>
      <trkpt lat="50.09245" lon="3.79883">
        <ele>158.27</ele>
        <time>2021-08-08T07:06:41Z</time>
      </trkpt>
      <trkpt lat="50.09241" lon="3.79887">
        <ele>158.27</ele>
        <time>2021-08-08T07:06:42Z</time>
      </trkpt>
      <trkpt lat="50.09235" lon="3.7989">
        <ele>157.79</ele>
        <time>2021-08-08T07:06:43Z</time>
      </trkpt>
      <trkpt lat="50.09231" lon="3.7989">
        <ele>157.79</ele>
        <time>2021-08-08T07:06:44Z</time>
      </trkpt>
      <trkpt lat="50.09226" lon="3.79889">
        <ele>157.79</ele>
        <time>2021-08-08T07:06:45Z</time>
      </trkpt>
      <trkpt lat="50.09221" lon="3.79887">
        <ele>157.79</ele>
        <time>2021-08-08T07:06:46Z</time>
      </trkpt>
      <trkpt lat="50.09217" lon="3.79884">
        <ele>157.79</ele>
        <time>2021-08-08T07:06:47Z</time>
      </trkpt>
      <trkpt lat="50.09213" lon="3.79881">
        <ele>157.79</ele>
        <time>2021-08-08T07:06:48Z</time>
      </trkpt>
      <trkpt lat="50.09182" lon="3.79855">
        <ele>157.79</ele>
        <time>2021-08-08T07:06:55Z</time>
      </trkpt>
      <trkpt lat="50.09173" lon="3.79849">
        <ele>157.79</ele>
        <time>2021-08-08T07:06:57Z</time>
      </trkpt>
      <trkpt lat="50.09144" lon="3.79832">
        <ele>157.79</ele>
        <time>2021-08-08T07:07:04Z</time>
      </trkpt>
      <trkpt lat="50.0914" lon="3.79831">
        <ele>157.79</ele>
        <time>2021-08-08T07:07:05Z</time>
      </trkpt>
      <trkpt lat="50.09135" lon="3.79833">
        <ele>157.79</ele>
        <time>2021-08-08T07:07:06Z</time>
      </trkpt>
      <trkpt lat="50.09131" lon="3.79836">
        <ele>158.27</ele>
        <time>2021-08-08T07:07:07Z</time>
      </trkpt>
      <trkpt lat="50.09128" lon="3.79841">
        <ele>158.27</ele>
        <time>2021-08-08T07:07:08Z</time>
      </trkpt>
      <trkpt lat="50.09125" lon="3.79846">
        <ele>158.27</ele>
        <time>2021-08-08T07:07:09Z</time>
      </trkpt>
      <trkpt lat="50.09122" lon="3.79851">
        <ele>158.27</ele>
        <time>2021-08-08T07:07:10Z</time>
      </trkpt>
      <trkpt lat="50.0912" lon="3.79857">
        <ele>159.24</ele>
        <time>2021-08-08T07:07:11Z</time>
      </trkpt>
      <trkpt lat="50.09117" lon="3.79862">
        <ele>159.24</ele>
        <time>2021-08-08T07:07:12Z</time>
      </trkpt>
      <trkpt lat="50.09102" lon="3.79896">
        <ele>159.72</ele>
        <time>2021-08-08T07:07:19Z</time>
      </trkpt>
      <trkpt lat="50.09085" lon="3.79938">
        <ele>161.64</ele>
        <time>2021-08-08T07:07:28Z</time>
      </trkpt>
      <trkpt lat="50.09067" lon="3.79979">
        <ele>163.08</ele>
        <time>2021-08-08T07:07:37Z</time>
      </trkpt>
      <trkpt lat="50.09043" lon="3.80031">
        <ele>164.04</ele>
        <time>2021-08-08T07:07:48Z</time>
      </trkpt>
      <trkpt lat="50.09028" lon="3.80052">
        <ele>164.52</ele>
        <time>2021-08-08T07:07:53Z</time>
      </trkpt>
      <trkpt lat="50.09021" lon="3.80058">
        <ele>164.52</ele>
        <time>2021-08-08T07:07:55Z</time>
      </trkpt>
      <trkpt lat="50.09013" lon="3.80062">
        <ele>164.52</ele>
        <time>2021-08-08T07:07:57Z</time>
      </trkpt>
      <trkpt lat="50.09009" lon="3.80064">
        <ele>164.52</ele>
        <time>2021-08-08T07:07:58Z</time>
      </trkpt>
      <trkpt lat="50.09004" lon="3.80066">
        <ele>164.52</ele>
        <time>2021-08-08T07:07:59Z</time>
      </trkpt>
      <trkpt lat="50.08973" lon="3.80076">
        <ele>164.52</ele>
        <time>2021-08-08T07:08:06Z</time>
      </trkpt>
      <trkpt lat="50.08957" lon="3.8008">
        <ele>164.52</ele>
        <time>2021-08-08T07:08:10Z</time>
      </trkpt>
      <trkpt lat="50.08952" lon="3.80082">
        <ele>164.52</ele>
        <time>2021-08-08T07:08:11Z</time>
      </trkpt>
      <trkpt lat="50.08938" lon="3.80086">
        <ele>164.52</ele>
        <time>2021-08-08T07:08:14Z</time>
      </trkpt>
      <trkpt lat="50.08934" lon="3.80088">
        <ele>164.52</ele>
        <time>2021-08-08T07:08:15Z</time>
      </trkpt>
      <trkpt lat="50.08929" lon="3.8009">
        <ele>164.52</ele>
        <time>2021-08-08T07:08:16Z</time>
      </trkpt>
      <trkpt lat="50.08925" lon="3.80091">
        <ele>164.52</ele>
        <time>2021-08-08T07:08:17Z</time>
      </trkpt>
      <trkpt lat="50.0892" lon="3.80093">
        <ele>163.08</ele>
        <time>2021-08-08T07:08:18Z</time>
      </trkpt>
      <trkpt lat="50.08875" lon="3.80106">
        <ele>163.08</ele>
        <time>2021-08-08T07:08:28Z</time>
      </trkpt>
      <trkpt lat="50.08838" lon="3.80117">
        <ele>163.56</ele>
        <time>2021-08-08T07:08:36Z</time>
      </trkpt>
      <trkpt lat="50.08833" lon="3.80119">
        <ele>163.56</ele>
        <time>2021-08-08T07:08:37Z</time>
      </trkpt>
      <trkpt lat="50.08828" lon="3.8012">
        <ele>163.08</ele>
        <time>2021-08-08T07:08:38Z</time>
      </trkpt>
      <trkpt lat="50.08824" lon="3.80121">
        <ele>163.08</ele>
        <time>2021-08-08T07:08:39Z</time>
      </trkpt>
      <trkpt lat="50.08819" lon="3.80122">
        <ele>163.08</ele>
        <time>2021-08-08T07:08:40Z</time>
      </trkpt>
      <trkpt lat="50.08815" lon="3.80124">
        <ele>163.08</ele>
        <time>2021-08-08T07:08:41Z</time>
      </trkpt>
      <trkpt lat="50.08811" lon="3.80127">
        <ele>163.08</ele>
        <time>2021-08-08T07:08:42Z</time>
      </trkpt>
      <trkpt lat="50.08807" lon="3.8013">
        <ele>163.08</ele>
        <time>2021-08-08T07:08:43Z</time>
      </trkpt>
      <trkpt lat="50.08803" lon="3.80134">
        <ele>163.08</ele>
        <time>2021-08-08T07:08:44Z</time>
      </trkpt>
      <trkpt lat="50.088" lon="3.80138">
        <ele>163.08</ele>
        <time>2021-08-08T07:08:45Z</time>
      </trkpt>
      <trkpt lat="50.08796" lon="3.80143">
        <ele>163.08</ele>
        <time>2021-08-08T07:08:46Z</time>
      </trkpt>
      <trkpt lat="50.08767" lon="3.80194">
        <ele>163.08</ele>
        <time>2021-08-08T07:08:56Z</time>
      </trkpt>
      <trkpt lat="50.0876" lon="3.80203">
        <ele>164.52</ele>
        <time>2021-08-08T07:08:58Z</time>
      </trkpt>
      <trkpt lat="50.08739" lon="3.80225">
        <ele>165.48</ele>
        <time>2021-08-08T07:09:05Z</time>
      </trkpt>
      <trkpt lat="50.0872" lon="3.80227">
        <ele>165.96</ele>
        <time>2021-08-08T07:09:10Z</time>
      </trkpt>
      <trkpt lat="50.08693" lon="3.80231">
        <ele>165.96</ele>
        <time>2021-08-08T07:09:17Z</time>
      </trkpt>
      <trkpt lat="50.08651" lon="3.80241">
        <ele>162.6</ele>
        <time>2021-08-08T07:09:25Z</time>
      </trkpt>
      <trkpt lat="50.08635" lon="3.80246">
        <ele>162.6</ele>
        <time>2021-08-08T07:09:30Z</time>
      </trkpt>
      <trkpt lat="50.08617" lon="3.80251">
        <ele>164.04</ele>
        <time>2021-08-08T07:09:36Z</time>
      </trkpt>
      <trkpt lat="50.08594" lon="3.80255">
        <ele>165</ele>
        <time>2021-08-08T07:09:43Z</time>
      </trkpt>
      <trkpt lat="50.08563" lon="3.80259">
        <ele>162.6</ele>
        <time>2021-08-08T07:09:51Z</time>
      </trkpt>
      <trkpt lat="50.0854" lon="3.80265">
        <ele>161.16</ele>
        <time>2021-08-08T07:09:58Z</time>
      </trkpt>
      <trkpt lat="50.08533" lon="3.8027">
        <ele>160.68</ele>
        <time>2021-08-08T07:10:04Z</time>
      </trkpt>
      <trkpt lat="50.08531" lon="3.8027">
        <ele>160.68</ele>
        <time>2021-08-08T07:10:12Z</time>
      </trkpt>
      <trkpt lat="50.08521" lon="3.80279">
        <ele>160.2</ele>
        <time>2021-08-08T07:10:17Z</time>
      </trkpt>
      <trkpt lat="50.08509" lon="3.80297">
        <ele>160.2</ele>
        <time>2021-08-08T07:10:24Z</time>
      </trkpt>
      <trkpt lat="50.08499" lon="3.80318">
        <ele>160.2</ele>
        <time>2021-08-08T07:10:31Z</time>
      </trkpt>
      <trkpt lat="50.08499" lon="3.80322">
        <ele>160.2</ele>
        <time>2021-08-08T07:10:33Z</time>
      </trkpt>
      <trkpt lat="50.085" lon="3.80325">
        <ele>160.2</ele>
        <time>2021-08-08T07:10:34Z</time>
      </trkpt>
      <trkpt lat="50.08509" lon="3.80347">
        <ele>161.16</ele>
        <time>2021-08-08T07:10:40Z</time>
      </trkpt>
      <trkpt lat="50.0851" lon="3.80351">
        <ele>161.64</ele>
        <time>2021-08-08T07:10:41Z</time>
      </trkpt>
      <trkpt lat="50.0851" lon="3.80355">
        <ele>161.64</ele>
        <time>2021-08-08T07:10:42Z</time>
      </trkpt>
      <trkpt lat="50.08506" lon="3.80383">
        <ele>161.64</ele>
        <time>2021-08-08T07:10:49Z</time>
      </trkpt>
      <trkpt lat="50.08501" lon="3.80401">
        <ele>161.64</ele>
        <time>2021-08-08T07:10:55Z</time>
      </trkpt>
      <trkpt lat="50.08493" lon="3.80426">
        <ele>163.08</ele>
        <time>2021-08-08T07:11:02Z</time>
      </trkpt>
      <trkpt lat="50.0849" lon="3.80443">
        <ele>163.56</ele>
        <time>2021-08-08T07:11:08Z</time>
      </trkpt>
      <trkpt lat="50.08489" lon="3.80445">
        <ele>163.56</ele>
        <time>2021-08-08T07:11:09Z</time>
      </trkpt>
      <trkpt lat="50.08489" lon="3.80447">
        <ele>163.56</ele>
        <time>2021-08-08T07:11:10Z</time>
      </trkpt>
      <trkpt lat="50.08488" lon="3.80449">
        <ele>163.56</ele>
        <time>2021-08-08T07:11:11Z</time>
      </trkpt>
      <trkpt lat="50.08488" lon="3.80451">
        <ele>163.56</ele>
        <time>2021-08-08T07:11:12Z</time>
      </trkpt>
      <trkpt lat="50.08487" lon="3.80454">
        <ele>163.56</ele>
        <time>2021-08-08T07:11:13Z</time>
      </trkpt>
      <trkpt lat="50.08487" lon="3.80456">
        <ele>163.56</ele>
        <time>2021-08-08T07:11:14Z</time>
      </trkpt>
      <trkpt lat="50.08486" lon="3.80459">
        <ele>164.52</ele>
        <time>2021-08-08T07:11:15Z</time>
      </trkpt>
      <trkpt lat="50.08486" lon="3.80461">
        <ele>164.52</ele>
        <time>2021-08-08T07:11:16Z</time>
      </trkpt>
      <trkpt lat="50.08483" lon="3.80467">
        <ele>164.52</ele>
        <time>2021-08-08T07:11:19Z</time>
      </trkpt>
      <trkpt lat="50.0848" lon="3.80477">
        <ele>165.48</ele>
        <time>2021-08-08T07:11:25Z</time>
      </trkpt>
      <trkpt lat="50.08475" lon="3.80489">
        <ele>165.96</ele>
        <time>2021-08-08T07:11:33Z</time>
      </trkpt>
      <trkpt lat="50.08469" lon="3.80493">
        <ele>166.45</ele>
        <time>2021-08-08T07:11:38Z</time>
      </trkpt>
      <trkpt lat="50.08468" lon="3.80493">
        <ele>166.93</ele>
        <time>2021-08-08T07:11:39Z</time>
      </trkpt>
      <trkpt lat="50.08467" lon="3.80494">
        <ele>166.93</ele>
        <time>2021-08-08T07:11:40Z</time>
      </trkpt>
      <trkpt lat="50.08465" lon="3.80494">
        <ele>166.93</ele>
        <time>2021-08-08T07:11:41Z</time>
      </trkpt>
      <trkpt lat="50.08459" lon="3.80494">
        <ele>167.41</ele>
        <time>2021-08-08T07:11:47Z</time>
      </trkpt>
      <trkpt lat="50.08447" lon="3.80492">
        <ele>167.89</ele>
        <time>2021-08-08T07:11:56Z</time>
      </trkpt>
      <trkpt lat="50.08445" lon="3.80491">
        <ele>167.89</ele>
        <time>2021-08-08T07:11:57Z</time>
      </trkpt>
      <trkpt lat="50.08438" lon="3.8049">
        <ele>167.89</ele>
        <time>2021-08-08T07:12:02Z</time>
      </trkpt>
      <trkpt lat="50.08437" lon="3.80489">
        <ele>167.89</ele>
        <time>2021-08-08T07:12:03Z</time>
      </trkpt>
      <trkpt lat="50.08436" lon="3.80489">
        <ele>167.89</ele>
        <time>2021-08-08T07:12:04Z</time>
      </trkpt>
      <trkpt lat="50.08434" lon="3.80488">
        <ele>167.89</ele>
        <time>2021-08-08T07:12:05Z</time>
      </trkpt>
      <trkpt lat="50.08433" lon="3.80488">
        <ele>167.89</ele>
        <time>2021-08-08T07:12:06Z</time>
      </trkpt>
      <trkpt lat="50.08424" lon="3.80486">
        <ele>168.85</ele>
        <time>2021-08-08T07:12:13Z</time>
      </trkpt>
      <trkpt lat="50.08422" lon="3.80486">
        <ele>168.85</ele>
        <time>2021-08-08T07:12:15Z</time>
      </trkpt>
      <trkpt lat="50.08421" lon="3.80486">
        <ele>168.85</ele>
        <time>2021-08-08T07:12:16Z</time>
      </trkpt>
      <trkpt lat="50.08419" lon="3.80486">
        <ele>168.85</ele>
        <time>2021-08-08T07:12:17Z</time>
      </trkpt>
      <trkpt lat="50.08418" lon="3.80486">
        <ele>168.85</ele>
        <time>2021-08-08T07:12:18Z</time>
      </trkpt>
      <trkpt lat="50.08416" lon="3.80487">
        <ele>168.85</ele>
        <time>2021-08-08T07:12:19Z</time>
      </trkpt>
      <trkpt lat="50.08415" lon="3.80487">
        <ele>169.33</ele>
        <time>2021-08-08T07:12:20Z</time>
      </trkpt>
      <trkpt lat="50.08413" lon="3.80487">
        <ele>169.33</ele>
        <time>2021-08-08T07:12:21Z</time>
      </trkpt>
      <trkpt lat="50.08411" lon="3.80488">
        <ele>169.33</ele>
        <time>2021-08-08T07:12:22Z</time>
      </trkpt>
      <trkpt lat="50.08409" lon="3.80488">
        <ele>169.33</ele>
        <time>2021-08-08T07:12:23Z</time>
      </trkpt>
      <trkpt lat="50.08407" lon="3.80489">
        <ele>169.33</ele>
        <time>2021-08-08T07:12:24Z</time>
      </trkpt>
      <trkpt lat="50.08392" lon="3.80494">
        <ele>169.81</ele>
        <time>2021-08-08T07:12:32Z</time>
      </trkpt>
      <trkpt lat="50.08376" lon="3.805">
        <ele>169.81</ele>
        <time>2021-08-08T07:12:40Z</time>
      </trkpt>
      <trkpt lat="50.08357" lon="3.80511">
        <ele>170.77</ele>
        <time>2021-08-08T07:12:49Z</time>
      </trkpt>
      <trkpt lat="50.08339" lon="3.80521">
        <ele>171.73</ele>
        <time>2021-08-08T07:12:58Z</time>
      </trkpt>
      <trkpt lat="50.08319" lon="3.80537">
        <ele>172.69</ele>
        <time>2021-08-08T07:13:09Z</time>
      </trkpt>
      <trkpt lat="50.08312" lon="3.8055">
        <ele>173.17</ele>
        <time>2021-08-08T07:13:15Z</time>
      </trkpt>
      <trkpt lat="50.08311" lon="3.80552">
        <ele>173.17</ele>
        <time>2021-08-08T07:13:16Z</time>
      </trkpt>
      <trkpt lat="50.08309" lon="3.80554">
        <ele>173.17</ele>
        <time>2021-08-08T07:13:17Z</time>
      </trkpt>
      <trkpt lat="50.08308" lon="3.80556">
        <ele>173.66</ele>
        <time>2021-08-08T07:13:18Z</time>
      </trkpt>
      <trkpt lat="50.08307" lon="3.80559">
        <ele>173.66</ele>
        <time>2021-08-08T07:13:19Z</time>
      </trkpt>
      <trkpt lat="50.08306" lon="3.80561">
        <ele>173.66</ele>
        <time>2021-08-08T07:13:20Z</time>
      </trkpt>
      <trkpt lat="50.08304" lon="3.80563">
        <ele>173.66</ele>
        <time>2021-08-08T07:13:21Z</time>
      </trkpt>
      <trkpt lat="50.08303" lon="3.80566">
        <ele>173.66</ele>
        <time>2021-08-08T07:13:22Z</time>
      </trkpt>
      <trkpt lat="50.08293" lon="3.80593">
        <ele>174.62</ele>
        <time>2021-08-08T07:13:32Z</time>
      </trkpt>
      <trkpt lat="50.08287" lon="3.80613">
        <ele>174.62</ele>
        <time>2021-08-08T07:13:39Z</time>
      </trkpt>
      <trkpt lat="50.08281" lon="3.80642">
        <ele>175.58</ele>
        <time>2021-08-08T07:13:49Z</time>
      </trkpt>
      <trkpt lat="50.08276" lon="3.80669">
        <ele>176.54</ele>
        <time>2021-08-08T07:13:59Z</time>
      </trkpt>
      <trkpt lat="50.08276" lon="3.80672">
        <ele>176.54</ele>
        <time>2021-08-08T07:14:00Z</time>
      </trkpt>
      <trkpt lat="50.08275" lon="3.80675">
        <ele>176.54</ele>
        <time>2021-08-08T07:14:01Z</time>
      </trkpt>
      <trkpt lat="50.08273" lon="3.80689">
        <ele>177.02</ele>
        <time>2021-08-08T07:14:06Z</time>
      </trkpt>
      <trkpt lat="50.08273" lon="3.80692">
        <ele>177.02</ele>
        <time>2021-08-08T07:14:07Z</time>
      </trkpt>
      <trkpt lat="50.08273" lon="3.80695">
        <ele>177.02</ele>
        <time>2021-08-08T07:14:08Z</time>
      </trkpt>
      <trkpt lat="50.08273" lon="3.80698">
        <ele>177.02</ele>
        <time>2021-08-08T07:14:09Z</time>
      </trkpt>
      <trkpt lat="50.08272" lon="3.80701">
        <ele>177.02</ele>
        <time>2021-08-08T07:14:10Z</time>
      </trkpt>
      <trkpt lat="50.08272" lon="3.80704">
        <ele>177.02</ele>
        <time>2021-08-08T07:14:11Z</time>
      </trkpt>
      <trkpt lat="50.08272" lon="3.80707">
        <ele>177.02</ele>
        <time>2021-08-08T07:14:12Z</time>
      </trkpt>
      <trkpt lat="50.08271" lon="3.8071">
        <ele>177.02</ele>
        <time>2021-08-08T07:14:13Z</time>
      </trkpt>
      <trkpt lat="50.0827" lon="3.80723">
        <ele>177.02</ele>
        <time>2021-08-08T07:14:17Z</time>
      </trkpt>
      <trkpt lat="50.0827" lon="3.80726">
        <ele>177.02</ele>
        <time>2021-08-08T07:14:18Z</time>
      </trkpt>
      <trkpt lat="50.0827" lon="3.80729">
        <ele>177.02</ele>
        <time>2021-08-08T07:14:19Z</time>
      </trkpt>
      <trkpt lat="50.08265" lon="3.8075">
        <ele>178.46</ele>
        <time>2021-08-08T07:14:27Z</time>
      </trkpt>
      <trkpt lat="50.08259" lon="3.8077">
        <ele>179.42</ele>
        <time>2021-08-08T07:14:35Z</time>
      </trkpt>
      <trkpt lat="50.0825" lon="3.80792">
        <ele>179.9</ele>
        <time>2021-08-08T07:14:44Z</time>
      </trkpt>
      <trkpt lat="50.0824" lon="3.80807">
        <ele>180.38</ele>
        <time>2021-08-08T07:14:52Z</time>
      </trkpt>
      <trkpt lat="50.08235" lon="3.80815">
        <ele>180.87</ele>
        <time>2021-08-08T07:14:57Z</time>
      </trkpt>
      <trkpt lat="50.08234" lon="3.80817">
        <ele>180.87</ele>
        <time>2021-08-08T07:14:58Z</time>
      </trkpt>
      <trkpt lat="50.08232" lon="3.80819">
        <ele>180.87</ele>
        <time>2021-08-08T07:14:59Z</time>
      </trkpt>
      <trkpt lat="50.08219" lon="3.80837">
        <ele>181.83</ele>
        <time>2021-08-08T07:15:08Z</time>
      </trkpt>
      <trkpt lat="50.0821" lon="3.80851">
        <ele>181.83</ele>
        <time>2021-08-08T07:15:15Z</time>
      </trkpt>
      <trkpt lat="50.08206" lon="3.80856">
        <ele>181.83</ele>
        <time>2021-08-08T07:15:18Z</time>
      </trkpt>
      <trkpt lat="50.08205" lon="3.80858">
        <ele>182.31</ele>
        <time>2021-08-08T07:15:19Z</time>
      </trkpt>
      <trkpt lat="50.08204" lon="3.8086">
        <ele>182.31</ele>
        <time>2021-08-08T07:15:20Z</time>
      </trkpt>
      <trkpt lat="50.08202" lon="3.80863">
        <ele>182.31</ele>
        <time>2021-08-08T07:15:21Z</time>
      </trkpt>
      <trkpt lat="50.08201" lon="3.80865">
        <ele>182.31</ele>
        <time>2021-08-08T07:15:22Z</time>
      </trkpt>
      <trkpt lat="50.082" lon="3.80867">
        <ele>182.31</ele>
        <time>2021-08-08T07:15:23Z</time>
      </trkpt>
      <trkpt lat="50.08199" lon="3.80869">
        <ele>182.31</ele>
        <time>2021-08-08T07:15:24Z</time>
      </trkpt>
      <trkpt lat="50.08198" lon="3.80871">
        <ele>182.31</ele>
        <time>2021-08-08T07:15:25Z</time>
      </trkpt>
      <trkpt lat="50.08197" lon="3.80873">
        <ele>182.31</ele>
        <time>2021-08-08T07:15:26Z</time>
      </trkpt>
      <trkpt lat="50.08196" lon="3.80875">
        <ele>183.27</ele>
        <time>2021-08-08T07:15:27Z</time>
      </trkpt>
      <trkpt lat="50.08195" lon="3.80877">
        <ele>183.27</ele>
        <time>2021-08-08T07:15:28Z</time>
      </trkpt>
      <trkpt lat="50.08194" lon="3.80879">
        <ele>183.27</ele>
        <time>2021-08-08T07:15:29Z</time>
      </trkpt>
      <trkpt lat="50.08192" lon="3.80882">
        <ele>183.27</ele>
        <time>2021-08-08T07:15:30Z</time>
      </trkpt>
      <trkpt lat="50.08191" lon="3.80884">
        <ele>183.27</ele>
        <time>2021-08-08T07:15:31Z</time>
      </trkpt>
      <trkpt lat="50.0819" lon="3.80886">
        <ele>183.27</ele>
        <time>2021-08-08T07:15:32Z</time>
      </trkpt>
      <trkpt lat="50.08181" lon="3.80902">
        <ele>183.75</ele>
        <time>2021-08-08T07:15:39Z</time>
      </trkpt>
      <trkpt lat="50.0817" lon="3.80922">
        <ele>184.23</ele>
        <time>2021-08-08T07:15:48Z</time>
      </trkpt>
      <trkpt lat="50.0816" lon="3.8094">
        <ele>185.19</ele>
        <time>2021-08-08T07:15:56Z</time>
      </trkpt>
      <trkpt lat="50.08147" lon="3.80952">
        <ele>185.19</ele>
        <time>2021-08-08T07:16:04Z</time>
      </trkpt>
      <trkpt lat="50.08134" lon="3.8096">
        <ele>185.19</ele>
        <time>2021-08-08T07:16:12Z</time>
      </trkpt>
      <trkpt lat="50.08116" lon="3.8097">
        <ele>186.15</ele>
        <time>2021-08-08T07:16:22Z</time>
      </trkpt>
      <trkpt lat="50.08097" lon="3.80978">
        <ele>186.63</ele>
        <time>2021-08-08T07:16:33Z</time>
      </trkpt>
      <trkpt lat="50.08086" lon="3.80983">
        <ele>186.63</ele>
        <time>2021-08-08T07:16:40Z</time>
      </trkpt>
      <trkpt lat="50.08074" lon="3.80989">
        <ele>187.11</ele>
        <time>2021-08-08T07:16:48Z</time>
      </trkpt>
      <trkpt lat="50.08062" lon="3.80996">
        <ele>187.59</ele>
        <time>2021-08-08T07:16:56Z</time>
      </trkpt>
      <trkpt lat="50.08053" lon="3.81005">
        <ele>188.08</ele>
        <time>2021-08-08T07:17:03Z</time>
      </trkpt>
      <trkpt lat="50.08043" lon="3.81023">
        <ele>189.04</ele>
        <time>2021-08-08T07:17:12Z</time>
      </trkpt>
      <trkpt lat="50.08036" lon="3.81042">
        <ele>189.52</ele>
        <time>2021-08-08T07:17:20Z</time>
      </trkpt>
      <trkpt lat="50.08029" lon="3.81057">
        <ele>190</ele>
        <time>2021-08-08T07:17:27Z</time>
      </trkpt>
      <trkpt lat="50.08024" lon="3.81075">
        <ele>190</ele>
        <time>2021-08-08T07:17:34Z</time>
      </trkpt>
      <trkpt lat="50.08017" lon="3.81094">
        <ele>190.48</ele>
        <time>2021-08-08T07:17:41Z</time>
      </trkpt>
      <trkpt lat="50.08017" lon="3.81096">
        <ele>190.96</ele>
        <time>2021-08-08T07:17:42Z</time>
      </trkpt>
      <trkpt lat="50.08006" lon="3.8112">
        <ele>190.96</ele>
        <time>2021-08-08T07:17:51Z</time>
      </trkpt>
      <trkpt lat="50.07999" lon="3.81131">
        <ele>190.96</ele>
        <time>2021-08-08T07:17:56Z</time>
      </trkpt>
      <trkpt lat="50.07998" lon="3.81132">
        <ele>190.96</ele>
        <time>2021-08-08T07:17:57Z</time>
      </trkpt>
      <trkpt lat="50.07996" lon="3.81132">
        <ele>190</ele>
        <time>2021-08-08T07:17:58Z</time>
      </trkpt>
      <trkpt lat="50.07994" lon="3.81132">
        <ele>190</ele>
        <time>2021-08-08T07:17:59Z</time>
      </trkpt>
      <trkpt lat="50.07992" lon="3.81131">
        <ele>190</ele>
        <time>2021-08-08T07:18:00Z</time>
      </trkpt>
      <trkpt lat="50.0799" lon="3.81129">
        <ele>190</ele>
        <time>2021-08-08T07:18:01Z</time>
      </trkpt>
      <trkpt lat="50.07977" lon="3.81121">
        <ele>190.96</ele>
        <time>2021-08-08T07:18:06Z</time>
      </trkpt>
      <trkpt lat="50.07952" lon="3.811">
        <ele>190.96</ele>
        <time>2021-08-08T07:18:15Z</time>
      </trkpt>
      <trkpt lat="50.07914" lon="3.81069">
        <ele>192.4</ele>
        <time>2021-08-08T07:18:26Z</time>
      </trkpt>
      <trkpt lat="50.07874" lon="3.81041">
        <ele>193.84</ele>
        <time>2021-08-08T07:18:36Z</time>
      </trkpt>
      <trkpt lat="50.0787" lon="3.81038">
        <ele>193.84</ele>
        <time>2021-08-08T07:18:37Z</time>
      </trkpt>
      <trkpt lat="50.07866" lon="3.81035">
        <ele>193.84</ele>
        <time>2021-08-08T07:18:38Z</time>
      </trkpt>
      <trkpt lat="50.07822" lon="3.81007">
        <ele>193.84</ele>
        <time>2021-08-08T07:18:48Z</time>
      </trkpt>
      <trkpt lat="50.07813" lon="3.81">
        <ele>192.4</ele>
        <time>2021-08-08T07:18:50Z</time>
      </trkpt>
      <trkpt lat="50.0777" lon="3.80971">
        <ele>191.44</ele>
        <time>2021-08-08T07:18:59Z</time>
      </trkpt>
      <trkpt lat="50.07715" lon="3.80941">
        <ele>190.96</ele>
        <time>2021-08-08T07:19:09Z</time>
      </trkpt>
      <trkpt lat="50.07656" lon="3.80919">
        <ele>189.52</ele>
        <time>2021-08-08T07:19:19Z</time>
      </trkpt>
      <trkpt lat="50.07601" lon="3.80897">
        <ele>189.52</ele>
        <time>2021-08-08T07:19:29Z</time>
      </trkpt>
      <trkpt lat="50.0756" lon="3.80878">
        <ele>191.92</ele>
        <time>2021-08-08T07:19:38Z</time>
      </trkpt>
      <trkpt lat="50.07515" lon="3.80857">
        <ele>192.88</ele>
        <time>2021-08-08T07:19:48Z</time>
      </trkpt>
      <trkpt lat="50.07467" lon="3.80836">
        <ele>194.32</ele>
        <time>2021-08-08T07:19:59Z</time>
      </trkpt>
      <trkpt lat="50.07463" lon="3.80834">
        <ele>194.8</ele>
        <time>2021-08-08T07:20:00Z</time>
      </trkpt>
      <trkpt lat="50.07459" lon="3.80832">
        <ele>194.8</ele>
        <time>2021-08-08T07:20:01Z</time>
      </trkpt>
      <trkpt lat="50.0742" lon="3.80817">
        <ele>195.77</ele>
        <time>2021-08-08T07:20:10Z</time>
      </trkpt>
      <trkpt lat="50.0738" lon="3.80801">
        <ele>196.25</ele>
        <time>2021-08-08T07:20:20Z</time>
      </trkpt>
      <trkpt lat="50.07339" lon="3.80784">
        <ele>197.21</ele>
        <time>2021-08-08T07:20:30Z</time>
      </trkpt>
      <trkpt lat="50.07289" lon="3.80766">
        <ele>197.69</ele>
        <time>2021-08-08T07:20:42Z</time>
      </trkpt>
      <trkpt lat="50.07238" lon="3.80748">
        <ele>199.13</ele>
        <time>2021-08-08T07:20:54Z</time>
      </trkpt>
      <trkpt lat="50.0719" lon="3.8073">
        <ele>199.13</ele>
        <time>2021-08-08T07:21:05Z</time>
      </trkpt>
      <trkpt lat="50.07139" lon="3.80707">
        <ele>200.09</ele>
        <time>2021-08-08T07:21:16Z</time>
      </trkpt>
      <trkpt lat="50.07111" lon="3.80691">
        <ele>199.13</ele>
        <time>2021-08-08T07:21:22Z</time>
      </trkpt>
      <trkpt lat="50.07089" lon="3.8068">
        <ele>200.57</ele>
        <time>2021-08-08T07:21:27Z</time>
      </trkpt>
      <trkpt lat="50.07066" lon="3.80666">
        <ele>201.05</ele>
        <time>2021-08-08T07:21:32Z</time>
      </trkpt>
      <trkpt lat="50.07058" lon="3.80656">
        <ele>201.05</ele>
        <time>2021-08-08T07:21:34Z</time>
      </trkpt>
      <trkpt lat="50.07054" lon="3.80649">
        <ele>201.05</ele>
        <time>2021-08-08T07:21:35Z</time>
      </trkpt>
      <trkpt lat="50.07052" lon="3.80644">
        <ele>201.05</ele>
        <time>2021-08-08T07:21:36Z</time>
      </trkpt>
      <trkpt lat="50.07049" lon="3.80636">
        <ele>199.13</ele>
        <time>2021-08-08T07:21:37Z</time>
      </trkpt>
      <trkpt lat="50.07047" lon="3.80629">
        <ele>199.13</ele>
        <time>2021-08-08T07:21:38Z</time>
      </trkpt>
      <trkpt lat="50.07029" lon="3.80563">
        <ele>198.17</ele>
        <time>2021-08-08T07:21:46Z</time>
      </trkpt>
      <trkpt lat="50.07" lon="3.80461">
        <ele>195.28</ele>
        <time>2021-08-08T07:21:58Z</time>
      </trkpt>
      <trkpt lat="50.06969" lon="3.80385">
        <ele>194.8</ele>
        <time>2021-08-08T07:22:08Z</time>
      </trkpt>
      <trkpt lat="50.06935" lon="3.80325">
        <ele>194.8</ele>
        <time>2021-08-08T07:22:17Z</time>
      </trkpt>
      <trkpt lat="50.06902" lon="3.80282">
        <ele>195.28</ele>
        <time>2021-08-08T07:22:25Z</time>
      </trkpt>
      <trkpt lat="50.06893" lon="3.80272">
        <ele>196.25</ele>
        <time>2021-08-08T07:22:27Z</time>
      </trkpt>
      <trkpt lat="50.06855" lon="3.80228">
        <ele>196.73</ele>
        <time>2021-08-08T07:22:37Z</time>
      </trkpt>
      <trkpt lat="50.0685" lon="3.80223">
        <ele>196.73</ele>
        <time>2021-08-08T07:22:38Z</time>
      </trkpt>
      <trkpt lat="50.06806" lon="3.80168">
        <ele>198.65</ele>
        <time>2021-08-08T07:22:50Z</time>
      </trkpt>
      <trkpt lat="50.06788" lon="3.80139">
        <ele>199.13</ele>
        <time>2021-08-08T07:22:56Z</time>
      </trkpt>
      <trkpt lat="50.06772" lon="3.80093">
        <ele>201.05</ele>
        <time>2021-08-08T07:23:04Z</time>
      </trkpt>
      <trkpt lat="50.0675" lon="3.80035">
        <ele>202.49</ele>
        <time>2021-08-08T07:23:14Z</time>
      </trkpt>
      <trkpt lat="50.06748" lon="3.8003">
        <ele>202.49</ele>
        <time>2021-08-08T07:23:15Z</time>
      </trkpt>
      <trkpt lat="50.06718" lon="3.79996">
        <ele>202.49</ele>
        <time>2021-08-08T07:23:23Z</time>
      </trkpt>
      <trkpt lat="50.06678" lon="3.79963">
        <ele>202.98</ele>
        <time>2021-08-08T07:23:32Z</time>
      </trkpt>
      <trkpt lat="50.0663" lon="3.79913">
        <ele>200.57</ele>
        <time>2021-08-08T07:23:43Z</time>
      </trkpt>
      <trkpt lat="50.06592" lon="3.79869">
        <ele>200.57</ele>
        <time>2021-08-08T07:23:52Z</time>
      </trkpt>
      <trkpt lat="50.0655" lon="3.79824">
        <ele>198.65</ele>
        <time>2021-08-08T07:24:01Z</time>
      </trkpt>
      <trkpt lat="50.065" lon="3.79768">
        <ele>197.69</ele>
        <time>2021-08-08T07:24:11Z</time>
      </trkpt>
      <trkpt lat="50.06464" lon="3.79715">
        <ele>197.69</ele>
        <time>2021-08-08T07:24:19Z</time>
      </trkpt>
      <trkpt lat="50.06454" lon="3.79692">
        <ele>197.69</ele>
        <time>2021-08-08T07:24:22Z</time>
      </trkpt>
      <trkpt lat="50.06436" lon="3.79632">
        <ele>197.21</ele>
        <time>2021-08-08T07:24:29Z</time>
      </trkpt>
      <trkpt lat="50.06424" lon="3.7959">
        <ele>196.73</ele>
        <time>2021-08-08T07:24:34Z</time>
      </trkpt>
      <trkpt lat="50.06421" lon="3.79582">
        <ele>196.73</ele>
        <time>2021-08-08T07:24:35Z</time>
      </trkpt>
      <trkpt lat="50.06417" lon="3.79575">
        <ele>196.73</ele>
        <time>2021-08-08T07:24:36Z</time>
      </trkpt>
      <trkpt lat="50.06412" lon="3.79569">
        <ele>196.73</ele>
        <time>2021-08-08T07:24:37Z</time>
      </trkpt>
      <trkpt lat="50.06407" lon="3.79562">
        <ele>195.77</ele>
        <time>2021-08-08T07:24:38Z</time>
      </trkpt>
      <trkpt lat="50.06401" lon="3.79557">
        <ele>195.28</ele>
        <time>2021-08-08T07:24:39Z</time>
      </trkpt>
      <trkpt lat="50.06396" lon="3.79553">
        <ele>195.28</ele>
        <time>2021-08-08T07:24:40Z</time>
      </trkpt>
      <trkpt lat="50.06343" lon="3.79511">
        <ele>192.88</ele>
        <time>2021-08-08T07:24:49Z</time>
      </trkpt>
      <trkpt lat="50.06278" lon="3.79455">
        <ele>190.48</ele>
        <time>2021-08-08T07:25:00Z</time>
      </trkpt>
      <trkpt lat="50.06225" lon="3.79407">
        <ele>188.56</ele>
        <time>2021-08-08T07:25:09Z</time>
      </trkpt>
      <trkpt lat="50.06212" lon="3.7939">
        <ele>188.56</ele>
        <time>2021-08-08T07:25:13Z</time>
      </trkpt>
      <trkpt lat="50.06205" lon="3.79382">
        <ele>188.56</ele>
        <time>2021-08-08T07:25:18Z</time>
      </trkpt>
      <trkpt lat="50.06203" lon="3.79383">
        <ele>188.56</ele>
        <time>2021-08-08T07:25:19Z</time>
      </trkpt>
      <trkpt lat="50.06201" lon="3.79385">
        <ele>188.56</ele>
        <time>2021-08-08T07:25:20Z</time>
      </trkpt>
      <trkpt lat="50.062" lon="3.79388">
        <ele>188.56</ele>
        <time>2021-08-08T07:25:21Z</time>
      </trkpt>
      <trkpt lat="50.06198" lon="3.79392">
        <ele>188.56</ele>
        <time>2021-08-08T07:25:22Z</time>
      </trkpt>
      <trkpt lat="50.06196" lon="3.79396">
        <ele>188.56</ele>
        <time>2021-08-08T07:25:23Z</time>
      </trkpt>
      <trkpt lat="50.06194" lon="3.794">
        <ele>188.56</ele>
        <time>2021-08-08T07:25:24Z</time>
      </trkpt>
      <trkpt lat="50.06183" lon="3.79424">
        <ele>188.56</ele>
        <time>2021-08-08T07:25:29Z</time>
      </trkpt>
      <trkpt lat="50.06156" lon="3.79472">
        <ele>188.56</ele>
        <time>2021-08-08T07:25:38Z</time>
      </trkpt>
      <trkpt lat="50.06123" lon="3.79531">
        <ele>188.56</ele>
        <time>2021-08-08T07:25:48Z</time>
      </trkpt>
      <trkpt lat="50.06092" lon="3.79589">
        <ele>188.56</ele>
        <time>2021-08-08T07:25:57Z</time>
      </trkpt>
      <trkpt lat="50.06054" lon="3.79657">
        <ele>188.56</ele>
        <time>2021-08-08T07:26:08Z</time>
      </trkpt>
      <trkpt lat="50.06047" lon="3.79663">
        <ele>188.56</ele>
        <time>2021-08-08T07:26:10Z</time>
      </trkpt>
      <trkpt lat="50.06042" lon="3.79664">
        <ele>188.56</ele>
        <time>2021-08-08T07:26:11Z</time>
      </trkpt>
      <trkpt lat="50.06037" lon="3.79662">
        <ele>188.08</ele>
        <time>2021-08-08T07:26:12Z</time>
      </trkpt>
      <trkpt lat="50.06" lon="3.7964">
        <ele>187.11</ele>
        <time>2021-08-08T07:26:19Z</time>
      </trkpt>
      <trkpt lat="50.05964" lon="3.79619">
        <ele>186.63</ele>
        <time>2021-08-08T07:26:26Z</time>
      </trkpt>
      <trkpt lat="50.05959" lon="3.79616">
        <ele>186.63</ele>
        <time>2021-08-08T07:26:27Z</time>
      </trkpt>
      <trkpt lat="50.05956" lon="3.79611">
        <ele>186.63</ele>
        <time>2021-08-08T07:26:28Z</time>
      </trkpt>
      <trkpt lat="50.05952" lon="3.79606">
        <ele>186.63</ele>
        <time>2021-08-08T07:26:29Z</time>
      </trkpt>
      <trkpt lat="50.05949" lon="3.796">
        <ele>186.63</ele>
        <time>2021-08-08T07:26:30Z</time>
      </trkpt>
      <trkpt lat="50.05946" lon="3.79594">
        <ele>186.63</ele>
        <time>2021-08-08T07:26:31Z</time>
      </trkpt>
      <trkpt lat="50.05929" lon="3.79563">
        <ele>186.15</ele>
        <time>2021-08-08T07:26:36Z</time>
      </trkpt>
      <trkpt lat="50.05924" lon="3.79558">
        <ele>186.15</ele>
        <time>2021-08-08T07:26:37Z</time>
      </trkpt>
      <trkpt lat="50.0592" lon="3.79555">
        <ele>186.15</ele>
        <time>2021-08-08T07:26:38Z</time>
      </trkpt>
      <trkpt lat="50.05915" lon="3.79552">
        <ele>186.15</ele>
        <time>2021-08-08T07:26:39Z</time>
      </trkpt>
      <trkpt lat="50.0591" lon="3.79551">
        <ele>186.15</ele>
        <time>2021-08-08T07:26:40Z</time>
      </trkpt>
      <trkpt lat="50.05906" lon="3.7955">
        <ele>186.15</ele>
        <time>2021-08-08T07:26:41Z</time>
      </trkpt>
      <trkpt lat="50.05901" lon="3.7955">
        <ele>186.15</ele>
        <time>2021-08-08T07:26:42Z</time>
      </trkpt>
      <trkpt lat="50.05897" lon="3.79551">
        <ele>187.59</ele>
        <time>2021-08-08T07:26:43Z</time>
      </trkpt>
      <trkpt lat="50.05892" lon="3.79552">
        <ele>187.59</ele>
        <time>2021-08-08T07:26:44Z</time>
      </trkpt>
      <trkpt lat="50.05846" lon="3.79572">
        <ele>189.52</ele>
        <time>2021-08-08T07:26:55Z</time>
      </trkpt>
      <trkpt lat="50.05842" lon="3.79574">
        <ele>189.52</ele>
        <time>2021-08-08T07:26:56Z</time>
      </trkpt>
      <trkpt lat="50.05794" lon="3.79596">
        <ele>190</ele>
        <time>2021-08-08T07:27:08Z</time>
      </trkpt>
      <trkpt lat="50.05786" lon="3.79598">
        <ele>190.48</ele>
        <time>2021-08-08T07:27:10Z</time>
      </trkpt>
      <trkpt lat="50.05745" lon="3.79595">
        <ele>192.88</ele>
        <time>2021-08-08T07:27:20Z</time>
      </trkpt>
      <trkpt lat="50.05712" lon="3.79581">
        <ele>194.32</ele>
        <time>2021-08-08T07:27:29Z</time>
      </trkpt>
      <trkpt lat="50.05678" lon="3.79573">
        <ele>195.28</ele>
        <time>2021-08-08T07:27:38Z</time>
      </trkpt>
      <trkpt lat="50.05638" lon="3.79577">
        <ele>197.21</ele>
        <time>2021-08-08T07:27:48Z</time>
      </trkpt>
      <trkpt lat="50.05634" lon="3.79577">
        <ele>197.69</ele>
        <time>2021-08-08T07:27:49Z</time>
      </trkpt>
      <trkpt lat="50.0563" lon="3.79578">
        <ele>197.69</ele>
        <time>2021-08-08T07:27:50Z</time>
      </trkpt>
      <trkpt lat="50.05604" lon="3.79592">
        <ele>198.65</ele>
        <time>2021-08-08T07:27:57Z</time>
      </trkpt>
      <trkpt lat="50.0558" lon="3.79627">
        <ele>197.21</ele>
        <time>2021-08-08T07:28:04Z</time>
      </trkpt>
      <trkpt lat="50.05572" lon="3.79638">
        <ele>196.25</ele>
        <time>2021-08-08T07:28:06Z</time>
      </trkpt>
      <trkpt lat="50.05568" lon="3.79644">
        <ele>196.25</ele>
        <time>2021-08-08T07:28:07Z</time>
      </trkpt>
      <trkpt lat="50.05564" lon="3.79648">
        <ele>195.28</ele>
        <time>2021-08-08T07:28:08Z</time>
      </trkpt>
      <trkpt lat="50.0556" lon="3.79653">
        <ele>195.28</ele>
        <time>2021-08-08T07:28:09Z</time>
      </trkpt>
      <trkpt lat="50.05554" lon="3.79657">
        <ele>196.73</ele>
        <time>2021-08-08T07:28:10Z</time>
      </trkpt>
      <trkpt lat="50.05549" lon="3.7966">
        <ele>196.73</ele>
        <time>2021-08-08T07:28:11Z</time>
      </trkpt>
      <trkpt lat="50.055" lon="3.79686">
        <ele>196.73</ele>
        <time>2021-08-08T07:28:20Z</time>
      </trkpt>
      <trkpt lat="50.05446" lon="3.79706">
        <ele>196.73</ele>
        <time>2021-08-08T07:28:30Z</time>
      </trkpt>
      <trkpt lat="50.0539" lon="3.79732">
        <ele>198.17</ele>
        <time>2021-08-08T07:28:41Z</time>
      </trkpt>
      <trkpt lat="50.0534" lon="3.79759">
        <ele>199.13</ele>
        <time>2021-08-08T07:28:52Z</time>
      </trkpt>
      <trkpt lat="50.05303" lon="3.79781">
        <ele>200.09</ele>
        <time>2021-08-08T07:29:01Z</time>
      </trkpt>
      <trkpt lat="50.05299" lon="3.79784">
        <ele>200.09</ele>
        <time>2021-08-08T07:29:02Z</time>
      </trkpt>
      <trkpt lat="50.05295" lon="3.79786">
        <ele>200.09</ele>
        <time>2021-08-08T07:29:03Z</time>
      </trkpt>
      <trkpt lat="50.05271" lon="3.79794">
        <ele>201.05</ele>
        <time>2021-08-08T07:29:09Z</time>
      </trkpt>
      <trkpt lat="50.05236" lon="3.79806">
        <ele>202.49</ele>
        <time>2021-08-08T07:29:17Z</time>
      </trkpt>
      <trkpt lat="50.05195" lon="3.79818">
        <ele>202.49</ele>
        <time>2021-08-08T07:29:26Z</time>
      </trkpt>
      <trkpt lat="50.05134" lon="3.79839">
        <ele>202.49</ele>
        <time>2021-08-08T07:29:39Z</time>
      </trkpt>
      <trkpt lat="50.05087" lon="3.79865">
        <ele>202.98</ele>
        <time>2021-08-08T07:29:49Z</time>
      </trkpt>
      <trkpt lat="50.05039" lon="3.79897">
        <ele>202.01</ele>
        <time>2021-08-08T07:29:59Z</time>
      </trkpt>
      <trkpt lat="50.04989" lon="3.79924">
        <ele>201.05</ele>
        <time>2021-08-08T07:30:08Z</time>
      </trkpt>
      <trkpt lat="50.04935" lon="3.7995">
        <ele>198.65</ele>
        <time>2021-08-08T07:30:17Z</time>
      </trkpt>
      <trkpt lat="50.04929" lon="3.79953">
        <ele>198.65</ele>
        <time>2021-08-08T07:30:18Z</time>
      </trkpt>
      <trkpt lat="50.04877" lon="3.79977">
        <ele>197.21</ele>
        <time>2021-08-08T07:30:26Z</time>
      </trkpt>
      <trkpt lat="50.0482" lon="3.79991">
        <ele>197.21</ele>
        <time>2021-08-08T07:30:35Z</time>
      </trkpt>
      <trkpt lat="50.04771" lon="3.7999">
        <ele>196.25</ele>
        <time>2021-08-08T07:30:43Z</time>
      </trkpt>
      <trkpt lat="50.04749" lon="3.79986">
        <ele>195.28</ele>
        <time>2021-08-08T07:30:47Z</time>
      </trkpt>
      <trkpt lat="50.04719" lon="3.79971">
        <ele>196.73</ele>
        <time>2021-08-08T07:30:53Z</time>
      </trkpt>
      <trkpt lat="50.04678" lon="3.79939">
        <ele>196.73</ele>
        <time>2021-08-08T07:31:02Z</time>
      </trkpt>
      <trkpt lat="50.04633" lon="3.79906">
        <ele>197.21</ele>
        <time>2021-08-08T07:31:12Z</time>
      </trkpt>
      <trkpt lat="50.04588" lon="3.79876">
        <ele>199.61</ele>
        <time>2021-08-08T07:31:23Z</time>
      </trkpt>
      <trkpt lat="50.04558" lon="3.79852">
        <ele>201.05</ele>
        <time>2021-08-08T07:31:32Z</time>
      </trkpt>
      <trkpt lat="50.04532" lon="3.79825">
        <ele>202.01</ele>
        <time>2021-08-08T07:31:41Z</time>
      </trkpt>
      <trkpt lat="50.04506" lon="3.79795">
        <ele>202.49</ele>
        <time>2021-08-08T07:31:50Z</time>
      </trkpt>
      <trkpt lat="50.04475" lon="3.79759">
        <ele>203.46</ele>
        <time>2021-08-08T07:32:00Z</time>
      </trkpt>
      <trkpt lat="50.04444" lon="3.79725">
        <ele>203.94</ele>
        <time>2021-08-08T07:32:10Z</time>
      </trkpt>
      <trkpt lat="50.04411" lon="3.79692">
        <ele>204.42</ele>
        <time>2021-08-08T07:32:19Z</time>
      </trkpt>
      <trkpt lat="50.04403" lon="3.79685">
        <ele>202.98</ele>
        <time>2021-08-08T07:32:21Z</time>
      </trkpt>
      <trkpt lat="50.04385" lon="3.79666">
        <ele>204.9</ele>
        <time>2021-08-08T07:32:26Z</time>
      </trkpt>
      <trkpt lat="50.04354" lon="3.79636">
        <ele>204.9</ele>
        <time>2021-08-08T07:32:34Z</time>
      </trkpt>
      <trkpt lat="50.04312" lon="3.79597">
        <ele>204.9</ele>
        <time>2021-08-08T07:32:44Z</time>
      </trkpt>
      <trkpt lat="50.04264" lon="3.79567">
        <ele>205.38</ele>
        <time>2021-08-08T07:32:55Z</time>
      </trkpt>
      <trkpt lat="50.04219" lon="3.79556">
        <ele>206.34</ele>
        <time>2021-08-08T07:33:05Z</time>
      </trkpt>
      <trkpt lat="50.04192" lon="3.79552">
        <ele>207.3</ele>
        <time>2021-08-08T07:33:11Z</time>
      </trkpt>
      <trkpt lat="50.04142" lon="3.79547">
        <ele>207.3</ele>
        <time>2021-08-08T07:33:22Z</time>
      </trkpt>
      <trkpt lat="50.04097" lon="3.79546">
        <ele>208.26</ele>
        <time>2021-08-08T07:33:32Z</time>
      </trkpt>
      <trkpt lat="50.04056" lon="3.79552">
        <ele>208.26</ele>
        <time>2021-08-08T07:33:41Z</time>
      </trkpt>
      <trkpt lat="50.0401" lon="3.79558">
        <ele>208.26</ele>
        <time>2021-08-08T07:33:51Z</time>
      </trkpt>
      <trkpt lat="50.03966" lon="3.79557">
        <ele>208.74</ele>
        <time>2021-08-08T07:34:00Z</time>
      </trkpt>
      <trkpt lat="50.03931" lon="3.79557">
        <ele>207.3</ele>
        <time>2021-08-08T07:34:07Z</time>
      </trkpt>
      <trkpt lat="50.03915" lon="3.79558">
        <ele>207.3</ele>
        <time>2021-08-08T07:34:10Z</time>
      </trkpt>
      <trkpt lat="50.03909" lon="3.79558">
        <ele>207.3</ele>
        <time>2021-08-08T07:34:11Z</time>
      </trkpt>
      <trkpt lat="50.03856" lon="3.79561">
        <ele>207.78</ele>
        <time>2021-08-08T07:34:21Z</time>
      </trkpt>
      <trkpt lat="50.03851" lon="3.79562">
        <ele>207.78</ele>
        <time>2021-08-08T07:34:22Z</time>
      </trkpt>
      <trkpt lat="50.03803" lon="3.79572">
        <ele>207.78</ele>
        <time>2021-08-08T07:34:31Z</time>
      </trkpt>
      <trkpt lat="50.03777" lon="3.79576">
        <ele>206.34</ele>
        <time>2021-08-08T07:34:36Z</time>
      </trkpt>
      <trkpt lat="50.03724" lon="3.7958">
        <ele>206.34</ele>
        <time>2021-08-08T07:34:46Z</time>
      </trkpt>
      <trkpt lat="50.03658" lon="3.79591">
        <ele>205.86</ele>
        <time>2021-08-08T07:34:58Z</time>
      </trkpt>
      <trkpt lat="50.03608" lon="3.79589">
        <ele>205.38</ele>
        <time>2021-08-08T07:35:07Z</time>
      </trkpt>
      <trkpt lat="50.0359" lon="3.79583">
        <ele>204.9</ele>
        <time>2021-08-08T07:35:10Z</time>
      </trkpt>
      <trkpt lat="50.0354" lon="3.79555">
        <ele>203.46</ele>
        <time>2021-08-08T07:35:19Z</time>
      </trkpt>
      <trkpt lat="50.03486" lon="3.79518">
        <ele>200.57</ele>
        <time>2021-08-08T07:35:28Z</time>
      </trkpt>
      <trkpt lat="50.03436" lon="3.79494">
        <ele>199.61</ele>
        <time>2021-08-08T07:35:36Z</time>
      </trkpt>
      <trkpt lat="50.03423" lon="3.79492">
        <ele>199.61</ele>
        <time>2021-08-08T07:35:38Z</time>
      </trkpt>
      <trkpt lat="50.03374" lon="3.79485">
        <ele>199.13</ele>
        <time>2021-08-08T07:35:46Z</time>
      </trkpt>
      <trkpt lat="50.03334" lon="3.79465">
        <ele>199.13</ele>
        <time>2021-08-08T07:35:54Z</time>
      </trkpt>
      <trkpt lat="50.03326" lon="3.7946">
        <ele>201.05</ele>
        <time>2021-08-08T07:35:56Z</time>
      </trkpt>
      <trkpt lat="50.03301" lon="3.79443">
        <ele>201.05</ele>
        <time>2021-08-08T07:36:02Z</time>
      </trkpt>
      <trkpt lat="50.03261" lon="3.79428">
        <ele>202.01</ele>
        <time>2021-08-08T07:36:11Z</time>
      </trkpt>
      <trkpt lat="50.03223" lon="3.7942">
        <ele>202.49</ele>
        <time>2021-08-08T07:36:20Z</time>
      </trkpt>
      <trkpt lat="50.0319" lon="3.79413">
        <ele>203.94</ele>
        <time>2021-08-08T07:36:29Z</time>
      </trkpt>
      <trkpt lat="50.03174" lon="3.79411">
        <ele>203.94</ele>
        <time>2021-08-08T07:36:33Z</time>
      </trkpt>
      <trkpt lat="50.03161" lon="3.7941">
        <ele>204.42</ele>
        <time>2021-08-08T07:36:36Z</time>
      </trkpt>
      <trkpt lat="50.03109" lon="3.79394">
        <ele>204.9</ele>
        <time>2021-08-08T07:36:48Z</time>
      </trkpt>
      <trkpt lat="50.031" lon="3.79393">
        <ele>203.46</ele>
        <time>2021-08-08T07:36:50Z</time>
      </trkpt>
      <trkpt lat="50.03091" lon="3.79393">
        <ele>205.38</ele>
        <time>2021-08-08T07:36:52Z</time>
      </trkpt>
      <trkpt lat="50.03069" lon="3.79398">
        <ele>205.86</ele>
        <time>2021-08-08T07:36:57Z</time>
      </trkpt>
      <trkpt lat="50.03027" lon="3.7943">
        <ele>205.86</ele>
        <time>2021-08-08T07:37:07Z</time>
      </trkpt>
      <trkpt lat="50.03007" lon="3.79444">
        <ele>206.82</ele>
        <time>2021-08-08T07:37:12Z</time>
      </trkpt>
      <trkpt lat="50.0297" lon="3.7945">
        <ele>207.3</ele>
        <time>2021-08-08T07:37:21Z</time>
      </trkpt>
      <trkpt lat="50.02936" lon="3.79436">
        <ele>208.26</ele>
        <time>2021-08-08T07:37:30Z</time>
      </trkpt>
      <trkpt lat="50.02919" lon="3.79424">
        <ele>209.7</ele>
        <time>2021-08-08T07:37:35Z</time>
      </trkpt>
      <trkpt lat="50.02916" lon="3.79421">
        <ele>209.7</ele>
        <time>2021-08-08T07:37:36Z</time>
      </trkpt>
      <trkpt lat="50.02884" lon="3.79393">
        <ele>207.3</ele>
        <time>2021-08-08T07:37:44Z</time>
      </trkpt>
      <trkpt lat="50.02878" lon="3.79389">
        <ele>206.82</ele>
        <time>2021-08-08T07:37:45Z</time>
      </trkpt>
      <trkpt lat="50.02834" lon="3.79361">
        <ele>204.9</ele>
        <time>2021-08-08T07:37:53Z</time>
      </trkpt>
      <trkpt lat="50.02762" lon="3.79329">
        <ele>203.46</ele>
        <time>2021-08-08T07:38:04Z</time>
      </trkpt>
      <trkpt lat="50.02711" lon="3.79322">
        <ele>202.98</ele>
        <time>2021-08-08T07:38:12Z</time>
      </trkpt>
      <trkpt lat="50.02651" lon="3.79327">
        <ele>202.49</ele>
        <time>2021-08-08T07:38:22Z</time>
      </trkpt>
      <trkpt lat="50.02607" lon="3.79329">
        <ele>203.94</ele>
        <time>2021-08-08T07:38:30Z</time>
      </trkpt>
      <trkpt lat="50.02601" lon="3.79329">
        <ele>203.94</ele>
        <time>2021-08-08T07:38:31Z</time>
      </trkpt>
      <trkpt lat="50.02581" lon="3.79332">
        <ele>204.9</ele>
        <time>2021-08-08T07:38:35Z</time>
      </trkpt>
      <trkpt lat="50.02576" lon="3.79333">
        <ele>204.9</ele>
        <time>2021-08-08T07:38:36Z</time>
      </trkpt>
      <trkpt lat="50.02572" lon="3.79335">
        <ele>204.9</ele>
        <time>2021-08-08T07:38:37Z</time>
      </trkpt>
      <trkpt lat="50.02567" lon="3.79336">
        <ele>204.9</ele>
        <time>2021-08-08T07:38:38Z</time>
      </trkpt>
      <trkpt lat="50.02563" lon="3.79338">
        <ele>205.38</ele>
        <time>2021-08-08T07:38:39Z</time>
      </trkpt>
      <trkpt lat="50.02535" lon="3.79353">
        <ele>206.34</ele>
        <time>2021-08-08T07:38:46Z</time>
      </trkpt>
      <trkpt lat="50.02507" lon="3.79364">
        <ele>206.82</ele>
        <time>2021-08-08T07:38:53Z</time>
      </trkpt>
      <trkpt lat="50.02476" lon="3.79368">
        <ele>207.3</ele>
        <time>2021-08-08T07:39:01Z</time>
      </trkpt>
      <trkpt lat="50.02455" lon="3.79363">
        <ele>208.74</ele>
        <time>2021-08-08T07:39:07Z</time>
      </trkpt>
      <trkpt lat="50.02412" lon="3.79341">
        <ele>210.67</ele>
        <time>2021-08-08T07:39:19Z</time>
      </trkpt>
      <trkpt lat="50.02373" lon="3.79319">
        <ele>210.67</ele>
        <time>2021-08-08T07:39:29Z</time>
      </trkpt>
      <trkpt lat="50.02346" lon="3.79303">
        <ele>209.22</ele>
        <time>2021-08-08T07:39:35Z</time>
      </trkpt>
      <trkpt lat="50.02288" lon="3.79266">
        <ele>206.82</ele>
        <time>2021-08-08T07:39:47Z</time>
      </trkpt>
      <trkpt lat="50.02228" lon="3.79221">
        <ele>206.34</ele>
        <time>2021-08-08T07:39:59Z</time>
      </trkpt>
      <trkpt lat="50.02189" lon="3.79196">
        <ele>203.46</ele>
        <time>2021-08-08T07:40:06Z</time>
      </trkpt>
      <trkpt lat="50.02136" lon="3.79172">
        <ele>200.09</ele>
        <time>2021-08-08T07:40:14Z</time>
      </trkpt>
      <trkpt lat="50.02075" lon="3.79133">
        <ele>197.69</ele>
        <time>2021-08-08T07:40:23Z</time>
      </trkpt>
      <trkpt lat="50.02069" lon="3.79128">
        <ele>197.69</ele>
        <time>2021-08-08T07:40:24Z</time>
      </trkpt>
      <trkpt lat="50.02027" lon="3.79091">
        <ele>194.8</ele>
        <time>2021-08-08T07:40:30Z</time>
      </trkpt>
      <trkpt lat="50.01975" lon="3.79051">
        <ele>191.44</ele>
        <time>2021-08-08T07:40:37Z</time>
      </trkpt>
      <trkpt lat="50.01967" lon="3.79047">
        <ele>191.44</ele>
        <time>2021-08-08T07:40:38Z</time>
      </trkpt>
      <trkpt lat="50.01959" lon="3.79045">
        <ele>190.96</ele>
        <time>2021-08-08T07:40:39Z</time>
      </trkpt>
      <trkpt lat="50.0195" lon="3.79043">
        <ele>190</ele>
        <time>2021-08-08T07:40:40Z</time>
      </trkpt>
      <trkpt lat="50.01906" lon="3.79041">
        <ele>186.63</ele>
        <time>2021-08-08T07:40:45Z</time>
      </trkpt>
      <trkpt lat="50.01849" lon="3.79039">
        <ele>184.23</ele>
        <time>2021-08-08T07:40:51Z</time>
      </trkpt>
      <trkpt lat="50.0182" lon="3.79037">
        <ele>182.79</ele>
        <time>2021-08-08T07:40:54Z</time>
      </trkpt>
      <trkpt lat="50.01764" lon="3.79034">
        <ele>182.31</ele>
        <time>2021-08-08T07:41:01Z</time>
      </trkpt>
      <trkpt lat="50.01743" lon="3.79033">
        <ele>180.38</ele>
        <time>2021-08-08T07:41:06Z</time>
      </trkpt>
      <trkpt lat="50.01741" lon="3.79033">
        <ele>180.38</ele>
        <time>2021-08-08T07:41:07Z</time>
      </trkpt>
      <trkpt lat="50.01739" lon="3.79031">
        <ele>180.38</ele>
        <time>2021-08-08T07:41:08Z</time>
      </trkpt>
      <trkpt lat="50.01737" lon="3.79026">
        <ele>180.38</ele>
        <time>2021-08-08T07:41:12Z</time>
      </trkpt>
      <trkpt lat="50.01737" lon="3.79023">
        <ele>180.38</ele>
        <time>2021-08-08T07:41:13Z</time>
      </trkpt>
      <trkpt lat="50.01737" lon="3.79019">
        <ele>180.38</ele>
        <time>2021-08-08T07:41:14Z</time>
      </trkpt>
      <trkpt lat="50.01738" lon="3.79014">
        <ele>179.9</ele>
        <time>2021-08-08T07:41:15Z</time>
      </trkpt>
      <trkpt lat="50.01738" lon="3.79008">
        <ele>179.9</ele>
        <time>2021-08-08T07:41:16Z</time>
      </trkpt>
      <trkpt lat="50.01736" lon="3.78961">
        <ele>178.94</ele>
        <time>2021-08-08T07:41:22Z</time>
      </trkpt>
      <trkpt lat="50.01724" lon="3.78881">
        <ele>178.46</ele>
        <time>2021-08-08T07:41:32Z</time>
      </trkpt>
      <trkpt lat="50.01721" lon="3.78866">
        <ele>179.9</ele>
        <time>2021-08-08T07:41:34Z</time>
      </trkpt>
      <trkpt lat="50.01703" lon="3.78796">
        <ele>178.94</ele>
        <time>2021-08-08T07:41:44Z</time>
      </trkpt>
      <trkpt lat="50.01683" lon="3.78739">
        <ele>178.46</ele>
        <time>2021-08-08T07:41:52Z</time>
      </trkpt>
      <trkpt lat="50.01675" lon="3.78707">
        <ele>177.5</ele>
        <time>2021-08-08T07:41:56Z</time>
      </trkpt>
      <trkpt lat="50.01674" lon="3.78699">
        <ele>177.5</ele>
        <time>2021-08-08T07:41:57Z</time>
      </trkpt>
      <trkpt lat="50.01671" lon="3.78624">
        <ele>178.94</ele>
        <time>2021-08-08T07:42:06Z</time>
      </trkpt>
      <trkpt lat="50.01671" lon="3.78567">
        <ele>179.9</ele>
        <time>2021-08-08T07:42:15Z</time>
      </trkpt>
      <trkpt lat="50.0167" lon="3.78528">
        <ele>180.87</ele>
        <time>2021-08-08T07:42:22Z</time>
      </trkpt>
      <trkpt lat="50.01669" lon="3.78475">
        <ele>182.79</ele>
        <time>2021-08-08T07:42:31Z</time>
      </trkpt>
      <trkpt lat="50.01669" lon="3.78468">
        <ele>182.79</ele>
        <time>2021-08-08T07:42:32Z</time>
      </trkpt>
      <trkpt lat="50.01669" lon="3.78406">
        <ele>183.27</ele>
        <time>2021-08-08T07:42:42Z</time>
      </trkpt>
      <trkpt lat="50.0167" lon="3.78398">
        <ele>183.27</ele>
        <time>2021-08-08T07:42:43Z</time>
      </trkpt>
      <trkpt lat="50.0167" lon="3.78392">
        <ele>183.27</ele>
        <time>2021-08-08T07:42:44Z</time>
      </trkpt>
      <trkpt lat="50.01671" lon="3.78386">
        <ele>183.27</ele>
        <time>2021-08-08T07:42:45Z</time>
      </trkpt>
      <trkpt lat="50.01671" lon="3.78365">
        <ele>183.27</ele>
        <time>2021-08-08T07:42:48Z</time>
      </trkpt>
      <trkpt lat="50.0168" lon="3.78304">
        <ele>181.83</ele>
        <time>2021-08-08T07:42:57Z</time>
      </trkpt>
      <trkpt lat="50.01687" lon="3.78278">
        <ele>181.83</ele>
        <time>2021-08-08T07:43:02Z</time>
      </trkpt>
      <trkpt lat="50.01689" lon="3.78275">
        <ele>181.83</ele>
        <time>2021-08-08T07:43:03Z</time>
      </trkpt>
      <trkpt lat="50.01689" lon="3.78274">
        <ele>181.83</ele>
        <time>2021-08-08T07:43:07Z</time>
      </trkpt>
      <trkpt lat="50.01689" lon="3.78275">
        <ele>183.27</ele>
        <time>2021-08-08T07:43:26Z</time>
      </trkpt>
      <trkpt lat="50.01687" lon="3.78274">
        <ele>183.27</ele>
        <time>2021-08-08T07:43:39Z</time>
      </trkpt>
      <trkpt lat="50.01687" lon="3.78276">
        <ele>183.27</ele>
        <time>2021-08-08T07:43:40Z</time>
      </trkpt>
      <trkpt lat="50.01686" lon="3.78277">
        <ele>183.27</ele>
        <time>2021-08-08T07:43:41Z</time>
      </trkpt>
      <trkpt lat="50.01684" lon="3.7828">
        <ele>183.27</ele>
        <time>2021-08-08T07:43:42Z</time>
      </trkpt>
      <trkpt lat="50.01683" lon="3.78281">
        <ele>183.27</ele>
        <time>2021-08-08T07:43:43Z</time>
      </trkpt>
      <trkpt lat="50.01682" lon="3.78285">
        <ele>183.27</ele>
        <time>2021-08-08T07:43:44Z</time>
      </trkpt>
      <trkpt lat="50.01681" lon="3.7829">
        <ele>183.27</ele>
        <time>2021-08-08T07:43:45Z</time>
      </trkpt>
      <trkpt lat="50.01679" lon="3.78295">
        <ele>183.27</ele>
        <time>2021-08-08T07:43:46Z</time>
      </trkpt>
      <trkpt lat="50.01678" lon="3.78301">
        <ele>183.27</ele>
        <time>2021-08-08T07:43:47Z</time>
      </trkpt>
      <trkpt lat="50.01675" lon="3.7833">
        <ele>183.27</ele>
        <time>2021-08-08T07:43:52Z</time>
      </trkpt>
      <trkpt lat="50.01677" lon="3.7833">
        <ele>183.27</ele>
        <time>2021-08-08T07:43:53Z</time>
      </trkpt>
      <trkpt lat="50.01678" lon="3.7833">
        <ele>183.27</ele>
        <time>2021-08-08T07:43:54Z</time>
      </trkpt>
      <trkpt lat="50.01681" lon="3.78332">
        <ele>183.27</ele>
        <time>2021-08-08T07:43:58Z</time>
      </trkpt>
      <trkpt lat="50.01678" lon="3.78334">
        <ele>183.27</ele>
        <time>2021-08-08T07:44:02Z</time>
      </trkpt>
      <trkpt lat="50.01675" lon="3.78331">
        <ele>183.27</ele>
        <time>2021-08-08T07:44:07Z</time>
      </trkpt>
      <trkpt lat="50.01672" lon="3.78325">
        <ele>183.27</ele>
        <time>2021-08-08T07:44:11Z</time>
      </trkpt>
      <trkpt lat="50.01672" lon="3.78321">
        <ele>183.27</ele>
        <time>2021-08-08T07:44:19Z</time>
      </trkpt>
      <trkpt lat="50.01669" lon="3.78326">
        <ele>183.27</ele>
        <time>2021-08-08T07:44:23Z</time>
      </trkpt>
      <trkpt lat="50.01668" lon="3.78331">
        <ele>183.27</ele>
        <time>2021-08-08T07:44:24Z</time>
      </trkpt>
      <trkpt lat="50.01667" lon="3.78335">
        <ele>182.31</ele>
        <time>2021-08-08T07:44:25Z</time>
      </trkpt>
      <trkpt lat="50.01664" lon="3.7838">
        <ele>182.31</ele>
        <time>2021-08-08T07:44:33Z</time>
      </trkpt>
      <trkpt lat="50.01663" lon="3.78389">
        <ele>182.31</ele>
        <time>2021-08-08T07:44:35Z</time>
      </trkpt>
      <trkpt lat="50.01661" lon="3.78392">
        <ele>182.31</ele>
        <time>2021-08-08T07:44:36Z</time>
      </trkpt>
      <trkpt lat="50.01658" lon="3.78393">
        <ele>182.31</ele>
        <time>2021-08-08T07:44:37Z</time>
      </trkpt>
      <trkpt lat="50.01655" lon="3.78394">
        <ele>182.31</ele>
        <time>2021-08-08T07:44:38Z</time>
      </trkpt>
      <trkpt lat="50.01651" lon="3.78394">
        <ele>182.31</ele>
        <time>2021-08-08T07:44:39Z</time>
      </trkpt>
      <trkpt lat="50.01642" lon="3.78394">
        <ele>181.35</ele>
        <time>2021-08-08T07:44:41Z</time>
      </trkpt>
      <trkpt lat="50.01621" lon="3.78396">
        <ele>178.46</ele>
        <time>2021-08-08T07:44:45Z</time>
      </trkpt>
      <trkpt lat="50.01615" lon="3.78395">
        <ele>177.98</ele>
        <time>2021-08-08T07:44:46Z</time>
      </trkpt>
      <trkpt lat="50.01587" lon="3.78391">
        <ele>177.02</ele>
        <time>2021-08-08T07:44:50Z</time>
      </trkpt>
      <trkpt lat="50.01579" lon="3.78391">
        <ele>176.06</ele>
        <time>2021-08-08T07:44:51Z</time>
      </trkpt>
      <trkpt lat="50.01572" lon="3.78392">
        <ele>175.1</ele>
        <time>2021-08-08T07:44:52Z</time>
      </trkpt>
      <trkpt lat="50.01566" lon="3.78393">
        <ele>175.1</ele>
        <time>2021-08-08T07:44:53Z</time>
      </trkpt>
      <trkpt lat="50.01545" lon="3.78395">
        <ele>173.66</ele>
        <time>2021-08-08T07:44:57Z</time>
      </trkpt>
      <trkpt lat="50.01541" lon="3.78391">
        <ele>172.69</ele>
        <time>2021-08-08T07:44:58Z</time>
      </trkpt>
      <trkpt lat="50.01539" lon="3.78385">
        <ele>172.69</ele>
        <time>2021-08-08T07:44:59Z</time>
      </trkpt>
      <trkpt lat="50.01537" lon="3.78378">
        <ele>172.69</ele>
        <time>2021-08-08T07:45:00Z</time>
      </trkpt>
      <trkpt lat="50.01537" lon="3.7837">
        <ele>172.21</ele>
        <time>2021-08-08T07:45:01Z</time>
      </trkpt>
      <trkpt lat="50.01536" lon="3.78363">
        <ele>171.25</ele>
        <time>2021-08-08T07:45:02Z</time>
      </trkpt>
      <trkpt lat="50.01536" lon="3.78354">
        <ele>171.25</ele>
        <time>2021-08-08T07:45:03Z</time>
      </trkpt>
      <trkpt lat="50.01532" lon="3.78304">
        <ele>170.77</ele>
        <time>2021-08-08T07:45:09Z</time>
      </trkpt>
      <trkpt lat="50.01533" lon="3.78295">
        <ele>170.29</ele>
        <time>2021-08-08T07:45:10Z</time>
      </trkpt>
      <trkpt lat="50.01534" lon="3.78287">
        <ele>170.29</ele>
        <time>2021-08-08T07:45:11Z</time>
      </trkpt>
      <trkpt lat="50.01536" lon="3.7828">
        <ele>170.29</ele>
        <time>2021-08-08T07:45:12Z</time>
      </trkpt>
      <trkpt lat="50.01538" lon="3.78272">
        <ele>171.73</ele>
        <time>2021-08-08T07:45:13Z</time>
      </trkpt>
      <trkpt lat="50.01539" lon="3.78265">
        <ele>171.73</ele>
        <time>2021-08-08T07:45:14Z</time>
      </trkpt>
      <trkpt lat="50.0155" lon="3.7822">
        <ele>172.21</ele>
        <time>2021-08-08T07:45:20Z</time>
      </trkpt>
      <trkpt lat="50.01562" lon="3.78183">
        <ele>173.66</ele>
        <time>2021-08-08T07:45:27Z</time>
      </trkpt>
      <trkpt lat="50.01564" lon="3.78151">
        <ele>175.1</ele>
        <time>2021-08-08T07:45:33Z</time>
      </trkpt>
      <trkpt lat="50.01559" lon="3.78143">
        <ele>175.1</ele>
        <time>2021-08-08T07:45:35Z</time>
      </trkpt>
      <trkpt lat="50.01555" lon="3.78139">
        <ele>173.17</ele>
        <time>2021-08-08T07:45:36Z</time>
      </trkpt>
      <trkpt lat="50.01551" lon="3.78136">
        <ele>173.17</ele>
        <time>2021-08-08T07:45:37Z</time>
      </trkpt>
      <trkpt lat="50.01512" lon="3.78107">
        <ele>171.25</ele>
        <time>2021-08-08T07:45:44Z</time>
      </trkpt>
      <trkpt lat="50.01463" lon="3.78072">
        <ele>169.81</ele>
        <time>2021-08-08T07:45:52Z</time>
      </trkpt>
      <trkpt lat="50.0142" lon="3.78043">
        <ele>169.81</ele>
        <time>2021-08-08T07:46:00Z</time>
      </trkpt>
      <trkpt lat="50.01393" lon="3.78025">
        <ele>169.81</ele>
        <time>2021-08-08T07:46:06Z</time>
      </trkpt>
      <trkpt lat="50.01363" lon="3.78004">
        <ele>171.73</ele>
        <time>2021-08-08T07:46:13Z</time>
      </trkpt>
      <trkpt lat="50.01332" lon="3.77984">
        <ele>172.21</ele>
        <time>2021-08-08T07:46:21Z</time>
      </trkpt>
      <trkpt lat="50.01314" lon="3.77974">
        <ele>173.17</ele>
        <time>2021-08-08T07:46:27Z</time>
      </trkpt>
      <trkpt lat="50.01311" lon="3.77977">
        <ele>173.17</ele>
        <time>2021-08-08T07:46:28Z</time>
      </trkpt>
      <trkpt lat="50.01308" lon="3.77983">
        <ele>173.66</ele>
        <time>2021-08-08T07:46:29Z</time>
      </trkpt>
      <trkpt lat="50.01307" lon="3.77988">
        <ele>173.66</ele>
        <time>2021-08-08T07:46:30Z</time>
      </trkpt>
      <trkpt lat="50.01305" lon="3.77993">
        <ele>173.66</ele>
        <time>2021-08-08T07:46:31Z</time>
      </trkpt>
      <trkpt lat="50.01299" lon="3.7802">
        <ele>175.58</ele>
        <time>2021-08-08T07:46:37Z</time>
      </trkpt>
      <trkpt lat="50.01298" lon="3.78028">
        <ele>175.58</ele>
        <time>2021-08-08T07:46:39Z</time>
      </trkpt>
      <trkpt lat="50.01296" lon="3.78031">
        <ele>175.58</ele>
        <time>2021-08-08T07:46:40Z</time>
      </trkpt>
      <trkpt lat="50.01293" lon="3.78032">
        <ele>175.58</ele>
        <time>2021-08-08T07:46:41Z</time>
      </trkpt>
      <trkpt lat="50.01291" lon="3.78033">
        <ele>175.58</ele>
        <time>2021-08-08T07:46:42Z</time>
      </trkpt>
      <trkpt lat="50.01288" lon="3.78034">
        <ele>176.06</ele>
        <time>2021-08-08T07:46:43Z</time>
      </trkpt>
      <trkpt lat="50.01277" lon="3.78042">
        <ele>176.54</ele>
        <time>2021-08-08T07:46:48Z</time>
      </trkpt>
      <trkpt lat="50.01278" lon="3.78042">
        <ele>176.54</ele>
        <time>2021-08-08T07:46:55Z</time>
      </trkpt>
      <trkpt lat="50.01279" lon="3.78042">
        <ele>176.54</ele>
        <time>2021-08-08T07:47:10Z</time>
      </trkpt>
      <trkpt lat="50.01282" lon="3.78043">
        <ele>176.54</ele>
        <time>2021-08-08T07:47:30Z</time>
      </trkpt>
      <trkpt lat="50.01283" lon="3.78043">
        <ele>176.54</ele>
        <time>2021-08-08T07:47:52Z</time>
      </trkpt>
      <trkpt lat="50.01282" lon="3.78043">
        <ele>176.54</ele>
        <time>2021-08-08T07:48:10Z</time>
      </trkpt>
      <trkpt lat="50.01282" lon="3.78042">
        <ele>176.54</ele>
        <time>2021-08-08T07:48:26Z</time>
      </trkpt>
      <trkpt lat="50.01281" lon="3.78041">
        <ele>176.54</ele>
        <time>2021-08-08T07:48:44Z</time>
      </trkpt>
      <trkpt lat="50.01281" lon="3.78041">
        <ele>176.54</ele>
        <time>2021-08-08T07:48:57Z</time>
      </trkpt>
      <trkpt lat="50.0128" lon="3.7804">
        <ele>176.54</ele>
        <time>2021-08-08T07:49:16Z</time>
      </trkpt>
      <trkpt lat="50.01279" lon="3.7804">
        <ele>176.54</ele>
        <time>2021-08-08T07:49:33Z</time>
      </trkpt>
      <trkpt lat="50.01278" lon="3.78039">
        <ele>176.54</ele>
        <time>2021-08-08T07:49:39Z</time>
      </trkpt>
      <trkpt lat="50.01279" lon="3.7804">
        <ele>176.54</ele>
        <time>2021-08-08T07:49:47Z</time>
      </trkpt>
      <trkpt lat="50.0128" lon="3.7804">
        <ele>177.02</ele>
        <time>2021-08-08T07:50:04Z</time>
      </trkpt>
      <trkpt lat="50.0128" lon="3.7804">
        <ele>177.02</ele>
        <time>2021-08-08T07:50:22Z</time>
      </trkpt>
      <trkpt lat="50.01279" lon="3.78041">
        <ele>177.02</ele>
        <time>2021-08-08T07:50:43Z</time>
      </trkpt>
      <trkpt lat="50.01279" lon="3.78041">
        <ele>177.02</ele>
        <time>2021-08-08T07:50:59Z</time>
      </trkpt>
      <trkpt lat="50.0128" lon="3.7804">
        <ele>177.02</ele>
        <time>2021-08-08T07:51:16Z</time>
      </trkpt>
      <trkpt lat="50.0128" lon="3.7804">
        <ele>177.02</ele>
        <time>2021-08-08T07:51:29Z</time>
      </trkpt>
      <trkpt lat="50.0128" lon="3.78041">
        <ele>177.02</ele>
        <time>2021-08-08T07:51:48Z</time>
      </trkpt>
      <trkpt lat="50.01279" lon="3.7804">
        <ele>177.02</ele>
        <time>2021-08-08T07:52:07Z</time>
      </trkpt>
      <trkpt lat="50.01277" lon="3.7804">
        <ele>177.02</ele>
        <time>2021-08-08T07:52:26Z</time>
      </trkpt>
      <trkpt lat="50.01277" lon="3.78041">
        <ele>177.02</ele>
        <time>2021-08-08T07:52:44Z</time>
      </trkpt>
      <trkpt lat="50.01278" lon="3.7804">
        <ele>177.02</ele>
        <time>2021-08-08T07:53:03Z</time>
      </trkpt>
      <trkpt lat="50.01279" lon="3.78041">
        <ele>177.02</ele>
        <time>2021-08-08T07:53:21Z</time>
      </trkpt>
      <trkpt lat="50.0128" lon="3.78039">
        <ele>177.02</ele>
        <time>2021-08-08T07:53:39Z</time>
      </trkpt>
      <trkpt lat="50.01279" lon="3.7804">
        <ele>177.5</ele>
        <time>2021-08-08T07:54:01Z</time>
      </trkpt>
      <trkpt lat="50.01278" lon="3.78039">
        <ele>177.5</ele>
        <time>2021-08-08T07:54:14Z</time>
      </trkpt>
      <trkpt lat="50.01279" lon="3.78041">
        <ele>177.5</ele>
        <time>2021-08-08T07:54:32Z</time>
      </trkpt>
      <trkpt lat="50.01279" lon="3.78041">
        <ele>177.5</ele>
        <time>2021-08-08T07:54:53Z</time>
      </trkpt>
      <trkpt lat="50.01279" lon="3.78043">
        <ele>176.06</ele>
        <time>2021-08-08T07:55:09Z</time>
      </trkpt>
      <trkpt lat="50.01279" lon="3.78043">
        <ele>176.06</ele>
        <time>2021-08-08T07:55:24Z</time>
      </trkpt>
      <trkpt lat="50.01279" lon="3.78045">
        <ele>176.06</ele>
        <time>2021-08-08T07:55:40Z</time>
      </trkpt>
      <trkpt lat="50.01277" lon="3.78044">
        <ele>176.06</ele>
        <time>2021-08-08T07:56:01Z</time>
      </trkpt>
      <trkpt lat="50.01277" lon="3.78043">
        <ele>176.06</ele>
        <time>2021-08-08T07:56:16Z</time>
      </trkpt>
      <trkpt lat="50.01278" lon="3.78042">
        <ele>176.06</ele>
        <time>2021-08-08T07:56:34Z</time>
      </trkpt>
      <trkpt lat="50.01279" lon="3.78043">
        <ele>176.06</ele>
        <time>2021-08-08T07:56:59Z</time>
      </trkpt>
      <trkpt lat="50.01279" lon="3.78043">
        <ele>176.06</ele>
        <time>2021-08-08T07:57:16Z</time>
      </trkpt>
      <trkpt lat="50.01278" lon="3.78042">
        <ele>176.06</ele>
        <time>2021-08-08T07:57:33Z</time>
      </trkpt>
      <trkpt lat="50.01276" lon="3.78042">
        <ele>176.06</ele>
        <time>2021-08-08T07:57:52Z</time>
      </trkpt>
      <trkpt lat="50.01276" lon="3.7804">
        <ele>176.06</ele>
        <time>2021-08-08T07:58:12Z</time>
      </trkpt>
      <trkpt lat="50.01276" lon="3.78038">
        <ele>177.5</ele>
        <time>2021-08-08T07:58:32Z</time>
      </trkpt>
      <trkpt lat="50.01276" lon="3.78039">
        <ele>177.5</ele>
        <time>2021-08-08T07:58:56Z</time>
      </trkpt>
      <trkpt lat="50.01275" lon="3.78036">
        <ele>177.5</ele>
        <time>2021-08-08T07:59:05Z</time>
      </trkpt>
      <trkpt lat="50.01275" lon="3.7804">
        <ele>177.5</ele>
        <time>2021-08-08T07:59:28Z</time>
      </trkpt>
      <trkpt lat="50.01275" lon="3.7804">
        <ele>177.5</ele>
        <time>2021-08-08T07:59:47Z</time>
      </trkpt>
      <trkpt lat="50.01276" lon="3.78041">
        <ele>177.5</ele>
        <time>2021-08-08T08:00:14Z</time>
      </trkpt>
      <trkpt lat="50.01275" lon="3.78044">
        <ele>177.5</ele>
        <time>2021-08-08T08:00:24Z</time>
      </trkpt>
      <trkpt lat="50.01275" lon="3.78045">
        <ele>177.5</ele>
        <time>2021-08-08T08:00:35Z</time>
      </trkpt>
      <trkpt lat="50.01276" lon="3.78045">
        <ele>177.5</ele>
        <time>2021-08-08T08:00:59Z</time>
      </trkpt>
      <trkpt lat="50.01277" lon="3.78046">
        <ele>176.06</ele>
        <time>2021-08-08T08:01:22Z</time>
      </trkpt>
      <trkpt lat="50.01277" lon="3.78046">
        <ele>176.06</ele>
        <time>2021-08-08T08:01:44Z</time>
      </trkpt>
      <trkpt lat="50.01276" lon="3.78047">
        <ele>176.06</ele>
        <time>2021-08-08T08:02:00Z</time>
      </trkpt>
      <trkpt lat="50.01275" lon="3.78047">
        <ele>176.06</ele>
        <time>2021-08-08T08:02:08Z</time>
      </trkpt>
      <trkpt lat="50.01274" lon="3.78049">
        <ele>176.06</ele>
        <time>2021-08-08T08:02:09Z</time>
      </trkpt>
      <trkpt lat="50.01274" lon="3.78052">
        <ele>176.06</ele>
        <time>2021-08-08T08:02:12Z</time>
      </trkpt>
      <trkpt lat="50.01275" lon="3.78047">
        <ele>176.06</ele>
        <time>2021-08-08T08:02:18Z</time>
      </trkpt>
      <trkpt lat="50.01274" lon="3.78046">
        <ele>177.02</ele>
        <time>2021-08-08T08:02:37Z</time>
      </trkpt>
      <trkpt lat="50.01278" lon="3.78042">
        <ele>177.02</ele>
        <time>2021-08-08T08:02:46Z</time>
      </trkpt>
      <trkpt lat="50.01281" lon="3.78037">
        <ele>176.06</ele>
        <time>2021-08-08T08:02:49Z</time>
      </trkpt>
      <trkpt lat="50.01296" lon="3.78027">
        <ele>176.06</ele>
        <time>2021-08-08T08:02:58Z</time>
      </trkpt>
      <trkpt lat="50.01297" lon="3.78024">
        <ele>175.58</ele>
        <time>2021-08-08T08:02:59Z</time>
      </trkpt>
      <trkpt lat="50.01298" lon="3.78021">
        <ele>175.58</ele>
        <time>2021-08-08T08:03:00Z</time>
      </trkpt>
      <trkpt lat="50.01298" lon="3.78017">
        <ele>175.58</ele>
        <time>2021-08-08T08:03:01Z</time>
      </trkpt>
      <trkpt lat="50.01298" lon="3.78013">
        <ele>175.58</ele>
        <time>2021-08-08T08:03:02Z</time>
      </trkpt>
      <trkpt lat="50.01298" lon="3.78009">
        <ele>175.58</ele>
        <time>2021-08-08T08:03:03Z</time>
      </trkpt>
      <trkpt lat="50.013" lon="3.78006">
        <ele>175.58</ele>
        <time>2021-08-08T08:03:04Z</time>
      </trkpt>
      <trkpt lat="50.01301" lon="3.78002">
        <ele>175.58</ele>
        <time>2021-08-08T08:03:05Z</time>
      </trkpt>
      <trkpt lat="50.01311" lon="3.77976">
        <ele>174.14</ele>
        <time>2021-08-08T08:03:11Z</time>
      </trkpt>
      <trkpt lat="50.01313" lon="3.77976">
        <ele>174.14</ele>
        <time>2021-08-08T08:03:12Z</time>
      </trkpt>
      <trkpt lat="50.01329" lon="3.77987">
        <ele>173.66</ele>
        <time>2021-08-08T08:03:17Z</time>
      </trkpt>
      <trkpt lat="50.01359" lon="3.78007">
        <ele>172.21</ele>
        <time>2021-08-08T08:03:23Z</time>
      </trkpt>
      <trkpt lat="50.01403" lon="3.78039">
        <ele>171.25</ele>
        <time>2021-08-08T08:03:31Z</time>
      </trkpt>
      <trkpt lat="50.01441" lon="3.78064">
        <ele>171.25</ele>
        <time>2021-08-08T08:03:38Z</time>
      </trkpt>
      <trkpt lat="50.01446" lon="3.78068">
        <ele>171.73</ele>
        <time>2021-08-08T08:03:39Z</time>
      </trkpt>
      <trkpt lat="50.01452" lon="3.78072">
        <ele>171.73</ele>
        <time>2021-08-08T08:03:40Z</time>
      </trkpt>
      <trkpt lat="50.01509" lon="3.78111">
        <ele>171.25</ele>
        <time>2021-08-08T08:03:51Z</time>
      </trkpt>
      <trkpt lat="50.01535" lon="3.78129">
        <ele>172.69</ele>
        <time>2021-08-08T08:03:57Z</time>
      </trkpt>
      <trkpt lat="50.01539" lon="3.78132">
        <ele>172.69</ele>
        <time>2021-08-08T08:03:58Z</time>
      </trkpt>
      <trkpt lat="50.01561" lon="3.78148">
        <ele>174.62</ele>
        <time>2021-08-08T08:04:05Z</time>
      </trkpt>
      <trkpt lat="50.01566" lon="3.78159">
        <ele>175.58</ele>
        <time>2021-08-08T08:04:08Z</time>
      </trkpt>
      <trkpt lat="50.01566" lon="3.78163">
        <ele>176.06</ele>
        <time>2021-08-08T08:04:09Z</time>
      </trkpt>
      <trkpt lat="50.01565" lon="3.78168">
        <ele>176.06</ele>
        <time>2021-08-08T08:04:10Z</time>
      </trkpt>
      <trkpt lat="50.01563" lon="3.78173">
        <ele>176.06</ele>
        <time>2021-08-08T08:04:11Z</time>
      </trkpt>
      <trkpt lat="50.01562" lon="3.78178">
        <ele>176.06</ele>
        <time>2021-08-08T08:04:12Z</time>
      </trkpt>
      <trkpt lat="50.01559" lon="3.78184">
        <ele>176.06</ele>
        <time>2021-08-08T08:04:13Z</time>
      </trkpt>
      <trkpt lat="50.01548" lon="3.78217">
        <ele>174.62</ele>
        <time>2021-08-08T08:04:18Z</time>
      </trkpt>
      <trkpt lat="50.01538" lon="3.7826">
        <ele>172.21</ele>
        <time>2021-08-08T08:04:23Z</time>
      </trkpt>
      <trkpt lat="50.01531" lon="3.78293">
        <ele>171.25</ele>
        <time>2021-08-08T08:04:27Z</time>
      </trkpt>
      <trkpt lat="50.0153" lon="3.78301">
        <ele>171.25</ele>
        <time>2021-08-08T08:04:28Z</time>
      </trkpt>
      <trkpt lat="50.0153" lon="3.7831">
        <ele>172.69</ele>
        <time>2021-08-08T08:04:29Z</time>
      </trkpt>
      <trkpt lat="50.01531" lon="3.78317">
        <ele>172.69</ele>
        <time>2021-08-08T08:04:30Z</time>
      </trkpt>
      <trkpt lat="50.01531" lon="3.78333">
        <ele>172.69</ele>
        <time>2021-08-08T08:04:32Z</time>
      </trkpt>
      <trkpt lat="50.01536" lon="3.78381">
        <ele>173.66</ele>
        <time>2021-08-08T08:04:39Z</time>
      </trkpt>
      <trkpt lat="50.01537" lon="3.78395">
        <ele>174.14</ele>
        <time>2021-08-08T08:04:41Z</time>
      </trkpt>
      <trkpt lat="50.01537" lon="3.78401">
        <ele>174.14</ele>
        <time>2021-08-08T08:04:42Z</time>
      </trkpt>
      <trkpt lat="50.01545" lon="3.78463">
        <ele>174.14</ele>
        <time>2021-08-08T08:04:50Z</time>
      </trkpt>
      <trkpt lat="50.01548" lon="3.78491">
        <ele>172.69</ele>
        <time>2021-08-08T08:04:53Z</time>
      </trkpt>
      <trkpt lat="50.01557" lon="3.78542">
        <ele>173.17</ele>
        <time>2021-08-08T08:04:59Z</time>
      </trkpt>
      <trkpt lat="50.01567" lon="3.78574">
        <ele>173.17</ele>
        <time>2021-08-08T08:05:03Z</time>
      </trkpt>
      <trkpt lat="50.01575" lon="3.78595">
        <ele>173.17</ele>
        <time>2021-08-08T08:05:06Z</time>
      </trkpt>
      <trkpt lat="50.01575" lon="3.78602">
        <ele>173.66</ele>
        <time>2021-08-08T08:05:07Z</time>
      </trkpt>
      <trkpt lat="50.01574" lon="3.78609">
        <ele>173.66</ele>
        <time>2021-08-08T08:05:08Z</time>
      </trkpt>
      <trkpt lat="50.01572" lon="3.78613">
        <ele>174.14</ele>
        <time>2021-08-08T08:05:09Z</time>
      </trkpt>
      <trkpt lat="50.0157" lon="3.78618">
        <ele>174.14</ele>
        <time>2021-08-08T08:05:10Z</time>
      </trkpt>
      <trkpt lat="50.01568" lon="3.78623">
        <ele>174.14</ele>
        <time>2021-08-08T08:05:11Z</time>
      </trkpt>
      <trkpt lat="50.01567" lon="3.78628">
        <ele>174.62</ele>
        <time>2021-08-08T08:05:12Z</time>
      </trkpt>
      <trkpt lat="50.01566" lon="3.78635">
        <ele>174.62</ele>
        <time>2021-08-08T08:05:13Z</time>
      </trkpt>
      <trkpt lat="50.01566" lon="3.78641">
        <ele>174.62</ele>
        <time>2021-08-08T08:05:14Z</time>
      </trkpt>
      <trkpt lat="50.01566" lon="3.78649">
        <ele>175.1</ele>
        <time>2021-08-08T08:05:15Z</time>
      </trkpt>
      <trkpt lat="50.01565" lon="3.78691">
        <ele>175.58</ele>
        <time>2021-08-08T08:05:21Z</time>
      </trkpt>
      <trkpt lat="50.01564" lon="3.78698">
        <ele>175.58</ele>
        <time>2021-08-08T08:05:22Z</time>
      </trkpt>
      <trkpt lat="50.01562" lon="3.78705">
        <ele>175.58</ele>
        <time>2021-08-08T08:05:23Z</time>
      </trkpt>
      <trkpt lat="50.01559" lon="3.78711">
        <ele>175.58</ele>
        <time>2021-08-08T08:05:24Z</time>
      </trkpt>
      <trkpt lat="50.01555" lon="3.78717">
        <ele>175.58</ele>
        <time>2021-08-08T08:05:25Z</time>
      </trkpt>
      <trkpt lat="50.01552" lon="3.78722">
        <ele>175.58</ele>
        <time>2021-08-08T08:05:26Z</time>
      </trkpt>
      <trkpt lat="50.01507" lon="3.78789">
        <ele>176.06</ele>
        <time>2021-08-08T08:05:38Z</time>
      </trkpt>
      <trkpt lat="50.01504" lon="3.78794">
        <ele>176.06</ele>
        <time>2021-08-08T08:05:39Z</time>
      </trkpt>
      <trkpt lat="50.01501" lon="3.78802">
        <ele>176.06</ele>
        <time>2021-08-08T08:05:40Z</time>
      </trkpt>
      <trkpt lat="50.01499" lon="3.78808">
        <ele>176.06</ele>
        <time>2021-08-08T08:05:41Z</time>
      </trkpt>
      <trkpt lat="50.01499" lon="3.78816">
        <ele>176.06</ele>
        <time>2021-08-08T08:05:42Z</time>
      </trkpt>
      <trkpt lat="50.015" lon="3.78823">
        <ele>176.06</ele>
        <time>2021-08-08T08:05:43Z</time>
      </trkpt>
      <trkpt lat="50.01502" lon="3.7883">
        <ele>176.06</ele>
        <time>2021-08-08T08:05:44Z</time>
      </trkpt>
      <trkpt lat="50.01504" lon="3.78838">
        <ele>176.06</ele>
        <time>2021-08-08T08:05:45Z</time>
      </trkpt>
      <trkpt lat="50.01519" lon="3.7889">
        <ele>176.06</ele>
        <time>2021-08-08T08:05:53Z</time>
      </trkpt>
      <trkpt lat="50.0152" lon="3.78889">
        <ele>176.06</ele>
        <time>2021-08-08T08:05:54Z</time>
      </trkpt>
      <trkpt lat="50.01518" lon="3.78882">
        <ele>176.06</ele>
        <time>2021-08-08T08:05:57Z</time>
      </trkpt>
      <trkpt lat="50.01517" lon="3.78879">
        <ele>176.06</ele>
        <time>2021-08-08T08:05:58Z</time>
      </trkpt>
      <trkpt lat="50.01516" lon="3.78875">
        <ele>176.06</ele>
        <time>2021-08-08T08:05:59Z</time>
      </trkpt>
      <trkpt lat="50.01515" lon="3.78869">
        <ele>176.06</ele>
        <time>2021-08-08T08:06:00Z</time>
      </trkpt>
      <trkpt lat="50.01512" lon="3.78856">
        <ele>176.06</ele>
        <time>2021-08-08T08:06:02Z</time>
      </trkpt>
      <trkpt lat="50.01497" lon="3.78806">
        <ele>176.06</ele>
        <time>2021-08-08T08:06:10Z</time>
      </trkpt>
      <trkpt lat="50.01479" lon="3.78761">
        <ele>176.06</ele>
        <time>2021-08-08T08:06:19Z</time>
      </trkpt>
      <trkpt lat="50.01463" lon="3.78726">
        <ele>175.58</ele>
        <time>2021-08-08T08:06:27Z</time>
      </trkpt>
      <trkpt lat="50.01446" lon="3.78717">
        <ele>173.17</ele>
        <time>2021-08-08T08:06:33Z</time>
      </trkpt>
      <trkpt lat="50.01438" lon="3.7872">
        <ele>172.69</ele>
        <time>2021-08-08T08:06:38Z</time>
      </trkpt>
      <trkpt lat="50.0143" lon="3.78742">
        <ele>172.69</ele>
        <time>2021-08-08T08:06:43Z</time>
      </trkpt>
      <trkpt lat="50.01417" lon="3.78779">
        <ele>174.14</ele>
        <time>2021-08-08T08:06:51Z</time>
      </trkpt>
      <trkpt lat="50.01399" lon="3.78804">
        <ele>175.58</ele>
        <time>2021-08-08T08:06:59Z</time>
      </trkpt>
      <trkpt lat="50.0137" lon="3.78818">
        <ele>176.54</ele>
        <time>2021-08-08T08:07:10Z</time>
      </trkpt>
      <trkpt lat="50.01352" lon="3.78826">
        <ele>179.42</ele>
        <time>2021-08-08T08:07:18Z</time>
      </trkpt>
      <trkpt lat="50.01334" lon="3.78834">
        <ele>179.9</ele>
        <time>2021-08-08T08:07:26Z</time>
      </trkpt>
      <trkpt lat="50.01307" lon="3.78846">
        <ele>181.83</ele>
        <time>2021-08-08T08:07:37Z</time>
      </trkpt>
      <trkpt lat="50.01285" lon="3.78855">
        <ele>183.27</ele>
        <time>2021-08-08T08:07:46Z</time>
      </trkpt>
      <trkpt lat="50.01254" lon="3.78867">
        <ele>185.67</ele>
        <time>2021-08-08T08:07:58Z</time>
      </trkpt>
      <trkpt lat="50.01231" lon="3.78877">
        <ele>186.15</ele>
        <time>2021-08-08T08:08:07Z</time>
      </trkpt>
      <trkpt lat="50.01195" lon="3.78891">
        <ele>189.04</ele>
        <time>2021-08-08T08:08:21Z</time>
      </trkpt>
      <trkpt lat="50.01165" lon="3.789">
        <ele>190.96</ele>
        <time>2021-08-08T08:08:32Z</time>
      </trkpt>
      <trkpt lat="50.01137" lon="3.78904">
        <ele>191.44</ele>
        <time>2021-08-08T08:08:41Z</time>
      </trkpt>
      <trkpt lat="50.01107" lon="3.78907">
        <ele>193.84</ele>
        <time>2021-08-08T08:08:51Z</time>
      </trkpt>
      <trkpt lat="50.01085" lon="3.78908">
        <ele>194.32</ele>
        <time>2021-08-08T08:08:58Z</time>
      </trkpt>
      <trkpt lat="50.01067" lon="3.78909">
        <ele>194.8</ele>
        <time>2021-08-08T08:09:04Z</time>
      </trkpt>
      <trkpt lat="50.01036" lon="3.7891">
        <ele>196.25</ele>
        <time>2021-08-08T08:09:14Z</time>
      </trkpt>
      <trkpt lat="50.01005" lon="3.78914">
        <ele>197.21</ele>
        <time>2021-08-08T08:09:24Z</time>
      </trkpt>
      <trkpt lat="50.00967" lon="3.78917">
        <ele>198.17</ele>
        <time>2021-08-08T08:09:36Z</time>
      </trkpt>
      <trkpt lat="50.00938" lon="3.7892">
        <ele>199.61</ele>
        <time>2021-08-08T08:09:45Z</time>
      </trkpt>
      <trkpt lat="50.00907" lon="3.78924">
        <ele>201.05</ele>
        <time>2021-08-08T08:09:55Z</time>
      </trkpt>
      <trkpt lat="50.00879" lon="3.78932">
        <ele>201.53</ele>
        <time>2021-08-08T08:10:04Z</time>
      </trkpt>
      <trkpt lat="50.00854" lon="3.78936">
        <ele>201.53</ele>
        <time>2021-08-08T08:10:11Z</time>
      </trkpt>
      <trkpt lat="50.00827" lon="3.78944">
        <ele>201.53</ele>
        <time>2021-08-08T08:10:19Z</time>
      </trkpt>
      <trkpt lat="50.00787" lon="3.78955">
        <ele>200.09</ele>
        <time>2021-08-08T08:10:29Z</time>
      </trkpt>
      <trkpt lat="50.00744" lon="3.78964">
        <ele>199.13</ele>
        <time>2021-08-08T08:10:39Z</time>
      </trkpt>
      <trkpt lat="50.00727" lon="3.78968">
        <ele>198.65</ele>
        <time>2021-08-08T08:10:43Z</time>
      </trkpt>
      <trkpt lat="50.00698" lon="3.78975">
        <ele>197.21</ele>
        <time>2021-08-08T08:10:49Z</time>
      </trkpt>
      <trkpt lat="50.00694" lon="3.78975">
        <ele>197.21</ele>
        <time>2021-08-08T08:10:50Z</time>
      </trkpt>
      <trkpt lat="50.0069" lon="3.78973">
        <ele>197.21</ele>
        <time>2021-08-08T08:10:51Z</time>
      </trkpt>
      <trkpt lat="50.00687" lon="3.78968">
        <ele>197.21</ele>
        <time>2021-08-08T08:10:52Z</time>
      </trkpt>
      <trkpt lat="50.00685" lon="3.78963">
        <ele>197.21</ele>
        <time>2021-08-08T08:10:53Z</time>
      </trkpt>
      <trkpt lat="50.00683" lon="3.78956">
        <ele>196.73</ele>
        <time>2021-08-08T08:10:54Z</time>
      </trkpt>
      <trkpt lat="50.00682" lon="3.78949">
        <ele>196.73</ele>
        <time>2021-08-08T08:10:55Z</time>
      </trkpt>
      <trkpt lat="50.0067" lon="3.78891">
        <ele>194.8</ele>
        <time>2021-08-08T08:11:03Z</time>
      </trkpt>
      <trkpt lat="50.00659" lon="3.78836">
        <ele>192.4</ele>
        <time>2021-08-08T08:11:10Z</time>
      </trkpt>
      <trkpt lat="50.00655" lon="3.7882">
        <ele>191.44</ele>
        <time>2021-08-08T08:11:12Z</time>
      </trkpt>
      <trkpt lat="50.00654" lon="3.78784">
        <ele>190.96</ele>
        <time>2021-08-08T08:11:18Z</time>
      </trkpt>
      <trkpt lat="50.00656" lon="3.78779">
        <ele>190.48</ele>
        <time>2021-08-08T08:11:19Z</time>
      </trkpt>
      <trkpt lat="50.00658" lon="3.78773">
        <ele>190.48</ele>
        <time>2021-08-08T08:11:20Z</time>
      </trkpt>
      <trkpt lat="50.00661" lon="3.78767">
        <ele>190</ele>
        <time>2021-08-08T08:11:21Z</time>
      </trkpt>
      <trkpt lat="50.00662" lon="3.7876">
        <ele>190</ele>
        <time>2021-08-08T08:11:22Z</time>
      </trkpt>
      <trkpt lat="50.00664" lon="3.78753">
        <ele>189.52</ele>
        <time>2021-08-08T08:11:23Z</time>
      </trkpt>
      <trkpt lat="50.00665" lon="3.78746">
        <ele>189.52</ele>
        <time>2021-08-08T08:11:24Z</time>
      </trkpt>
      <trkpt lat="50.00664" lon="3.78738">
        <ele>189.04</ele>
        <time>2021-08-08T08:11:25Z</time>
      </trkpt>
      <trkpt lat="50.00663" lon="3.78731">
        <ele>188.56</ele>
        <time>2021-08-08T08:11:26Z</time>
      </trkpt>
      <trkpt lat="50.00661" lon="3.78724">
        <ele>188.56</ele>
        <time>2021-08-08T08:11:27Z</time>
      </trkpt>
      <trkpt lat="50.00658" lon="3.78719">
        <ele>188.56</ele>
        <time>2021-08-08T08:11:28Z</time>
      </trkpt>
      <trkpt lat="50.00655" lon="3.78716">
        <ele>187.59</ele>
        <time>2021-08-08T08:11:29Z</time>
      </trkpt>
      <trkpt lat="50.00652" lon="3.78714">
        <ele>187.59</ele>
        <time>2021-08-08T08:11:30Z</time>
      </trkpt>
      <trkpt lat="50.00649" lon="3.78713">
        <ele>187.59</ele>
        <time>2021-08-08T08:11:31Z</time>
      </trkpt>
      <trkpt lat="50.00648" lon="3.78713">
        <ele>187.59</ele>
        <time>2021-08-08T08:11:32Z</time>
      </trkpt>
      <trkpt lat="50.00646" lon="3.78714">
        <ele>187.59</ele>
        <time>2021-08-08T08:11:33Z</time>
      </trkpt>
      <trkpt lat="50.00646" lon="3.78715">
        <ele>187.59</ele>
        <time>2021-08-08T08:11:39Z</time>
      </trkpt>
      <trkpt lat="50.00646" lon="3.78715">
        <ele>187.59</ele>
        <time>2021-08-08T08:11:47Z</time>
      </trkpt>
      <trkpt lat="50.00644" lon="3.78715">
        <ele>187.59</ele>
        <time>2021-08-08T08:11:55Z</time>
      </trkpt>
      <trkpt lat="50.00641" lon="3.78718">
        <ele>187.59</ele>
        <time>2021-08-08T08:12:04Z</time>
      </trkpt>
      <trkpt lat="50.0064" lon="3.78725">
        <ele>187.59</ele>
        <time>2021-08-08T08:12:10Z</time>
      </trkpt>
      <trkpt lat="50.00636" lon="3.78739">
        <ele>187.59</ele>
        <time>2021-08-08T08:12:16Z</time>
      </trkpt>
      <trkpt lat="50.00627" lon="3.78761">
        <ele>187.59</ele>
        <time>2021-08-08T08:12:22Z</time>
      </trkpt>
      <trkpt lat="50.00613" lon="3.78794">
        <ele>187.59</ele>
        <time>2021-08-08T08:12:29Z</time>
      </trkpt>
      <trkpt lat="50.00604" lon="3.78823">
        <ele>187.59</ele>
        <time>2021-08-08T08:12:34Z</time>
      </trkpt>
      <trkpt lat="50.00592" lon="3.78857">
        <ele>189.04</ele>
        <time>2021-08-08T08:12:40Z</time>
      </trkpt>
      <trkpt lat="50.00577" lon="3.78903">
        <ele>189.52</ele>
        <time>2021-08-08T08:12:48Z</time>
      </trkpt>
      <trkpt lat="50.00571" lon="3.78927">
        <ele>189.52</ele>
        <time>2021-08-08T08:12:52Z</time>
      </trkpt>
      <trkpt lat="50.00569" lon="3.78934">
        <ele>189.52</ele>
        <time>2021-08-08T08:12:53Z</time>
      </trkpt>
      <trkpt lat="50.00556" lon="3.78984">
        <ele>189.52</ele>
        <time>2021-08-08T08:13:01Z</time>
      </trkpt>
      <trkpt lat="50.00546" lon="3.79019">
        <ele>190</ele>
        <time>2021-08-08T08:13:07Z</time>
      </trkpt>
      <trkpt lat="50.00534" lon="3.79063">
        <ele>190.48</ele>
        <time>2021-08-08T08:13:14Z</time>
      </trkpt>
      <trkpt lat="50.00517" lon="3.79123">
        <ele>190.96</ele>
        <time>2021-08-08T08:13:24Z</time>
      </trkpt>
      <trkpt lat="50.00515" lon="3.7913">
        <ele>190.96</ele>
        <time>2021-08-08T08:13:25Z</time>
      </trkpt>
      <trkpt lat="50.00514" lon="3.79136">
        <ele>191.44</ele>
        <time>2021-08-08T08:13:26Z</time>
      </trkpt>
      <trkpt lat="50.00495" lon="3.79199">
        <ele>191.92</ele>
        <time>2021-08-08T08:13:37Z</time>
      </trkpt>
      <trkpt lat="50.00482" lon="3.79243">
        <ele>192.4</ele>
        <time>2021-08-08T08:13:45Z</time>
      </trkpt>
      <trkpt lat="50.00471" lon="3.79279">
        <ele>192.4</ele>
        <time>2021-08-08T08:13:52Z</time>
      </trkpt>
      <trkpt lat="50.00462" lon="3.79306">
        <ele>193.36</ele>
        <time>2021-08-08T08:13:58Z</time>
      </trkpt>
      <trkpt lat="50.00451" lon="3.7934">
        <ele>193.36</ele>
        <time>2021-08-08T08:14:05Z</time>
      </trkpt>
      <trkpt lat="50.0044" lon="3.79369">
        <ele>193.36</ele>
        <time>2021-08-08T08:14:11Z</time>
      </trkpt>
      <trkpt lat="50.00434" lon="3.79394">
        <ele>193.84</ele>
        <time>2021-08-08T08:14:16Z</time>
      </trkpt>
      <trkpt lat="50.0042" lon="3.79433">
        <ele>193.84</ele>
        <time>2021-08-08T08:14:24Z</time>
      </trkpt>
      <trkpt lat="50.00403" lon="3.79478">
        <ele>194.32</ele>
        <time>2021-08-08T08:14:33Z</time>
      </trkpt>
      <trkpt lat="50.00388" lon="3.7951">
        <ele>194.8</ele>
        <time>2021-08-08T08:14:40Z</time>
      </trkpt>
      <trkpt lat="50.00372" lon="3.79541">
        <ele>195.28</ele>
        <time>2021-08-08T08:14:47Z</time>
      </trkpt>
      <trkpt lat="50.00357" lon="3.79572">
        <ele>195.77</ele>
        <time>2021-08-08T08:14:53Z</time>
      </trkpt>
      <trkpt lat="50.00343" lon="3.79599">
        <ele>195.77</ele>
        <time>2021-08-08T08:14:59Z</time>
      </trkpt>
      <trkpt lat="50.00326" lon="3.79627">
        <ele>195.77</ele>
        <time>2021-08-08T08:15:05Z</time>
      </trkpt>
      <trkpt lat="50.00303" lon="3.79661">
        <ele>196.25</ele>
        <time>2021-08-08T08:15:13Z</time>
      </trkpt>
      <trkpt lat="50.00281" lon="3.79692">
        <ele>196.73</ele>
        <time>2021-08-08T08:15:20Z</time>
      </trkpt>
      <trkpt lat="50.00259" lon="3.79721">
        <ele>197.21</ele>
        <time>2021-08-08T08:15:27Z</time>
      </trkpt>
      <trkpt lat="50.00234" lon="3.79752">
        <ele>197.69</ele>
        <time>2021-08-08T08:15:35Z</time>
      </trkpt>
      <trkpt lat="50.00212" lon="3.79776">
        <ele>197.69</ele>
        <time>2021-08-08T08:15:42Z</time>
      </trkpt>
      <trkpt lat="50.00187" lon="3.79801">
        <ele>198.17</ele>
        <time>2021-08-08T08:15:50Z</time>
      </trkpt>
      <trkpt lat="50.00162" lon="3.79823">
        <ele>198.65</ele>
        <time>2021-08-08T08:15:58Z</time>
      </trkpt>
      <trkpt lat="50.0014" lon="3.79844">
        <ele>199.13</ele>
        <time>2021-08-08T08:16:05Z</time>
      </trkpt>
      <trkpt lat="50.00121" lon="3.79863">
        <ele>199.13</ele>
        <time>2021-08-08T08:16:12Z</time>
      </trkpt>
      <trkpt lat="50.001" lon="3.79879">
        <ele>199.13</ele>
        <time>2021-08-08T08:16:19Z</time>
      </trkpt>
      <trkpt lat="50.0007" lon="3.79898">
        <ele>199.61</ele>
        <time>2021-08-08T08:16:28Z</time>
      </trkpt>
      <trkpt lat="50.00042" lon="3.79915">
        <ele>200.09</ele>
        <time>2021-08-08T08:16:36Z</time>
      </trkpt>
      <trkpt lat="50.00011" lon="3.7993">
        <ele>200.09</ele>
        <time>2021-08-08T08:16:45Z</time>
      </trkpt>
      <trkpt lat="49.99976" lon="3.79946">
        <ele>201.53</ele>
        <time>2021-08-08T08:16:55Z</time>
      </trkpt>
      <trkpt lat="49.99954" lon="3.79955">
        <ele>201.53</ele>
        <time>2021-08-08T08:17:03Z</time>
      </trkpt>
      <trkpt lat="49.99951" lon="3.79956">
        <ele>201.53</ele>
        <time>2021-08-08T08:17:09Z</time>
      </trkpt>
      <trkpt lat="49.9995" lon="3.79956">
        <ele>201.53</ele>
        <time>2021-08-08T08:17:22Z</time>
      </trkpt>
      <trkpt lat="49.99949" lon="3.79957">
        <ele>201.53</ele>
        <time>2021-08-08T08:17:32Z</time>
      </trkpt>
      <trkpt lat="49.99949" lon="3.7996">
        <ele>202.49</ele>
        <time>2021-08-08T08:17:40Z</time>
      </trkpt>
      <trkpt lat="49.99947" lon="3.79959">
        <ele>202.98</ele>
        <time>2021-08-08T08:17:47Z</time>
      </trkpt>
      <trkpt lat="49.99943" lon="3.79954">
        <ele>201.53</ele>
        <time>2021-08-08T08:17:54Z</time>
      </trkpt>
      <trkpt lat="49.99934" lon="3.79959">
        <ele>201.53</ele>
        <time>2021-08-08T08:18:01Z</time>
      </trkpt>
      <trkpt lat="49.99905" lon="3.79966">
        <ele>201.53</ele>
        <time>2021-08-08T08:18:10Z</time>
      </trkpt>
      <trkpt lat="49.9988" lon="3.79972">
        <ele>201.53</ele>
        <time>2021-08-08T08:18:17Z</time>
      </trkpt>
      <trkpt lat="49.99858" lon="3.79977">
        <ele>201.53</ele>
        <time>2021-08-08T08:18:23Z</time>
      </trkpt>
      <trkpt lat="49.99829" lon="3.79983">
        <ele>202.49</ele>
        <time>2021-08-08T08:18:31Z</time>
      </trkpt>
      <trkpt lat="49.99809" lon="3.79988">
        <ele>202.98</ele>
        <time>2021-08-08T08:18:37Z</time>
      </trkpt>
      <trkpt lat="49.99787" lon="3.79991">
        <ele>202.98</ele>
        <time>2021-08-08T08:18:44Z</time>
      </trkpt>
      <trkpt lat="49.99768" lon="3.79995">
        <ele>202.98</ele>
        <time>2021-08-08T08:18:50Z</time>
      </trkpt>
      <trkpt lat="49.99753" lon="3.79999">
        <ele>203.46</ele>
        <time>2021-08-08T08:18:55Z</time>
      </trkpt>
      <trkpt lat="49.99752" lon="3.80002">
        <ele>203.94</ele>
        <time>2021-08-08T08:18:56Z</time>
      </trkpt>
      <trkpt lat="49.99748" lon="3.80008">
        <ele>204.9</ele>
        <time>2021-08-08T08:19:01Z</time>
      </trkpt>
      <trkpt lat="49.99735" lon="3.80019">
        <ele>204.9</ele>
        <time>2021-08-08T08:19:07Z</time>
      </trkpt>
      <trkpt lat="49.99709" lon="3.80031">
        <ele>205.86</ele>
        <time>2021-08-08T08:19:15Z</time>
      </trkpt>
      <trkpt lat="49.99671" lon="3.80049">
        <ele>206.34</ele>
        <time>2021-08-08T08:19:25Z</time>
      </trkpt>
      <trkpt lat="49.99643" lon="3.80063">
        <ele>204.9</ele>
        <time>2021-08-08T08:19:31Z</time>
      </trkpt>
      <trkpt lat="49.99628" lon="3.80069">
        <ele>204.42</ele>
        <time>2021-08-08T08:19:34Z</time>
      </trkpt>
      <trkpt lat="49.99587" lon="3.80097">
        <ele>202.49</ele>
        <time>2021-08-08T08:19:42Z</time>
      </trkpt>
      <trkpt lat="49.99558" lon="3.80123">
        <ele>201.53</ele>
        <time>2021-08-08T08:19:48Z</time>
      </trkpt>
      <trkpt lat="49.99524" lon="3.80157">
        <ele>201.53</ele>
        <time>2021-08-08T08:19:55Z</time>
      </trkpt>
      <trkpt lat="49.99492" lon="3.80189">
        <ele>201.53</ele>
        <time>2021-08-08T08:20:02Z</time>
      </trkpt>
      <trkpt lat="49.99471" lon="3.80217">
        <ele>202.98</ele>
        <time>2021-08-08T08:20:08Z</time>
      </trkpt>
      <trkpt lat="49.99464" lon="3.80227">
        <ele>203.46</ele>
        <time>2021-08-08T08:20:10Z</time>
      </trkpt>
      <trkpt lat="49.99461" lon="3.80232">
        <ele>203.46</ele>
        <time>2021-08-08T08:20:11Z</time>
      </trkpt>
      <trkpt lat="49.9944" lon="3.80264">
        <ele>203.94</ele>
        <time>2021-08-08T08:20:18Z</time>
      </trkpt>
      <trkpt lat="49.99432" lon="3.80272">
        <ele>203.94</ele>
        <time>2021-08-08T08:20:20Z</time>
      </trkpt>
      <trkpt lat="49.99429" lon="3.80276">
        <ele>204.42</ele>
        <time>2021-08-08T08:20:21Z</time>
      </trkpt>
      <trkpt lat="49.99426" lon="3.80281">
        <ele>204.42</ele>
        <time>2021-08-08T08:20:22Z</time>
      </trkpt>
      <trkpt lat="49.99408" lon="3.80306">
        <ele>204.42</ele>
        <time>2021-08-08T08:20:28Z</time>
      </trkpt>
      <trkpt lat="49.99399" lon="3.80321">
        <ele>204.9</ele>
        <time>2021-08-08T08:20:31Z</time>
      </trkpt>
      <trkpt lat="49.99382" lon="3.80354">
        <ele>205.38</ele>
        <time>2021-08-08T08:20:37Z</time>
      </trkpt>
      <trkpt lat="49.99381" lon="3.80362">
        <ele>205.38</ele>
        <time>2021-08-08T08:20:38Z</time>
      </trkpt>
      <trkpt lat="49.9938" lon="3.8037">
        <ele>205.38</ele>
        <time>2021-08-08T08:20:39Z</time>
      </trkpt>
      <trkpt lat="49.99378" lon="3.80377">
        <ele>205.38</ele>
        <time>2021-08-08T08:20:40Z</time>
      </trkpt>
      <trkpt lat="49.99377" lon="3.80384">
        <ele>205.38</ele>
        <time>2021-08-08T08:20:41Z</time>
      </trkpt>
      <trkpt lat="49.99376" lon="3.80391">
        <ele>205.38</ele>
        <time>2021-08-08T08:20:42Z</time>
      </trkpt>
      <trkpt lat="49.99375" lon="3.80398">
        <ele>205.38</ele>
        <time>2021-08-08T08:20:43Z</time>
      </trkpt>
      <trkpt lat="49.99373" lon="3.80404">
        <ele>205.38</ele>
        <time>2021-08-08T08:20:44Z</time>
      </trkpt>
      <trkpt lat="49.99365" lon="3.80429">
        <ele>205.38</ele>
        <time>2021-08-08T08:20:48Z</time>
      </trkpt>
      <trkpt lat="49.99363" lon="3.80435">
        <ele>204.9</ele>
        <time>2021-08-08T08:20:49Z</time>
      </trkpt>
      <trkpt lat="49.99354" lon="3.80449">
        <ele>204.9</ele>
        <time>2021-08-08T08:20:52Z</time>
      </trkpt>
      <trkpt lat="49.99351" lon="3.80454">
        <ele>204.9</ele>
        <time>2021-08-08T08:20:53Z</time>
      </trkpt>
      <trkpt lat="49.9934" lon="3.80477">
        <ele>204.9</ele>
        <time>2021-08-08T08:20:57Z</time>
      </trkpt>
      <trkpt lat="49.99336" lon="3.80483">
        <ele>204.9</ele>
        <time>2021-08-08T08:20:58Z</time>
      </trkpt>
      <trkpt lat="49.99333" lon="3.8049">
        <ele>203.46</ele>
        <time>2021-08-08T08:20:59Z</time>
      </trkpt>
      <trkpt lat="49.99329" lon="3.80495">
        <ele>202.98</ele>
        <time>2021-08-08T08:21:00Z</time>
      </trkpt>
      <trkpt lat="49.99324" lon="3.80501">
        <ele>202.98</ele>
        <time>2021-08-08T08:21:01Z</time>
      </trkpt>
      <trkpt lat="49.99314" lon="3.8051">
        <ele>202.49</ele>
        <time>2021-08-08T08:21:03Z</time>
      </trkpt>
      <trkpt lat="49.99276" lon="3.80537">
        <ele>199.61</ele>
        <time>2021-08-08T08:21:10Z</time>
      </trkpt>
      <trkpt lat="49.9927" lon="3.80542">
        <ele>199.61</ele>
        <time>2021-08-08T08:21:11Z</time>
      </trkpt>
      <trkpt lat="49.99265" lon="3.80548">
        <ele>199.13</ele>
        <time>2021-08-08T08:21:12Z</time>
      </trkpt>
      <trkpt lat="49.9926" lon="3.80555">
        <ele>198.65</ele>
        <time>2021-08-08T08:21:13Z</time>
      </trkpt>
      <trkpt lat="49.99255" lon="3.80562">
        <ele>198.65</ele>
        <time>2021-08-08T08:21:14Z</time>
      </trkpt>
      <trkpt lat="49.9925" lon="3.80571">
        <ele>197.69</ele>
        <time>2021-08-08T08:21:15Z</time>
      </trkpt>
      <trkpt lat="49.9924" lon="3.80587">
        <ele>197.21</ele>
        <time>2021-08-08T08:21:17Z</time>
      </trkpt>
      <trkpt lat="49.9921" lon="3.80631">
        <ele>197.21</ele>
        <time>2021-08-08T08:21:24Z</time>
      </trkpt>
      <trkpt lat="49.99187" lon="3.80668">
        <ele>196.73</ele>
        <time>2021-08-08T08:21:30Z</time>
      </trkpt>
      <trkpt lat="49.99183" lon="3.80673">
        <ele>196.73</ele>
        <time>2021-08-08T08:21:31Z</time>
      </trkpt>
      <trkpt lat="49.99153" lon="3.80729">
        <ele>195.28</ele>
        <time>2021-08-08T08:21:39Z</time>
      </trkpt>
      <trkpt lat="49.99126" lon="3.8078">
        <ele>193.36</ele>
        <time>2021-08-08T08:21:46Z</time>
      </trkpt>
      <trkpt lat="49.99088" lon="3.80847">
        <ele>191.92</ele>
        <time>2021-08-08T08:21:55Z</time>
      </trkpt>
      <trkpt lat="49.99057" lon="3.80895">
        <ele>190.96</ele>
        <time>2021-08-08T08:22:02Z</time>
      </trkpt>
      <trkpt lat="49.99053" lon="3.80901">
        <ele>190.96</ele>
        <time>2021-08-08T08:22:03Z</time>
      </trkpt>
      <trkpt lat="49.9903" lon="3.80941">
        <ele>190.96</ele>
        <time>2021-08-08T08:22:09Z</time>
      </trkpt>
      <trkpt lat="49.99026" lon="3.80948">
        <ele>190.96</ele>
        <time>2021-08-08T08:22:10Z</time>
      </trkpt>
      <trkpt lat="49.99023" lon="3.80954">
        <ele>190.96</ele>
        <time>2021-08-08T08:22:11Z</time>
      </trkpt>
      <trkpt lat="49.9902" lon="3.80959">
        <ele>190.96</ele>
        <time>2021-08-08T08:22:12Z</time>
      </trkpt>
      <trkpt lat="49.99018" lon="3.80965">
        <ele>192.4</ele>
        <time>2021-08-08T08:22:13Z</time>
      </trkpt>
      <trkpt lat="49.99015" lon="3.80971">
        <ele>193.36</ele>
        <time>2021-08-08T08:22:14Z</time>
      </trkpt>
      <trkpt lat="49.99012" lon="3.80976">
        <ele>193.36</ele>
        <time>2021-08-08T08:22:15Z</time>
      </trkpt>
      <trkpt lat="49.99009" lon="3.80981">
        <ele>193.36</ele>
        <time>2021-08-08T08:22:16Z</time>
      </trkpt>
      <trkpt lat="49.99007" lon="3.80987">
        <ele>193.36</ele>
        <time>2021-08-08T08:22:17Z</time>
      </trkpt>
      <trkpt lat="49.99006" lon="3.80994">
        <ele>193.84</ele>
        <time>2021-08-08T08:22:18Z</time>
      </trkpt>
      <trkpt lat="49.99005" lon="3.80998">
        <ele>193.84</ele>
        <time>2021-08-08T08:22:19Z</time>
      </trkpt>
      <trkpt lat="49.98992" lon="3.81039">
        <ele>193.84</ele>
        <time>2021-08-08T08:22:25Z</time>
      </trkpt>
      <trkpt lat="49.98991" lon="3.81042">
        <ele>193.84</ele>
        <time>2021-08-08T08:22:26Z</time>
      </trkpt>
      <trkpt lat="49.98975" lon="3.81064">
        <ele>194.8</ele>
        <time>2021-08-08T08:22:31Z</time>
      </trkpt>
      <trkpt lat="49.98954" lon="3.81094">
        <ele>194.8</ele>
        <time>2021-08-08T08:22:38Z</time>
      </trkpt>
      <trkpt lat="49.98928" lon="3.81118">
        <ele>195.77</ele>
        <time>2021-08-08T08:22:45Z</time>
      </trkpt>
      <trkpt lat="49.98908" lon="3.81135">
        <ele>196.25</ele>
        <time>2021-08-08T08:22:50Z</time>
      </trkpt>
      <trkpt lat="49.98904" lon="3.8114">
        <ele>196.25</ele>
        <time>2021-08-08T08:22:51Z</time>
      </trkpt>
      <trkpt lat="49.98894" lon="3.81154">
        <ele>196.25</ele>
        <time>2021-08-08T08:22:54Z</time>
      </trkpt>
      <trkpt lat="49.98891" lon="3.81159">
        <ele>196.25</ele>
        <time>2021-08-08T08:22:55Z</time>
      </trkpt>
      <trkpt lat="49.98889" lon="3.81164">
        <ele>196.25</ele>
        <time>2021-08-08T08:22:56Z</time>
      </trkpt>
      <trkpt lat="49.98883" lon="3.81174">
        <ele>196.25</ele>
        <time>2021-08-08T08:22:58Z</time>
      </trkpt>
      <trkpt lat="49.98859" lon="3.81214">
        <ele>196.73</ele>
        <time>2021-08-08T08:23:06Z</time>
      </trkpt>
      <trkpt lat="49.98838" lon="3.81247">
        <ele>197.21</ele>
        <time>2021-08-08T08:23:13Z</time>
      </trkpt>
      <trkpt lat="49.98834" lon="3.81254">
        <ele>197.21</ele>
        <time>2021-08-08T08:23:14Z</time>
      </trkpt>
      <trkpt lat="49.98828" lon="3.81263">
        <ele>197.69</ele>
        <time>2021-08-08T08:23:16Z</time>
      </trkpt>
      <trkpt lat="49.98816" lon="3.81282">
        <ele>197.69</ele>
        <time>2021-08-08T08:23:20Z</time>
      </trkpt>
      <trkpt lat="49.98793" lon="3.81314">
        <ele>199.13</ele>
        <time>2021-08-08T08:23:28Z</time>
      </trkpt>
      <trkpt lat="49.98778" lon="3.8134">
        <ele>200.09</ele>
        <time>2021-08-08T08:23:35Z</time>
      </trkpt>
      <trkpt lat="49.9877" lon="3.81373">
        <ele>200.57</ele>
        <time>2021-08-08T08:23:40Z</time>
      </trkpt>
      <trkpt lat="49.98763" lon="3.81409">
        <ele>201.53</ele>
        <time>2021-08-08T08:23:47Z</time>
      </trkpt>
      <trkpt lat="49.98754" lon="3.81437">
        <ele>202.01</ele>
        <time>2021-08-08T08:23:53Z</time>
      </trkpt>
      <trkpt lat="49.98735" lon="3.81474">
        <ele>203.46</ele>
        <time>2021-08-08T08:24:02Z</time>
      </trkpt>
      <trkpt lat="49.98718" lon="3.81509">
        <ele>203.94</ele>
        <time>2021-08-08T08:24:08Z</time>
      </trkpt>
      <trkpt lat="49.98712" lon="3.81521">
        <ele>203.94</ele>
        <time>2021-08-08T08:24:10Z</time>
      </trkpt>
      <trkpt lat="49.98708" lon="3.81525">
        <ele>203.94</ele>
        <time>2021-08-08T08:24:11Z</time>
      </trkpt>
      <trkpt lat="49.98695" lon="3.81533">
        <ele>203.94</ele>
        <time>2021-08-08T08:24:14Z</time>
      </trkpt>
      <trkpt lat="49.98691" lon="3.81535">
        <ele>203.94</ele>
        <time>2021-08-08T08:24:15Z</time>
      </trkpt>
      <trkpt lat="49.98673" lon="3.81545">
        <ele>203.94</ele>
        <time>2021-08-08T08:24:19Z</time>
      </trkpt>
      <trkpt lat="49.98652" lon="3.81565">
        <ele>203.94</ele>
        <time>2021-08-08T08:24:24Z</time>
      </trkpt>
      <trkpt lat="49.98641" lon="3.81582">
        <ele>203.94</ele>
        <time>2021-08-08T08:24:27Z</time>
      </trkpt>
      <trkpt lat="49.98628" lon="3.81607">
        <ele>203.94</ele>
        <time>2021-08-08T08:24:31Z</time>
      </trkpt>
      <trkpt lat="49.98601" lon="3.81659">
        <ele>202.49</ele>
        <time>2021-08-08T08:24:39Z</time>
      </trkpt>
      <trkpt lat="49.98567" lon="3.81728">
        <ele>201.53</ele>
        <time>2021-08-08T08:24:49Z</time>
      </trkpt>
      <trkpt lat="49.9854" lon="3.81785">
        <ele>201.05</ele>
        <time>2021-08-08T08:24:57Z</time>
      </trkpt>
      <trkpt lat="49.98537" lon="3.81792">
        <ele>201.05</ele>
        <time>2021-08-08T08:24:58Z</time>
      </trkpt>
      <trkpt lat="49.98509" lon="3.81852">
        <ele>201.05</ele>
        <time>2021-08-08T08:25:07Z</time>
      </trkpt>
      <trkpt lat="49.98506" lon="3.81858">
        <ele>201.05</ele>
        <time>2021-08-08T08:25:08Z</time>
      </trkpt>
      <trkpt lat="49.98493" lon="3.81889">
        <ele>202.49</ele>
        <time>2021-08-08T08:25:13Z</time>
      </trkpt>
      <trkpt lat="49.9849" lon="3.81893">
        <ele>202.49</ele>
        <time>2021-08-08T08:25:14Z</time>
      </trkpt>
      <trkpt lat="49.98476" lon="3.81922">
        <ele>202.49</ele>
        <time>2021-08-08T08:25:19Z</time>
      </trkpt>
      <trkpt lat="49.98474" lon="3.81926">
        <ele>202.49</ele>
        <time>2021-08-08T08:25:20Z</time>
      </trkpt>
      <trkpt lat="49.98461" lon="3.81956">
        <ele>202.98</ele>
        <time>2021-08-08T08:25:25Z</time>
      </trkpt>
      <trkpt lat="49.98442" lon="3.82013">
        <ele>202.98</ele>
        <time>2021-08-08T08:25:34Z</time>
      </trkpt>
      <trkpt lat="49.98433" lon="3.82033">
        <ele>202.98</ele>
        <time>2021-08-08T08:25:37Z</time>
      </trkpt>
      <trkpt lat="49.98416" lon="3.82073">
        <ele>201.53</ele>
        <time>2021-08-08T08:25:43Z</time>
      </trkpt>
      <trkpt lat="49.98398" lon="3.82128">
        <ele>200.57</ele>
        <time>2021-08-08T08:25:50Z</time>
      </trkpt>
      <trkpt lat="49.98391" lon="3.82152">
        <ele>200.57</ele>
        <time>2021-08-08T08:25:53Z</time>
      </trkpt>
      <trkpt lat="49.98382" lon="3.82174">
        <ele>200.57</ele>
        <time>2021-08-08T08:25:56Z</time>
      </trkpt>
      <trkpt lat="49.98379" lon="3.82181">
        <ele>200.57</ele>
        <time>2021-08-08T08:25:57Z</time>
      </trkpt>
      <trkpt lat="49.98363" lon="3.82217">
        <ele>200.57</ele>
        <time>2021-08-08T08:26:03Z</time>
      </trkpt>
      <trkpt lat="49.9835" lon="3.82254">
        <ele>202.01</ele>
        <time>2021-08-08T08:26:09Z</time>
      </trkpt>
      <trkpt lat="49.98337" lon="3.82287">
        <ele>202.49</ele>
        <time>2021-08-08T08:26:15Z</time>
      </trkpt>
      <trkpt lat="49.98332" lon="3.82306">
        <ele>202.98</ele>
        <time>2021-08-08T08:26:19Z</time>
      </trkpt>
      <trkpt lat="49.98315" lon="3.82347">
        <ele>203.94</ele>
        <time>2021-08-08T08:26:27Z</time>
      </trkpt>
      <trkpt lat="49.983" lon="3.8238">
        <ele>204.42</ele>
        <time>2021-08-08T08:26:33Z</time>
      </trkpt>
      <trkpt lat="49.98284" lon="3.82426">
        <ele>204.9</ele>
        <time>2021-08-08T08:26:41Z</time>
      </trkpt>
      <trkpt lat="49.9827" lon="3.82455">
        <ele>204.9</ele>
        <time>2021-08-08T08:26:47Z</time>
      </trkpt>
      <trkpt lat="49.98257" lon="3.82489">
        <ele>205.86</ele>
        <time>2021-08-08T08:26:53Z</time>
      </trkpt>
      <trkpt lat="49.9824" lon="3.82537">
        <ele>206.34</ele>
        <time>2021-08-08T08:27:01Z</time>
      </trkpt>
      <trkpt lat="49.98219" lon="3.82583">
        <ele>206.34</ele>
        <time>2021-08-08T08:27:09Z</time>
      </trkpt>
      <trkpt lat="49.98209" lon="3.82608">
        <ele>206.82</ele>
        <time>2021-08-08T08:27:13Z</time>
      </trkpt>
      <trkpt lat="49.98207" lon="3.82613">
        <ele>206.82</ele>
        <time>2021-08-08T08:27:14Z</time>
      </trkpt>
      <trkpt lat="49.98188" lon="3.8266">
        <ele>206.82</ele>
        <time>2021-08-08T08:27:22Z</time>
      </trkpt>
      <trkpt lat="49.98164" lon="3.82719">
        <ele>206.82</ele>
        <time>2021-08-08T08:27:31Z</time>
      </trkpt>
      <trkpt lat="49.98161" lon="3.82724">
        <ele>206.82</ele>
        <time>2021-08-08T08:27:32Z</time>
      </trkpt>
      <trkpt lat="49.98144" lon="3.82769">
        <ele>206.82</ele>
        <time>2021-08-08T08:27:39Z</time>
      </trkpt>
      <trkpt lat="49.98142" lon="3.82776">
        <ele>206.82</ele>
        <time>2021-08-08T08:27:40Z</time>
      </trkpt>
      <trkpt lat="49.98125" lon="3.82814">
        <ele>206.82</ele>
        <time>2021-08-08T08:27:46Z</time>
      </trkpt>
      <trkpt lat="49.98109" lon="3.82855">
        <ele>206.82</ele>
        <time>2021-08-08T08:27:53Z</time>
      </trkpt>
      <trkpt lat="49.98106" lon="3.82861">
        <ele>206.82</ele>
        <time>2021-08-08T08:27:54Z</time>
      </trkpt>
      <trkpt lat="49.98079" lon="3.8293">
        <ele>206.82</ele>
        <time>2021-08-08T08:28:04Z</time>
      </trkpt>
      <trkpt lat="49.98069" lon="3.82958">
        <ele>206.82</ele>
        <time>2021-08-08T08:28:08Z</time>
      </trkpt>
      <trkpt lat="49.98066" lon="3.82965">
        <ele>206.82</ele>
        <time>2021-08-08T08:28:09Z</time>
      </trkpt>
      <trkpt lat="49.98052" lon="3.82996">
        <ele>206.82</ele>
        <time>2021-08-08T08:28:15Z</time>
      </trkpt>
      <trkpt lat="49.98041" lon="3.83028">
        <ele>207.78</ele>
        <time>2021-08-08T08:28:21Z</time>
      </trkpt>
      <trkpt lat="49.9803" lon="3.83062">
        <ele>208.26</ele>
        <time>2021-08-08T08:28:28Z</time>
      </trkpt>
      <trkpt lat="49.98016" lon="3.83104">
        <ele>209.22</ele>
        <time>2021-08-08T08:28:35Z</time>
      </trkpt>
      <trkpt lat="49.97998" lon="3.83153">
        <ele>209.22</ele>
        <time>2021-08-08T08:28:43Z</time>
      </trkpt>
      <trkpt lat="49.97995" lon="3.83165">
        <ele>209.7</ele>
        <time>2021-08-08T08:28:45Z</time>
      </trkpt>
      <trkpt lat="49.9799" lon="3.8322">
        <ele>209.7</ele>
        <time>2021-08-08T08:28:53Z</time>
      </trkpt>
      <trkpt lat="49.97985" lon="3.83255">
        <ele>209.7</ele>
        <time>2021-08-08T08:28:58Z</time>
      </trkpt>
      <trkpt lat="49.97971" lon="3.83276">
        <ele>209.7</ele>
        <time>2021-08-08T08:29:03Z</time>
      </trkpt>
      <trkpt lat="49.97959" lon="3.83275">
        <ele>209.7</ele>
        <time>2021-08-08T08:29:06Z</time>
      </trkpt>
      <trkpt lat="49.97954" lon="3.83272">
        <ele>209.7</ele>
        <time>2021-08-08T08:29:07Z</time>
      </trkpt>
      <trkpt lat="49.97917" lon="3.83241">
        <ele>208.26</ele>
        <time>2021-08-08T08:29:15Z</time>
      </trkpt>
      <trkpt lat="49.97881" lon="3.83209">
        <ele>207.3</ele>
        <time>2021-08-08T08:29:22Z</time>
      </trkpt>
      <trkpt lat="49.97841" lon="3.83173">
        <ele>204.9</ele>
        <time>2021-08-08T08:29:29Z</time>
      </trkpt>
      <trkpt lat="49.97789" lon="3.83125">
        <ele>204.42</ele>
        <time>2021-08-08T08:29:38Z</time>
      </trkpt>
      <trkpt lat="49.97753" lon="3.83092">
        <ele>204.42</ele>
        <time>2021-08-08T08:29:45Z</time>
      </trkpt>
      <trkpt lat="49.97714" lon="3.83057">
        <ele>204.42</ele>
        <time>2021-08-08T08:29:53Z</time>
      </trkpt>
      <trkpt lat="49.97682" lon="3.83025">
        <ele>204.9</ele>
        <time>2021-08-08T08:30:01Z</time>
      </trkpt>
      <trkpt lat="49.97649" lon="3.82996">
        <ele>204.9</ele>
        <time>2021-08-08T08:30:08Z</time>
      </trkpt>
      <trkpt lat="49.97616" lon="3.82966">
        <ele>204.9</ele>
        <time>2021-08-08T08:30:15Z</time>
      </trkpt>
      <trkpt lat="49.97578" lon="3.82934">
        <ele>206.34</ele>
        <time>2021-08-08T08:30:23Z</time>
      </trkpt>
      <trkpt lat="49.97547" lon="3.82904">
        <ele>204.42</ele>
        <time>2021-08-08T08:30:30Z</time>
      </trkpt>
      <trkpt lat="49.97542" lon="3.829">
        <ele>204.42</ele>
        <time>2021-08-08T08:30:31Z</time>
      </trkpt>
      <trkpt lat="49.97539" lon="3.82897">
        <ele>204.42</ele>
        <time>2021-08-08T08:30:32Z</time>
      </trkpt>
      <trkpt lat="49.97533" lon="3.82888">
        <ele>204.42</ele>
        <time>2021-08-08T08:30:36Z</time>
      </trkpt>
      <trkpt lat="49.97517" lon="3.82877">
        <ele>202.98</ele>
        <time>2021-08-08T08:30:42Z</time>
      </trkpt>
      <trkpt lat="49.97512" lon="3.82873">
        <ele>202.01</ele>
        <time>2021-08-08T08:30:43Z</time>
      </trkpt>
      <trkpt lat="49.97508" lon="3.82869">
        <ele>202.01</ele>
        <time>2021-08-08T08:30:44Z</time>
      </trkpt>
      <trkpt lat="49.97494" lon="3.82861">
        <ele>202.01</ele>
        <time>2021-08-08T08:30:47Z</time>
      </trkpt>
      <trkpt lat="49.97489" lon="3.82859">
        <ele>201.05</ele>
        <time>2021-08-08T08:30:48Z</time>
      </trkpt>
      <trkpt lat="49.97484" lon="3.82859">
        <ele>201.05</ele>
        <time>2021-08-08T08:30:49Z</time>
      </trkpt>
      <trkpt lat="49.97473" lon="3.82861">
        <ele>200.09</ele>
        <time>2021-08-08T08:30:51Z</time>
      </trkpt>
      <trkpt lat="49.97425" lon="3.82884">
        <ele>200.57</ele>
        <time>2021-08-08T08:31:00Z</time>
      </trkpt>
      <trkpt lat="49.97415" lon="3.82889">
        <ele>201.53</ele>
        <time>2021-08-08T08:31:02Z</time>
      </trkpt>
      <trkpt lat="49.9741" lon="3.82891">
        <ele>201.53</ele>
        <time>2021-08-08T08:31:03Z</time>
      </trkpt>
      <trkpt lat="49.97392" lon="3.829">
        <ele>202.01</ele>
        <time>2021-08-08T08:31:07Z</time>
      </trkpt>
      <trkpt lat="49.97351" lon="3.82919">
        <ele>203.46</ele>
        <time>2021-08-08T08:31:17Z</time>
      </trkpt>
      <trkpt lat="49.9731" lon="3.8294">
        <ele>204.42</ele>
        <time>2021-08-08T08:31:27Z</time>
      </trkpt>
      <trkpt lat="49.97271" lon="3.82959">
        <ele>205.86</ele>
        <time>2021-08-08T08:31:36Z</time>
      </trkpt>
      <trkpt lat="49.97234" lon="3.82982">
        <ele>204.42</ele>
        <time>2021-08-08T08:31:44Z</time>
      </trkpt>
      <trkpt lat="49.97198" lon="3.83008">
        <ele>203.94</ele>
        <time>2021-08-08T08:31:51Z</time>
      </trkpt>
      <trkpt lat="49.97148" lon="3.83045">
        <ele>203.46</ele>
        <time>2021-08-08T08:32:01Z</time>
      </trkpt>
      <trkpt lat="49.97101" lon="3.8308">
        <ele>203.94</ele>
        <time>2021-08-08T08:32:11Z</time>
      </trkpt>
      <trkpt lat="49.97066" lon="3.83107">
        <ele>203.94</ele>
        <time>2021-08-08T08:32:19Z</time>
      </trkpt>
      <trkpt lat="49.97022" lon="3.83146">
        <ele>203.94</ele>
        <time>2021-08-08T08:32:28Z</time>
      </trkpt>
      <trkpt lat="49.9701" lon="3.83155">
        <ele>202.01</ele>
        <time>2021-08-08T08:32:30Z</time>
      </trkpt>
      <trkpt lat="49.96979" lon="3.83183">
        <ele>199.61</ele>
        <time>2021-08-08T08:32:35Z</time>
      </trkpt>
      <trkpt lat="49.96922" lon="3.83248">
        <ele>197.69</ele>
        <time>2021-08-08T08:32:44Z</time>
      </trkpt>
      <trkpt lat="49.96867" lon="3.83316">
        <ele>196.73</ele>
        <time>2021-08-08T08:32:54Z</time>
      </trkpt>
      <trkpt lat="49.96859" lon="3.83326">
        <ele>196.25</ele>
        <time>2021-08-08T08:32:56Z</time>
      </trkpt>
      <trkpt lat="49.96854" lon="3.83327">
        <ele>195.28</ele>
        <time>2021-08-08T08:32:57Z</time>
      </trkpt>
      <trkpt lat="49.96851" lon="3.83325">
        <ele>195.28</ele>
        <time>2021-08-08T08:32:58Z</time>
      </trkpt>
      <trkpt lat="49.96849" lon="3.83321">
        <ele>195.28</ele>
        <time>2021-08-08T08:32:59Z</time>
      </trkpt>
      <trkpt lat="49.96845" lon="3.83315">
        <ele>195.28</ele>
        <time>2021-08-08T08:33:00Z</time>
      </trkpt>
      <trkpt lat="49.96821" lon="3.83274">
        <ele>193.84</ele>
        <time>2021-08-08T08:33:07Z</time>
      </trkpt>
      <trkpt lat="49.96812" lon="3.83262">
        <ele>192.88</ele>
        <time>2021-08-08T08:33:09Z</time>
      </trkpt>
      <trkpt lat="49.96807" lon="3.8326">
        <ele>192.4</ele>
        <time>2021-08-08T08:33:10Z</time>
      </trkpt>
      <trkpt lat="49.96802" lon="3.83261">
        <ele>191.92</ele>
        <time>2021-08-08T08:33:11Z</time>
      </trkpt>
      <trkpt lat="49.96796" lon="3.83266">
        <ele>191.92</ele>
        <time>2021-08-08T08:33:12Z</time>
      </trkpt>
      <trkpt lat="49.96791" lon="3.83273">
        <ele>190.96</ele>
        <time>2021-08-08T08:33:13Z</time>
      </trkpt>
      <trkpt lat="49.96787" lon="3.83278">
        <ele>190.48</ele>
        <time>2021-08-08T08:33:14Z</time>
      </trkpt>
      <trkpt lat="49.96777" lon="3.83294">
        <ele>189.52</ele>
        <time>2021-08-08T08:33:16Z</time>
      </trkpt>
      <trkpt lat="49.96734" lon="3.83355">
        <ele>188.56</ele>
        <time>2021-08-08T08:33:24Z</time>
      </trkpt>
      <trkpt lat="49.96712" lon="3.83388">
        <ele>191.44</ele>
        <time>2021-08-08T08:33:29Z</time>
      </trkpt>
      <trkpt lat="49.96694" lon="3.83415">
        <ele>192.4</ele>
        <time>2021-08-08T08:33:35Z</time>
      </trkpt>
      <trkpt lat="49.96677" lon="3.83441">
        <ele>194.8</ele>
        <time>2021-08-08T08:33:43Z</time>
      </trkpt>
      <trkpt lat="49.96672" lon="3.8345">
        <ele>195.28</ele>
        <time>2021-08-08T08:33:46Z</time>
      </trkpt>
      <trkpt lat="49.96669" lon="3.83452">
        <ele>195.28</ele>
        <time>2021-08-08T08:33:47Z</time>
      </trkpt>
      <trkpt lat="49.96667" lon="3.83453">
        <ele>194.8</ele>
        <time>2021-08-08T08:33:48Z</time>
      </trkpt>
      <trkpt lat="49.96664" lon="3.83453">
        <ele>195.77</ele>
        <time>2021-08-08T08:33:49Z</time>
      </trkpt>
      <trkpt lat="49.96662" lon="3.83451">
        <ele>195.77</ele>
        <time>2021-08-08T08:33:50Z</time>
      </trkpt>
      <trkpt lat="49.96659" lon="3.83449">
        <ele>195.77</ele>
        <time>2021-08-08T08:33:51Z</time>
      </trkpt>
      <trkpt lat="49.96657" lon="3.83446">
        <ele>195.77</ele>
        <time>2021-08-08T08:33:52Z</time>
      </trkpt>
      <trkpt lat="49.96654" lon="3.83444">
        <ele>196.25</ele>
        <time>2021-08-08T08:33:53Z</time>
      </trkpt>
      <trkpt lat="49.96651" lon="3.83443">
        <ele>196.25</ele>
        <time>2021-08-08T08:33:54Z</time>
      </trkpt>
      <trkpt lat="49.96648" lon="3.83442">
        <ele>196.25</ele>
        <time>2021-08-08T08:33:55Z</time>
      </trkpt>
      <trkpt lat="49.96645" lon="3.83443">
        <ele>196.73</ele>
        <time>2021-08-08T08:33:56Z</time>
      </trkpt>
      <trkpt lat="49.96629" lon="3.83454">
        <ele>198.65</ele>
        <time>2021-08-08T08:34:03Z</time>
      </trkpt>
      <trkpt lat="49.96614" lon="3.83476">
        <ele>199.13</ele>
        <time>2021-08-08T08:34:11Z</time>
      </trkpt>
      <trkpt lat="49.96603" lon="3.83513">
        <ele>200.57</ele>
        <time>2021-08-08T08:34:20Z</time>
      </trkpt>
      <trkpt lat="49.9659" lon="3.83544">
        <ele>200.57</ele>
        <time>2021-08-08T08:34:27Z</time>
      </trkpt>
      <trkpt lat="49.96576" lon="3.8358">
        <ele>201.53</ele>
        <time>2021-08-08T08:34:34Z</time>
      </trkpt>
      <trkpt lat="49.96574" lon="3.83586">
        <ele>201.53</ele>
        <time>2021-08-08T08:34:35Z</time>
      </trkpt>
      <trkpt lat="49.96572" lon="3.83591">
        <ele>201.53</ele>
        <time>2021-08-08T08:34:36Z</time>
      </trkpt>
      <trkpt lat="49.96557" lon="3.83645">
        <ele>202.49</ele>
        <time>2021-08-08T08:34:45Z</time>
      </trkpt>
      <trkpt lat="49.96545" lon="3.837">
        <ele>202.98</ele>
        <time>2021-08-08T08:34:54Z</time>
      </trkpt>
      <trkpt lat="49.96524" lon="3.83777">
        <ele>202.98</ele>
        <time>2021-08-08T08:35:06Z</time>
      </trkpt>
      <trkpt lat="49.9652" lon="3.83779">
        <ele>202.98</ele>
        <time>2021-08-08T08:35:07Z</time>
      </trkpt>
      <trkpt lat="49.96517" lon="3.8378">
        <ele>202.98</ele>
        <time>2021-08-08T08:35:08Z</time>
      </trkpt>
      <trkpt lat="49.96513" lon="3.83779">
        <ele>202.98</ele>
        <time>2021-08-08T08:35:09Z</time>
      </trkpt>
      <trkpt lat="49.96509" lon="3.83778">
        <ele>202.98</ele>
        <time>2021-08-08T08:35:10Z</time>
      </trkpt>
      <trkpt lat="49.96505" lon="3.83778">
        <ele>202.98</ele>
        <time>2021-08-08T08:35:11Z</time>
      </trkpt>
      <trkpt lat="49.96466" lon="3.83771">
        <ele>202.98</ele>
        <time>2021-08-08T08:35:20Z</time>
      </trkpt>
      <trkpt lat="49.96445" lon="3.83768">
        <ele>202.98</ele>
        <time>2021-08-08T08:35:26Z</time>
      </trkpt>
      <trkpt lat="49.96443" lon="3.83764">
        <ele>202.98</ele>
        <time>2021-08-08T08:35:27Z</time>
      </trkpt>
      <trkpt lat="49.96442" lon="3.8376">
        <ele>202.98</ele>
        <time>2021-08-08T08:35:28Z</time>
      </trkpt>
      <trkpt lat="49.96427" lon="3.8371">
        <ele>202.01</ele>
        <time>2021-08-08T08:35:36Z</time>
      </trkpt>
      <trkpt lat="49.96425" lon="3.83703">
        <ele>202.01</ele>
        <time>2021-08-08T08:35:37Z</time>
      </trkpt>
      <trkpt lat="49.96406" lon="3.83636">
        <ele>201.53</ele>
        <time>2021-08-08T08:35:46Z</time>
      </trkpt>
      <trkpt lat="49.96403" lon="3.8363">
        <ele>201.53</ele>
        <time>2021-08-08T08:35:47Z</time>
      </trkpt>
      <trkpt lat="49.964" lon="3.83625">
        <ele>201.53</ele>
        <time>2021-08-08T08:35:48Z</time>
      </trkpt>
      <trkpt lat="49.96395" lon="3.83623">
        <ele>201.53</ele>
        <time>2021-08-08T08:35:49Z</time>
      </trkpt>
      <trkpt lat="49.96391" lon="3.83624">
        <ele>201.53</ele>
        <time>2021-08-08T08:35:50Z</time>
      </trkpt>
      <trkpt lat="49.96387" lon="3.83628">
        <ele>201.53</ele>
        <time>2021-08-08T08:35:51Z</time>
      </trkpt>
      <trkpt lat="49.96385" lon="3.83633">
        <ele>201.53</ele>
        <time>2021-08-08T08:35:52Z</time>
      </trkpt>
      <trkpt lat="49.96382" lon="3.83639">
        <ele>201.53</ele>
        <time>2021-08-08T08:35:53Z</time>
      </trkpt>
      <trkpt lat="49.96377" lon="3.83652">
        <ele>201.53</ele>
        <time>2021-08-08T08:35:55Z</time>
      </trkpt>
      <trkpt lat="49.96354" lon="3.83713">
        <ele>203.46</ele>
        <time>2021-08-08T08:36:05Z</time>
      </trkpt>
      <trkpt lat="49.96325" lon="3.83786">
        <ele>204.9</ele>
        <time>2021-08-08T08:36:17Z</time>
      </trkpt>
      <trkpt lat="49.9631" lon="3.83818">
        <ele>204.9</ele>
        <time>2021-08-08T08:36:22Z</time>
      </trkpt>
      <trkpt lat="49.96306" lon="3.83823">
        <ele>203.94</ele>
        <time>2021-08-08T08:36:23Z</time>
      </trkpt>
      <trkpt lat="49.96301" lon="3.83828">
        <ele>203.94</ele>
        <time>2021-08-08T08:36:24Z</time>
      </trkpt>
      <trkpt lat="49.96289" lon="3.83838">
        <ele>203.94</ele>
        <time>2021-08-08T08:36:27Z</time>
      </trkpt>
      <trkpt lat="49.96275" lon="3.83844">
        <ele>203.94</ele>
        <time>2021-08-08T08:36:30Z</time>
      </trkpt>
      <trkpt lat="49.9627" lon="3.83845">
        <ele>203.94</ele>
        <time>2021-08-08T08:36:31Z</time>
      </trkpt>
      <trkpt lat="49.96224" lon="3.83847">
        <ele>203.94</ele>
        <time>2021-08-08T08:36:40Z</time>
      </trkpt>
      <trkpt lat="49.96173" lon="3.83848">
        <ele>202.49</ele>
        <time>2021-08-08T08:36:49Z</time>
      </trkpt>
      <trkpt lat="49.9611" lon="3.83854">
        <ele>202.01</ele>
        <time>2021-08-08T08:37:00Z</time>
      </trkpt>
      <trkpt lat="49.96062" lon="3.83856">
        <ele>202.01</ele>
        <time>2021-08-08T08:37:09Z</time>
      </trkpt>
      <trkpt lat="49.96017" lon="3.83855">
        <ele>204.42</ele>
        <time>2021-08-08T08:37:18Z</time>
      </trkpt>
      <trkpt lat="49.96007" lon="3.83853">
        <ele>202.98</ele>
        <time>2021-08-08T08:37:20Z</time>
      </trkpt>
      <trkpt lat="49.95953" lon="3.83844">
        <ele>200.57</ele>
        <time>2021-08-08T08:37:29Z</time>
      </trkpt>
      <trkpt lat="49.9594" lon="3.83841">
        <ele>199.61</ele>
        <time>2021-08-08T08:37:31Z</time>
      </trkpt>
      <trkpt lat="49.9588" lon="3.83834">
        <ele>199.61</ele>
        <time>2021-08-08T08:37:40Z</time>
      </trkpt>
      <trkpt lat="49.95821" lon="3.83831">
        <ele>199.61</ele>
        <time>2021-08-08T08:37:50Z</time>
      </trkpt>
      <trkpt lat="49.95805" lon="3.83829">
        <ele>198.17</ele>
        <time>2021-08-08T08:37:53Z</time>
      </trkpt>
      <trkpt lat="49.95783" lon="3.83823">
        <ele>200.09</ele>
        <time>2021-08-08T08:37:58Z</time>
      </trkpt>
      <trkpt lat="49.95758" lon="3.83812">
        <ele>201.05</ele>
        <time>2021-08-08T08:38:05Z</time>
      </trkpt>
      <trkpt lat="49.95729" lon="3.83795">
        <ele>202.98</ele>
        <time>2021-08-08T08:38:14Z</time>
      </trkpt>
      <trkpt lat="49.95699" lon="3.83779">
        <ele>203.46</ele>
        <time>2021-08-08T08:38:23Z</time>
      </trkpt>
      <trkpt lat="49.95662" lon="3.83762">
        <ele>204.42</ele>
        <time>2021-08-08T08:38:33Z</time>
      </trkpt>
      <trkpt lat="49.95624" lon="3.83762">
        <ele>204.42</ele>
        <time>2021-08-08T08:38:41Z</time>
      </trkpt>
      <trkpt lat="49.95614" lon="3.83764">
        <ele>202.49</ele>
        <time>2021-08-08T08:38:43Z</time>
      </trkpt>
      <trkpt lat="49.95588" lon="3.83778">
        <ele>202.49</ele>
        <time>2021-08-08T08:38:48Z</time>
      </trkpt>
      <trkpt lat="49.95563" lon="3.83801">
        <ele>202.49</ele>
        <time>2021-08-08T08:38:53Z</time>
      </trkpt>
      <trkpt lat="49.95543" lon="3.8382">
        <ele>202.49</ele>
        <time>2021-08-08T08:38:57Z</time>
      </trkpt>
      <trkpt lat="49.95502" lon="3.83847">
        <ele>202.49</ele>
        <time>2021-08-08T08:39:05Z</time>
      </trkpt>
      <trkpt lat="49.95464" lon="3.83865">
        <ele>204.42</ele>
        <time>2021-08-08T08:39:14Z</time>
      </trkpt>
      <trkpt lat="49.9543" lon="3.83884">
        <ele>205.38</ele>
        <time>2021-08-08T08:39:23Z</time>
      </trkpt>
      <trkpt lat="49.95379" lon="3.8391">
        <ele>204.9</ele>
        <time>2021-08-08T08:39:35Z</time>
      </trkpt>
      <trkpt lat="49.95331" lon="3.83935">
        <ele>202.49</ele>
        <time>2021-08-08T08:39:45Z</time>
      </trkpt>
      <trkpt lat="49.95296" lon="3.83953">
        <ele>200.57</ele>
        <time>2021-08-08T08:39:51Z</time>
      </trkpt>
      <trkpt lat="49.9529" lon="3.83954">
        <ele>200.57</ele>
        <time>2021-08-08T08:39:52Z</time>
      </trkpt>
      <trkpt lat="49.95284" lon="3.83955">
        <ele>200.57</ele>
        <time>2021-08-08T08:39:53Z</time>
      </trkpt>
      <trkpt lat="49.95278" lon="3.83953">
        <ele>200.57</ele>
        <time>2021-08-08T08:39:54Z</time>
      </trkpt>
      <trkpt lat="49.95271" lon="3.8395">
        <ele>200.09</ele>
        <time>2021-08-08T08:39:55Z</time>
      </trkpt>
      <trkpt lat="49.95266" lon="3.83946">
        <ele>200.57</ele>
        <time>2021-08-08T08:39:56Z</time>
      </trkpt>
      <trkpt lat="49.95261" lon="3.83942">
        <ele>200.09</ele>
        <time>2021-08-08T08:39:57Z</time>
      </trkpt>
      <trkpt lat="49.9522" lon="3.839">
        <ele>200.09</ele>
        <time>2021-08-08T08:40:05Z</time>
      </trkpt>
      <trkpt lat="49.95205" lon="3.83891">
        <ele>200.09</ele>
        <time>2021-08-08T08:40:08Z</time>
      </trkpt>
      <trkpt lat="49.95195" lon="3.83887">
        <ele>200.09</ele>
        <time>2021-08-08T08:40:10Z</time>
      </trkpt>
      <trkpt lat="49.9519" lon="3.83887">
        <ele>200.09</ele>
        <time>2021-08-08T08:40:11Z</time>
      </trkpt>
      <trkpt lat="49.95175" lon="3.83887">
        <ele>201.53</ele>
        <time>2021-08-08T08:40:14Z</time>
      </trkpt>
      <trkpt lat="49.9517" lon="3.83888">
        <ele>201.53</ele>
        <time>2021-08-08T08:40:15Z</time>
      </trkpt>
      <trkpt lat="49.95131" lon="3.839">
        <ele>202.98</ele>
        <time>2021-08-08T08:40:24Z</time>
      </trkpt>
      <trkpt lat="49.95092" lon="3.83915">
        <ele>203.94</ele>
        <time>2021-08-08T08:40:34Z</time>
      </trkpt>
      <trkpt lat="49.95064" lon="3.83936">
        <ele>204.9</ele>
        <time>2021-08-08T08:40:42Z</time>
      </trkpt>
      <trkpt lat="49.95037" lon="3.83956">
        <ele>204.9</ele>
        <time>2021-08-08T08:40:50Z</time>
      </trkpt>
      <trkpt lat="49.95001" lon="3.83954">
        <ele>205.86</ele>
        <time>2021-08-08T08:41:00Z</time>
      </trkpt>
      <trkpt lat="49.94967" lon="3.83947">
        <ele>205.38</ele>
        <time>2021-08-08T08:41:08Z</time>
      </trkpt>
      <trkpt lat="49.94922" lon="3.83939">
        <ele>204.42</ele>
        <time>2021-08-08T08:41:17Z</time>
      </trkpt>
      <trkpt lat="49.94868" lon="3.83924">
        <ele>202.49</ele>
        <time>2021-08-08T08:41:27Z</time>
      </trkpt>
      <trkpt lat="49.94815" lon="3.83901">
        <ele>199.13</ele>
        <time>2021-08-08T08:41:37Z</time>
      </trkpt>
      <trkpt lat="49.94783" lon="3.83888">
        <ele>201.53</ele>
        <time>2021-08-08T08:41:43Z</time>
      </trkpt>
      <trkpt lat="49.94778" lon="3.83888">
        <ele>201.53</ele>
        <time>2021-08-08T08:41:44Z</time>
      </trkpt>
      <trkpt lat="49.94773" lon="3.83888">
        <ele>200.09</ele>
        <time>2021-08-08T08:41:45Z</time>
      </trkpt>
      <trkpt lat="49.94769" lon="3.83891">
        <ele>200.09</ele>
        <time>2021-08-08T08:41:46Z</time>
      </trkpt>
      <trkpt lat="49.94765" lon="3.83895">
        <ele>200.09</ele>
        <time>2021-08-08T08:41:47Z</time>
      </trkpt>
      <trkpt lat="49.94762" lon="3.839">
        <ele>200.09</ele>
        <time>2021-08-08T08:41:48Z</time>
      </trkpt>
      <trkpt lat="49.94758" lon="3.83905">
        <ele>200.09</ele>
        <time>2021-08-08T08:41:49Z</time>
      </trkpt>
      <trkpt lat="49.94756" lon="3.8391">
        <ele>200.09</ele>
        <time>2021-08-08T08:41:50Z</time>
      </trkpt>
      <trkpt lat="49.94753" lon="3.83915">
        <ele>202.49</ele>
        <time>2021-08-08T08:41:51Z</time>
      </trkpt>
      <trkpt lat="49.9475" lon="3.83921">
        <ele>202.98</ele>
        <time>2021-08-08T08:41:52Z</time>
      </trkpt>
      <trkpt lat="49.94737" lon="3.83944">
        <ele>201.05</ele>
        <time>2021-08-08T08:41:57Z</time>
      </trkpt>
      <trkpt lat="49.94731" lon="3.83955">
        <ele>204.9</ele>
        <time>2021-08-08T08:42:00Z</time>
      </trkpt>
      <trkpt lat="49.9473" lon="3.83959">
        <ele>204.9</ele>
        <time>2021-08-08T08:42:01Z</time>
      </trkpt>
      <trkpt lat="49.94726" lon="3.83965">
        <ele>203.46</ele>
        <time>2021-08-08T08:42:03Z</time>
      </trkpt>
      <trkpt lat="49.94719" lon="3.83978">
        <ele>204.9</ele>
        <time>2021-08-08T08:42:07Z</time>
      </trkpt>
      <trkpt lat="49.94696" lon="3.84004">
        <ele>205.86</ele>
        <time>2021-08-08T08:42:17Z</time>
      </trkpt>
      <trkpt lat="49.94678" lon="3.84006">
        <ele>203.94</ele>
        <time>2021-08-08T08:42:23Z</time>
      </trkpt>
      <trkpt lat="49.94658" lon="3.84002">
        <ele>206.82</ele>
        <time>2021-08-08T08:42:29Z</time>
      </trkpt>
      <trkpt lat="49.94623" lon="3.83995">
        <ele>204.42</ele>
        <time>2021-08-08T08:42:37Z</time>
      </trkpt>
      <trkpt lat="49.94587" lon="3.83989">
        <ele>202.01</ele>
        <time>2021-08-08T08:42:44Z</time>
      </trkpt>
      <trkpt lat="49.94554" lon="3.83983">
        <ele>201.05</ele>
        <time>2021-08-08T08:42:50Z</time>
      </trkpt>
      <trkpt lat="49.94503" lon="3.83972">
        <ele>201.53</ele>
        <time>2021-08-08T08:42:59Z</time>
      </trkpt>
      <trkpt lat="49.9447" lon="3.83972">
        <ele>203.46</ele>
        <time>2021-08-08T08:43:07Z</time>
      </trkpt>
      <trkpt lat="49.94443" lon="3.83985">
        <ele>204.42</ele>
        <time>2021-08-08T08:43:15Z</time>
      </trkpt>
      <trkpt lat="49.94418" lon="3.83999">
        <ele>204.9</ele>
        <time>2021-08-08T08:43:23Z</time>
      </trkpt>
      <trkpt lat="49.9439" lon="3.84014">
        <ele>206.82</ele>
        <time>2021-08-08T08:43:32Z</time>
      </trkpt>
      <trkpt lat="49.94364" lon="3.84029">
        <ele>208.26</ele>
        <time>2021-08-08T08:43:41Z</time>
      </trkpt>
      <trkpt lat="49.94356" lon="3.84035">
        <ele>208.74</ele>
        <time>2021-08-08T08:43:43Z</time>
      </trkpt>
      <trkpt lat="49.94353" lon="3.84037">
        <ele>208.74</ele>
        <time>2021-08-08T08:43:44Z</time>
      </trkpt>
      <trkpt lat="49.9433" lon="3.8405">
        <ele>209.22</ele>
        <time>2021-08-08T08:43:51Z</time>
      </trkpt>
      <trkpt lat="49.943" lon="3.84066">
        <ele>209.22</ele>
        <time>2021-08-08T08:43:59Z</time>
      </trkpt>
      <trkpt lat="49.94288" lon="3.84071">
        <ele>207.78</ele>
        <time>2021-08-08T08:44:02Z</time>
      </trkpt>
      <trkpt lat="49.94264" lon="3.84085">
        <ele>208.26</ele>
        <time>2021-08-08T08:44:08Z</time>
      </trkpt>
      <trkpt lat="49.9422" lon="3.84109">
        <ele>209.22</ele>
        <time>2021-08-08T08:44:18Z</time>
      </trkpt>
      <trkpt lat="49.94216" lon="3.84111">
        <ele>209.22</ele>
        <time>2021-08-08T08:44:19Z</time>
      </trkpt>
      <trkpt lat="49.9418" lon="3.8413">
        <ele>209.22</ele>
        <time>2021-08-08T08:44:27Z</time>
      </trkpt>
      <trkpt lat="49.94141" lon="3.84152">
        <ele>206.82</ele>
        <time>2021-08-08T08:44:35Z</time>
      </trkpt>
      <trkpt lat="49.94093" lon="3.84179">
        <ele>204.42</ele>
        <time>2021-08-08T08:44:43Z</time>
      </trkpt>
      <trkpt lat="49.94045" lon="3.84208">
        <ele>202.49</ele>
        <time>2021-08-08T08:44:51Z</time>
      </trkpt>
      <trkpt lat="49.94039" lon="3.84212">
        <ele>202.49</ele>
        <time>2021-08-08T08:44:52Z</time>
      </trkpt>
      <trkpt lat="49.94033" lon="3.84216">
        <ele>202.49</ele>
        <time>2021-08-08T08:44:53Z</time>
      </trkpt>
      <trkpt lat="49.93975" lon="3.84248">
        <ele>201.53</ele>
        <time>2021-08-08T08:45:02Z</time>
      </trkpt>
      <trkpt lat="49.93969" lon="3.84252">
        <ele>200.57</ele>
        <time>2021-08-08T08:45:03Z</time>
      </trkpt>
      <trkpt lat="49.93963" lon="3.84257">
        <ele>200.57</ele>
        <time>2021-08-08T08:45:04Z</time>
      </trkpt>
      <trkpt lat="49.93958" lon="3.84264">
        <ele>200.57</ele>
        <time>2021-08-08T08:45:05Z</time>
      </trkpt>
      <trkpt lat="49.93954" lon="3.84273">
        <ele>200.57</ele>
        <time>2021-08-08T08:45:06Z</time>
      </trkpt>
      <trkpt lat="49.93951" lon="3.84281">
        <ele>200.09</ele>
        <time>2021-08-08T08:45:07Z</time>
      </trkpt>
      <trkpt lat="49.93949" lon="3.8429">
        <ele>200.09</ele>
        <time>2021-08-08T08:45:08Z</time>
      </trkpt>
      <trkpt lat="49.93947" lon="3.84299">
        <ele>200.09</ele>
        <time>2021-08-08T08:45:09Z</time>
      </trkpt>
      <trkpt lat="49.9394" lon="3.84368">
        <ele>201.05</ele>
        <time>2021-08-08T08:45:17Z</time>
      </trkpt>
      <trkpt lat="49.93943" lon="3.84418">
        <ele>202.49</ele>
        <time>2021-08-08T08:45:24Z</time>
      </trkpt>
      <trkpt lat="49.93947" lon="3.84453">
        <ele>203.94</ele>
        <time>2021-08-08T08:45:31Z</time>
      </trkpt>
      <trkpt lat="49.93952" lon="3.84496">
        <ele>206.34</ele>
        <time>2021-08-08T08:45:41Z</time>
      </trkpt>
      <trkpt lat="49.93951" lon="3.84523">
        <ele>207.3</ele>
        <time>2021-08-08T08:45:47Z</time>
      </trkpt>
      <trkpt lat="49.93951" lon="3.84554">
        <ele>208.26</ele>
        <time>2021-08-08T08:45:54Z</time>
      </trkpt>
      <trkpt lat="49.93956" lon="3.84615">
        <ele>209.22</ele>
        <time>2021-08-08T08:46:04Z</time>
      </trkpt>
      <trkpt lat="49.9396" lon="3.84661">
        <ele>209.7</ele>
        <time>2021-08-08T08:46:11Z</time>
      </trkpt>
      <trkpt lat="49.93963" lon="3.84689">
        <ele>209.22</ele>
        <time>2021-08-08T08:46:15Z</time>
      </trkpt>
      <trkpt lat="49.93964" lon="3.84696">
        <ele>209.22</ele>
        <time>2021-08-08T08:46:16Z</time>
      </trkpt>
      <trkpt lat="49.93965" lon="3.84703">
        <ele>209.22</ele>
        <time>2021-08-08T08:46:17Z</time>
      </trkpt>
      <trkpt lat="49.93969" lon="3.84766">
        <ele>208.26</ele>
        <time>2021-08-08T08:46:26Z</time>
      </trkpt>
      <trkpt lat="49.93969" lon="3.84774">
        <ele>208.26</ele>
        <time>2021-08-08T08:46:27Z</time>
      </trkpt>
      <trkpt lat="49.9397" lon="3.84781">
        <ele>207.78</ele>
        <time>2021-08-08T08:46:28Z</time>
      </trkpt>
      <trkpt lat="49.93971" lon="3.84789">
        <ele>207.3</ele>
        <time>2021-08-08T08:46:29Z</time>
      </trkpt>
      <trkpt lat="49.93976" lon="3.84855">
        <ele>205.86</ele>
        <time>2021-08-08T08:46:37Z</time>
      </trkpt>
      <trkpt lat="49.93977" lon="3.84864">
        <ele>205.86</ele>
        <time>2021-08-08T08:46:38Z</time>
      </trkpt>
      <trkpt lat="49.93983" lon="3.84946">
        <ele>203.94</ele>
        <time>2021-08-08T08:46:46Z</time>
      </trkpt>
      <trkpt lat="49.93988" lon="3.85022">
        <ele>203.46</ele>
        <time>2021-08-08T08:46:54Z</time>
      </trkpt>
      <trkpt lat="49.9399" lon="3.85048">
        <ele>203.46</ele>
        <time>2021-08-08T08:46:57Z</time>
      </trkpt>
      <trkpt lat="49.93991" lon="3.85057">
        <ele>203.46</ele>
        <time>2021-08-08T08:46:58Z</time>
      </trkpt>
      <trkpt lat="49.93995" lon="3.85096">
        <ele>204.9</ele>
        <time>2021-08-08T08:47:03Z</time>
      </trkpt>
      <trkpt lat="49.93998" lon="3.85142">
        <ele>206.34</ele>
        <time>2021-08-08T08:47:10Z</time>
      </trkpt>
      <trkpt lat="49.94003" lon="3.85197">
        <ele>207.78</ele>
        <time>2021-08-08T08:47:19Z</time>
      </trkpt>
      <trkpt lat="49.94007" lon="3.85238">
        <ele>207.78</ele>
        <time>2021-08-08T08:47:25Z</time>
      </trkpt>
      <trkpt lat="49.94011" lon="3.85303">
        <ele>208.26</ele>
        <time>2021-08-08T08:47:34Z</time>
      </trkpt>
      <trkpt lat="49.94015" lon="3.8537">
        <ele>209.22</ele>
        <time>2021-08-08T08:47:43Z</time>
      </trkpt>
      <trkpt lat="49.94019" lon="3.85435">
        <ele>209.22</ele>
        <time>2021-08-08T08:47:52Z</time>
      </trkpt>
      <trkpt lat="49.9402" lon="3.85458">
        <ele>209.22</ele>
        <time>2021-08-08T08:47:55Z</time>
      </trkpt>
      <trkpt lat="49.94021" lon="3.85472">
        <ele>209.22</ele>
        <time>2021-08-08T08:47:57Z</time>
      </trkpt>
      <trkpt lat="49.94021" lon="3.8548">
        <ele>209.22</ele>
        <time>2021-08-08T08:47:58Z</time>
      </trkpt>
      <trkpt lat="49.94025" lon="3.85552">
        <ele>209.22</ele>
        <time>2021-08-08T08:48:07Z</time>
      </trkpt>
      <trkpt lat="49.94031" lon="3.85629">
        <ele>209.22</ele>
        <time>2021-08-08T08:48:16Z</time>
      </trkpt>
      <trkpt lat="49.94034" lon="3.8567">
        <ele>209.22</ele>
        <time>2021-08-08T08:48:21Z</time>
      </trkpt>
      <trkpt lat="49.94035" lon="3.85679">
        <ele>209.22</ele>
        <time>2021-08-08T08:48:22Z</time>
      </trkpt>
      <trkpt lat="49.9404" lon="3.85751">
        <ele>207.78</ele>
        <time>2021-08-08T08:48:30Z</time>
      </trkpt>
      <trkpt lat="49.94047" lon="3.85829">
        <ele>206.34</ele>
        <time>2021-08-08T08:48:38Z</time>
      </trkpt>
      <trkpt lat="49.94053" lon="3.85918">
        <ele>203.46</ele>
        <time>2021-08-08T08:48:46Z</time>
      </trkpt>
      <trkpt lat="49.94057" lon="3.85992">
        <ele>203.46</ele>
        <time>2021-08-08T08:48:53Z</time>
      </trkpt>
      <trkpt lat="49.9406" lon="3.8602">
        <ele>205.38</ele>
        <time>2021-08-08T08:48:56Z</time>
      </trkpt>
      <trkpt lat="49.94062" lon="3.86058">
        <ele>206.34</ele>
        <time>2021-08-08T08:49:01Z</time>
      </trkpt>
      <trkpt lat="49.94063" lon="3.86121">
        <ele>206.82</ele>
        <time>2021-08-08T08:49:08Z</time>
      </trkpt>
      <trkpt lat="49.94064" lon="3.86132">
        <ele>207.78</ele>
        <time>2021-08-08T08:49:09Z</time>
      </trkpt>
      <trkpt lat="49.94088" lon="3.86196">
        <ele>206.34</ele>
        <time>2021-08-08T08:49:17Z</time>
      </trkpt>
      <trkpt lat="49.94124" lon="3.86268">
        <ele>204.42</ele>
        <time>2021-08-08T08:49:26Z</time>
      </trkpt>
      <trkpt lat="49.94167" lon="3.8635">
        <ele>203.46</ele>
        <time>2021-08-08T08:49:36Z</time>
      </trkpt>
      <trkpt lat="49.94171" lon="3.86358">
        <ele>203.46</ele>
        <time>2021-08-08T08:49:37Z</time>
      </trkpt>
      <trkpt lat="49.94198" lon="3.8641">
        <ele>202.98</ele>
        <time>2021-08-08T08:49:43Z</time>
      </trkpt>
      <trkpt lat="49.94244" lon="3.86516">
        <ele>199.61</ele>
        <time>2021-08-08T08:49:54Z</time>
      </trkpt>
      <trkpt lat="49.9427" lon="3.86579">
        <ele>198.17</ele>
        <time>2021-08-08T08:50:01Z</time>
      </trkpt>
      <trkpt lat="49.94273" lon="3.86588">
        <ele>198.17</ele>
        <time>2021-08-08T08:50:02Z</time>
      </trkpt>
      <trkpt lat="49.943" lon="3.86656">
        <ele>194.8</ele>
        <time>2021-08-08T08:50:09Z</time>
      </trkpt>
      <trkpt lat="49.94323" lon="3.86721">
        <ele>192.88</ele>
        <time>2021-08-08T08:50:15Z</time>
      </trkpt>
      <trkpt lat="49.94326" lon="3.86733">
        <ele>191.92</ele>
        <time>2021-08-08T08:50:16Z</time>
      </trkpt>
      <trkpt lat="49.94328" lon="3.86746">
        <ele>191.44</ele>
        <time>2021-08-08T08:50:17Z</time>
      </trkpt>
      <trkpt lat="49.9433" lon="3.8676">
        <ele>190.48</ele>
        <time>2021-08-08T08:50:18Z</time>
      </trkpt>
      <trkpt lat="49.94331" lon="3.86774">
        <ele>190</ele>
        <time>2021-08-08T08:50:19Z</time>
      </trkpt>
      <trkpt lat="49.9433" lon="3.86787">
        <ele>190</ele>
        <time>2021-08-08T08:50:20Z</time>
      </trkpt>
      <trkpt lat="49.9433" lon="3.86799">
        <ele>190</ele>
        <time>2021-08-08T08:50:21Z</time>
      </trkpt>
      <trkpt lat="49.94329" lon="3.86811">
        <ele>189.04</ele>
        <time>2021-08-08T08:50:22Z</time>
      </trkpt>
      <trkpt lat="49.94329" lon="3.86821">
        <ele>189.04</ele>
        <time>2021-08-08T08:50:23Z</time>
      </trkpt>
      <trkpt lat="49.94331" lon="3.86831">
        <ele>189.04</ele>
        <time>2021-08-08T08:50:24Z</time>
      </trkpt>
      <trkpt lat="49.94332" lon="3.86839">
        <ele>189.04</ele>
        <time>2021-08-08T08:50:25Z</time>
      </trkpt>
      <trkpt lat="49.94334" lon="3.86848">
        <ele>189.04</ele>
        <time>2021-08-08T08:50:26Z</time>
      </trkpt>
      <trkpt lat="49.94335" lon="3.86855">
        <ele>190.48</ele>
        <time>2021-08-08T08:50:27Z</time>
      </trkpt>
      <trkpt lat="49.94337" lon="3.86869">
        <ele>190.96</ele>
        <time>2021-08-08T08:50:29Z</time>
      </trkpt>
      <trkpt lat="49.94339" lon="3.86875">
        <ele>191.44</ele>
        <time>2021-08-08T08:50:30Z</time>
      </trkpt>
      <trkpt lat="49.94353" lon="3.86914">
        <ele>194.32</ele>
        <time>2021-08-08T08:50:38Z</time>
      </trkpt>
      <trkpt lat="49.94362" lon="3.86932">
        <ele>194.32</ele>
        <time>2021-08-08T08:50:42Z</time>
      </trkpt>
      <trkpt lat="49.94364" lon="3.86936">
        <ele>194.32</ele>
        <time>2021-08-08T08:50:43Z</time>
      </trkpt>
      <trkpt lat="49.94367" lon="3.86942">
        <ele>194.8</ele>
        <time>2021-08-08T08:50:44Z</time>
      </trkpt>
      <trkpt lat="49.94389" lon="3.86987">
        <ele>192.88</ele>
        <time>2021-08-08T08:50:52Z</time>
      </trkpt>
      <trkpt lat="49.94398" lon="3.87003">
        <ele>192.4</ele>
        <time>2021-08-08T08:50:55Z</time>
      </trkpt>
      <trkpt lat="49.94406" lon="3.87017">
        <ele>191.92</ele>
        <time>2021-08-08T08:50:58Z</time>
      </trkpt>
      <trkpt lat="49.94406" lon="3.87024">
        <ele>191.44</ele>
        <time>2021-08-08T08:50:59Z</time>
      </trkpt>
      <trkpt lat="49.94404" lon="3.87029">
        <ele>191.44</ele>
        <time>2021-08-08T08:51:00Z</time>
      </trkpt>
      <trkpt lat="49.94402" lon="3.87034">
        <ele>190.96</ele>
        <time>2021-08-08T08:51:01Z</time>
      </trkpt>
      <trkpt lat="49.94399" lon="3.8704">
        <ele>190.96</ele>
        <time>2021-08-08T08:51:02Z</time>
      </trkpt>
      <trkpt lat="49.94396" lon="3.87047">
        <ele>190</ele>
        <time>2021-08-08T08:51:03Z</time>
      </trkpt>
      <trkpt lat="49.94393" lon="3.87055">
        <ele>189.52</ele>
        <time>2021-08-08T08:51:04Z</time>
      </trkpt>
      <trkpt lat="49.9438" lon="3.87102">
        <ele>186.63</ele>
        <time>2021-08-08T08:51:09Z</time>
      </trkpt>
      <trkpt lat="49.94375" lon="3.87134">
        <ele>183.75</ele>
        <time>2021-08-08T08:51:12Z</time>
      </trkpt>
      <trkpt lat="49.94373" lon="3.8717">
        <ele>180.87</ele>
        <time>2021-08-08T08:51:15Z</time>
      </trkpt>
      <trkpt lat="49.94375" lon="3.87207">
        <ele>177.5</ele>
        <time>2021-08-08T08:51:18Z</time>
      </trkpt>
      <trkpt lat="49.94381" lon="3.87247">
        <ele>174.62</ele>
        <time>2021-08-08T08:51:21Z</time>
      </trkpt>
      <trkpt lat="49.94387" lon="3.87302">
        <ele>170.77</ele>
        <time>2021-08-08T08:51:25Z</time>
      </trkpt>
      <trkpt lat="49.94389" lon="3.87358">
        <ele>166.93</ele>
        <time>2021-08-08T08:51:29Z</time>
      </trkpt>
      <trkpt lat="49.9439" lon="3.874">
        <ele>165</ele>
        <time>2021-08-08T08:51:32Z</time>
      </trkpt>
      <trkpt lat="49.94393" lon="3.87451">
        <ele>162.12</ele>
        <time>2021-08-08T08:51:36Z</time>
      </trkpt>
      <trkpt lat="49.94396" lon="3.87485">
        <ele>159.24</ele>
        <time>2021-08-08T08:51:39Z</time>
      </trkpt>
      <trkpt lat="49.94398" lon="3.87494">
        <ele>159.72</ele>
        <time>2021-08-08T08:51:40Z</time>
      </trkpt>
      <trkpt lat="49.94401" lon="3.87502">
        <ele>158.75</ele>
        <time>2021-08-08T08:51:41Z</time>
      </trkpt>
      <trkpt lat="49.94406" lon="3.87509">
        <ele>158.75</ele>
        <time>2021-08-08T08:51:42Z</time>
      </trkpt>
      <trkpt lat="49.94411" lon="3.87515">
        <ele>157.79</ele>
        <time>2021-08-08T08:51:43Z</time>
      </trkpt>
      <trkpt lat="49.94416" lon="3.87522">
        <ele>157.79</ele>
        <time>2021-08-08T08:51:44Z</time>
      </trkpt>
      <trkpt lat="49.94421" lon="3.8753">
        <ele>157.79</ele>
        <time>2021-08-08T08:51:45Z</time>
      </trkpt>
      <trkpt lat="49.94425" lon="3.8754">
        <ele>157.79</ele>
        <time>2021-08-08T08:51:46Z</time>
      </trkpt>
      <trkpt lat="49.94429" lon="3.87549">
        <ele>157.79</ele>
        <time>2021-08-08T08:51:47Z</time>
      </trkpt>
      <trkpt lat="49.94431" lon="3.87559">
        <ele>157.79</ele>
        <time>2021-08-08T08:51:48Z</time>
      </trkpt>
      <trkpt lat="49.9444" lon="3.87622">
        <ele>156.83</ele>
        <time>2021-08-08T08:51:54Z</time>
      </trkpt>
      <trkpt lat="49.94447" lon="3.87695">
        <ele>158.75</ele>
        <time>2021-08-08T08:52:02Z</time>
      </trkpt>
      <trkpt lat="49.94447" lon="3.87756">
        <ele>160.2</ele>
        <time>2021-08-08T08:52:10Z</time>
      </trkpt>
      <trkpt lat="49.94442" lon="3.87835">
        <ele>160.68</ele>
        <time>2021-08-08T08:52:21Z</time>
      </trkpt>
      <trkpt lat="49.94444" lon="3.87866">
        <ele>162.12</ele>
        <time>2021-08-08T08:52:26Z</time>
      </trkpt>
      <trkpt lat="49.94451" lon="3.87892">
        <ele>162.6</ele>
        <time>2021-08-08T08:52:31Z</time>
      </trkpt>
      <trkpt lat="49.94458" lon="3.87922">
        <ele>161.16</ele>
        <time>2021-08-08T08:52:35Z</time>
      </trkpt>
      <trkpt lat="49.9446" lon="3.87933">
        <ele>160.2</ele>
        <time>2021-08-08T08:52:36Z</time>
      </trkpt>
      <trkpt lat="49.94461" lon="3.87944">
        <ele>159.24</ele>
        <time>2021-08-08T08:52:37Z</time>
      </trkpt>
      <trkpt lat="49.9446" lon="3.87958">
        <ele>158.27</ele>
        <time>2021-08-08T08:52:38Z</time>
      </trkpt>
      <trkpt lat="49.94459" lon="3.87971">
        <ele>157.31</ele>
        <time>2021-08-08T08:52:39Z</time>
      </trkpt>
      <trkpt lat="49.94456" lon="3.87985">
        <ele>156.35</ele>
        <time>2021-08-08T08:52:40Z</time>
      </trkpt>
      <trkpt lat="49.94447" lon="3.88028">
        <ele>152.51</ele>
        <time>2021-08-08T08:52:43Z</time>
      </trkpt>
      <trkpt lat="49.94435" lon="3.88074">
        <ele>148.18</ele>
        <time>2021-08-08T08:52:46Z</time>
      </trkpt>
      <trkpt lat="49.94426" lon="3.88103">
        <ele>145.3</ele>
        <time>2021-08-08T08:52:48Z</time>
      </trkpt>
      <trkpt lat="49.94422" lon="3.88122">
        <ele>145.3</ele>
        <time>2021-08-08T08:52:49Z</time>
      </trkpt>
      <trkpt lat="49.94419" lon="3.88135">
        <ele>144.34</ele>
        <time>2021-08-08T08:52:50Z</time>
      </trkpt>
      <trkpt lat="49.94417" lon="3.88155">
        <ele>144.82</ele>
        <time>2021-08-08T08:52:51Z</time>
      </trkpt>
      <trkpt lat="49.94406" lon="3.88265">
        <ele>145.78</ele>
        <time>2021-08-08T08:52:58Z</time>
      </trkpt>
      <trkpt lat="49.94403" lon="3.88293">
        <ele>144.34</ele>
        <time>2021-08-08T08:53:00Z</time>
      </trkpt>
      <trkpt lat="49.944" lon="3.88331">
        <ele>145.78</ele>
        <time>2021-08-08T08:53:03Z</time>
      </trkpt>
      <trkpt lat="49.94401" lon="3.88342">
        <ele>145.78</ele>
        <time>2021-08-08T08:53:04Z</time>
      </trkpt>
      <trkpt lat="49.94404" lon="3.88354">
        <ele>145.78</ele>
        <time>2021-08-08T08:53:05Z</time>
      </trkpt>
      <trkpt lat="49.94407" lon="3.88362">
        <ele>145.78</ele>
        <time>2021-08-08T08:53:06Z</time>
      </trkpt>
      <trkpt lat="49.94411" lon="3.88368">
        <ele>146.74</ele>
        <time>2021-08-08T08:53:07Z</time>
      </trkpt>
      <trkpt lat="49.94414" lon="3.88374">
        <ele>147.22</ele>
        <time>2021-08-08T08:53:08Z</time>
      </trkpt>
      <trkpt lat="49.94432" lon="3.88405">
        <ele>150.1</ele>
        <time>2021-08-08T08:53:15Z</time>
      </trkpt>
      <trkpt lat="49.94449" lon="3.88427">
        <ele>152.03</ele>
        <time>2021-08-08T08:53:23Z</time>
      </trkpt>
      <trkpt lat="49.94467" lon="3.88444">
        <ele>152.51</ele>
        <time>2021-08-08T08:53:31Z</time>
      </trkpt>
      <trkpt lat="49.94482" lon="3.88457">
        <ele>153.95</ele>
        <time>2021-08-08T08:53:38Z</time>
      </trkpt>
      <trkpt lat="49.94498" lon="3.88469">
        <ele>155.39</ele>
        <time>2021-08-08T08:53:45Z</time>
      </trkpt>
      <trkpt lat="49.9452" lon="3.88486">
        <ele>157.31</ele>
        <time>2021-08-08T08:53:55Z</time>
      </trkpt>
      <trkpt lat="49.94542" lon="3.88503">
        <ele>158.75</ele>
        <time>2021-08-08T08:54:05Z</time>
      </trkpt>
      <trkpt lat="49.94562" lon="3.88523">
        <ele>160.2</ele>
        <time>2021-08-08T08:54:15Z</time>
      </trkpt>
      <trkpt lat="49.94577" lon="3.88543">
        <ele>162.12</ele>
        <time>2021-08-08T08:54:23Z</time>
      </trkpt>
      <trkpt lat="49.94591" lon="3.88563">
        <ele>163.56</ele>
        <time>2021-08-08T08:54:31Z</time>
      </trkpt>
      <trkpt lat="49.94612" lon="3.88592">
        <ele>165.48</ele>
        <time>2021-08-08T08:54:42Z</time>
      </trkpt>
      <trkpt lat="49.9463" lon="3.88618">
        <ele>166.93</ele>
        <time>2021-08-08T08:54:52Z</time>
      </trkpt>
      <trkpt lat="49.94647" lon="3.88642">
        <ele>168.37</ele>
        <time>2021-08-08T08:55:02Z</time>
      </trkpt>
      <trkpt lat="49.94662" lon="3.88662">
        <ele>169.33</ele>
        <time>2021-08-08T08:55:10Z</time>
      </trkpt>
      <trkpt lat="49.94674" lon="3.88681">
        <ele>170.77</ele>
        <time>2021-08-08T08:55:17Z</time>
      </trkpt>
      <trkpt lat="49.9469" lon="3.88705">
        <ele>171.73</ele>
        <time>2021-08-08T08:55:26Z</time>
      </trkpt>
      <trkpt lat="49.94707" lon="3.88737">
        <ele>174.14</ele>
        <time>2021-08-08T08:55:37Z</time>
      </trkpt>
      <trkpt lat="49.94724" lon="3.88766">
        <ele>175.58</ele>
        <time>2021-08-08T08:55:47Z</time>
      </trkpt>
      <trkpt lat="49.94737" lon="3.8879">
        <ele>177.02</ele>
        <time>2021-08-08T08:55:55Z</time>
      </trkpt>
      <trkpt lat="49.9475" lon="3.88818">
        <ele>178.46</ele>
        <time>2021-08-08T08:56:04Z</time>
      </trkpt>
      <trkpt lat="49.94762" lon="3.88848">
        <ele>180.38</ele>
        <time>2021-08-08T08:56:13Z</time>
      </trkpt>
      <trkpt lat="49.94769" lon="3.88869">
        <ele>180.87</ele>
        <time>2021-08-08T08:56:19Z</time>
      </trkpt>
      <trkpt lat="49.9478" lon="3.88908">
        <ele>182.79</ele>
        <time>2021-08-08T08:56:30Z</time>
      </trkpt>
      <trkpt lat="49.94788" lon="3.88945">
        <ele>185.19</ele>
        <time>2021-08-08T08:56:40Z</time>
      </trkpt>
      <trkpt lat="49.94793" lon="3.88969">
        <ele>185.67</ele>
        <time>2021-08-08T08:56:47Z</time>
      </trkpt>
      <trkpt lat="49.94798" lon="3.89001">
        <ele>187.11</ele>
        <time>2021-08-08T08:56:56Z</time>
      </trkpt>
      <trkpt lat="49.94796" lon="3.89003">
        <ele>188.08</ele>
        <time>2021-08-08T08:56:57Z</time>
      </trkpt>
      <trkpt lat="49.94794" lon="3.89005">
        <ele>188.08</ele>
        <time>2021-08-08T08:56:58Z</time>
      </trkpt>
      <trkpt lat="49.94792" lon="3.89004">
        <ele>188.08</ele>
        <time>2021-08-08T08:56:59Z</time>
      </trkpt>
      <trkpt lat="49.9479" lon="3.89003">
        <ele>187.59</ele>
        <time>2021-08-08T08:57:00Z</time>
      </trkpt>
      <trkpt lat="49.94772" lon="3.88987">
        <ele>187.59</ele>
        <time>2021-08-08T08:57:06Z</time>
      </trkpt>
      <trkpt lat="49.94743" lon="3.88958">
        <ele>187.59</ele>
        <time>2021-08-08T08:57:15Z</time>
      </trkpt>
      <trkpt lat="49.94731" lon="3.88945">
        <ele>187.59</ele>
        <time>2021-08-08T08:57:19Z</time>
      </trkpt>
      <trkpt lat="49.94727" lon="3.88945">
        <ele>186.15</ele>
        <time>2021-08-08T08:57:20Z</time>
      </trkpt>
      <trkpt lat="49.94724" lon="3.88947">
        <ele>186.15</ele>
        <time>2021-08-08T08:57:21Z</time>
      </trkpt>
      <trkpt lat="49.94721" lon="3.88949">
        <ele>188.08</ele>
        <time>2021-08-08T08:57:22Z</time>
      </trkpt>
      <trkpt lat="49.94719" lon="3.88953">
        <ele>188.08</ele>
        <time>2021-08-08T08:57:23Z</time>
      </trkpt>
      <trkpt lat="49.94718" lon="3.88957">
        <ele>188.08</ele>
        <time>2021-08-08T08:57:24Z</time>
      </trkpt>
      <trkpt lat="49.94717" lon="3.88961">
        <ele>188.08</ele>
        <time>2021-08-08T08:57:25Z</time>
      </trkpt>
      <trkpt lat="49.94717" lon="3.88965">
        <ele>188.08</ele>
        <time>2021-08-08T08:57:26Z</time>
      </trkpt>
      <trkpt lat="49.94712" lon="3.88994">
        <ele>189.04</ele>
        <time>2021-08-08T08:57:34Z</time>
      </trkpt>
      <trkpt lat="49.94706" lon="3.89026">
        <ele>190.48</ele>
        <time>2021-08-08T08:57:43Z</time>
      </trkpt>
      <trkpt lat="49.94695" lon="3.89039">
        <ele>190.96</ele>
        <time>2021-08-08T08:57:49Z</time>
      </trkpt>
      <trkpt lat="49.94669" lon="3.89032">
        <ele>192.88</ele>
        <time>2021-08-08T08:57:58Z</time>
      </trkpt>
      <trkpt lat="49.94642" lon="3.89024">
        <ele>193.84</ele>
        <time>2021-08-08T08:58:07Z</time>
      </trkpt>
      <trkpt lat="49.94618" lon="3.89019">
        <ele>193.84</ele>
        <time>2021-08-08T08:58:15Z</time>
      </trkpt>
      <trkpt lat="49.94602" lon="3.8902">
        <ele>194.32</ele>
        <time>2021-08-08T08:58:21Z</time>
      </trkpt>
      <trkpt lat="49.94587" lon="3.89019">
        <ele>194.32</ele>
        <time>2021-08-08T08:58:27Z</time>
      </trkpt>
      <trkpt lat="49.94568" lon="3.89021">
        <ele>195.28</ele>
        <time>2021-08-08T08:58:34Z</time>
      </trkpt>
      <trkpt lat="49.94563" lon="3.89023">
        <ele>195.28</ele>
        <time>2021-08-08T08:58:36Z</time>
      </trkpt>
      <trkpt lat="49.94562" lon="3.89025">
        <ele>195.28</ele>
        <time>2021-08-08T08:58:37Z</time>
      </trkpt>
      <trkpt lat="49.94559" lon="3.89025">
        <ele>195.28</ele>
        <time>2021-08-08T08:58:38Z</time>
      </trkpt>
      <trkpt lat="49.94557" lon="3.89025">
        <ele>195.28</ele>
        <time>2021-08-08T08:58:39Z</time>
      </trkpt>
      <trkpt lat="49.94555" lon="3.89024">
        <ele>195.28</ele>
        <time>2021-08-08T08:58:40Z</time>
      </trkpt>
      <trkpt lat="49.94552" lon="3.89024">
        <ele>195.28</ele>
        <time>2021-08-08T08:58:41Z</time>
      </trkpt>
      <trkpt lat="49.9453" lon="3.89026">
        <ele>195.28</ele>
        <time>2021-08-08T08:58:48Z</time>
      </trkpt>
      <trkpt lat="49.94527" lon="3.89025">
        <ele>195.28</ele>
        <time>2021-08-08T08:58:49Z</time>
      </trkpt>
      <trkpt lat="49.94525" lon="3.89025">
        <ele>195.28</ele>
        <time>2021-08-08T08:58:50Z</time>
      </trkpt>
      <trkpt lat="49.94522" lon="3.89025">
        <ele>195.28</ele>
        <time>2021-08-08T08:58:51Z</time>
      </trkpt>
      <trkpt lat="49.9452" lon="3.89026">
        <ele>195.77</ele>
        <time>2021-08-08T08:58:52Z</time>
      </trkpt>
      <trkpt lat="49.94518" lon="3.89027">
        <ele>195.77</ele>
        <time>2021-08-08T08:58:53Z</time>
      </trkpt>
      <trkpt lat="49.94516" lon="3.89027">
        <ele>195.77</ele>
        <time>2021-08-08T08:58:54Z</time>
      </trkpt>
      <trkpt lat="49.94514" lon="3.89028">
        <ele>195.77</ele>
        <time>2021-08-08T08:58:55Z</time>
      </trkpt>
      <trkpt lat="49.94497" lon="3.8903">
        <ele>195.77</ele>
        <time>2021-08-08T08:59:04Z</time>
      </trkpt>
      <trkpt lat="49.94487" lon="3.89032">
        <ele>196.25</ele>
        <time>2021-08-08T08:59:11Z</time>
      </trkpt>
      <trkpt lat="49.9447" lon="3.89038">
        <ele>196.25</ele>
        <time>2021-08-08T08:59:20Z</time>
      </trkpt>
      <trkpt lat="49.94447" lon="3.89048">
        <ele>196.25</ele>
        <time>2021-08-08T08:59:30Z</time>
      </trkpt>
      <trkpt lat="49.94429" lon="3.89057">
        <ele>196.25</ele>
        <time>2021-08-08T08:59:38Z</time>
      </trkpt>
      <trkpt lat="49.94405" lon="3.8907">
        <ele>196.25</ele>
        <time>2021-08-08T08:59:48Z</time>
      </trkpt>
      <trkpt lat="49.94403" lon="3.89071">
        <ele>196.25</ele>
        <time>2021-08-08T08:59:52Z</time>
      </trkpt>
      <trkpt lat="49.944" lon="3.89073">
        <ele>196.25</ele>
        <time>2021-08-08T08:59:59Z</time>
      </trkpt>
      <trkpt lat="49.94396" lon="3.89075">
        <ele>196.25</ele>
        <time>2021-08-08T09:00:03Z</time>
      </trkpt>
      <trkpt lat="49.94395" lon="3.89075">
        <ele>196.25</ele>
        <time>2021-08-08T09:00:04Z</time>
      </trkpt>
      <trkpt lat="49.94394" lon="3.89076">
        <ele>196.25</ele>
        <time>2021-08-08T09:00:05Z</time>
      </trkpt>
      <trkpt lat="49.94392" lon="3.89077">
        <ele>196.25</ele>
        <time>2021-08-08T09:00:06Z</time>
      </trkpt>
      <trkpt lat="49.9439" lon="3.89079">
        <ele>196.25</ele>
        <time>2021-08-08T09:00:07Z</time>
      </trkpt>
      <trkpt lat="49.94389" lon="3.8908">
        <ele>196.25</ele>
        <time>2021-08-08T09:00:08Z</time>
      </trkpt>
      <trkpt lat="49.94387" lon="3.89081">
        <ele>196.25</ele>
        <time>2021-08-08T09:00:09Z</time>
      </trkpt>
      <trkpt lat="49.94385" lon="3.89081">
        <ele>196.25</ele>
        <time>2021-08-08T09:00:10Z</time>
      </trkpt>
      <trkpt lat="49.94384" lon="3.89083">
        <ele>196.25</ele>
        <time>2021-08-08T09:00:11Z</time>
      </trkpt>
      <trkpt lat="49.94382" lon="3.89084">
        <ele>196.25</ele>
        <time>2021-08-08T09:00:12Z</time>
      </trkpt>
      <trkpt lat="49.94374" lon="3.89087">
        <ele>195.28</ele>
        <time>2021-08-08T09:00:19Z</time>
      </trkpt>
      <trkpt lat="49.94373" lon="3.89086">
        <ele>195.28</ele>
        <time>2021-08-08T09:00:20Z</time>
      </trkpt>
      <trkpt lat="49.94372" lon="3.89085">
        <ele>195.28</ele>
        <time>2021-08-08T09:00:21Z</time>
      </trkpt>
      <trkpt lat="49.94371" lon="3.89085">
        <ele>195.28</ele>
        <time>2021-08-08T09:00:22Z</time>
      </trkpt>
      <trkpt lat="49.94369" lon="3.89087">
        <ele>195.28</ele>
        <time>2021-08-08T09:00:23Z</time>
      </trkpt>
      <trkpt lat="49.94368" lon="3.89089">
        <ele>194.8</ele>
        <time>2021-08-08T09:00:24Z</time>
      </trkpt>
      <trkpt lat="49.94358" lon="3.89095">
        <ele>194.8</ele>
        <time>2021-08-08T09:00:29Z</time>
      </trkpt>
      <trkpt lat="49.94357" lon="3.89097">
        <ele>194.32</ele>
        <time>2021-08-08T09:00:30Z</time>
      </trkpt>
      <trkpt lat="49.94355" lon="3.89098">
        <ele>194.32</ele>
        <time>2021-08-08T09:00:31Z</time>
      </trkpt>
      <trkpt lat="49.94354" lon="3.89098">
        <ele>194.32</ele>
        <time>2021-08-08T09:00:32Z</time>
      </trkpt>
      <trkpt lat="49.94351" lon="3.89099">
        <ele>194.32</ele>
        <time>2021-08-08T09:00:35Z</time>
      </trkpt>
      <trkpt lat="49.94336" lon="3.89108">
        <ele>194.32</ele>
        <time>2021-08-08T09:00:42Z</time>
      </trkpt>
      <trkpt lat="49.94318" lon="3.89115">
        <ele>193.84</ele>
        <time>2021-08-08T09:00:49Z</time>
      </trkpt>
      <trkpt lat="49.94297" lon="3.89118">
        <ele>193.84</ele>
        <time>2021-08-08T09:00:58Z</time>
      </trkpt>
      <trkpt lat="49.94275" lon="3.89125">
        <ele>195.28</ele>
        <time>2021-08-08T09:01:06Z</time>
      </trkpt>
      <trkpt lat="49.94257" lon="3.89129">
        <ele>195.77</ele>
        <time>2021-08-08T09:01:13Z</time>
      </trkpt>
      <trkpt lat="49.94244" lon="3.8913">
        <ele>195.77</ele>
        <time>2021-08-08T09:01:19Z</time>
      </trkpt>
      <trkpt lat="49.94219" lon="3.89133">
        <ele>197.21</ele>
        <time>2021-08-08T09:01:28Z</time>
      </trkpt>
      <trkpt lat="49.94194" lon="3.89138">
        <ele>197.69</ele>
        <time>2021-08-08T09:01:37Z</time>
      </trkpt>
      <trkpt lat="49.94176" lon="3.89146">
        <ele>199.13</ele>
        <time>2021-08-08T09:01:45Z</time>
      </trkpt>
      <trkpt lat="49.94157" lon="3.89155">
        <ele>198.65</ele>
        <time>2021-08-08T09:01:52Z</time>
      </trkpt>
      <trkpt lat="49.94138" lon="3.89165">
        <ele>199.13</ele>
        <time>2021-08-08T09:02:00Z</time>
      </trkpt>
      <trkpt lat="49.94123" lon="3.89163">
        <ele>197.69</ele>
        <time>2021-08-08T09:02:05Z</time>
      </trkpt>
      <trkpt lat="49.94101" lon="3.89162">
        <ele>197.21</ele>
        <time>2021-08-08T09:02:13Z</time>
      </trkpt>
      <trkpt lat="49.94094" lon="3.89162">
        <ele>196.25</ele>
        <time>2021-08-08T09:02:17Z</time>
      </trkpt>
      <trkpt lat="49.94078" lon="3.8916">
        <ele>196.25</ele>
        <time>2021-08-08T09:02:23Z</time>
      </trkpt>
      <trkpt lat="49.94064" lon="3.89159">
        <ele>195.77</ele>
        <time>2021-08-08T09:02:29Z</time>
      </trkpt>
      <trkpt lat="49.94051" lon="3.89155">
        <ele>195.28</ele>
        <time>2021-08-08T09:02:36Z</time>
      </trkpt>
      <trkpt lat="49.94044" lon="3.89153">
        <ele>195.28</ele>
        <time>2021-08-08T09:02:41Z</time>
      </trkpt>
      <trkpt lat="49.94042" lon="3.89153">
        <ele>195.28</ele>
        <time>2021-08-08T09:02:42Z</time>
      </trkpt>
      <trkpt lat="49.94029" lon="3.89149">
        <ele>195.28</ele>
        <time>2021-08-08T09:02:48Z</time>
      </trkpt>
      <trkpt lat="49.94025" lon="3.89147">
        <ele>195.28</ele>
        <time>2021-08-08T09:02:50Z</time>
      </trkpt>
      <trkpt lat="49.9401" lon="3.8914">
        <ele>194.8</ele>
        <time>2021-08-08T09:02:56Z</time>
      </trkpt>
      <trkpt lat="49.93989" lon="3.89132">
        <ele>193.84</ele>
        <time>2021-08-08T09:03:03Z</time>
      </trkpt>
      <trkpt lat="49.93964" lon="3.89125">
        <ele>193.84</ele>
        <time>2021-08-08T09:03:11Z</time>
      </trkpt>
      <trkpt lat="49.93953" lon="3.89118">
        <ele>193.84</ele>
        <time>2021-08-08T09:03:17Z</time>
      </trkpt>
      <trkpt lat="49.93948" lon="3.89112">
        <ele>192.88</ele>
        <time>2021-08-08T09:03:23Z</time>
      </trkpt>
      <trkpt lat="49.93947" lon="3.89113">
        <ele>192.88</ele>
        <time>2021-08-08T09:03:27Z</time>
      </trkpt>
      <trkpt lat="49.93947" lon="3.89113">
        <ele>192.88</ele>
        <time>2021-08-08T09:03:33Z</time>
      </trkpt>
      <trkpt lat="49.93948" lon="3.89112">
        <ele>192.88</ele>
        <time>2021-08-08T09:03:46Z</time>
      </trkpt>
      <trkpt lat="49.93948" lon="3.89112">
        <ele>192.88</ele>
        <time>2021-08-08T09:03:49Z</time>
      </trkpt>
      <trkpt lat="49.93934" lon="3.8911">
        <ele>192.4</ele>
        <time>2021-08-08T09:03:54Z</time>
      </trkpt>
      <trkpt lat="49.939" lon="3.89095">
        <ele>191.92</ele>
        <time>2021-08-08T09:04:03Z</time>
      </trkpt>
      <trkpt lat="49.93861" lon="3.89081">
        <ele>191.92</ele>
        <time>2021-08-08T09:04:12Z</time>
      </trkpt>
      <trkpt lat="49.93809" lon="3.89075">
        <ele>191.92</ele>
        <time>2021-08-08T09:04:23Z</time>
      </trkpt>
      <trkpt lat="49.9377" lon="3.89079">
        <ele>193.36</ele>
        <time>2021-08-08T09:04:32Z</time>
      </trkpt>
      <trkpt lat="49.93727" lon="3.89092">
        <ele>194.32</ele>
        <time>2021-08-08T09:04:42Z</time>
      </trkpt>
      <trkpt lat="49.93679" lon="3.89105">
        <ele>194.32</ele>
        <time>2021-08-08T09:04:53Z</time>
      </trkpt>
      <trkpt lat="49.93637" lon="3.89104">
        <ele>194.32</ele>
        <time>2021-08-08T09:05:02Z</time>
      </trkpt>
      <trkpt lat="49.93585" lon="3.89084">
        <ele>192.4</ele>
        <time>2021-08-08T09:05:12Z</time>
      </trkpt>
      <trkpt lat="49.93543" lon="3.8907">
        <ele>191.92</ele>
        <time>2021-08-08T09:05:19Z</time>
      </trkpt>
      <trkpt lat="49.93538" lon="3.89066">
        <ele>191.44</ele>
        <time>2021-08-08T09:05:20Z</time>
      </trkpt>
      <trkpt lat="49.93533" lon="3.89058">
        <ele>190.48</ele>
        <time>2021-08-08T09:05:21Z</time>
      </trkpt>
      <trkpt lat="49.93529" lon="3.89051">
        <ele>189.52</ele>
        <time>2021-08-08T09:05:22Z</time>
      </trkpt>
      <trkpt lat="49.93527" lon="3.89044">
        <ele>189.52</ele>
        <time>2021-08-08T09:05:23Z</time>
      </trkpt>
      <trkpt lat="49.93524" lon="3.89035">
        <ele>189.52</ele>
        <time>2021-08-08T09:05:24Z</time>
      </trkpt>
      <trkpt lat="49.93522" lon="3.89029">
        <ele>190.48</ele>
        <time>2021-08-08T09:05:25Z</time>
      </trkpt>
      <trkpt lat="49.9352" lon="3.89023">
        <ele>190.48</ele>
        <time>2021-08-08T09:05:26Z</time>
      </trkpt>
      <trkpt lat="49.93497" lon="3.88978">
        <ele>190.48</ele>
        <time>2021-08-08T09:05:33Z</time>
      </trkpt>
      <trkpt lat="49.93493" lon="3.88972">
        <ele>190.48</ele>
        <time>2021-08-08T09:05:34Z</time>
      </trkpt>
      <trkpt lat="49.93489" lon="3.88967">
        <ele>190.48</ele>
        <time>2021-08-08T09:05:35Z</time>
      </trkpt>
      <trkpt lat="49.93448" lon="3.88935">
        <ele>189.04</ele>
        <time>2021-08-08T09:05:43Z</time>
      </trkpt>
      <trkpt lat="49.93389" lon="3.88891">
        <ele>187.11</ele>
        <time>2021-08-08T09:05:54Z</time>
      </trkpt>
      <trkpt lat="49.93337" lon="3.88851">
        <ele>186.15</ele>
        <time>2021-08-08T09:06:04Z</time>
      </trkpt>
      <trkpt lat="49.93273" lon="3.888">
        <ele>183.75</ele>
        <time>2021-08-08T09:06:16Z</time>
      </trkpt>
      <trkpt lat="49.93219" lon="3.88758">
        <ele>181.83</ele>
        <time>2021-08-08T09:06:25Z</time>
      </trkpt>
      <trkpt lat="49.9319" lon="3.88735">
        <ele>179.9</ele>
        <time>2021-08-08T09:06:30Z</time>
      </trkpt>
      <trkpt lat="49.93183" lon="3.88732">
        <ele>178.94</ele>
        <time>2021-08-08T09:06:31Z</time>
      </trkpt>
      <trkpt lat="49.93178" lon="3.8873">
        <ele>178.94</ele>
        <time>2021-08-08T09:06:32Z</time>
      </trkpt>
      <trkpt lat="49.93166" lon="3.88728">
        <ele>178.94</ele>
        <time>2021-08-08T09:06:34Z</time>
      </trkpt>
      <trkpt lat="49.9316" lon="3.88728">
        <ele>178.94</ele>
        <time>2021-08-08T09:06:35Z</time>
      </trkpt>
      <trkpt lat="49.93153" lon="3.88727">
        <ele>178.94</ele>
        <time>2021-08-08T09:06:36Z</time>
      </trkpt>
      <trkpt lat="49.93105" lon="3.88713">
        <ele>179.42</ele>
        <time>2021-08-08T09:06:44Z</time>
      </trkpt>
      <trkpt lat="49.93078" lon="3.88706">
        <ele>178.46</ele>
        <time>2021-08-08T09:06:49Z</time>
      </trkpt>
      <trkpt lat="49.93035" lon="3.88709">
        <ele>177.5</ele>
        <time>2021-08-08T09:06:57Z</time>
      </trkpt>
      <trkpt lat="49.92978" lon="3.88723">
        <ele>176.06</ele>
        <time>2021-08-08T09:07:08Z</time>
      </trkpt>
      <trkpt lat="49.92938" lon="3.88729">
        <ele>177.5</ele>
        <time>2021-08-08T09:07:16Z</time>
      </trkpt>
      <trkpt lat="49.92933" lon="3.88729">
        <ele>177.5</ele>
        <time>2021-08-08T09:07:17Z</time>
      </trkpt>
      <trkpt lat="49.92928" lon="3.88728">
        <ele>177.5</ele>
        <time>2021-08-08T09:07:18Z</time>
      </trkpt>
      <trkpt lat="49.92884" lon="3.88727">
        <ele>176.06</ele>
        <time>2021-08-08T09:07:26Z</time>
      </trkpt>
      <trkpt lat="49.92838" lon="3.88737">
        <ele>176.06</ele>
        <time>2021-08-08T09:07:34Z</time>
      </trkpt>
      <trkpt lat="49.92791" lon="3.88753">
        <ele>175.1</ele>
        <time>2021-08-08T09:07:43Z</time>
      </trkpt>
      <trkpt lat="49.92786" lon="3.88756">
        <ele>175.1</ele>
        <time>2021-08-08T09:07:44Z</time>
      </trkpt>
      <trkpt lat="49.92782" lon="3.88758">
        <ele>175.1</ele>
        <time>2021-08-08T09:07:45Z</time>
      </trkpt>
      <trkpt lat="49.92751" lon="3.88782">
        <ele>174.62</ele>
        <time>2021-08-08T09:07:54Z</time>
      </trkpt>
      <trkpt lat="49.92729" lon="3.88806">
        <ele>175.1</ele>
        <time>2021-08-08T09:08:02Z</time>
      </trkpt>
      <trkpt lat="49.92706" lon="3.88831">
        <ele>175.1</ele>
        <time>2021-08-08T09:08:10Z</time>
      </trkpt>
      <trkpt lat="49.9269" lon="3.88849">
        <ele>175.1</ele>
        <time>2021-08-08T09:08:16Z</time>
      </trkpt>
      <trkpt lat="49.92666" lon="3.88868">
        <ele>173.66</ele>
        <time>2021-08-08T09:08:23Z</time>
      </trkpt>
      <trkpt lat="49.92632" lon="3.8888">
        <ele>171.73</ele>
        <time>2021-08-08T09:08:31Z</time>
      </trkpt>
      <trkpt lat="49.92628" lon="3.8888">
        <ele>171.73</ele>
        <time>2021-08-08T09:08:32Z</time>
      </trkpt>
      <trkpt lat="49.92623" lon="3.88881">
        <ele>171.73</ele>
        <time>2021-08-08T09:08:33Z</time>
      </trkpt>
      <trkpt lat="49.9259" lon="3.88888">
        <ele>168.85</ele>
        <time>2021-08-08T09:08:40Z</time>
      </trkpt>
      <trkpt lat="49.92578" lon="3.88891">
        <ele>167.41</ele>
        <time>2021-08-08T09:08:43Z</time>
      </trkpt>
      <trkpt lat="49.92565" lon="3.88894">
        <ele>168.85</ele>
        <time>2021-08-08T09:08:46Z</time>
      </trkpt>
      <trkpt lat="49.92535" lon="3.88903">
        <ele>167.41</ele>
        <time>2021-08-08T09:08:53Z</time>
      </trkpt>
      <trkpt lat="49.9252" lon="3.88911">
        <ele>166.93</ele>
        <time>2021-08-08T09:08:57Z</time>
      </trkpt>
      <trkpt lat="49.92517" lon="3.88915">
        <ele>166.93</ele>
        <time>2021-08-08T09:08:58Z</time>
      </trkpt>
      <trkpt lat="49.92513" lon="3.88919">
        <ele>166.93</ele>
        <time>2021-08-08T09:08:59Z</time>
      </trkpt>
      <trkpt lat="49.92488" lon="3.8895">
        <ele>166.93</ele>
        <time>2021-08-08T09:09:07Z</time>
      </trkpt>
      <trkpt lat="49.92467" lon="3.88983">
        <ele>166.93</ele>
        <time>2021-08-08T09:09:15Z</time>
      </trkpt>
      <trkpt lat="49.92451" lon="3.89007">
        <ele>165.96</ele>
        <time>2021-08-08T09:09:21Z</time>
      </trkpt>
      <trkpt lat="49.92436" lon="3.89032">
        <ele>165.48</ele>
        <time>2021-08-08T09:09:27Z</time>
      </trkpt>
      <trkpt lat="49.92418" lon="3.89061">
        <ele>165.48</ele>
        <time>2021-08-08T09:09:34Z</time>
      </trkpt>
      <trkpt lat="49.92396" lon="3.89096">
        <ele>164.04</ele>
        <time>2021-08-08T09:09:43Z</time>
      </trkpt>
      <trkpt lat="49.92373" lon="3.89131">
        <ele>161.16</ele>
        <time>2021-08-08T09:09:51Z</time>
      </trkpt>
      <trkpt lat="49.92354" lon="3.89163">
        <ele>159.24</ele>
        <time>2021-08-08T09:09:58Z</time>
      </trkpt>
      <trkpt lat="49.92339" lon="3.89202">
        <ele>157.79</ele>
        <time>2021-08-08T09:10:06Z</time>
      </trkpt>
      <trkpt lat="49.92329" lon="3.89225">
        <ele>155.39</ele>
        <time>2021-08-08T09:10:12Z</time>
      </trkpt>
      <trkpt lat="49.92322" lon="3.89237">
        <ele>152.51</ele>
        <time>2021-08-08T09:10:17Z</time>
      </trkpt>
      <trkpt lat="49.92313" lon="3.89243">
        <ele>149.14</ele>
        <time>2021-08-08T09:10:20Z</time>
      </trkpt>
      <trkpt lat="49.923" lon="3.89255">
        <ele>146.26</ele>
        <time>2021-08-08T09:10:25Z</time>
      </trkpt>
      <trkpt lat="49.92296" lon="3.89258">
        <ele>145.78</ele>
        <time>2021-08-08T09:10:27Z</time>
      </trkpt>
      <trkpt lat="49.92289" lon="3.89264">
        <ele>142.41</ele>
        <time>2021-08-08T09:10:32Z</time>
      </trkpt>
      <trkpt lat="49.92273" lon="3.89272">
        <ele>139.53</ele>
        <time>2021-08-08T09:10:36Z</time>
      </trkpt>
      <trkpt lat="49.92258" lon="3.89277">
        <ele>136.64</ele>
        <time>2021-08-08T09:10:41Z</time>
      </trkpt>
      <trkpt lat="49.92257" lon="3.8928">
        <ele>136.64</ele>
        <time>2021-08-08T09:10:42Z</time>
      </trkpt>
      <trkpt lat="49.92254" lon="3.89288">
        <ele>137.61</ele>
        <time>2021-08-08T09:10:48Z</time>
      </trkpt>
      <trkpt lat="49.92256" lon="3.8929">
        <ele>137.61</ele>
        <time>2021-08-08T09:10:50Z</time>
      </trkpt>
      <trkpt lat="49.9226" lon="3.89295">
        <ele>138.57</ele>
        <time>2021-08-08T09:10:55Z</time>
      </trkpt>
      <trkpt lat="49.92261" lon="3.89297">
        <ele>138.57</ele>
        <time>2021-08-08T09:10:56Z</time>
      </trkpt>
      <trkpt lat="49.92262" lon="3.89299">
        <ele>138.57</ele>
        <time>2021-08-08T09:10:57Z</time>
      </trkpt>
      <trkpt lat="49.92267" lon="3.89303">
        <ele>139.05</ele>
        <time>2021-08-08T09:11:03Z</time>
      </trkpt>
      <trkpt lat="49.92276" lon="3.8931">
        <ele>140.01</ele>
        <time>2021-08-08T09:11:12Z</time>
      </trkpt>
      <trkpt lat="49.92284" lon="3.89314">
        <ele>140.97</ele>
        <time>2021-08-08T09:11:19Z</time>
      </trkpt>
      <trkpt lat="49.92291" lon="3.89318">
        <ele>141.93</ele>
        <time>2021-08-08T09:11:25Z</time>
      </trkpt>
      <trkpt lat="49.92299" lon="3.89322">
        <ele>143.37</ele>
        <time>2021-08-08T09:11:33Z</time>
      </trkpt>
      <trkpt lat="49.92308" lon="3.89327">
        <ele>143.85</ele>
        <time>2021-08-08T09:11:40Z</time>
      </trkpt>
      <trkpt lat="49.92315" lon="3.89331">
        <ele>144.34</ele>
        <time>2021-08-08T09:11:46Z</time>
      </trkpt>
      <trkpt lat="49.92321" lon="3.89335">
        <ele>145.78</ele>
        <time>2021-08-08T09:11:53Z</time>
      </trkpt>
      <trkpt lat="49.92325" lon="3.89339">
        <ele>146.26</ele>
        <time>2021-08-08T09:12:00Z</time>
      </trkpt>
      <trkpt lat="49.92327" lon="3.8934">
        <ele>146.26</ele>
        <time>2021-08-08T09:12:01Z</time>
      </trkpt>
      <trkpt lat="49.92331" lon="3.89342">
        <ele>146.74</ele>
        <time>2021-08-08T09:12:05Z</time>
      </trkpt>
      <trkpt lat="49.92332" lon="3.89343">
        <ele>146.74</ele>
        <time>2021-08-08T09:12:06Z</time>
      </trkpt>
      <trkpt lat="49.92339" lon="3.89346">
        <ele>147.22</ele>
        <time>2021-08-08T09:12:12Z</time>
      </trkpt>
      <trkpt lat="49.92347" lon="3.8935">
        <ele>148.18</ele>
        <time>2021-08-08T09:12:18Z</time>
      </trkpt>
      <trkpt lat="49.92357" lon="3.89354">
        <ele>150.1</ele>
        <time>2021-08-08T09:12:27Z</time>
      </trkpt>
      <trkpt lat="49.92367" lon="3.89359">
        <ele>151.06</ele>
        <time>2021-08-08T09:12:35Z</time>
      </trkpt>
      <trkpt lat="49.92375" lon="3.89364">
        <ele>152.03</ele>
        <time>2021-08-08T09:12:42Z</time>
      </trkpt>
      <trkpt lat="49.92382" lon="3.8937">
        <ele>152.51</ele>
        <time>2021-08-08T09:12:48Z</time>
      </trkpt>
      <trkpt lat="49.92394" lon="3.89375">
        <ele>152.99</ele>
        <time>2021-08-08T09:12:56Z</time>
      </trkpt>
      <trkpt lat="49.92407" lon="3.89384">
        <ele>153.95</ele>
        <time>2021-08-08T09:13:03Z</time>
      </trkpt>
      <trkpt lat="49.92415" lon="3.8939">
        <ele>154.91</ele>
        <time>2021-08-08T09:13:08Z</time>
      </trkpt>
      <trkpt lat="49.92427" lon="3.89401">
        <ele>155.87</ele>
        <time>2021-08-08T09:13:16Z</time>
      </trkpt>
      <trkpt lat="49.92429" lon="3.89402">
        <ele>155.87</ele>
        <time>2021-08-08T09:13:17Z</time>
      </trkpt>
      <trkpt lat="49.9243" lon="3.89403">
        <ele>156.35</ele>
        <time>2021-08-08T09:13:18Z</time>
      </trkpt>
      <trkpt lat="49.92432" lon="3.89404">
        <ele>156.35</ele>
        <time>2021-08-08T09:13:19Z</time>
      </trkpt>
      <trkpt lat="49.92433" lon="3.89406">
        <ele>156.35</ele>
        <time>2021-08-08T09:13:20Z</time>
      </trkpt>
      <trkpt lat="49.92435" lon="3.89407">
        <ele>156.35</ele>
        <time>2021-08-08T09:13:21Z</time>
      </trkpt>
      <trkpt lat="49.92443" lon="3.89413">
        <ele>158.27</ele>
        <time>2021-08-08T09:13:28Z</time>
      </trkpt>
      <trkpt lat="49.92449" lon="3.89415">
        <ele>159.72</ele>
        <time>2021-08-08T09:13:35Z</time>
      </trkpt>
      <trkpt lat="49.92458" lon="3.89418">
        <ele>160.68</ele>
        <time>2021-08-08T09:13:43Z</time>
      </trkpt>
      <trkpt lat="49.92467" lon="3.89426">
        <ele>162.6</ele>
        <time>2021-08-08T09:13:51Z</time>
      </trkpt>
      <trkpt lat="49.92474" lon="3.8943">
        <ele>164.04</ele>
        <time>2021-08-08T09:13:59Z</time>
      </trkpt>
      <trkpt lat="49.92484" lon="3.89437">
        <ele>165.96</ele>
        <time>2021-08-08T09:14:08Z</time>
      </trkpt>
      <trkpt lat="49.92494" lon="3.89443">
        <ele>166.45</ele>
        <time>2021-08-08T09:14:15Z</time>
      </trkpt>
      <trkpt lat="49.92502" lon="3.8945">
        <ele>166.93</ele>
        <time>2021-08-08T09:14:21Z</time>
      </trkpt>
      <trkpt lat="49.92514" lon="3.89462">
        <ele>167.41</ele>
        <time>2021-08-08T09:14:28Z</time>
      </trkpt>
      <trkpt lat="49.92528" lon="3.89474">
        <ele>167.89</ele>
        <time>2021-08-08T09:14:35Z</time>
      </trkpt>
      <trkpt lat="49.92543" lon="3.89477">
        <ele>169.33</ele>
        <time>2021-08-08T09:14:43Z</time>
      </trkpt>
      <trkpt lat="49.92555" lon="3.89476">
        <ele>169.81</ele>
        <time>2021-08-08T09:14:50Z</time>
      </trkpt>
      <trkpt lat="49.92563" lon="3.89476">
        <ele>171.25</ele>
        <time>2021-08-08T09:14:56Z</time>
      </trkpt>
      <trkpt lat="49.92571" lon="3.89478">
        <ele>171.73</ele>
        <time>2021-08-08T09:15:01Z</time>
      </trkpt>
      <trkpt lat="49.92573" lon="3.89478">
        <ele>171.73</ele>
        <time>2021-08-08T09:15:02Z</time>
      </trkpt>
      <trkpt lat="49.92583" lon="3.89482">
        <ele>172.21</ele>
        <time>2021-08-08T09:15:09Z</time>
      </trkpt>
      <trkpt lat="49.92597" lon="3.8949">
        <ele>172.69</ele>
        <time>2021-08-08T09:15:16Z</time>
      </trkpt>
      <trkpt lat="49.92598" lon="3.89491">
        <ele>173.17</ele>
        <time>2021-08-08T09:15:17Z</time>
      </trkpt>
      <trkpt lat="49.926" lon="3.89493">
        <ele>173.17</ele>
        <time>2021-08-08T09:15:18Z</time>
      </trkpt>
      <trkpt lat="49.9261" lon="3.89498">
        <ele>174.14</ele>
        <time>2021-08-08T09:15:23Z</time>
      </trkpt>
      <trkpt lat="49.92611" lon="3.89499">
        <ele>174.14</ele>
        <time>2021-08-08T09:15:24Z</time>
      </trkpt>
      <trkpt lat="49.92612" lon="3.89499">
        <ele>174.62</ele>
        <time>2021-08-08T09:15:25Z</time>
      </trkpt>
      <trkpt lat="49.92614" lon="3.895">
        <ele>174.62</ele>
        <time>2021-08-08T09:15:26Z</time>
      </trkpt>
      <trkpt lat="49.92616" lon="3.89501">
        <ele>175.1</ele>
        <time>2021-08-08T09:15:27Z</time>
      </trkpt>
      <trkpt lat="49.92628" lon="3.89509">
        <ele>176.06</ele>
        <time>2021-08-08T09:15:34Z</time>
      </trkpt>
      <trkpt lat="49.92636" lon="3.89516">
        <ele>176.54</ele>
        <time>2021-08-08T09:15:38Z</time>
      </trkpt>
      <trkpt lat="49.92638" lon="3.89518">
        <ele>176.54</ele>
        <time>2021-08-08T09:15:39Z</time>
      </trkpt>
      <trkpt lat="49.92639" lon="3.89519">
        <ele>176.54</ele>
        <time>2021-08-08T09:15:40Z</time>
      </trkpt>
      <trkpt lat="49.9264" lon="3.8952">
        <ele>177.02</ele>
        <time>2021-08-08T09:15:41Z</time>
      </trkpt>
      <trkpt lat="49.92641" lon="3.89521">
        <ele>177.02</ele>
        <time>2021-08-08T09:15:42Z</time>
      </trkpt>
      <trkpt lat="49.92643" lon="3.89522">
        <ele>176.54</ele>
        <time>2021-08-08T09:15:43Z</time>
      </trkpt>
      <trkpt lat="49.92644" lon="3.89523">
        <ele>176.54</ele>
        <time>2021-08-08T09:15:44Z</time>
      </trkpt>
      <trkpt lat="49.92645" lon="3.89524">
        <ele>177.02</ele>
        <time>2021-08-08T09:15:45Z</time>
      </trkpt>
      <trkpt lat="49.92646" lon="3.89525">
        <ele>177.02</ele>
        <time>2021-08-08T09:15:46Z</time>
      </trkpt>
      <trkpt lat="49.92647" lon="3.89526">
        <ele>177.02</ele>
        <time>2021-08-08T09:15:47Z</time>
      </trkpt>
      <trkpt lat="49.92649" lon="3.89527">
        <ele>177.02</ele>
        <time>2021-08-08T09:15:48Z</time>
      </trkpt>
      <trkpt lat="49.9265" lon="3.89528">
        <ele>177.02</ele>
        <time>2021-08-08T09:15:49Z</time>
      </trkpt>
      <trkpt lat="49.92651" lon="3.89529">
        <ele>177.5</ele>
        <time>2021-08-08T09:15:50Z</time>
      </trkpt>
      <trkpt lat="49.92652" lon="3.8953">
        <ele>177.5</ele>
        <time>2021-08-08T09:15:51Z</time>
      </trkpt>
      <trkpt lat="49.92653" lon="3.89532">
        <ele>177.5</ele>
        <time>2021-08-08T09:15:52Z</time>
      </trkpt>
      <trkpt lat="49.92655" lon="3.89534">
        <ele>177.5</ele>
        <time>2021-08-08T09:15:54Z</time>
      </trkpt>
      <trkpt lat="49.92658" lon="3.89537">
        <ele>177.98</ele>
        <time>2021-08-08T09:15:57Z</time>
      </trkpt>
      <trkpt lat="49.92659" lon="3.89538">
        <ele>177.98</ele>
        <time>2021-08-08T09:15:58Z</time>
      </trkpt>
      <trkpt lat="49.92661" lon="3.89539">
        <ele>177.98</ele>
        <time>2021-08-08T09:15:59Z</time>
      </trkpt>
      <trkpt lat="49.92662" lon="3.8954">
        <ele>177.98</ele>
        <time>2021-08-08T09:16:00Z</time>
      </trkpt>
      <trkpt lat="49.92663" lon="3.89542">
        <ele>177.98</ele>
        <time>2021-08-08T09:16:01Z</time>
      </trkpt>
      <trkpt lat="49.92665" lon="3.89543">
        <ele>177.98</ele>
        <time>2021-08-08T09:16:02Z</time>
      </trkpt>
      <trkpt lat="49.92665" lon="3.89544">
        <ele>177.98</ele>
        <time>2021-08-08T09:16:03Z</time>
      </trkpt>
      <trkpt lat="49.92667" lon="3.89545">
        <ele>177.98</ele>
        <time>2021-08-08T09:16:04Z</time>
      </trkpt>
      <trkpt lat="49.92668" lon="3.89546">
        <ele>177.98</ele>
        <time>2021-08-08T09:16:05Z</time>
      </trkpt>
      <trkpt lat="49.92669" lon="3.89547">
        <ele>177.98</ele>
        <time>2021-08-08T09:16:06Z</time>
      </trkpt>
      <trkpt lat="49.9267" lon="3.89548">
        <ele>178.46</ele>
        <time>2021-08-08T09:16:07Z</time>
      </trkpt>
      <trkpt lat="49.92671" lon="3.89549">
        <ele>178.46</ele>
        <time>2021-08-08T09:16:08Z</time>
      </trkpt>
      <trkpt lat="49.92672" lon="3.8955">
        <ele>178.46</ele>
        <time>2021-08-08T09:16:09Z</time>
      </trkpt>
      <trkpt lat="49.92674" lon="3.89552">
        <ele>178.46</ele>
        <time>2021-08-08T09:16:10Z</time>
      </trkpt>
      <trkpt lat="49.92683" lon="3.89561">
        <ele>179.42</ele>
        <time>2021-08-08T09:16:19Z</time>
      </trkpt>
      <trkpt lat="49.92687" lon="3.89565">
        <ele>179.9</ele>
        <time>2021-08-08T09:16:23Z</time>
      </trkpt>
      <trkpt lat="49.92688" lon="3.89567">
        <ele>179.9</ele>
        <time>2021-08-08T09:16:24Z</time>
      </trkpt>
      <trkpt lat="49.92689" lon="3.89569">
        <ele>179.9</ele>
        <time>2021-08-08T09:16:25Z</time>
      </trkpt>
      <trkpt lat="49.9269" lon="3.89571">
        <ele>180.38</ele>
        <time>2021-08-08T09:16:26Z</time>
      </trkpt>
      <trkpt lat="49.9269" lon="3.89573">
        <ele>180.38</ele>
        <time>2021-08-08T09:16:27Z</time>
      </trkpt>
      <trkpt lat="49.92695" lon="3.89596">
        <ele>181.35</ele>
        <time>2021-08-08T09:16:36Z</time>
      </trkpt>
      <trkpt lat="49.92696" lon="3.8961">
        <ele>181.83</ele>
        <time>2021-08-08T09:16:41Z</time>
      </trkpt>
      <trkpt lat="49.92695" lon="3.89612">
        <ele>181.83</ele>
        <time>2021-08-08T09:16:42Z</time>
      </trkpt>
      <trkpt lat="49.92693" lon="3.89613">
        <ele>181.83</ele>
        <time>2021-08-08T09:16:43Z</time>
      </trkpt>
      <trkpt lat="49.92692" lon="3.89614">
        <ele>181.83</ele>
        <time>2021-08-08T09:16:44Z</time>
      </trkpt>
      <trkpt lat="49.92691" lon="3.89613">
        <ele>181.83</ele>
        <time>2021-08-08T09:16:45Z</time>
      </trkpt>
      <trkpt lat="49.92689" lon="3.89613">
        <ele>181.83</ele>
        <time>2021-08-08T09:16:46Z</time>
      </trkpt>
      <trkpt lat="49.92688" lon="3.89612">
        <ele>181.83</ele>
        <time>2021-08-08T09:16:51Z</time>
      </trkpt>
      <trkpt lat="49.92683" lon="3.89612">
        <ele>181.83</ele>
        <time>2021-08-08T09:16:59Z</time>
      </trkpt>
      <trkpt lat="49.92662" lon="3.89611">
        <ele>179.9</ele>
        <time>2021-08-08T09:17:07Z</time>
      </trkpt>
      <trkpt lat="49.92634" lon="3.89607">
        <ele>178.94</ele>
        <time>2021-08-08T09:17:15Z</time>
      </trkpt>
      <trkpt lat="49.92604" lon="3.89602">
        <ele>177.5</ele>
        <time>2021-08-08T09:17:22Z</time>
      </trkpt>
      <trkpt lat="49.926" lon="3.89601">
        <ele>177.5</ele>
        <time>2021-08-08T09:17:23Z</time>
      </trkpt>
      <trkpt lat="49.92595" lon="3.89599">
        <ele>177.5</ele>
        <time>2021-08-08T09:17:24Z</time>
      </trkpt>
      <trkpt lat="49.92591" lon="3.89597">
        <ele>177.5</ele>
        <time>2021-08-08T09:17:25Z</time>
      </trkpt>
      <trkpt lat="49.92586" lon="3.89596">
        <ele>176.06</ele>
        <time>2021-08-08T09:17:26Z</time>
      </trkpt>
      <trkpt lat="49.92581" lon="3.89595">
        <ele>176.06</ele>
        <time>2021-08-08T09:17:27Z</time>
      </trkpt>
      <trkpt lat="49.92548" lon="3.89593">
        <ele>174.62</ele>
        <time>2021-08-08T09:17:34Z</time>
      </trkpt>
      <trkpt lat="49.92532" lon="3.89593">
        <ele>174.14</ele>
        <time>2021-08-08T09:17:37Z</time>
      </trkpt>
      <trkpt lat="49.92506" lon="3.89592">
        <ele>173.66</ele>
        <time>2021-08-08T09:17:42Z</time>
      </trkpt>
      <trkpt lat="49.92503" lon="3.89593">
        <ele>173.66</ele>
        <time>2021-08-08T09:17:43Z</time>
      </trkpt>
      <trkpt lat="49.92501" lon="3.89594">
        <ele>173.66</ele>
        <time>2021-08-08T09:17:44Z</time>
      </trkpt>
      <trkpt lat="49.92499" lon="3.89594">
        <ele>173.66</ele>
        <time>2021-08-08T09:17:45Z</time>
      </trkpt>
      <trkpt lat="49.92498" lon="3.89593">
        <ele>173.66</ele>
        <time>2021-08-08T09:17:46Z</time>
      </trkpt>
      <trkpt lat="49.92496" lon="3.89593">
        <ele>173.66</ele>
        <time>2021-08-08T09:17:47Z</time>
      </trkpt>
      <trkpt lat="49.92484" lon="3.89593">
        <ele>173.17</ele>
        <time>2021-08-08T09:17:53Z</time>
      </trkpt>
      <trkpt lat="49.92471" lon="3.89599">
        <ele>172.69</ele>
        <time>2021-08-08T09:17:59Z</time>
      </trkpt>
      <trkpt lat="49.92464" lon="3.89599">
        <ele>172.69</ele>
        <time>2021-08-08T09:18:03Z</time>
      </trkpt>
      <trkpt lat="49.92462" lon="3.89598">
        <ele>172.69</ele>
        <time>2021-08-08T09:18:05Z</time>
      </trkpt>
      <trkpt lat="49.9246" lon="3.89599">
        <ele>172.21</ele>
        <time>2021-08-08T09:18:06Z</time>
      </trkpt>
      <trkpt lat="49.92459" lon="3.89599">
        <ele>172.21</ele>
        <time>2021-08-08T09:18:07Z</time>
      </trkpt>
      <trkpt lat="49.92447" lon="3.89596">
        <ele>171.73</ele>
        <time>2021-08-08T09:18:14Z</time>
      </trkpt>
      <trkpt lat="49.92439" lon="3.89596">
        <ele>171.73</ele>
        <time>2021-08-08T09:18:20Z</time>
      </trkpt>
      <trkpt lat="49.92437" lon="3.89596">
        <ele>171.73</ele>
        <time>2021-08-08T09:18:22Z</time>
      </trkpt>
      <trkpt lat="49.92435" lon="3.89596">
        <ele>171.73</ele>
        <time>2021-08-08T09:18:23Z</time>
      </trkpt>
      <trkpt lat="49.92429" lon="3.89595">
        <ele>171.25</ele>
        <time>2021-08-08T09:18:29Z</time>
      </trkpt>
      <trkpt lat="49.92428" lon="3.89594">
        <ele>171.73</ele>
        <time>2021-08-08T09:18:34Z</time>
      </trkpt>
      <trkpt lat="49.92426" lon="3.89592">
        <ele>171.73</ele>
        <time>2021-08-08T09:18:41Z</time>
      </trkpt>
      <trkpt lat="49.92414" lon="3.8959">
        <ele>171.25</ele>
        <time>2021-08-08T09:18:48Z</time>
      </trkpt>
      <trkpt lat="49.92411" lon="3.89587">
        <ele>171.25</ele>
        <time>2021-08-08T09:18:50Z</time>
      </trkpt>
      <trkpt lat="49.92408" lon="3.89586">
        <ele>171.25</ele>
        <time>2021-08-08T09:18:51Z</time>
      </trkpt>
      <trkpt lat="49.92401" lon="3.89581">
        <ele>171.25</ele>
        <time>2021-08-08T09:18:55Z</time>
      </trkpt>
      <trkpt lat="49.924" lon="3.89579">
        <ele>171.25</ele>
        <time>2021-08-08T09:18:56Z</time>
      </trkpt>
      <trkpt lat="49.92399" lon="3.89576">
        <ele>171.25</ele>
        <time>2021-08-08T09:18:57Z</time>
      </trkpt>
      <trkpt lat="49.92397" lon="3.89573">
        <ele>171.25</ele>
        <time>2021-08-08T09:18:58Z</time>
      </trkpt>
      <trkpt lat="49.92396" lon="3.8957">
        <ele>170.77</ele>
        <time>2021-08-08T09:18:59Z</time>
      </trkpt>
      <trkpt lat="49.92381" lon="3.89543">
        <ele>169.33</ele>
        <time>2021-08-08T09:19:06Z</time>
      </trkpt>
      <trkpt lat="49.92379" lon="3.89542">
        <ele>168.85</ele>
        <time>2021-08-08T09:19:07Z</time>
      </trkpt>
      <trkpt lat="49.92375" lon="3.8954">
        <ele>168.85</ele>
        <time>2021-08-08T09:19:08Z</time>
      </trkpt>
      <trkpt lat="49.92371" lon="3.89539">
        <ele>168.37</ele>
        <time>2021-08-08T09:19:09Z</time>
      </trkpt>
      <trkpt lat="49.92365" lon="3.89539">
        <ele>168.37</ele>
        <time>2021-08-08T09:19:10Z</time>
      </trkpt>
      <trkpt lat="49.92361" lon="3.8954">
        <ele>167.89</ele>
        <time>2021-08-08T09:19:11Z</time>
      </trkpt>
      <trkpt lat="49.92357" lon="3.8954">
        <ele>167.89</ele>
        <time>2021-08-08T09:19:12Z</time>
      </trkpt>
      <trkpt lat="49.92353" lon="3.8954">
        <ele>167.41</ele>
        <time>2021-08-08T09:19:13Z</time>
      </trkpt>
      <trkpt lat="49.92337" lon="3.89543">
        <ele>166.93</ele>
        <time>2021-08-08T09:19:18Z</time>
      </trkpt>
      <trkpt lat="49.92323" lon="3.89547">
        <ele>166.93</ele>
        <time>2021-08-08T09:19:25Z</time>
      </trkpt>
      <trkpt lat="49.92303" lon="3.89552">
        <ele>165.48</ele>
        <time>2021-08-08T09:19:31Z</time>
      </trkpt>
      <trkpt lat="49.92281" lon="3.89554">
        <ele>165.48</ele>
        <time>2021-08-08T09:19:38Z</time>
      </trkpt>
      <trkpt lat="49.92262" lon="3.89558">
        <ele>164.52</ele>
        <time>2021-08-08T09:19:45Z</time>
      </trkpt>
      <trkpt lat="49.92246" lon="3.89562">
        <ele>165</ele>
        <time>2021-08-08T09:19:52Z</time>
      </trkpt>
      <trkpt lat="49.92234" lon="3.89565">
        <ele>164.52</ele>
        <time>2021-08-08T09:19:58Z</time>
      </trkpt>
      <trkpt lat="49.9222" lon="3.89567">
        <ele>164.52</ele>
        <time>2021-08-08T09:20:04Z</time>
      </trkpt>
      <trkpt lat="49.92205" lon="3.89571">
        <ele>164.04</ele>
        <time>2021-08-08T09:20:10Z</time>
      </trkpt>
      <trkpt lat="49.92188" lon="3.89574">
        <ele>163.56</ele>
        <time>2021-08-08T09:20:17Z</time>
      </trkpt>
      <trkpt lat="49.9217" lon="3.89578">
        <ele>163.08</ele>
        <time>2021-08-08T09:20:24Z</time>
      </trkpt>
      <trkpt lat="49.92154" lon="3.89582">
        <ele>163.08</ele>
        <time>2021-08-08T09:20:30Z</time>
      </trkpt>
      <trkpt lat="49.92136" lon="3.89585">
        <ele>162.6</ele>
        <time>2021-08-08T09:20:37Z</time>
      </trkpt>
      <trkpt lat="49.92116" lon="3.89593">
        <ele>162.6</ele>
        <time>2021-08-08T09:20:45Z</time>
      </trkpt>
      <trkpt lat="49.92089" lon="3.89614">
        <ele>161.64</ele>
        <time>2021-08-08T09:20:52Z</time>
      </trkpt>
      <trkpt lat="49.92072" lon="3.8963">
        <ele>161.16</ele>
        <time>2021-08-08T09:20:57Z</time>
      </trkpt>
      <trkpt lat="49.92068" lon="3.89635">
        <ele>161.16</ele>
        <time>2021-08-08T09:20:58Z</time>
      </trkpt>
      <trkpt lat="49.92046" lon="3.89657">
        <ele>161.16</ele>
        <time>2021-08-08T09:21:05Z</time>
      </trkpt>
      <trkpt lat="49.92018" lon="3.89685">
        <ele>160.2</ele>
        <time>2021-08-08T09:21:13Z</time>
      </trkpt>
      <trkpt lat="49.9199" lon="3.89708">
        <ele>158.75</ele>
        <time>2021-08-08T09:21:20Z</time>
      </trkpt>
      <trkpt lat="49.91985" lon="3.8971">
        <ele>157.79</ele>
        <time>2021-08-08T09:21:21Z</time>
      </trkpt>
      <trkpt lat="49.91947" lon="3.89724">
        <ele>154.91</ele>
        <time>2021-08-08T09:21:28Z</time>
      </trkpt>
      <trkpt lat="49.91936" lon="3.89724">
        <ele>153.95</ele>
        <time>2021-08-08T09:21:30Z</time>
      </trkpt>
      <trkpt lat="49.91931" lon="3.89723">
        <ele>153.47</ele>
        <time>2021-08-08T09:21:31Z</time>
      </trkpt>
      <trkpt lat="49.91918" lon="3.89717">
        <ele>151.06</ele>
        <time>2021-08-08T09:21:34Z</time>
      </trkpt>
      <trkpt lat="49.91913" lon="3.89713">
        <ele>151.06</ele>
        <time>2021-08-08T09:21:35Z</time>
      </trkpt>
      <trkpt lat="49.919" lon="3.89701">
        <ele>148.66</ele>
        <time>2021-08-08T09:21:39Z</time>
      </trkpt>
      <trkpt lat="49.9189" lon="3.89693">
        <ele>147.7</ele>
        <time>2021-08-08T09:21:42Z</time>
      </trkpt>
      <trkpt lat="49.91885" lon="3.8969">
        <ele>146.74</ele>
        <time>2021-08-08T09:21:43Z</time>
      </trkpt>
      <trkpt lat="49.91874" lon="3.89685">
        <ele>145.78</ele>
        <time>2021-08-08T09:21:45Z</time>
      </trkpt>
      <trkpt lat="49.91868" lon="3.89681">
        <ele>145.3</ele>
        <time>2021-08-08T09:21:46Z</time>
      </trkpt>
      <trkpt lat="49.91863" lon="3.89679">
        <ele>144.82</ele>
        <time>2021-08-08T09:21:47Z</time>
      </trkpt>
      <trkpt lat="49.91837" lon="3.89672">
        <ele>142.41</ele>
        <time>2021-08-08T09:21:51Z</time>
      </trkpt>
      <trkpt lat="49.91829" lon="3.89672">
        <ele>141.93</ele>
        <time>2021-08-08T09:21:52Z</time>
      </trkpt>
      <trkpt lat="49.91823" lon="3.89674">
        <ele>141.45</ele>
        <time>2021-08-08T09:21:53Z</time>
      </trkpt>
      <trkpt lat="49.91817" lon="3.89676">
        <ele>140.97</ele>
        <time>2021-08-08T09:21:54Z</time>
      </trkpt>
      <trkpt lat="49.91811" lon="3.89679">
        <ele>140.01</ele>
        <time>2021-08-08T09:21:55Z</time>
      </trkpt>
      <trkpt lat="49.91793" lon="3.89688">
        <ele>138.09</ele>
        <time>2021-08-08T09:21:58Z</time>
      </trkpt>
      <trkpt lat="49.91783" lon="3.89692">
        <ele>137.61</ele>
        <time>2021-08-08T09:22:00Z</time>
      </trkpt>
      <trkpt lat="49.91769" lon="3.89688">
        <ele>136.16</ele>
        <time>2021-08-08T09:22:04Z</time>
      </trkpt>
      <trkpt lat="49.91764" lon="3.89678">
        <ele>135.2</ele>
        <time>2021-08-08T09:22:06Z</time>
      </trkpt>
      <trkpt lat="49.9176" lon="3.8967">
        <ele>134.24</ele>
        <time>2021-08-08T09:22:07Z</time>
      </trkpt>
      <trkpt lat="49.9175" lon="3.89646">
        <ele>131.84</ele>
        <time>2021-08-08T09:22:10Z</time>
      </trkpt>
      <trkpt lat="49.91746" lon="3.89639">
        <ele>130.88</ele>
        <time>2021-08-08T09:22:11Z</time>
      </trkpt>
      <trkpt lat="49.91741" lon="3.89635">
        <ele>130.4</ele>
        <time>2021-08-08T09:22:12Z</time>
      </trkpt>
      <trkpt lat="49.91736" lon="3.89631">
        <ele>130.4</ele>
        <time>2021-08-08T09:22:13Z</time>
      </trkpt>
      <trkpt lat="49.91731" lon="3.89627">
        <ele>129.92</ele>
        <time>2021-08-08T09:22:14Z</time>
      </trkpt>
      <trkpt lat="49.91725" lon="3.89622">
        <ele>129.92</ele>
        <time>2021-08-08T09:22:15Z</time>
      </trkpt>
      <trkpt lat="49.9172" lon="3.89616">
        <ele>129.92</ele>
        <time>2021-08-08T09:22:16Z</time>
      </trkpt>
      <trkpt lat="49.917" lon="3.89596">
        <ele>128.95</ele>
        <time>2021-08-08T09:22:21Z</time>
      </trkpt>
      <trkpt lat="49.91685" lon="3.89601">
        <ele>128.95</ele>
        <time>2021-08-08T09:22:26Z</time>
      </trkpt>
      <trkpt lat="49.91666" lon="3.89612">
        <ele>130.4</ele>
        <time>2021-08-08T09:22:33Z</time>
      </trkpt>
      <trkpt lat="49.91665" lon="3.89614">
        <ele>130.88</ele>
        <time>2021-08-08T09:22:37Z</time>
      </trkpt>
      <trkpt lat="49.91664" lon="3.89612">
        <ele>130.88</ele>
        <time>2021-08-08T09:23:02Z</time>
      </trkpt>
      <trkpt lat="49.91665" lon="3.89612">
        <ele>130.88</ele>
        <time>2021-08-08T09:23:27Z</time>
      </trkpt>
      <trkpt lat="49.91661" lon="3.89611">
        <ele>130.88</ele>
        <time>2021-08-08T09:23:33Z</time>
      </trkpt>
      <trkpt lat="49.91662" lon="3.89612">
        <ele>130.88</ele>
        <time>2021-08-08T09:23:39Z</time>
      </trkpt>
      <trkpt lat="49.91655" lon="3.89616">
        <ele>130.88</ele>
        <time>2021-08-08T09:23:44Z</time>
      </trkpt>
      <trkpt lat="49.91635" lon="3.89622">
        <ele>130.88</ele>
        <time>2021-08-08T09:23:52Z</time>
      </trkpt>
      <trkpt lat="49.91612" lon="3.89619">
        <ele>131.36</ele>
        <time>2021-08-08T09:24:00Z</time>
      </trkpt>
      <trkpt lat="49.91598" lon="3.89617">
        <ele>132.32</ele>
        <time>2021-08-08T09:24:06Z</time>
      </trkpt>
      <trkpt lat="49.91584" lon="3.89621">
        <ele>134.24</ele>
        <time>2021-08-08T09:24:13Z</time>
      </trkpt>
      <trkpt lat="49.91573" lon="3.89636">
        <ele>136.64</ele>
        <time>2021-08-08T09:24:22Z</time>
      </trkpt>
      <trkpt lat="49.91569" lon="3.8965">
        <ele>138.09</ele>
        <time>2021-08-08T09:24:29Z</time>
      </trkpt>
      <trkpt lat="49.91569" lon="3.89652">
        <ele>138.09</ele>
        <time>2021-08-08T09:24:30Z</time>
      </trkpt>
      <trkpt lat="49.91569" lon="3.89654">
        <ele>138.57</ele>
        <time>2021-08-08T09:24:31Z</time>
      </trkpt>
      <trkpt lat="49.91569" lon="3.89656">
        <ele>138.57</ele>
        <time>2021-08-08T09:24:32Z</time>
      </trkpt>
      <trkpt lat="49.91568" lon="3.89658">
        <ele>138.57</ele>
        <time>2021-08-08T09:24:33Z</time>
      </trkpt>
      <trkpt lat="49.91567" lon="3.8966">
        <ele>139.05</ele>
        <time>2021-08-08T09:24:34Z</time>
      </trkpt>
      <trkpt lat="49.91567" lon="3.89662">
        <ele>139.05</ele>
        <time>2021-08-08T09:24:35Z</time>
      </trkpt>
      <trkpt lat="49.91567" lon="3.89664">
        <ele>139.05</ele>
        <time>2021-08-08T09:24:36Z</time>
      </trkpt>
      <trkpt lat="49.91566" lon="3.89666">
        <ele>139.53</ele>
        <time>2021-08-08T09:24:37Z</time>
      </trkpt>
      <trkpt lat="49.91566" lon="3.89668">
        <ele>139.53</ele>
        <time>2021-08-08T09:24:38Z</time>
      </trkpt>
      <trkpt lat="49.91566" lon="3.89673">
        <ele>140.01</ele>
        <time>2021-08-08T09:24:40Z</time>
      </trkpt>
      <trkpt lat="49.91565" lon="3.89675">
        <ele>140.01</ele>
        <time>2021-08-08T09:24:41Z</time>
      </trkpt>
      <trkpt lat="49.91565" lon="3.89678">
        <ele>140.49</ele>
        <time>2021-08-08T09:24:42Z</time>
      </trkpt>
      <trkpt lat="49.91561" lon="3.89701">
        <ele>141.93</ele>
        <time>2021-08-08T09:24:52Z</time>
      </trkpt>
      <trkpt lat="49.91557" lon="3.8972">
        <ele>143.85</ele>
        <time>2021-08-08T09:25:01Z</time>
      </trkpt>
      <trkpt lat="49.91554" lon="3.8973">
        <ele>144.82</ele>
        <time>2021-08-08T09:25:07Z</time>
      </trkpt>
      <trkpt lat="49.9155" lon="3.89743">
        <ele>145.78</ele>
        <time>2021-08-08T09:25:14Z</time>
      </trkpt>
      <trkpt lat="49.9154" lon="3.89761">
        <ele>147.22</ele>
        <time>2021-08-08T09:25:24Z</time>
      </trkpt>
      <trkpt lat="49.91528" lon="3.89775">
        <ele>148.66</ele>
        <time>2021-08-08T09:25:32Z</time>
      </trkpt>
      <trkpt lat="49.91512" lon="3.89789">
        <ele>149.62</ele>
        <time>2021-08-08T09:25:38Z</time>
      </trkpt>
      <trkpt lat="49.91496" lon="3.89797">
        <ele>150.58</ele>
        <time>2021-08-08T09:25:43Z</time>
      </trkpt>
      <trkpt lat="49.91472" lon="3.89805">
        <ele>150.58</ele>
        <time>2021-08-08T09:25:52Z</time>
      </trkpt>
      <trkpt lat="49.91453" lon="3.89813">
        <ele>150.58</ele>
        <time>2021-08-08T09:25:59Z</time>
      </trkpt>
      <trkpt lat="49.91447" lon="3.89815">
        <ele>151.06</ele>
        <time>2021-08-08T09:26:02Z</time>
      </trkpt>
      <trkpt lat="49.91446" lon="3.89814">
        <ele>151.06</ele>
        <time>2021-08-08T09:26:03Z</time>
      </trkpt>
      <trkpt lat="49.91444" lon="3.89813">
        <ele>151.06</ele>
        <time>2021-08-08T09:26:04Z</time>
      </trkpt>
      <trkpt lat="49.91443" lon="3.89811">
        <ele>151.06</ele>
        <time>2021-08-08T09:26:05Z</time>
      </trkpt>
      <trkpt lat="49.91441" lon="3.89809">
        <ele>151.06</ele>
        <time>2021-08-08T09:26:06Z</time>
      </trkpt>
      <trkpt lat="49.91439" lon="3.89807">
        <ele>151.06</ele>
        <time>2021-08-08T09:26:07Z</time>
      </trkpt>
      <trkpt lat="49.91437" lon="3.89804">
        <ele>151.06</ele>
        <time>2021-08-08T09:26:08Z</time>
      </trkpt>
      <trkpt lat="49.91435" lon="3.89801">
        <ele>151.06</ele>
        <time>2021-08-08T09:26:09Z</time>
      </trkpt>
      <trkpt lat="49.91432" lon="3.89798">
        <ele>151.06</ele>
        <time>2021-08-08T09:26:10Z</time>
      </trkpt>
      <trkpt lat="49.91405" lon="3.89778">
        <ele>151.06</ele>
        <time>2021-08-08T09:26:18Z</time>
      </trkpt>
      <trkpt lat="49.91366" lon="3.89758">
        <ele>151.06</ele>
        <time>2021-08-08T09:26:28Z</time>
      </trkpt>
      <trkpt lat="49.91321" lon="3.89737">
        <ele>149.62</ele>
        <time>2021-08-08T09:26:38Z</time>
      </trkpt>
      <trkpt lat="49.91316" lon="3.89734">
        <ele>149.62</ele>
        <time>2021-08-08T09:26:39Z</time>
      </trkpt>
      <trkpt lat="49.9127" lon="3.89709">
        <ele>147.7</ele>
        <time>2021-08-08T09:26:48Z</time>
      </trkpt>
      <trkpt lat="49.91234" lon="3.89685">
        <ele>146.74</ele>
        <time>2021-08-08T09:26:55Z</time>
      </trkpt>
      <trkpt lat="49.91224" lon="3.89677">
        <ele>146.74</ele>
        <time>2021-08-08T09:26:57Z</time>
      </trkpt>
      <trkpt lat="49.9122" lon="3.89671">
        <ele>146.74</ele>
        <time>2021-08-08T09:26:58Z</time>
      </trkpt>
      <trkpt lat="49.91216" lon="3.89664">
        <ele>146.74</ele>
        <time>2021-08-08T09:26:59Z</time>
      </trkpt>
      <trkpt lat="49.91212" lon="3.89657">
        <ele>145.78</ele>
        <time>2021-08-08T09:27:00Z</time>
      </trkpt>
      <trkpt lat="49.91208" lon="3.89648">
        <ele>145.78</ele>
        <time>2021-08-08T09:27:01Z</time>
      </trkpt>
      <trkpt lat="49.91205" lon="3.89639">
        <ele>145.3</ele>
        <time>2021-08-08T09:27:02Z</time>
      </trkpt>
      <trkpt lat="49.91182" lon="3.8958">
        <ele>142.89</ele>
        <time>2021-08-08T09:27:08Z</time>
      </trkpt>
      <trkpt lat="49.91167" lon="3.89547">
        <ele>140.01</ele>
        <time>2021-08-08T09:27:11Z</time>
      </trkpt>
      <trkpt lat="49.91161" lon="3.89538">
        <ele>139.05</ele>
        <time>2021-08-08T09:27:12Z</time>
      </trkpt>
      <trkpt lat="49.91155" lon="3.89531">
        <ele>138.57</ele>
        <time>2021-08-08T09:27:13Z</time>
      </trkpt>
      <trkpt lat="49.91147" lon="3.89525">
        <ele>138.09</ele>
        <time>2021-08-08T09:27:14Z</time>
      </trkpt>
      <trkpt lat="49.91138" lon="3.89522">
        <ele>138.09</ele>
        <time>2021-08-08T09:27:15Z</time>
      </trkpt>
      <trkpt lat="49.91129" lon="3.89522">
        <ele>137.13</ele>
        <time>2021-08-08T09:27:16Z</time>
      </trkpt>
      <trkpt lat="49.9112" lon="3.89524">
        <ele>135.68</ele>
        <time>2021-08-08T09:27:17Z</time>
      </trkpt>
      <trkpt lat="49.91111" lon="3.89528">
        <ele>134.72</ele>
        <time>2021-08-08T09:27:18Z</time>
      </trkpt>
      <trkpt lat="49.91101" lon="3.89532">
        <ele>134.72</ele>
        <time>2021-08-08T09:27:19Z</time>
      </trkpt>
      <trkpt lat="49.91076" lon="3.89539">
        <ele>132.32</ele>
        <time>2021-08-08T09:27:22Z</time>
      </trkpt>
      <trkpt lat="49.91067" lon="3.89538">
        <ele>131.84</ele>
        <time>2021-08-08T09:27:23Z</time>
      </trkpt>
      <trkpt lat="49.91058" lon="3.89536">
        <ele>131.84</ele>
        <time>2021-08-08T09:27:24Z</time>
      </trkpt>
      <trkpt lat="49.91049" lon="3.89531">
        <ele>131.84</ele>
        <time>2021-08-08T09:27:25Z</time>
      </trkpt>
      <trkpt lat="49.91041" lon="3.89527">
        <ele>130.88</ele>
        <time>2021-08-08T09:27:26Z</time>
      </trkpt>
      <trkpt lat="49.90978" lon="3.89501">
        <ele>127.51</ele>
        <time>2021-08-08T09:27:33Z</time>
      </trkpt>
      <trkpt lat="49.90969" lon="3.89498">
        <ele>127.51</ele>
        <time>2021-08-08T09:27:34Z</time>
      </trkpt>
      <trkpt lat="49.90902" lon="3.89477">
        <ele>125.11</ele>
        <time>2021-08-08T09:27:42Z</time>
      </trkpt>
      <trkpt lat="49.90849" lon="3.89469">
        <ele>124.15</ele>
        <time>2021-08-08T09:27:49Z</time>
      </trkpt>
      <trkpt lat="49.90818" lon="3.89463">
        <ele>124.15</ele>
        <time>2021-08-08T09:27:54Z</time>
      </trkpt>
      <trkpt lat="49.90806" lon="3.89461">
        <ele>124.15</ele>
        <time>2021-08-08T09:27:56Z</time>
      </trkpt>
      <trkpt lat="49.90792" lon="3.89456">
        <ele>124.15</ele>
        <time>2021-08-08T09:27:59Z</time>
      </trkpt>
      <trkpt lat="49.90779" lon="3.89448">
        <ele>123.67</ele>
        <time>2021-08-08T09:28:02Z</time>
      </trkpt>
      <trkpt lat="49.90775" lon="3.89443">
        <ele>123.67</ele>
        <time>2021-08-08T09:28:03Z</time>
      </trkpt>
      <trkpt lat="49.90771" lon="3.89437">
        <ele>123.67</ele>
        <time>2021-08-08T09:28:04Z</time>
      </trkpt>
      <trkpt lat="49.90767" lon="3.8943">
        <ele>123.67</ele>
        <time>2021-08-08T09:28:05Z</time>
      </trkpt>
      <trkpt lat="49.90765" lon="3.89421">
        <ele>123.67</ele>
        <time>2021-08-08T09:28:06Z</time>
      </trkpt>
      <trkpt lat="49.90763" lon="3.89413">
        <ele>123.67</ele>
        <time>2021-08-08T09:28:07Z</time>
      </trkpt>
      <trkpt lat="49.90762" lon="3.89404">
        <ele>123.67</ele>
        <time>2021-08-08T09:28:08Z</time>
      </trkpt>
      <trkpt lat="49.90761" lon="3.89395">
        <ele>122.22</ele>
        <time>2021-08-08T09:28:09Z</time>
      </trkpt>
      <trkpt lat="49.9076" lon="3.89386">
        <ele>122.22</ele>
        <time>2021-08-08T09:28:10Z</time>
      </trkpt>
      <trkpt lat="49.90753" lon="3.89312">
        <ele>123.67</ele>
        <time>2021-08-08T09:28:19Z</time>
      </trkpt>
      <trkpt lat="49.90749" lon="3.89259">
        <ele>123.67</ele>
        <time>2021-08-08T09:28:26Z</time>
      </trkpt>
      <trkpt lat="49.90748" lon="3.8925">
        <ele>122.22</ele>
        <time>2021-08-08T09:28:27Z</time>
      </trkpt>
      <trkpt lat="49.90747" lon="3.89241">
        <ele>122.22</ele>
        <time>2021-08-08T09:28:28Z</time>
      </trkpt>
      <trkpt lat="49.90746" lon="3.89232">
        <ele>122.22</ele>
        <time>2021-08-08T09:28:29Z</time>
      </trkpt>
      <trkpt lat="49.90747" lon="3.89195">
        <ele>123.19</ele>
        <time>2021-08-08T09:28:35Z</time>
      </trkpt>
      <trkpt lat="49.90749" lon="3.89192">
        <ele>123.19</ele>
        <time>2021-08-08T09:28:36Z</time>
      </trkpt>
      <trkpt lat="49.90752" lon="3.89192">
        <ele>123.19</ele>
        <time>2021-08-08T09:28:37Z</time>
      </trkpt>
      <trkpt lat="49.90756" lon="3.89194">
        <ele>123.19</ele>
        <time>2021-08-08T09:28:38Z</time>
      </trkpt>
      <trkpt lat="49.90759" lon="3.89196">
        <ele>123.19</ele>
        <time>2021-08-08T09:28:39Z</time>
      </trkpt>
      <trkpt lat="49.90789" lon="3.89207">
        <ele>123.67</ele>
        <time>2021-08-08T09:28:46Z</time>
      </trkpt>
      <trkpt lat="49.90829" lon="3.8922">
        <ele>123.19</ele>
        <time>2021-08-08T09:28:54Z</time>
      </trkpt>
      <trkpt lat="49.90866" lon="3.89225">
        <ele>123.67</ele>
        <time>2021-08-08T09:29:02Z</time>
      </trkpt>
      <trkpt lat="49.90884" lon="3.89221">
        <ele>124.15</ele>
        <time>2021-08-08T09:29:06Z</time>
      </trkpt>
      <trkpt lat="49.90887" lon="3.89219">
        <ele>124.15</ele>
        <time>2021-08-08T09:29:07Z</time>
      </trkpt>
      <trkpt lat="49.90892" lon="3.89216">
        <ele>124.15</ele>
        <time>2021-08-08T09:29:08Z</time>
      </trkpt>
      <trkpt lat="49.90927" lon="3.89197">
        <ele>125.59</ele>
        <time>2021-08-08T09:29:17Z</time>
      </trkpt>
      <trkpt lat="49.90956" lon="3.89182">
        <ele>126.07</ele>
        <time>2021-08-08T09:29:25Z</time>
      </trkpt>
      <trkpt lat="49.9096" lon="3.89181">
        <ele>126.07</ele>
        <time>2021-08-08T09:29:26Z</time>
      </trkpt>
      <trkpt lat="49.90977" lon="3.89177">
        <ele>126.55</ele>
        <time>2021-08-08T09:29:30Z</time>
      </trkpt>
      <trkpt lat="49.91011" lon="3.89173">
        <ele>127.03</ele>
        <time>2021-08-08T09:29:38Z</time>
      </trkpt>
      <trkpt lat="49.91015" lon="3.89172">
        <ele>127.03</ele>
        <time>2021-08-08T09:29:39Z</time>
      </trkpt>
      <trkpt lat="49.91053" lon="3.89143">
        <ele>127.99</ele>
        <time>2021-08-08T09:29:49Z</time>
      </trkpt>
      <trkpt lat="49.91056" lon="3.89138">
        <ele>127.99</ele>
        <time>2021-08-08T09:29:50Z</time>
      </trkpt>
      <trkpt lat="49.91086" lon="3.89096">
        <ele>129.92</ele>
        <time>2021-08-08T09:30:00Z</time>
      </trkpt>
      <trkpt lat="49.91107" lon="3.89093">
        <ele>130.4</ele>
        <time>2021-08-08T09:30:06Z</time>
      </trkpt>
      <trkpt lat="49.91131" lon="3.8909">
        <ele>131.36</ele>
        <time>2021-08-08T09:30:13Z</time>
      </trkpt>
      <trkpt lat="49.91166" lon="3.89086">
        <ele>133.28</ele>
        <time>2021-08-08T09:30:24Z</time>
      </trkpt>
      <trkpt lat="49.91184" lon="3.89071">
        <ele>135.2</ele>
        <time>2021-08-08T09:30:33Z</time>
      </trkpt>
      <trkpt lat="49.91193" lon="3.89045">
        <ele>136.64</ele>
        <time>2021-08-08T09:30:42Z</time>
      </trkpt>
      <trkpt lat="49.91198" lon="3.89016">
        <ele>139.05</ele>
        <time>2021-08-08T09:30:51Z</time>
      </trkpt>
      <trkpt lat="49.91202" lon="3.88987">
        <ele>139.53</ele>
        <time>2021-08-08T09:31:00Z</time>
      </trkpt>
      <trkpt lat="49.91203" lon="3.88955">
        <ele>141.45</ele>
        <time>2021-08-08T09:31:10Z</time>
      </trkpt>
      <trkpt lat="49.91204" lon="3.88931">
        <ele>142.89</ele>
        <time>2021-08-08T09:31:18Z</time>
      </trkpt>
      <trkpt lat="49.9121" lon="3.88904">
        <ele>144.34</ele>
        <time>2021-08-08T09:31:27Z</time>
      </trkpt>
      <trkpt lat="49.91216" lon="3.88883">
        <ele>145.3</ele>
        <time>2021-08-08T09:31:35Z</time>
      </trkpt>
      <trkpt lat="49.91222" lon="3.88858">
        <ele>147.22</ele>
        <time>2021-08-08T09:31:44Z</time>
      </trkpt>
      <trkpt lat="49.91229" lon="3.88838">
        <ele>148.18</ele>
        <time>2021-08-08T09:31:52Z</time>
      </trkpt>
      <trkpt lat="49.91238" lon="3.88813">
        <ele>150.1</ele>
        <time>2021-08-08T09:32:01Z</time>
      </trkpt>
      <trkpt lat="49.91255" lon="3.88793">
        <ele>150.58</ele>
        <time>2021-08-08T09:32:10Z</time>
      </trkpt>
      <trkpt lat="49.9128" lon="3.88774">
        <ele>152.51</ele>
        <time>2021-08-08T09:32:20Z</time>
      </trkpt>
      <trkpt lat="49.91293" lon="3.88749">
        <ele>152.99</ele>
        <time>2021-08-08T09:32:27Z</time>
      </trkpt>
      <trkpt lat="49.91292" lon="3.88713">
        <ele>152.99</ele>
        <time>2021-08-08T09:32:34Z</time>
      </trkpt>
      <trkpt lat="49.91282" lon="3.88661">
        <ele>152.99</ele>
        <time>2021-08-08T09:32:43Z</time>
      </trkpt>
      <trkpt lat="49.91279" lon="3.88642">
        <ele>152.99</ele>
        <time>2021-08-08T09:32:46Z</time>
      </trkpt>
      <trkpt lat="49.91279" lon="3.88629">
        <ele>152.03</ele>
        <time>2021-08-08T09:32:48Z</time>
      </trkpt>
      <trkpt lat="49.9128" lon="3.88623">
        <ele>152.03</ele>
        <time>2021-08-08T09:32:49Z</time>
      </trkpt>
      <trkpt lat="49.91281" lon="3.88617">
        <ele>152.03</ele>
        <time>2021-08-08T09:32:50Z</time>
      </trkpt>
      <trkpt lat="49.91283" lon="3.8861">
        <ele>152.03</ele>
        <time>2021-08-08T09:32:51Z</time>
      </trkpt>
      <trkpt lat="49.91284" lon="3.88605">
        <ele>152.03</ele>
        <time>2021-08-08T09:32:52Z</time>
      </trkpt>
      <trkpt lat="49.91286" lon="3.886">
        <ele>152.03</ele>
        <time>2021-08-08T09:32:53Z</time>
      </trkpt>
      <trkpt lat="49.91289" lon="3.88594">
        <ele>152.03</ele>
        <time>2021-08-08T09:32:54Z</time>
      </trkpt>
      <trkpt lat="49.91299" lon="3.88573">
        <ele>153.47</ele>
        <time>2021-08-08T09:32:58Z</time>
      </trkpt>
      <trkpt lat="49.91302" lon="3.88569">
        <ele>154.43</ele>
        <time>2021-08-08T09:32:59Z</time>
      </trkpt>
      <trkpt lat="49.91329" lon="3.88518">
        <ele>153.95</ele>
        <time>2021-08-08T09:33:10Z</time>
      </trkpt>
      <trkpt lat="49.91343" lon="3.88473">
        <ele>154.43</ele>
        <time>2021-08-08T09:33:19Z</time>
      </trkpt>
      <trkpt lat="49.91345" lon="3.88447">
        <ele>155.39</ele>
        <time>2021-08-08T09:33:24Z</time>
      </trkpt>
      <trkpt lat="49.9134" lon="3.88421">
        <ele>155.87</ele>
        <time>2021-08-08T09:33:29Z</time>
      </trkpt>
      <trkpt lat="49.91324" lon="3.88409">
        <ele>156.83</ele>
        <time>2021-08-08T09:33:34Z</time>
      </trkpt>
      <trkpt lat="49.91297" lon="3.88402">
        <ele>156.83</ele>
        <time>2021-08-08T09:33:41Z</time>
      </trkpt>
      <trkpt lat="49.91293" lon="3.884">
        <ele>156.83</ele>
        <time>2021-08-08T09:33:42Z</time>
      </trkpt>
      <trkpt lat="49.91289" lon="3.88397">
        <ele>156.83</ele>
        <time>2021-08-08T09:33:43Z</time>
      </trkpt>
      <trkpt lat="49.91286" lon="3.88394">
        <ele>156.83</ele>
        <time>2021-08-08T09:33:44Z</time>
      </trkpt>
      <trkpt lat="49.91283" lon="3.8839">
        <ele>156.83</ele>
        <time>2021-08-08T09:33:45Z</time>
      </trkpt>
      <trkpt lat="49.9128" lon="3.88385">
        <ele>156.83</ele>
        <time>2021-08-08T09:33:46Z</time>
      </trkpt>
      <trkpt lat="49.91278" lon="3.88379">
        <ele>157.31</ele>
        <time>2021-08-08T09:33:47Z</time>
      </trkpt>
      <trkpt lat="49.91276" lon="3.88373">
        <ele>157.31</ele>
        <time>2021-08-08T09:33:48Z</time>
      </trkpt>
      <trkpt lat="49.91275" lon="3.88367">
        <ele>157.31</ele>
        <time>2021-08-08T09:33:49Z</time>
      </trkpt>
      <trkpt lat="49.91265" lon="3.88326">
        <ele>157.31</ele>
        <time>2021-08-08T09:33:55Z</time>
      </trkpt>
      <trkpt lat="49.91247" lon="3.88255">
        <ele>154.91</ele>
        <time>2021-08-08T09:34:05Z</time>
      </trkpt>
      <trkpt lat="49.91219" lon="3.88176">
        <ele>153.95</ele>
        <time>2021-08-08T09:34:16Z</time>
      </trkpt>
      <trkpt lat="49.91209" lon="3.88123">
        <ele>153.95</ele>
        <time>2021-08-08T09:34:23Z</time>
      </trkpt>
      <trkpt lat="49.91203" lon="3.8805">
        <ele>155.39</ele>
        <time>2021-08-08T09:34:33Z</time>
      </trkpt>
      <trkpt lat="49.91198" lon="3.8798">
        <ele>155.39</ele>
        <time>2021-08-08T09:34:42Z</time>
      </trkpt>
      <trkpt lat="49.91196" lon="3.87948">
        <ele>153.95</ele>
        <time>2021-08-08T09:34:46Z</time>
      </trkpt>
      <trkpt lat="49.9119" lon="3.87879">
        <ele>152.51</ele>
        <time>2021-08-08T09:34:54Z</time>
      </trkpt>
      <trkpt lat="49.91186" lon="3.87824">
        <ele>150.58</ele>
        <time>2021-08-08T09:35:00Z</time>
      </trkpt>
      <trkpt lat="49.91181" lon="3.87754">
        <ele>149.14</ele>
        <time>2021-08-08T09:35:07Z</time>
      </trkpt>
      <trkpt lat="49.91177" lon="3.87711">
        <ele>147.7</ele>
        <time>2021-08-08T09:35:11Z</time>
      </trkpt>
      <trkpt lat="49.91174" lon="3.87699">
        <ele>147.7</ele>
        <time>2021-08-08T09:35:12Z</time>
      </trkpt>
      <trkpt lat="49.91155" lon="3.87633">
        <ele>143.85</ele>
        <time>2021-08-08T09:35:18Z</time>
      </trkpt>
      <trkpt lat="49.91148" lon="3.87611">
        <ele>142.89</ele>
        <time>2021-08-08T09:35:20Z</time>
      </trkpt>
      <trkpt lat="49.91134" lon="3.87565">
        <ele>141.45</ele>
        <time>2021-08-08T09:35:24Z</time>
      </trkpt>
      <trkpt lat="49.91132" lon="3.87554">
        <ele>141.45</ele>
        <time>2021-08-08T09:35:25Z</time>
      </trkpt>
      <trkpt lat="49.91131" lon="3.87541">
        <ele>140.49</ele>
        <time>2021-08-08T09:35:26Z</time>
      </trkpt>
      <trkpt lat="49.91132" lon="3.87533">
        <ele>140.01</ele>
        <time>2021-08-08T09:35:27Z</time>
      </trkpt>
      <trkpt lat="49.91134" lon="3.87524">
        <ele>140.01</ele>
        <time>2021-08-08T09:35:28Z</time>
      </trkpt>
      <trkpt lat="49.91138" lon="3.87517">
        <ele>139.53</ele>
        <time>2021-08-08T09:35:29Z</time>
      </trkpt>
      <trkpt lat="49.91144" lon="3.87511">
        <ele>139.05</ele>
        <time>2021-08-08T09:35:30Z</time>
      </trkpt>
      <trkpt lat="49.9115" lon="3.87508">
        <ele>138.57</ele>
        <time>2021-08-08T09:35:31Z</time>
      </trkpt>
      <trkpt lat="49.91157" lon="3.87508">
        <ele>137.61</ele>
        <time>2021-08-08T09:35:32Z</time>
      </trkpt>
      <trkpt lat="49.91164" lon="3.87509">
        <ele>137.61</ele>
        <time>2021-08-08T09:35:33Z</time>
      </trkpt>
      <trkpt lat="49.9119" lon="3.87515">
        <ele>136.64</ele>
        <time>2021-08-08T09:35:36Z</time>
      </trkpt>
      <trkpt lat="49.91217" lon="3.87504">
        <ele>134.24</ele>
        <time>2021-08-08T09:35:40Z</time>
      </trkpt>
      <trkpt lat="49.91223" lon="3.87481">
        <ele>133.76</ele>
        <time>2021-08-08T09:35:42Z</time>
      </trkpt>
      <trkpt lat="49.91223" lon="3.8747">
        <ele>132.8</ele>
        <time>2021-08-08T09:35:43Z</time>
      </trkpt>
      <trkpt lat="49.91222" lon="3.8746">
        <ele>132.32</ele>
        <time>2021-08-08T09:35:44Z</time>
      </trkpt>
      <trkpt lat="49.91219" lon="3.87449">
        <ele>132.32</ele>
        <time>2021-08-08T09:35:45Z</time>
      </trkpt>
      <trkpt lat="49.91214" lon="3.8744">
        <ele>131.84</ele>
        <time>2021-08-08T09:35:46Z</time>
      </trkpt>
      <trkpt lat="49.91208" lon="3.8743">
        <ele>131.36</ele>
        <time>2021-08-08T09:35:47Z</time>
      </trkpt>
      <trkpt lat="49.91203" lon="3.87423">
        <ele>130.4</ele>
        <time>2021-08-08T09:35:48Z</time>
      </trkpt>
      <trkpt lat="49.91197" lon="3.87413">
        <ele>129.92</ele>
        <time>2021-08-08T09:35:49Z</time>
      </trkpt>
      <trkpt lat="49.91192" lon="3.87406">
        <ele>130.4</ele>
        <time>2021-08-08T09:35:50Z</time>
      </trkpt>
      <trkpt lat="49.91167" lon="3.87372">
        <ele>128.47</ele>
        <time>2021-08-08T09:35:54Z</time>
      </trkpt>
      <trkpt lat="49.91133" lon="3.87308">
        <ele>128.47</ele>
        <time>2021-08-08T09:36:01Z</time>
      </trkpt>
      <trkpt lat="49.9113" lon="3.87299">
        <ele>128.47</ele>
        <time>2021-08-08T09:36:02Z</time>
      </trkpt>
      <trkpt lat="49.91129" lon="3.8729">
        <ele>128.47</ele>
        <time>2021-08-08T09:36:03Z</time>
      </trkpt>
      <trkpt lat="49.91128" lon="3.87281">
        <ele>128.47</ele>
        <time>2021-08-08T09:36:04Z</time>
      </trkpt>
      <trkpt lat="49.91127" lon="3.87271">
        <ele>128.47</ele>
        <time>2021-08-08T09:36:05Z</time>
      </trkpt>
      <trkpt lat="49.91129" lon="3.87262">
        <ele>128.47</ele>
        <time>2021-08-08T09:36:06Z</time>
      </trkpt>
      <trkpt lat="49.9113" lon="3.87253">
        <ele>129.92</ele>
        <time>2021-08-08T09:36:07Z</time>
      </trkpt>
      <trkpt lat="49.91131" lon="3.87244">
        <ele>129.92</ele>
        <time>2021-08-08T09:36:08Z</time>
      </trkpt>
      <trkpt lat="49.91133" lon="3.87235">
        <ele>129.92</ele>
        <time>2021-08-08T09:36:09Z</time>
      </trkpt>
      <trkpt lat="49.91136" lon="3.87228">
        <ele>130.4</ele>
        <time>2021-08-08T09:36:10Z</time>
      </trkpt>
      <trkpt lat="49.91151" lon="3.87184">
        <ele>130.88</ele>
        <time>2021-08-08T09:36:17Z</time>
      </trkpt>
      <trkpt lat="49.91162" lon="3.87158">
        <ele>130.88</ele>
        <time>2021-08-08T09:36:22Z</time>
      </trkpt>
      <trkpt lat="49.91172" lon="3.87129">
        <ele>131.84</ele>
        <time>2021-08-08T09:36:28Z</time>
      </trkpt>
      <trkpt lat="49.91181" lon="3.87083">
        <ele>132.32</ele>
        <time>2021-08-08T09:36:37Z</time>
      </trkpt>
      <trkpt lat="49.91185" lon="3.87043">
        <ele>132.8</ele>
        <time>2021-08-08T09:36:45Z</time>
      </trkpt>
      <trkpt lat="49.91187" lon="3.8701">
        <ele>133.28</ele>
        <time>2021-08-08T09:36:51Z</time>
      </trkpt>
      <trkpt lat="49.9119" lon="3.86975">
        <ele>134.72</ele>
        <time>2021-08-08T09:36:58Z</time>
      </trkpt>
      <trkpt lat="49.91195" lon="3.86935">
        <ele>135.2</ele>
        <time>2021-08-08T09:37:06Z</time>
      </trkpt>
      <trkpt lat="49.91199" lon="3.86905">
        <ele>135.68</ele>
        <time>2021-08-08T09:37:12Z</time>
      </trkpt>
      <trkpt lat="49.91207" lon="3.86865">
        <ele>135.68</ele>
        <time>2021-08-08T09:37:19Z</time>
      </trkpt>
      <trkpt lat="49.91226" lon="3.86822">
        <ele>136.16</ele>
        <time>2021-08-08T09:37:28Z</time>
      </trkpt>
      <trkpt lat="49.91245" lon="3.86786">
        <ele>136.64</ele>
        <time>2021-08-08T09:37:36Z</time>
      </trkpt>
      <trkpt lat="49.91264" lon="3.86751">
        <ele>137.13</ele>
        <time>2021-08-08T09:37:44Z</time>
      </trkpt>
      <trkpt lat="49.91279" lon="3.86724">
        <ele>137.61</ele>
        <time>2021-08-08T09:37:51Z</time>
      </trkpt>
      <trkpt lat="49.91297" lon="3.8669">
        <ele>138.09</ele>
        <time>2021-08-08T09:37:59Z</time>
      </trkpt>
      <trkpt lat="49.91312" lon="3.86661">
        <ele>139.05</ele>
        <time>2021-08-08T09:38:06Z</time>
      </trkpt>
      <trkpt lat="49.91327" lon="3.86635">
        <ele>139.05</ele>
        <time>2021-08-08T09:38:13Z</time>
      </trkpt>
      <trkpt lat="49.91345" lon="3.86606">
        <ele>139.53</ele>
        <time>2021-08-08T09:38:21Z</time>
      </trkpt>
      <trkpt lat="49.91359" lon="3.86583">
        <ele>139.53</ele>
        <time>2021-08-08T09:38:27Z</time>
      </trkpt>
      <trkpt lat="49.91376" lon="3.86543">
        <ele>140.01</ele>
        <time>2021-08-08T09:38:34Z</time>
      </trkpt>
      <trkpt lat="49.91388" lon="3.86508">
        <ele>140.01</ele>
        <time>2021-08-08T09:38:40Z</time>
      </trkpt>
      <trkpt lat="49.91399" lon="3.8646">
        <ele>140.01</ele>
        <time>2021-08-08T09:38:47Z</time>
      </trkpt>
      <trkpt lat="49.914" lon="3.86446">
        <ele>138.57</ele>
        <time>2021-08-08T09:38:49Z</time>
      </trkpt>
      <trkpt lat="49.91402" lon="3.86423">
        <ele>138.09</ele>
        <time>2021-08-08T09:38:52Z</time>
      </trkpt>
      <trkpt lat="49.91403" lon="3.86415">
        <ele>137.61</ele>
        <time>2021-08-08T09:38:53Z</time>
      </trkpt>
      <trkpt lat="49.91404" lon="3.86391">
        <ele>137.61</ele>
        <time>2021-08-08T09:38:56Z</time>
      </trkpt>
      <trkpt lat="49.9141" lon="3.86319">
        <ele>134.72</ele>
        <time>2021-08-08T09:39:04Z</time>
      </trkpt>
      <trkpt lat="49.91411" lon="3.8631">
        <ele>134.72</ele>
        <time>2021-08-08T09:39:05Z</time>
      </trkpt>
      <trkpt lat="49.91418" lon="3.86233">
        <ele>133.28</ele>
        <time>2021-08-08T09:39:13Z</time>
      </trkpt>
      <trkpt lat="49.91423" lon="3.86183">
        <ele>131.84</ele>
        <time>2021-08-08T09:39:18Z</time>
      </trkpt>
      <trkpt lat="49.9143" lon="3.86104">
        <ele>128.95</ele>
        <time>2021-08-08T09:39:26Z</time>
      </trkpt>
      <trkpt lat="49.91433" lon="3.86053">
        <ele>128.47</ele>
        <time>2021-08-08T09:39:31Z</time>
      </trkpt>
      <trkpt lat="49.9143" lon="3.8598">
        <ele>128.47</ele>
        <time>2021-08-08T09:39:39Z</time>
      </trkpt>
      <trkpt lat="49.91427" lon="3.85963">
        <ele>128.47</ele>
        <time>2021-08-08T09:39:41Z</time>
      </trkpt>
      <trkpt lat="49.91425" lon="3.85946">
        <ele>128.47</ele>
        <time>2021-08-08T09:39:43Z</time>
      </trkpt>
      <trkpt lat="49.91423" lon="3.8593">
        <ele>128.47</ele>
        <time>2021-08-08T09:39:45Z</time>
      </trkpt>
      <trkpt lat="49.91421" lon="3.85887">
        <ele>129.92</ele>
        <time>2021-08-08T09:39:50Z</time>
      </trkpt>
      <trkpt lat="49.91418" lon="3.85817">
        <ele>128.47</ele>
        <time>2021-08-08T09:39:58Z</time>
      </trkpt>
      <trkpt lat="49.91416" lon="3.85746">
        <ele>127.99</ele>
        <time>2021-08-08T09:40:06Z</time>
      </trkpt>
      <trkpt lat="49.91415" lon="3.85704">
        <ele>126.55</ele>
        <time>2021-08-08T09:40:11Z</time>
      </trkpt>
      <trkpt lat="49.91415" lon="3.85695">
        <ele>126.07</ele>
        <time>2021-08-08T09:40:12Z</time>
      </trkpt>
      <trkpt lat="49.91414" lon="3.8568">
        <ele>127.51</ele>
        <time>2021-08-08T09:40:14Z</time>
      </trkpt>
      <trkpt lat="49.91414" lon="3.85673">
        <ele>127.51</ele>
        <time>2021-08-08T09:40:15Z</time>
      </trkpt>
      <trkpt lat="49.91414" lon="3.85664">
        <ele>127.51</ele>
        <time>2021-08-08T09:40:16Z</time>
      </trkpt>
      <trkpt lat="49.91411" lon="3.85618">
        <ele>127.51</ele>
        <time>2021-08-08T09:40:23Z</time>
      </trkpt>
      <trkpt lat="49.91408" lon="3.85615">
        <ele>127.51</ele>
        <time>2021-08-08T09:40:24Z</time>
      </trkpt>
      <trkpt lat="49.91405" lon="3.85614">
        <ele>126.07</ele>
        <time>2021-08-08T09:40:25Z</time>
      </trkpt>
      <trkpt lat="49.91401" lon="3.85615">
        <ele>126.07</ele>
        <time>2021-08-08T09:40:26Z</time>
      </trkpt>
      <trkpt lat="49.91395" lon="3.85617">
        <ele>125.11</ele>
        <time>2021-08-08T09:40:27Z</time>
      </trkpt>
      <trkpt lat="49.91389" lon="3.85618">
        <ele>124.63</ele>
        <time>2021-08-08T09:40:28Z</time>
      </trkpt>
      <trkpt lat="49.91376" lon="3.8562">
        <ele>123.67</ele>
        <time>2021-08-08T09:40:30Z</time>
      </trkpt>
      <trkpt lat="49.91355" lon="3.85623">
        <ele>122.22</ele>
        <time>2021-08-08T09:40:33Z</time>
      </trkpt>
      <trkpt lat="49.91291" lon="3.85631">
        <ele>120.3</ele>
        <time>2021-08-08T09:40:42Z</time>
      </trkpt>
      <trkpt lat="49.91237" lon="3.8564">
        <ele>118.38</ele>
        <time>2021-08-08T09:40:50Z</time>
      </trkpt>
      <trkpt lat="49.91189" lon="3.85647">
        <ele>117.42</ele>
        <time>2021-08-08T09:40:58Z</time>
      </trkpt>
      <trkpt lat="49.91126" lon="3.85655">
        <ele>117.42</ele>
        <time>2021-08-08T09:41:09Z</time>
      </trkpt>
      <trkpt lat="49.91088" lon="3.8566">
        <ele>117.42</ele>
        <time>2021-08-08T09:41:17Z</time>
      </trkpt>
      <trkpt lat="49.91041" lon="3.85666">
        <ele>116.94</ele>
        <time>2021-08-08T09:41:27Z</time>
      </trkpt>
      <trkpt lat="49.91026" lon="3.85667">
        <ele>118.38</ele>
        <time>2021-08-08T09:41:30Z</time>
      </trkpt>
      <trkpt lat="49.90981" lon="3.85673">
        <ele>118.38</ele>
        <time>2021-08-08T09:41:39Z</time>
      </trkpt>
      <trkpt lat="49.90942" lon="3.85678">
        <ele>116.94</ele>
        <time>2021-08-08T09:41:47Z</time>
      </trkpt>
      <trkpt lat="49.90882" lon="3.85689">
        <ele>116.94</ele>
        <time>2021-08-08T09:41:59Z</time>
      </trkpt>
      <trkpt lat="49.90836" lon="3.85698">
        <ele>116.94</ele>
        <time>2021-08-08T09:42:08Z</time>
      </trkpt>
      <trkpt lat="49.90797" lon="3.85707">
        <ele>116.94</ele>
        <time>2021-08-08T09:42:16Z</time>
      </trkpt>
      <trkpt lat="49.90791" lon="3.85708">
        <ele>116.94</ele>
        <time>2021-08-08T09:42:17Z</time>
      </trkpt>
      <trkpt lat="49.9074" lon="3.85719">
        <ele>116.94</ele>
        <time>2021-08-08T09:42:27Z</time>
      </trkpt>
      <trkpt lat="49.90702" lon="3.85729">
        <ele>116.94</ele>
        <time>2021-08-08T09:42:35Z</time>
      </trkpt>
      <trkpt lat="49.90694" lon="3.8573">
        <ele>118.38</ele>
        <time>2021-08-08T09:42:37Z</time>
      </trkpt>
      <trkpt lat="49.90662" lon="3.85733">
        <ele>118.86</ele>
        <time>2021-08-08T09:42:45Z</time>
      </trkpt>
      <trkpt lat="49.90658" lon="3.8573">
        <ele>118.86</ele>
        <time>2021-08-08T09:42:47Z</time>
      </trkpt>
      <trkpt lat="49.90657" lon="3.85708">
        <ele>119.34</ele>
        <time>2021-08-08T09:42:53Z</time>
      </trkpt>
      <trkpt lat="49.90655" lon="3.85685">
        <ele>119.82</ele>
        <time>2021-08-08T09:43:00Z</time>
      </trkpt>
      <trkpt lat="49.90655" lon="3.85685">
        <ele>119.82</ele>
        <time>2021-08-08T09:43:08Z</time>
      </trkpt>
      <trkpt lat="49.90655" lon="3.85684">
        <ele>119.82</ele>
        <time>2021-08-08T09:43:15Z</time>
      </trkpt>
      <trkpt lat="49.90655" lon="3.85684">
        <ele>119.82</ele>
        <time>2021-08-08T09:43:20Z</time>
      </trkpt>
      <trkpt lat="49.90655" lon="3.85683">
        <ele>119.82</ele>
        <time>2021-08-08T09:43:21Z</time>
      </trkpt>
      <trkpt lat="49.90653" lon="3.8567">
        <ele>117.9</ele>
        <time>2021-08-08T09:43:27Z</time>
      </trkpt>
      <trkpt lat="49.90648" lon="3.85677">
        <ele>117.9</ele>
        <time>2021-08-08T09:43:31Z</time>
      </trkpt>
      <trkpt lat="49.90647" lon="3.85686">
        <ele>117.9</ele>
        <time>2021-08-08T09:43:39Z</time>
      </trkpt>
      <trkpt lat="49.90645" lon="3.85687">
        <ele>117.9</ele>
        <time>2021-08-08T09:43:57Z</time>
      </trkpt>
      <trkpt lat="49.90646" lon="3.85686">
        <ele>117.9</ele>
        <time>2021-08-08T09:44:18Z</time>
      </trkpt>
      <trkpt lat="49.90645" lon="3.85689">
        <ele>117.9</ele>
        <time>2021-08-08T09:44:41Z</time>
      </trkpt>
      <trkpt lat="49.90645" lon="3.85689">
        <ele>117.9</ele>
        <time>2021-08-08T09:45:06Z</time>
      </trkpt>
      <trkpt lat="49.90645" lon="3.85688">
        <ele>117.9</ele>
        <time>2021-08-08T09:45:24Z</time>
      </trkpt>
      <trkpt lat="49.90644" lon="3.85688">
        <ele>117.9</ele>
        <time>2021-08-08T09:45:40Z</time>
      </trkpt>
      <trkpt lat="49.90645" lon="3.85689">
        <ele>118.38</ele>
        <time>2021-08-08T09:46:02Z</time>
      </trkpt>
      <trkpt lat="49.90645" lon="3.85689">
        <ele>118.38</ele>
        <time>2021-08-08T09:46:20Z</time>
      </trkpt>
      <trkpt lat="49.90645" lon="3.85689">
        <ele>118.38</ele>
        <time>2021-08-08T09:46:36Z</time>
      </trkpt>
      <trkpt lat="49.90645" lon="3.85687">
        <ele>118.38</ele>
        <time>2021-08-08T09:46:56Z</time>
      </trkpt>
      <trkpt lat="49.90645" lon="3.85685">
        <ele>118.38</ele>
        <time>2021-08-08T09:47:19Z</time>
      </trkpt>
      <trkpt lat="49.90645" lon="3.85685">
        <ele>119.82</ele>
        <time>2021-08-08T09:47:31Z</time>
      </trkpt>
      <trkpt lat="49.90646" lon="3.85687">
        <ele>119.82</ele>
        <time>2021-08-08T09:47:51Z</time>
      </trkpt>
      <trkpt lat="49.90646" lon="3.85687">
        <ele>119.82</ele>
        <time>2021-08-08T09:48:13Z</time>
      </trkpt>
      <trkpt lat="49.90645" lon="3.85687">
        <ele>119.82</ele>
        <time>2021-08-08T09:48:34Z</time>
      </trkpt>
      <trkpt lat="49.90645" lon="3.85686">
        <ele>119.82</ele>
        <time>2021-08-08T09:48:40Z</time>
      </trkpt>
      <trkpt lat="49.90645" lon="3.85688">
        <ele>119.82</ele>
        <time>2021-08-08T09:48:46Z</time>
      </trkpt>
      <trkpt lat="49.90644" lon="3.85689">
        <ele>119.82</ele>
        <time>2021-08-08T09:49:04Z</time>
      </trkpt>
      <trkpt lat="49.90643" lon="3.8569">
        <ele>119.82</ele>
        <time>2021-08-08T09:49:19Z</time>
      </trkpt>
      <trkpt lat="49.90643" lon="3.8569">
        <ele>119.82</ele>
        <time>2021-08-08T09:49:30Z</time>
      </trkpt>
      <trkpt lat="49.90643" lon="3.85689">
        <ele>119.82</ele>
        <time>2021-08-08T09:49:44Z</time>
      </trkpt>
      <trkpt lat="49.90644" lon="3.85689">
        <ele>120.3</ele>
        <time>2021-08-08T09:50:00Z</time>
      </trkpt>
      <trkpt lat="49.90644" lon="3.85687">
        <ele>120.3</ele>
        <time>2021-08-08T09:50:21Z</time>
      </trkpt>
      <trkpt lat="49.90644" lon="3.85687">
        <ele>118.86</ele>
        <time>2021-08-08T09:50:24Z</time>
      </trkpt>
      <trkpt lat="49.90645" lon="3.85687">
        <ele>119.34</ele>
        <time>2021-08-08T09:50:43Z</time>
      </trkpt>
      <trkpt lat="49.90645" lon="3.85687">
        <ele>119.34</ele>
        <time>2021-08-08T09:50:56Z</time>
      </trkpt>
      <trkpt lat="49.90645" lon="3.8569">
        <ele>119.34</ele>
        <time>2021-08-08T09:51:11Z</time>
      </trkpt>
      <trkpt lat="49.90645" lon="3.85689">
        <ele>119.34</ele>
        <time>2021-08-08T09:51:28Z</time>
      </trkpt>
      <trkpt lat="49.90644" lon="3.85689">
        <ele>119.34</ele>
        <time>2021-08-08T09:51:43Z</time>
      </trkpt>
      <trkpt lat="49.90644" lon="3.85688">
        <ele>119.34</ele>
        <time>2021-08-08T09:51:56Z</time>
      </trkpt>
      <trkpt lat="49.90644" lon="3.85688">
        <ele>118.86</ele>
        <time>2021-08-08T09:52:09Z</time>
      </trkpt>
      <trkpt lat="49.90644" lon="3.85688">
        <ele>120.3</ele>
        <time>2021-08-08T09:52:11Z</time>
      </trkpt>
      <trkpt lat="49.90644" lon="3.85689">
        <ele>120.3</ele>
        <time>2021-08-08T09:52:32Z</time>
      </trkpt>
      <trkpt lat="49.90644" lon="3.85688">
        <ele>120.3</ele>
        <time>2021-08-08T09:52:46Z</time>
      </trkpt>
      <trkpt lat="49.90643" lon="3.85688">
        <ele>120.3</ele>
        <time>2021-08-08T09:53:04Z</time>
      </trkpt>
      <trkpt lat="49.90643" lon="3.85688">
        <ele>120.3</ele>
        <time>2021-08-08T09:53:17Z</time>
      </trkpt>
      <trkpt lat="49.90643" lon="3.8569">
        <ele>120.3</ele>
        <time>2021-08-08T09:53:24Z</time>
      </trkpt>
      <trkpt lat="49.90644" lon="3.85688">
        <ele>120.3</ele>
        <time>2021-08-08T09:53:42Z</time>
      </trkpt>
      <trkpt lat="49.90644" lon="3.85685">
        <ele>120.78</ele>
        <time>2021-08-08T09:54:07Z</time>
      </trkpt>
      <trkpt lat="49.90644" lon="3.85684">
        <ele>120.78</ele>
        <time>2021-08-08T09:54:26Z</time>
      </trkpt>
      <trkpt lat="49.90645" lon="3.85687">
        <ele>120.78</ele>
        <time>2021-08-08T09:54:45Z</time>
      </trkpt>
      <trkpt lat="49.90646" lon="3.85686">
        <ele>119.34</ele>
        <time>2021-08-08T09:55:00Z</time>
      </trkpt>
      <trkpt lat="49.90645" lon="3.85687">
        <ele>119.34</ele>
        <time>2021-08-08T09:55:22Z</time>
      </trkpt>
      <trkpt lat="49.90645" lon="3.85686">
        <ele>119.34</ele>
        <time>2021-08-08T09:55:36Z</time>
      </trkpt>
      <trkpt lat="49.90644" lon="3.85685">
        <ele>119.34</ele>
        <time>2021-08-08T09:55:58Z</time>
      </trkpt>
      <trkpt lat="49.90643" lon="3.85683">
        <ele>119.34</ele>
        <time>2021-08-08T09:56:22Z</time>
      </trkpt>
      <trkpt lat="49.90645" lon="3.85683">
        <ele>119.82</ele>
        <time>2021-08-08T09:56:45Z</time>
      </trkpt>
      <trkpt lat="49.90645" lon="3.85682">
        <ele>119.82</ele>
        <time>2021-08-08T09:57:03Z</time>
      </trkpt>
      <trkpt lat="49.90645" lon="3.85683">
        <ele>121.26</ele>
        <time>2021-08-08T09:57:18Z</time>
      </trkpt>
      <trkpt lat="49.90645" lon="3.85684">
        <ele>119.82</ele>
        <time>2021-08-08T09:57:23Z</time>
      </trkpt>
      <trkpt lat="49.90645" lon="3.85683">
        <ele>119.82</ele>
        <time>2021-08-08T09:57:39Z</time>
      </trkpt>
      <trkpt lat="49.90644" lon="3.85683">
        <ele>119.82</ele>
        <time>2021-08-08T09:57:55Z</time>
      </trkpt>
      <trkpt lat="49.90645" lon="3.85684">
        <ele>119.82</ele>
        <time>2021-08-08T09:58:13Z</time>
      </trkpt>
      <trkpt lat="49.90647" lon="3.85684">
        <ele>119.34</ele>
        <time>2021-08-08T09:58:22Z</time>
      </trkpt>
      <trkpt lat="49.90648" lon="3.85686">
        <ele>119.34</ele>
        <time>2021-08-08T09:58:42Z</time>
      </trkpt>
      <trkpt lat="49.90646" lon="3.85686">
        <ele>120.3</ele>
        <time>2021-08-08T09:59:03Z</time>
      </trkpt>
      <trkpt lat="49.90646" lon="3.85685">
        <ele>120.78</ele>
        <time>2021-08-08T09:59:23Z</time>
      </trkpt>
      <trkpt lat="49.90646" lon="3.85686">
        <ele>120.78</ele>
        <time>2021-08-08T09:59:43Z</time>
      </trkpt>
      <trkpt lat="49.90647" lon="3.85687">
        <ele>120.78</ele>
        <time>2021-08-08T10:00:04Z</time>
      </trkpt>
      <trkpt lat="49.90647" lon="3.85687">
        <ele>119.34</ele>
        <time>2021-08-08T10:00:24Z</time>
      </trkpt>
      <trkpt lat="49.90647" lon="3.85686">
        <ele>119.34</ele>
        <time>2021-08-08T10:00:40Z</time>
      </trkpt>
      <trkpt lat="49.90645" lon="3.85687">
        <ele>119.34</ele>
        <time>2021-08-08T10:00:58Z</time>
      </trkpt>
      <trkpt lat="49.90645" lon="3.85687">
        <ele>119.34</ele>
        <time>2021-08-08T10:01:17Z</time>
      </trkpt>
      <trkpt lat="49.90645" lon="3.85686">
        <ele>119.34</ele>
        <time>2021-08-08T10:01:34Z</time>
      </trkpt>
      <trkpt lat="49.90645" lon="3.85685">
        <ele>119.34</ele>
        <time>2021-08-08T10:01:48Z</time>
      </trkpt>
      <trkpt lat="49.90647" lon="3.85684">
        <ele>119.34</ele>
        <time>2021-08-08T10:02:10Z</time>
      </trkpt>
      <trkpt lat="49.90647" lon="3.85684">
        <ele>119.34</ele>
        <time>2021-08-08T10:02:28Z</time>
      </trkpt>
      <trkpt lat="49.90648" lon="3.85684">
        <ele>119.82</ele>
        <time>2021-08-08T10:02:41Z</time>
      </trkpt>
      <trkpt lat="49.90649" lon="3.85683">
        <ele>119.82</ele>
        <time>2021-08-08T10:02:57Z</time>
      </trkpt>
      <trkpt lat="49.90648" lon="3.85683">
        <ele>119.82</ele>
        <time>2021-08-08T10:03:12Z</time>
      </trkpt>
      <trkpt lat="49.90647" lon="3.85686">
        <ele>119.82</ele>
        <time>2021-08-08T10:03:29Z</time>
      </trkpt>
      <trkpt lat="49.90647" lon="3.85685">
        <ele>120.78</ele>
        <time>2021-08-08T10:03:46Z</time>
      </trkpt>
      <trkpt lat="49.90647" lon="3.85683">
        <ele>120.78</ele>
        <time>2021-08-08T10:04:04Z</time>
      </trkpt>
      <trkpt lat="49.90647" lon="3.85685">
        <ele>120.78</ele>
        <time>2021-08-08T10:04:23Z</time>
      </trkpt>
      <trkpt lat="49.90647" lon="3.85685">
        <ele>120.78</ele>
        <time>2021-08-08T10:04:33Z</time>
      </trkpt>
      <trkpt lat="49.90647" lon="3.85685">
        <ele>120.78</ele>
        <time>2021-08-08T10:04:47Z</time>
      </trkpt>
      <trkpt lat="49.90646" lon="3.85684">
        <ele>119.34</ele>
        <time>2021-08-08T10:05:00Z</time>
      </trkpt>
      <trkpt lat="49.90646" lon="3.85684">
        <ele>119.34</ele>
        <time>2021-08-08T10:05:17Z</time>
      </trkpt>
      <trkpt lat="49.90646" lon="3.85683">
        <ele>119.34</ele>
        <time>2021-08-08T10:05:37Z</time>
      </trkpt>
      <trkpt lat="49.90646" lon="3.85684">
        <ele>119.34</ele>
        <time>2021-08-08T10:05:55Z</time>
      </trkpt>
      <trkpt lat="49.90647" lon="3.85682">
        <ele>119.34</ele>
        <time>2021-08-08T10:06:07Z</time>
      </trkpt>
      <trkpt lat="49.90647" lon="3.85684">
        <ele>119.34</ele>
        <time>2021-08-08T10:06:26Z</time>
      </trkpt>
      <trkpt lat="49.90647" lon="3.85684">
        <ele>119.34</ele>
        <time>2021-08-08T10:06:46Z</time>
      </trkpt>
      <trkpt lat="49.90648" lon="3.85685">
        <ele>119.34</ele>
        <time>2021-08-08T10:07:06Z</time>
      </trkpt>
      <trkpt lat="49.90649" lon="3.85683">
        <ele>119.34</ele>
        <time>2021-08-08T10:07:23Z</time>
      </trkpt>
      <trkpt lat="49.90648" lon="3.85684">
        <ele>120.78</ele>
        <time>2021-08-08T10:07:43Z</time>
      </trkpt>
      <trkpt lat="49.90648" lon="3.85684">
        <ele>119.34</ele>
        <time>2021-08-08T10:07:48Z</time>
      </trkpt>
      <trkpt lat="49.90647" lon="3.85684">
        <ele>119.82</ele>
        <time>2021-08-08T10:07:54Z</time>
      </trkpt>
      <trkpt lat="49.90647" lon="3.85686">
        <ele>121.26</ele>
        <time>2021-08-08T10:08:10Z</time>
      </trkpt>
      <trkpt lat="49.90647" lon="3.85687">
        <ele>121.26</ele>
        <time>2021-08-08T10:08:29Z</time>
      </trkpt>
      <trkpt lat="49.90647" lon="3.85686">
        <ele>121.26</ele>
        <time>2021-08-08T10:08:43Z</time>
      </trkpt>
      <trkpt lat="49.90648" lon="3.85686">
        <ele>119.82</ele>
        <time>2021-08-08T10:09:01Z</time>
      </trkpt>
      <trkpt lat="49.90649" lon="3.85687">
        <ele>119.82</ele>
        <time>2021-08-08T10:09:19Z</time>
      </trkpt>
      <trkpt lat="49.9065" lon="3.85687">
        <ele>119.34</ele>
        <time>2021-08-08T10:09:42Z</time>
      </trkpt>
      <trkpt lat="49.90649" lon="3.85687">
        <ele>120.78</ele>
        <time>2021-08-08T10:10:01Z</time>
      </trkpt>
      <trkpt lat="49.9065" lon="3.85687">
        <ele>120.3</ele>
        <time>2021-08-08T10:10:22Z</time>
      </trkpt>
      <trkpt lat="49.9065" lon="3.85687">
        <ele>120.3</ele>
        <time>2021-08-08T10:10:41Z</time>
      </trkpt>
      <trkpt lat="49.90649" lon="3.85688">
        <ele>120.3</ele>
        <time>2021-08-08T10:10:55Z</time>
      </trkpt>
      <trkpt lat="49.90649" lon="3.85687">
        <ele>119.34</ele>
        <time>2021-08-08T10:11:11Z</time>
      </trkpt>
      <trkpt lat="49.90648" lon="3.85687">
        <ele>120.78</ele>
        <time>2021-08-08T10:11:28Z</time>
      </trkpt>
      <trkpt lat="49.90646" lon="3.85686">
        <ele>119.82</ele>
        <time>2021-08-08T10:11:46Z</time>
      </trkpt>
      <trkpt lat="49.90646" lon="3.85687">
        <ele>119.82</ele>
        <time>2021-08-08T10:12:09Z</time>
      </trkpt>
      <trkpt lat="49.90647" lon="3.85686">
        <ele>119.82</ele>
        <time>2021-08-08T10:12:30Z</time>
      </trkpt>
      <trkpt lat="49.90647" lon="3.85684">
        <ele>119.82</ele>
        <time>2021-08-08T10:12:51Z</time>
      </trkpt>
      <trkpt lat="49.90648" lon="3.85685">
        <ele>119.82</ele>
        <time>2021-08-08T10:13:18Z</time>
      </trkpt>
      <trkpt lat="49.90648" lon="3.85685">
        <ele>119.82</ele>
        <time>2021-08-08T10:13:40Z</time>
      </trkpt>
      <trkpt lat="49.90648" lon="3.85685">
        <ele>119.82</ele>
        <time>2021-08-08T10:13:58Z</time>
      </trkpt>
      <trkpt lat="49.90647" lon="3.85685">
        <ele>119.82</ele>
        <time>2021-08-08T10:14:17Z</time>
      </trkpt>
      <trkpt lat="49.90647" lon="3.85685">
        <ele>119.82</ele>
        <time>2021-08-08T10:14:39Z</time>
      </trkpt>
      <trkpt lat="49.90647" lon="3.85685">
        <ele>119.82</ele>
        <time>2021-08-08T10:15:01Z</time>
      </trkpt>
      <trkpt lat="49.90646" lon="3.85684">
        <ele>119.82</ele>
        <time>2021-08-08T10:15:23Z</time>
      </trkpt>
      <trkpt lat="49.90644" lon="3.85684">
        <ele>119.82</ele>
        <time>2021-08-08T10:15:42Z</time>
      </trkpt>
      <trkpt lat="49.90644" lon="3.85686">
        <ele>119.82</ele>
        <time>2021-08-08T10:16:04Z</time>
      </trkpt>
      <trkpt lat="49.90645" lon="3.85685">
        <ele>119.82</ele>
        <time>2021-08-08T10:16:25Z</time>
      </trkpt>
      <trkpt lat="49.90645" lon="3.85686">
        <ele>119.82</ele>
        <time>2021-08-08T10:16:50Z</time>
      </trkpt>
      <trkpt lat="49.90645" lon="3.85686">
        <ele>119.82</ele>
        <time>2021-08-08T10:17:07Z</time>
      </trkpt>
      <trkpt lat="49.90646" lon="3.85686">
        <ele>119.82</ele>
        <time>2021-08-08T10:17:28Z</time>
      </trkpt>
      <trkpt lat="49.90646" lon="3.85687">
        <ele>120.3</ele>
        <time>2021-08-08T10:17:50Z</time>
      </trkpt>
      <trkpt lat="49.90646" lon="3.85686">
        <ele>120.3</ele>
        <time>2021-08-08T10:18:08Z</time>
      </trkpt>
      <trkpt lat="49.90644" lon="3.85686">
        <ele>120.3</ele>
        <time>2021-08-08T10:18:30Z</time>
      </trkpt>
      <trkpt lat="49.90645" lon="3.85687">
        <ele>120.3</ele>
        <time>2021-08-08T10:18:52Z</time>
      </trkpt>
      <trkpt lat="49.90646" lon="3.85684">
        <ele>119.82</ele>
        <time>2021-08-08T10:19:07Z</time>
      </trkpt>
      <trkpt lat="49.90646" lon="3.85685">
        <ele>120.78</ele>
        <time>2021-08-08T10:19:26Z</time>
      </trkpt>
      <trkpt lat="49.90646" lon="3.85685">
        <ele>120.78</ele>
        <time>2021-08-08T10:19:33Z</time>
      </trkpt>
      <trkpt lat="49.90646" lon="3.85684">
        <ele>120.78</ele>
        <time>2021-08-08T10:19:55Z</time>
      </trkpt>
      <trkpt lat="49.90644" lon="3.85684">
        <ele>120.3</ele>
        <time>2021-08-08T10:20:09Z</time>
      </trkpt>
      <trkpt lat="49.90645" lon="3.85685">
        <ele>119.82</ele>
        <time>2021-08-08T10:20:29Z</time>
      </trkpt>
      <trkpt lat="49.90645" lon="3.85684">
        <ele>121.26</ele>
        <time>2021-08-08T10:20:50Z</time>
      </trkpt>
      <trkpt lat="49.90645" lon="3.85683">
        <ele>121.26</ele>
        <time>2021-08-08T10:21:14Z</time>
      </trkpt>
      <trkpt lat="49.90646" lon="3.85683">
        <ele>121.26</ele>
        <time>2021-08-08T10:21:33Z</time>
      </trkpt>
      <trkpt lat="49.90645" lon="3.85684">
        <ele>121.26</ele>
        <time>2021-08-08T10:21:55Z</time>
      </trkpt>
      <trkpt lat="49.90646" lon="3.85685">
        <ele>121.74</ele>
        <time>2021-08-08T10:22:12Z</time>
      </trkpt>
      <trkpt lat="49.90643" lon="3.85685">
        <ele>121.74</ele>
        <time>2021-08-08T10:22:32Z</time>
      </trkpt>
      <trkpt lat="49.90643" lon="3.85687">
        <ele>121.74</ele>
        <time>2021-08-08T10:22:49Z</time>
      </trkpt>
      <trkpt lat="49.90644" lon="3.85688">
        <ele>121.74</ele>
        <time>2021-08-08T10:23:02Z</time>
      </trkpt>
      <trkpt lat="49.90644" lon="3.85688">
        <ele>121.74</ele>
        <time>2021-08-08T10:23:16Z</time>
      </trkpt>
      <trkpt lat="49.90644" lon="3.85688">
        <ele>121.74</ele>
        <time>2021-08-08T10:23:33Z</time>
      </trkpt>
      <trkpt lat="49.90643" lon="3.85689">
        <ele>121.74</ele>
        <time>2021-08-08T10:23:47Z</time>
      </trkpt>
      <trkpt lat="49.90642" lon="3.85688">
        <ele>121.74</ele>
        <time>2021-08-08T10:24:04Z</time>
      </trkpt>
      <trkpt lat="49.90643" lon="3.85687">
        <ele>122.22</ele>
        <time>2021-08-08T10:24:23Z</time>
      </trkpt>
      <trkpt lat="49.90645" lon="3.85686">
        <ele>122.22</ele>
        <time>2021-08-08T10:24:37Z</time>
      </trkpt>
      <trkpt lat="49.90645" lon="3.85685">
        <ele>122.22</ele>
        <time>2021-08-08T10:24:54Z</time>
      </trkpt>
      <trkpt lat="49.90647" lon="3.85685">
        <ele>122.22</ele>
        <time>2021-08-08T10:25:06Z</time>
      </trkpt>
      <trkpt lat="49.90647" lon="3.85685">
        <ele>122.22</ele>
        <time>2021-08-08T10:25:21Z</time>
      </trkpt>
      <trkpt lat="49.90648" lon="3.85685">
        <ele>122.22</ele>
        <time>2021-08-08T10:25:30Z</time>
      </trkpt>
      <trkpt lat="49.90647" lon="3.85685">
        <ele>122.22</ele>
        <time>2021-08-08T10:25:45Z</time>
      </trkpt>
      <trkpt lat="49.90647" lon="3.85686">
        <ele>122.22</ele>
        <time>2021-08-08T10:25:54Z</time>
      </trkpt>
      <trkpt lat="49.90648" lon="3.85688">
        <ele>122.22</ele>
        <time>2021-08-08T10:26:02Z</time>
      </trkpt>
      <trkpt lat="49.90648" lon="3.85689">
        <ele>120.78</ele>
        <time>2021-08-08T10:26:11Z</time>
      </trkpt>
      <trkpt lat="49.90648" lon="3.85689">
        <ele>120.3</ele>
        <time>2021-08-08T10:26:22Z</time>
      </trkpt>
      <trkpt lat="49.90647" lon="3.85692">
        <ele>120.3</ele>
        <time>2021-08-08T10:26:26Z</time>
      </trkpt>
      <trkpt lat="49.9065" lon="3.85701">
        <ele>122.22</ele>
        <time>2021-08-08T10:26:33Z</time>
      </trkpt>
      <trkpt lat="49.90652" lon="3.8571">
        <ele>122.71</ele>
        <time>2021-08-08T10:26:40Z</time>
      </trkpt>
      <trkpt lat="49.90653" lon="3.85729">
        <ele>122.71</ele>
        <time>2021-08-08T10:26:46Z</time>
      </trkpt>
      <trkpt lat="49.90647" lon="3.85733">
        <ele>122.71</ele>
        <time>2021-08-08T10:26:50Z</time>
      </trkpt>
      <trkpt lat="49.90644" lon="3.85732">
        <ele>122.71</ele>
        <time>2021-08-08T10:26:51Z</time>
      </trkpt>
      <trkpt lat="49.90642" lon="3.8573">
        <ele>122.71</ele>
        <time>2021-08-08T10:26:52Z</time>
      </trkpt>
      <trkpt lat="49.9064" lon="3.85728">
        <ele>123.19</ele>
        <time>2021-08-08T10:26:53Z</time>
      </trkpt>
      <trkpt lat="49.90614" lon="3.85713">
        <ele>123.19</ele>
        <time>2021-08-08T10:27:03Z</time>
      </trkpt>
      <trkpt lat="49.90595" lon="3.85709">
        <ele>123.19</ele>
        <time>2021-08-08T10:27:10Z</time>
      </trkpt>
      <trkpt lat="49.90594" lon="3.85711">
        <ele>123.19</ele>
        <time>2021-08-08T10:27:11Z</time>
      </trkpt>
      <trkpt lat="49.90587" lon="3.85723">
        <ele>123.19</ele>
        <time>2021-08-08T10:27:16Z</time>
      </trkpt>
      <trkpt lat="49.90585" lon="3.85724">
        <ele>123.19</ele>
        <time>2021-08-08T10:27:22Z</time>
      </trkpt>
      <trkpt lat="49.90585" lon="3.85725">
        <ele>123.19</ele>
        <time>2021-08-08T10:27:30Z</time>
      </trkpt>
      <trkpt lat="49.90586" lon="3.85723">
        <ele>123.19</ele>
        <time>2021-08-08T10:27:44Z</time>
      </trkpt>
      <trkpt lat="49.90588" lon="3.85726">
        <ele>123.19</ele>
        <time>2021-08-08T10:27:51Z</time>
      </trkpt>
      <trkpt lat="49.90589" lon="3.85726">
        <ele>123.19</ele>
        <time>2021-08-08T10:27:52Z</time>
      </trkpt>
      <trkpt lat="49.9059" lon="3.85725">
        <ele>123.19</ele>
        <time>2021-08-08T10:27:53Z</time>
      </trkpt>
      <trkpt lat="49.90592" lon="3.85723">
        <ele>123.19</ele>
        <time>2021-08-08T10:27:54Z</time>
      </trkpt>
      <trkpt lat="49.90593" lon="3.85721">
        <ele>123.19</ele>
        <time>2021-08-08T10:27:55Z</time>
      </trkpt>
      <trkpt lat="49.90593" lon="3.85718">
        <ele>123.19</ele>
        <time>2021-08-08T10:27:56Z</time>
      </trkpt>
      <trkpt lat="49.90593" lon="3.85715">
        <ele>123.19</ele>
        <time>2021-08-08T10:27:57Z</time>
      </trkpt>
      <trkpt lat="49.90592" lon="3.85712">
        <ele>123.19</ele>
        <time>2021-08-08T10:27:58Z</time>
      </trkpt>
      <trkpt lat="49.90592" lon="3.8571">
        <ele>123.19</ele>
        <time>2021-08-08T10:27:59Z</time>
      </trkpt>
      <trkpt lat="49.9059" lon="3.85708">
        <ele>123.19</ele>
        <time>2021-08-08T10:28:00Z</time>
      </trkpt>
      <trkpt lat="49.90589" lon="3.85707">
        <ele>123.19</ele>
        <time>2021-08-08T10:28:01Z</time>
      </trkpt>
      <trkpt lat="49.90588" lon="3.85707">
        <ele>123.67</ele>
        <time>2021-08-08T10:28:02Z</time>
      </trkpt>
      <trkpt lat="49.90587" lon="3.85706">
        <ele>123.67</ele>
        <time>2021-08-08T10:28:03Z</time>
      </trkpt>
      <trkpt lat="49.90583" lon="3.85704">
        <ele>123.67</ele>
        <time>2021-08-08T10:28:07Z</time>
      </trkpt>
      <trkpt lat="49.90582" lon="3.85706">
        <ele>123.67</ele>
        <time>2021-08-08T10:28:08Z</time>
      </trkpt>
      <trkpt lat="49.90581" lon="3.85708">
        <ele>123.67</ele>
        <time>2021-08-08T10:28:09Z</time>
      </trkpt>
      <trkpt lat="49.90581" lon="3.8571">
        <ele>123.67</ele>
        <time>2021-08-08T10:28:10Z</time>
      </trkpt>
      <trkpt lat="49.90579" lon="3.85714">
        <ele>123.67</ele>
        <time>2021-08-08T10:28:16Z</time>
      </trkpt>
      <trkpt lat="49.90578" lon="3.8572">
        <ele>123.67</ele>
        <time>2021-08-08T10:28:32Z</time>
      </trkpt>
      <trkpt lat="49.90577" lon="3.85739">
        <ele>123.67</ele>
        <time>2021-08-08T10:28:37Z</time>
      </trkpt>
      <trkpt lat="49.90572" lon="3.8578">
        <ele>123.67</ele>
        <time>2021-08-08T10:28:46Z</time>
      </trkpt>
      <trkpt lat="49.90563" lon="3.85826">
        <ele>123.67</ele>
        <time>2021-08-08T10:28:55Z</time>
      </trkpt>
      <trkpt lat="49.9055" lon="3.85875">
        <ele>123.67</ele>
        <time>2021-08-08T10:29:04Z</time>
      </trkpt>
      <trkpt lat="49.90538" lon="3.85909">
        <ele>123.67</ele>
        <time>2021-08-08T10:29:11Z</time>
      </trkpt>
      <trkpt lat="49.90522" lon="3.85945">
        <ele>124.15</ele>
        <time>2021-08-08T10:29:18Z</time>
      </trkpt>
      <trkpt lat="49.90501" lon="3.8598">
        <ele>124.63</ele>
        <time>2021-08-08T10:29:26Z</time>
      </trkpt>
      <trkpt lat="49.90483" lon="3.8601">
        <ele>124.63</ele>
        <time>2021-08-08T10:29:32Z</time>
      </trkpt>
      <trkpt lat="49.90463" lon="3.86044">
        <ele>125.11</ele>
        <time>2021-08-08T10:29:39Z</time>
      </trkpt>
      <trkpt lat="49.90444" lon="3.86083">
        <ele>125.11</ele>
        <time>2021-08-08T10:29:47Z</time>
      </trkpt>
      <trkpt lat="49.90428" lon="3.86122">
        <ele>125.11</ele>
        <time>2021-08-08T10:29:54Z</time>
      </trkpt>
      <trkpt lat="49.9041" lon="3.86188">
        <ele>126.07</ele>
        <time>2021-08-08T10:30:05Z</time>
      </trkpt>
      <trkpt lat="49.90399" lon="3.86234">
        <ele>126.07</ele>
        <time>2021-08-08T10:30:13Z</time>
      </trkpt>
      <trkpt lat="49.90386" lon="3.86291">
        <ele>126.07</ele>
        <time>2021-08-08T10:30:22Z</time>
      </trkpt>
      <trkpt lat="49.90374" lon="3.8634">
        <ele>126.07</ele>
        <time>2021-08-08T10:30:30Z</time>
      </trkpt>
      <trkpt lat="49.90357" lon="3.86405">
        <ele>126.07</ele>
        <time>2021-08-08T10:30:41Z</time>
      </trkpt>
      <trkpt lat="49.9034" lon="3.86471">
        <ele>126.55</ele>
        <time>2021-08-08T10:30:52Z</time>
      </trkpt>
      <trkpt lat="49.90325" lon="3.86533">
        <ele>126.55</ele>
        <time>2021-08-08T10:31:02Z</time>
      </trkpt>
      <trkpt lat="49.90309" lon="3.86594">
        <ele>127.03</ele>
        <time>2021-08-08T10:31:12Z</time>
      </trkpt>
      <trkpt lat="49.90291" lon="3.86662">
        <ele>127.03</ele>
        <time>2021-08-08T10:31:23Z</time>
      </trkpt>
      <trkpt lat="49.90273" lon="3.86739">
        <ele>127.51</ele>
        <time>2021-08-08T10:31:35Z</time>
      </trkpt>
      <trkpt lat="49.90257" lon="3.86797">
        <ele>127.99</ele>
        <time>2021-08-08T10:31:44Z</time>
      </trkpt>
      <trkpt lat="49.90237" lon="3.86875">
        <ele>127.99</ele>
        <time>2021-08-08T10:31:56Z</time>
      </trkpt>
      <trkpt lat="49.9022" lon="3.86942">
        <ele>128.47</ele>
        <time>2021-08-08T10:32:06Z</time>
      </trkpt>
      <trkpt lat="49.90204" lon="3.87001">
        <ele>127.03</ele>
        <time>2021-08-08T10:32:14Z</time>
      </trkpt>
      <trkpt lat="49.90189" lon="3.87052">
        <ele>126.55</ele>
        <time>2021-08-08T10:32:21Z</time>
      </trkpt>
      <trkpt lat="49.90167" lon="3.87109">
        <ele>126.07</ele>
        <time>2021-08-08T10:32:29Z</time>
      </trkpt>
      <trkpt lat="49.90134" lon="3.87177">
        <ele>125.11</ele>
        <time>2021-08-08T10:32:39Z</time>
      </trkpt>
      <trkpt lat="49.90103" lon="3.87235">
        <ele>124.63</ele>
        <time>2021-08-08T10:32:47Z</time>
      </trkpt>
      <trkpt lat="49.90072" lon="3.87294">
        <ele>123.67</ele>
        <time>2021-08-08T10:32:56Z</time>
      </trkpt>
      <trkpt lat="49.90056" lon="3.87336">
        <ele>123.67</ele>
        <time>2021-08-08T10:33:02Z</time>
      </trkpt>
      <trkpt lat="49.9005" lon="3.87356">
        <ele>123.67</ele>
        <time>2021-08-08T10:33:06Z</time>
      </trkpt>
      <trkpt lat="49.90049" lon="3.87358">
        <ele>124.15</ele>
        <time>2021-08-08T10:33:07Z</time>
      </trkpt>
      <trkpt lat="49.90047" lon="3.87358">
        <ele>125.11</ele>
        <time>2021-08-08T10:33:08Z</time>
      </trkpt>
      <trkpt lat="49.90046" lon="3.87358">
        <ele>125.11</ele>
        <time>2021-08-08T10:33:09Z</time>
      </trkpt>
      <trkpt lat="49.90038" lon="3.87359">
        <ele>128.47</ele>
        <time>2021-08-08T10:33:17Z</time>
      </trkpt>
      <trkpt lat="49.90034" lon="3.8736">
        <ele>129.43</ele>
        <time>2021-08-08T10:33:21Z</time>
      </trkpt>
      <trkpt lat="49.90027" lon="3.87359">
        <ele>131.36</ele>
        <time>2021-08-08T10:33:25Z</time>
      </trkpt>
      <trkpt lat="49.90026" lon="3.87358">
        <ele>132.32</ele>
        <time>2021-08-08T10:33:26Z</time>
      </trkpt>
      <trkpt lat="49.90026" lon="3.87356">
        <ele>132.32</ele>
        <time>2021-08-08T10:33:27Z</time>
      </trkpt>
      <trkpt lat="49.90019" lon="3.87347">
        <ele>132.8</ele>
        <time>2021-08-08T10:33:34Z</time>
      </trkpt>
      <trkpt lat="49.90018" lon="3.87346">
        <ele>132.8</ele>
        <time>2021-08-08T10:33:45Z</time>
      </trkpt>
      <trkpt lat="49.90018" lon="3.87346">
        <ele>132.8</ele>
        <time>2021-08-08T10:34:01Z</time>
      </trkpt>
      <trkpt lat="49.90017" lon="3.87346">
        <ele>132.8</ele>
        <time>2021-08-08T10:34:15Z</time>
      </trkpt>
      <trkpt lat="49.90015" lon="3.87344">
        <ele>132.8</ele>
        <time>2021-08-08T10:34:21Z</time>
      </trkpt>
      <trkpt lat="49.90014" lon="3.87344">
        <ele>132.8</ele>
        <time>2021-08-08T10:34:22Z</time>
      </trkpt>
      <trkpt lat="49.90013" lon="3.87343">
        <ele>132.8</ele>
        <time>2021-08-08T10:34:23Z</time>
      </trkpt>
      <trkpt lat="49.90012" lon="3.87343">
        <ele>132.8</ele>
        <time>2021-08-08T10:34:24Z</time>
      </trkpt>
      <trkpt lat="49.90011" lon="3.87343">
        <ele>133.76</ele>
        <time>2021-08-08T10:34:25Z</time>
      </trkpt>
      <trkpt lat="49.90009" lon="3.87342">
        <ele>133.76</ele>
        <time>2021-08-08T10:34:26Z</time>
      </trkpt>
      <trkpt lat="49.90008" lon="3.87341">
        <ele>133.76</ele>
        <time>2021-08-08T10:34:27Z</time>
      </trkpt>
      <trkpt lat="49.90007" lon="3.8734">
        <ele>134.72</ele>
        <time>2021-08-08T10:34:28Z</time>
      </trkpt>
      <trkpt lat="49.90006" lon="3.87339">
        <ele>134.24</ele>
        <time>2021-08-08T10:34:29Z</time>
      </trkpt>
      <trkpt lat="49.90004" lon="3.87338">
        <ele>134.24</ele>
        <time>2021-08-08T10:34:30Z</time>
      </trkpt>
      <trkpt lat="49.90003" lon="3.87337">
        <ele>134.72</ele>
        <time>2021-08-08T10:34:31Z</time>
      </trkpt>
      <trkpt lat="49.90001" lon="3.87336">
        <ele>135.2</ele>
        <time>2021-08-08T10:34:32Z</time>
      </trkpt>
      <trkpt lat="49.9" lon="3.87336">
        <ele>135.2</ele>
        <time>2021-08-08T10:34:33Z</time>
      </trkpt>
      <trkpt lat="49.89998" lon="3.87335">
        <ele>135.68</ele>
        <time>2021-08-08T10:34:34Z</time>
      </trkpt>
      <trkpt lat="49.89997" lon="3.87334">
        <ele>135.68</ele>
        <time>2021-08-08T10:34:35Z</time>
      </trkpt>
      <trkpt lat="49.89995" lon="3.87333">
        <ele>136.64</ele>
        <time>2021-08-08T10:34:36Z</time>
      </trkpt>
      <trkpt lat="49.89994" lon="3.87332">
        <ele>136.64</ele>
        <time>2021-08-08T10:34:37Z</time>
      </trkpt>
      <trkpt lat="49.89992" lon="3.87331">
        <ele>137.13</ele>
        <time>2021-08-08T10:34:38Z</time>
      </trkpt>
      <trkpt lat="49.89991" lon="3.8733">
        <ele>137.13</ele>
        <time>2021-08-08T10:34:39Z</time>
      </trkpt>
      <trkpt lat="49.89985" lon="3.87326">
        <ele>138.09</ele>
        <time>2021-08-08T10:34:43Z</time>
      </trkpt>
      <trkpt lat="49.89984" lon="3.87326">
        <ele>138.09</ele>
        <time>2021-08-08T10:34:44Z</time>
      </trkpt>
      <trkpt lat="49.89974" lon="3.87321">
        <ele>139.53</ele>
        <time>2021-08-08T10:34:51Z</time>
      </trkpt>
      <trkpt lat="49.89973" lon="3.87321">
        <ele>139.53</ele>
        <time>2021-08-08T10:34:52Z</time>
      </trkpt>
      <trkpt lat="49.89967" lon="3.8732">
        <ele>141.45</ele>
        <time>2021-08-08T10:34:58Z</time>
      </trkpt>
      <trkpt lat="49.89958" lon="3.87319">
        <ele>143.37</ele>
        <time>2021-08-08T10:35:06Z</time>
      </trkpt>
      <trkpt lat="49.8995" lon="3.87318">
        <ele>144.82</ele>
        <time>2021-08-08T10:35:13Z</time>
      </trkpt>
      <trkpt lat="49.89945" lon="3.87317">
        <ele>146.26</ele>
        <time>2021-08-08T10:35:17Z</time>
      </trkpt>
      <trkpt lat="49.89944" lon="3.87317">
        <ele>146.26</ele>
        <time>2021-08-08T10:35:18Z</time>
      </trkpt>
      <trkpt lat="49.8993" lon="3.87316">
        <ele>148.18</ele>
        <time>2021-08-08T10:35:29Z</time>
      </trkpt>
      <trkpt lat="49.89924" lon="3.87316">
        <ele>149.62</ele>
        <time>2021-08-08T10:35:34Z</time>
      </trkpt>
      <trkpt lat="49.89923" lon="3.87316">
        <ele>149.62</ele>
        <time>2021-08-08T10:35:35Z</time>
      </trkpt>
      <trkpt lat="49.89913" lon="3.87315">
        <ele>151.54</ele>
        <time>2021-08-08T10:35:43Z</time>
      </trkpt>
      <trkpt lat="49.89912" lon="3.87314">
        <ele>152.03</ele>
        <time>2021-08-08T10:35:44Z</time>
      </trkpt>
      <trkpt lat="49.89911" lon="3.87314">
        <ele>152.03</ele>
        <time>2021-08-08T10:35:45Z</time>
      </trkpt>
      <trkpt lat="49.8991" lon="3.87314">
        <ele>152.03</ele>
        <time>2021-08-08T10:35:46Z</time>
      </trkpt>
      <trkpt lat="49.89909" lon="3.87314">
        <ele>152.03</ele>
        <time>2021-08-08T10:35:47Z</time>
      </trkpt>
      <trkpt lat="49.89901" lon="3.87314">
        <ele>153.47</ele>
        <time>2021-08-08T10:35:54Z</time>
      </trkpt>
      <trkpt lat="49.89899" lon="3.87315">
        <ele>153.95</ele>
        <time>2021-08-08T10:35:56Z</time>
      </trkpt>
      <trkpt lat="49.89896" lon="3.87319">
        <ele>154.43</ele>
        <time>2021-08-08T10:35:59Z</time>
      </trkpt>
      <trkpt lat="49.89895" lon="3.87321">
        <ele>154.43</ele>
        <time>2021-08-08T10:36:00Z</time>
      </trkpt>
      <trkpt lat="49.89894" lon="3.87322">
        <ele>154.91</ele>
        <time>2021-08-08T10:36:01Z</time>
      </trkpt>
      <trkpt lat="49.89893" lon="3.87324">
        <ele>154.91</ele>
        <time>2021-08-08T10:36:02Z</time>
      </trkpt>
      <trkpt lat="49.89892" lon="3.87326">
        <ele>154.91</ele>
        <time>2021-08-08T10:36:03Z</time>
      </trkpt>
      <trkpt lat="49.89891" lon="3.87327">
        <ele>154.91</ele>
        <time>2021-08-08T10:36:04Z</time>
      </trkpt>
      <trkpt lat="49.8989" lon="3.87329">
        <ele>154.91</ele>
        <time>2021-08-08T10:36:05Z</time>
      </trkpt>
      <trkpt lat="49.89889" lon="3.8733">
        <ele>155.39</ele>
        <time>2021-08-08T10:36:06Z</time>
      </trkpt>
      <trkpt lat="49.89879" lon="3.87345">
        <ele>155.87</ele>
        <time>2021-08-08T10:36:15Z</time>
      </trkpt>
      <trkpt lat="49.89875" lon="3.8735">
        <ele>156.83</ele>
        <time>2021-08-08T10:36:18Z</time>
      </trkpt>
      <trkpt lat="49.89873" lon="3.87351">
        <ele>156.83</ele>
        <time>2021-08-08T10:36:19Z</time>
      </trkpt>
      <trkpt lat="49.89872" lon="3.87352">
        <ele>157.31</ele>
        <time>2021-08-08T10:36:20Z</time>
      </trkpt>
      <trkpt lat="49.89871" lon="3.87354">
        <ele>157.31</ele>
        <time>2021-08-08T10:36:21Z</time>
      </trkpt>
      <trkpt lat="49.89869" lon="3.87355">
        <ele>157.31</ele>
        <time>2021-08-08T10:36:22Z</time>
      </trkpt>
      <trkpt lat="49.89868" lon="3.87355">
        <ele>157.79</ele>
        <time>2021-08-08T10:36:23Z</time>
      </trkpt>
      <trkpt lat="49.89859" lon="3.87357">
        <ele>158.75</ele>
        <time>2021-08-08T10:36:30Z</time>
      </trkpt>
      <trkpt lat="49.89852" lon="3.87356">
        <ele>160.2</ele>
        <time>2021-08-08T10:36:36Z</time>
      </trkpt>
      <trkpt lat="49.8985" lon="3.87356">
        <ele>160.68</ele>
        <time>2021-08-08T10:36:38Z</time>
      </trkpt>
      <trkpt lat="49.89849" lon="3.87355">
        <ele>161.16</ele>
        <time>2021-08-08T10:36:39Z</time>
      </trkpt>
      <trkpt lat="49.89848" lon="3.87355">
        <ele>161.16</ele>
        <time>2021-08-08T10:36:40Z</time>
      </trkpt>
      <trkpt lat="49.89846" lon="3.87355">
        <ele>161.64</ele>
        <time>2021-08-08T10:36:41Z</time>
      </trkpt>
      <trkpt lat="49.89845" lon="3.87354">
        <ele>161.64</ele>
        <time>2021-08-08T10:36:42Z</time>
      </trkpt>
      <trkpt lat="49.89844" lon="3.87354">
        <ele>161.64</ele>
        <time>2021-08-08T10:36:43Z</time>
      </trkpt>
      <trkpt lat="49.89836" lon="3.87352">
        <ele>163.56</ele>
        <time>2021-08-08T10:36:50Z</time>
      </trkpt>
      <trkpt lat="49.89829" lon="3.8735">
        <ele>164.52</ele>
        <time>2021-08-08T10:36:57Z</time>
      </trkpt>
      <trkpt lat="49.89822" lon="3.8735">
        <ele>165.96</ele>
        <time>2021-08-08T10:37:04Z</time>
      </trkpt>
      <trkpt lat="49.89821" lon="3.87351">
        <ele>165.96</ele>
        <time>2021-08-08T10:37:05Z</time>
      </trkpt>
      <trkpt lat="49.8982" lon="3.87352">
        <ele>165.96</ele>
        <time>2021-08-08T10:37:06Z</time>
      </trkpt>
      <trkpt lat="49.89813" lon="3.87372">
        <ele>166.45</ele>
        <time>2021-08-08T10:37:15Z</time>
      </trkpt>
      <trkpt lat="49.89804" lon="3.87397">
        <ele>167.89</ele>
        <time>2021-08-08T10:37:23Z</time>
      </trkpt>
      <trkpt lat="49.898" lon="3.87411">
        <ele>168.37</ele>
        <time>2021-08-08T10:37:27Z</time>
      </trkpt>
      <trkpt lat="49.89799" lon="3.87414">
        <ele>168.37</ele>
        <time>2021-08-08T10:37:28Z</time>
      </trkpt>
      <trkpt lat="49.89798" lon="3.87417">
        <ele>168.37</ele>
        <time>2021-08-08T10:37:29Z</time>
      </trkpt>
      <trkpt lat="49.89797" lon="3.8742">
        <ele>168.37</ele>
        <time>2021-08-08T10:37:30Z</time>
      </trkpt>
      <trkpt lat="49.89797" lon="3.87424">
        <ele>168.37</ele>
        <time>2021-08-08T10:37:31Z</time>
      </trkpt>
      <trkpt lat="49.89796" lon="3.87428">
        <ele>168.37</ele>
        <time>2021-08-08T10:37:32Z</time>
      </trkpt>
      <trkpt lat="49.89795" lon="3.87439">
        <ele>168.37</ele>
        <time>2021-08-08T10:37:35Z</time>
      </trkpt>
      <trkpt lat="49.89791" lon="3.87449">
        <ele>168.85</ele>
        <time>2021-08-08T10:37:38Z</time>
      </trkpt>
      <trkpt lat="49.89783" lon="3.87473">
        <ele>169.33</ele>
        <time>2021-08-08T10:37:44Z</time>
      </trkpt>
      <trkpt lat="49.89778" lon="3.87504">
        <ele>169.33</ele>
        <time>2021-08-08T10:37:53Z</time>
      </trkpt>
      <trkpt lat="49.89774" lon="3.87528">
        <ele>170.77</ele>
        <time>2021-08-08T10:37:59Z</time>
      </trkpt>
      <trkpt lat="49.89768" lon="3.87561">
        <ele>171.73</ele>
        <time>2021-08-08T10:38:07Z</time>
      </trkpt>
      <trkpt lat="49.89768" lon="3.8759">
        <ele>172.69</ele>
        <time>2021-08-08T10:38:13Z</time>
      </trkpt>
      <trkpt lat="49.89765" lon="3.87615">
        <ele>173.17</ele>
        <time>2021-08-08T10:38:19Z</time>
      </trkpt>
      <trkpt lat="49.89761" lon="3.8763">
        <ele>175.1</ele>
        <time>2021-08-08T10:38:26Z</time>
      </trkpt>
      <trkpt lat="49.89758" lon="3.87637">
        <ele>175.58</ele>
        <time>2021-08-08T10:38:29Z</time>
      </trkpt>
      <trkpt lat="49.89756" lon="3.87639">
        <ele>175.58</ele>
        <time>2021-08-08T10:38:30Z</time>
      </trkpt>
      <trkpt lat="49.89754" lon="3.8764">
        <ele>175.58</ele>
        <time>2021-08-08T10:38:31Z</time>
      </trkpt>
      <trkpt lat="49.89751" lon="3.87642">
        <ele>176.06</ele>
        <time>2021-08-08T10:38:32Z</time>
      </trkpt>
      <trkpt lat="49.89749" lon="3.87644">
        <ele>176.54</ele>
        <time>2021-08-08T10:38:33Z</time>
      </trkpt>
      <trkpt lat="49.89748" lon="3.87645">
        <ele>176.54</ele>
        <time>2021-08-08T10:38:34Z</time>
      </trkpt>
      <trkpt lat="49.89745" lon="3.87647">
        <ele>177.02</ele>
        <time>2021-08-08T10:38:35Z</time>
      </trkpt>
      <trkpt lat="49.89735" lon="3.87664">
        <ele>178.94</ele>
        <time>2021-08-08T10:38:43Z</time>
      </trkpt>
      <trkpt lat="49.89732" lon="3.87678">
        <ele>179.9</ele>
        <time>2021-08-08T10:38:50Z</time>
      </trkpt>
      <trkpt lat="49.89725" lon="3.87698">
        <ele>180.38</ele>
        <time>2021-08-08T10:38:57Z</time>
      </trkpt>
      <trkpt lat="49.89722" lon="3.87715">
        <ele>181.35</ele>
        <time>2021-08-08T10:39:03Z</time>
      </trkpt>
      <trkpt lat="49.89722" lon="3.87731">
        <ele>181.35</ele>
        <time>2021-08-08T10:39:08Z</time>
      </trkpt>
      <trkpt lat="49.8972" lon="3.87758">
        <ele>181.35</ele>
        <time>2021-08-08T10:39:14Z</time>
      </trkpt>
      <trkpt lat="49.89715" lon="3.87816">
        <ele>181.83</ele>
        <time>2021-08-08T10:39:24Z</time>
      </trkpt>
      <trkpt lat="49.89709" lon="3.87856">
        <ele>182.31</ele>
        <time>2021-08-08T10:39:31Z</time>
      </trkpt>
      <trkpt lat="49.89692" lon="3.87894">
        <ele>183.27</ele>
        <time>2021-08-08T10:39:39Z</time>
      </trkpt>
      <trkpt lat="49.89675" lon="3.87932">
        <ele>184.71</ele>
        <time>2021-08-08T10:39:47Z</time>
      </trkpt>
      <trkpt lat="49.8966" lon="3.8796">
        <ele>185.67</ele>
        <time>2021-08-08T10:39:55Z</time>
      </trkpt>
      <trkpt lat="49.89643" lon="3.87991">
        <ele>186.15</ele>
        <time>2021-08-08T10:40:04Z</time>
      </trkpt>
      <trkpt lat="49.89622" lon="3.88029">
        <ele>187.11</ele>
        <time>2021-08-08T10:40:15Z</time>
      </trkpt>
      <trkpt lat="49.89601" lon="3.88066">
        <ele>187.59</ele>
        <time>2021-08-08T10:40:26Z</time>
      </trkpt>
      <trkpt lat="49.89575" lon="3.88099">
        <ele>189.52</ele>
        <time>2021-08-08T10:40:38Z</time>
      </trkpt>
      <trkpt lat="49.89557" lon="3.88123">
        <ele>190</ele>
        <time>2021-08-08T10:40:47Z</time>
      </trkpt>
      <trkpt lat="49.89543" lon="3.88145">
        <ele>191.44</ele>
        <time>2021-08-08T10:40:55Z</time>
      </trkpt>
      <trkpt lat="49.89532" lon="3.88171">
        <ele>192.4</ele>
        <time>2021-08-08T10:41:03Z</time>
      </trkpt>
      <trkpt lat="49.89522" lon="3.88199">
        <ele>192.88</ele>
        <time>2021-08-08T10:41:11Z</time>
      </trkpt>
      <trkpt lat="49.89512" lon="3.8823">
        <ele>193.84</ele>
        <time>2021-08-08T10:41:20Z</time>
      </trkpt>
      <trkpt lat="49.89501" lon="3.88267">
        <ele>194.32</ele>
        <time>2021-08-08T10:41:30Z</time>
      </trkpt>
      <trkpt lat="49.89488" lon="3.88298">
        <ele>194.8</ele>
        <time>2021-08-08T10:41:38Z</time>
      </trkpt>
      <trkpt lat="49.8947" lon="3.88332">
        <ele>194.8</ele>
        <time>2021-08-08T10:41:47Z</time>
      </trkpt>
      <trkpt lat="49.89454" lon="3.88362">
        <ele>195.28</ele>
        <time>2021-08-08T10:41:55Z</time>
      </trkpt>
      <trkpt lat="49.8944" lon="3.88384">
        <ele>194.32</ele>
        <time>2021-08-08T10:42:01Z</time>
      </trkpt>
      <trkpt lat="49.89433" lon="3.88398">
        <ele>195.28</ele>
        <time>2021-08-08T10:42:04Z</time>
      </trkpt>
      <trkpt lat="49.89416" lon="3.88421">
        <ele>193.84</ele>
        <time>2021-08-08T10:42:11Z</time>
      </trkpt>
      <trkpt lat="49.89399" lon="3.88443">
        <ele>193.84</ele>
        <time>2021-08-08T10:42:17Z</time>
      </trkpt>
      <trkpt lat="49.89379" lon="3.88471">
        <ele>193.36</ele>
        <time>2021-08-08T10:42:24Z</time>
      </trkpt>
      <trkpt lat="49.89356" lon="3.88495">
        <ele>192.4</ele>
        <time>2021-08-08T10:42:31Z</time>
      </trkpt>
      <trkpt lat="49.89334" lon="3.88505">
        <ele>192.88</ele>
        <time>2021-08-08T10:42:37Z</time>
      </trkpt>
      <trkpt lat="49.89316" lon="3.88534">
        <ele>192.88</ele>
        <time>2021-08-08T10:42:44Z</time>
      </trkpt>
      <trkpt lat="49.89313" lon="3.88544">
        <ele>193.84</ele>
        <time>2021-08-08T10:42:46Z</time>
      </trkpt>
      <trkpt lat="49.89305" lon="3.88583">
        <ele>194.8</ele>
        <time>2021-08-08T10:42:53Z</time>
      </trkpt>
      <trkpt lat="49.89302" lon="3.88587">
        <ele>194.8</ele>
        <time>2021-08-08T10:42:54Z</time>
      </trkpt>
      <trkpt lat="49.89299" lon="3.88591">
        <ele>194.8</ele>
        <time>2021-08-08T10:42:55Z</time>
      </trkpt>
      <trkpt lat="49.89295" lon="3.88593">
        <ele>194.8</ele>
        <time>2021-08-08T10:42:56Z</time>
      </trkpt>
      <trkpt lat="49.89291" lon="3.88595">
        <ele>194.8</ele>
        <time>2021-08-08T10:42:57Z</time>
      </trkpt>
      <trkpt lat="49.89287" lon="3.88596">
        <ele>194.8</ele>
        <time>2021-08-08T10:42:58Z</time>
      </trkpt>
      <trkpt lat="49.89282" lon="3.88597">
        <ele>194.8</ele>
        <time>2021-08-08T10:42:59Z</time>
      </trkpt>
      <trkpt lat="49.89244" lon="3.88611">
        <ele>196.73</ele>
        <time>2021-08-08T10:43:08Z</time>
      </trkpt>
      <trkpt lat="49.89235" lon="3.88614">
        <ele>195.28</ele>
        <time>2021-08-08T10:43:10Z</time>
      </trkpt>
      <trkpt lat="49.89188" lon="3.88631">
        <ele>195.77</ele>
        <time>2021-08-08T10:43:20Z</time>
      </trkpt>
      <trkpt lat="49.89146" lon="3.88642">
        <ele>195.77</ele>
        <time>2021-08-08T10:43:29Z</time>
      </trkpt>
      <trkpt lat="49.89142" lon="3.88641">
        <ele>195.77</ele>
        <time>2021-08-08T10:43:30Z</time>
      </trkpt>
      <trkpt lat="49.89132" lon="3.88639">
        <ele>195.77</ele>
        <time>2021-08-08T10:43:32Z</time>
      </trkpt>
      <trkpt lat="49.89127" lon="3.88637">
        <ele>195.77</ele>
        <time>2021-08-08T10:43:33Z</time>
      </trkpt>
      <trkpt lat="49.89123" lon="3.88635">
        <ele>195.77</ele>
        <time>2021-08-08T10:43:34Z</time>
      </trkpt>
      <trkpt lat="49.89118" lon="3.88632">
        <ele>195.77</ele>
        <time>2021-08-08T10:43:35Z</time>
      </trkpt>
      <trkpt lat="49.89115" lon="3.88628">
        <ele>195.77</ele>
        <time>2021-08-08T10:43:36Z</time>
      </trkpt>
      <trkpt lat="49.89111" lon="3.88625">
        <ele>195.77</ele>
        <time>2021-08-08T10:43:37Z</time>
      </trkpt>
      <trkpt lat="49.89093" lon="3.88606">
        <ele>196.25</ele>
        <time>2021-08-08T10:43:42Z</time>
      </trkpt>
      <trkpt lat="49.89089" lon="3.88603">
        <ele>196.25</ele>
        <time>2021-08-08T10:43:43Z</time>
      </trkpt>
      <trkpt lat="49.89085" lon="3.88601">
        <ele>196.25</ele>
        <time>2021-08-08T10:43:44Z</time>
      </trkpt>
      <trkpt lat="49.89081" lon="3.88599">
        <ele>197.21</ele>
        <time>2021-08-08T10:43:45Z</time>
      </trkpt>
      <trkpt lat="49.89077" lon="3.88598">
        <ele>197.21</ele>
        <time>2021-08-08T10:43:46Z</time>
      </trkpt>
      <trkpt lat="49.89073" lon="3.88597">
        <ele>197.21</ele>
        <time>2021-08-08T10:43:47Z</time>
      </trkpt>
      <trkpt lat="49.89068" lon="3.88597">
        <ele>197.21</ele>
        <time>2021-08-08T10:43:48Z</time>
      </trkpt>
      <trkpt lat="49.89025" lon="3.88596">
        <ele>195.77</ele>
        <time>2021-08-08T10:43:58Z</time>
      </trkpt>
      <trkpt lat="49.88987" lon="3.88595">
        <ele>197.69</ele>
        <time>2021-08-08T10:44:07Z</time>
      </trkpt>
      <trkpt lat="49.88941" lon="3.88594">
        <ele>199.13</ele>
        <time>2021-08-08T10:44:18Z</time>
      </trkpt>
      <trkpt lat="49.88933" lon="3.88594">
        <ele>199.13</ele>
        <time>2021-08-08T10:44:20Z</time>
      </trkpt>
      <trkpt lat="49.88928" lon="3.88594">
        <ele>199.61</ele>
        <time>2021-08-08T10:44:21Z</time>
      </trkpt>
      <trkpt lat="49.88892" lon="3.88611">
        <ele>201.53</ele>
        <time>2021-08-08T10:44:31Z</time>
      </trkpt>
      <trkpt lat="49.88864" lon="3.88638">
        <ele>202.49</ele>
        <time>2021-08-08T10:44:40Z</time>
      </trkpt>
      <trkpt lat="49.88833" lon="3.88668">
        <ele>203.94</ele>
        <time>2021-08-08T10:44:50Z</time>
      </trkpt>
      <trkpt lat="49.88799" lon="3.887">
        <ele>201.05</ele>
        <time>2021-08-08T10:44:58Z</time>
      </trkpt>
      <trkpt lat="49.88754" lon="3.88741">
        <ele>200.57</ele>
        <time>2021-08-08T10:45:08Z</time>
      </trkpt>
      <trkpt lat="49.88725" lon="3.88758">
        <ele>200.57</ele>
        <time>2021-08-08T10:45:15Z</time>
      </trkpt>
      <trkpt lat="49.8872" lon="3.8876">
        <ele>200.57</ele>
        <time>2021-08-08T10:45:16Z</time>
      </trkpt>
      <trkpt lat="49.88684" lon="3.88768">
        <ele>200.57</ele>
        <time>2021-08-08T10:45:24Z</time>
      </trkpt>
      <trkpt lat="49.88667" lon="3.88771">
        <ele>200.09</ele>
        <time>2021-08-08T10:45:28Z</time>
      </trkpt>
      <trkpt lat="49.88663" lon="3.88772">
        <ele>200.09</ele>
        <time>2021-08-08T10:45:29Z</time>
      </trkpt>
      <trkpt lat="49.88659" lon="3.88772">
        <ele>200.09</ele>
        <time>2021-08-08T10:45:30Z</time>
      </trkpt>
      <trkpt lat="49.88656" lon="3.88772">
        <ele>201.53</ele>
        <time>2021-08-08T10:45:31Z</time>
      </trkpt>
      <trkpt lat="49.88652" lon="3.88773">
        <ele>201.53</ele>
        <time>2021-08-08T10:45:32Z</time>
      </trkpt>
      <trkpt lat="49.88649" lon="3.88773">
        <ele>201.53</ele>
        <time>2021-08-08T10:45:33Z</time>
      </trkpt>
      <trkpt lat="49.88645" lon="3.88773">
        <ele>201.53</ele>
        <time>2021-08-08T10:45:34Z</time>
      </trkpt>
      <trkpt lat="49.88612" lon="3.88775">
        <ele>202.01</ele>
        <time>2021-08-08T10:45:43Z</time>
      </trkpt>
      <trkpt lat="49.88562" lon="3.88781">
        <ele>202.49</ele>
        <time>2021-08-08T10:45:55Z</time>
      </trkpt>
      <trkpt lat="49.88507" lon="3.88787">
        <ele>204.42</ele>
        <time>2021-08-08T10:46:08Z</time>
      </trkpt>
      <trkpt lat="49.8847" lon="3.88803">
        <ele>205.38</ele>
        <time>2021-08-08T10:46:18Z</time>
      </trkpt>
      <trkpt lat="49.8847" lon="3.88807">
        <ele>205.38</ele>
        <time>2021-08-08T10:46:19Z</time>
      </trkpt>
      <trkpt lat="49.8847" lon="3.88813">
        <ele>205.38</ele>
        <time>2021-08-08T10:46:20Z</time>
      </trkpt>
      <trkpt lat="49.88471" lon="3.88816">
        <ele>205.86</ele>
        <time>2021-08-08T10:46:21Z</time>
      </trkpt>
      <trkpt lat="49.88474" lon="3.88821">
        <ele>205.86</ele>
        <time>2021-08-08T10:46:22Z</time>
      </trkpt>
      <trkpt lat="49.88476" lon="3.88824">
        <ele>206.34</ele>
        <time>2021-08-08T10:46:23Z</time>
      </trkpt>
      <trkpt lat="49.885" lon="3.88847">
        <ele>206.82</ele>
        <time>2021-08-08T10:46:30Z</time>
      </trkpt>
      <trkpt lat="49.88519" lon="3.88864">
        <ele>205.86</ele>
        <time>2021-08-08T10:46:34Z</time>
      </trkpt>
      <trkpt lat="49.88552" lon="3.88893">
        <ele>203.94</ele>
        <time>2021-08-08T10:46:40Z</time>
      </trkpt>
      <trkpt lat="49.88599" lon="3.88938">
        <ele>202.49</ele>
        <time>2021-08-08T10:46:48Z</time>
      </trkpt>
      <trkpt lat="49.88644" lon="3.88974">
        <ele>200.57</ele>
        <time>2021-08-08T10:46:55Z</time>
      </trkpt>
      <trkpt lat="49.88705" lon="3.89016">
        <ele>199.13</ele>
        <time>2021-08-08T10:47:04Z</time>
      </trkpt>
      <trkpt lat="49.88767" lon="3.89068">
        <ele>198.65</ele>
        <time>2021-08-08T10:47:14Z</time>
      </trkpt>
      <trkpt lat="49.88808" lon="3.8911">
        <ele>199.13</ele>
        <time>2021-08-08T10:47:22Z</time>
      </trkpt>
      <trkpt lat="49.88812" lon="3.89116">
        <ele>199.13</ele>
        <time>2021-08-08T10:47:23Z</time>
      </trkpt>
      <trkpt lat="49.88816" lon="3.89125">
        <ele>199.13</ele>
        <time>2021-08-08T10:47:24Z</time>
      </trkpt>
      <trkpt lat="49.88819" lon="3.89132">
        <ele>199.13</ele>
        <time>2021-08-08T10:47:25Z</time>
      </trkpt>
      <trkpt lat="49.88822" lon="3.89141">
        <ele>199.13</ele>
        <time>2021-08-08T10:47:26Z</time>
      </trkpt>
      <trkpt lat="49.88835" lon="3.89181">
        <ele>200.57</ele>
        <time>2021-08-08T10:47:31Z</time>
      </trkpt>
      <trkpt lat="49.8885" lon="3.89229">
        <ele>201.05</ele>
        <time>2021-08-08T10:47:38Z</time>
      </trkpt>
      <trkpt lat="49.8888" lon="3.8931">
        <ele>202.01</ele>
        <time>2021-08-08T10:47:49Z</time>
      </trkpt>
      <trkpt lat="49.88901" lon="3.89364">
        <ele>203.46</ele>
        <time>2021-08-08T10:47:57Z</time>
      </trkpt>
      <trkpt lat="49.88939" lon="3.89458">
        <ele>204.42</ele>
        <time>2021-08-08T10:48:12Z</time>
      </trkpt>
      <trkpt lat="49.88948" lon="3.89482">
        <ele>204.42</ele>
        <time>2021-08-08T10:48:16Z</time>
      </trkpt>
      <trkpt lat="49.88951" lon="3.89487">
        <ele>204.42</ele>
        <time>2021-08-08T10:48:17Z</time>
      </trkpt>
      <trkpt lat="49.88954" lon="3.89494">
        <ele>204.42</ele>
        <time>2021-08-08T10:48:18Z</time>
      </trkpt>
      <trkpt lat="49.88961" lon="3.8952">
        <ele>205.38</ele>
        <time>2021-08-08T10:48:22Z</time>
      </trkpt>
      <trkpt lat="49.88962" lon="3.89526">
        <ele>205.38</ele>
        <time>2021-08-08T10:48:23Z</time>
      </trkpt>
      <trkpt lat="49.88964" lon="3.89532">
        <ele>205.38</ele>
        <time>2021-08-08T10:48:24Z</time>
      </trkpt>
      <trkpt lat="49.88986" lon="3.89599">
        <ele>205.86</ele>
        <time>2021-08-08T10:48:34Z</time>
      </trkpt>
      <trkpt lat="49.89015" lon="3.89688">
        <ele>206.34</ele>
        <time>2021-08-08T10:48:47Z</time>
      </trkpt>
      <trkpt lat="49.89042" lon="3.89766">
        <ele>204.9</ele>
        <time>2021-08-08T10:48:57Z</time>
      </trkpt>
      <trkpt lat="49.89074" lon="3.89862">
        <ele>203.46</ele>
        <time>2021-08-08T10:49:08Z</time>
      </trkpt>
      <trkpt lat="49.891" lon="3.89929">
        <ele>199.61</ele>
        <time>2021-08-08T10:49:15Z</time>
      </trkpt>
      <trkpt lat="49.89104" lon="3.89938">
        <ele>199.61</ele>
        <time>2021-08-08T10:49:16Z</time>
      </trkpt>
      <trkpt lat="49.89129" lon="3.90028">
        <ele>197.69</ele>
        <time>2021-08-08T10:49:24Z</time>
      </trkpt>
      <trkpt lat="49.89161" lon="3.90124">
        <ele>195.28</ele>
        <time>2021-08-08T10:49:33Z</time>
      </trkpt>
      <trkpt lat="49.89166" lon="3.90133">
        <ele>195.28</ele>
        <time>2021-08-08T10:49:34Z</time>
      </trkpt>
      <trkpt lat="49.89181" lon="3.90158">
        <ele>194.32</ele>
        <time>2021-08-08T10:49:37Z</time>
      </trkpt>
      <trkpt lat="49.89184" lon="3.90164">
        <ele>194.32</ele>
        <time>2021-08-08T10:49:39Z</time>
      </trkpt>
      <trkpt lat="49.89185" lon="3.90163">
        <ele>194.32</ele>
        <time>2021-08-08T10:49:40Z</time>
      </trkpt>
      <trkpt lat="49.89181" lon="3.90157">
        <ele>194.32</ele>
        <time>2021-08-08T10:49:43Z</time>
      </trkpt>
      <trkpt lat="49.89179" lon="3.90154">
        <ele>194.32</ele>
        <time>2021-08-08T10:49:44Z</time>
      </trkpt>
      <trkpt lat="49.89176" lon="3.90151">
        <ele>194.32</ele>
        <time>2021-08-08T10:49:45Z</time>
      </trkpt>
      <trkpt lat="49.89173" lon="3.90149">
        <ele>194.32</ele>
        <time>2021-08-08T10:49:46Z</time>
      </trkpt>
      <trkpt lat="49.89169" lon="3.9015">
        <ele>194.32</ele>
        <time>2021-08-08T10:49:47Z</time>
      </trkpt>
      <trkpt lat="49.89165" lon="3.90152">
        <ele>194.32</ele>
        <time>2021-08-08T10:49:48Z</time>
      </trkpt>
      <trkpt lat="49.89162" lon="3.90155">
        <ele>194.32</ele>
        <time>2021-08-08T10:49:49Z</time>
      </trkpt>
      <trkpt lat="49.89158" lon="3.90158">
        <ele>195.77</ele>
        <time>2021-08-08T10:49:50Z</time>
      </trkpt>
      <trkpt lat="49.89154" lon="3.90161">
        <ele>195.77</ele>
        <time>2021-08-08T10:49:51Z</time>
      </trkpt>
      <trkpt lat="49.89128" lon="3.90178">
        <ele>196.73</ele>
        <time>2021-08-08T10:49:59Z</time>
      </trkpt>
      <trkpt lat="49.89103" lon="3.90194">
        <ele>197.69</ele>
        <time>2021-08-08T10:50:07Z</time>
      </trkpt>
      <trkpt lat="49.89066" lon="3.90215">
        <ele>197.69</ele>
        <time>2021-08-08T10:50:16Z</time>
      </trkpt>
      <trkpt lat="49.89016" lon="3.90244">
        <ele>198.17</ele>
        <time>2021-08-08T10:50:27Z</time>
      </trkpt>
      <trkpt lat="49.89001" lon="3.90252">
        <ele>196.73</ele>
        <time>2021-08-08T10:50:30Z</time>
      </trkpt>
      <trkpt lat="49.88985" lon="3.90261">
        <ele>194.8</ele>
        <time>2021-08-08T10:50:33Z</time>
      </trkpt>
      <trkpt lat="49.88969" lon="3.9027">
        <ele>197.21</ele>
        <time>2021-08-08T10:50:36Z</time>
      </trkpt>
      <trkpt lat="49.88923" lon="3.90301">
        <ele>197.21</ele>
        <time>2021-08-08T10:50:46Z</time>
      </trkpt>
      <trkpt lat="49.88894" lon="3.90319">
        <ele>197.69</ele>
        <time>2021-08-08T10:50:53Z</time>
      </trkpt>
      <trkpt lat="49.8889" lon="3.90321">
        <ele>198.65</ele>
        <time>2021-08-08T10:50:54Z</time>
      </trkpt>
      <trkpt lat="49.88861" lon="3.90339">
        <ele>199.13</ele>
        <time>2021-08-08T10:51:02Z</time>
      </trkpt>
      <trkpt lat="49.88836" lon="3.90356">
        <ele>199.61</ele>
        <time>2021-08-08T10:51:09Z</time>
      </trkpt>
      <trkpt lat="49.8881" lon="3.90372">
        <ele>201.05</ele>
        <time>2021-08-08T10:51:17Z</time>
      </trkpt>
      <trkpt lat="49.88782" lon="3.90382">
        <ele>202.49</ele>
        <time>2021-08-08T10:51:26Z</time>
      </trkpt>
      <trkpt lat="49.88761" lon="3.90383">
        <ele>202.98</ele>
        <time>2021-08-08T10:51:33Z</time>
      </trkpt>
      <trkpt lat="49.88726" lon="3.90381">
        <ele>203.94</ele>
        <time>2021-08-08T10:51:44Z</time>
      </trkpt>
      <trkpt lat="49.88691" lon="3.9039">
        <ele>203.94</ele>
        <time>2021-08-08T10:51:53Z</time>
      </trkpt>
      <trkpt lat="49.88642" lon="3.90407">
        <ele>201.05</ele>
        <time>2021-08-08T10:52:03Z</time>
      </trkpt>
      <trkpt lat="49.88626" lon="3.90412">
        <ele>200.09</ele>
        <time>2021-08-08T10:52:06Z</time>
      </trkpt>
      <trkpt lat="49.88616" lon="3.90413">
        <ele>199.13</ele>
        <time>2021-08-08T10:52:08Z</time>
      </trkpt>
      <trkpt lat="49.8861" lon="3.90417">
        <ele>198.65</ele>
        <time>2021-08-08T10:52:09Z</time>
      </trkpt>
      <trkpt lat="49.88592" lon="3.9043">
        <ele>198.17</ele>
        <time>2021-08-08T10:52:12Z</time>
      </trkpt>
      <trkpt lat="49.88581" lon="3.90438">
        <ele>198.17</ele>
        <time>2021-08-08T10:52:14Z</time>
      </trkpt>
      <trkpt lat="49.88566" lon="3.90455">
        <ele>199.61</ele>
        <time>2021-08-08T10:52:17Z</time>
      </trkpt>
      <trkpt lat="49.88537" lon="3.9048">
        <ele>201.05</ele>
        <time>2021-08-08T10:52:24Z</time>
      </trkpt>
      <trkpt lat="49.88504" lon="3.90497">
        <ele>202.01</ele>
        <time>2021-08-08T10:52:32Z</time>
      </trkpt>
      <trkpt lat="49.88476" lon="3.90503">
        <ele>203.46</ele>
        <time>2021-08-08T10:52:40Z</time>
      </trkpt>
      <trkpt lat="49.88445" lon="3.90507">
        <ele>205.38</ele>
        <time>2021-08-08T10:52:50Z</time>
      </trkpt>
      <trkpt lat="49.88425" lon="3.90513">
        <ele>205.86</ele>
        <time>2021-08-08T10:52:57Z</time>
      </trkpt>
      <trkpt lat="49.88399" lon="3.90533">
        <ele>206.34</ele>
        <time>2021-08-08T10:53:06Z</time>
      </trkpt>
      <trkpt lat="49.88371" lon="3.90576">
        <ele>207.3</ele>
        <time>2021-08-08T10:53:18Z</time>
      </trkpt>
      <trkpt lat="49.88358" lon="3.90598">
        <ele>208.74</ele>
        <time>2021-08-08T10:53:24Z</time>
      </trkpt>
      <trkpt lat="49.88343" lon="3.90629">
        <ele>209.7</ele>
        <time>2021-08-08T10:53:32Z</time>
      </trkpt>
      <trkpt lat="49.88322" lon="3.90674">
        <ele>210.67</ele>
        <time>2021-08-08T10:53:43Z</time>
      </trkpt>
      <trkpt lat="49.8831" lon="3.90712">
        <ele>210.67</ele>
        <time>2021-08-08T10:53:51Z</time>
      </trkpt>
      <trkpt lat="49.88303" lon="3.90734">
        <ele>212.11</ele>
        <time>2021-08-08T10:53:57Z</time>
      </trkpt>
      <trkpt lat="49.883" lon="3.90734">
        <ele>209.22</ele>
        <time>2021-08-08T10:53:58Z</time>
      </trkpt>
      <trkpt lat="49.88298" lon="3.90734">
        <ele>209.22</ele>
        <time>2021-08-08T10:53:59Z</time>
      </trkpt>
      <trkpt lat="49.88289" lon="3.90732">
        <ele>210.67</ele>
        <time>2021-08-08T10:54:02Z</time>
      </trkpt>
      <trkpt lat="49.88263" lon="3.90728">
        <ele>211.63</ele>
        <time>2021-08-08T10:54:10Z</time>
      </trkpt>
      <trkpt lat="49.88237" lon="3.90727">
        <ele>212.11</ele>
        <time>2021-08-08T10:54:18Z</time>
      </trkpt>
      <trkpt lat="49.88235" lon="3.90731">
        <ele>213.07</ele>
        <time>2021-08-08T10:54:19Z</time>
      </trkpt>
      <trkpt lat="49.88234" lon="3.90736">
        <ele>213.07</ele>
        <time>2021-08-08T10:54:20Z</time>
      </trkpt>
      <trkpt lat="49.88233" lon="3.90741">
        <ele>213.07</ele>
        <time>2021-08-08T10:54:21Z</time>
      </trkpt>
      <trkpt lat="49.88232" lon="3.90747">
        <ele>212.11</ele>
        <time>2021-08-08T10:54:22Z</time>
      </trkpt>
      <trkpt lat="49.88232" lon="3.90755">
        <ele>211.15</ele>
        <time>2021-08-08T10:54:23Z</time>
      </trkpt>
      <trkpt lat="49.88232" lon="3.90762">
        <ele>211.15</ele>
        <time>2021-08-08T10:54:24Z</time>
      </trkpt>
      <trkpt lat="49.88233" lon="3.90775">
        <ele>211.15</ele>
        <time>2021-08-08T10:54:26Z</time>
      </trkpt>
      <trkpt lat="49.88235" lon="3.90783">
        <ele>211.15</ele>
        <time>2021-08-08T10:54:27Z</time>
      </trkpt>
      <trkpt lat="49.88237" lon="3.9079">
        <ele>211.15</ele>
        <time>2021-08-08T10:54:28Z</time>
      </trkpt>
      <trkpt lat="49.8824" lon="3.90797">
        <ele>211.15</ele>
        <time>2021-08-08T10:54:29Z</time>
      </trkpt>
      <trkpt lat="49.88243" lon="3.90803">
        <ele>211.15</ele>
        <time>2021-08-08T10:54:30Z</time>
      </trkpt>
      <trkpt lat="49.88273" lon="3.9086">
        <ele>209.7</ele>
        <time>2021-08-08T10:54:38Z</time>
      </trkpt>
      <trkpt lat="49.88296" lon="3.90912">
        <ele>207.78</ele>
        <time>2021-08-08T10:54:44Z</time>
      </trkpt>
      <trkpt lat="49.88329" lon="3.90994">
        <ele>205.38</ele>
        <time>2021-08-08T10:54:52Z</time>
      </trkpt>
      <trkpt lat="49.8838" lon="3.91112">
        <ele>203.94</ele>
        <time>2021-08-08T10:55:03Z</time>
      </trkpt>
      <trkpt lat="49.88426" lon="3.91217">
        <ele>204.42</ele>
        <time>2021-08-08T10:55:13Z</time>
      </trkpt>
      <trkpt lat="49.88462" lon="3.91297">
        <ele>204.42</ele>
        <time>2021-08-08T10:55:21Z</time>
      </trkpt>
      <trkpt lat="49.88499" lon="3.91378">
        <ele>205.38</ele>
        <time>2021-08-08T10:55:30Z</time>
      </trkpt>
      <trkpt lat="49.88531" lon="3.91449">
        <ele>206.34</ele>
        <time>2021-08-08T10:55:39Z</time>
      </trkpt>
      <trkpt lat="49.88572" lon="3.9154">
        <ele>206.82</ele>
        <time>2021-08-08T10:55:51Z</time>
      </trkpt>
      <trkpt lat="49.88589" lon="3.91578">
        <ele>205.38</ele>
        <time>2021-08-08T10:55:56Z</time>
      </trkpt>
      <trkpt lat="49.88596" lon="3.91599">
        <ele>205.38</ele>
        <time>2021-08-08T10:55:59Z</time>
      </trkpt>
      <trkpt lat="49.88596" lon="3.91606">
        <ele>205.38</ele>
        <time>2021-08-08T10:56:00Z</time>
      </trkpt>
      <trkpt lat="49.88593" lon="3.91612">
        <ele>204.9</ele>
        <time>2021-08-08T10:56:01Z</time>
      </trkpt>
      <trkpt lat="49.8859" lon="3.91614">
        <ele>204.9</ele>
        <time>2021-08-08T10:56:02Z</time>
      </trkpt>
      <trkpt lat="49.88585" lon="3.91615">
        <ele>204.42</ele>
        <time>2021-08-08T10:56:03Z</time>
      </trkpt>
      <trkpt lat="49.88579" lon="3.91615">
        <ele>204.42</ele>
        <time>2021-08-08T10:56:04Z</time>
      </trkpt>
      <trkpt lat="49.88575" lon="3.91615">
        <ele>204.42</ele>
        <time>2021-08-08T10:56:05Z</time>
      </trkpt>
      <trkpt lat="49.88553" lon="3.91613">
        <ele>203.94</ele>
        <time>2021-08-08T10:56:09Z</time>
      </trkpt>
      <trkpt lat="49.88548" lon="3.91613">
        <ele>203.94</ele>
        <time>2021-08-08T10:56:10Z</time>
      </trkpt>
      <trkpt lat="49.88543" lon="3.91614">
        <ele>203.94</ele>
        <time>2021-08-08T10:56:11Z</time>
      </trkpt>
      <trkpt lat="49.88537" lon="3.91616">
        <ele>203.94</ele>
        <time>2021-08-08T10:56:12Z</time>
      </trkpt>
      <trkpt lat="49.88532" lon="3.91619">
        <ele>203.94</ele>
        <time>2021-08-08T10:56:13Z</time>
      </trkpt>
      <trkpt lat="49.88527" lon="3.91624">
        <ele>203.94</ele>
        <time>2021-08-08T10:56:14Z</time>
      </trkpt>
      <trkpt lat="49.88523" lon="3.91629">
        <ele>203.94</ele>
        <time>2021-08-08T10:56:15Z</time>
      </trkpt>
      <trkpt lat="49.88499" lon="3.9166">
        <ele>200.57</ele>
        <time>2021-08-08T10:56:20Z</time>
      </trkpt>
      <trkpt lat="49.88455" lon="3.91718">
        <ele>199.61</ele>
        <time>2021-08-08T10:56:29Z</time>
      </trkpt>
      <trkpt lat="49.88446" lon="3.9173">
        <ele>200.57</ele>
        <time>2021-08-08T10:56:31Z</time>
      </trkpt>
      <trkpt lat="49.88406" lon="3.91782">
        <ele>202.01</ele>
        <time>2021-08-08T10:56:40Z</time>
      </trkpt>
      <trkpt lat="49.88378" lon="3.91818">
        <ele>203.94</ele>
        <time>2021-08-08T10:56:48Z</time>
      </trkpt>
      <trkpt lat="49.88344" lon="3.91862">
        <ele>204.42</ele>
        <time>2021-08-08T10:56:59Z</time>
      </trkpt>
      <trkpt lat="49.88324" lon="3.91888">
        <ele>202.98</ele>
        <time>2021-08-08T10:57:05Z</time>
      </trkpt>
      <trkpt lat="49.8829" lon="3.91932">
        <ele>202.01</ele>
        <time>2021-08-08T10:57:13Z</time>
      </trkpt>
      <trkpt lat="49.88281" lon="3.91943">
        <ele>201.05</ele>
        <time>2021-08-08T10:57:15Z</time>
      </trkpt>
      <trkpt lat="49.8826" lon="3.91958">
        <ele>200.57</ele>
        <time>2021-08-08T10:57:19Z</time>
      </trkpt>
      <trkpt lat="49.88255" lon="3.91961">
        <ele>200.09</ele>
        <time>2021-08-08T10:57:20Z</time>
      </trkpt>
      <trkpt lat="49.88239" lon="3.91968">
        <ele>200.09</ele>
        <time>2021-08-08T10:57:23Z</time>
      </trkpt>
      <trkpt lat="49.88234" lon="3.91971">
        <ele>198.17</ele>
        <time>2021-08-08T10:57:24Z</time>
      </trkpt>
      <trkpt lat="49.88229" lon="3.91975">
        <ele>198.17</ele>
        <time>2021-08-08T10:57:25Z</time>
      </trkpt>
      <trkpt lat="49.88226" lon="3.9198">
        <ele>198.17</ele>
        <time>2021-08-08T10:57:26Z</time>
      </trkpt>
      <trkpt lat="49.88222" lon="3.91986">
        <ele>200.09</ele>
        <time>2021-08-08T10:57:27Z</time>
      </trkpt>
      <trkpt lat="49.88219" lon="3.91992">
        <ele>200.09</ele>
        <time>2021-08-08T10:57:28Z</time>
      </trkpt>
      <trkpt lat="49.88217" lon="3.91998">
        <ele>200.09</ele>
        <time>2021-08-08T10:57:29Z</time>
      </trkpt>
      <trkpt lat="49.88215" lon="3.92004">
        <ele>201.05</ele>
        <time>2021-08-08T10:57:30Z</time>
      </trkpt>
      <trkpt lat="49.88215" lon="3.92011">
        <ele>201.53</ele>
        <time>2021-08-08T10:57:31Z</time>
      </trkpt>
      <trkpt lat="49.88215" lon="3.92017">
        <ele>202.01</ele>
        <time>2021-08-08T10:57:32Z</time>
      </trkpt>
      <trkpt lat="49.88216" lon="3.92023">
        <ele>202.01</ele>
        <time>2021-08-08T10:57:33Z</time>
      </trkpt>
      <trkpt lat="49.88218" lon="3.92028">
        <ele>202.49</ele>
        <time>2021-08-08T10:57:34Z</time>
      </trkpt>
      <trkpt lat="49.88221" lon="3.92033">
        <ele>202.49</ele>
        <time>2021-08-08T10:57:35Z</time>
      </trkpt>
      <trkpt lat="49.8825" lon="3.92075">
        <ele>202.98</ele>
        <time>2021-08-08T10:57:43Z</time>
      </trkpt>
      <trkpt lat="49.88282" lon="3.92122">
        <ele>202.01</ele>
        <time>2021-08-08T10:57:51Z</time>
      </trkpt>
      <trkpt lat="49.88321" lon="3.92185">
        <ele>200.09</ele>
        <time>2021-08-08T10:58:00Z</time>
      </trkpt>
      <trkpt lat="49.8837" lon="3.92273">
        <ele>201.05</ele>
        <time>2021-08-08T10:58:12Z</time>
      </trkpt>
      <trkpt lat="49.88414" lon="3.92358">
        <ele>201.53</ele>
        <time>2021-08-08T10:58:24Z</time>
      </trkpt>
      <trkpt lat="49.88455" lon="3.92436">
        <ele>199.61</ele>
        <time>2021-08-08T10:58:34Z</time>
      </trkpt>
      <trkpt lat="49.88496" lon="3.92514">
        <ele>199.13</ele>
        <time>2021-08-08T10:58:44Z</time>
      </trkpt>
      <trkpt lat="49.88532" lon="3.92582">
        <ele>199.13</ele>
        <time>2021-08-08T10:58:53Z</time>
      </trkpt>
      <trkpt lat="49.88575" lon="3.92663">
        <ele>200.57</ele>
        <time>2021-08-08T10:59:04Z</time>
      </trkpt>
      <trkpt lat="49.88617" lon="3.92743">
        <ele>200.57</ele>
        <time>2021-08-08T10:59:15Z</time>
      </trkpt>
      <trkpt lat="49.88652" lon="3.92793">
        <ele>201.05</ele>
        <time>2021-08-08T10:59:23Z</time>
      </trkpt>
      <trkpt lat="49.88688" lon="3.9281">
        <ele>201.05</ele>
        <time>2021-08-08T10:59:29Z</time>
      </trkpt>
      <trkpt lat="49.88721" lon="3.92818">
        <ele>199.61</ele>
        <time>2021-08-08T10:59:34Z</time>
      </trkpt>
      <trkpt lat="49.88792" lon="3.92839">
        <ele>197.69</ele>
        <time>2021-08-08T10:59:45Z</time>
      </trkpt>
      <trkpt lat="49.88844" lon="3.92857">
        <ele>196.73</ele>
        <time>2021-08-08T10:59:53Z</time>
      </trkpt>
      <trkpt lat="49.88902" lon="3.92872">
        <ele>194.32</ele>
        <time>2021-08-08T11:00:01Z</time>
      </trkpt>
      <trkpt lat="49.88978" lon="3.92882">
        <ele>191.92</ele>
        <time>2021-08-08T11:00:11Z</time>
      </trkpt>
      <trkpt lat="49.89045" lon="3.92901">
        <ele>190</ele>
        <time>2021-08-08T11:00:20Z</time>
      </trkpt>
      <trkpt lat="49.89065" lon="3.92914">
        <ele>188.56</ele>
        <time>2021-08-08T11:00:23Z</time>
      </trkpt>
      <trkpt lat="49.89071" lon="3.92921">
        <ele>188.56</ele>
        <time>2021-08-08T11:00:24Z</time>
      </trkpt>
      <trkpt lat="49.89076" lon="3.92928">
        <ele>188.08</ele>
        <time>2021-08-08T11:00:25Z</time>
      </trkpt>
      <trkpt lat="49.89078" lon="3.92934">
        <ele>188.08</ele>
        <time>2021-08-08T11:00:26Z</time>
      </trkpt>
      <trkpt lat="49.89081" lon="3.92943">
        <ele>188.08</ele>
        <time>2021-08-08T11:00:27Z</time>
      </trkpt>
      <trkpt lat="49.89081" lon="3.92949">
        <ele>188.08</ele>
        <time>2021-08-08T11:00:28Z</time>
      </trkpt>
      <trkpt lat="49.8908" lon="3.92956">
        <ele>188.08</ele>
        <time>2021-08-08T11:00:29Z</time>
      </trkpt>
      <trkpt lat="49.89078" lon="3.92963">
        <ele>188.08</ele>
        <time>2021-08-08T11:00:30Z</time>
      </trkpt>
      <trkpt lat="49.89077" lon="3.9297">
        <ele>188.08</ele>
        <time>2021-08-08T11:00:31Z</time>
      </trkpt>
      <trkpt lat="49.89065" lon="3.9303">
        <ele>186.63</ele>
        <time>2021-08-08T11:00:39Z</time>
      </trkpt>
      <trkpt lat="49.89065" lon="3.93037">
        <ele>186.15</ele>
        <time>2021-08-08T11:00:40Z</time>
      </trkpt>
      <trkpt lat="49.89067" lon="3.93044">
        <ele>186.15</ele>
        <time>2021-08-08T11:00:41Z</time>
      </trkpt>
      <trkpt lat="49.8907" lon="3.93049">
        <ele>185.19</ele>
        <time>2021-08-08T11:00:42Z</time>
      </trkpt>
      <trkpt lat="49.89074" lon="3.93054">
        <ele>184.71</ele>
        <time>2021-08-08T11:00:43Z</time>
      </trkpt>
      <trkpt lat="49.89079" lon="3.93059">
        <ele>184.23</ele>
        <time>2021-08-08T11:00:44Z</time>
      </trkpt>
      <trkpt lat="49.89085" lon="3.93063">
        <ele>183.27</ele>
        <time>2021-08-08T11:00:45Z</time>
      </trkpt>
      <trkpt lat="49.89091" lon="3.93067">
        <ele>183.27</ele>
        <time>2021-08-08T11:00:46Z</time>
      </trkpt>
      <trkpt lat="49.89104" lon="3.93073">
        <ele>182.31</ele>
        <time>2021-08-08T11:00:48Z</time>
      </trkpt>
      <trkpt lat="49.89134" lon="3.93085">
        <ele>179.9</ele>
        <time>2021-08-08T11:00:52Z</time>
      </trkpt>
      <trkpt lat="49.89161" lon="3.93098">
        <ele>176.54</ele>
        <time>2021-08-08T11:00:55Z</time>
      </trkpt>
      <trkpt lat="49.89178" lon="3.9311">
        <ele>176.06</ele>
        <time>2021-08-08T11:00:57Z</time>
      </trkpt>
      <trkpt lat="49.89194" lon="3.93124">
        <ele>174.62</ele>
        <time>2021-08-08T11:00:59Z</time>
      </trkpt>
      <trkpt lat="49.89217" lon="3.93145">
        <ele>173.66</ele>
        <time>2021-08-08T11:01:03Z</time>
      </trkpt>
      <trkpt lat="49.89225" lon="3.93153">
        <ele>173.66</ele>
        <time>2021-08-08T11:01:05Z</time>
      </trkpt>
      <trkpt lat="49.89226" lon="3.93158">
        <ele>173.66</ele>
        <time>2021-08-08T11:01:06Z</time>
      </trkpt>
      <trkpt lat="49.89227" lon="3.93162">
        <ele>172.69</ele>
        <time>2021-08-08T11:01:07Z</time>
      </trkpt>
      <trkpt lat="49.89226" lon="3.93168">
        <ele>173.17</ele>
        <time>2021-08-08T11:01:08Z</time>
      </trkpt>
      <trkpt lat="49.89225" lon="3.93175">
        <ele>172.69</ele>
        <time>2021-08-08T11:01:09Z</time>
      </trkpt>
      <trkpt lat="49.89223" lon="3.93181">
        <ele>172.21</ele>
        <time>2021-08-08T11:01:10Z</time>
      </trkpt>
      <trkpt lat="49.89216" lon="3.93208">
        <ele>170.77</ele>
        <time>2021-08-08T11:01:16Z</time>
      </trkpt>
      <trkpt lat="49.89216" lon="3.93223">
        <ele>170.77</ele>
        <time>2021-08-08T11:01:22Z</time>
      </trkpt>
      <trkpt lat="49.89224" lon="3.93239">
        <ele>169.81</ele>
        <time>2021-08-08T11:01:28Z</time>
      </trkpt>
      <trkpt lat="49.89234" lon="3.93262">
        <ele>168.37</ele>
        <time>2021-08-08T11:01:35Z</time>
      </trkpt>
      <trkpt lat="49.89247" lon="3.93301">
        <ele>166.45</ele>
        <time>2021-08-08T11:01:43Z</time>
      </trkpt>
      <trkpt lat="49.89254" lon="3.93336">
        <ele>164.52</ele>
        <time>2021-08-08T11:01:51Z</time>
      </trkpt>
      <trkpt lat="49.89259" lon="3.9336">
        <ele>163.08</ele>
        <time>2021-08-08T11:01:56Z</time>
      </trkpt>
      <trkpt lat="49.89266" lon="3.93375">
        <ele>161.64</ele>
        <time>2021-08-08T11:01:59Z</time>
      </trkpt>
      <trkpt lat="49.89269" lon="3.93381">
        <ele>161.16</ele>
        <time>2021-08-08T11:02:00Z</time>
      </trkpt>
      <trkpt lat="49.8929" lon="3.9341">
        <ele>157.79</ele>
        <time>2021-08-08T11:02:06Z</time>
      </trkpt>
      <trkpt lat="49.89309" lon="3.93438">
        <ele>154.91</ele>
        <time>2021-08-08T11:02:12Z</time>
      </trkpt>
      <trkpt lat="49.8931" lon="3.93442">
        <ele>154.91</ele>
        <time>2021-08-08T11:02:13Z</time>
      </trkpt>
      <trkpt lat="49.89318" lon="3.93455">
        <ele>153.47</ele>
        <time>2021-08-08T11:02:17Z</time>
      </trkpt>
      <trkpt lat="49.89319" lon="3.93457">
        <ele>153.47</ele>
        <time>2021-08-08T11:02:18Z</time>
      </trkpt>
      <trkpt lat="49.89322" lon="3.93459">
        <ele>152.99</ele>
        <time>2021-08-08T11:02:23Z</time>
      </trkpt>
      <trkpt lat="49.89323" lon="3.93464">
        <ele>152.99</ele>
        <time>2021-08-08T11:02:32Z</time>
      </trkpt>
      <trkpt lat="49.89326" lon="3.93471">
        <ele>152.51</ele>
        <time>2021-08-08T11:02:38Z</time>
      </trkpt>
      <trkpt lat="49.89334" lon="3.93486">
        <ele>150.58</ele>
        <time>2021-08-08T11:02:44Z</time>
      </trkpt>
      <trkpt lat="49.89343" lon="3.93505">
        <ele>149.14</ele>
        <time>2021-08-08T11:02:50Z</time>
      </trkpt>
      <trkpt lat="49.89349" lon="3.93522">
        <ele>147.7</ele>
        <time>2021-08-08T11:02:55Z</time>
      </trkpt>
      <trkpt lat="49.89357" lon="3.9354">
        <ele>146.26</ele>
        <time>2021-08-08T11:03:02Z</time>
      </trkpt>
      <trkpt lat="49.89363" lon="3.93549">
        <ele>145.78</ele>
        <time>2021-08-08T11:03:07Z</time>
      </trkpt>
      <trkpt lat="49.89364" lon="3.93551">
        <ele>145.3</ele>
        <time>2021-08-08T11:03:08Z</time>
      </trkpt>
      <trkpt lat="49.89366" lon="3.93555">
        <ele>145.3</ele>
        <time>2021-08-08T11:03:09Z</time>
      </trkpt>
      <trkpt lat="49.89377" lon="3.93583">
        <ele>143.85</ele>
        <time>2021-08-08T11:03:16Z</time>
      </trkpt>
      <trkpt lat="49.89387" lon="3.93616">
        <ele>142.89</ele>
        <time>2021-08-08T11:03:22Z</time>
      </trkpt>
      <trkpt lat="49.89392" lon="3.93624">
        <ele>142.89</ele>
        <time>2021-08-08T11:03:27Z</time>
      </trkpt>
      <trkpt lat="49.89396" lon="3.93632">
        <ele>142.89</ele>
        <time>2021-08-08T11:03:35Z</time>
      </trkpt>
      <trkpt lat="49.89398" lon="3.93637">
        <ele>142.89</ele>
        <time>2021-08-08T11:03:41Z</time>
      </trkpt>
      <trkpt lat="49.89396" lon="3.9364">
        <ele>142.89</ele>
        <time>2021-08-08T11:03:48Z</time>
      </trkpt>
      <trkpt lat="49.89395" lon="3.93645">
        <ele>143.37</ele>
        <time>2021-08-08T11:03:55Z</time>
      </trkpt>
      <trkpt lat="49.89394" lon="3.93647">
        <ele>143.37</ele>
        <time>2021-08-08T11:03:56Z</time>
      </trkpt>
      <trkpt lat="49.89394" lon="3.93649">
        <ele>143.37</ele>
        <time>2021-08-08T11:03:57Z</time>
      </trkpt>
      <trkpt lat="49.89394" lon="3.93651">
        <ele>143.37</ele>
        <time>2021-08-08T11:03:58Z</time>
      </trkpt>
      <trkpt lat="49.89388" lon="3.93666">
        <ele>143.37</ele>
        <time>2021-08-08T11:04:04Z</time>
      </trkpt>
      <trkpt lat="49.89379" lon="3.9369">
        <ele>143.37</ele>
        <time>2021-08-08T11:04:12Z</time>
      </trkpt>
      <trkpt lat="49.89368" lon="3.93713">
        <ele>144.34</ele>
        <time>2021-08-08T11:04:18Z</time>
      </trkpt>
      <trkpt lat="49.89355" lon="3.93741">
        <ele>144.34</ele>
        <time>2021-08-08T11:04:25Z</time>
      </trkpt>
      <trkpt lat="49.89338" lon="3.93776">
        <ele>144.34</ele>
        <time>2021-08-08T11:04:33Z</time>
      </trkpt>
      <trkpt lat="49.89323" lon="3.93811">
        <ele>142.41</ele>
        <time>2021-08-08T11:04:40Z</time>
      </trkpt>
      <trkpt lat="49.89316" lon="3.93829">
        <ele>141.93</ele>
        <time>2021-08-08T11:04:43Z</time>
      </trkpt>
      <trkpt lat="49.89306" lon="3.93852">
        <ele>141.45</ele>
        <time>2021-08-08T11:04:47Z</time>
      </trkpt>
      <trkpt lat="49.89304" lon="3.93858">
        <ele>141.45</ele>
        <time>2021-08-08T11:04:48Z</time>
      </trkpt>
      <trkpt lat="49.89283" lon="3.9391">
        <ele>140.97</ele>
        <time>2021-08-08T11:04:56Z</time>
      </trkpt>
      <trkpt lat="49.89279" lon="3.93923">
        <ele>140.49</ele>
        <time>2021-08-08T11:04:58Z</time>
      </trkpt>
      <trkpt lat="49.89266" lon="3.93957">
        <ele>140.49</ele>
        <time>2021-08-08T11:05:03Z</time>
      </trkpt>
      <trkpt lat="49.89257" lon="3.93993">
        <ele>140.01</ele>
        <time>2021-08-08T11:05:08Z</time>
      </trkpt>
      <trkpt lat="49.89255" lon="3.94009">
        <ele>139.53</ele>
        <time>2021-08-08T11:05:10Z</time>
      </trkpt>
      <trkpt lat="49.89255" lon="3.94018">
        <ele>139.05</ele>
        <time>2021-08-08T11:05:11Z</time>
      </trkpt>
      <trkpt lat="49.89256" lon="3.94026">
        <ele>139.05</ele>
        <time>2021-08-08T11:05:12Z</time>
      </trkpt>
      <trkpt lat="49.89258" lon="3.94032">
        <ele>139.05</ele>
        <time>2021-08-08T11:05:13Z</time>
      </trkpt>
      <trkpt lat="49.89259" lon="3.94038">
        <ele>139.05</ele>
        <time>2021-08-08T11:05:14Z</time>
      </trkpt>
      <trkpt lat="49.89261" lon="3.94042">
        <ele>139.05</ele>
        <time>2021-08-08T11:05:15Z</time>
      </trkpt>
      <trkpt lat="49.89263" lon="3.94046">
        <ele>139.05</ele>
        <time>2021-08-08T11:05:16Z</time>
      </trkpt>
      <trkpt lat="49.89281" lon="3.94081">
        <ele>138.57</ele>
        <time>2021-08-08T11:05:24Z</time>
      </trkpt>
      <trkpt lat="49.89292" lon="3.9411">
        <ele>138.57</ele>
        <time>2021-08-08T11:05:31Z</time>
      </trkpt>
      <trkpt lat="49.89291" lon="3.94126">
        <ele>138.09</ele>
        <time>2021-08-08T11:05:36Z</time>
      </trkpt>
      <trkpt lat="49.89285" lon="3.94149">
        <ele>138.09</ele>
        <time>2021-08-08T11:05:44Z</time>
      </trkpt>
      <trkpt lat="49.89279" lon="3.94166">
        <ele>138.09</ele>
        <time>2021-08-08T11:05:49Z</time>
      </trkpt>
      <trkpt lat="49.89279" lon="3.94169">
        <ele>138.09</ele>
        <time>2021-08-08T11:05:50Z</time>
      </trkpt>
      <trkpt lat="49.89278" lon="3.94172">
        <ele>138.09</ele>
        <time>2021-08-08T11:05:51Z</time>
      </trkpt>
      <trkpt lat="49.89273" lon="3.94197">
        <ele>138.09</ele>
        <time>2021-08-08T11:05:59Z</time>
      </trkpt>
      <trkpt lat="49.89271" lon="3.94217">
        <ele>137.61</ele>
        <time>2021-08-08T11:06:05Z</time>
      </trkpt>
      <trkpt lat="49.89268" lon="3.94229">
        <ele>137.61</ele>
        <time>2021-08-08T11:06:10Z</time>
      </trkpt>
      <trkpt lat="49.89258" lon="3.94252">
        <ele>137.61</ele>
        <time>2021-08-08T11:06:17Z</time>
      </trkpt>
      <trkpt lat="49.89246" lon="3.94262">
        <ele>139.05</ele>
        <time>2021-08-08T11:06:22Z</time>
      </trkpt>
      <trkpt lat="49.89229" lon="3.94286">
        <ele>139.53</ele>
        <time>2021-08-08T11:06:30Z</time>
      </trkpt>
      <trkpt lat="49.89224" lon="3.94324">
        <ele>138.09</ele>
        <time>2021-08-08T11:06:36Z</time>
      </trkpt>
      <trkpt lat="49.89219" lon="3.94392">
        <ele>135.2</ele>
        <time>2021-08-08T11:06:44Z</time>
      </trkpt>
      <trkpt lat="49.89216" lon="3.94421">
        <ele>134.72</ele>
        <time>2021-08-08T11:06:47Z</time>
      </trkpt>
      <trkpt lat="49.89215" lon="3.94429">
        <ele>134.72</ele>
        <time>2021-08-08T11:06:48Z</time>
      </trkpt>
      <trkpt lat="49.89214" lon="3.94438">
        <ele>134.72</ele>
        <time>2021-08-08T11:06:49Z</time>
      </trkpt>
      <trkpt lat="49.89198" lon="3.94495">
        <ele>135.2</ele>
        <time>2021-08-08T11:06:56Z</time>
      </trkpt>
      <trkpt lat="49.89195" lon="3.94502">
        <ele>135.2</ele>
        <time>2021-08-08T11:06:57Z</time>
      </trkpt>
      <trkpt lat="49.89192" lon="3.94508">
        <ele>135.2</ele>
        <time>2021-08-08T11:06:58Z</time>
      </trkpt>
      <trkpt lat="49.89188" lon="3.94514">
        <ele>135.2</ele>
        <time>2021-08-08T11:06:59Z</time>
      </trkpt>
      <trkpt lat="49.89184" lon="3.94519">
        <ele>135.2</ele>
        <time>2021-08-08T11:07:00Z</time>
      </trkpt>
      <trkpt lat="49.8918" lon="3.94525">
        <ele>135.2</ele>
        <time>2021-08-08T11:07:01Z</time>
      </trkpt>
      <trkpt lat="49.89176" lon="3.94529">
        <ele>135.2</ele>
        <time>2021-08-08T11:07:02Z</time>
      </trkpt>
      <trkpt lat="49.89155" lon="3.94549">
        <ele>136.64</ele>
        <time>2021-08-08T11:07:07Z</time>
      </trkpt>
      <trkpt lat="49.89132" lon="3.94577">
        <ele>136.64</ele>
        <time>2021-08-08T11:07:13Z</time>
      </trkpt>
      <trkpt lat="49.89107" lon="3.94601">
        <ele>138.57</ele>
        <time>2021-08-08T11:07:21Z</time>
      </trkpt>
      <trkpt lat="49.89085" lon="3.94626">
        <ele>139.53</ele>
        <time>2021-08-08T11:07:30Z</time>
      </trkpt>
      <trkpt lat="49.89063" lon="3.94653">
        <ele>140.49</ele>
        <time>2021-08-08T11:07:40Z</time>
      </trkpt>
      <trkpt lat="49.89041" lon="3.94675">
        <ele>142.41</ele>
        <time>2021-08-08T11:07:49Z</time>
      </trkpt>
      <trkpt lat="49.89032" lon="3.94684">
        <ele>143.85</ele>
        <time>2021-08-08T11:07:57Z</time>
      </trkpt>
      <trkpt lat="49.89032" lon="3.94684">
        <ele>143.37</ele>
        <time>2021-08-08T11:08:14Z</time>
      </trkpt>
      <trkpt lat="49.89033" lon="3.94684">
        <ele>143.37</ele>
        <time>2021-08-08T11:08:37Z</time>
      </trkpt>
      <trkpt lat="49.89031" lon="3.94689">
        <ele>142.89</ele>
        <time>2021-08-08T11:08:43Z</time>
      </trkpt>
      <trkpt lat="49.89028" lon="3.94693">
        <ele>142.89</ele>
        <time>2021-08-08T11:08:46Z</time>
      </trkpt>
      <trkpt lat="49.89012" lon="3.94711">
        <ele>142.89</ele>
        <time>2021-08-08T11:08:54Z</time>
      </trkpt>
      <trkpt lat="49.89005" lon="3.94718">
        <ele>146.26</ele>
        <time>2021-08-08T11:08:57Z</time>
      </trkpt>
      <trkpt lat="49.89003" lon="3.94721">
        <ele>146.26</ele>
        <time>2021-08-08T11:08:58Z</time>
      </trkpt>
      <trkpt lat="49.88997" lon="3.94728">
        <ele>144.82</ele>
        <time>2021-08-08T11:09:01Z</time>
      </trkpt>
      <trkpt lat="49.88974" lon="3.94754">
        <ele>147.22</ele>
        <time>2021-08-08T11:09:12Z</time>
      </trkpt>
      <trkpt lat="49.88955" lon="3.94776">
        <ele>149.62</ele>
        <time>2021-08-08T11:09:22Z</time>
      </trkpt>
      <trkpt lat="49.88938" lon="3.94796">
        <ele>151.06</ele>
        <time>2021-08-08T11:09:32Z</time>
      </trkpt>
      <trkpt lat="49.88921" lon="3.94817">
        <ele>151.06</ele>
        <time>2021-08-08T11:09:42Z</time>
      </trkpt>
      <trkpt lat="49.88904" lon="3.94836">
        <ele>152.51</ele>
        <time>2021-08-08T11:09:51Z</time>
      </trkpt>
      <trkpt lat="49.88886" lon="3.94857">
        <ele>154.43</ele>
        <time>2021-08-08T11:10:01Z</time>
      </trkpt>
      <trkpt lat="49.8887" lon="3.94876">
        <ele>155.39</ele>
        <time>2021-08-08T11:10:10Z</time>
      </trkpt>
      <trkpt lat="49.88852" lon="3.94898">
        <ele>156.35</ele>
        <time>2021-08-08T11:10:20Z</time>
      </trkpt>
      <trkpt lat="49.88834" lon="3.94915">
        <ele>158.27</ele>
        <time>2021-08-08T11:10:29Z</time>
      </trkpt>
      <trkpt lat="49.88815" lon="3.94917">
        <ele>159.72</ele>
        <time>2021-08-08T11:10:38Z</time>
      </trkpt>
      <trkpt lat="49.88804" lon="3.949">
        <ele>161.16</ele>
        <time>2021-08-08T11:10:45Z</time>
      </trkpt>
      <trkpt lat="49.88797" lon="3.94867">
        <ele>162.12</ele>
        <time>2021-08-08T11:10:54Z</time>
      </trkpt>
      <trkpt lat="49.8879" lon="3.9484">
        <ele>165.48</ele>
        <time>2021-08-08T11:11:02Z</time>
      </trkpt>
      <trkpt lat="49.88776" lon="3.94821">
        <ele>165</ele>
        <time>2021-08-08T11:11:10Z</time>
      </trkpt>
      <trkpt lat="49.88755" lon="3.94811">
        <ele>165.96</ele>
        <time>2021-08-08T11:11:19Z</time>
      </trkpt>
      <trkpt lat="49.88734" lon="3.94801">
        <ele>167.89</ele>
        <time>2021-08-08T11:11:28Z</time>
      </trkpt>
      <trkpt lat="49.88711" lon="3.94793">
        <ele>169.33</ele>
        <time>2021-08-08T11:11:38Z</time>
      </trkpt>
      <trkpt lat="49.88692" lon="3.94781">
        <ele>170.29</ele>
        <time>2021-08-08T11:11:47Z</time>
      </trkpt>
      <trkpt lat="49.88677" lon="3.94763">
        <ele>170.29</ele>
        <time>2021-08-08T11:11:55Z</time>
      </trkpt>
      <trkpt lat="49.88666" lon="3.94742">
        <ele>171.25</ele>
        <time>2021-08-08T11:12:03Z</time>
      </trkpt>
      <trkpt lat="49.88655" lon="3.94722">
        <ele>172.69</ele>
        <time>2021-08-08T11:12:10Z</time>
      </trkpt>
      <trkpt lat="49.88633" lon="3.94701">
        <ele>174.14</ele>
        <time>2021-08-08T11:12:21Z</time>
      </trkpt>
      <trkpt lat="49.88612" lon="3.94698">
        <ele>175.58</ele>
        <time>2021-08-08T11:12:30Z</time>
      </trkpt>
      <trkpt lat="49.8859" lon="3.94701">
        <ele>177.5</ele>
        <time>2021-08-08T11:12:39Z</time>
      </trkpt>
      <trkpt lat="49.88566" lon="3.94708">
        <ele>178.46</ele>
        <time>2021-08-08T11:12:49Z</time>
      </trkpt>
      <trkpt lat="49.88532" lon="3.94723">
        <ele>180.87</ele>
        <time>2021-08-08T11:13:02Z</time>
      </trkpt>
      <trkpt lat="49.88509" lon="3.94732">
        <ele>180.38</ele>
        <time>2021-08-08T11:13:10Z</time>
      </trkpt>
      <trkpt lat="49.88503" lon="3.94735">
        <ele>181.83</ele>
        <time>2021-08-08T11:13:12Z</time>
      </trkpt>
      <trkpt lat="49.8848" lon="3.94748">
        <ele>181.83</ele>
        <time>2021-08-08T11:13:20Z</time>
      </trkpt>
      <trkpt lat="49.88454" lon="3.94768">
        <ele>182.31</ele>
        <time>2021-08-08T11:13:29Z</time>
      </trkpt>
      <trkpt lat="49.88429" lon="3.94806">
        <ele>184.23</ele>
        <time>2021-08-08T11:13:40Z</time>
      </trkpt>
      <trkpt lat="49.88408" lon="3.94842">
        <ele>184.23</ele>
        <time>2021-08-08T11:13:50Z</time>
      </trkpt>
      <trkpt lat="49.88393" lon="3.94867">
        <ele>185.19</ele>
        <time>2021-08-08T11:13:57Z</time>
      </trkpt>
      <trkpt lat="49.88369" lon="3.949">
        <ele>184.23</ele>
        <time>2021-08-08T11:14:07Z</time>
      </trkpt>
      <trkpt lat="49.88364" lon="3.94906">
        <ele>185.67</ele>
        <time>2021-08-08T11:14:09Z</time>
      </trkpt>
      <trkpt lat="49.88336" lon="3.94932">
        <ele>186.63</ele>
        <time>2021-08-08T11:14:19Z</time>
      </trkpt>
      <trkpt lat="49.88308" lon="3.94956">
        <ele>187.59</ele>
        <time>2021-08-08T11:14:29Z</time>
      </trkpt>
      <trkpt lat="49.88278" lon="3.9498">
        <ele>188.08</ele>
        <time>2021-08-08T11:14:39Z</time>
      </trkpt>
      <trkpt lat="49.88247" lon="3.95002">
        <ele>190</ele>
        <time>2021-08-08T11:14:49Z</time>
      </trkpt>
      <trkpt lat="49.88208" lon="3.95026">
        <ele>190.48</ele>
        <time>2021-08-08T11:15:01Z</time>
      </trkpt>
      <trkpt lat="49.88182" lon="3.95041">
        <ele>190.48</ele>
        <time>2021-08-08T11:15:09Z</time>
      </trkpt>
      <trkpt lat="49.88151" lon="3.95064">
        <ele>191.44</ele>
        <time>2021-08-08T11:15:19Z</time>
      </trkpt>
      <trkpt lat="49.8812" lon="3.95093">
        <ele>192.88</ele>
        <time>2021-08-08T11:15:29Z</time>
      </trkpt>
      <trkpt lat="49.88092" lon="3.95128">
        <ele>193.36</ele>
        <time>2021-08-08T11:15:39Z</time>
      </trkpt>
      <trkpt lat="49.88066" lon="3.95158">
        <ele>193.84</ele>
        <time>2021-08-08T11:15:48Z</time>
      </trkpt>
      <trkpt lat="49.88037" lon="3.95192">
        <ele>193.84</ele>
        <time>2021-08-08T11:15:58Z</time>
      </trkpt>
      <trkpt lat="49.88012" lon="3.95223">
        <ele>195.28</ele>
        <time>2021-08-08T11:16:07Z</time>
      </trkpt>
      <trkpt lat="49.87982" lon="3.9526">
        <ele>196.25</ele>
        <time>2021-08-08T11:16:18Z</time>
      </trkpt>
      <trkpt lat="49.87955" lon="3.95291">
        <ele>196.73</ele>
        <time>2021-08-08T11:16:27Z</time>
      </trkpt>
      <trkpt lat="49.87922" lon="3.9533">
        <ele>197.69</ele>
        <time>2021-08-08T11:16:38Z</time>
      </trkpt>
      <trkpt lat="49.879" lon="3.95358">
        <ele>198.17</ele>
        <time>2021-08-08T11:16:45Z</time>
      </trkpt>
      <trkpt lat="49.87898" lon="3.95364">
        <ele>198.17</ele>
        <time>2021-08-08T11:16:46Z</time>
      </trkpt>
      <trkpt lat="49.87899" lon="3.9537">
        <ele>198.17</ele>
        <time>2021-08-08T11:16:47Z</time>
      </trkpt>
      <trkpt lat="49.87901" lon="3.95376">
        <ele>198.17</ele>
        <time>2021-08-08T11:16:48Z</time>
      </trkpt>
      <trkpt lat="49.87904" lon="3.95381">
        <ele>198.17</ele>
        <time>2021-08-08T11:16:49Z</time>
      </trkpt>
      <trkpt lat="49.87907" lon="3.95386">
        <ele>198.17</ele>
        <time>2021-08-08T11:16:50Z</time>
      </trkpt>
      <trkpt lat="49.87917" lon="3.95406">
        <ele>196.73</ele>
        <time>2021-08-08T11:16:53Z</time>
      </trkpt>
      <trkpt lat="49.87943" lon="3.95453">
        <ele>193.84</ele>
        <time>2021-08-08T11:16:59Z</time>
      </trkpt>
      <trkpt lat="49.87975" lon="3.95511">
        <ele>191.92</ele>
        <time>2021-08-08T11:17:05Z</time>
      </trkpt>
      <trkpt lat="49.87987" lon="3.95533">
        <ele>190.96</ele>
        <time>2021-08-08T11:17:07Z</time>
      </trkpt>
      <trkpt lat="49.88" lon="3.95568">
        <ele>190</ele>
        <time>2021-08-08T11:17:10Z</time>
      </trkpt>
      <trkpt lat="49.88003" lon="3.9558">
        <ele>189.52</ele>
        <time>2021-08-08T11:17:11Z</time>
      </trkpt>
      <trkpt lat="49.88007" lon="3.95602">
        <ele>188.56</ele>
        <time>2021-08-08T11:17:13Z</time>
      </trkpt>
      <trkpt lat="49.88016" lon="3.95632">
        <ele>188.56</ele>
        <time>2021-08-08T11:17:17Z</time>
      </trkpt>
      <trkpt lat="49.88019" lon="3.95639">
        <ele>188.56</ele>
        <time>2021-08-08T11:17:18Z</time>
      </trkpt>
      <trkpt lat="49.88024" lon="3.95644">
        <ele>187.59</ele>
        <time>2021-08-08T11:17:19Z</time>
      </trkpt>
      <trkpt lat="49.8803" lon="3.95651">
        <ele>187.11</ele>
        <time>2021-08-08T11:17:20Z</time>
      </trkpt>
      <trkpt lat="49.88071" lon="3.95698">
        <ele>184.23</ele>
        <time>2021-08-08T11:17:27Z</time>
      </trkpt>
      <trkpt lat="49.88122" lon="3.95757">
        <ele>181.35</ele>
        <time>2021-08-08T11:17:34Z</time>
      </trkpt>
      <trkpt lat="49.88174" lon="3.95814">
        <ele>177.02</ele>
        <time>2021-08-08T11:17:40Z</time>
      </trkpt>
      <trkpt lat="49.88194" lon="3.9583">
        <ele>176.54</ele>
        <time>2021-08-08T11:17:42Z</time>
      </trkpt>
      <trkpt lat="49.88227" lon="3.95848">
        <ele>172.69</ele>
        <time>2021-08-08T11:17:45Z</time>
      </trkpt>
      <trkpt lat="49.88251" lon="3.95858">
        <ele>172.21</ele>
        <time>2021-08-08T11:17:47Z</time>
      </trkpt>
      <trkpt lat="49.88311" lon="3.95881">
        <ele>168.37</ele>
        <time>2021-08-08T11:17:52Z</time>
      </trkpt>
      <trkpt lat="49.88361" lon="3.95903">
        <ele>165</ele>
        <time>2021-08-08T11:17:56Z</time>
      </trkpt>
      <trkpt lat="49.88386" lon="3.95918">
        <ele>163.56</ele>
        <time>2021-08-08T11:17:58Z</time>
      </trkpt>
      <trkpt lat="49.88409" lon="3.95937">
        <ele>162.12</ele>
        <time>2021-08-08T11:18:00Z</time>
      </trkpt>
      <trkpt lat="49.88498" lon="3.96004">
        <ele>158.75</ele>
        <time>2021-08-08T11:18:08Z</time>
      </trkpt>
      <trkpt lat="49.88535" lon="3.96021">
        <ele>158.75</ele>
        <time>2021-08-08T11:18:13Z</time>
      </trkpt>
      <trkpt lat="49.88539" lon="3.96024">
        <ele>158.75</ele>
        <time>2021-08-08T11:18:14Z</time>
      </trkpt>
      <trkpt lat="49.88541" lon="3.96028">
        <ele>158.27</ele>
        <time>2021-08-08T11:18:15Z</time>
      </trkpt>
      <trkpt lat="49.88541" lon="3.96033">
        <ele>158.27</ele>
        <time>2021-08-08T11:18:16Z</time>
      </trkpt>
      <trkpt lat="49.8854" lon="3.96037">
        <ele>158.27</ele>
        <time>2021-08-08T11:18:17Z</time>
      </trkpt>
      <trkpt lat="49.88539" lon="3.96041">
        <ele>158.27</ele>
        <time>2021-08-08T11:18:18Z</time>
      </trkpt>
      <trkpt lat="49.88538" lon="3.96046">
        <ele>158.27</ele>
        <time>2021-08-08T11:18:19Z</time>
      </trkpt>
      <trkpt lat="49.88536" lon="3.9605">
        <ele>158.27</ele>
        <time>2021-08-08T11:18:20Z</time>
      </trkpt>
      <trkpt lat="49.88535" lon="3.96054">
        <ele>158.27</ele>
        <time>2021-08-08T11:18:21Z</time>
      </trkpt>
      <trkpt lat="49.88529" lon="3.96074">
        <ele>159.72</ele>
        <time>2021-08-08T11:18:26Z</time>
      </trkpt>
      <trkpt lat="49.88515" lon="3.96125">
        <ele>161.64</ele>
        <time>2021-08-08T11:18:37Z</time>
      </trkpt>
      <trkpt lat="49.88503" lon="3.96166">
        <ele>161.64</ele>
        <time>2021-08-08T11:18:44Z</time>
      </trkpt>
      <trkpt lat="49.88487" lon="3.96221">
        <ele>159.24</ele>
        <time>2021-08-08T11:18:53Z</time>
      </trkpt>
      <trkpt lat="49.88471" lon="3.96277">
        <ele>156.83</ele>
        <time>2021-08-08T11:19:00Z</time>
      </trkpt>
      <trkpt lat="49.88461" lon="3.96314">
        <ele>153.95</ele>
        <time>2021-08-08T11:19:04Z</time>
      </trkpt>
      <trkpt lat="49.88459" lon="3.96324">
        <ele>153.95</ele>
        <time>2021-08-08T11:19:05Z</time>
      </trkpt>
      <trkpt lat="49.88439" lon="3.96401">
        <ele>150.1</ele>
        <time>2021-08-08T11:19:12Z</time>
      </trkpt>
      <trkpt lat="49.88436" lon="3.96413">
        <ele>150.1</ele>
        <time>2021-08-08T11:19:13Z</time>
      </trkpt>
      <trkpt lat="49.88427" lon="3.96449">
        <ele>146.74</ele>
        <time>2021-08-08T11:19:16Z</time>
      </trkpt>
      <trkpt lat="49.88423" lon="3.96461">
        <ele>146.74</ele>
        <time>2021-08-08T11:19:17Z</time>
      </trkpt>
      <trkpt lat="49.88409" lon="3.96513">
        <ele>146.26</ele>
        <time>2021-08-08T11:19:22Z</time>
      </trkpt>
      <trkpt lat="49.88407" lon="3.9652">
        <ele>145.78</ele>
        <time>2021-08-08T11:19:23Z</time>
      </trkpt>
      <trkpt lat="49.88404" lon="3.96525">
        <ele>146.26</ele>
        <time>2021-08-08T11:19:24Z</time>
      </trkpt>
      <trkpt lat="49.88401" lon="3.96528">
        <ele>145.78</ele>
        <time>2021-08-08T11:19:25Z</time>
      </trkpt>
      <trkpt lat="49.88397" lon="3.96528">
        <ele>145.78</ele>
        <time>2021-08-08T11:19:26Z</time>
      </trkpt>
      <trkpt lat="49.88394" lon="3.96527">
        <ele>145.78</ele>
        <time>2021-08-08T11:19:27Z</time>
      </trkpt>
      <trkpt lat="49.8839" lon="3.96524">
        <ele>145.78</ele>
        <time>2021-08-08T11:19:28Z</time>
      </trkpt>
      <trkpt lat="49.88387" lon="3.96522">
        <ele>145.78</ele>
        <time>2021-08-08T11:19:29Z</time>
      </trkpt>
      <trkpt lat="49.88361" lon="3.96504">
        <ele>145.3</ele>
        <time>2021-08-08T11:19:36Z</time>
      </trkpt>
      <trkpt lat="49.88338" lon="3.96488">
        <ele>145.3</ele>
        <time>2021-08-08T11:19:43Z</time>
      </trkpt>
      <trkpt lat="49.8833" lon="3.96482">
        <ele>146.74</ele>
        <time>2021-08-08T11:19:46Z</time>
      </trkpt>
      <trkpt lat="49.88312" lon="3.96471">
        <ele>147.7</ele>
        <time>2021-08-08T11:19:54Z</time>
      </trkpt>
      <trkpt lat="49.88286" lon="3.96456">
        <ele>147.7</ele>
        <time>2021-08-08T11:20:03Z</time>
      </trkpt>
      <trkpt lat="49.88251" lon="3.96441">
        <ele>147.7</ele>
        <time>2021-08-08T11:20:12Z</time>
      </trkpt>
      <trkpt lat="49.88234" lon="3.96437">
        <ele>146.26</ele>
        <time>2021-08-08T11:20:16Z</time>
      </trkpt>
      <trkpt lat="49.882" lon="3.96439">
        <ele>146.26</ele>
        <time>2021-08-08T11:20:25Z</time>
      </trkpt>
      <trkpt lat="49.88175" lon="3.96449">
        <ele>145.3</ele>
        <time>2021-08-08T11:20:32Z</time>
      </trkpt>
      <trkpt lat="49.8815" lon="3.96466">
        <ele>144.34</ele>
        <time>2021-08-08T11:20:40Z</time>
      </trkpt>
      <trkpt lat="49.88138" lon="3.96469">
        <ele>144.34</ele>
        <time>2021-08-08T11:20:47Z</time>
      </trkpt>
      <trkpt lat="49.88136" lon="3.9647">
        <ele>144.34</ele>
        <time>2021-08-08T11:20:48Z</time>
      </trkpt>
      <trkpt lat="49.88134" lon="3.96471">
        <ele>144.34</ele>
        <time>2021-08-08T11:20:49Z</time>
      </trkpt>
      <trkpt lat="49.88119" lon="3.96474">
        <ele>145.78</ele>
        <time>2021-08-08T11:20:55Z</time>
      </trkpt>
      <trkpt lat="49.881" lon="3.96479">
        <ele>146.26</ele>
        <time>2021-08-08T11:21:03Z</time>
      </trkpt>
      <trkpt lat="49.88085" lon="3.96482">
        <ele>146.26</ele>
        <time>2021-08-08T11:21:09Z</time>
      </trkpt>
      <trkpt lat="49.88066" lon="3.96484">
        <ele>147.22</ele>
        <time>2021-08-08T11:21:17Z</time>
      </trkpt>
      <trkpt lat="49.88048" lon="3.96483">
        <ele>147.7</ele>
        <time>2021-08-08T11:21:26Z</time>
      </trkpt>
      <trkpt lat="49.88044" lon="3.96484">
        <ele>147.7</ele>
        <time>2021-08-08T11:21:28Z</time>
      </trkpt>
      <trkpt lat="49.88034" lon="3.96482">
        <ele>148.18</ele>
        <time>2021-08-08T11:21:33Z</time>
      </trkpt>
      <trkpt lat="49.88015" lon="3.96483">
        <ele>149.62</ele>
        <time>2021-08-08T11:21:42Z</time>
      </trkpt>
      <trkpt lat="49.87999" lon="3.96484">
        <ele>149.62</ele>
        <time>2021-08-08T11:21:49Z</time>
      </trkpt>
      <trkpt lat="49.87981" lon="3.96484">
        <ele>150.58</ele>
        <time>2021-08-08T11:21:57Z</time>
      </trkpt>
      <trkpt lat="49.87966" lon="3.96484">
        <ele>150.58</ele>
        <time>2021-08-08T11:22:04Z</time>
      </trkpt>
      <trkpt lat="49.87949" lon="3.96489">
        <ele>151.06</ele>
        <time>2021-08-08T11:22:11Z</time>
      </trkpt>
      <trkpt lat="49.87927" lon="3.96492">
        <ele>152.03</ele>
        <time>2021-08-08T11:22:20Z</time>
      </trkpt>
      <trkpt lat="49.87906" lon="3.96494">
        <ele>152.99</ele>
        <time>2021-08-08T11:22:28Z</time>
      </trkpt>
      <trkpt lat="49.87888" lon="3.96494">
        <ele>152.99</ele>
        <time>2021-08-08T11:22:35Z</time>
      </trkpt>
      <trkpt lat="49.87866" lon="3.96493">
        <ele>153.95</ele>
        <time>2021-08-08T11:22:43Z</time>
      </trkpt>
      <trkpt lat="49.87861" lon="3.96494">
        <ele>153.95</ele>
        <time>2021-08-08T11:22:45Z</time>
      </trkpt>
      <trkpt lat="49.87858" lon="3.96494">
        <ele>153.95</ele>
        <time>2021-08-08T11:22:46Z</time>
      </trkpt>
      <trkpt lat="49.87837" lon="3.96494">
        <ele>154.43</ele>
        <time>2021-08-08T11:22:53Z</time>
      </trkpt>
      <trkpt lat="49.87819" lon="3.96493">
        <ele>155.87</ele>
        <time>2021-08-08T11:23:00Z</time>
      </trkpt>
      <trkpt lat="49.87811" lon="3.96494">
        <ele>155.87</ele>
        <time>2021-08-08T11:23:04Z</time>
      </trkpt>
      <trkpt lat="49.87808" lon="3.96495">
        <ele>155.87</ele>
        <time>2021-08-08T11:23:05Z</time>
      </trkpt>
      <trkpt lat="49.87806" lon="3.96495">
        <ele>155.87</ele>
        <time>2021-08-08T11:23:06Z</time>
      </trkpt>
      <trkpt lat="49.87805" lon="3.96495">
        <ele>155.87</ele>
        <time>2021-08-08T11:23:07Z</time>
      </trkpt>
      <trkpt lat="49.87802" lon="3.96496">
        <ele>156.35</ele>
        <time>2021-08-08T11:23:08Z</time>
      </trkpt>
      <trkpt lat="49.87789" lon="3.96496">
        <ele>156.83</ele>
        <time>2021-08-08T11:23:15Z</time>
      </trkpt>
      <trkpt lat="49.87771" lon="3.96496">
        <ele>158.27</ele>
        <time>2021-08-08T11:23:24Z</time>
      </trkpt>
      <trkpt lat="49.87759" lon="3.96497">
        <ele>158.75</ele>
        <time>2021-08-08T11:23:30Z</time>
      </trkpt>
      <trkpt lat="49.87744" lon="3.965">
        <ele>159.72</ele>
        <time>2021-08-08T11:23:38Z</time>
      </trkpt>
      <trkpt lat="49.87735" lon="3.96502">
        <ele>160.2</ele>
        <time>2021-08-08T11:23:44Z</time>
      </trkpt>
      <trkpt lat="49.87734" lon="3.96504">
        <ele>160.68</ele>
        <time>2021-08-08T11:23:45Z</time>
      </trkpt>
      <trkpt lat="49.87723" lon="3.96513">
        <ele>161.64</ele>
        <time>2021-08-08T11:23:53Z</time>
      </trkpt>
      <trkpt lat="49.87713" lon="3.96519">
        <ele>162.6</ele>
        <time>2021-08-08T11:23:59Z</time>
      </trkpt>
      <trkpt lat="49.87711" lon="3.96521">
        <ele>162.6</ele>
        <time>2021-08-08T11:24:00Z</time>
      </trkpt>
      <trkpt lat="49.8771" lon="3.96522">
        <ele>163.08</ele>
        <time>2021-08-08T11:24:01Z</time>
      </trkpt>
      <trkpt lat="49.87708" lon="3.96524">
        <ele>163.08</ele>
        <time>2021-08-08T11:24:02Z</time>
      </trkpt>
      <trkpt lat="49.87707" lon="3.96525">
        <ele>163.56</ele>
        <time>2021-08-08T11:24:03Z</time>
      </trkpt>
      <trkpt lat="49.87706" lon="3.96526">
        <ele>163.56</ele>
        <time>2021-08-08T11:24:04Z</time>
      </trkpt>
      <trkpt lat="49.87704" lon="3.96527">
        <ele>163.56</ele>
        <time>2021-08-08T11:24:05Z</time>
      </trkpt>
      <trkpt lat="49.87694" lon="3.9654">
        <ele>165</ele>
        <time>2021-08-08T11:24:13Z</time>
      </trkpt>
      <trkpt lat="49.87691" lon="3.96543">
        <ele>165.48</ele>
        <time>2021-08-08T11:24:15Z</time>
      </trkpt>
      <trkpt lat="49.87689" lon="3.96545">
        <ele>166.45</ele>
        <time>2021-08-08T11:24:16Z</time>
      </trkpt>
      <trkpt lat="49.87687" lon="3.96546">
        <ele>166.45</ele>
        <time>2021-08-08T11:24:17Z</time>
      </trkpt>
      <trkpt lat="49.87686" lon="3.96548">
        <ele>166.93</ele>
        <time>2021-08-08T11:24:18Z</time>
      </trkpt>
      <trkpt lat="49.87684" lon="3.96549">
        <ele>166.93</ele>
        <time>2021-08-08T11:24:19Z</time>
      </trkpt>
      <trkpt lat="49.87682" lon="3.96551">
        <ele>166.93</ele>
        <time>2021-08-08T11:24:20Z</time>
      </trkpt>
      <trkpt lat="49.8768" lon="3.96552">
        <ele>167.41</ele>
        <time>2021-08-08T11:24:21Z</time>
      </trkpt>
      <trkpt lat="49.87664" lon="3.96569">
        <ele>170.29</ele>
        <time>2021-08-08T11:24:30Z</time>
      </trkpt>
      <trkpt lat="49.87653" lon="3.96577">
        <ele>171.25</ele>
        <time>2021-08-08T11:24:37Z</time>
      </trkpt>
      <trkpt lat="49.87638" lon="3.96587">
        <ele>173.17</ele>
        <time>2021-08-08T11:24:48Z</time>
      </trkpt>
      <trkpt lat="49.87625" lon="3.96593">
        <ele>174.62</ele>
        <time>2021-08-08T11:24:57Z</time>
      </trkpt>
      <trkpt lat="49.87622" lon="3.96595">
        <ele>174.62</ele>
        <time>2021-08-08T11:24:59Z</time>
      </trkpt>
      <trkpt lat="49.87621" lon="3.96595">
        <ele>174.62</ele>
        <time>2021-08-08T11:25:00Z</time>
      </trkpt>
      <trkpt lat="49.8762" lon="3.96595">
        <ele>175.1</ele>
        <time>2021-08-08T11:25:01Z</time>
      </trkpt>
      <trkpt lat="49.87612" lon="3.96595">
        <ele>176.06</ele>
        <time>2021-08-08T11:25:08Z</time>
      </trkpt>
      <trkpt lat="49.8761" lon="3.96596">
        <ele>176.54</ele>
        <time>2021-08-08T11:25:10Z</time>
      </trkpt>
      <trkpt lat="49.876" lon="3.966">
        <ele>177.5</ele>
        <time>2021-08-08T11:25:18Z</time>
      </trkpt>
      <trkpt lat="49.87593" lon="3.96601">
        <ele>177.98</ele>
        <time>2021-08-08T11:25:24Z</time>
      </trkpt>
      <trkpt lat="49.8758" lon="3.96607">
        <ele>179.42</ele>
        <time>2021-08-08T11:25:32Z</time>
      </trkpt>
      <trkpt lat="49.8757" lon="3.96609">
        <ele>180.38</ele>
        <time>2021-08-08T11:25:38Z</time>
      </trkpt>
      <trkpt lat="49.87568" lon="3.9661">
        <ele>180.87</ele>
        <time>2021-08-08T11:25:39Z</time>
      </trkpt>
      <trkpt lat="49.87566" lon="3.9661">
        <ele>180.87</ele>
        <time>2021-08-08T11:25:40Z</time>
      </trkpt>
      <trkpt lat="49.8755" lon="3.96614">
        <ele>181.83</ele>
        <time>2021-08-08T11:25:49Z</time>
      </trkpt>
      <trkpt lat="49.87538" lon="3.96619">
        <ele>182.79</ele>
        <time>2021-08-08T11:25:56Z</time>
      </trkpt>
      <trkpt lat="49.87527" lon="3.96622">
        <ele>183.75</ele>
        <time>2021-08-08T11:26:03Z</time>
      </trkpt>
      <trkpt lat="49.87512" lon="3.96628">
        <ele>184.71</ele>
        <time>2021-08-08T11:26:12Z</time>
      </trkpt>
      <trkpt lat="49.87499" lon="3.96633">
        <ele>185.67</ele>
        <time>2021-08-08T11:26:20Z</time>
      </trkpt>
      <trkpt lat="49.87483" lon="3.96637">
        <ele>187.11</ele>
        <time>2021-08-08T11:26:30Z</time>
      </trkpt>
      <trkpt lat="49.8747" lon="3.9664">
        <ele>187.59</ele>
        <time>2021-08-08T11:26:37Z</time>
      </trkpt>
      <trkpt lat="49.87468" lon="3.96641">
        <ele>188.08</ele>
        <time>2021-08-08T11:26:39Z</time>
      </trkpt>
      <trkpt lat="49.87466" lon="3.96641">
        <ele>188.08</ele>
        <time>2021-08-08T11:26:40Z</time>
      </trkpt>
      <trkpt lat="49.87464" lon="3.96641">
        <ele>188.08</ele>
        <time>2021-08-08T11:26:41Z</time>
      </trkpt>
      <trkpt lat="49.8745" lon="3.96643">
        <ele>189.04</ele>
        <time>2021-08-08T11:26:49Z</time>
      </trkpt>
      <trkpt lat="49.87437" lon="3.96646">
        <ele>189.52</ele>
        <time>2021-08-08T11:26:56Z</time>
      </trkpt>
      <trkpt lat="49.8742" lon="3.96651">
        <ele>190.96</ele>
        <time>2021-08-08T11:27:04Z</time>
      </trkpt>
      <trkpt lat="49.87418" lon="3.96652">
        <ele>190.96</ele>
        <time>2021-08-08T11:27:05Z</time>
      </trkpt>
      <trkpt lat="49.87087" lon="3.96797">
        <ele>206.34</ele>
        <time>2021-08-08T11:32:27Z</time>
      </trkpt>
      <trkpt lat="49.87083" lon="3.96791">
        <ele>207.3</ele>
        <time>2021-08-08T11:32:38Z</time>
      </trkpt>
      <trkpt lat="49.87082" lon="3.96789">
        <ele>208.26</ele>
        <time>2021-08-08T11:32:43Z</time>
      </trkpt>
      <trkpt lat="49.87081" lon="3.96792">
        <ele>210.19</ele>
        <time>2021-08-08T11:32:51Z</time>
      </trkpt>
      <trkpt lat="49.87081" lon="3.96794">
        <ele>212.11</ele>
        <time>2021-08-08T11:33:01Z</time>
      </trkpt>
      <trkpt lat="49.87072" lon="3.96798">
        <ele>213.55</ele>
        <time>2021-08-08T11:33:09Z</time>
      </trkpt>
      <trkpt lat="49.8707" lon="3.96796">
        <ele>206.82</ele>
        <time>2021-08-08T11:33:13Z</time>
      </trkpt>
      <trkpt lat="49.87069" lon="3.96796">
        <ele>214.03</ele>
        <time>2021-08-08T11:33:14Z</time>
      </trkpt>
      <trkpt lat="49.87068" lon="3.96796">
        <ele>214.03</ele>
        <time>2021-08-08T11:33:16Z</time>
      </trkpt>
      <trkpt lat="49.8706" lon="3.968">
        <ele>214.03</ele>
        <time>2021-08-08T11:33:21Z</time>
      </trkpt>
      <trkpt lat="49.87058" lon="3.96801">
        <ele>214.03</ele>
        <time>2021-08-08T11:33:22Z</time>
      </trkpt>
      <trkpt lat="49.87056" lon="3.96802">
        <ele>214.03</ele>
        <time>2021-08-08T11:33:23Z</time>
      </trkpt>
      <trkpt lat="49.87054" lon="3.96802">
        <ele>214.03</ele>
        <time>2021-08-08T11:33:24Z</time>
      </trkpt>
      <trkpt lat="49.87031" lon="3.96811">
        <ele>214.99</ele>
        <time>2021-08-08T11:33:33Z</time>
      </trkpt>
      <trkpt lat="49.8701" lon="3.9682">
        <ele>214.99</ele>
        <time>2021-08-08T11:33:39Z</time>
      </trkpt>
      <trkpt lat="49.86994" lon="3.96826">
        <ele>213.55</ele>
        <time>2021-08-08T11:33:43Z</time>
      </trkpt>
      <trkpt lat="49.86989" lon="3.96829">
        <ele>213.55</ele>
        <time>2021-08-08T11:33:44Z</time>
      </trkpt>
      <trkpt lat="49.86949" lon="3.96857">
        <ele>213.55</ele>
        <time>2021-08-08T11:33:54Z</time>
      </trkpt>
      <trkpt lat="49.86933" lon="3.96867">
        <ele>214.99</ele>
        <time>2021-08-08T11:33:58Z</time>
      </trkpt>
      <trkpt lat="49.86886" lon="3.96896">
        <ele>215.47</ele>
        <time>2021-08-08T11:34:09Z</time>
      </trkpt>
      <trkpt lat="49.86842" lon="3.96916">
        <ele>216.43</ele>
        <time>2021-08-08T11:34:19Z</time>
      </trkpt>
      <trkpt lat="49.86806" lon="3.96935">
        <ele>216.43</ele>
        <time>2021-08-08T11:34:28Z</time>
      </trkpt>
      <trkpt lat="49.86798" lon="3.96939">
        <ele>216.43</ele>
        <time>2021-08-08T11:34:30Z</time>
      </trkpt>
      <trkpt lat="49.86774" lon="3.96938">
        <ele>216.43</ele>
        <time>2021-08-08T11:34:36Z</time>
      </trkpt>
      <trkpt lat="49.86747" lon="3.96923">
        <ele>217.4</ele>
        <time>2021-08-08T11:34:44Z</time>
      </trkpt>
      <trkpt lat="49.8672" lon="3.96913">
        <ele>218.36</ele>
        <time>2021-08-08T11:34:52Z</time>
      </trkpt>
      <trkpt lat="49.8669" lon="3.96907">
        <ele>219.8</ele>
        <time>2021-08-08T11:35:01Z</time>
      </trkpt>
      <trkpt lat="49.86662" lon="3.96913">
        <ele>220.28</ele>
        <time>2021-08-08T11:35:08Z</time>
      </trkpt>
      <trkpt lat="49.86648" lon="3.96919">
        <ele>218.84</ele>
        <time>2021-08-08T11:35:11Z</time>
      </trkpt>
      <trkpt lat="49.86594" lon="3.96938">
        <ele>217.4</ele>
        <time>2021-08-08T11:35:22Z</time>
      </trkpt>
      <trkpt lat="49.8656" lon="3.96944">
        <ele>217.4</ele>
        <time>2021-08-08T11:35:29Z</time>
      </trkpt>
      <trkpt lat="49.86555" lon="3.96944">
        <ele>217.4</ele>
        <time>2021-08-08T11:35:30Z</time>
      </trkpt>
      <trkpt lat="49.8655" lon="3.96945">
        <ele>217.4</ele>
        <time>2021-08-08T11:35:31Z</time>
      </trkpt>
      <trkpt lat="49.86545" lon="3.96945">
        <ele>217.4</ele>
        <time>2021-08-08T11:35:32Z</time>
      </trkpt>
      <trkpt lat="49.86541" lon="3.96946">
        <ele>217.4</ele>
        <time>2021-08-08T11:35:33Z</time>
      </trkpt>
      <trkpt lat="49.86537" lon="3.96947">
        <ele>217.4</ele>
        <time>2021-08-08T11:35:34Z</time>
      </trkpt>
      <trkpt lat="49.86532" lon="3.96947">
        <ele>217.4</ele>
        <time>2021-08-08T11:35:35Z</time>
      </trkpt>
      <trkpt lat="49.86529" lon="3.96947">
        <ele>217.4</ele>
        <time>2021-08-08T11:35:36Z</time>
      </trkpt>
      <trkpt lat="49.8651" lon="3.96956">
        <ele>217.4</ele>
        <time>2021-08-08T11:35:42Z</time>
      </trkpt>
      <trkpt lat="49.86484" lon="3.96969">
        <ele>216.91</ele>
        <time>2021-08-08T11:35:50Z</time>
      </trkpt>
      <trkpt lat="49.86456" lon="3.96986">
        <ele>216.91</ele>
        <time>2021-08-08T11:35:58Z</time>
      </trkpt>
      <trkpt lat="49.86452" lon="3.96989">
        <ele>216.91</ele>
        <time>2021-08-08T11:35:59Z</time>
      </trkpt>
      <trkpt lat="49.86416" lon="3.97011">
        <ele>216.91</ele>
        <time>2021-08-08T11:36:08Z</time>
      </trkpt>
      <trkpt lat="49.86409" lon="3.97017">
        <ele>218.36</ele>
        <time>2021-08-08T11:36:10Z</time>
      </trkpt>
      <trkpt lat="49.86373" lon="3.97041">
        <ele>218.36</ele>
        <time>2021-08-08T11:36:19Z</time>
      </trkpt>
      <trkpt lat="49.86339" lon="3.9706">
        <ele>218.84</ele>
        <time>2021-08-08T11:36:28Z</time>
      </trkpt>
      <trkpt lat="49.86319" lon="3.97068">
        <ele>218.84</ele>
        <time>2021-08-08T11:36:34Z</time>
      </trkpt>
      <trkpt lat="49.86293" lon="3.9708">
        <ele>219.8</ele>
        <time>2021-08-08T11:36:43Z</time>
      </trkpt>
      <trkpt lat="49.86273" lon="3.97085">
        <ele>221.24</ele>
        <time>2021-08-08T11:36:51Z</time>
      </trkpt>
      <trkpt lat="49.86251" lon="3.97093">
        <ele>222.2</ele>
        <time>2021-08-08T11:36:59Z</time>
      </trkpt>
      <trkpt lat="49.86234" lon="3.9711">
        <ele>222.2</ele>
        <time>2021-08-08T11:37:06Z</time>
      </trkpt>
      <trkpt lat="49.86219" lon="3.97121">
        <ele>222.2</ele>
        <time>2021-08-08T11:37:12Z</time>
      </trkpt>
      <trkpt lat="49.86199" lon="3.97139">
        <ele>222.2</ele>
        <time>2021-08-08T11:37:20Z</time>
      </trkpt>
      <trkpt lat="49.86185" lon="3.9715">
        <ele>222.2</ele>
        <time>2021-08-08T11:37:27Z</time>
      </trkpt>
      <trkpt lat="49.86181" lon="3.97155">
        <ele>222.68</ele>
        <time>2021-08-08T11:37:32Z</time>
      </trkpt>
      <trkpt lat="49.86179" lon="3.97155">
        <ele>222.68</ele>
        <time>2021-08-08T11:37:38Z</time>
      </trkpt>
      <trkpt lat="49.86179" lon="3.97156">
        <ele>222.68</ele>
        <time>2021-08-08T11:38:01Z</time>
      </trkpt>
      <trkpt lat="49.86179" lon="3.97154">
        <ele>222.68</ele>
        <time>2021-08-08T11:38:19Z</time>
      </trkpt>
      <trkpt lat="49.8618" lon="3.97154">
        <ele>222.68</ele>
        <time>2021-08-08T11:38:33Z</time>
      </trkpt>
      <trkpt lat="49.86179" lon="3.97155">
        <ele>222.68</ele>
        <time>2021-08-08T11:38:53Z</time>
      </trkpt>
      <trkpt lat="49.86179" lon="3.97154">
        <ele>222.2</ele>
        <time>2021-08-08T11:39:09Z</time>
      </trkpt>
      <trkpt lat="49.86179" lon="3.97155">
        <ele>222.2</ele>
        <time>2021-08-08T11:39:27Z</time>
      </trkpt>
      <trkpt lat="49.8618" lon="3.97153">
        <ele>222.2</ele>
        <time>2021-08-08T11:39:42Z</time>
      </trkpt>
      <trkpt lat="49.8618" lon="3.97154">
        <ele>222.2</ele>
        <time>2021-08-08T11:39:54Z</time>
      </trkpt>
      <trkpt lat="49.86179" lon="3.97156">
        <ele>222.2</ele>
        <time>2021-08-08T11:40:07Z</time>
      </trkpt>
      <trkpt lat="49.86179" lon="3.97157">
        <ele>222.2</ele>
        <time>2021-08-08T11:40:12Z</time>
      </trkpt>
      <trkpt lat="49.86177" lon="3.9716">
        <ele>222.2</ele>
        <time>2021-08-08T11:40:14Z</time>
      </trkpt>
      <trkpt lat="49.86176" lon="3.97162">
        <ele>222.2</ele>
        <time>2021-08-08T11:40:15Z</time>
      </trkpt>
      <trkpt lat="49.86174" lon="3.97164">
        <ele>222.2</ele>
        <time>2021-08-08T11:40:16Z</time>
      </trkpt>
      <trkpt lat="49.86173" lon="3.97167">
        <ele>222.2</ele>
        <time>2021-08-08T11:40:17Z</time>
      </trkpt>
      <trkpt lat="49.86171" lon="3.97169">
        <ele>222.2</ele>
        <time>2021-08-08T11:40:18Z</time>
      </trkpt>
      <trkpt lat="49.86169" lon="3.97172">
        <ele>222.2</ele>
        <time>2021-08-08T11:40:19Z</time>
      </trkpt>
      <trkpt lat="49.86151" lon="3.97191">
        <ele>222.2</ele>
        <time>2021-08-08T11:40:26Z</time>
      </trkpt>
      <trkpt lat="49.86128" lon="3.97211">
        <ele>222.2</ele>
        <time>2021-08-08T11:40:33Z</time>
      </trkpt>
      <trkpt lat="49.86106" lon="3.97226">
        <ele>222.2</ele>
        <time>2021-08-08T11:40:39Z</time>
      </trkpt>
      <trkpt lat="49.86094" lon="3.97233">
        <ele>222.2</ele>
        <time>2021-08-08T11:40:42Z</time>
      </trkpt>
      <trkpt lat="49.86076" lon="3.97241">
        <ele>220.76</ele>
        <time>2021-08-08T11:40:46Z</time>
      </trkpt>
      <trkpt lat="49.86069" lon="3.97248">
        <ele>220.28</ele>
        <time>2021-08-08T11:40:48Z</time>
      </trkpt>
      <trkpt lat="49.86065" lon="3.97251">
        <ele>220.28</ele>
        <time>2021-08-08T11:40:49Z</time>
      </trkpt>
      <trkpt lat="49.8606" lon="3.97253">
        <ele>219.8</ele>
        <time>2021-08-08T11:40:50Z</time>
      </trkpt>
      <trkpt lat="49.86056" lon="3.97256">
        <ele>219.8</ele>
        <time>2021-08-08T11:40:51Z</time>
      </trkpt>
      <trkpt lat="49.86051" lon="3.97258">
        <ele>219.8</ele>
        <time>2021-08-08T11:40:52Z</time>
      </trkpt>
      <trkpt lat="49.86047" lon="3.97261">
        <ele>219.8</ele>
        <time>2021-08-08T11:40:53Z</time>
      </trkpt>
      <trkpt lat="49.86017" lon="3.97277">
        <ele>219.8</ele>
        <time>2021-08-08T11:41:00Z</time>
      </trkpt>
      <trkpt lat="49.8599" lon="3.97293">
        <ele>221.24</ele>
        <time>2021-08-08T11:41:07Z</time>
      </trkpt>
      <trkpt lat="49.85955" lon="3.97312">
        <ele>221.24</ele>
        <time>2021-08-08T11:41:15Z</time>
      </trkpt>
      <trkpt lat="49.8593" lon="3.97324">
        <ele>219.8</ele>
        <time>2021-08-08T11:41:22Z</time>
      </trkpt>
      <trkpt lat="49.85922" lon="3.97334">
        <ele>218.84</ele>
        <time>2021-08-08T11:41:26Z</time>
      </trkpt>
      <trkpt lat="49.85921" lon="3.97338">
        <ele>218.84</ele>
        <time>2021-08-08T11:41:27Z</time>
      </trkpt>
      <trkpt lat="49.85921" lon="3.97341">
        <ele>218.84</ele>
        <time>2021-08-08T11:41:28Z</time>
      </trkpt>
      <trkpt lat="49.85921" lon="3.97346">
        <ele>218.84</ele>
        <time>2021-08-08T11:41:29Z</time>
      </trkpt>
      <trkpt lat="49.85921" lon="3.9735">
        <ele>218.84</ele>
        <time>2021-08-08T11:41:30Z</time>
      </trkpt>
      <trkpt lat="49.85922" lon="3.97356">
        <ele>218.84</ele>
        <time>2021-08-08T11:41:31Z</time>
      </trkpt>
      <trkpt lat="49.85925" lon="3.97397">
        <ele>218.84</ele>
        <time>2021-08-08T11:41:39Z</time>
      </trkpt>
      <trkpt lat="49.85932" lon="3.9746">
        <ele>218.84</ele>
        <time>2021-08-08T11:41:48Z</time>
      </trkpt>
      <trkpt lat="49.85934" lon="3.97476">
        <ele>218.84</ele>
        <time>2021-08-08T11:41:50Z</time>
      </trkpt>
      <trkpt lat="49.85934" lon="3.97484">
        <ele>218.84</ele>
        <time>2021-08-08T11:41:51Z</time>
      </trkpt>
      <trkpt lat="49.85932" lon="3.97491">
        <ele>218.84</ele>
        <time>2021-08-08T11:41:52Z</time>
      </trkpt>
      <trkpt lat="49.85928" lon="3.97498">
        <ele>218.84</ele>
        <time>2021-08-08T11:41:53Z</time>
      </trkpt>
      <trkpt lat="49.85923" lon="3.97502">
        <ele>218.84</ele>
        <time>2021-08-08T11:41:54Z</time>
      </trkpt>
      <trkpt lat="49.85919" lon="3.97506">
        <ele>218.84</ele>
        <time>2021-08-08T11:41:55Z</time>
      </trkpt>
      <trkpt lat="49.85914" lon="3.97511">
        <ele>218.36</ele>
        <time>2021-08-08T11:41:56Z</time>
      </trkpt>
      <trkpt lat="49.85908" lon="3.97514">
        <ele>218.36</ele>
        <time>2021-08-08T11:41:57Z</time>
      </trkpt>
      <trkpt lat="49.85856" lon="3.97547">
        <ele>217.4</ele>
        <time>2021-08-08T11:42:07Z</time>
      </trkpt>
      <trkpt lat="49.85806" lon="3.97584">
        <ele>218.36</ele>
        <time>2021-08-08T11:42:17Z</time>
      </trkpt>
      <trkpt lat="49.85759" lon="3.9762">
        <ele>218.36</ele>
        <time>2021-08-08T11:42:27Z</time>
      </trkpt>
      <trkpt lat="49.85715" lon="3.97651">
        <ele>216.43</ele>
        <time>2021-08-08T11:42:36Z</time>
      </trkpt>
      <trkpt lat="49.85688" lon="3.97671">
        <ele>215.95</ele>
        <time>2021-08-08T11:42:42Z</time>
      </trkpt>
      <trkpt lat="49.85683" lon="3.97671">
        <ele>215.95</ele>
        <time>2021-08-08T11:42:43Z</time>
      </trkpt>
      <trkpt lat="49.85679" lon="3.97669">
        <ele>216.43</ele>
        <time>2021-08-08T11:42:44Z</time>
      </trkpt>
      <trkpt lat="49.85676" lon="3.97665">
        <ele>215.95</ele>
        <time>2021-08-08T11:42:45Z</time>
      </trkpt>
      <trkpt lat="49.85673" lon="3.97659">
        <ele>216.43</ele>
        <time>2021-08-08T11:42:46Z</time>
      </trkpt>
      <trkpt lat="49.85672" lon="3.97654">
        <ele>216.43</ele>
        <time>2021-08-08T11:42:47Z</time>
      </trkpt>
      <trkpt lat="49.8567" lon="3.97648">
        <ele>217.4</ele>
        <time>2021-08-08T11:42:48Z</time>
      </trkpt>
      <trkpt lat="49.85668" lon="3.97642">
        <ele>217.4</ele>
        <time>2021-08-08T11:42:49Z</time>
      </trkpt>
      <trkpt lat="49.85655" lon="3.97606">
        <ele>217.88</ele>
        <time>2021-08-08T11:42:57Z</time>
      </trkpt>
      <trkpt lat="49.85637" lon="3.97561">
        <ele>218.84</ele>
        <time>2021-08-08T11:43:07Z</time>
      </trkpt>
      <trkpt lat="49.85618" lon="3.97519">
        <ele>219.32</ele>
        <time>2021-08-08T11:43:16Z</time>
      </trkpt>
      <trkpt lat="49.85606" lon="3.97494">
        <ele>219.32</ele>
        <time>2021-08-08T11:43:21Z</time>
      </trkpt>
      <trkpt lat="49.85604" lon="3.97488">
        <ele>217.88</ele>
        <time>2021-08-08T11:43:22Z</time>
      </trkpt>
      <trkpt lat="49.85601" lon="3.97483">
        <ele>217.88</ele>
        <time>2021-08-08T11:43:23Z</time>
      </trkpt>
      <trkpt lat="49.85599" lon="3.97477">
        <ele>217.88</ele>
        <time>2021-08-08T11:43:24Z</time>
      </trkpt>
      <trkpt lat="49.85596" lon="3.97472">
        <ele>217.88</ele>
        <time>2021-08-08T11:43:25Z</time>
      </trkpt>
      <trkpt lat="49.85593" lon="3.97467">
        <ele>217.88</ele>
        <time>2021-08-08T11:43:26Z</time>
      </trkpt>
      <trkpt lat="49.85576" lon="3.97434">
        <ele>217.4</ele>
        <time>2021-08-08T11:43:34Z</time>
      </trkpt>
      <trkpt lat="49.8555" lon="3.97385">
        <ele>218.84</ele>
        <time>2021-08-08T11:43:46Z</time>
      </trkpt>
      <trkpt lat="49.85538" lon="3.9736">
        <ele>217.88</ele>
        <time>2021-08-08T11:43:51Z</time>
      </trkpt>
      <trkpt lat="49.85531" lon="3.97345">
        <ele>216.43</ele>
        <time>2021-08-08T11:43:54Z</time>
      </trkpt>
      <trkpt lat="49.85528" lon="3.97339">
        <ele>216.43</ele>
        <time>2021-08-08T11:43:55Z</time>
      </trkpt>
      <trkpt lat="49.85514" lon="3.97315">
        <ele>215.47</ele>
        <time>2021-08-08T11:44:00Z</time>
      </trkpt>
      <trkpt lat="49.85512" lon="3.97309">
        <ele>215.47</ele>
        <time>2021-08-08T11:44:01Z</time>
      </trkpt>
      <trkpt lat="49.85488" lon="3.9726">
        <ele>213.07</ele>
        <time>2021-08-08T11:44:09Z</time>
      </trkpt>
      <trkpt lat="49.85482" lon="3.97247">
        <ele>212.59</ele>
        <time>2021-08-08T11:44:11Z</time>
      </trkpt>
      <trkpt lat="49.85479" lon="3.9724">
        <ele>211.63</ele>
        <time>2021-08-08T11:44:12Z</time>
      </trkpt>
      <trkpt lat="49.85445" lon="3.97176">
        <ele>209.7</ele>
        <time>2021-08-08T11:44:21Z</time>
      </trkpt>
      <trkpt lat="49.85413" lon="3.97119">
        <ele>208.74</ele>
        <time>2021-08-08T11:44:30Z</time>
      </trkpt>
      <trkpt lat="49.85385" lon="3.97069">
        <ele>206.82</ele>
        <time>2021-08-08T11:44:39Z</time>
      </trkpt>
      <trkpt lat="49.85379" lon="3.9706">
        <ele>206.82</ele>
        <time>2021-08-08T11:44:41Z</time>
      </trkpt>
      <trkpt lat="49.85376" lon="3.97055">
        <ele>206.82</ele>
        <time>2021-08-08T11:44:42Z</time>
      </trkpt>
      <trkpt lat="49.85373" lon="3.9705">
        <ele>206.82</ele>
        <time>2021-08-08T11:44:43Z</time>
      </trkpt>
      <trkpt lat="49.85364" lon="3.97029">
        <ele>206.82</ele>
        <time>2021-08-08T11:44:47Z</time>
      </trkpt>
      <trkpt lat="49.85362" lon="3.97023">
        <ele>206.82</ele>
        <time>2021-08-08T11:44:48Z</time>
      </trkpt>
      <trkpt lat="49.85345" lon="3.96988">
        <ele>206.34</ele>
        <time>2021-08-08T11:44:56Z</time>
      </trkpt>
      <trkpt lat="49.85324" lon="3.96947">
        <ele>206.34</ele>
        <time>2021-08-08T11:45:06Z</time>
      </trkpt>
      <trkpt lat="49.85313" lon="3.96922">
        <ele>207.78</ele>
        <time>2021-08-08T11:45:13Z</time>
      </trkpt>
      <trkpt lat="49.85297" lon="3.96887">
        <ele>208.26</ele>
        <time>2021-08-08T11:45:23Z</time>
      </trkpt>
      <trkpt lat="49.85282" lon="3.96855">
        <ele>209.7</ele>
        <time>2021-08-08T11:45:33Z</time>
      </trkpt>
      <trkpt lat="49.85272" lon="3.96827">
        <ele>210.67</ele>
        <time>2021-08-08T11:45:42Z</time>
      </trkpt>
      <trkpt lat="49.85259" lon="3.968">
        <ele>211.63</ele>
        <time>2021-08-08T11:45:52Z</time>
      </trkpt>
      <trkpt lat="49.85247" lon="3.96777">
        <ele>212.11</ele>
        <time>2021-08-08T11:46:00Z</time>
      </trkpt>
      <trkpt lat="49.85233" lon="3.96749">
        <ele>212.11</ele>
        <time>2021-08-08T11:46:10Z</time>
      </trkpt>
      <trkpt lat="49.85219" lon="3.96723">
        <ele>212.11</ele>
        <time>2021-08-08T11:46:18Z</time>
      </trkpt>
      <trkpt lat="49.85201" lon="3.96688">
        <ele>212.11</ele>
        <time>2021-08-08T11:46:28Z</time>
      </trkpt>
      <trkpt lat="49.85187" lon="3.9666">
        <ele>212.11</ele>
        <time>2021-08-08T11:46:36Z</time>
      </trkpt>
      <trkpt lat="49.8517" lon="3.96628">
        <ele>212.59</ele>
        <time>2021-08-08T11:46:45Z</time>
      </trkpt>
      <trkpt lat="49.85158" lon="3.96608">
        <ele>212.59</ele>
        <time>2021-08-08T11:46:51Z</time>
      </trkpt>
      <trkpt lat="49.85146" lon="3.9658">
        <ele>212.59</ele>
        <time>2021-08-08T11:46:59Z</time>
      </trkpt>
      <trkpt lat="49.85133" lon="3.96555">
        <ele>212.59</ele>
        <time>2021-08-08T11:47:06Z</time>
      </trkpt>
      <trkpt lat="49.85118" lon="3.96526">
        <ele>212.59</ele>
        <time>2021-08-08T11:47:13Z</time>
      </trkpt>
      <trkpt lat="49.85104" lon="3.96497">
        <ele>212.59</ele>
        <time>2021-08-08T11:47:20Z</time>
      </trkpt>
      <trkpt lat="49.8509" lon="3.9647">
        <ele>212.59</ele>
        <time>2021-08-08T11:47:27Z</time>
      </trkpt>
      <trkpt lat="49.85078" lon="3.96446">
        <ele>212.59</ele>
        <time>2021-08-08T11:47:35Z</time>
      </trkpt>
      <trkpt lat="49.85068" lon="3.96425">
        <ele>212.59</ele>
        <time>2021-08-08T11:47:41Z</time>
      </trkpt>
      <trkpt lat="49.85051" lon="3.96394">
        <ele>211.15</ele>
        <time>2021-08-08T11:47:50Z</time>
      </trkpt>
      <trkpt lat="49.85034" lon="3.96362">
        <ele>211.15</ele>
        <time>2021-08-08T11:47:58Z</time>
      </trkpt>
      <trkpt lat="49.85006" lon="3.96308">
        <ele>210.67</ele>
        <time>2021-08-08T11:48:09Z</time>
      </trkpt>
      <trkpt lat="49.84984" lon="3.96266">
        <ele>210.67</ele>
        <time>2021-08-08T11:48:18Z</time>
      </trkpt>
      <trkpt lat="49.84975" lon="3.96249">
        <ele>210.67</ele>
        <time>2021-08-08T11:48:23Z</time>
      </trkpt>
      <trkpt lat="49.84963" lon="3.96223">
        <ele>210.19</ele>
        <time>2021-08-08T11:48:30Z</time>
      </trkpt>
      <trkpt lat="49.84952" lon="3.96201">
        <ele>210.19</ele>
        <time>2021-08-08T11:48:38Z</time>
      </trkpt>
      <trkpt lat="49.84936" lon="3.96164">
        <ele>210.19</ele>
        <time>2021-08-08T11:48:46Z</time>
      </trkpt>
      <trkpt lat="49.84911" lon="3.96113">
        <ele>208.26</ele>
        <time>2021-08-08T11:48:56Z</time>
      </trkpt>
      <trkpt lat="49.84908" lon="3.96107">
        <ele>208.26</ele>
        <time>2021-08-08T11:48:57Z</time>
      </trkpt>
      <trkpt lat="49.849" lon="3.96092">
        <ele>207.78</ele>
        <time>2021-08-08T11:49:00Z</time>
      </trkpt>
      <trkpt lat="49.84876" lon="3.96045">
        <ele>206.34</ele>
        <time>2021-08-08T11:49:08Z</time>
      </trkpt>
      <trkpt lat="49.84868" lon="3.96029">
        <ele>206.34</ele>
        <time>2021-08-08T11:49:11Z</time>
      </trkpt>
      <trkpt lat="49.84848" lon="3.95992">
        <ele>206.34</ele>
        <time>2021-08-08T11:49:19Z</time>
      </trkpt>
      <trkpt lat="49.84833" lon="3.95962">
        <ele>206.34</ele>
        <time>2021-08-08T11:49:26Z</time>
      </trkpt>
      <trkpt lat="49.84815" lon="3.95933">
        <ele>205.86</ele>
        <time>2021-08-08T11:49:33Z</time>
      </trkpt>
      <trkpt lat="49.848" lon="3.95904">
        <ele>204.9</ele>
        <time>2021-08-08T11:49:39Z</time>
      </trkpt>
      <trkpt lat="49.84772" lon="3.95853">
        <ele>203.46</ele>
        <time>2021-08-08T11:49:49Z</time>
      </trkpt>
      <trkpt lat="49.84757" lon="3.95825">
        <ele>202.49</ele>
        <time>2021-08-08T11:49:55Z</time>
      </trkpt>
      <trkpt lat="49.84753" lon="3.9582">
        <ele>202.49</ele>
        <time>2021-08-08T11:49:56Z</time>
      </trkpt>
      <trkpt lat="49.84749" lon="3.95817">
        <ele>202.49</ele>
        <time>2021-08-08T11:49:57Z</time>
      </trkpt>
      <trkpt lat="49.84745" lon="3.95814">
        <ele>202.49</ele>
        <time>2021-08-08T11:49:58Z</time>
      </trkpt>
      <trkpt lat="49.8474" lon="3.95812">
        <ele>202.49</ele>
        <time>2021-08-08T11:49:59Z</time>
      </trkpt>
      <trkpt lat="49.84736" lon="3.95811">
        <ele>202.49</ele>
        <time>2021-08-08T11:50:00Z</time>
      </trkpt>
      <trkpt lat="49.84731" lon="3.95811">
        <ele>202.49</ele>
        <time>2021-08-08T11:50:01Z</time>
      </trkpt>
      <trkpt lat="49.84727" lon="3.95811">
        <ele>202.49</ele>
        <time>2021-08-08T11:50:02Z</time>
      </trkpt>
      <trkpt lat="49.84722" lon="3.95812">
        <ele>202.49</ele>
        <time>2021-08-08T11:50:03Z</time>
      </trkpt>
      <trkpt lat="49.84687" lon="3.95831">
        <ele>202.49</ele>
        <time>2021-08-08T11:50:11Z</time>
      </trkpt>
      <trkpt lat="49.84636" lon="3.9586">
        <ele>201.53</ele>
        <time>2021-08-08T11:50:21Z</time>
      </trkpt>
      <trkpt lat="49.84593" lon="3.95884">
        <ele>199.13</ele>
        <time>2021-08-08T11:50:29Z</time>
      </trkpt>
      <trkpt lat="49.84559" lon="3.95902">
        <ele>196.73</ele>
        <time>2021-08-08T11:50:34Z</time>
      </trkpt>
      <trkpt lat="49.84527" lon="3.95917">
        <ele>195.28</ele>
        <time>2021-08-08T11:50:38Z</time>
      </trkpt>
      <trkpt lat="49.84503" lon="3.95927">
        <ele>193.84</ele>
        <time>2021-08-08T11:50:41Z</time>
      </trkpt>
      <trkpt lat="49.84456" lon="3.95944">
        <ele>190</ele>
        <time>2021-08-08T11:50:46Z</time>
      </trkpt>
      <trkpt lat="49.8437" lon="3.95976">
        <ele>189.04</ele>
        <time>2021-08-08T11:50:56Z</time>
      </trkpt>
      <trkpt lat="49.84328" lon="3.95978">
        <ele>190</ele>
        <time>2021-08-08T11:51:02Z</time>
      </trkpt>
      <trkpt lat="49.84321" lon="3.95976">
        <ele>190.96</ele>
        <time>2021-08-08T11:51:03Z</time>
      </trkpt>
      <trkpt lat="49.84315" lon="3.95974">
        <ele>190.96</ele>
        <time>2021-08-08T11:51:04Z</time>
      </trkpt>
      <trkpt lat="49.84268" lon="3.95955">
        <ele>190.96</ele>
        <time>2021-08-08T11:51:12Z</time>
      </trkpt>
      <trkpt lat="49.84217" lon="3.95935">
        <ele>190.96</ele>
        <time>2021-08-08T11:51:21Z</time>
      </trkpt>
      <trkpt lat="49.84193" lon="3.95921">
        <ele>189.04</ele>
        <time>2021-08-08T11:51:25Z</time>
      </trkpt>
      <trkpt lat="49.84132" lon="3.95879">
        <ele>188.08</ele>
        <time>2021-08-08T11:51:36Z</time>
      </trkpt>
      <trkpt lat="49.841" lon="3.9586">
        <ele>188.08</ele>
        <time>2021-08-08T11:51:42Z</time>
      </trkpt>
      <trkpt lat="49.84095" lon="3.95859">
        <ele>188.08</ele>
        <time>2021-08-08T11:51:43Z</time>
      </trkpt>
      <trkpt lat="49.84089" lon="3.9586">
        <ele>188.08</ele>
        <time>2021-08-08T11:51:44Z</time>
      </trkpt>
      <trkpt lat="49.84083" lon="3.95863">
        <ele>188.08</ele>
        <time>2021-08-08T11:51:45Z</time>
      </trkpt>
      <trkpt lat="49.84077" lon="3.95867">
        <ele>188.08</ele>
        <time>2021-08-08T11:51:46Z</time>
      </trkpt>
      <trkpt lat="49.84072" lon="3.95871">
        <ele>187.11</ele>
        <time>2021-08-08T11:51:47Z</time>
      </trkpt>
      <trkpt lat="49.84066" lon="3.95876">
        <ele>186.63</ele>
        <time>2021-08-08T11:51:48Z</time>
      </trkpt>
      <trkpt lat="49.84021" lon="3.95914">
        <ele>184.23</ele>
        <time>2021-08-08T11:51:55Z</time>
      </trkpt>
      <trkpt lat="49.83993" lon="3.95934">
        <ele>181.35</ele>
        <time>2021-08-08T11:51:59Z</time>
      </trkpt>
      <trkpt lat="49.83986" lon="3.95936">
        <ele>180.38</ele>
        <time>2021-08-08T11:52:00Z</time>
      </trkpt>
      <trkpt lat="49.83972" lon="3.95941">
        <ele>179.9</ele>
        <time>2021-08-08T11:52:02Z</time>
      </trkpt>
      <trkpt lat="49.83962" lon="3.95947">
        <ele>179.9</ele>
        <time>2021-08-08T11:52:05Z</time>
      </trkpt>
      <trkpt lat="49.8396" lon="3.9595">
        <ele>179.9</ele>
        <time>2021-08-08T11:52:06Z</time>
      </trkpt>
      <trkpt lat="49.8396" lon="3.95954">
        <ele>179.9</ele>
        <time>2021-08-08T11:52:07Z</time>
      </trkpt>
      <trkpt lat="49.8396" lon="3.95958">
        <ele>179.9</ele>
        <time>2021-08-08T11:52:08Z</time>
      </trkpt>
      <trkpt lat="49.83962" lon="3.95964">
        <ele>179.42</ele>
        <time>2021-08-08T11:52:09Z</time>
      </trkpt>
      <trkpt lat="49.83963" lon="3.9597">
        <ele>178.94</ele>
        <time>2021-08-08T11:52:10Z</time>
      </trkpt>
      <trkpt lat="49.83975" lon="3.96025">
        <ele>176.54</ele>
        <time>2021-08-08T11:52:17Z</time>
      </trkpt>
      <trkpt lat="49.83994" lon="3.96103">
        <ele>173.66</ele>
        <time>2021-08-08T11:52:24Z</time>
      </trkpt>
      <trkpt lat="49.84009" lon="3.96168">
        <ele>170.29</ele>
        <time>2021-08-08T11:52:29Z</time>
      </trkpt>
      <trkpt lat="49.84018" lon="3.96233">
        <ele>166.45</ele>
        <time>2021-08-08T11:52:33Z</time>
      </trkpt>
      <trkpt lat="49.84023" lon="3.96302">
        <ele>164.04</ele>
        <time>2021-08-08T11:52:37Z</time>
      </trkpt>
      <trkpt lat="49.84021" lon="3.96319">
        <ele>164.04</ele>
        <time>2021-08-08T11:52:38Z</time>
      </trkpt>
      <trkpt lat="49.84019" lon="3.96334">
        <ele>164.04</ele>
        <time>2021-08-08T11:52:39Z</time>
      </trkpt>
      <trkpt lat="49.84012" lon="3.96387">
        <ele>166.93</ele>
        <time>2021-08-08T11:52:43Z</time>
      </trkpt>
      <trkpt lat="49.84011" lon="3.96397">
        <ele>167.41</ele>
        <time>2021-08-08T11:52:44Z</time>
      </trkpt>
      <trkpt lat="49.84012" lon="3.96406">
        <ele>167.89</ele>
        <time>2021-08-08T11:52:45Z</time>
      </trkpt>
      <trkpt lat="49.84013" lon="3.96416">
        <ele>168.85</ele>
        <time>2021-08-08T11:52:46Z</time>
      </trkpt>
      <trkpt lat="49.84014" lon="3.96424">
        <ele>169.33</ele>
        <time>2021-08-08T11:52:47Z</time>
      </trkpt>
      <trkpt lat="49.84015" lon="3.96431">
        <ele>169.81</ele>
        <time>2021-08-08T11:52:48Z</time>
      </trkpt>
      <trkpt lat="49.84017" lon="3.96442">
        <ele>170.77</ele>
        <time>2021-08-08T11:52:50Z</time>
      </trkpt>
      <trkpt lat="49.84024" lon="3.96465">
        <ele>172.69</ele>
        <time>2021-08-08T11:52:56Z</time>
      </trkpt>
      <trkpt lat="49.84031" lon="3.96489">
        <ele>174.62</ele>
        <time>2021-08-08T11:53:03Z</time>
      </trkpt>
      <trkpt lat="49.8404" lon="3.96512">
        <ele>176.06</ele>
        <time>2021-08-08T11:53:10Z</time>
      </trkpt>
      <trkpt lat="49.84048" lon="3.96539">
        <ele>177.02</ele>
        <time>2021-08-08T11:53:17Z</time>
      </trkpt>
      <trkpt lat="49.84056" lon="3.9657">
        <ele>178.94</ele>
        <time>2021-08-08T11:53:25Z</time>
      </trkpt>
      <trkpt lat="49.84062" lon="3.96625">
        <ele>180.38</ele>
        <time>2021-08-08T11:53:36Z</time>
      </trkpt>
      <trkpt lat="49.84066" lon="3.96687">
        <ele>180.38</ele>
        <time>2021-08-08T11:53:47Z</time>
      </trkpt>
      <trkpt lat="49.8407" lon="3.96734">
        <ele>181.35</ele>
        <time>2021-08-08T11:53:55Z</time>
      </trkpt>
      <trkpt lat="49.84074" lon="3.96797">
        <ele>182.31</ele>
        <time>2021-08-08T11:54:05Z</time>
      </trkpt>
      <trkpt lat="49.84075" lon="3.96804">
        <ele>182.31</ele>
        <time>2021-08-08T11:54:06Z</time>
      </trkpt>
      <trkpt lat="49.84081" lon="3.96871">
        <ele>182.79</ele>
        <time>2021-08-08T11:54:16Z</time>
      </trkpt>
      <trkpt lat="49.84088" lon="3.96955">
        <ele>182.79</ele>
        <time>2021-08-08T11:54:26Z</time>
      </trkpt>
      <trkpt lat="49.84097" lon="3.97044">
        <ele>181.35</ele>
        <time>2021-08-08T11:54:35Z</time>
      </trkpt>
      <trkpt lat="49.84114" lon="3.97121">
        <ele>181.35</ele>
        <time>2021-08-08T11:54:43Z</time>
      </trkpt>
      <trkpt lat="49.84119" lon="3.97139">
        <ele>182.79</ele>
        <time>2021-08-08T11:54:45Z</time>
      </trkpt>
      <trkpt lat="49.84145" lon="3.97222">
        <ele>183.75</ele>
        <time>2021-08-08T11:54:55Z</time>
      </trkpt>
      <trkpt lat="49.84164" lon="3.97276">
        <ele>184.71</ele>
        <time>2021-08-08T11:55:02Z</time>
      </trkpt>
      <trkpt lat="49.84203" lon="3.97364">
        <ele>186.15</ele>
        <time>2021-08-08T11:55:14Z</time>
      </trkpt>
      <trkpt lat="49.84231" lon="3.97427">
        <ele>186.15</ele>
        <time>2021-08-08T11:55:22Z</time>
      </trkpt>
      <trkpt lat="49.84259" lon="3.97487">
        <ele>184.23</ele>
        <time>2021-08-08T11:55:29Z</time>
      </trkpt>
      <trkpt lat="49.84287" lon="3.97565">
        <ele>183.27</ele>
        <time>2021-08-08T11:55:37Z</time>
      </trkpt>
      <trkpt lat="49.84316" lon="3.97667">
        <ele>180.38</ele>
        <time>2021-08-08T11:55:46Z</time>
      </trkpt>
      <trkpt lat="49.84337" lon="3.97714">
        <ele>179.42</ele>
        <time>2021-08-08T11:55:51Z</time>
      </trkpt>
      <trkpt lat="49.8434" lon="3.97721">
        <ele>179.42</ele>
        <time>2021-08-08T11:55:52Z</time>
      </trkpt>
      <trkpt lat="49.8434" lon="3.97729">
        <ele>178.94</ele>
        <time>2021-08-08T11:55:53Z</time>
      </trkpt>
      <trkpt lat="49.84339" lon="3.97738">
        <ele>177.98</ele>
        <time>2021-08-08T11:55:54Z</time>
      </trkpt>
      <trkpt lat="49.84336" lon="3.97746">
        <ele>177.5</ele>
        <time>2021-08-08T11:55:55Z</time>
      </trkpt>
      <trkpt lat="49.84333" lon="3.97754">
        <ele>177.98</ele>
        <time>2021-08-08T11:55:56Z</time>
      </trkpt>
      <trkpt lat="49.84329" lon="3.97763">
        <ele>177.02</ele>
        <time>2021-08-08T11:55:57Z</time>
      </trkpt>
      <trkpt lat="49.84315" lon="3.97792">
        <ele>175.1</ele>
        <time>2021-08-08T11:56:00Z</time>
      </trkpt>
      <trkpt lat="49.84304" lon="3.97811">
        <ele>173.17</ele>
        <time>2021-08-08T11:56:02Z</time>
      </trkpt>
      <trkpt lat="49.84297" lon="3.97821">
        <ele>173.17</ele>
        <time>2021-08-08T11:56:03Z</time>
      </trkpt>
      <trkpt lat="49.8429" lon="3.97829">
        <ele>173.17</ele>
        <time>2021-08-08T11:56:04Z</time>
      </trkpt>
      <trkpt lat="49.84283" lon="3.97835">
        <ele>172.21</ele>
        <time>2021-08-08T11:56:05Z</time>
      </trkpt>
      <trkpt lat="49.84274" lon="3.97841">
        <ele>172.21</ele>
        <time>2021-08-08T11:56:06Z</time>
      </trkpt>
      <trkpt lat="49.84266" lon="3.97846">
        <ele>170.77</ele>
        <time>2021-08-08T11:56:07Z</time>
      </trkpt>
      <trkpt lat="49.84257" lon="3.97852">
        <ele>169.81</ele>
        <time>2021-08-08T11:56:08Z</time>
      </trkpt>
      <trkpt lat="49.84248" lon="3.97856">
        <ele>169.81</ele>
        <time>2021-08-08T11:56:09Z</time>
      </trkpt>
      <trkpt lat="49.84211" lon="3.97876">
        <ele>165.48</ele>
        <time>2021-08-08T11:56:13Z</time>
      </trkpt>
      <trkpt lat="49.84203" lon="3.97881">
        <ele>165.48</ele>
        <time>2021-08-08T11:56:14Z</time>
      </trkpt>
      <trkpt lat="49.84181" lon="3.97894">
        <ele>165.48</ele>
        <time>2021-08-08T11:56:17Z</time>
      </trkpt>
      <trkpt lat="49.84175" lon="3.979">
        <ele>164.52</ele>
        <time>2021-08-08T11:56:18Z</time>
      </trkpt>
      <trkpt lat="49.84171" lon="3.97907">
        <ele>164.04</ele>
        <time>2021-08-08T11:56:19Z</time>
      </trkpt>
      <trkpt lat="49.8416" lon="3.97927">
        <ele>162.12</ele>
        <time>2021-08-08T11:56:21Z</time>
      </trkpt>
      <trkpt lat="49.84153" lon="3.97935">
        <ele>161.64</ele>
        <time>2021-08-08T11:56:22Z</time>
      </trkpt>
      <trkpt lat="49.84146" lon="3.97943">
        <ele>161.16</ele>
        <time>2021-08-08T11:56:23Z</time>
      </trkpt>
      <trkpt lat="49.84139" lon="3.97949">
        <ele>160.2</ele>
        <time>2021-08-08T11:56:24Z</time>
      </trkpt>
      <trkpt lat="49.84132" lon="3.97953">
        <ele>160.68</ele>
        <time>2021-08-08T11:56:25Z</time>
      </trkpt>
      <trkpt lat="49.84126" lon="3.97956">
        <ele>160.68</ele>
        <time>2021-08-08T11:56:26Z</time>
      </trkpt>
      <trkpt lat="49.84112" lon="3.97961">
        <ele>160.68</ele>
        <time>2021-08-08T11:56:30Z</time>
      </trkpt>
      <trkpt lat="49.84112" lon="3.97963">
        <ele>160.68</ele>
        <time>2021-08-08T11:56:31Z</time>
      </trkpt>
      <trkpt lat="49.8411" lon="3.97964">
        <ele>160.68</ele>
        <time>2021-08-08T11:56:33Z</time>
      </trkpt>
      <trkpt lat="49.84109" lon="3.97964">
        <ele>160.68</ele>
        <time>2021-08-08T11:56:34Z</time>
      </trkpt>
      <trkpt lat="49.84107" lon="3.97964">
        <ele>160.68</ele>
        <time>2021-08-08T11:56:35Z</time>
      </trkpt>
      <trkpt lat="49.84101" lon="3.97968">
        <ele>160.68</ele>
        <time>2021-08-08T11:56:41Z</time>
      </trkpt>
      <trkpt lat="49.84098" lon="3.9797">
        <ele>160.68</ele>
        <time>2021-08-08T11:56:47Z</time>
      </trkpt>
      <trkpt lat="49.84093" lon="3.97976">
        <ele>160.68</ele>
        <time>2021-08-08T11:56:55Z</time>
      </trkpt>
      <trkpt lat="49.84093" lon="3.97977">
        <ele>162.12</ele>
        <time>2021-08-08T11:57:01Z</time>
      </trkpt>
      <trkpt lat="49.84093" lon="3.9798">
        <ele>162.12</ele>
        <time>2021-08-08T11:57:05Z</time>
      </trkpt>
      <trkpt lat="49.84092" lon="3.97983">
        <ele>162.12</ele>
        <time>2021-08-08T11:57:06Z</time>
      </trkpt>
      <trkpt lat="49.84092" lon="3.97985">
        <ele>162.12</ele>
        <time>2021-08-08T11:57:07Z</time>
      </trkpt>
      <trkpt lat="49.84091" lon="3.97988">
        <ele>162.6</ele>
        <time>2021-08-08T11:57:08Z</time>
      </trkpt>
      <trkpt lat="49.84091" lon="3.9799">
        <ele>162.6</ele>
        <time>2021-08-08T11:57:09Z</time>
      </trkpt>
      <trkpt lat="49.84087" lon="3.98014">
        <ele>164.04</ele>
        <time>2021-08-08T11:57:18Z</time>
      </trkpt>
      <trkpt lat="49.84077" lon="3.98036">
        <ele>165.96</ele>
        <time>2021-08-08T11:57:28Z</time>
      </trkpt>
      <trkpt lat="49.84063" lon="3.98049">
        <ele>166.93</ele>
        <time>2021-08-08T11:57:37Z</time>
      </trkpt>
      <trkpt lat="49.84061" lon="3.98051">
        <ele>167.89</ele>
        <time>2021-08-08T11:57:38Z</time>
      </trkpt>
      <trkpt lat="49.8406" lon="3.98052">
        <ele>167.89</ele>
        <time>2021-08-08T11:57:39Z</time>
      </trkpt>
      <trkpt lat="49.84059" lon="3.98053">
        <ele>167.89</ele>
        <time>2021-08-08T11:57:40Z</time>
      </trkpt>
      <trkpt lat="49.84057" lon="3.98054">
        <ele>167.89</ele>
        <time>2021-08-08T11:57:41Z</time>
      </trkpt>
      <trkpt lat="49.84056" lon="3.98056">
        <ele>167.41</ele>
        <time>2021-08-08T11:57:42Z</time>
      </trkpt>
      <trkpt lat="49.84055" lon="3.98057">
        <ele>167.41</ele>
        <time>2021-08-08T11:57:43Z</time>
      </trkpt>
      <trkpt lat="49.84053" lon="3.98058">
        <ele>167.41</ele>
        <time>2021-08-08T11:57:44Z</time>
      </trkpt>
      <trkpt lat="49.84052" lon="3.98059">
        <ele>167.41</ele>
        <time>2021-08-08T11:57:45Z</time>
      </trkpt>
      <trkpt lat="49.8405" lon="3.9806">
        <ele>167.41</ele>
        <time>2021-08-08T11:57:46Z</time>
      </trkpt>
      <trkpt lat="49.84045" lon="3.98062">
        <ele>168.37</ele>
        <time>2021-08-08T11:57:49Z</time>
      </trkpt>
      <trkpt lat="49.84029" lon="3.98058">
        <ele>169.81</ele>
        <time>2021-08-08T11:57:58Z</time>
      </trkpt>
      <trkpt lat="49.84012" lon="3.98049">
        <ele>170.77</ele>
        <time>2021-08-08T11:58:06Z</time>
      </trkpt>
      <trkpt lat="49.8399" lon="3.98035">
        <ele>171.73</ele>
        <time>2021-08-08T11:58:17Z</time>
      </trkpt>
      <trkpt lat="49.83973" lon="3.98024">
        <ele>172.69</ele>
        <time>2021-08-08T11:58:26Z</time>
      </trkpt>
      <trkpt lat="49.83951" lon="3.9801">
        <ele>173.17</ele>
        <time>2021-08-08T11:58:36Z</time>
      </trkpt>
      <trkpt lat="49.83932" lon="3.97994">
        <ele>174.14</ele>
        <time>2021-08-08T11:58:44Z</time>
      </trkpt>
      <trkpt lat="49.83919" lon="3.97975">
        <ele>175.1</ele>
        <time>2021-08-08T11:58:51Z</time>
      </trkpt>
      <trkpt lat="49.83909" lon="3.97959">
        <ele>175.58</ele>
        <time>2021-08-08T11:58:58Z</time>
      </trkpt>
      <trkpt lat="49.83896" lon="3.97946">
        <ele>177.98</ele>
        <time>2021-08-08T11:59:06Z</time>
      </trkpt>
      <trkpt lat="49.83886" lon="3.97944">
        <ele>178.46</ele>
        <time>2021-08-08T11:59:12Z</time>
      </trkpt>
      <trkpt lat="49.83884" lon="3.97945">
        <ele>178.94</ele>
        <time>2021-08-08T11:59:13Z</time>
      </trkpt>
      <trkpt lat="49.83882" lon="3.97945">
        <ele>179.42</ele>
        <time>2021-08-08T11:59:14Z</time>
      </trkpt>
      <trkpt lat="49.8388" lon="3.97946">
        <ele>179.42</ele>
        <time>2021-08-08T11:59:15Z</time>
      </trkpt>
      <trkpt lat="49.83879" lon="3.97948">
        <ele>179.42</ele>
        <time>2021-08-08T11:59:16Z</time>
      </trkpt>
      <trkpt lat="49.83877" lon="3.97949">
        <ele>179.9</ele>
        <time>2021-08-08T11:59:17Z</time>
      </trkpt>
      <trkpt lat="49.83875" lon="3.97951">
        <ele>179.9</ele>
        <time>2021-08-08T11:59:18Z</time>
      </trkpt>
      <trkpt lat="49.83868" lon="3.9796">
        <ele>181.35</ele>
        <time>2021-08-08T11:59:23Z</time>
      </trkpt>
      <trkpt lat="49.83858" lon="3.97975">
        <ele>183.27</ele>
        <time>2021-08-08T11:59:31Z</time>
      </trkpt>
      <trkpt lat="49.83847" lon="3.97992">
        <ele>184.71</ele>
        <time>2021-08-08T11:59:40Z</time>
      </trkpt>
      <trkpt lat="49.83836" lon="3.9801">
        <ele>186.15</ele>
        <time>2021-08-08T11:59:48Z</time>
      </trkpt>
      <trkpt lat="49.83821" lon="3.98031">
        <ele>188.08</ele>
        <time>2021-08-08T11:59:57Z</time>
      </trkpt>
      <trkpt lat="49.83812" lon="3.98034">
        <ele>188.56</ele>
        <time>2021-08-08T12:00:02Z</time>
      </trkpt>
      <trkpt lat="49.8381" lon="3.98033">
        <ele>188.56</ele>
        <time>2021-08-08T12:00:03Z</time>
      </trkpt>
      <trkpt lat="49.83808" lon="3.9803">
        <ele>188.56</ele>
        <time>2021-08-08T12:00:04Z</time>
      </trkpt>
      <trkpt lat="49.83806" lon="3.98027">
        <ele>188.56</ele>
        <time>2021-08-08T12:00:05Z</time>
      </trkpt>
      <trkpt lat="49.83805" lon="3.98024">
        <ele>188.56</ele>
        <time>2021-08-08T12:00:06Z</time>
      </trkpt>
      <trkpt lat="49.83804" lon="3.9802">
        <ele>188.56</ele>
        <time>2021-08-08T12:00:07Z</time>
      </trkpt>
      <trkpt lat="49.83787" lon="3.97975">
        <ele>188.56</ele>
        <time>2021-08-08T12:00:16Z</time>
      </trkpt>
      <trkpt lat="49.83783" lon="3.97963">
        <ele>186.63</ele>
        <time>2021-08-08T12:00:18Z</time>
      </trkpt>
      <trkpt lat="49.83758" lon="3.97916">
        <ele>185.67</ele>
        <time>2021-08-08T12:00:27Z</time>
      </trkpt>
      <trkpt lat="49.83734" lon="3.97884">
        <ele>186.15</ele>
        <time>2021-08-08T12:00:35Z</time>
      </trkpt>
      <trkpt lat="49.8373" lon="3.9788">
        <ele>187.11</ele>
        <time>2021-08-08T12:00:39Z</time>
      </trkpt>
      <trkpt lat="49.83731" lon="3.97882">
        <ele>187.11</ele>
        <time>2021-08-08T12:00:52Z</time>
      </trkpt>
      <trkpt lat="49.8373" lon="3.97881">
        <ele>187.11</ele>
        <time>2021-08-08T12:00:57Z</time>
      </trkpt>
      <trkpt lat="49.8373" lon="3.9788">
        <ele>187.11</ele>
        <time>2021-08-08T12:01:04Z</time>
      </trkpt>
      <trkpt lat="49.8373" lon="3.9788">
        <ele>187.11</ele>
        <time>2021-08-08T12:01:14Z</time>
      </trkpt>
      <trkpt lat="49.83727" lon="3.97876">
        <ele>187.11</ele>
        <time>2021-08-08T12:01:21Z</time>
      </trkpt>
      <trkpt lat="49.83713" lon="3.97869">
        <ele>187.11</ele>
        <time>2021-08-08T12:01:29Z</time>
      </trkpt>
      <trkpt lat="49.83699" lon="3.97863">
        <ele>187.11</ele>
        <time>2021-08-08T12:01:37Z</time>
      </trkpt>
      <trkpt lat="49.83678" lon="3.97858">
        <ele>187.59</ele>
        <time>2021-08-08T12:01:44Z</time>
      </trkpt>
      <trkpt lat="49.83671" lon="3.97855">
        <ele>187.59</ele>
        <time>2021-08-08T12:01:46Z</time>
      </trkpt>
      <trkpt lat="49.83668" lon="3.97853">
        <ele>187.59</ele>
        <time>2021-08-08T12:01:47Z</time>
      </trkpt>
      <trkpt lat="49.83664" lon="3.97853">
        <ele>187.59</ele>
        <time>2021-08-08T12:01:48Z</time>
      </trkpt>
      <trkpt lat="49.83648" lon="3.97852">
        <ele>187.59</ele>
        <time>2021-08-08T12:01:52Z</time>
      </trkpt>
      <trkpt lat="49.83643" lon="3.97852">
        <ele>187.59</ele>
        <time>2021-08-08T12:01:53Z</time>
      </trkpt>
      <trkpt lat="49.8361" lon="3.97851">
        <ele>188.08</ele>
        <time>2021-08-08T12:02:01Z</time>
      </trkpt>
      <trkpt lat="49.83572" lon="3.97859">
        <ele>188.56</ele>
        <time>2021-08-08T12:02:11Z</time>
      </trkpt>
      <trkpt lat="49.83536" lon="3.97867">
        <ele>190</ele>
        <time>2021-08-08T12:02:21Z</time>
      </trkpt>
      <trkpt lat="49.83511" lon="3.97884">
        <ele>190.96</ele>
        <time>2021-08-08T12:02:29Z</time>
      </trkpt>
      <trkpt lat="49.83483" lon="3.979">
        <ele>192.88</ele>
        <time>2021-08-08T12:02:38Z</time>
      </trkpt>
      <trkpt lat="49.83476" lon="3.97928">
        <ele>193.36</ele>
        <time>2021-08-08T12:02:44Z</time>
      </trkpt>
      <trkpt lat="49.83468" lon="3.97958">
        <ele>194.32</ele>
        <time>2021-08-08T12:02:51Z</time>
      </trkpt>
      <trkpt lat="49.83458" lon="3.97985">
        <ele>195.77</ele>
        <time>2021-08-08T12:02:58Z</time>
      </trkpt>
      <trkpt lat="49.83449" lon="3.98014">
        <ele>196.73</ele>
        <time>2021-08-08T12:03:05Z</time>
      </trkpt>
      <trkpt lat="49.83437" lon="3.98044">
        <ele>197.21</ele>
        <time>2021-08-08T12:03:13Z</time>
      </trkpt>
      <trkpt lat="49.8342" lon="3.98073">
        <ele>198.65</ele>
        <time>2021-08-08T12:03:22Z</time>
      </trkpt>
      <trkpt lat="49.83409" lon="3.98088">
        <ele>198.65</ele>
        <time>2021-08-08T12:03:28Z</time>
      </trkpt>
      <trkpt lat="49.83394" lon="3.98112">
        <ele>199.13</ele>
        <time>2021-08-08T12:03:36Z</time>
      </trkpt>
      <trkpt lat="49.83373" lon="3.98144">
        <ele>200.57</ele>
        <time>2021-08-08T12:03:45Z</time>
      </trkpt>
      <trkpt lat="49.83352" lon="3.98182">
        <ele>201.05</ele>
        <time>2021-08-08T12:03:54Z</time>
      </trkpt>
      <trkpt lat="49.83334" lon="3.9821">
        <ele>201.53</ele>
        <time>2021-08-08T12:04:01Z</time>
      </trkpt>
      <trkpt lat="49.83315" lon="3.98243">
        <ele>202.49</ele>
        <time>2021-08-08T12:04:09Z</time>
      </trkpt>
      <trkpt lat="49.83292" lon="3.9828">
        <ele>202.98</ele>
        <time>2021-08-08T12:04:18Z</time>
      </trkpt>
      <trkpt lat="49.83271" lon="3.98317">
        <ele>204.42</ele>
        <time>2021-08-08T12:04:27Z</time>
      </trkpt>
      <trkpt lat="49.83253" lon="3.98355">
        <ele>204.9</ele>
        <time>2021-08-08T12:04:36Z</time>
      </trkpt>
      <trkpt lat="49.83237" lon="3.98392">
        <ele>208.26</ele>
        <time>2021-08-08T12:04:45Z</time>
      </trkpt>
      <trkpt lat="49.83223" lon="3.98427">
        <ele>208.26</ele>
        <time>2021-08-08T12:04:53Z</time>
      </trkpt>
      <trkpt lat="49.832" lon="3.98483">
        <ele>208.26</ele>
        <time>2021-08-08T12:05:04Z</time>
      </trkpt>
      <trkpt lat="49.83177" lon="3.9854">
        <ele>210.19</ele>
        <time>2021-08-08T12:05:15Z</time>
      </trkpt>
      <trkpt lat="49.83159" lon="3.98584">
        <ele>210.67</ele>
        <time>2021-08-08T12:05:24Z</time>
      </trkpt>
      <trkpt lat="49.83139" lon="3.98632">
        <ele>211.63</ele>
        <time>2021-08-08T12:05:34Z</time>
      </trkpt>
      <trkpt lat="49.83109" lon="3.98706">
        <ele>211.63</ele>
        <time>2021-08-08T12:05:46Z</time>
      </trkpt>
      <trkpt lat="49.83077" lon="3.98785">
        <ele>210.67</ele>
        <time>2021-08-08T12:05:58Z</time>
      </trkpt>
      <trkpt lat="49.83053" lon="3.98838">
        <ele>210.67</ele>
        <time>2021-08-08T12:06:07Z</time>
      </trkpt>
      <trkpt lat="49.83025" lon="3.98896">
        <ele>210.67</ele>
        <time>2021-08-08T12:06:17Z</time>
      </trkpt>
      <trkpt lat="49.83003" lon="3.98944">
        <ele>210.67</ele>
        <time>2021-08-08T12:06:25Z</time>
      </trkpt>
      <trkpt lat="49.82977" lon="3.99">
        <ele>208.74</ele>
        <time>2021-08-08T12:06:33Z</time>
      </trkpt>
      <trkpt lat="49.82944" lon="3.99076">
        <ele>206.82</ele>
        <time>2021-08-08T12:06:42Z</time>
      </trkpt>
      <trkpt lat="49.82923" lon="3.99129">
        <ele>205.38</ele>
        <time>2021-08-08T12:06:48Z</time>
      </trkpt>
      <trkpt lat="49.82914" lon="3.99152">
        <ele>205.38</ele>
        <time>2021-08-08T12:06:51Z</time>
      </trkpt>
      <trkpt lat="49.82912" lon="3.99159">
        <ele>204.42</ele>
        <time>2021-08-08T12:06:52Z</time>
      </trkpt>
      <trkpt lat="49.82909" lon="3.99166">
        <ele>203.46</ele>
        <time>2021-08-08T12:06:53Z</time>
      </trkpt>
      <trkpt lat="49.82907" lon="3.99172">
        <ele>203.46</ele>
        <time>2021-08-08T12:06:54Z</time>
      </trkpt>
      <trkpt lat="49.82902" lon="3.99184">
        <ele>203.46</ele>
        <time>2021-08-08T12:06:56Z</time>
      </trkpt>
      <trkpt lat="49.82898" lon="3.99187">
        <ele>202.98</ele>
        <time>2021-08-08T12:06:57Z</time>
      </trkpt>
      <trkpt lat="49.82895" lon="3.99187">
        <ele>203.46</ele>
        <time>2021-08-08T12:06:58Z</time>
      </trkpt>
      <trkpt lat="49.82855" lon="3.99188">
        <ele>202.49</ele>
        <time>2021-08-08T12:07:07Z</time>
      </trkpt>
      <trkpt lat="49.82827" lon="3.99188">
        <ele>202.01</ele>
        <time>2021-08-08T12:07:13Z</time>
      </trkpt>
      <trkpt lat="49.82812" lon="3.99188">
        <ele>201.53</ele>
        <time>2021-08-08T12:07:16Z</time>
      </trkpt>
      <trkpt lat="49.82808" lon="3.99189">
        <ele>201.53</ele>
        <time>2021-08-08T12:07:17Z</time>
      </trkpt>
      <trkpt lat="49.8279" lon="3.99188">
        <ele>201.05</ele>
        <time>2021-08-08T12:07:20Z</time>
      </trkpt>
      <trkpt lat="49.82785" lon="3.99186">
        <ele>200.09</ele>
        <time>2021-08-08T12:07:21Z</time>
      </trkpt>
      <trkpt lat="49.8278" lon="3.99183">
        <ele>200.09</ele>
        <time>2021-08-08T12:07:22Z</time>
      </trkpt>
      <trkpt lat="49.82769" lon="3.99175">
        <ele>199.61</ele>
        <time>2021-08-08T12:07:24Z</time>
      </trkpt>
      <trkpt lat="49.82764" lon="3.9917">
        <ele>198.17</ele>
        <time>2021-08-08T12:07:25Z</time>
      </trkpt>
      <trkpt lat="49.8276" lon="3.99165">
        <ele>198.17</ele>
        <time>2021-08-08T12:07:26Z</time>
      </trkpt>
      <trkpt lat="49.82751" lon="3.99154">
        <ele>198.17</ele>
        <time>2021-08-08T12:07:28Z</time>
      </trkpt>
      <trkpt lat="49.82715" lon="3.99117">
        <ele>197.69</ele>
        <time>2021-08-08T12:07:36Z</time>
      </trkpt>
      <trkpt lat="49.82672" lon="3.99072">
        <ele>197.21</ele>
        <time>2021-08-08T12:07:46Z</time>
      </trkpt>
      <trkpt lat="49.82633" lon="3.99029">
        <ele>195.28</ele>
        <time>2021-08-08T12:07:55Z</time>
      </trkpt>
      <trkpt lat="49.82624" lon="3.99019">
        <ele>194.32</ele>
        <time>2021-08-08T12:07:57Z</time>
      </trkpt>
      <trkpt lat="49.82592" lon="3.98987">
        <ele>192.88</ele>
        <time>2021-08-08T12:08:04Z</time>
      </trkpt>
      <trkpt lat="49.82573" lon="3.98966">
        <ele>191.92</ele>
        <time>2021-08-08T12:08:08Z</time>
      </trkpt>
      <trkpt lat="49.82533" lon="3.98925">
        <ele>188.08</ele>
        <time>2021-08-08T12:08:16Z</time>
      </trkpt>
      <trkpt lat="49.82528" lon="3.98919">
        <ele>188.08</ele>
        <time>2021-08-08T12:08:17Z</time>
      </trkpt>
      <trkpt lat="49.8249" lon="3.9888">
        <ele>184.71</ele>
        <time>2021-08-08T12:08:23Z</time>
      </trkpt>
      <trkpt lat="49.82451" lon="3.98839">
        <ele>182.79</ele>
        <time>2021-08-08T12:08:29Z</time>
      </trkpt>
      <trkpt lat="49.82438" lon="3.98825">
        <ele>182.31</ele>
        <time>2021-08-08T12:08:31Z</time>
      </trkpt>
      <trkpt lat="49.82431" lon="3.9882">
        <ele>181.35</ele>
        <time>2021-08-08T12:08:32Z</time>
      </trkpt>
      <trkpt lat="49.82424" lon="3.98817">
        <ele>181.35</ele>
        <time>2021-08-08T12:08:33Z</time>
      </trkpt>
      <trkpt lat="49.82382" lon="3.98803">
        <ele>181.83</ele>
        <time>2021-08-08T12:08:40Z</time>
      </trkpt>
      <trkpt lat="49.82355" lon="3.98798">
        <ele>181.83</ele>
        <time>2021-08-08T12:08:45Z</time>
      </trkpt>
      <trkpt lat="49.8235" lon="3.98798">
        <ele>181.83</ele>
        <time>2021-08-08T12:08:46Z</time>
      </trkpt>
      <trkpt lat="49.82345" lon="3.98797">
        <ele>181.83</ele>
        <time>2021-08-08T12:08:47Z</time>
      </trkpt>
      <trkpt lat="49.82316" lon="3.98787">
        <ele>183.27</ele>
        <time>2021-08-08T12:08:54Z</time>
      </trkpt>
      <trkpt lat="49.82289" lon="3.98779">
        <ele>183.27</ele>
        <time>2021-08-08T12:09:02Z</time>
      </trkpt>
      <trkpt lat="49.82269" lon="3.98773">
        <ele>184.71</ele>
        <time>2021-08-08T12:09:09Z</time>
      </trkpt>
      <trkpt lat="49.82239" lon="3.98764">
        <ele>186.15</ele>
        <time>2021-08-08T12:09:21Z</time>
      </trkpt>
      <trkpt lat="49.82216" lon="3.98757">
        <ele>187.11</ele>
        <time>2021-08-08T12:09:30Z</time>
      </trkpt>
      <trkpt lat="49.82184" lon="3.98749">
        <ele>188.08</ele>
        <time>2021-08-08T12:09:40Z</time>
      </trkpt>
      <trkpt lat="49.82151" lon="3.98741">
        <ele>189.52</ele>
        <time>2021-08-08T12:09:50Z</time>
      </trkpt>
      <trkpt lat="49.8212" lon="3.98734">
        <ele>190.96</ele>
        <time>2021-08-08T12:10:00Z</time>
      </trkpt>
      <trkpt lat="49.82093" lon="3.98727">
        <ele>191.44</ele>
        <time>2021-08-08T12:10:09Z</time>
      </trkpt>
      <trkpt lat="49.82066" lon="3.98717">
        <ele>192.4</ele>
        <time>2021-08-08T12:10:18Z</time>
      </trkpt>
      <trkpt lat="49.82044" lon="3.98712">
        <ele>193.36</ele>
        <time>2021-08-08T12:10:25Z</time>
      </trkpt>
      <trkpt lat="49.82016" lon="3.98705">
        <ele>194.8</ele>
        <time>2021-08-08T12:10:35Z</time>
      </trkpt>
      <trkpt lat="49.81988" lon="3.98697">
        <ele>196.25</ele>
        <time>2021-08-08T12:10:45Z</time>
      </trkpt>
      <trkpt lat="49.8196" lon="3.9869">
        <ele>197.69</ele>
        <time>2021-08-08T12:10:55Z</time>
      </trkpt>
      <trkpt lat="49.81929" lon="3.98681">
        <ele>198.17</ele>
        <time>2021-08-08T12:11:05Z</time>
      </trkpt>
      <trkpt lat="49.81906" lon="3.98675">
        <ele>196.73</ele>
        <time>2021-08-08T12:11:11Z</time>
      </trkpt>
      <trkpt lat="49.81878" lon="3.98668">
        <ele>194.32</ele>
        <time>2021-08-08T12:11:16Z</time>
      </trkpt>
      <trkpt lat="49.8186" lon="3.98663">
        <ele>193.36</ele>
        <time>2021-08-08T12:11:19Z</time>
      </trkpt>
      <trkpt lat="49.81811" lon="3.9865">
        <ele>190</ele>
        <time>2021-08-08T12:11:26Z</time>
      </trkpt>
      <trkpt lat="49.81793" lon="3.98645">
        <ele>189.04</ele>
        <time>2021-08-08T12:11:28Z</time>
      </trkpt>
      <trkpt lat="49.81755" lon="3.98635">
        <ele>185.67</ele>
        <time>2021-08-08T12:11:32Z</time>
      </trkpt>
      <trkpt lat="49.81726" lon="3.98629">
        <ele>183.75</ele>
        <time>2021-08-08T12:11:35Z</time>
      </trkpt>
      <trkpt lat="49.81688" lon="3.9863">
        <ele>180.87</ele>
        <time>2021-08-08T12:11:39Z</time>
      </trkpt>
      <trkpt lat="49.81653" lon="3.98631">
        <ele>178.46</ele>
        <time>2021-08-08T12:11:43Z</time>
      </trkpt>
      <trkpt lat="49.81633" lon="3.98633">
        <ele>177.5</ele>
        <time>2021-08-08T12:11:46Z</time>
      </trkpt>
      <trkpt lat="49.81627" lon="3.98636">
        <ele>177.5</ele>
        <time>2021-08-08T12:11:47Z</time>
      </trkpt>
      <trkpt lat="49.81621" lon="3.9864">
        <ele>177.02</ele>
        <time>2021-08-08T12:11:48Z</time>
      </trkpt>
      <trkpt lat="49.81616" lon="3.98645">
        <ele>177.02</ele>
        <time>2021-08-08T12:11:49Z</time>
      </trkpt>
      <trkpt lat="49.81611" lon="3.9865">
        <ele>177.02</ele>
        <time>2021-08-08T12:11:50Z</time>
      </trkpt>
      <trkpt lat="49.81606" lon="3.98656">
        <ele>176.54</ele>
        <time>2021-08-08T12:11:51Z</time>
      </trkpt>
      <trkpt lat="49.81603" lon="3.98662">
        <ele>176.54</ele>
        <time>2021-08-08T12:11:52Z</time>
      </trkpt>
      <trkpt lat="49.81601" lon="3.98671">
        <ele>176.54</ele>
        <time>2021-08-08T12:11:53Z</time>
      </trkpt>
      <trkpt lat="49.81599" lon="3.98681">
        <ele>176.06</ele>
        <time>2021-08-08T12:11:54Z</time>
      </trkpt>
      <trkpt lat="49.81598" lon="3.98691">
        <ele>175.1</ele>
        <time>2021-08-08T12:11:55Z</time>
      </trkpt>
      <trkpt lat="49.81597" lon="3.98701">
        <ele>175.1</ele>
        <time>2021-08-08T12:11:56Z</time>
      </trkpt>
      <trkpt lat="49.81586" lon="3.98794">
        <ele>172.21</ele>
        <time>2021-08-08T12:12:04Z</time>
      </trkpt>
      <trkpt lat="49.81578" lon="3.98848">
        <ele>170.29</ele>
        <time>2021-08-08T12:12:08Z</time>
      </trkpt>
      <trkpt lat="49.81575" lon="3.98861">
        <ele>170.29</ele>
        <time>2021-08-08T12:12:09Z</time>
      </trkpt>
      <trkpt lat="49.8157" lon="3.98875">
        <ele>168.37</ele>
        <time>2021-08-08T12:12:10Z</time>
      </trkpt>
      <trkpt lat="49.81564" lon="3.98887">
        <ele>167.89</ele>
        <time>2021-08-08T12:12:11Z</time>
      </trkpt>
      <trkpt lat="49.81557" lon="3.98897">
        <ele>166.93</ele>
        <time>2021-08-08T12:12:12Z</time>
      </trkpt>
      <trkpt lat="49.8155" lon="3.98905">
        <ele>166.93</ele>
        <time>2021-08-08T12:12:13Z</time>
      </trkpt>
      <trkpt lat="49.81543" lon="3.98911">
        <ele>166.45</ele>
        <time>2021-08-08T12:12:14Z</time>
      </trkpt>
      <trkpt lat="49.81538" lon="3.98915">
        <ele>166.45</ele>
        <time>2021-08-08T12:12:15Z</time>
      </trkpt>
      <trkpt lat="49.81534" lon="3.98917">
        <ele>166.45</ele>
        <time>2021-08-08T12:12:16Z</time>
      </trkpt>
      <trkpt lat="49.81521" lon="3.98925">
        <ele>166.45</ele>
        <time>2021-08-08T12:12:20Z</time>
      </trkpt>
      <trkpt lat="49.81493" lon="3.98929">
        <ele>165.96</ele>
        <time>2021-08-08T12:12:26Z</time>
      </trkpt>
      <trkpt lat="49.81488" lon="3.98928">
        <ele>165.96</ele>
        <time>2021-08-08T12:12:27Z</time>
      </trkpt>
      <trkpt lat="49.81468" lon="3.98917">
        <ele>165.96</ele>
        <time>2021-08-08T12:12:31Z</time>
      </trkpt>
      <trkpt lat="49.81463" lon="3.98913">
        <ele>165.96</ele>
        <time>2021-08-08T12:12:32Z</time>
      </trkpt>
      <trkpt lat="49.81436" lon="3.98878">
        <ele>167.41</ele>
        <time>2021-08-08T12:12:40Z</time>
      </trkpt>
      <trkpt lat="49.81434" lon="3.98873">
        <ele>167.41</ele>
        <time>2021-08-08T12:12:41Z</time>
      </trkpt>
      <trkpt lat="49.81405" lon="3.98825">
        <ele>169.33</ele>
        <time>2021-08-08T12:12:53Z</time>
      </trkpt>
      <trkpt lat="49.81381" lon="3.98787">
        <ele>170.77</ele>
        <time>2021-08-08T12:13:04Z</time>
      </trkpt>
      <trkpt lat="49.81362" lon="3.98755">
        <ele>172.21</ele>
        <time>2021-08-08T12:13:14Z</time>
      </trkpt>
      <trkpt lat="49.81338" lon="3.9872">
        <ele>174.14</ele>
        <time>2021-08-08T12:13:26Z</time>
      </trkpt>
      <trkpt lat="49.81316" lon="3.98699">
        <ele>176.54</ele>
        <time>2021-08-08T12:13:36Z</time>
      </trkpt>
      <trkpt lat="49.81291" lon="3.9869">
        <ele>177.98</ele>
        <time>2021-08-08T12:13:46Z</time>
      </trkpt>
      <trkpt lat="49.81261" lon="3.98692">
        <ele>180.38</ele>
        <time>2021-08-08T12:13:57Z</time>
      </trkpt>
      <trkpt lat="49.81235" lon="3.98693">
        <ele>182.31</ele>
        <time>2021-08-08T12:14:07Z</time>
      </trkpt>
      <trkpt lat="49.81232" lon="3.9869">
        <ele>182.31</ele>
        <time>2021-08-08T12:14:08Z</time>
      </trkpt>
      <trkpt lat="49.81231" lon="3.98686">
        <ele>181.83</ele>
        <time>2021-08-08T12:14:09Z</time>
      </trkpt>
      <trkpt lat="49.81231" lon="3.98682">
        <ele>182.31</ele>
        <time>2021-08-08T12:14:10Z</time>
      </trkpt>
      <trkpt lat="49.81231" lon="3.98678">
        <ele>182.31</ele>
        <time>2021-08-08T12:14:11Z</time>
      </trkpt>
      <trkpt lat="49.81232" lon="3.98673">
        <ele>182.31</ele>
        <time>2021-08-08T12:14:12Z</time>
      </trkpt>
      <trkpt lat="49.81237" lon="3.98634">
        <ele>182.31</ele>
        <time>2021-08-08T12:14:20Z</time>
      </trkpt>
      <trkpt lat="49.8124" lon="3.98605">
        <ele>182.31</ele>
        <time>2021-08-08T12:14:25Z</time>
      </trkpt>
      <trkpt lat="49.81243" lon="3.9858">
        <ele>182.31</ele>
        <time>2021-08-08T12:14:29Z</time>
      </trkpt>
      <trkpt lat="49.81251" lon="3.98507">
        <ele>181.35</ele>
        <time>2021-08-08T12:14:39Z</time>
      </trkpt>
      <trkpt lat="49.81262" lon="3.9841">
        <ele>179.9</ele>
        <time>2021-08-08T12:14:51Z</time>
      </trkpt>
      <trkpt lat="49.81274" lon="3.98307">
        <ele>178.94</ele>
        <time>2021-08-08T12:15:03Z</time>
      </trkpt>
      <trkpt lat="49.81283" lon="3.98218">
        <ele>176.06</ele>
        <time>2021-08-08T12:15:12Z</time>
      </trkpt>
      <trkpt lat="49.81295" lon="3.98113">
        <ele>175.1</ele>
        <time>2021-08-08T12:15:22Z</time>
      </trkpt>
      <trkpt lat="49.81309" lon="3.97983">
        <ele>173.17</ele>
        <time>2021-08-08T12:15:34Z</time>
      </trkpt>
      <trkpt lat="49.81327" lon="3.97898">
        <ele>171.73</ele>
        <time>2021-08-08T12:15:42Z</time>
      </trkpt>
      <trkpt lat="49.81354" lon="3.97809">
        <ele>170.77</ele>
        <time>2021-08-08T12:15:51Z</time>
      </trkpt>
      <trkpt lat="49.81362" lon="3.97737">
        <ele>169.81</ele>
        <time>2021-08-08T12:15:58Z</time>
      </trkpt>
      <trkpt lat="49.81358" lon="3.9764">
        <ele>168.85</ele>
        <time>2021-08-08T12:16:07Z</time>
      </trkpt>
      <trkpt lat="49.81348" lon="3.97533">
        <ele>166.93</ele>
        <time>2021-08-08T12:16:18Z</time>
      </trkpt>
      <trkpt lat="49.81343" lon="3.97472">
        <ele>165.96</ele>
        <time>2021-08-08T12:16:25Z</time>
      </trkpt>
      <trkpt lat="49.81341" lon="3.97465">
        <ele>165.96</ele>
        <time>2021-08-08T12:16:26Z</time>
      </trkpt>
      <trkpt lat="49.81338" lon="3.97461">
        <ele>165.96</ele>
        <time>2021-08-08T12:16:27Z</time>
      </trkpt>
      <trkpt lat="49.81335" lon="3.97458">
        <ele>165.96</ele>
        <time>2021-08-08T12:16:28Z</time>
      </trkpt>
      <trkpt lat="49.81332" lon="3.97458">
        <ele>165.96</ele>
        <time>2021-08-08T12:16:29Z</time>
      </trkpt>
      <trkpt lat="49.81329" lon="3.97459">
        <ele>166.93</ele>
        <time>2021-08-08T12:16:30Z</time>
      </trkpt>
      <trkpt lat="49.81326" lon="3.9746">
        <ele>167.41</ele>
        <time>2021-08-08T12:16:31Z</time>
      </trkpt>
      <trkpt lat="49.81306" lon="3.97466">
        <ele>169.81</ele>
        <time>2021-08-08T12:16:39Z</time>
      </trkpt>
      <trkpt lat="49.8129" lon="3.9747">
        <ele>171.25</ele>
        <time>2021-08-08T12:16:47Z</time>
      </trkpt>
      <trkpt lat="49.81278" lon="3.97474">
        <ele>171.73</ele>
        <time>2021-08-08T12:16:54Z</time>
      </trkpt>
      <trkpt lat="49.81273" lon="3.97475">
        <ele>172.69</ele>
        <time>2021-08-08T12:16:57Z</time>
      </trkpt>
      <trkpt lat="49.81271" lon="3.97476">
        <ele>172.69</ele>
        <time>2021-08-08T12:16:58Z</time>
      </trkpt>
      <trkpt lat="49.8127" lon="3.97476">
        <ele>172.69</ele>
        <time>2021-08-08T12:16:59Z</time>
      </trkpt>
      <trkpt lat="49.81252" lon="3.97481">
        <ele>174.14</ele>
        <time>2021-08-08T12:17:08Z</time>
      </trkpt>
      <trkpt lat="49.81246" lon="3.97482">
        <ele>174.14</ele>
        <time>2021-08-08T12:17:11Z</time>
      </trkpt>
      <trkpt lat="49.81244" lon="3.97482">
        <ele>174.62</ele>
        <time>2021-08-08T12:17:12Z</time>
      </trkpt>
      <trkpt lat="49.81238" lon="3.97482">
        <ele>174.62</ele>
        <time>2021-08-08T12:17:16Z</time>
      </trkpt>
      <trkpt lat="49.81227" lon="3.97483">
        <ele>175.58</ele>
        <time>2021-08-08T12:17:24Z</time>
      </trkpt>
      <trkpt lat="49.81211" lon="3.97493">
        <ele>176.54</ele>
        <time>2021-08-08T12:17:32Z</time>
      </trkpt>
      <trkpt lat="49.81195" lon="3.97499">
        <ele>177.02</ele>
        <time>2021-08-08T12:17:40Z</time>
      </trkpt>
      <trkpt lat="49.81178" lon="3.97506">
        <ele>178.94</ele>
        <time>2021-08-08T12:17:49Z</time>
      </trkpt>
      <trkpt lat="49.81164" lon="3.97511">
        <ele>180.87</ele>
        <time>2021-08-08T12:17:58Z</time>
      </trkpt>
      <trkpt lat="49.81152" lon="3.97518">
        <ele>181.83</ele>
        <time>2021-08-08T12:18:06Z</time>
      </trkpt>
      <trkpt lat="49.8114" lon="3.97524">
        <ele>182.79</ele>
        <time>2021-08-08T12:18:14Z</time>
      </trkpt>
      <trkpt lat="49.81138" lon="3.97525">
        <ele>183.75</ele>
        <time>2021-08-08T12:18:15Z</time>
      </trkpt>
      <trkpt lat="49.81121" lon="3.97535">
        <ele>185.19</ele>
        <time>2021-08-08T12:18:25Z</time>
      </trkpt>
      <trkpt lat="49.81099" lon="3.97553">
        <ele>185.67</ele>
        <time>2021-08-08T12:18:37Z</time>
      </trkpt>
      <trkpt lat="49.81082" lon="3.97569">
        <ele>186.15</ele>
        <time>2021-08-08T12:18:45Z</time>
      </trkpt>
      <trkpt lat="49.81063" lon="3.97588">
        <ele>186.63</ele>
        <time>2021-08-08T12:18:55Z</time>
      </trkpt>
      <trkpt lat="49.81051" lon="3.97601">
        <ele>188.56</ele>
        <time>2021-08-08T12:19:02Z</time>
      </trkpt>
      <trkpt lat="49.81035" lon="3.9762">
        <ele>190.48</ele>
        <time>2021-08-08T12:19:13Z</time>
      </trkpt>
      <trkpt lat="49.81021" lon="3.97636">
        <ele>190.96</ele>
        <time>2021-08-08T12:19:22Z</time>
      </trkpt>
      <trkpt lat="49.8101" lon="3.97652">
        <ele>192.4</ele>
        <time>2021-08-08T12:19:30Z</time>
      </trkpt>
      <trkpt lat="49.80994" lon="3.97676">
        <ele>192.88</ele>
        <time>2021-08-08T12:19:41Z</time>
      </trkpt>
      <trkpt lat="49.80983" lon="3.97692">
        <ele>193.84</ele>
        <time>2021-08-08T12:19:49Z</time>
      </trkpt>
      <trkpt lat="49.80973" lon="3.97708">
        <ele>195.77</ele>
        <time>2021-08-08T12:19:57Z</time>
      </trkpt>
      <trkpt lat="49.80972" lon="3.97709">
        <ele>195.77</ele>
        <time>2021-08-08T12:19:58Z</time>
      </trkpt>
      <trkpt lat="49.8097" lon="3.97711">
        <ele>195.77</ele>
        <time>2021-08-08T12:19:59Z</time>
      </trkpt>
      <trkpt lat="49.80969" lon="3.97713">
        <ele>195.77</ele>
        <time>2021-08-08T12:20:00Z</time>
      </trkpt>
      <trkpt lat="49.80968" lon="3.97715">
        <ele>195.77</ele>
        <time>2021-08-08T12:20:01Z</time>
      </trkpt>
      <trkpt lat="49.80966" lon="3.97717">
        <ele>196.25</ele>
        <time>2021-08-08T12:20:02Z</time>
      </trkpt>
      <trkpt lat="49.80965" lon="3.97719">
        <ele>196.25</ele>
        <time>2021-08-08T12:20:03Z</time>
      </trkpt>
      <trkpt lat="49.80963" lon="3.97721">
        <ele>196.25</ele>
        <time>2021-08-08T12:20:04Z</time>
      </trkpt>
      <trkpt lat="49.80962" lon="3.97723">
        <ele>196.25</ele>
        <time>2021-08-08T12:20:05Z</time>
      </trkpt>
      <trkpt lat="49.8096" lon="3.97725">
        <ele>196.25</ele>
        <time>2021-08-08T12:20:06Z</time>
      </trkpt>
      <trkpt lat="49.80959" lon="3.97727">
        <ele>196.25</ele>
        <time>2021-08-08T12:20:07Z</time>
      </trkpt>
      <trkpt lat="49.80957" lon="3.97729">
        <ele>196.25</ele>
        <time>2021-08-08T12:20:08Z</time>
      </trkpt>
      <trkpt lat="49.80944" lon="3.97747">
        <ele>197.69</ele>
        <time>2021-08-08T12:20:16Z</time>
      </trkpt>
      <trkpt lat="49.80927" lon="3.97767">
        <ele>198.65</ele>
        <time>2021-08-08T12:20:26Z</time>
      </trkpt>
      <trkpt lat="49.8091" lon="3.9778">
        <ele>200.09</ele>
        <time>2021-08-08T12:20:35Z</time>
      </trkpt>
      <trkpt lat="49.80893" lon="3.9779">
        <ele>200.57</ele>
        <time>2021-08-08T12:20:42Z</time>
      </trkpt>
      <trkpt lat="49.80871" lon="3.978">
        <ele>201.05</ele>
        <time>2021-08-08T12:20:51Z</time>
      </trkpt>
      <trkpt lat="49.80849" lon="3.9781">
        <ele>201.53</ele>
        <time>2021-08-08T12:21:00Z</time>
      </trkpt>
      <trkpt lat="49.80832" lon="3.97819">
        <ele>202.01</ele>
        <time>2021-08-08T12:21:07Z</time>
      </trkpt>
      <trkpt lat="49.80807" lon="3.97831">
        <ele>202.01</ele>
        <time>2021-08-08T12:21:16Z</time>
      </trkpt>
      <trkpt lat="49.80774" lon="3.9785">
        <ele>202.49</ele>
        <time>2021-08-08T12:21:27Z</time>
      </trkpt>
      <trkpt lat="49.80742" lon="3.97868">
        <ele>203.94</ele>
        <time>2021-08-08T12:21:37Z</time>
      </trkpt>
      <trkpt lat="49.80718" lon="3.9788">
        <ele>204.42</ele>
        <time>2021-08-08T12:21:45Z</time>
      </trkpt>
      <trkpt lat="49.80694" lon="3.97892">
        <ele>204.42</ele>
        <time>2021-08-08T12:21:53Z</time>
      </trkpt>
      <trkpt lat="49.80665" lon="3.97911">
        <ele>204.9</ele>
        <time>2021-08-08T12:22:03Z</time>
      </trkpt>
      <trkpt lat="49.8064" lon="3.97924">
        <ele>204.9</ele>
        <time>2021-08-08T12:22:11Z</time>
      </trkpt>
      <trkpt lat="49.80613" lon="3.97939">
        <ele>206.34</ele>
        <time>2021-08-08T12:22:20Z</time>
      </trkpt>
      <trkpt lat="49.80584" lon="3.97955">
        <ele>206.82</ele>
        <time>2021-08-08T12:22:30Z</time>
      </trkpt>
      <trkpt lat="49.80563" lon="3.97966">
        <ele>205.86</ele>
        <time>2021-08-08T12:22:36Z</time>
      </trkpt>
      <trkpt lat="49.80547" lon="3.97974">
        <ele>205.86</ele>
        <time>2021-08-08T12:22:40Z</time>
      </trkpt>
      <trkpt lat="49.80515" lon="3.97983">
        <ele>203.94</ele>
        <time>2021-08-08T12:22:46Z</time>
      </trkpt>
      <trkpt lat="49.80504" lon="3.97984">
        <ele>203.46</ele>
        <time>2021-08-08T12:22:48Z</time>
      </trkpt>
      <trkpt lat="49.80475" lon="3.97991">
        <ele>201.53</ele>
        <time>2021-08-08T12:22:53Z</time>
      </trkpt>
      <trkpt lat="49.80463" lon="3.97995">
        <ele>200.57</ele>
        <time>2021-08-08T12:22:55Z</time>
      </trkpt>
      <trkpt lat="49.80457" lon="3.97998">
        <ele>200.57</ele>
        <time>2021-08-08T12:22:56Z</time>
      </trkpt>
      <trkpt lat="49.80418" lon="3.9803">
        <ele>200.57</ele>
        <time>2021-08-08T12:23:04Z</time>
      </trkpt>
      <trkpt lat="49.8038" lon="3.98064">
        <ele>200.09</ele>
        <time>2021-08-08T12:23:13Z</time>
      </trkpt>
      <trkpt lat="49.80347" lon="3.98094">
        <ele>199.61</ele>
        <time>2021-08-08T12:23:21Z</time>
      </trkpt>
      <trkpt lat="49.80319" lon="3.98118">
        <ele>199.61</ele>
        <time>2021-08-08T12:23:28Z</time>
      </trkpt>
      <trkpt lat="49.80281" lon="3.9815">
        <ele>199.61</ele>
        <time>2021-08-08T12:23:37Z</time>
      </trkpt>
      <trkpt lat="49.80247" lon="3.98174">
        <ele>199.13</ele>
        <time>2021-08-08T12:23:45Z</time>
      </trkpt>
      <trkpt lat="49.80243" lon="3.98175">
        <ele>199.13</ele>
        <time>2021-08-08T12:23:46Z</time>
      </trkpt>
      <trkpt lat="49.80239" lon="3.98176">
        <ele>199.13</ele>
        <time>2021-08-08T12:23:47Z</time>
      </trkpt>
      <trkpt lat="49.80208" lon="3.98177">
        <ele>200.57</ele>
        <time>2021-08-08T12:23:55Z</time>
      </trkpt>
      <trkpt lat="49.80186" lon="3.98175">
        <ele>200.09</ele>
        <time>2021-08-08T12:24:01Z</time>
      </trkpt>
      <trkpt lat="49.80167" lon="3.98178">
        <ele>199.13</ele>
        <time>2021-08-08T12:24:05Z</time>
      </trkpt>
      <trkpt lat="49.80148" lon="3.98184">
        <ele>198.65</ele>
        <time>2021-08-08T12:24:09Z</time>
      </trkpt>
      <trkpt lat="49.80143" lon="3.98186">
        <ele>198.65</ele>
        <time>2021-08-08T12:24:10Z</time>
      </trkpt>
      <trkpt lat="49.80129" lon="3.98192">
        <ele>197.69</ele>
        <time>2021-08-08T12:24:13Z</time>
      </trkpt>
      <trkpt lat="49.80101" lon="3.98215">
        <ele>197.21</ele>
        <time>2021-08-08T12:24:19Z</time>
      </trkpt>
      <trkpt lat="49.80096" lon="3.9822">
        <ele>197.21</ele>
        <time>2021-08-08T12:24:20Z</time>
      </trkpt>
      <trkpt lat="49.80072" lon="3.98234">
        <ele>196.25</ele>
        <time>2021-08-08T12:24:25Z</time>
      </trkpt>
      <trkpt lat="49.80067" lon="3.98236">
        <ele>196.25</ele>
        <time>2021-08-08T12:24:26Z</time>
      </trkpt>
      <trkpt lat="49.80063" lon="3.98238">
        <ele>196.25</ele>
        <time>2021-08-08T12:24:27Z</time>
      </trkpt>
      <trkpt lat="49.80049" lon="3.98239">
        <ele>195.28</ele>
        <time>2021-08-08T12:24:30Z</time>
      </trkpt>
      <trkpt lat="49.80027" lon="3.98233">
        <ele>193.36</ele>
        <time>2021-08-08T12:24:34Z</time>
      </trkpt>
      <trkpt lat="49.80016" lon="3.98226">
        <ele>192.4</ele>
        <time>2021-08-08T12:24:36Z</time>
      </trkpt>
      <trkpt lat="49.79979" lon="3.98196">
        <ele>189.52</ele>
        <time>2021-08-08T12:24:41Z</time>
      </trkpt>
      <trkpt lat="49.79937" lon="3.98166">
        <ele>185.67</ele>
        <time>2021-08-08T12:24:46Z</time>
      </trkpt>
      <trkpt lat="49.79912" lon="3.9815">
        <ele>183.27</ele>
        <time>2021-08-08T12:24:49Z</time>
      </trkpt>
      <trkpt lat="49.79903" lon="3.98148">
        <ele>182.31</ele>
        <time>2021-08-08T12:24:50Z</time>
      </trkpt>
      <trkpt lat="49.79894" lon="3.98149">
        <ele>181.83</ele>
        <time>2021-08-08T12:24:51Z</time>
      </trkpt>
      <trkpt lat="49.79833" lon="3.9816">
        <ele>178.46</ele>
        <time>2021-08-08T12:24:57Z</time>
      </trkpt>
      <trkpt lat="49.79823" lon="3.98162">
        <ele>178.46</ele>
        <time>2021-08-08T12:24:58Z</time>
      </trkpt>
      <trkpt lat="49.79804" lon="3.98164">
        <ele>177.02</ele>
        <time>2021-08-08T12:25:00Z</time>
      </trkpt>
      <trkpt lat="49.79795" lon="3.98163">
        <ele>177.02</ele>
        <time>2021-08-08T12:25:01Z</time>
      </trkpt>
      <trkpt lat="49.79786" lon="3.9816">
        <ele>175.58</ele>
        <time>2021-08-08T12:25:02Z</time>
      </trkpt>
      <trkpt lat="49.79776" lon="3.98157">
        <ele>175.1</ele>
        <time>2021-08-08T12:25:03Z</time>
      </trkpt>
      <trkpt lat="49.79767" lon="3.98153">
        <ele>175.1</ele>
        <time>2021-08-08T12:25:04Z</time>
      </trkpt>
      <trkpt lat="49.79722" lon="3.98132">
        <ele>173.66</ele>
        <time>2021-08-08T12:25:10Z</time>
      </trkpt>
      <trkpt lat="49.79717" lon="3.98129">
        <ele>174.14</ele>
        <time>2021-08-08T12:25:11Z</time>
      </trkpt>
      <trkpt lat="49.79713" lon="3.98124">
        <ele>173.66</ele>
        <time>2021-08-08T12:25:12Z</time>
      </trkpt>
      <trkpt lat="49.79711" lon="3.98118">
        <ele>173.66</ele>
        <time>2021-08-08T12:25:13Z</time>
      </trkpt>
      <trkpt lat="49.79712" lon="3.98112">
        <ele>173.66</ele>
        <time>2021-08-08T12:25:14Z</time>
      </trkpt>
      <trkpt lat="49.79713" lon="3.98106">
        <ele>173.66</ele>
        <time>2021-08-08T12:25:15Z</time>
      </trkpt>
      <trkpt lat="49.79714" lon="3.981">
        <ele>173.66</ele>
        <time>2021-08-08T12:25:16Z</time>
      </trkpt>
      <trkpt lat="49.79715" lon="3.98095">
        <ele>175.1</ele>
        <time>2021-08-08T12:25:17Z</time>
      </trkpt>
      <trkpt lat="49.79724" lon="3.98041">
        <ele>175.1</ele>
        <time>2021-08-08T12:25:26Z</time>
      </trkpt>
      <trkpt lat="49.79735" lon="3.97981">
        <ele>175.1</ele>
        <time>2021-08-08T12:25:35Z</time>
      </trkpt>
      <trkpt lat="49.79738" lon="3.9796">
        <ele>175.1</ele>
        <time>2021-08-08T12:25:38Z</time>
      </trkpt>
      <trkpt lat="49.79742" lon="3.97941">
        <ele>175.1</ele>
        <time>2021-08-08T12:25:41Z</time>
      </trkpt>
      <trkpt lat="49.79748" lon="3.97917">
        <ele>175.1</ele>
        <time>2021-08-08T12:25:45Z</time>
      </trkpt>
      <trkpt lat="49.79748" lon="3.9791">
        <ele>175.1</ele>
        <time>2021-08-08T12:25:46Z</time>
      </trkpt>
      <trkpt lat="49.79748" lon="3.97903">
        <ele>175.1</ele>
        <time>2021-08-08T12:25:47Z</time>
      </trkpt>
      <trkpt lat="49.79749" lon="3.97829">
        <ele>174.62</ele>
        <time>2021-08-08T12:25:57Z</time>
      </trkpt>
      <trkpt lat="49.79753" lon="3.97768">
        <ele>173.17</ele>
        <time>2021-08-08T12:26:05Z</time>
      </trkpt>
      <trkpt lat="49.79752" lon="3.9776">
        <ele>173.17</ele>
        <time>2021-08-08T12:26:06Z</time>
      </trkpt>
      <trkpt lat="49.79752" lon="3.97752">
        <ele>172.69</ele>
        <time>2021-08-08T12:26:07Z</time>
      </trkpt>
      <trkpt lat="49.7974" lon="3.97688">
        <ele>171.25</ele>
        <time>2021-08-08T12:26:14Z</time>
      </trkpt>
      <trkpt lat="49.79728" lon="3.9762">
        <ele>169.81</ele>
        <time>2021-08-08T12:26:21Z</time>
      </trkpt>
      <trkpt lat="49.7972" lon="3.97555">
        <ele>169.33</ele>
        <time>2021-08-08T12:26:28Z</time>
      </trkpt>
      <trkpt lat="49.79715" lon="3.97488">
        <ele>167.89</ele>
        <time>2021-08-08T12:26:35Z</time>
      </trkpt>
      <trkpt lat="49.79712" lon="3.97467">
        <ele>167.89</ele>
        <time>2021-08-08T12:26:37Z</time>
      </trkpt>
      <trkpt lat="49.79707" lon="3.97436">
        <ele>166.93</ele>
        <time>2021-08-08T12:26:40Z</time>
      </trkpt>
      <trkpt lat="49.79706" lon="3.97426">
        <ele>166.93</ele>
        <time>2021-08-08T12:26:41Z</time>
      </trkpt>
      <trkpt lat="49.79703" lon="3.97413">
        <ele>165.96</ele>
        <time>2021-08-08T12:26:42Z</time>
      </trkpt>
      <trkpt lat="49.797" lon="3.97404">
        <ele>165</ele>
        <time>2021-08-08T12:26:43Z</time>
      </trkpt>
      <trkpt lat="49.79697" lon="3.97394">
        <ele>165</ele>
        <time>2021-08-08T12:26:44Z</time>
      </trkpt>
      <trkpt lat="49.79679" lon="3.97335">
        <ele>161.64</ele>
        <time>2021-08-08T12:26:49Z</time>
      </trkpt>
      <trkpt lat="49.79672" lon="3.97305">
        <ele>160.68</ele>
        <time>2021-08-08T12:26:53Z</time>
      </trkpt>
      <trkpt lat="49.79671" lon="3.9728">
        <ele>160.68</ele>
        <time>2021-08-08T12:26:59Z</time>
      </trkpt>
      <trkpt lat="49.79668" lon="3.9727">
        <ele>160.68</ele>
        <time>2021-08-08T12:27:01Z</time>
      </trkpt>
      <trkpt lat="49.7966" lon="3.97249">
        <ele>160.2</ele>
        <time>2021-08-08T12:27:04Z</time>
      </trkpt>
      <trkpt lat="49.79659" lon="3.97242">
        <ele>159.24</ele>
        <time>2021-08-08T12:27:05Z</time>
      </trkpt>
      <trkpt lat="49.79644" lon="3.97167">
        <ele>156.35</ele>
        <time>2021-08-08T12:27:13Z</time>
      </trkpt>
      <trkpt lat="49.79633" lon="3.97115">
        <ele>152.99</ele>
        <time>2021-08-08T12:27:18Z</time>
      </trkpt>
      <trkpt lat="49.79623" lon="3.97079">
        <ele>152.03</ele>
        <time>2021-08-08T12:27:22Z</time>
      </trkpt>
      <trkpt lat="49.79619" lon="3.9706">
        <ele>152.03</ele>
        <time>2021-08-08T12:27:25Z</time>
      </trkpt>
      <trkpt lat="49.79617" lon="3.97053">
        <ele>152.03</ele>
        <time>2021-08-08T12:27:26Z</time>
      </trkpt>
      <trkpt lat="49.79595" lon="3.97">
        <ele>148.18</ele>
        <time>2021-08-08T12:27:33Z</time>
      </trkpt>
      <trkpt lat="49.79571" lon="3.96964">
        <ele>143.37</ele>
        <time>2021-08-08T12:27:37Z</time>
      </trkpt>
      <trkpt lat="49.79565" lon="3.96957">
        <ele>142.89</ele>
        <time>2021-08-08T12:27:38Z</time>
      </trkpt>
      <trkpt lat="49.79549" lon="3.96941">
        <ele>141.45</ele>
        <time>2021-08-08T12:27:40Z</time>
      </trkpt>
      <trkpt lat="49.79531" lon="3.96926">
        <ele>138.09</ele>
        <time>2021-08-08T12:27:42Z</time>
      </trkpt>
      <trkpt lat="49.795" lon="3.96904">
        <ele>134.24</ele>
        <time>2021-08-08T12:27:45Z</time>
      </trkpt>
      <trkpt lat="49.79469" lon="3.96879">
        <ele>131.36</ele>
        <time>2021-08-08T12:27:48Z</time>
      </trkpt>
      <trkpt lat="49.79432" lon="3.96838">
        <ele>129.92</ele>
        <time>2021-08-08T12:27:52Z</time>
      </trkpt>
      <trkpt lat="49.79422" lon="3.96829">
        <ele>128.95</ele>
        <time>2021-08-08T12:27:53Z</time>
      </trkpt>
      <trkpt lat="49.79412" lon="3.96821">
        <ele>128.47</ele>
        <time>2021-08-08T12:27:54Z</time>
      </trkpt>
      <trkpt lat="49.79402" lon="3.96815">
        <ele>127.51</ele>
        <time>2021-08-08T12:27:55Z</time>
      </trkpt>
      <trkpt lat="49.7939" lon="3.9681">
        <ele>127.51</ele>
        <time>2021-08-08T12:27:56Z</time>
      </trkpt>
      <trkpt lat="49.7938" lon="3.96807">
        <ele>127.51</ele>
        <time>2021-08-08T12:27:57Z</time>
      </trkpt>
      <trkpt lat="49.7937" lon="3.96805">
        <ele>127.51</ele>
        <time>2021-08-08T12:27:58Z</time>
      </trkpt>
      <trkpt lat="49.7936" lon="3.96804">
        <ele>127.51</ele>
        <time>2021-08-08T12:27:59Z</time>
      </trkpt>
      <trkpt lat="49.79307" lon="3.96804">
        <ele>127.51</ele>
        <time>2021-08-08T12:28:05Z</time>
      </trkpt>
      <trkpt lat="49.79279" lon="3.96806">
        <ele>129.92</ele>
        <time>2021-08-08T12:28:09Z</time>
      </trkpt>
      <trkpt lat="49.79254" lon="3.96806">
        <ele>132.8</ele>
        <time>2021-08-08T12:28:14Z</time>
      </trkpt>
      <trkpt lat="49.79238" lon="3.96805">
        <ele>134.24</ele>
        <time>2021-08-08T12:28:21Z</time>
      </trkpt>
      <trkpt lat="49.79221" lon="3.96803">
        <ele>136.64</ele>
        <time>2021-08-08T12:28:28Z</time>
      </trkpt>
      <trkpt lat="49.79204" lon="3.96804">
        <ele>137.61</ele>
        <time>2021-08-08T12:28:36Z</time>
      </trkpt>
      <trkpt lat="49.79186" lon="3.96806">
        <ele>139.53</ele>
        <time>2021-08-08T12:28:45Z</time>
      </trkpt>
      <trkpt lat="49.79169" lon="3.96808">
        <ele>140.97</ele>
        <time>2021-08-08T12:28:55Z</time>
      </trkpt>
      <trkpt lat="49.79155" lon="3.96813">
        <ele>142.41</ele>
        <time>2021-08-08T12:29:03Z</time>
      </trkpt>
      <trkpt lat="49.7914" lon="3.96824">
        <ele>144.34</ele>
        <time>2021-08-08T12:29:13Z</time>
      </trkpt>
      <trkpt lat="49.79129" lon="3.96839">
        <ele>145.78</ele>
        <time>2021-08-08T12:29:21Z</time>
      </trkpt>
      <trkpt lat="49.79117" lon="3.96859">
        <ele>147.22</ele>
        <time>2021-08-08T12:29:29Z</time>
      </trkpt>
      <trkpt lat="49.79107" lon="3.96881">
        <ele>148.18</ele>
        <time>2021-08-08T12:29:38Z</time>
      </trkpt>
      <trkpt lat="49.7909" lon="3.96895">
        <ele>150.1</ele>
        <time>2021-08-08T12:29:47Z</time>
      </trkpt>
      <trkpt lat="49.79074" lon="3.96899">
        <ele>151.54</ele>
        <time>2021-08-08T12:29:56Z</time>
      </trkpt>
      <trkpt lat="49.7906" lon="3.96902">
        <ele>153.47</ele>
        <time>2021-08-08T12:30:03Z</time>
      </trkpt>
      <trkpt lat="49.79042" lon="3.96906">
        <ele>154.43</ele>
        <time>2021-08-08T12:30:12Z</time>
      </trkpt>
      <trkpt lat="49.79023" lon="3.96911">
        <ele>156.35</ele>
        <time>2021-08-08T12:30:22Z</time>
      </trkpt>
      <trkpt lat="49.79006" lon="3.96916">
        <ele>157.31</ele>
        <time>2021-08-08T12:30:31Z</time>
      </trkpt>
      <trkpt lat="49.78992" lon="3.96919">
        <ele>159.24</ele>
        <time>2021-08-08T12:30:39Z</time>
      </trkpt>
      <trkpt lat="49.78977" lon="3.96925">
        <ele>159.72</ele>
        <time>2021-08-08T12:30:46Z</time>
      </trkpt>
      <trkpt lat="49.78961" lon="3.96928">
        <ele>161.16</ele>
        <time>2021-08-08T12:30:54Z</time>
      </trkpt>
      <trkpt lat="49.78941" lon="3.96933">
        <ele>163.08</ele>
        <time>2021-08-08T12:31:04Z</time>
      </trkpt>
      <trkpt lat="49.78939" lon="3.96932">
        <ele>163.08</ele>
        <time>2021-08-08T12:31:05Z</time>
      </trkpt>
      <trkpt lat="49.7892" lon="3.96936">
        <ele>164.52</ele>
        <time>2021-08-08T12:31:14Z</time>
      </trkpt>
      <trkpt lat="49.78906" lon="3.96938">
        <ele>165.96</ele>
        <time>2021-08-08T12:31:22Z</time>
      </trkpt>
      <trkpt lat="49.78886" lon="3.96944">
        <ele>167.89</ele>
        <time>2021-08-08T12:31:33Z</time>
      </trkpt>
      <trkpt lat="49.78874" lon="3.96946">
        <ele>169.33</ele>
        <time>2021-08-08T12:31:40Z</time>
      </trkpt>
      <trkpt lat="49.7887" lon="3.96948">
        <ele>169.33</ele>
        <time>2021-08-08T12:31:42Z</time>
      </trkpt>
      <trkpt lat="49.78868" lon="3.9695">
        <ele>169.33</ele>
        <time>2021-08-08T12:31:43Z</time>
      </trkpt>
      <trkpt lat="49.78866" lon="3.96951">
        <ele>169.81</ele>
        <time>2021-08-08T12:31:44Z</time>
      </trkpt>
      <trkpt lat="49.78864" lon="3.96952">
        <ele>169.81</ele>
        <time>2021-08-08T12:31:45Z</time>
      </trkpt>
      <trkpt lat="49.78862" lon="3.96953">
        <ele>169.81</ele>
        <time>2021-08-08T12:31:46Z</time>
      </trkpt>
      <trkpt lat="49.7885" lon="3.96958">
        <ele>170.77</ele>
        <time>2021-08-08T12:31:53Z</time>
      </trkpt>
      <trkpt lat="49.78826" lon="3.96969">
        <ele>171.73</ele>
        <time>2021-08-08T12:32:03Z</time>
      </trkpt>
      <trkpt lat="49.788" lon="3.96965">
        <ele>169.81</ele>
        <time>2021-08-08T12:32:12Z</time>
      </trkpt>
      <trkpt lat="49.78796" lon="3.96962">
        <ele>169.33</ele>
        <time>2021-08-08T12:32:13Z</time>
      </trkpt>
      <trkpt lat="49.78793" lon="3.96958">
        <ele>169.33</ele>
        <time>2021-08-08T12:32:14Z</time>
      </trkpt>
      <trkpt lat="49.78756" lon="3.9691">
        <ele>166.45</ele>
        <time>2021-08-08T12:32:24Z</time>
      </trkpt>
      <trkpt lat="49.78728" lon="3.9687">
        <ele>163.08</ele>
        <time>2021-08-08T12:32:30Z</time>
      </trkpt>
      <trkpt lat="49.78693" lon="3.96823">
        <ele>159.72</ele>
        <time>2021-08-08T12:32:36Z</time>
      </trkpt>
      <trkpt lat="49.78687" lon="3.96814">
        <ele>159.72</ele>
        <time>2021-08-08T12:32:37Z</time>
      </trkpt>
      <trkpt lat="49.78668" lon="3.96788">
        <ele>158.27</ele>
        <time>2021-08-08T12:32:40Z</time>
      </trkpt>
      <trkpt lat="49.78655" lon="3.96771">
        <ele>156.83</ele>
        <time>2021-08-08T12:32:42Z</time>
      </trkpt>
      <trkpt lat="49.78614" lon="3.96716">
        <ele>153.47</ele>
        <time>2021-08-08T12:32:48Z</time>
      </trkpt>
      <trkpt lat="49.78607" lon="3.96706">
        <ele>153.47</ele>
        <time>2021-08-08T12:32:49Z</time>
      </trkpt>
      <trkpt lat="49.78582" lon="3.96659">
        <ele>150.58</ele>
        <time>2021-08-08T12:32:53Z</time>
      </trkpt>
      <trkpt lat="49.78562" lon="3.96589">
        <ele>147.7</ele>
        <time>2021-08-08T12:32:58Z</time>
      </trkpt>
      <trkpt lat="49.78548" lon="3.96528">
        <ele>144.34</ele>
        <time>2021-08-08T12:33:02Z</time>
      </trkpt>
      <trkpt lat="49.78527" lon="3.96453">
        <ele>141.45</ele>
        <time>2021-08-08T12:33:07Z</time>
      </trkpt>
      <trkpt lat="49.78521" lon="3.96441">
        <ele>140.49</ele>
        <time>2021-08-08T12:33:08Z</time>
      </trkpt>
      <trkpt lat="49.78513" lon="3.9643">
        <ele>140.01</ele>
        <time>2021-08-08T12:33:09Z</time>
      </trkpt>
      <trkpt lat="49.78505" lon="3.96422">
        <ele>139.53</ele>
        <time>2021-08-08T12:33:10Z</time>
      </trkpt>
      <trkpt lat="49.78496" lon="3.96418">
        <ele>138.09</ele>
        <time>2021-08-08T12:33:11Z</time>
      </trkpt>
      <trkpt lat="49.78486" lon="3.96417">
        <ele>137.13</ele>
        <time>2021-08-08T12:33:12Z</time>
      </trkpt>
      <trkpt lat="49.78476" lon="3.9642">
        <ele>137.13</ele>
        <time>2021-08-08T12:33:13Z</time>
      </trkpt>
      <trkpt lat="49.78467" lon="3.96426">
        <ele>136.16</ele>
        <time>2021-08-08T12:33:14Z</time>
      </trkpt>
      <trkpt lat="49.78458" lon="3.96436">
        <ele>136.16</ele>
        <time>2021-08-08T12:33:15Z</time>
      </trkpt>
      <trkpt lat="49.78451" lon="3.96448">
        <ele>135.2</ele>
        <time>2021-08-08T12:33:16Z</time>
      </trkpt>
      <trkpt lat="49.78444" lon="3.9646">
        <ele>134.24</ele>
        <time>2021-08-08T12:33:17Z</time>
      </trkpt>
      <trkpt lat="49.78438" lon="3.96473">
        <ele>133.76</ele>
        <time>2021-08-08T12:33:18Z</time>
      </trkpt>
      <trkpt lat="49.78432" lon="3.96486">
        <ele>133.76</ele>
        <time>2021-08-08T12:33:19Z</time>
      </trkpt>
      <trkpt lat="49.78408" lon="3.96543">
        <ele>130.4</ele>
        <time>2021-08-08T12:33:23Z</time>
      </trkpt>
      <trkpt lat="49.78401" lon="3.96557">
        <ele>130.4</ele>
        <time>2021-08-08T12:33:24Z</time>
      </trkpt>
      <trkpt lat="49.78383" lon="3.96599">
        <ele>127.03</ele>
        <time>2021-08-08T12:33:27Z</time>
      </trkpt>
      <trkpt lat="49.78369" lon="3.96625">
        <ele>125.59</ele>
        <time>2021-08-08T12:33:29Z</time>
      </trkpt>
      <trkpt lat="49.7836" lon="3.96636">
        <ele>125.11</ele>
        <time>2021-08-08T12:33:30Z</time>
      </trkpt>
      <trkpt lat="49.78351" lon="3.96644">
        <ele>123.19</ele>
        <time>2021-08-08T12:33:31Z</time>
      </trkpt>
      <trkpt lat="49.7834" lon="3.96647">
        <ele>122.71</ele>
        <time>2021-08-08T12:33:32Z</time>
      </trkpt>
      <trkpt lat="49.78329" lon="3.96647">
        <ele>125.11</ele>
        <time>2021-08-08T12:33:33Z</time>
      </trkpt>
      <trkpt lat="49.78318" lon="3.96643">
        <ele>125.11</ele>
        <time>2021-08-08T12:33:34Z</time>
      </trkpt>
      <trkpt lat="49.78309" lon="3.96639">
        <ele>125.11</ele>
        <time>2021-08-08T12:33:35Z</time>
      </trkpt>
      <trkpt lat="49.7825" lon="3.96615">
        <ele>125.59</ele>
        <time>2021-08-08T12:33:42Z</time>
      </trkpt>
      <trkpt lat="49.78192" lon="3.96595">
        <ele>126.55</ele>
        <time>2021-08-08T12:33:50Z</time>
      </trkpt>
      <trkpt lat="49.7815" lon="3.96582">
        <ele>127.03</ele>
        <time>2021-08-08T12:33:57Z</time>
      </trkpt>
      <trkpt lat="49.78134" lon="3.96577">
        <ele>127.03</ele>
        <time>2021-08-08T12:34:00Z</time>
      </trkpt>
      <trkpt lat="49.7813" lon="3.96574">
        <ele>127.03</ele>
        <time>2021-08-08T12:34:01Z</time>
      </trkpt>
      <trkpt lat="49.78126" lon="3.96571">
        <ele>127.51</ele>
        <time>2021-08-08T12:34:02Z</time>
      </trkpt>
      <trkpt lat="49.78123" lon="3.96567">
        <ele>127.51</ele>
        <time>2021-08-08T12:34:03Z</time>
      </trkpt>
      <trkpt lat="49.7812" lon="3.96562">
        <ele>127.51</ele>
        <time>2021-08-08T12:34:04Z</time>
      </trkpt>
      <trkpt lat="49.78117" lon="3.96557">
        <ele>127.51</ele>
        <time>2021-08-08T12:34:05Z</time>
      </trkpt>
      <trkpt lat="49.78103" lon="3.96522">
        <ele>127.99</ele>
        <time>2021-08-08T12:34:12Z</time>
      </trkpt>
      <trkpt lat="49.78091" lon="3.9648">
        <ele>129.92</ele>
        <time>2021-08-08T12:34:21Z</time>
      </trkpt>
      <trkpt lat="49.78081" lon="3.96452">
        <ele>131.36</ele>
        <time>2021-08-08T12:34:28Z</time>
      </trkpt>
      <trkpt lat="49.78065" lon="3.96421">
        <ele>132.32</ele>
        <time>2021-08-08T12:34:37Z</time>
      </trkpt>
      <trkpt lat="49.78052" lon="3.96403">
        <ele>133.76</ele>
        <time>2021-08-08T12:34:44Z</time>
      </trkpt>
      <trkpt lat="49.78034" lon="3.96381">
        <ele>135.2</ele>
        <time>2021-08-08T12:34:53Z</time>
      </trkpt>
      <trkpt lat="49.78024" lon="3.96357">
        <ele>136.16</ele>
        <time>2021-08-08T12:35:00Z</time>
      </trkpt>
      <trkpt lat="49.78022" lon="3.96351">
        <ele>136.16</ele>
        <time>2021-08-08T12:35:02Z</time>
      </trkpt>
      <trkpt lat="49.78022" lon="3.96355">
        <ele>136.64</ele>
        <time>2021-08-08T12:35:05Z</time>
      </trkpt>
      <trkpt lat="49.78024" lon="3.96357">
        <ele>136.64</ele>
        <time>2021-08-08T12:35:06Z</time>
      </trkpt>
      <trkpt lat="49.78025" lon="3.96361">
        <ele>136.64</ele>
        <time>2021-08-08T12:35:07Z</time>
      </trkpt>
      <trkpt lat="49.78026" lon="3.96364">
        <ele>136.64</ele>
        <time>2021-08-08T12:35:08Z</time>
      </trkpt>
      <trkpt lat="49.78026" lon="3.9637">
        <ele>136.64</ele>
        <time>2021-08-08T12:35:09Z</time>
      </trkpt>
      <trkpt lat="49.78026" lon="3.96375">
        <ele>136.64</ele>
        <time>2021-08-08T12:35:10Z</time>
      </trkpt>
      <trkpt lat="49.78025" lon="3.9638">
        <ele>136.64</ele>
        <time>2021-08-08T12:35:11Z</time>
      </trkpt>
      <trkpt lat="49.78022" lon="3.96397">
        <ele>137.13</ele>
        <time>2021-08-08T12:35:16Z</time>
      </trkpt>
      <trkpt lat="49.7802" lon="3.96398">
        <ele>137.13</ele>
        <time>2021-08-08T12:35:17Z</time>
      </trkpt>
      <trkpt lat="49.78018" lon="3.96398">
        <ele>137.13</ele>
        <time>2021-08-08T12:35:18Z</time>
      </trkpt>
      <trkpt lat="49.78016" lon="3.96397">
        <ele>137.13</ele>
        <time>2021-08-08T12:35:19Z</time>
      </trkpt>
      <trkpt lat="49.78014" lon="3.96396">
        <ele>137.13</ele>
        <time>2021-08-08T12:35:20Z</time>
      </trkpt>
      <trkpt lat="49.78013" lon="3.96396">
        <ele>137.13</ele>
        <time>2021-08-08T12:35:21Z</time>
      </trkpt>
      <trkpt lat="49.78012" lon="3.96396">
        <ele>138.09</ele>
        <time>2021-08-08T12:35:22Z</time>
      </trkpt>
      <trkpt lat="49.77999" lon="3.96391">
        <ele>140.97</ele>
        <time>2021-08-08T12:35:31Z</time>
      </trkpt>
      <trkpt lat="49.77987" lon="3.96387">
        <ele>141.45</ele>
        <time>2021-08-08T12:35:39Z</time>
      </trkpt>
      <trkpt lat="49.77968" lon="3.96382">
        <ele>141.93</ele>
        <time>2021-08-08T12:35:49Z</time>
      </trkpt>
      <trkpt lat="49.77962" lon="3.96386">
        <ele>142.89</ele>
        <time>2021-08-08T12:35:53Z</time>
      </trkpt>
      <trkpt lat="49.77961" lon="3.96388">
        <ele>142.89</ele>
        <time>2021-08-08T12:35:54Z</time>
      </trkpt>
      <trkpt lat="49.77957" lon="3.96422">
        <ele>143.37</ele>
        <time>2021-08-08T12:36:04Z</time>
      </trkpt>
      <trkpt lat="49.77954" lon="3.96448">
        <ele>144.34</ele>
        <time>2021-08-08T12:36:11Z</time>
      </trkpt>
      <trkpt lat="49.7795" lon="3.96484">
        <ele>144.34</ele>
        <time>2021-08-08T12:36:19Z</time>
      </trkpt>
      <trkpt lat="49.77945" lon="3.96525">
        <ele>144.82</ele>
        <time>2021-08-08T12:36:27Z</time>
      </trkpt>
      <trkpt lat="49.77936" lon="3.96581">
        <ele>145.78</ele>
        <time>2021-08-08T12:36:37Z</time>
      </trkpt>
      <trkpt lat="49.77925" lon="3.96627">
        <ele>146.74</ele>
        <time>2021-08-08T12:36:45Z</time>
      </trkpt>
      <trkpt lat="49.77913" lon="3.96681">
        <ele>147.7</ele>
        <time>2021-08-08T12:36:55Z</time>
      </trkpt>
      <trkpt lat="49.77897" lon="3.96757">
        <ele>148.18</ele>
        <time>2021-08-08T12:37:08Z</time>
      </trkpt>
      <trkpt lat="49.77878" lon="3.96824">
        <ele>149.14</ele>
        <time>2021-08-08T12:37:19Z</time>
      </trkpt>
      <trkpt lat="49.77871" lon="3.96846">
        <ele>147.7</ele>
        <time>2021-08-08T12:37:22Z</time>
      </trkpt>
      <trkpt lat="49.77849" lon="3.96935">
        <ele>146.26</ele>
        <time>2021-08-08T12:37:33Z</time>
      </trkpt>
      <trkpt lat="49.77845" lon="3.9698">
        <ele>146.26</ele>
        <time>2021-08-08T12:37:38Z</time>
      </trkpt>
      <trkpt lat="49.77847" lon="3.9703">
        <ele>149.14</ele>
        <time>2021-08-08T12:37:45Z</time>
      </trkpt>
      <trkpt lat="49.77851" lon="3.97094">
        <ele>151.54</ele>
        <time>2021-08-08T12:37:57Z</time>
      </trkpt>
      <trkpt lat="49.77855" lon="3.97154">
        <ele>153.95</ele>
        <time>2021-08-08T12:38:09Z</time>
      </trkpt>
      <trkpt lat="49.77857" lon="3.97203">
        <ele>154.91</ele>
        <time>2021-08-08T12:38:19Z</time>
      </trkpt>
      <trkpt lat="49.77859" lon="3.97252">
        <ele>156.83</ele>
        <time>2021-08-08T12:38:29Z</time>
      </trkpt>
      <trkpt lat="49.77862" lon="3.97304">
        <ele>157.79</ele>
        <time>2021-08-08T12:38:39Z</time>
      </trkpt>
      <trkpt lat="49.77865" lon="3.97379">
        <ele>158.27</ele>
        <time>2021-08-08T12:38:51Z</time>
      </trkpt>
      <trkpt lat="49.7787" lon="3.97467">
        <ele>159.24</ele>
        <time>2021-08-08T12:39:04Z</time>
      </trkpt>
      <trkpt lat="49.77874" lon="3.97539">
        <ele>159.72</ele>
        <time>2021-08-08T12:39:14Z</time>
      </trkpt>
      <trkpt lat="49.77875" lon="3.97577">
        <ele>160.2</ele>
        <time>2021-08-08T12:39:19Z</time>
      </trkpt>
      <trkpt lat="49.7788" lon="3.97648">
        <ele>161.64</ele>
        <time>2021-08-08T12:39:29Z</time>
      </trkpt>
      <trkpt lat="49.77883" lon="3.97715">
        <ele>161.64</ele>
        <time>2021-08-08T12:39:38Z</time>
      </trkpt>
      <trkpt lat="49.77882" lon="3.97758">
        <ele>162.12</ele>
        <time>2021-08-08T12:39:44Z</time>
      </trkpt>
      <trkpt lat="49.77882" lon="3.97766">
        <ele>162.12</ele>
        <time>2021-08-08T12:39:45Z</time>
      </trkpt>
      <trkpt lat="49.77879" lon="3.97815">
        <ele>163.08</ele>
        <time>2021-08-08T12:39:53Z</time>
      </trkpt>
      <trkpt lat="49.77876" lon="3.97858">
        <ele>163.08</ele>
        <time>2021-08-08T12:40:00Z</time>
      </trkpt>
      <trkpt lat="49.77872" lon="3.97906">
        <ele>163.08</ele>
        <time>2021-08-08T12:40:07Z</time>
      </trkpt>
      <trkpt lat="49.77871" lon="3.97913">
        <ele>163.08</ele>
        <time>2021-08-08T12:40:08Z</time>
      </trkpt>
      <trkpt lat="49.77866" lon="3.97985">
        <ele>163.56</ele>
        <time>2021-08-08T12:40:18Z</time>
      </trkpt>
      <trkpt lat="49.77854" lon="3.98056">
        <ele>164.52</ele>
        <time>2021-08-08T12:40:29Z</time>
      </trkpt>
      <trkpt lat="49.77842" lon="3.9811">
        <ele>166.45</ele>
        <time>2021-08-08T12:40:39Z</time>
      </trkpt>
      <trkpt lat="49.7783" lon="3.98158">
        <ele>167.41</ele>
        <time>2021-08-08T12:40:49Z</time>
      </trkpt>
      <trkpt lat="49.77818" lon="3.98172">
        <ele>168.85</ele>
        <time>2021-08-08T12:40:55Z</time>
      </trkpt>
      <trkpt lat="49.77807" lon="3.98177">
        <ele>170.29</ele>
        <time>2021-08-08T12:41:02Z</time>
      </trkpt>
      <trkpt lat="49.778" lon="3.98182">
        <ele>171.73</ele>
        <time>2021-08-08T12:41:08Z</time>
      </trkpt>
      <trkpt lat="49.77788" lon="3.98189">
        <ele>172.69</ele>
        <time>2021-08-08T12:41:15Z</time>
      </trkpt>
      <trkpt lat="49.77775" lon="3.98203">
        <ele>173.66</ele>
        <time>2021-08-08T12:41:21Z</time>
      </trkpt>
      <trkpt lat="49.77764" lon="3.98212">
        <ele>175.1</ele>
        <time>2021-08-08T12:41:28Z</time>
      </trkpt>
      <trkpt lat="49.77753" lon="3.98219">
        <ele>175.58</ele>
        <time>2021-08-08T12:41:34Z</time>
      </trkpt>
      <trkpt lat="49.77737" lon="3.98234">
        <ele>177.5</ele>
        <time>2021-08-08T12:41:41Z</time>
      </trkpt>
      <trkpt lat="49.77723" lon="3.98245">
        <ele>178.46</ele>
        <time>2021-08-08T12:41:48Z</time>
      </trkpt>
      <trkpt lat="49.77718" lon="3.98247">
        <ele>178.94</ele>
        <time>2021-08-08T12:41:51Z</time>
      </trkpt>
      <trkpt lat="49.7771" lon="3.98253">
        <ele>179.9</ele>
        <time>2021-08-08T12:41:57Z</time>
      </trkpt>
      <trkpt lat="49.77696" lon="3.98267">
        <ele>180.87</ele>
        <time>2021-08-08T12:42:05Z</time>
      </trkpt>
      <trkpt lat="49.77678" lon="3.98281">
        <ele>181.83</ele>
        <time>2021-08-08T12:42:12Z</time>
      </trkpt>
      <trkpt lat="49.77653" lon="3.983">
        <ele>182.79</ele>
        <time>2021-08-08T12:42:20Z</time>
      </trkpt>
      <trkpt lat="49.77632" lon="3.98316">
        <ele>183.27</ele>
        <time>2021-08-08T12:42:27Z</time>
      </trkpt>
      <trkpt lat="49.77616" lon="3.98328">
        <ele>183.75</ele>
        <time>2021-08-08T12:42:32Z</time>
      </trkpt>
      <trkpt lat="49.77583" lon="3.98351">
        <ele>183.75</ele>
        <time>2021-08-08T12:42:41Z</time>
      </trkpt>
      <trkpt lat="49.77558" lon="3.98372">
        <ele>184.71</ele>
        <time>2021-08-08T12:42:48Z</time>
      </trkpt>
      <trkpt lat="49.77543" lon="3.98386">
        <ele>185.19</ele>
        <time>2021-08-08T12:42:53Z</time>
      </trkpt>
      <trkpt lat="49.77524" lon="3.98401">
        <ele>186.15</ele>
        <time>2021-08-08T12:43:01Z</time>
      </trkpt>
      <trkpt lat="49.7751" lon="3.98412">
        <ele>187.11</ele>
        <time>2021-08-08T12:43:08Z</time>
      </trkpt>
      <trkpt lat="49.77491" lon="3.98427">
        <ele>188.56</ele>
        <time>2021-08-08T12:43:15Z</time>
      </trkpt>
      <trkpt lat="49.77477" lon="3.98438">
        <ele>189.52</ele>
        <time>2021-08-08T12:43:21Z</time>
      </trkpt>
      <trkpt lat="49.77459" lon="3.98452">
        <ele>190</ele>
        <time>2021-08-08T12:43:29Z</time>
      </trkpt>
      <trkpt lat="49.7744" lon="3.98466">
        <ele>191.44</ele>
        <time>2021-08-08T12:43:37Z</time>
      </trkpt>
      <trkpt lat="49.77404" lon="3.98492">
        <ele>191.92</ele>
        <time>2021-08-08T12:43:46Z</time>
      </trkpt>
      <trkpt lat="49.77386" lon="3.98505">
        <ele>192.88</ele>
        <time>2021-08-08T12:43:53Z</time>
      </trkpt>
      <trkpt lat="49.77366" lon="3.98519">
        <ele>194.32</ele>
        <time>2021-08-08T12:44:01Z</time>
      </trkpt>
      <trkpt lat="49.77337" lon="3.98541">
        <ele>194.32</ele>
        <time>2021-08-08T12:44:11Z</time>
      </trkpt>
      <trkpt lat="49.77304" lon="3.98565">
        <ele>195.77</ele>
        <time>2021-08-08T12:44:21Z</time>
      </trkpt>
      <trkpt lat="49.77281" lon="3.98585">
        <ele>194.32</ele>
        <time>2021-08-08T12:44:27Z</time>
      </trkpt>
      <trkpt lat="49.77247" lon="3.98611">
        <ele>191.92</ele>
        <time>2021-08-08T12:44:35Z</time>
      </trkpt>
      <trkpt lat="49.7721" lon="3.9864">
        <ele>190.48</ele>
        <time>2021-08-08T12:44:42Z</time>
      </trkpt>
      <trkpt lat="49.77172" lon="3.98668">
        <ele>190.48</ele>
        <time>2021-08-08T12:44:49Z</time>
      </trkpt>
      <trkpt lat="49.77131" lon="3.987">
        <ele>186.63</ele>
        <time>2021-08-08T12:44:55Z</time>
      </trkpt>
      <trkpt lat="49.77085" lon="3.98739">
        <ele>182.79</ele>
        <time>2021-08-08T12:45:01Z</time>
      </trkpt>
      <trkpt lat="49.77018" lon="3.98793">
        <ele>178.94</ele>
        <time>2021-08-08T12:45:09Z</time>
      </trkpt>
      <trkpt lat="49.77001" lon="3.98806">
        <ele>177.98</ele>
        <time>2021-08-08T12:45:11Z</time>
      </trkpt>
      <trkpt lat="49.76971" lon="3.98824">
        <ele>176.06</ele>
        <time>2021-08-08T12:45:14Z</time>
      </trkpt>
      <trkpt lat="49.76962" lon="3.98827">
        <ele>175.58</ele>
        <time>2021-08-08T12:45:15Z</time>
      </trkpt>
      <trkpt lat="49.76934" lon="3.98834">
        <ele>175.1</ele>
        <time>2021-08-08T12:45:18Z</time>
      </trkpt>
      <trkpt lat="49.76926" lon="3.98834">
        <ele>175.1</ele>
        <time>2021-08-08T12:45:19Z</time>
      </trkpt>
      <trkpt lat="49.76906" lon="3.98832">
        <ele>178.46</ele>
        <time>2021-08-08T12:45:22Z</time>
      </trkpt>
      <trkpt lat="49.76876" lon="3.98828">
        <ele>180.87</ele>
        <time>2021-08-08T12:45:28Z</time>
      </trkpt>
      <trkpt lat="49.76872" lon="3.98827">
        <ele>180.87</ele>
        <time>2021-08-08T12:45:29Z</time>
      </trkpt>
      <trkpt lat="49.76868" lon="3.98826">
        <ele>181.35</ele>
        <time>2021-08-08T12:45:30Z</time>
      </trkpt>
      <trkpt lat="49.76865" lon="3.98825">
        <ele>181.35</ele>
        <time>2021-08-08T12:45:31Z</time>
      </trkpt>
      <trkpt lat="49.76861" lon="3.98824">
        <ele>181.83</ele>
        <time>2021-08-08T12:45:32Z</time>
      </trkpt>
      <trkpt lat="49.76857" lon="3.98824">
        <ele>181.83</ele>
        <time>2021-08-08T12:45:33Z</time>
      </trkpt>
      <trkpt lat="49.76854" lon="3.98823">
        <ele>181.83</ele>
        <time>2021-08-08T12:45:34Z</time>
      </trkpt>
      <trkpt lat="49.76828" lon="3.98819">
        <ele>183.27</ele>
        <time>2021-08-08T12:45:41Z</time>
      </trkpt>
      <trkpt lat="49.76808" lon="3.98815">
        <ele>184.71</ele>
        <time>2021-08-08T12:45:48Z</time>
      </trkpt>
      <trkpt lat="49.76783" lon="3.98811">
        <ele>185.67</ele>
        <time>2021-08-08T12:45:56Z</time>
      </trkpt>
      <trkpt lat="49.76751" lon="3.98804">
        <ele>186.15</ele>
        <time>2021-08-08T12:46:05Z</time>
      </trkpt>
      <trkpt lat="49.76731" lon="3.98801">
        <ele>186.15</ele>
        <time>2021-08-08T12:46:11Z</time>
      </trkpt>
      <trkpt lat="49.76702" lon="3.98795">
        <ele>186.15</ele>
        <time>2021-08-08T12:46:20Z</time>
      </trkpt>
      <trkpt lat="49.76664" lon="3.98789">
        <ele>186.63</ele>
        <time>2021-08-08T12:46:31Z</time>
      </trkpt>
      <trkpt lat="49.76642" lon="3.98784">
        <ele>187.59</ele>
        <time>2021-08-08T12:46:37Z</time>
      </trkpt>
      <trkpt lat="49.76607" lon="3.98778">
        <ele>189.04</ele>
        <time>2021-08-08T12:46:46Z</time>
      </trkpt>
      <trkpt lat="49.76572" lon="3.98772">
        <ele>190.96</ele>
        <time>2021-08-08T12:46:56Z</time>
      </trkpt>
      <trkpt lat="49.7654" lon="3.98765">
        <ele>191.92</ele>
        <time>2021-08-08T12:47:06Z</time>
      </trkpt>
      <trkpt lat="49.76521" lon="3.98762">
        <ele>193.36</ele>
        <time>2021-08-08T12:47:12Z</time>
      </trkpt>
      <trkpt lat="49.76489" lon="3.98758">
        <ele>194.32</ele>
        <time>2021-08-08T12:47:23Z</time>
      </trkpt>
      <trkpt lat="49.76463" lon="3.98753">
        <ele>194.8</ele>
        <time>2021-08-08T12:47:32Z</time>
      </trkpt>
      <trkpt lat="49.76445" lon="3.9875">
        <ele>193.36</ele>
        <time>2021-08-08T12:47:37Z</time>
      </trkpt>
      <trkpt lat="49.76417" lon="3.98745">
        <ele>192.4</ele>
        <time>2021-08-08T12:47:45Z</time>
      </trkpt>
      <trkpt lat="49.76394" lon="3.98739">
        <ele>190.96</ele>
        <time>2021-08-08T12:47:50Z</time>
      </trkpt>
      <trkpt lat="49.76358" lon="3.98733">
        <ele>188.08</ele>
        <time>2021-08-08T12:47:56Z</time>
      </trkpt>
      <trkpt lat="49.76307" lon="3.98723">
        <ele>187.59</ele>
        <time>2021-08-08T12:48:04Z</time>
      </trkpt>
      <trkpt lat="49.76255" lon="3.98714">
        <ele>187.11</ele>
        <time>2021-08-08T12:48:12Z</time>
      </trkpt>
      <trkpt lat="49.76231" lon="3.9871">
        <ele>188.56</ele>
        <time>2021-08-08T12:48:16Z</time>
      </trkpt>
      <trkpt lat="49.76203" lon="3.98705">
        <ele>187.11</ele>
        <time>2021-08-08T12:48:20Z</time>
      </trkpt>
      <trkpt lat="49.76184" lon="3.98699">
        <ele>187.11</ele>
        <time>2021-08-08T12:48:23Z</time>
      </trkpt>
      <trkpt lat="49.76178" lon="3.98698">
        <ele>186.63</ele>
        <time>2021-08-08T12:48:24Z</time>
      </trkpt>
      <trkpt lat="49.76171" lon="3.98699">
        <ele>186.63</ele>
        <time>2021-08-08T12:48:25Z</time>
      </trkpt>
      <trkpt lat="49.76167" lon="3.98701">
        <ele>186.63</ele>
        <time>2021-08-08T12:48:26Z</time>
      </trkpt>
      <trkpt lat="49.76161" lon="3.98704">
        <ele>186.63</ele>
        <time>2021-08-08T12:48:27Z</time>
      </trkpt>
      <trkpt lat="49.76155" lon="3.98707">
        <ele>186.63</ele>
        <time>2021-08-08T12:48:28Z</time>
      </trkpt>
      <trkpt lat="49.76107" lon="3.98744">
        <ele>186.63</ele>
        <time>2021-08-08T12:48:37Z</time>
      </trkpt>
      <trkpt lat="49.76077" lon="3.98769">
        <ele>188.08</ele>
        <time>2021-08-08T12:48:44Z</time>
      </trkpt>
      <trkpt lat="49.76046" lon="3.98798">
        <ele>188.08</ele>
        <time>2021-08-08T12:48:53Z</time>
      </trkpt>
      <trkpt lat="49.76026" lon="3.98821">
        <ele>189.52</ele>
        <time>2021-08-08T12:49:00Z</time>
      </trkpt>
      <trkpt lat="49.76006" lon="3.98856">
        <ele>190</ele>
        <time>2021-08-08T12:49:10Z</time>
      </trkpt>
      <trkpt lat="49.75986" lon="3.9889">
        <ele>191.44</ele>
        <time>2021-08-08T12:49:21Z</time>
      </trkpt>
      <trkpt lat="49.75971" lon="3.98913">
        <ele>192.88</ele>
        <time>2021-08-08T12:49:30Z</time>
      </trkpt>
      <trkpt lat="49.75951" lon="3.98935">
        <ele>194.8</ele>
        <time>2021-08-08T12:49:40Z</time>
      </trkpt>
      <trkpt lat="49.75935" lon="3.98952">
        <ele>195.77</ele>
        <time>2021-08-08T12:49:48Z</time>
      </trkpt>
      <trkpt lat="49.75912" lon="3.98971">
        <ele>197.21</ele>
        <time>2021-08-08T12:49:58Z</time>
      </trkpt>
      <trkpt lat="49.75882" lon="3.98992">
        <ele>196.73</ele>
        <time>2021-08-08T12:50:09Z</time>
      </trkpt>
      <trkpt lat="49.75862" lon="3.99006">
        <ele>195.77</ele>
        <time>2021-08-08T12:50:15Z</time>
      </trkpt>
      <trkpt lat="49.75826" lon="3.99032">
        <ele>193.84</ele>
        <time>2021-08-08T12:50:24Z</time>
      </trkpt>
      <trkpt lat="49.75804" lon="3.99048">
        <ele>193.36</ele>
        <time>2021-08-08T12:50:29Z</time>
      </trkpt>
      <trkpt lat="49.75799" lon="3.99051">
        <ele>192.88</ele>
        <time>2021-08-08T12:50:30Z</time>
      </trkpt>
      <trkpt lat="49.75756" lon="3.99082">
        <ele>190.48</ele>
        <time>2021-08-08T12:50:38Z</time>
      </trkpt>
      <trkpt lat="49.75715" lon="3.99113">
        <ele>187.11</ele>
        <time>2021-08-08T12:50:45Z</time>
      </trkpt>
      <trkpt lat="49.7571" lon="3.99117">
        <ele>187.11</ele>
        <time>2021-08-08T12:50:46Z</time>
      </trkpt>
      <trkpt lat="49.75666" lon="3.99154">
        <ele>183.75</ele>
        <time>2021-08-08T12:50:54Z</time>
      </trkpt>
      <trkpt lat="49.75661" lon="3.99159">
        <ele>183.75</ele>
        <time>2021-08-08T12:50:55Z</time>
      </trkpt>
      <trkpt lat="49.75626" lon="3.99188">
        <ele>182.31</ele>
        <time>2021-08-08T12:51:02Z</time>
      </trkpt>
      <trkpt lat="49.75607" lon="3.99204">
        <ele>181.83</ele>
        <time>2021-08-08T12:51:06Z</time>
      </trkpt>
      <trkpt lat="49.75602" lon="3.99208">
        <ele>181.83</ele>
        <time>2021-08-08T12:51:07Z</time>
      </trkpt>
      <trkpt lat="49.75575" lon="3.99232">
        <ele>181.83</ele>
        <time>2021-08-08T12:51:14Z</time>
      </trkpt>
      <trkpt lat="49.75567" lon="3.99238">
        <ele>181.83</ele>
        <time>2021-08-08T12:51:16Z</time>
      </trkpt>
      <trkpt lat="49.75564" lon="3.99241">
        <ele>181.83</ele>
        <time>2021-08-08T12:51:17Z</time>
      </trkpt>
      <trkpt lat="49.75542" lon="3.9926">
        <ele>181.83</ele>
        <time>2021-08-08T12:51:23Z</time>
      </trkpt>
      <trkpt lat="49.75539" lon="3.99263">
        <ele>181.83</ele>
        <time>2021-08-08T12:51:24Z</time>
      </trkpt>
      <trkpt lat="49.75535" lon="3.99267">
        <ele>181.35</ele>
        <time>2021-08-08T12:51:25Z</time>
      </trkpt>
      <trkpt lat="49.75516" lon="3.99301">
        <ele>181.35</ele>
        <time>2021-08-08T12:51:33Z</time>
      </trkpt>
      <trkpt lat="49.75511" lon="3.99316">
        <ele>181.35</ele>
        <time>2021-08-08T12:51:36Z</time>
      </trkpt>
      <trkpt lat="49.75509" lon="3.99319">
        <ele>181.35</ele>
        <time>2021-08-08T12:51:37Z</time>
      </trkpt>
      <trkpt lat="49.75507" lon="3.99325">
        <ele>181.35</ele>
        <time>2021-08-08T12:51:38Z</time>
      </trkpt>
      <trkpt lat="49.75501" lon="3.99356">
        <ele>181.35</ele>
        <time>2021-08-08T12:51:43Z</time>
      </trkpt>
      <trkpt lat="49.75486" lon="3.99435">
        <ele>182.79</ele>
        <time>2021-08-08T12:51:54Z</time>
      </trkpt>
      <trkpt lat="49.75485" lon="3.99443">
        <ele>182.79</ele>
        <time>2021-08-08T12:51:55Z</time>
      </trkpt>
      <trkpt lat="49.75473" lon="3.99494">
        <ele>182.79</ele>
        <time>2021-08-08T12:52:03Z</time>
      </trkpt>
      <trkpt lat="49.7547" lon="3.99495">
        <ele>182.79</ele>
        <time>2021-08-08T12:52:04Z</time>
      </trkpt>
      <trkpt lat="49.75466" lon="3.99495">
        <ele>182.79</ele>
        <time>2021-08-08T12:52:05Z</time>
      </trkpt>
      <trkpt lat="49.75459" lon="3.99493">
        <ele>180.38</ele>
        <time>2021-08-08T12:52:07Z</time>
      </trkpt>
      <trkpt lat="49.75437" lon="3.9949">
        <ele>180.38</ele>
        <time>2021-08-08T12:52:15Z</time>
      </trkpt>
      <trkpt lat="49.75426" lon="3.99487">
        <ele>181.35</ele>
        <time>2021-08-08T12:52:20Z</time>
      </trkpt>
      <trkpt lat="49.75409" lon="3.99481">
        <ele>182.31</ele>
        <time>2021-08-08T12:52:27Z</time>
      </trkpt>
      <trkpt lat="49.75389" lon="3.99476">
        <ele>182.31</ele>
        <time>2021-08-08T12:52:35Z</time>
      </trkpt>
      <trkpt lat="49.75364" lon="3.99469">
        <ele>182.79</ele>
        <time>2021-08-08T12:52:45Z</time>
      </trkpt>
      <trkpt lat="49.75348" lon="3.99466">
        <ele>183.75</ele>
        <time>2021-08-08T12:52:51Z</time>
      </trkpt>
      <trkpt lat="49.7533" lon="3.9946">
        <ele>183.75</ele>
        <time>2021-08-08T12:52:59Z</time>
      </trkpt>
      <trkpt lat="49.7531" lon="3.99452">
        <ele>183.75</ele>
        <time>2021-08-08T12:53:07Z</time>
      </trkpt>
      <trkpt lat="49.75297" lon="3.99447">
        <ele>184.23</ele>
        <time>2021-08-08T12:53:12Z</time>
      </trkpt>
      <trkpt lat="49.75276" lon="3.99439">
        <ele>184.23</ele>
        <time>2021-08-08T12:53:21Z</time>
      </trkpt>
      <trkpt lat="49.75255" lon="3.99433">
        <ele>185.19</ele>
        <time>2021-08-08T12:53:30Z</time>
      </trkpt>
      <trkpt lat="49.75236" lon="3.99431">
        <ele>185.19</ele>
        <time>2021-08-08T12:53:39Z</time>
      </trkpt>
      <trkpt lat="49.75227" lon="3.9943">
        <ele>186.15</ele>
        <time>2021-08-08T12:53:43Z</time>
      </trkpt>
      <trkpt lat="49.75225" lon="3.9943">
        <ele>186.15</ele>
        <time>2021-08-08T12:53:44Z</time>
      </trkpt>
      <trkpt lat="49.75223" lon="3.9943">
        <ele>186.15</ele>
        <time>2021-08-08T12:53:45Z</time>
      </trkpt>
      <trkpt lat="49.75203" lon="3.99428">
        <ele>186.15</ele>
        <time>2021-08-08T12:53:54Z</time>
      </trkpt>
      <trkpt lat="49.75176" lon="3.99427">
        <ele>188.08</ele>
        <time>2021-08-08T12:54:06Z</time>
      </trkpt>
      <trkpt lat="49.7515" lon="3.9943">
        <ele>189.04</ele>
        <time>2021-08-08T12:54:17Z</time>
      </trkpt>
      <trkpt lat="49.75131" lon="3.99434">
        <ele>189.52</ele>
        <time>2021-08-08T12:54:25Z</time>
      </trkpt>
      <trkpt lat="49.75104" lon="3.99438">
        <ele>190.96</ele>
        <time>2021-08-08T12:54:36Z</time>
      </trkpt>
      <trkpt lat="49.75075" lon="3.99438">
        <ele>190.96</ele>
        <time>2021-08-08T12:54:48Z</time>
      </trkpt>
      <trkpt lat="49.75057" lon="3.99435">
        <ele>191.92</ele>
        <time>2021-08-08T12:54:56Z</time>
      </trkpt>
      <trkpt lat="49.75038" lon="3.99423">
        <ele>192.88</ele>
        <time>2021-08-08T12:55:05Z</time>
      </trkpt>
      <trkpt lat="49.75022" lon="3.99411">
        <ele>193.36</ele>
        <time>2021-08-08T12:55:13Z</time>
      </trkpt>
      <trkpt lat="49.75008" lon="3.99397">
        <ele>193.84</ele>
        <time>2021-08-08T12:55:21Z</time>
      </trkpt>
      <trkpt lat="49.74989" lon="3.99377">
        <ele>192.4</ele>
        <time>2021-08-08T12:55:28Z</time>
      </trkpt>
      <trkpt lat="49.74985" lon="3.99372">
        <ele>190.96</ele>
        <time>2021-08-08T12:55:29Z</time>
      </trkpt>
      <trkpt lat="49.74981" lon="3.99367">
        <ele>190.48</ele>
        <time>2021-08-08T12:55:30Z</time>
      </trkpt>
      <trkpt lat="49.74977" lon="3.99363">
        <ele>190.48</ele>
        <time>2021-08-08T12:55:31Z</time>
      </trkpt>
      <trkpt lat="49.74941" lon="3.99323">
        <ele>188.08</ele>
        <time>2021-08-08T12:55:40Z</time>
      </trkpt>
      <trkpt lat="49.74937" lon="3.9932">
        <ele>187.59</ele>
        <time>2021-08-08T12:55:41Z</time>
      </trkpt>
      <trkpt lat="49.74933" lon="3.99317">
        <ele>187.59</ele>
        <time>2021-08-08T12:55:42Z</time>
      </trkpt>
      <trkpt lat="49.7493" lon="3.99315">
        <ele>187.59</ele>
        <time>2021-08-08T12:55:43Z</time>
      </trkpt>
      <trkpt lat="49.74926" lon="3.99312">
        <ele>186.15</ele>
        <time>2021-08-08T12:55:44Z</time>
      </trkpt>
      <trkpt lat="49.74922" lon="3.99309">
        <ele>186.15</ele>
        <time>2021-08-08T12:55:45Z</time>
      </trkpt>
      <trkpt lat="49.74901" lon="3.99292">
        <ele>185.67</ele>
        <time>2021-08-08T12:55:51Z</time>
      </trkpt>
      <trkpt lat="49.74897" lon="3.9929">
        <ele>185.67</ele>
        <time>2021-08-08T12:55:52Z</time>
      </trkpt>
      <trkpt lat="49.74893" lon="3.99288">
        <ele>185.19</ele>
        <time>2021-08-08T12:55:53Z</time>
      </trkpt>
      <trkpt lat="49.74862" lon="3.99262">
        <ele>185.67</ele>
        <time>2021-08-08T12:56:02Z</time>
      </trkpt>
      <trkpt lat="49.74855" lon="3.99257">
        <ele>185.19</ele>
        <time>2021-08-08T12:56:04Z</time>
      </trkpt>
      <trkpt lat="49.74825" lon="3.99234">
        <ele>185.19</ele>
        <time>2021-08-08T12:56:13Z</time>
      </trkpt>
      <trkpt lat="49.74809" lon="3.99206">
        <ele>185.67</ele>
        <time>2021-08-08T12:56:20Z</time>
      </trkpt>
      <trkpt lat="49.74802" lon="3.99194">
        <ele>184.23</ele>
        <time>2021-08-08T12:56:23Z</time>
      </trkpt>
      <trkpt lat="49.74792" lon="3.99178">
        <ele>185.67</ele>
        <time>2021-08-08T12:56:27Z</time>
      </trkpt>
      <trkpt lat="49.7478" lon="3.99163">
        <ele>185.67</ele>
        <time>2021-08-08T12:56:32Z</time>
      </trkpt>
      <trkpt lat="49.74766" lon="3.9914">
        <ele>185.67</ele>
        <time>2021-08-08T12:56:38Z</time>
      </trkpt>
      <trkpt lat="49.74746" lon="3.99107">
        <ele>186.15</ele>
        <time>2021-08-08T12:56:46Z</time>
      </trkpt>
      <trkpt lat="49.74721" lon="3.99065">
        <ele>185.67</ele>
        <time>2021-08-08T12:56:57Z</time>
      </trkpt>
      <trkpt lat="49.74697" lon="3.99023">
        <ele>187.59</ele>
        <time>2021-08-08T12:57:08Z</time>
      </trkpt>
      <trkpt lat="49.74674" lon="3.98985">
        <ele>189.04</ele>
        <time>2021-08-08T12:57:19Z</time>
      </trkpt>
      <trkpt lat="49.74657" lon="3.98955">
        <ele>191.44</ele>
        <time>2021-08-08T12:57:29Z</time>
      </trkpt>
      <trkpt lat="49.74641" lon="3.9893">
        <ele>192.88</ele>
        <time>2021-08-08T12:57:39Z</time>
      </trkpt>
      <trkpt lat="49.74626" lon="3.98903">
        <ele>192.88</ele>
        <time>2021-08-08T12:57:49Z</time>
      </trkpt>
      <trkpt lat="49.74614" lon="3.98883">
        <ele>193.36</ele>
        <time>2021-08-08T12:57:57Z</time>
      </trkpt>
      <trkpt lat="49.74613" lon="3.98881">
        <ele>193.84</ele>
        <time>2021-08-08T12:57:58Z</time>
      </trkpt>
      <trkpt lat="49.74612" lon="3.98878">
        <ele>193.84</ele>
        <time>2021-08-08T12:57:59Z</time>
      </trkpt>
      <trkpt lat="49.74611" lon="3.98876">
        <ele>193.84</ele>
        <time>2021-08-08T12:58:00Z</time>
      </trkpt>
      <trkpt lat="49.7461" lon="3.98874">
        <ele>193.84</ele>
        <time>2021-08-08T12:58:01Z</time>
      </trkpt>
      <trkpt lat="49.7461" lon="3.98872">
        <ele>193.84</ele>
        <time>2021-08-08T12:58:02Z</time>
      </trkpt>
      <trkpt lat="49.74609" lon="3.9887">
        <ele>194.32</ele>
        <time>2021-08-08T12:58:07Z</time>
      </trkpt>
      <trkpt lat="49.74609" lon="3.9887">
        <ele>193.36</ele>
        <time>2021-08-08T12:58:22Z</time>
      </trkpt>
      <trkpt lat="49.7461" lon="3.9887">
        <ele>193.36</ele>
        <time>2021-08-08T12:58:49Z</time>
      </trkpt>
      <trkpt lat="49.7461" lon="3.98871">
        <ele>192.88</ele>
        <time>2021-08-08T12:59:04Z</time>
      </trkpt>
      <trkpt lat="49.7461" lon="3.98872">
        <ele>193.84</ele>
        <time>2021-08-08T12:59:22Z</time>
      </trkpt>
      <trkpt lat="49.7461" lon="3.98872">
        <ele>193.84</ele>
        <time>2021-08-08T12:59:42Z</time>
      </trkpt>
      <trkpt lat="49.7461" lon="3.98871">
        <ele>192.4</ele>
        <time>2021-08-08T12:59:51Z</time>
      </trkpt>
      <trkpt lat="49.74609" lon="3.98871">
        <ele>192.4</ele>
        <time>2021-08-08T13:00:06Z</time>
      </trkpt>
      <trkpt lat="49.74609" lon="3.98871">
        <ele>193.84</ele>
        <time>2021-08-08T13:00:17Z</time>
      </trkpt>
      <trkpt lat="49.74609" lon="3.98871">
        <ele>193.84</ele>
        <time>2021-08-08T13:00:31Z</time>
      </trkpt>
      <trkpt lat="49.7461" lon="3.98871">
        <ele>192.88</ele>
        <time>2021-08-08T13:00:48Z</time>
      </trkpt>
      <trkpt lat="49.7461" lon="3.98871">
        <ele>192.88</ele>
        <time>2021-08-08T13:01:04Z</time>
      </trkpt>
      <trkpt lat="49.7461" lon="3.9887">
        <ele>193.84</ele>
        <time>2021-08-08T13:01:10Z</time>
      </trkpt>
      <trkpt lat="49.74609" lon="3.98871">
        <ele>192.88</ele>
        <time>2021-08-08T13:01:19Z</time>
      </trkpt>
      <trkpt lat="49.7461" lon="3.9887">
        <ele>192.4</ele>
        <time>2021-08-08T13:01:32Z</time>
      </trkpt>
      <trkpt lat="49.74609" lon="3.9887">
        <ele>192.4</ele>
        <time>2021-08-08T13:01:36Z</time>
      </trkpt>
      <trkpt lat="49.74609" lon="3.9887">
        <ele>191.44</ele>
        <time>2021-08-08T13:01:42Z</time>
      </trkpt>
      <trkpt lat="49.7461" lon="3.98871">
        <ele>192.88</ele>
        <time>2021-08-08T13:02:02Z</time>
      </trkpt>
      <trkpt lat="49.7461" lon="3.98871">
        <ele>193.36</ele>
        <time>2021-08-08T13:02:14Z</time>
      </trkpt>
      <trkpt lat="49.74609" lon="3.98871">
        <ele>193.36</ele>
        <time>2021-08-08T13:02:30Z</time>
      </trkpt>
      <trkpt lat="49.7461" lon="3.98871">
        <ele>194.32</ele>
        <time>2021-08-08T13:02:41Z</time>
      </trkpt>
      <trkpt lat="49.7461" lon="3.98871">
        <ele>192.88</ele>
        <time>2021-08-08T13:02:51Z</time>
      </trkpt>
      <trkpt lat="49.7461" lon="3.98871">
        <ele>192.88</ele>
        <time>2021-08-08T13:03:04Z</time>
      </trkpt>
      <trkpt lat="49.74609" lon="3.98872">
        <ele>192.88</ele>
        <time>2021-08-08T13:03:18Z</time>
      </trkpt>
      <trkpt lat="49.7461" lon="3.98871">
        <ele>192.88</ele>
        <time>2021-08-08T13:03:29Z</time>
      </trkpt>
      <trkpt lat="49.74609" lon="3.98871">
        <ele>192.88</ele>
        <time>2021-08-08T13:03:41Z</time>
      </trkpt>
      <trkpt lat="49.74608" lon="3.98871">
        <ele>192.88</ele>
        <time>2021-08-08T13:03:50Z</time>
      </trkpt>
      <trkpt lat="49.74609" lon="3.98871">
        <ele>192.88</ele>
        <time>2021-08-08T13:04:01Z</time>
      </trkpt>
      <trkpt lat="49.74608" lon="3.98871">
        <ele>192.88</ele>
        <time>2021-08-08T13:04:17Z</time>
      </trkpt>
      <trkpt lat="49.74609" lon="3.98871">
        <ele>192.88</ele>
        <time>2021-08-08T13:04:33Z</time>
      </trkpt>
      <trkpt lat="49.74609" lon="3.98871">
        <ele>192.88</ele>
        <time>2021-08-08T13:04:46Z</time>
      </trkpt>
      <trkpt lat="49.7461" lon="3.98871">
        <ele>194.32</ele>
        <time>2021-08-08T13:04:55Z</time>
      </trkpt>
      <trkpt lat="49.74609" lon="3.98871">
        <ele>194.8</ele>
        <time>2021-08-08T13:05:10Z</time>
      </trkpt>
      <trkpt lat="49.74609" lon="3.98871">
        <ele>194.32</ele>
        <time>2021-08-08T13:05:28Z</time>
      </trkpt>
      <trkpt lat="49.74609" lon="3.98871">
        <ele>192.88</ele>
        <time>2021-08-08T13:05:47Z</time>
      </trkpt>
      <trkpt lat="49.7461" lon="3.9887">
        <ele>191.92</ele>
        <time>2021-08-08T13:06:06Z</time>
      </trkpt>
      <trkpt lat="49.7461" lon="3.98871">
        <ele>193.36</ele>
        <time>2021-08-08T13:06:15Z</time>
      </trkpt>
      <trkpt lat="49.74608" lon="3.98873">
        <ele>193.84</ele>
        <time>2021-08-08T13:06:20Z</time>
      </trkpt>
      <trkpt lat="49.74609" lon="3.98876">
        <ele>193.84</ele>
        <time>2021-08-08T13:06:22Z</time>
      </trkpt>
      <trkpt lat="49.74612" lon="3.98878">
        <ele>193.84</ele>
        <time>2021-08-08T13:06:29Z</time>
      </trkpt>
      <trkpt lat="49.74613" lon="3.98879">
        <ele>192.4</ele>
        <time>2021-08-08T13:06:37Z</time>
      </trkpt>
      <trkpt lat="49.74611" lon="3.98879">
        <ele>192.4</ele>
        <time>2021-08-08T13:06:51Z</time>
      </trkpt>
      <trkpt lat="49.74611" lon="3.98879">
        <ele>192.4</ele>
        <time>2021-08-08T13:07:12Z</time>
      </trkpt>
      <trkpt lat="49.74611" lon="3.98877">
        <ele>192.4</ele>
        <time>2021-08-08T13:07:24Z</time>
      </trkpt>
      <trkpt lat="49.74611" lon="3.98876">
        <ele>192.4</ele>
        <time>2021-08-08T13:07:34Z</time>
      </trkpt>
      <trkpt lat="49.74612" lon="3.98876">
        <ele>192.4</ele>
        <time>2021-08-08T13:07:52Z</time>
      </trkpt>
      <trkpt lat="49.74612" lon="3.98876">
        <ele>192.88</ele>
        <time>2021-08-08T13:08:00Z</time>
      </trkpt>
      <trkpt lat="49.74612" lon="3.98876">
        <ele>192.88</ele>
        <time>2021-08-08T13:08:20Z</time>
      </trkpt>
      <trkpt lat="49.74611" lon="3.98875">
        <ele>192.88</ele>
        <time>2021-08-08T13:08:32Z</time>
      </trkpt>
      <trkpt lat="49.7461" lon="3.98873">
        <ele>192.88</ele>
        <time>2021-08-08T13:08:34Z</time>
      </trkpt>
      <trkpt lat="49.746" lon="3.98856">
        <ele>192.88</ele>
        <time>2021-08-08T13:08:41Z</time>
      </trkpt>
      <trkpt lat="49.74582" lon="3.98827">
        <ele>192.88</ele>
        <time>2021-08-08T13:08:50Z</time>
      </trkpt>
      <trkpt lat="49.74572" lon="3.98806">
        <ele>191.92</ele>
        <time>2021-08-08T13:08:56Z</time>
      </trkpt>
      <trkpt lat="49.74555" lon="3.98773">
        <ele>191.92</ele>
        <time>2021-08-08T13:09:04Z</time>
      </trkpt>
      <trkpt lat="49.74541" lon="3.98734">
        <ele>190.48</ele>
        <time>2021-08-08T13:09:12Z</time>
      </trkpt>
      <trkpt lat="49.74532" lon="3.9869">
        <ele>190</ele>
        <time>2021-08-08T13:09:20Z</time>
      </trkpt>
      <trkpt lat="49.74522" lon="3.98631">
        <ele>189.04</ele>
        <time>2021-08-08T13:09:30Z</time>
      </trkpt>
      <trkpt lat="49.74508" lon="3.98588">
        <ele>187.11</ele>
        <time>2021-08-08T13:09:38Z</time>
      </trkpt>
      <trkpt lat="49.74505" lon="3.98588">
        <ele>187.11</ele>
        <time>2021-08-08T13:09:39Z</time>
      </trkpt>
      <trkpt lat="49.74502" lon="3.9859">
        <ele>187.11</ele>
        <time>2021-08-08T13:09:40Z</time>
      </trkpt>
      <trkpt lat="49.745" lon="3.98593">
        <ele>187.11</ele>
        <time>2021-08-08T13:09:41Z</time>
      </trkpt>
      <trkpt lat="49.74499" lon="3.98598">
        <ele>187.11</ele>
        <time>2021-08-08T13:09:42Z</time>
      </trkpt>
      <trkpt lat="49.74482" lon="3.98628">
        <ele>184.23</ele>
        <time>2021-08-08T13:09:48Z</time>
      </trkpt>
      <trkpt lat="49.74455" lon="3.98668">
        <ele>183.27</ele>
        <time>2021-08-08T13:09:56Z</time>
      </trkpt>
      <trkpt lat="49.74418" lon="3.98707">
        <ele>181.83</ele>
        <time>2021-08-08T13:10:06Z</time>
      </trkpt>
      <trkpt lat="49.74387" lon="3.98746">
        <ele>180.87</ele>
        <time>2021-08-08T13:10:15Z</time>
      </trkpt>
      <trkpt lat="49.7436" lon="3.988">
        <ele>178.94</ele>
        <time>2021-08-08T13:10:24Z</time>
      </trkpt>
      <trkpt lat="49.74336" lon="3.98849">
        <ele>175.58</ele>
        <time>2021-08-08T13:10:31Z</time>
      </trkpt>
      <trkpt lat="49.74332" lon="3.98857">
        <ele>175.58</ele>
        <time>2021-08-08T13:10:32Z</time>
      </trkpt>
      <trkpt lat="49.74311" lon="3.98892">
        <ele>173.66</ele>
        <time>2021-08-08T13:10:37Z</time>
      </trkpt>
      <trkpt lat="49.74304" lon="3.98906">
        <ele>172.69</ele>
        <time>2021-08-08T13:10:39Z</time>
      </trkpt>
      <trkpt lat="49.743" lon="3.98913">
        <ele>172.69</ele>
        <time>2021-08-08T13:10:40Z</time>
      </trkpt>
      <trkpt lat="49.74281" lon="3.98948">
        <ele>169.81</ele>
        <time>2021-08-08T13:10:45Z</time>
      </trkpt>
      <trkpt lat="49.74267" lon="3.98973">
        <ele>168.37</ele>
        <time>2021-08-08T13:10:48Z</time>
      </trkpt>
      <trkpt lat="49.74254" lon="3.98998">
        <ele>166.45</ele>
        <time>2021-08-08T13:10:51Z</time>
      </trkpt>
      <trkpt lat="49.74235" lon="3.99035">
        <ele>165</ele>
        <time>2021-08-08T13:10:55Z</time>
      </trkpt>
      <trkpt lat="49.74222" lon="3.99064">
        <ele>163.08</ele>
        <time>2021-08-08T13:10:58Z</time>
      </trkpt>
      <trkpt lat="49.74213" lon="3.9908">
        <ele>163.08</ele>
        <time>2021-08-08T13:11:00Z</time>
      </trkpt>
      <trkpt lat="49.74186" lon="3.99125">
        <ele>163.08</ele>
        <time>2021-08-08T13:11:07Z</time>
      </trkpt>
      <trkpt lat="49.74177" lon="3.9914">
        <ele>163.08</ele>
        <time>2021-08-08T13:11:10Z</time>
      </trkpt>
      <trkpt lat="49.74174" lon="3.99147">
        <ele>163.08</ele>
        <time>2021-08-08T13:11:11Z</time>
      </trkpt>
      <trkpt lat="49.74162" lon="3.99179">
        <ele>159.72</ele>
        <time>2021-08-08T13:11:15Z</time>
      </trkpt>
      <trkpt lat="49.74155" lon="3.99202">
        <ele>159.24</ele>
        <time>2021-08-08T13:11:17Z</time>
      </trkpt>
      <trkpt lat="49.74139" lon="3.99244">
        <ele>157.31</ele>
        <time>2021-08-08T13:11:22Z</time>
      </trkpt>
      <trkpt lat="49.74136" lon="3.99249">
        <ele>157.31</ele>
        <time>2021-08-08T13:11:23Z</time>
      </trkpt>
      <trkpt lat="49.74133" lon="3.99252">
        <ele>156.83</ele>
        <time>2021-08-08T13:11:24Z</time>
      </trkpt>
      <trkpt lat="49.74131" lon="3.99254">
        <ele>156.83</ele>
        <time>2021-08-08T13:11:25Z</time>
      </trkpt>
      <trkpt lat="49.74127" lon="3.99254">
        <ele>156.83</ele>
        <time>2021-08-08T13:11:26Z</time>
      </trkpt>
      <trkpt lat="49.74124" lon="3.99252">
        <ele>156.83</ele>
        <time>2021-08-08T13:11:27Z</time>
      </trkpt>
      <trkpt lat="49.7412" lon="3.99249">
        <ele>156.83</ele>
        <time>2021-08-08T13:11:28Z</time>
      </trkpt>
      <trkpt lat="49.74115" lon="3.99247">
        <ele>156.83</ele>
        <time>2021-08-08T13:11:29Z</time>
      </trkpt>
      <trkpt lat="49.7408" lon="3.99236">
        <ele>153.95</ele>
        <time>2021-08-08T13:11:35Z</time>
      </trkpt>
      <trkpt lat="49.74043" lon="3.9922">
        <ele>151.54</ele>
        <time>2021-08-08T13:11:42Z</time>
      </trkpt>
      <trkpt lat="49.74035" lon="3.99212">
        <ele>151.06</ele>
        <time>2021-08-08T13:11:44Z</time>
      </trkpt>
      <trkpt lat="49.74016" lon="3.992">
        <ele>149.62</ele>
        <time>2021-08-08T13:11:48Z</time>
      </trkpt>
      <trkpt lat="49.74006" lon="3.9919">
        <ele>148.66</ele>
        <time>2021-08-08T13:11:50Z</time>
      </trkpt>
      <trkpt lat="49.73998" lon="3.99182">
        <ele>147.7</ele>
        <time>2021-08-08T13:11:52Z</time>
      </trkpt>
      <trkpt lat="49.73994" lon="3.99176">
        <ele>146.74</ele>
        <time>2021-08-08T13:11:53Z</time>
      </trkpt>
      <trkpt lat="49.73988" lon="3.99168">
        <ele>146.26</ele>
        <time>2021-08-08T13:11:55Z</time>
      </trkpt>
      <trkpt lat="49.73986" lon="3.99165">
        <ele>145.78</ele>
        <time>2021-08-08T13:11:56Z</time>
      </trkpt>
      <trkpt lat="49.73986" lon="3.99161">
        <ele>145.78</ele>
        <time>2021-08-08T13:11:57Z</time>
      </trkpt>
      <trkpt lat="49.73987" lon="3.9916">
        <ele>145.78</ele>
        <time>2021-08-08T13:11:58Z</time>
      </trkpt>
      <trkpt lat="49.73987" lon="3.99156">
        <ele>148.18</ele>
        <time>2021-08-08T13:12:04Z</time>
      </trkpt>
      <trkpt lat="49.73988" lon="3.99159">
        <ele>147.22</ele>
        <time>2021-08-08T13:12:10Z</time>
      </trkpt>
      <trkpt lat="49.73989" lon="3.9916">
        <ele>147.22</ele>
        <time>2021-08-08T13:12:18Z</time>
      </trkpt>
      <trkpt lat="49.73988" lon="3.99161">
        <ele>147.22</ele>
        <time>2021-08-08T13:12:43Z</time>
      </trkpt>
      <trkpt lat="49.73986" lon="3.99161">
        <ele>147.22</ele>
        <time>2021-08-08T13:13:07Z</time>
      </trkpt>
      <trkpt lat="49.73985" lon="3.99163">
        <ele>147.22</ele>
        <time>2021-08-08T13:13:25Z</time>
      </trkpt>
      <trkpt lat="49.73982" lon="3.99161">
        <ele>147.7</ele>
        <time>2021-08-08T13:13:44Z</time>
      </trkpt>
      <trkpt lat="49.73979" lon="3.99163">
        <ele>147.7</ele>
        <time>2021-08-08T13:13:58Z</time>
      </trkpt>
      <trkpt lat="49.73978" lon="3.99164">
        <ele>147.22</ele>
        <time>2021-08-08T13:14:14Z</time>
      </trkpt>
      <trkpt lat="49.73978" lon="3.99164">
        <ele>147.22</ele>
        <time>2021-08-08T13:14:32Z</time>
      </trkpt>
      <trkpt lat="49.73978" lon="3.99164">
        <ele>147.22</ele>
        <time>2021-08-08T13:14:49Z</time>
      </trkpt>
      <trkpt lat="49.73979" lon="3.99165">
        <ele>147.7</ele>
        <time>2021-08-08T13:15:09Z</time>
      </trkpt>
      <trkpt lat="49.73979" lon="3.99167">
        <ele>147.22</ele>
        <time>2021-08-08T13:15:29Z</time>
      </trkpt>
      <trkpt lat="49.73979" lon="3.99167">
        <ele>148.66</ele>
        <time>2021-08-08T13:15:40Z</time>
      </trkpt>
      <trkpt lat="49.73978" lon="3.99168">
        <ele>148.66</ele>
        <time>2021-08-08T13:15:54Z</time>
      </trkpt>
      <trkpt lat="49.73976" lon="3.9917">
        <ele>148.66</ele>
        <time>2021-08-08T13:16:06Z</time>
      </trkpt>
      <trkpt lat="49.73975" lon="3.9917">
        <ele>148.66</ele>
        <time>2021-08-08T13:16:19Z</time>
      </trkpt>
      <trkpt lat="49.73973" lon="3.9917">
        <ele>149.14</ele>
        <time>2021-08-08T13:16:30Z</time>
      </trkpt>
      <trkpt lat="49.73975" lon="3.99168">
        <ele>149.14</ele>
        <time>2021-08-08T13:16:35Z</time>
      </trkpt>
      <trkpt lat="49.73976" lon="3.99168">
        <ele>149.14</ele>
        <time>2021-08-08T13:16:39Z</time>
      </trkpt>
      <trkpt lat="49.73976" lon="3.99167">
        <ele>149.14</ele>
        <time>2021-08-08T13:16:48Z</time>
      </trkpt>
      <trkpt lat="49.73978" lon="3.99167">
        <ele>149.14</ele>
        <time>2021-08-08T13:17:01Z</time>
      </trkpt>
      <trkpt lat="49.73979" lon="3.99167">
        <ele>149.62</ele>
        <time>2021-08-08T13:17:07Z</time>
      </trkpt>
      <trkpt lat="49.73983" lon="3.99168">
        <ele>148.18</ele>
        <time>2021-08-08T13:17:16Z</time>
      </trkpt>
      <trkpt lat="49.73986" lon="3.99166">
        <ele>148.18</ele>
        <time>2021-08-08T13:17:25Z</time>
      </trkpt>
      <trkpt lat="49.73988" lon="3.99166">
        <ele>148.18</ele>
        <time>2021-08-08T13:17:38Z</time>
      </trkpt>
      <trkpt lat="49.73988" lon="3.99166">
        <ele>150.1</ele>
        <time>2021-08-08T13:17:55Z</time>
      </trkpt>
      <trkpt lat="49.73989" lon="3.99165">
        <ele>148.66</ele>
        <time>2021-08-08T13:18:11Z</time>
      </trkpt>
      <trkpt lat="49.7399" lon="3.99165">
        <ele>148.66</ele>
        <time>2021-08-08T13:18:21Z</time>
      </trkpt>
      <trkpt lat="49.73989" lon="3.99166">
        <ele>148.66</ele>
        <time>2021-08-08T13:18:33Z</time>
      </trkpt>
      <trkpt lat="49.7399" lon="3.99166">
        <ele>149.62</ele>
        <time>2021-08-08T13:18:49Z</time>
      </trkpt>
      <trkpt lat="49.7399" lon="3.99166">
        <ele>149.62</ele>
        <time>2021-08-08T13:19:02Z</time>
      </trkpt>
      <trkpt lat="49.7399" lon="3.99167">
        <ele>149.62</ele>
        <time>2021-08-08T13:19:13Z</time>
      </trkpt>
      <trkpt lat="49.73988" lon="3.99167">
        <ele>149.62</ele>
        <time>2021-08-08T13:19:14Z</time>
      </trkpt>
      <trkpt lat="49.73987" lon="3.99167">
        <ele>149.62</ele>
        <time>2021-08-08T13:19:15Z</time>
      </trkpt>
      <trkpt lat="49.73983" lon="3.99167">
        <ele>149.62</ele>
        <time>2021-08-08T13:19:17Z</time>
      </trkpt>
      <trkpt lat="49.73981" lon="3.99164">
        <ele>149.62</ele>
        <time>2021-08-08T13:19:18Z</time>
      </trkpt>
      <trkpt lat="49.73979" lon="3.99161">
        <ele>148.66</ele>
        <time>2021-08-08T13:19:19Z</time>
      </trkpt>
      <trkpt lat="49.73977" lon="3.99157">
        <ele>148.66</ele>
        <time>2021-08-08T13:19:20Z</time>
      </trkpt>
      <trkpt lat="49.73961" lon="3.99125">
        <ele>145.3</ele>
        <time>2021-08-08T13:19:26Z</time>
      </trkpt>
      <trkpt lat="49.73959" lon="3.99118">
        <ele>145.3</ele>
        <time>2021-08-08T13:19:27Z</time>
      </trkpt>
      <trkpt lat="49.73947" lon="3.99078">
        <ele>144.82</ele>
        <time>2021-08-08T13:19:32Z</time>
      </trkpt>
      <trkpt lat="49.73944" lon="3.99069">
        <ele>144.34</ele>
        <time>2021-08-08T13:19:33Z</time>
      </trkpt>
      <trkpt lat="49.73929" lon="3.9902">
        <ele>143.37</ele>
        <time>2021-08-08T13:19:40Z</time>
      </trkpt>
      <trkpt lat="49.73922" lon="3.99007">
        <ele>143.37</ele>
        <time>2021-08-08T13:19:44Z</time>
      </trkpt>
      <trkpt lat="49.7392" lon="3.99007">
        <ele>143.37</ele>
        <time>2021-08-08T13:19:45Z</time>
      </trkpt>
      <trkpt lat="49.73917" lon="3.99009">
        <ele>143.37</ele>
        <time>2021-08-08T13:19:46Z</time>
      </trkpt>
      <trkpt lat="49.73915" lon="3.99011">
        <ele>143.37</ele>
        <time>2021-08-08T13:19:47Z</time>
      </trkpt>
      <trkpt lat="49.73912" lon="3.99014">
        <ele>143.37</ele>
        <time>2021-08-08T13:19:48Z</time>
      </trkpt>
      <trkpt lat="49.73909" lon="3.99018">
        <ele>142.89</ele>
        <time>2021-08-08T13:19:49Z</time>
      </trkpt>
      <trkpt lat="49.73875" lon="3.99041">
        <ele>140.97</ele>
        <time>2021-08-08T13:19:57Z</time>
      </trkpt>
      <trkpt lat="49.7387" lon="3.99044">
        <ele>140.97</ele>
        <time>2021-08-08T13:19:58Z</time>
      </trkpt>
      <trkpt lat="49.73839" lon="3.99063">
        <ele>137.61</ele>
        <time>2021-08-08T13:20:04Z</time>
      </trkpt>
      <trkpt lat="49.73834" lon="3.99067">
        <ele>141.93</ele>
        <time>2021-08-08T13:20:05Z</time>
      </trkpt>
      <trkpt lat="49.73796" lon="3.99096">
        <ele>139.53</ele>
        <time>2021-08-08T13:20:13Z</time>
      </trkpt>
      <trkpt lat="49.73778" lon="3.99119">
        <ele>139.53</ele>
        <time>2021-08-08T13:20:18Z</time>
      </trkpt>
      <trkpt lat="49.73774" lon="3.99122">
        <ele>139.53</ele>
        <time>2021-08-08T13:20:19Z</time>
      </trkpt>
      <trkpt lat="49.7377" lon="3.99123">
        <ele>140.97</ele>
        <time>2021-08-08T13:20:20Z</time>
      </trkpt>
      <trkpt lat="49.73766" lon="3.99123">
        <ele>140.97</ele>
        <time>2021-08-08T13:20:21Z</time>
      </trkpt>
      <trkpt lat="49.73761" lon="3.99124">
        <ele>139.53</ele>
        <time>2021-08-08T13:20:22Z</time>
      </trkpt>
      <trkpt lat="49.73757" lon="3.99127">
        <ele>139.53</ele>
        <time>2021-08-08T13:20:23Z</time>
      </trkpt>
      <trkpt lat="49.73753" lon="3.9913">
        <ele>139.53</ele>
        <time>2021-08-08T13:20:24Z</time>
      </trkpt>
      <trkpt lat="49.73743" lon="3.9914">
        <ele>141.45</ele>
        <time>2021-08-08T13:20:27Z</time>
      </trkpt>
      <trkpt lat="49.73716" lon="3.99163">
        <ele>142.41</ele>
        <time>2021-08-08T13:20:37Z</time>
      </trkpt>
      <trkpt lat="49.73695" lon="3.99178">
        <ele>144.34</ele>
        <time>2021-08-08T13:20:46Z</time>
      </trkpt>
      <trkpt lat="49.7368" lon="3.99181">
        <ele>145.3</ele>
        <time>2021-08-08T13:20:53Z</time>
      </trkpt>
      <trkpt lat="49.73666" lon="3.99185">
        <ele>145.78</ele>
        <time>2021-08-08T13:21:01Z</time>
      </trkpt>
      <trkpt lat="49.73651" lon="3.99193">
        <ele>148.18</ele>
        <time>2021-08-08T13:21:10Z</time>
      </trkpt>
      <trkpt lat="49.73646" lon="3.99198">
        <ele>148.66</ele>
        <time>2021-08-08T13:21:14Z</time>
      </trkpt>
      <trkpt lat="49.73644" lon="3.99199">
        <ele>148.66</ele>
        <time>2021-08-08T13:21:15Z</time>
      </trkpt>
      <trkpt lat="49.73634" lon="3.99211">
        <ele>150.1</ele>
        <time>2021-08-08T13:21:23Z</time>
      </trkpt>
      <trkpt lat="49.73624" lon="3.99221">
        <ele>151.06</ele>
        <time>2021-08-08T13:21:31Z</time>
      </trkpt>
      <trkpt lat="49.73624" lon="3.99223">
        <ele>151.06</ele>
        <time>2021-08-08T13:21:32Z</time>
      </trkpt>
      <trkpt lat="49.73622" lon="3.99224">
        <ele>151.06</ele>
        <time>2021-08-08T13:21:33Z</time>
      </trkpt>
      <trkpt lat="49.73607" lon="3.99241">
        <ele>152.99</ele>
        <time>2021-08-08T13:21:43Z</time>
      </trkpt>
      <trkpt lat="49.73593" lon="3.99252">
        <ele>154.43</ele>
        <time>2021-08-08T13:21:51Z</time>
      </trkpt>
      <trkpt lat="49.73578" lon="3.99264">
        <ele>155.39</ele>
        <time>2021-08-08T13:22:00Z</time>
      </trkpt>
      <trkpt lat="49.73565" lon="3.99272">
        <ele>157.31</ele>
        <time>2021-08-08T13:22:09Z</time>
      </trkpt>
      <trkpt lat="49.73556" lon="3.99279">
        <ele>157.79</ele>
        <time>2021-08-08T13:22:15Z</time>
      </trkpt>
      <trkpt lat="49.73538" lon="3.99286">
        <ele>159.72</ele>
        <time>2021-08-08T13:22:24Z</time>
      </trkpt>
      <trkpt lat="49.73536" lon="3.99288">
        <ele>159.72</ele>
        <time>2021-08-08T13:22:25Z</time>
      </trkpt>
      <trkpt lat="49.73535" lon="3.99289">
        <ele>159.72</ele>
        <time>2021-08-08T13:22:26Z</time>
      </trkpt>
      <trkpt lat="49.73533" lon="3.99291">
        <ele>160.2</ele>
        <time>2021-08-08T13:22:27Z</time>
      </trkpt>
      <trkpt lat="49.73531" lon="3.99292">
        <ele>160.2</ele>
        <time>2021-08-08T13:22:28Z</time>
      </trkpt>
      <trkpt lat="49.73529" lon="3.99294">
        <ele>160.2</ele>
        <time>2021-08-08T13:22:29Z</time>
      </trkpt>
      <trkpt lat="49.73528" lon="3.99295">
        <ele>160.2</ele>
        <time>2021-08-08T13:22:30Z</time>
      </trkpt>
      <trkpt lat="49.73516" lon="3.99315">
        <ele>161.64</ele>
        <time>2021-08-08T13:22:39Z</time>
      </trkpt>
      <trkpt lat="49.73508" lon="3.99333">
        <ele>162.12</ele>
        <time>2021-08-08T13:22:46Z</time>
      </trkpt>
      <trkpt lat="49.73494" lon="3.99361">
        <ele>163.56</ele>
        <time>2021-08-08T13:22:58Z</time>
      </trkpt>
      <trkpt lat="49.73484" lon="3.99382">
        <ele>164.52</ele>
        <time>2021-08-08T13:23:07Z</time>
      </trkpt>
      <trkpt lat="49.73473" lon="3.99402">
        <ele>165</ele>
        <time>2021-08-08T13:23:16Z</time>
      </trkpt>
      <trkpt lat="49.73462" lon="3.99422">
        <ele>166.45</ele>
        <time>2021-08-08T13:23:25Z</time>
      </trkpt>
      <trkpt lat="49.73452" lon="3.99444">
        <ele>167.89</ele>
        <time>2021-08-08T13:23:34Z</time>
      </trkpt>
      <trkpt lat="49.73444" lon="3.9947">
        <ele>169.33</ele>
        <time>2021-08-08T13:23:43Z</time>
      </trkpt>
      <trkpt lat="49.73438" lon="3.99489">
        <ele>169.81</ele>
        <time>2021-08-08T13:23:50Z</time>
      </trkpt>
      <trkpt lat="49.73427" lon="3.99522">
        <ele>172.21</ele>
        <time>2021-08-08T13:24:01Z</time>
      </trkpt>
      <trkpt lat="49.73412" lon="3.99554">
        <ele>173.17</ele>
        <time>2021-08-08T13:24:12Z</time>
      </trkpt>
      <trkpt lat="49.734" lon="3.99572">
        <ele>174.14</ele>
        <time>2021-08-08T13:24:19Z</time>
      </trkpt>
      <trkpt lat="49.73387" lon="3.99588">
        <ele>175.1</ele>
        <time>2021-08-08T13:24:26Z</time>
      </trkpt>
      <trkpt lat="49.73369" lon="3.9961">
        <ele>175.1</ele>
        <time>2021-08-08T13:24:35Z</time>
      </trkpt>
      <trkpt lat="49.7335" lon="3.9963">
        <ele>175.58</ele>
        <time>2021-08-08T13:24:43Z</time>
      </trkpt>
      <trkpt lat="49.73331" lon="3.99647">
        <ele>176.54</ele>
        <time>2021-08-08T13:24:51Z</time>
      </trkpt>
      <trkpt lat="49.73309" lon="3.9967">
        <ele>178.46</ele>
        <time>2021-08-08T13:25:01Z</time>
      </trkpt>
      <trkpt lat="49.73284" lon="3.99697">
        <ele>179.9</ele>
        <time>2021-08-08T13:25:12Z</time>
      </trkpt>
      <trkpt lat="49.73268" lon="3.99713">
        <ele>180.38</ele>
        <time>2021-08-08T13:25:19Z</time>
      </trkpt>
      <trkpt lat="49.73246" lon="3.99733">
        <ele>181.83</ele>
        <time>2021-08-08T13:25:28Z</time>
      </trkpt>
      <trkpt lat="49.73228" lon="3.99745">
        <ele>182.79</ele>
        <time>2021-08-08T13:25:35Z</time>
      </trkpt>
      <trkpt lat="49.73208" lon="3.99759">
        <ele>183.27</ele>
        <time>2021-08-08T13:25:43Z</time>
      </trkpt>
      <trkpt lat="49.73189" lon="3.9977">
        <ele>184.23</ele>
        <time>2021-08-08T13:25:50Z</time>
      </trkpt>
      <trkpt lat="49.73159" lon="3.99785">
        <ele>185.67</ele>
        <time>2021-08-08T13:26:00Z</time>
      </trkpt>
      <trkpt lat="49.73129" lon="3.99801">
        <ele>184.71</ele>
        <time>2021-08-08T13:26:09Z</time>
      </trkpt>
      <trkpt lat="49.73109" lon="3.99811">
        <ele>184.23</ele>
        <time>2021-08-08T13:26:16Z</time>
      </trkpt>
      <trkpt lat="49.73089" lon="3.99823">
        <ele>183.75</ele>
        <time>2021-08-08T13:26:22Z</time>
      </trkpt>
      <trkpt lat="49.73055" lon="3.99844">
        <ele>183.27</ele>
        <time>2021-08-08T13:26:31Z</time>
      </trkpt>
      <trkpt lat="49.73023" lon="3.99864">
        <ele>183.75</ele>
        <time>2021-08-08T13:26:40Z</time>
      </trkpt>
      <trkpt lat="49.72983" lon="3.99887">
        <ele>184.71</ele>
        <time>2021-08-08T13:26:52Z</time>
      </trkpt>
      <trkpt lat="49.72955" lon="3.99904">
        <ele>184.71</ele>
        <time>2021-08-08T13:27:01Z</time>
      </trkpt>
      <trkpt lat="49.72927" lon="3.99922">
        <ele>184.71</ele>
        <time>2021-08-08T13:27:09Z</time>
      </trkpt>
      <trkpt lat="49.72897" lon="3.99941">
        <ele>184.71</ele>
        <time>2021-08-08T13:27:18Z</time>
      </trkpt>
      <trkpt lat="49.72861" lon="3.99964">
        <ele>184.71</ele>
        <time>2021-08-08T13:27:28Z</time>
      </trkpt>
      <trkpt lat="49.72838" lon="3.9998">
        <ele>183.75</ele>
        <time>2021-08-08T13:27:34Z</time>
      </trkpt>
      <trkpt lat="49.72811" lon="3.99996">
        <ele>183.27</ele>
        <time>2021-08-08T13:27:41Z</time>
      </trkpt>
      <trkpt lat="49.72785" lon="4.00011">
        <ele>183.27</ele>
        <time>2021-08-08T13:27:49Z</time>
      </trkpt>
      <trkpt lat="49.72753" lon="4.00029">
        <ele>185.19</ele>
        <time>2021-08-08T13:27:59Z</time>
      </trkpt>
      <trkpt lat="49.72717" lon="4.00038">
        <ele>183.27</ele>
        <time>2021-08-08T13:28:07Z</time>
      </trkpt>
      <trkpt lat="49.72672" lon="4.00045">
        <ele>181.83</ele>
        <time>2021-08-08T13:28:16Z</time>
      </trkpt>
      <trkpt lat="49.72666" lon="4.00048">
        <ele>181.83</ele>
        <time>2021-08-08T13:28:17Z</time>
      </trkpt>
      <trkpt lat="49.72661" lon="4.00053">
        <ele>181.35</ele>
        <time>2021-08-08T13:28:18Z</time>
      </trkpt>
      <trkpt lat="49.72658" lon="4.00059">
        <ele>181.35</ele>
        <time>2021-08-08T13:28:19Z</time>
      </trkpt>
      <trkpt lat="49.72656" lon="4.00065">
        <ele>181.35</ele>
        <time>2021-08-08T13:28:20Z</time>
      </trkpt>
      <trkpt lat="49.72656" lon="4.00072">
        <ele>181.35</ele>
        <time>2021-08-08T13:28:21Z</time>
      </trkpt>
      <trkpt lat="49.72657" lon="4.00079">
        <ele>181.35</ele>
        <time>2021-08-08T13:28:22Z</time>
      </trkpt>
      <trkpt lat="49.7266" lon="4.00096">
        <ele>183.27</ele>
        <time>2021-08-08T13:28:25Z</time>
      </trkpt>
      <trkpt lat="49.72666" lon="4.00149">
        <ele>184.71</ele>
        <time>2021-08-08T13:28:35Z</time>
      </trkpt>
      <trkpt lat="49.7267" lon="4.00196">
        <ele>185.19</ele>
        <time>2021-08-08T13:28:44Z</time>
      </trkpt>
      <trkpt lat="49.72676" lon="4.00247">
        <ele>185.67</ele>
        <time>2021-08-08T13:28:53Z</time>
      </trkpt>
      <trkpt lat="49.72684" lon="4.00298">
        <ele>186.15</ele>
        <time>2021-08-08T13:29:02Z</time>
      </trkpt>
      <trkpt lat="49.72692" lon="4.00351">
        <ele>187.11</ele>
        <time>2021-08-08T13:29:12Z</time>
      </trkpt>
      <trkpt lat="49.72694" lon="4.0037">
        <ele>187.59</ele>
        <time>2021-08-08T13:29:16Z</time>
      </trkpt>
      <trkpt lat="49.72692" lon="4.00373">
        <ele>188.56</ele>
        <time>2021-08-08T13:29:17Z</time>
      </trkpt>
      <trkpt lat="49.72689" lon="4.00373">
        <ele>188.08</ele>
        <time>2021-08-08T13:29:18Z</time>
      </trkpt>
      <trkpt lat="49.72686" lon="4.00373">
        <ele>188.56</ele>
        <time>2021-08-08T13:29:19Z</time>
      </trkpt>
      <trkpt lat="49.72683" lon="4.00372">
        <ele>187.59</ele>
        <time>2021-08-08T13:29:20Z</time>
      </trkpt>
      <trkpt lat="49.7268" lon="4.00372">
        <ele>187.59</ele>
        <time>2021-08-08T13:29:21Z</time>
      </trkpt>
      <trkpt lat="49.72669" lon="4.00371">
        <ele>186.15</ele>
        <time>2021-08-08T13:29:25Z</time>
      </trkpt>
      <trkpt lat="49.72666" lon="4.00372">
        <ele>186.15</ele>
        <time>2021-08-08T13:29:30Z</time>
      </trkpt>
      <trkpt lat="49.7266" lon="4.00372">
        <ele>185.19</ele>
        <time>2021-08-08T13:29:37Z</time>
      </trkpt>
      <trkpt lat="49.72645" lon="4.00373">
        <ele>183.27</ele>
        <time>2021-08-08T13:29:41Z</time>
      </trkpt>
      <trkpt lat="49.72609" lon="4.00373">
        <ele>180.87</ele>
        <time>2021-08-08T13:29:49Z</time>
      </trkpt>
      <trkpt lat="49.72599" lon="4.00373">
        <ele>180.38</ele>
        <time>2021-08-08T13:29:51Z</time>
      </trkpt>
      <trkpt lat="49.72541" lon="4.00372">
        <ele>177.5</ele>
        <time>2021-08-08T13:30:02Z</time>
      </trkpt>
      <trkpt lat="49.72498" lon="4.00371">
        <ele>174.62</ele>
        <time>2021-08-08T13:30:10Z</time>
      </trkpt>
      <trkpt lat="49.72458" lon="4.00373">
        <ele>171.73</ele>
        <time>2021-08-08T13:30:17Z</time>
      </trkpt>
      <trkpt lat="49.72433" lon="4.00374">
        <ele>169.33</ele>
        <time>2021-08-08T13:30:21Z</time>
      </trkpt>
      <trkpt lat="49.72407" lon="4.00375">
        <ele>166.93</ele>
        <time>2021-08-08T13:30:25Z</time>
      </trkpt>
      <trkpt lat="49.72402" lon="4.00375">
        <ele>166.93</ele>
        <time>2021-08-08T13:30:26Z</time>
      </trkpt>
      <trkpt lat="49.72396" lon="4.00376">
        <ele>165.48</ele>
        <time>2021-08-08T13:30:27Z</time>
      </trkpt>
      <trkpt lat="49.72384" lon="4.00378">
        <ele>165</ele>
        <time>2021-08-08T13:30:29Z</time>
      </trkpt>
      <trkpt lat="49.72374" lon="4.0038">
        <ele>164.04</ele>
        <time>2021-08-08T13:30:31Z</time>
      </trkpt>
      <trkpt lat="49.72337" lon="4.00396">
        <ele>161.16</ele>
        <time>2021-08-08T13:30:39Z</time>
      </trkpt>
      <trkpt lat="49.72314" lon="4.00407">
        <ele>158.27</ele>
        <time>2021-08-08T13:30:44Z</time>
      </trkpt>
      <trkpt lat="49.72309" lon="4.00409">
        <ele>158.27</ele>
        <time>2021-08-08T13:30:45Z</time>
      </trkpt>
      <trkpt lat="49.72305" lon="4.00412">
        <ele>158.27</ele>
        <time>2021-08-08T13:30:46Z</time>
      </trkpt>
      <trkpt lat="49.72296" lon="4.00418">
        <ele>157.31</ele>
        <time>2021-08-08T13:30:48Z</time>
      </trkpt>
      <trkpt lat="49.72291" lon="4.00421">
        <ele>156.35</ele>
        <time>2021-08-08T13:30:49Z</time>
      </trkpt>
      <trkpt lat="49.72287" lon="4.00425">
        <ele>155.87</ele>
        <time>2021-08-08T13:30:50Z</time>
      </trkpt>
      <trkpt lat="49.72264" lon="4.00451">
        <ele>152.51</ele>
        <time>2021-08-08T13:30:56Z</time>
      </trkpt>
      <trkpt lat="49.72251" lon="4.00464">
        <ele>151.54</ele>
        <time>2021-08-08T13:30:59Z</time>
      </trkpt>
      <trkpt lat="49.72241" lon="4.00474">
        <ele>150.1</ele>
        <time>2021-08-08T13:31:01Z</time>
      </trkpt>
      <trkpt lat="49.72221" lon="4.00496">
        <ele>148.18</ele>
        <time>2021-08-08T13:31:05Z</time>
      </trkpt>
      <trkpt lat="49.72195" lon="4.00522">
        <ele>145.3</ele>
        <time>2021-08-08T13:31:10Z</time>
      </trkpt>
      <trkpt lat="49.72165" lon="4.00556">
        <ele>140.97</ele>
        <time>2021-08-08T13:31:15Z</time>
      </trkpt>
      <trkpt lat="49.72159" lon="4.00565">
        <ele>140.97</ele>
        <time>2021-08-08T13:31:16Z</time>
      </trkpt>
      <trkpt lat="49.72154" lon="4.00574">
        <ele>139.53</ele>
        <time>2021-08-08T13:31:17Z</time>
      </trkpt>
      <trkpt lat="49.72149" lon="4.00585">
        <ele>140.01</ele>
        <time>2021-08-08T13:31:18Z</time>
      </trkpt>
      <trkpt lat="49.72145" lon="4.00595">
        <ele>139.53</ele>
        <time>2021-08-08T13:31:19Z</time>
      </trkpt>
      <trkpt lat="49.72142" lon="4.00606">
        <ele>138.09</ele>
        <time>2021-08-08T13:31:20Z</time>
      </trkpt>
      <trkpt lat="49.7214" lon="4.00617">
        <ele>136.64</ele>
        <time>2021-08-08T13:31:21Z</time>
      </trkpt>
      <trkpt lat="49.72138" lon="4.00629">
        <ele>134.72</ele>
        <time>2021-08-08T13:31:22Z</time>
      </trkpt>
      <trkpt lat="49.72137" lon="4.00642">
        <ele>134.72</ele>
        <time>2021-08-08T13:31:23Z</time>
      </trkpt>
      <trkpt lat="49.72136" lon="4.00652">
        <ele>133.76</ele>
        <time>2021-08-08T13:31:24Z</time>
      </trkpt>
      <trkpt lat="49.72135" lon="4.00658">
        <ele>132.8</ele>
        <time>2021-08-08T13:31:25Z</time>
      </trkpt>
      <trkpt lat="49.72131" lon="4.00663">
        <ele>132.32</ele>
        <time>2021-08-08T13:31:26Z</time>
      </trkpt>
      <trkpt lat="49.72121" lon="4.00671">
        <ele>131.36</ele>
        <time>2021-08-08T13:31:28Z</time>
      </trkpt>
      <trkpt lat="49.72102" lon="4.00672">
        <ele>129.43</ele>
        <time>2021-08-08T13:31:30Z</time>
      </trkpt>
      <trkpt lat="49.72093" lon="4.00673">
        <ele>129.43</ele>
        <time>2021-08-08T13:31:31Z</time>
      </trkpt>
      <trkpt lat="49.72079" lon="4.00678">
        <ele>129.43</ele>
        <time>2021-08-08T13:31:33Z</time>
      </trkpt>
      <trkpt lat="49.72074" lon="4.00683">
        <ele>129.43</ele>
        <time>2021-08-08T13:31:34Z</time>
      </trkpt>
      <trkpt lat="49.72069" lon="4.00689">
        <ele>130.4</ele>
        <time>2021-08-08T13:31:35Z</time>
      </trkpt>
      <trkpt lat="49.72066" lon="4.00693">
        <ele>131.36</ele>
        <time>2021-08-08T13:31:36Z</time>
      </trkpt>
      <trkpt lat="49.72062" lon="4.00697">
        <ele>131.36</ele>
        <time>2021-08-08T13:31:37Z</time>
      </trkpt>
      <trkpt lat="49.72042" lon="4.00711">
        <ele>130.4</ele>
        <time>2021-08-08T13:31:43Z</time>
      </trkpt>
      <trkpt lat="49.72024" lon="4.00727">
        <ele>132.32</ele>
        <time>2021-08-08T13:31:51Z</time>
      </trkpt>
      <trkpt lat="49.72012" lon="4.00739">
        <ele>132.8</ele>
        <time>2021-08-08T13:31:57Z</time>
      </trkpt>
      <trkpt lat="49.71998" lon="4.00751">
        <ele>133.28</ele>
        <time>2021-08-08T13:32:04Z</time>
      </trkpt>
      <trkpt lat="49.71978" lon="4.00771">
        <ele>133.76</ele>
        <time>2021-08-08T13:32:14Z</time>
      </trkpt>
      <trkpt lat="49.71954" lon="4.00792">
        <ele>134.72</ele>
        <time>2021-08-08T13:32:26Z</time>
      </trkpt>
      <trkpt lat="49.71936" lon="4.00804">
        <ele>135.2</ele>
        <time>2021-08-08T13:32:36Z</time>
      </trkpt>
      <trkpt lat="49.71935" lon="4.00803">
        <ele>135.2</ele>
        <time>2021-08-08T13:32:37Z</time>
      </trkpt>
      <trkpt lat="49.71933" lon="4.008">
        <ele>135.2</ele>
        <time>2021-08-08T13:32:38Z</time>
      </trkpt>
      <trkpt lat="49.71933" lon="4.00797">
        <ele>135.2</ele>
        <time>2021-08-08T13:32:39Z</time>
      </trkpt>
      <trkpt lat="49.71932" lon="4.00795">
        <ele>135.68</ele>
        <time>2021-08-08T13:32:40Z</time>
      </trkpt>
      <trkpt lat="49.71931" lon="4.00792">
        <ele>135.68</ele>
        <time>2021-08-08T13:32:41Z</time>
      </trkpt>
      <trkpt lat="49.7193" lon="4.00788">
        <ele>135.68</ele>
        <time>2021-08-08T13:32:42Z</time>
      </trkpt>
      <trkpt lat="49.71929" lon="4.00785">
        <ele>135.68</ele>
        <time>2021-08-08T13:32:43Z</time>
      </trkpt>
      <trkpt lat="49.71929" lon="4.00782">
        <ele>135.68</ele>
        <time>2021-08-08T13:32:44Z</time>
      </trkpt>
      <trkpt lat="49.71918" lon="4.00762">
        <ele>136.16</ele>
        <time>2021-08-08T13:32:52Z</time>
      </trkpt>
      <trkpt lat="49.71905" lon="4.00757">
        <ele>136.64</ele>
        <time>2021-08-08T13:32:59Z</time>
      </trkpt>
      <trkpt lat="49.7189" lon="4.00751">
        <ele>138.57</ele>
        <time>2021-08-08T13:33:08Z</time>
      </trkpt>
      <trkpt lat="49.71876" lon="4.00746">
        <ele>139.05</ele>
        <time>2021-08-08T13:33:16Z</time>
      </trkpt>
      <trkpt lat="49.71861" lon="4.00739">
        <ele>140.01</ele>
        <time>2021-08-08T13:33:25Z</time>
      </trkpt>
      <trkpt lat="49.71851" lon="4.00735">
        <ele>141.45</ele>
        <time>2021-08-08T13:33:31Z</time>
      </trkpt>
      <trkpt lat="49.7184" lon="4.0073">
        <ele>141.93</ele>
        <time>2021-08-08T13:33:38Z</time>
      </trkpt>
      <trkpt lat="49.71824" lon="4.00724">
        <ele>142.89</ele>
        <time>2021-08-08T13:33:48Z</time>
      </trkpt>
      <trkpt lat="49.7181" lon="4.00718">
        <ele>144.82</ele>
        <time>2021-08-08T13:33:57Z</time>
      </trkpt>
      <trkpt lat="49.718" lon="4.00715">
        <ele>145.78</ele>
        <time>2021-08-08T13:34:03Z</time>
      </trkpt>
      <trkpt lat="49.71783" lon="4.00713">
        <ele>147.22</ele>
        <time>2021-08-08T13:34:12Z</time>
      </trkpt>
      <trkpt lat="49.71767" lon="4.00711">
        <ele>147.7</ele>
        <time>2021-08-08T13:34:20Z</time>
      </trkpt>
      <trkpt lat="49.71751" lon="4.00708">
        <ele>148.66</ele>
        <time>2021-08-08T13:34:28Z</time>
      </trkpt>
      <trkpt lat="49.71735" lon="4.00704">
        <ele>149.14</ele>
        <time>2021-08-08T13:34:36Z</time>
      </trkpt>
      <trkpt lat="49.71713" lon="4.00699">
        <ele>151.06</ele>
        <time>2021-08-08T13:34:47Z</time>
      </trkpt>
      <trkpt lat="49.71698" lon="4.00698">
        <ele>152.51</ele>
        <time>2021-08-08T13:34:55Z</time>
      </trkpt>
      <trkpt lat="49.71675" lon="4.00695">
        <ele>153.47</ele>
        <time>2021-08-08T13:35:06Z</time>
      </trkpt>
      <trkpt lat="49.71654" lon="4.00693">
        <ele>154.91</ele>
        <time>2021-08-08T13:35:16Z</time>
      </trkpt>
      <trkpt lat="49.71635" lon="4.00689">
        <ele>155.87</ele>
        <time>2021-08-08T13:35:25Z</time>
      </trkpt>
      <trkpt lat="49.71617" lon="4.00686">
        <ele>157.31</ele>
        <time>2021-08-08T13:35:33Z</time>
      </trkpt>
      <trkpt lat="49.71592" lon="4.00679">
        <ele>157.79</ele>
        <time>2021-08-08T13:35:44Z</time>
      </trkpt>
      <trkpt lat="49.71574" lon="4.00675">
        <ele>158.75</ele>
        <time>2021-08-08T13:35:52Z</time>
      </trkpt>
      <trkpt lat="49.71554" lon="4.00663">
        <ele>159.72</ele>
        <time>2021-08-08T13:36:01Z</time>
      </trkpt>
      <trkpt lat="49.71537" lon="4.0065">
        <ele>161.16</ele>
        <time>2021-08-08T13:36:09Z</time>
      </trkpt>
      <trkpt lat="49.71522" lon="4.00638">
        <ele>162.12</ele>
        <time>2021-08-08T13:36:17Z</time>
      </trkpt>
      <trkpt lat="49.71508" lon="4.00627">
        <ele>163.08</ele>
        <time>2021-08-08T13:36:24Z</time>
      </trkpt>
      <trkpt lat="49.71501" lon="4.00624">
        <ele>164.04</ele>
        <time>2021-08-08T13:36:28Z</time>
      </trkpt>
      <trkpt lat="49.71496" lon="4.00621">
        <ele>164.04</ele>
        <time>2021-08-08T13:36:30Z</time>
      </trkpt>
      <trkpt lat="49.71493" lon="4.00619">
        <ele>164.04</ele>
        <time>2021-08-08T13:36:31Z</time>
      </trkpt>
      <trkpt lat="49.71491" lon="4.00617">
        <ele>164.52</ele>
        <time>2021-08-08T13:36:32Z</time>
      </trkpt>
      <trkpt lat="49.71489" lon="4.00615">
        <ele>164.52</ele>
        <time>2021-08-08T13:36:33Z</time>
      </trkpt>
      <trkpt lat="49.71487" lon="4.00613">
        <ele>164.52</ele>
        <time>2021-08-08T13:36:34Z</time>
      </trkpt>
      <trkpt lat="49.71484" lon="4.00611">
        <ele>164.52</ele>
        <time>2021-08-08T13:36:35Z</time>
      </trkpt>
      <trkpt lat="49.71482" lon="4.0061">
        <ele>164.52</ele>
        <time>2021-08-08T13:36:36Z</time>
      </trkpt>
      <trkpt lat="49.71463" lon="4.00597">
        <ele>165.96</ele>
        <time>2021-08-08T13:36:45Z</time>
      </trkpt>
      <trkpt lat="49.71444" lon="4.00584">
        <ele>167.41</ele>
        <time>2021-08-08T13:36:54Z</time>
      </trkpt>
      <trkpt lat="49.7142" lon="4.00566">
        <ele>168.37</ele>
        <time>2021-08-08T13:37:04Z</time>
      </trkpt>
      <trkpt lat="49.71406" lon="4.00558">
        <ele>169.33</ele>
        <time>2021-08-08T13:37:10Z</time>
      </trkpt>
      <trkpt lat="49.71404" lon="4.00559">
        <ele>170.29</ele>
        <time>2021-08-08T13:37:11Z</time>
      </trkpt>
      <trkpt lat="49.71403" lon="4.00562">
        <ele>171.25</ele>
        <time>2021-08-08T13:37:12Z</time>
      </trkpt>
      <trkpt lat="49.71403" lon="4.00566">
        <ele>171.73</ele>
        <time>2021-08-08T13:37:13Z</time>
      </trkpt>
      <trkpt lat="49.71405" lon="4.0057">
        <ele>170.29</ele>
        <time>2021-08-08T13:37:14Z</time>
      </trkpt>
      <trkpt lat="49.71407" lon="4.00574">
        <ele>169.33</ele>
        <time>2021-08-08T13:37:15Z</time>
      </trkpt>
      <trkpt lat="49.7141" lon="4.00578">
        <ele>169.81</ele>
        <time>2021-08-08T13:37:16Z</time>
      </trkpt>
      <trkpt lat="49.71433" lon="4.00616">
        <ele>168.37</ele>
        <time>2021-08-08T13:37:22Z</time>
      </trkpt>
      <trkpt lat="49.71446" lon="4.00641">
        <ele>166.93</ele>
        <time>2021-08-08T13:37:25Z</time>
      </trkpt>
      <trkpt lat="49.7148" lon="4.007">
        <ele>163.56</ele>
        <time>2021-08-08T13:37:31Z</time>
      </trkpt>
      <trkpt lat="49.71526" lon="4.00781">
        <ele>160.2</ele>
        <time>2021-08-08T13:37:38Z</time>
      </trkpt>
      <trkpt lat="49.71577" lon="4.00872">
        <ele>161.64</ele>
        <time>2021-08-08T13:37:46Z</time>
      </trkpt>
      <trkpt lat="49.71583" lon="4.00882">
        <ele>161.64</ele>
        <time>2021-08-08T13:37:47Z</time>
      </trkpt>
      <trkpt lat="49.71609" lon="4.0092">
        <ele>163.08</ele>
        <time>2021-08-08T13:37:52Z</time>
      </trkpt>
      <trkpt lat="49.71646" lon="4.00961">
        <ele>161.16</ele>
        <time>2021-08-08T13:37:58Z</time>
      </trkpt>
      <trkpt lat="49.71704" lon="4.01016">
        <ele>158.27</ele>
        <time>2021-08-08T13:38:06Z</time>
      </trkpt>
      <trkpt lat="49.71712" lon="4.01024">
        <ele>158.27</ele>
        <time>2021-08-08T13:38:07Z</time>
      </trkpt>
      <trkpt lat="49.71758" lon="4.01083">
        <ele>155.39</ele>
        <time>2021-08-08T13:38:13Z</time>
      </trkpt>
      <trkpt lat="49.71774" lon="4.01108">
        <ele>154.91</ele>
        <time>2021-08-08T13:38:15Z</time>
      </trkpt>
      <trkpt lat="49.71789" lon="4.01134">
        <ele>153.47</ele>
        <time>2021-08-08T13:38:17Z</time>
      </trkpt>
      <trkpt lat="49.71816" lon="4.01196">
        <ele>149.62</ele>
        <time>2021-08-08T13:38:21Z</time>
      </trkpt>
      <trkpt lat="49.71834" lon="4.01249">
        <ele>148.18</ele>
        <time>2021-08-08T13:38:24Z</time>
      </trkpt>
      <trkpt lat="49.71858" lon="4.01323">
        <ele>145.3</ele>
        <time>2021-08-08T13:38:28Z</time>
      </trkpt>
      <trkpt lat="49.71877" lon="4.01382">
        <ele>141.45</ele>
        <time>2021-08-08T13:38:31Z</time>
      </trkpt>
      <trkpt lat="49.7189" lon="4.01421">
        <ele>140.49</ele>
        <time>2021-08-08T13:38:33Z</time>
      </trkpt>
      <trkpt lat="49.71912" lon="4.01489">
        <ele>140.49</ele>
        <time>2021-08-08T13:38:37Z</time>
      </trkpt>
      <trkpt lat="49.7192" lon="4.01513">
        <ele>143.85</ele>
        <time>2021-08-08T13:38:39Z</time>
      </trkpt>
      <trkpt lat="49.71922" lon="4.01521">
        <ele>144.34</ele>
        <time>2021-08-08T13:38:40Z</time>
      </trkpt>
      <trkpt lat="49.71923" lon="4.01529">
        <ele>145.3</ele>
        <time>2021-08-08T13:38:41Z</time>
      </trkpt>
      <trkpt lat="49.71922" lon="4.01534">
        <ele>145.78</ele>
        <time>2021-08-08T13:38:42Z</time>
      </trkpt>
      <trkpt lat="49.7192" lon="4.01538">
        <ele>146.74</ele>
        <time>2021-08-08T13:38:43Z</time>
      </trkpt>
      <trkpt lat="49.71918" lon="4.01541">
        <ele>146.74</ele>
        <time>2021-08-08T13:38:44Z</time>
      </trkpt>
      <trkpt lat="49.71916" lon="4.01542">
        <ele>147.7</ele>
        <time>2021-08-08T13:38:45Z</time>
      </trkpt>
      <trkpt lat="49.71914" lon="4.01543">
        <ele>147.7</ele>
        <time>2021-08-08T13:38:46Z</time>
      </trkpt>
      <trkpt lat="49.71911" lon="4.01544">
        <ele>147.7</ele>
        <time>2021-08-08T13:38:47Z</time>
      </trkpt>
      <trkpt lat="49.71894" lon="4.01555">
        <ele>148.18</ele>
        <time>2021-08-08T13:38:54Z</time>
      </trkpt>
      <trkpt lat="49.71869" lon="4.01573">
        <ele>148.66</ele>
        <time>2021-08-08T13:39:05Z</time>
      </trkpt>
      <trkpt lat="49.71848" lon="4.01593">
        <ele>149.62</ele>
        <time>2021-08-08T13:39:13Z</time>
      </trkpt>
      <trkpt lat="49.71822" lon="4.01623">
        <ele>151.54</ele>
        <time>2021-08-08T13:39:24Z</time>
      </trkpt>
      <trkpt lat="49.718" lon="4.01646">
        <ele>153.47</ele>
        <time>2021-08-08T13:39:33Z</time>
      </trkpt>
      <trkpt lat="49.71774" lon="4.01676">
        <ele>154.43</ele>
        <time>2021-08-08T13:39:44Z</time>
      </trkpt>
      <trkpt lat="49.7175" lon="4.01705">
        <ele>156.35</ele>
        <time>2021-08-08T13:39:55Z</time>
      </trkpt>
      <trkpt lat="49.71725" lon="4.01732">
        <ele>158.75</ele>
        <time>2021-08-08T13:40:06Z</time>
      </trkpt>
      <trkpt lat="49.71698" lon="4.01762">
        <ele>160.2</ele>
        <time>2021-08-08T13:40:18Z</time>
      </trkpt>
      <trkpt lat="49.71671" lon="4.01792">
        <ele>162.6</ele>
        <time>2021-08-08T13:40:30Z</time>
      </trkpt>
      <trkpt lat="49.71651" lon="4.01815">
        <ele>163.56</ele>
        <time>2021-08-08T13:40:39Z</time>
      </trkpt>
      <trkpt lat="49.71629" lon="4.01841">
        <ele>165</ele>
        <time>2021-08-08T13:40:49Z</time>
      </trkpt>
      <trkpt lat="49.71607" lon="4.01865">
        <ele>166.93</ele>
        <time>2021-08-08T13:40:59Z</time>
      </trkpt>
      <trkpt lat="49.71584" lon="4.01889">
        <ele>167.89</ele>
        <time>2021-08-08T13:41:09Z</time>
      </trkpt>
      <trkpt lat="49.71558" lon="4.01915">
        <ele>169.81</ele>
        <time>2021-08-08T13:41:20Z</time>
      </trkpt>
      <trkpt lat="49.71538" lon="4.01926">
        <ele>171.25</ele>
        <time>2021-08-08T13:41:27Z</time>
      </trkpt>
      <trkpt lat="49.71509" lon="4.01933">
        <ele>172.69</ele>
        <time>2021-08-08T13:41:37Z</time>
      </trkpt>
      <trkpt lat="49.71481" lon="4.0193">
        <ele>173.17</ele>
        <time>2021-08-08T13:41:47Z</time>
      </trkpt>
      <trkpt lat="49.71454" lon="4.01916">
        <ele>175.58</ele>
        <time>2021-08-08T13:41:57Z</time>
      </trkpt>
      <trkpt lat="49.71421" lon="4.019">
        <ele>177.02</ele>
        <time>2021-08-08T13:42:09Z</time>
      </trkpt>
      <trkpt lat="49.7139" lon="4.01885">
        <ele>178.94</ele>
        <time>2021-08-08T13:42:20Z</time>
      </trkpt>
      <trkpt lat="49.71363" lon="4.01871">
        <ele>180.87</ele>
        <time>2021-08-08T13:42:30Z</time>
      </trkpt>
      <trkpt lat="49.71338" lon="4.01857">
        <ele>181.83</ele>
        <time>2021-08-08T13:42:39Z</time>
      </trkpt>
      <trkpt lat="49.71306" lon="4.01836">
        <ele>183.27</ele>
        <time>2021-08-08T13:42:51Z</time>
      </trkpt>
      <trkpt lat="49.7128" lon="4.01817">
        <ele>184.23</ele>
        <time>2021-08-08T13:43:01Z</time>
      </trkpt>
      <trkpt lat="49.71253" lon="4.018">
        <ele>183.75</ele>
        <time>2021-08-08T13:43:09Z</time>
      </trkpt>
      <trkpt lat="49.71248" lon="4.01797">
        <ele>183.75</ele>
        <time>2021-08-08T13:43:10Z</time>
      </trkpt>
      <trkpt lat="49.71223" lon="4.0178">
        <ele>181.83</ele>
        <time>2021-08-08T13:43:15Z</time>
      </trkpt>
      <trkpt lat="49.71199" lon="4.01763">
        <ele>179.9</ele>
        <time>2021-08-08T13:43:19Z</time>
      </trkpt>
      <trkpt lat="49.71171" lon="4.01745">
        <ele>177.98</ele>
        <time>2021-08-08T13:43:23Z</time>
      </trkpt>
      <trkpt lat="49.71127" lon="4.01713">
        <ele>174.62</ele>
        <time>2021-08-08T13:43:29Z</time>
      </trkpt>
      <trkpt lat="49.71086" lon="4.01687">
        <ele>174.14</ele>
        <time>2021-08-08T13:43:34Z</time>
      </trkpt>
      <trkpt lat="49.71028" lon="4.01648">
        <ele>171.25</ele>
        <time>2021-08-08T13:43:41Z</time>
      </trkpt>
      <trkpt lat="49.7102" lon="4.01643">
        <ele>171.25</ele>
        <time>2021-08-08T13:43:42Z</time>
      </trkpt>
      <trkpt lat="49.70959" lon="4.01602">
        <ele>171.25</ele>
        <time>2021-08-08T13:43:50Z</time>
      </trkpt>
      <trkpt lat="49.70908" lon="4.01567">
        <ele>172.21</ele>
        <time>2021-08-08T13:43:58Z</time>
      </trkpt>
      <trkpt lat="49.70848" lon="4.01531">
        <ele>172.21</ele>
        <time>2021-08-08T13:44:08Z</time>
      </trkpt>
      <trkpt lat="49.70818" lon="4.01517">
        <ele>169.33</ele>
        <time>2021-08-08T13:44:12Z</time>
      </trkpt>
      <trkpt lat="49.70802" lon="4.01509">
        <ele>168.37</ele>
        <time>2021-08-08T13:44:14Z</time>
      </trkpt>
      <trkpt lat="49.70778" lon="4.01498">
        <ele>163.56</ele>
        <time>2021-08-08T13:44:17Z</time>
      </trkpt>
      <trkpt lat="49.7077" lon="4.01494">
        <ele>163.56</ele>
        <time>2021-08-08T13:44:18Z</time>
      </trkpt>
      <trkpt lat="49.70736" lon="4.01478">
        <ele>161.16</ele>
        <time>2021-08-08T13:44:22Z</time>
      </trkpt>
      <trkpt lat="49.70652" lon="4.01438">
        <ele>158.27</ele>
        <time>2021-08-08T13:44:32Z</time>
      </trkpt>
      <trkpt lat="49.70635" lon="4.0143">
        <ele>157.31</ele>
        <time>2021-08-08T13:44:34Z</time>
      </trkpt>
      <trkpt lat="49.7061" lon="4.01418">
        <ele>153.95</ele>
        <time>2021-08-08T13:44:37Z</time>
      </trkpt>
      <trkpt lat="49.70601" lon="4.01415">
        <ele>153.95</ele>
        <time>2021-08-08T13:44:38Z</time>
      </trkpt>
      <trkpt lat="49.70548" lon="4.01402">
        <ele>151.54</ele>
        <time>2021-08-08T13:44:44Z</time>
      </trkpt>
      <trkpt lat="49.70507" lon="4.01401">
        <ele>148.66</ele>
        <time>2021-08-08T13:44:48Z</time>
      </trkpt>
      <trkpt lat="49.70464" lon="4.01407">
        <ele>145.3</ele>
        <time>2021-08-08T13:44:52Z</time>
      </trkpt>
      <trkpt lat="49.7043" lon="4.0141">
        <ele>142.41</ele>
        <time>2021-08-08T13:44:55Z</time>
      </trkpt>
      <trkpt lat="49.70394" lon="4.01416">
        <ele>138.57</ele>
        <time>2021-08-08T13:44:58Z</time>
      </trkpt>
      <trkpt lat="49.70383" lon="4.01418">
        <ele>138.57</ele>
        <time>2021-08-08T13:44:59Z</time>
      </trkpt>
      <trkpt lat="49.70346" lon="4.01423">
        <ele>134.72</ele>
        <time>2021-08-08T13:45:02Z</time>
      </trkpt>
      <trkpt lat="49.70298" lon="4.01431">
        <ele>131.84</ele>
        <time>2021-08-08T13:45:06Z</time>
      </trkpt>
      <trkpt lat="49.70249" lon="4.01439">
        <ele>127.03</ele>
        <time>2021-08-08T13:45:10Z</time>
      </trkpt>
      <trkpt lat="49.70225" lon="4.01442">
        <ele>125.59</ele>
        <time>2021-08-08T13:45:12Z</time>
      </trkpt>
      <trkpt lat="49.70189" lon="4.01447">
        <ele>121.74</ele>
        <time>2021-08-08T13:45:15Z</time>
      </trkpt>
      <trkpt lat="49.70177" lon="4.01449">
        <ele>122.22</ele>
        <time>2021-08-08T13:45:16Z</time>
      </trkpt>
      <trkpt lat="49.70153" lon="4.01453">
        <ele>119.82</ele>
        <time>2021-08-08T13:45:18Z</time>
      </trkpt>
      <trkpt lat="49.70118" lon="4.01458">
        <ele>118.38</ele>
        <time>2021-08-08T13:45:21Z</time>
      </trkpt>
      <trkpt lat="49.70061" lon="4.01465">
        <ele>115.5</ele>
        <time>2021-08-08T13:45:26Z</time>
      </trkpt>
      <trkpt lat="49.70029" lon="4.0147">
        <ele>114.53</ele>
        <time>2021-08-08T13:45:29Z</time>
      </trkpt>
      <trkpt lat="49.70011" lon="4.01472">
        <ele>115.5</ele>
        <time>2021-08-08T13:45:31Z</time>
      </trkpt>
      <trkpt lat="49.69984" lon="4.01475">
        <ele>116.94</ele>
        <time>2021-08-08T13:45:34Z</time>
      </trkpt>
      <trkpt lat="49.69916" lon="4.01485">
        <ele>115.5</ele>
        <time>2021-08-08T13:45:42Z</time>
      </trkpt>
      <trkpt lat="49.69866" lon="4.01492">
        <ele>115.98</ele>
        <time>2021-08-08T13:45:49Z</time>
      </trkpt>
      <trkpt lat="49.69809" lon="4.01501">
        <ele>114.53</ele>
        <time>2021-08-08T13:45:58Z</time>
      </trkpt>
      <trkpt lat="49.6976" lon="4.0152">
        <ele>113.57</ele>
        <time>2021-08-08T13:46:07Z</time>
      </trkpt>
      <trkpt lat="49.6971" lon="4.01537">
        <ele>113.57</ele>
        <time>2021-08-08T13:46:15Z</time>
      </trkpt>
      <trkpt lat="49.69666" lon="4.01551">
        <ele>114.53</ele>
        <time>2021-08-08T13:46:22Z</time>
      </trkpt>
      <trkpt lat="49.69633" lon="4.0155">
        <ele>116.46</ele>
        <time>2021-08-08T13:46:29Z</time>
      </trkpt>
      <trkpt lat="49.69629" lon="4.0155">
        <ele>116.46</ele>
        <time>2021-08-08T13:46:30Z</time>
      </trkpt>
      <trkpt lat="49.69599" lon="4.01549">
        <ele>116.94</ele>
        <time>2021-08-08T13:46:38Z</time>
      </trkpt>
      <trkpt lat="49.6957" lon="4.01549">
        <ele>119.34</ele>
        <time>2021-08-08T13:46:47Z</time>
      </trkpt>
      <trkpt lat="49.69559" lon="4.01542">
        <ele>119.34</ele>
        <time>2021-08-08T13:46:51Z</time>
      </trkpt>
      <trkpt lat="49.69552" lon="4.01529">
        <ele>119.34</ele>
        <time>2021-08-08T13:46:54Z</time>
      </trkpt>
      <trkpt lat="49.69539" lon="4.01478">
        <ele>116.46</ele>
        <time>2021-08-08T13:47:01Z</time>
      </trkpt>
      <trkpt lat="49.69522" lon="4.01392">
        <ele>115.5</ele>
        <time>2021-08-08T13:47:10Z</time>
      </trkpt>
      <trkpt lat="49.69501" lon="4.013">
        <ele>115.98</ele>
        <time>2021-08-08T13:47:20Z</time>
      </trkpt>
      <trkpt lat="49.69484" lon="4.01218">
        <ele>115.01</ele>
        <time>2021-08-08T13:47:30Z</time>
      </trkpt>
      <trkpt lat="49.69468" lon="4.01142">
        <ele>114.53</ele>
        <time>2021-08-08T13:47:39Z</time>
      </trkpt>
      <trkpt lat="49.69459" lon="4.01106">
        <ele>114.53</ele>
        <time>2021-08-08T13:47:44Z</time>
      </trkpt>
      <trkpt lat="49.69455" lon="4.01093">
        <ele>114.53</ele>
        <time>2021-08-08T13:47:46Z</time>
      </trkpt>
      <trkpt lat="49.69452" lon="4.01087">
        <ele>114.53</ele>
        <time>2021-08-08T13:47:47Z</time>
      </trkpt>
      <trkpt lat="49.69449" lon="4.01081">
        <ele>114.53</ele>
        <time>2021-08-08T13:47:48Z</time>
      </trkpt>
      <trkpt lat="49.69446" lon="4.01076">
        <ele>114.53</ele>
        <time>2021-08-08T13:47:49Z</time>
      </trkpt>
      <trkpt lat="49.69442" lon="4.01072">
        <ele>114.53</ele>
        <time>2021-08-08T13:47:50Z</time>
      </trkpt>
      <trkpt lat="49.69438" lon="4.01068">
        <ele>114.53</ele>
        <time>2021-08-08T13:47:51Z</time>
      </trkpt>
      <trkpt lat="49.69433" lon="4.01064">
        <ele>114.53</ele>
        <time>2021-08-08T13:47:52Z</time>
      </trkpt>
      <trkpt lat="49.69429" lon="4.01062">
        <ele>114.05</ele>
        <time>2021-08-08T13:47:53Z</time>
      </trkpt>
      <trkpt lat="49.69402" lon="4.0105">
        <ele>114.05</ele>
        <time>2021-08-08T13:47:59Z</time>
      </trkpt>
      <trkpt lat="49.69398" lon="4.01047">
        <ele>114.05</ele>
        <time>2021-08-08T13:48:00Z</time>
      </trkpt>
      <trkpt lat="49.69378" lon="4.01024">
        <ele>115.5</ele>
        <time>2021-08-08T13:48:07Z</time>
      </trkpt>
      <trkpt lat="49.69364" lon="4.01008">
        <ele>115.5</ele>
        <time>2021-08-08T13:48:12Z</time>
      </trkpt>
      <trkpt lat="49.6933" lon="4.00973">
        <ele>116.46</ele>
        <time>2021-08-08T13:48:23Z</time>
      </trkpt>
      <trkpt lat="49.69308" lon="4.00949">
        <ele>116.46</ele>
        <time>2021-08-08T13:48:31Z</time>
      </trkpt>
      <trkpt lat="49.69295" lon="4.00934">
        <ele>117.42</ele>
        <time>2021-08-08T13:48:37Z</time>
      </trkpt>
      <trkpt lat="49.69274" lon="4.00909">
        <ele>117.9</ele>
        <time>2021-08-08T13:48:46Z</time>
      </trkpt>
      <trkpt lat="49.69256" lon="4.00884">
        <ele>119.34</ele>
        <time>2021-08-08T13:48:55Z</time>
      </trkpt>
      <trkpt lat="49.69241" lon="4.00863">
        <ele>120.3</ele>
        <time>2021-08-08T13:49:02Z</time>
      </trkpt>
      <trkpt lat="49.69229" lon="4.00847">
        <ele>120.3</ele>
        <time>2021-08-08T13:49:08Z</time>
      </trkpt>
      <trkpt lat="49.69216" lon="4.00831">
        <ele>121.74</ele>
        <time>2021-08-08T13:49:15Z</time>
      </trkpt>
      <trkpt lat="49.69203" lon="4.00817">
        <ele>122.71</ele>
        <time>2021-08-08T13:49:22Z</time>
      </trkpt>
      <trkpt lat="49.69195" lon="4.00809">
        <ele>123.67</ele>
        <time>2021-08-08T13:49:28Z</time>
      </trkpt>
      <trkpt lat="49.69184" lon="4.00795">
        <ele>125.11</ele>
        <time>2021-08-08T13:49:36Z</time>
      </trkpt>
      <trkpt lat="49.69173" lon="4.00784">
        <ele>125.59</ele>
        <time>2021-08-08T13:49:43Z</time>
      </trkpt>
      <trkpt lat="49.69164" lon="4.00774">
        <ele>127.03</ele>
        <time>2021-08-08T13:49:49Z</time>
      </trkpt>
      <trkpt lat="49.69153" lon="4.00761">
        <ele>128.47</ele>
        <time>2021-08-08T13:49:57Z</time>
      </trkpt>
      <trkpt lat="49.69141" lon="4.00749">
        <ele>130.4</ele>
        <time>2021-08-08T13:50:05Z</time>
      </trkpt>
      <trkpt lat="49.69132" lon="4.00742">
        <ele>131.36</ele>
        <time>2021-08-08T13:50:13Z</time>
      </trkpt>
      <trkpt lat="49.69125" lon="4.00734">
        <ele>132.32</ele>
        <time>2021-08-08T13:50:20Z</time>
      </trkpt>
      <trkpt lat="49.6912" lon="4.00728">
        <ele>132.8</ele>
        <time>2021-08-08T13:50:25Z</time>
      </trkpt>
      <trkpt lat="49.69118" lon="4.00725">
        <ele>133.76</ele>
        <time>2021-08-08T13:50:26Z</time>
      </trkpt>
      <trkpt lat="49.69108" lon="4.00713">
        <ele>134.24</ele>
        <time>2021-08-08T13:50:35Z</time>
      </trkpt>
      <trkpt lat="49.69095" lon="4.00699">
        <ele>136.16</ele>
        <time>2021-08-08T13:50:44Z</time>
      </trkpt>
      <trkpt lat="49.69085" lon="4.00685">
        <ele>137.61</ele>
        <time>2021-08-08T13:50:53Z</time>
      </trkpt>
      <trkpt lat="49.69076" lon="4.00669">
        <ele>139.05</ele>
        <time>2021-08-08T13:51:01Z</time>
      </trkpt>
      <trkpt lat="49.69065" lon="4.00651">
        <ele>140.01</ele>
        <time>2021-08-08T13:51:10Z</time>
      </trkpt>
      <trkpt lat="49.69063" lon="4.00647">
        <ele>140.97</ele>
        <time>2021-08-08T13:51:12Z</time>
      </trkpt>
      <trkpt lat="49.69054" lon="4.00632">
        <ele>141.93</ele>
        <time>2021-08-08T13:51:20Z</time>
      </trkpt>
      <trkpt lat="49.69041" lon="4.00614">
        <ele>142.89</ele>
        <time>2021-08-08T13:51:30Z</time>
      </trkpt>
      <trkpt lat="49.69029" lon="4.00602">
        <ele>144.34</ele>
        <time>2021-08-08T13:51:37Z</time>
      </trkpt>
      <trkpt lat="49.69012" lon="4.00583">
        <ele>145.78</ele>
        <time>2021-08-08T13:51:46Z</time>
      </trkpt>
      <trkpt lat="49.68995" lon="4.00567">
        <ele>146.26</ele>
        <time>2021-08-08T13:51:54Z</time>
      </trkpt>
      <trkpt lat="49.6898" lon="4.00553">
        <ele>147.22</ele>
        <time>2021-08-08T13:52:01Z</time>
      </trkpt>
      <trkpt lat="49.68966" lon="4.00542">
        <ele>149.14</ele>
        <time>2021-08-08T13:52:08Z</time>
      </trkpt>
      <trkpt lat="49.6895" lon="4.00527">
        <ele>150.58</ele>
        <time>2021-08-08T13:52:16Z</time>
      </trkpt>
      <trkpt lat="49.68936" lon="4.00514">
        <ele>152.03</ele>
        <time>2021-08-08T13:52:23Z</time>
      </trkpt>
      <trkpt lat="49.68922" lon="4.005">
        <ele>153.95</ele>
        <time>2021-08-08T13:52:30Z</time>
      </trkpt>
      <trkpt lat="49.68906" lon="4.00482">
        <ele>154.91</ele>
        <time>2021-08-08T13:52:39Z</time>
      </trkpt>
      <trkpt lat="49.68893" lon="4.00466">
        <ele>155.87</ele>
        <time>2021-08-08T13:52:46Z</time>
      </trkpt>
      <trkpt lat="49.68882" lon="4.00453">
        <ele>156.35</ele>
        <time>2021-08-08T13:52:53Z</time>
      </trkpt>
      <trkpt lat="49.68871" lon="4.00441">
        <ele>157.31</ele>
        <time>2021-08-08T13:52:59Z</time>
      </trkpt>
      <trkpt lat="49.68861" lon="4.00427">
        <ele>157.31</ele>
        <time>2021-08-08T13:53:04Z</time>
      </trkpt>
      <trkpt lat="49.68841" lon="4.00405">
        <ele>155.87</ele>
        <time>2021-08-08T13:53:10Z</time>
      </trkpt>
      <trkpt lat="49.68838" lon="4.00401">
        <ele>155.87</ele>
        <time>2021-08-08T13:53:11Z</time>
      </trkpt>
      <trkpt lat="49.68808" lon="4.00371">
        <ele>154.91</ele>
        <time>2021-08-08T13:53:18Z</time>
      </trkpt>
      <trkpt lat="49.68771" lon="4.00333">
        <ele>153.95</ele>
        <time>2021-08-08T13:53:27Z</time>
      </trkpt>
      <trkpt lat="49.68737" lon="4.00297">
        <ele>153.95</ele>
        <time>2021-08-08T13:53:35Z</time>
      </trkpt>
      <trkpt lat="49.68711" lon="4.00271">
        <ele>152.51</ele>
        <time>2021-08-08T13:53:41Z</time>
      </trkpt>
      <trkpt lat="49.6867" lon="4.00223">
        <ele>152.99</ele>
        <time>2021-08-08T13:53:51Z</time>
      </trkpt>
      <trkpt lat="49.68628" lon="4.00179">
        <ele>152.99</ele>
        <time>2021-08-08T13:54:01Z</time>
      </trkpt>
      <trkpt lat="49.68596" lon="4.00157">
        <ele>152.99</ele>
        <time>2021-08-08T13:54:08Z</time>
      </trkpt>
      <trkpt lat="49.68592" lon="4.00155">
        <ele>152.99</ele>
        <time>2021-08-08T13:54:09Z</time>
      </trkpt>
      <trkpt lat="49.68587" lon="4.00152">
        <ele>153.47</ele>
        <time>2021-08-08T13:54:10Z</time>
      </trkpt>
      <trkpt lat="49.6855" lon="4.00132">
        <ele>153.47</ele>
        <time>2021-08-08T13:54:18Z</time>
      </trkpt>
      <trkpt lat="49.68504" lon="4.00106">
        <ele>154.43</ele>
        <time>2021-08-08T13:54:28Z</time>
      </trkpt>
      <trkpt lat="49.68459" lon="4.00071">
        <ele>155.87</ele>
        <time>2021-08-08T13:54:39Z</time>
      </trkpt>
      <trkpt lat="49.68426" lon="4.00035">
        <ele>155.39</ele>
        <time>2021-08-08T13:54:49Z</time>
      </trkpt>
      <trkpt lat="49.68419" lon="4.00028">
        <ele>155.39</ele>
        <time>2021-08-08T13:54:51Z</time>
      </trkpt>
      <trkpt lat="49.6841" lon="4.00017">
        <ele>153.47</ele>
        <time>2021-08-08T13:54:54Z</time>
      </trkpt>
      <trkpt lat="49.68387" lon="3.99994">
        <ele>153.47</ele>
        <time>2021-08-08T13:55:02Z</time>
      </trkpt>
      <trkpt lat="49.68359" lon="3.99955">
        <ele>153.47</ele>
        <time>2021-08-08T13:55:13Z</time>
      </trkpt>
      <trkpt lat="49.68324" lon="3.99916">
        <ele>153.47</ele>
        <time>2021-08-08T13:55:24Z</time>
      </trkpt>
      <trkpt lat="49.68317" lon="3.99908">
        <ele>153.47</ele>
        <time>2021-08-08T13:55:26Z</time>
      </trkpt>
      <trkpt lat="49.68278" lon="3.99869">
        <ele>152.99</ele>
        <time>2021-08-08T13:55:37Z</time>
      </trkpt>
      <trkpt lat="49.68246" lon="3.99839">
        <ele>152.99</ele>
        <time>2021-08-08T13:55:45Z</time>
      </trkpt>
      <trkpt lat="49.68235" lon="3.99825">
        <ele>152.99</ele>
        <time>2021-08-08T13:55:48Z</time>
      </trkpt>
      <trkpt lat="49.68205" lon="3.99792">
        <ele>150.1</ele>
        <time>2021-08-08T13:55:55Z</time>
      </trkpt>
      <trkpt lat="49.68184" lon="3.99769">
        <ele>150.1</ele>
        <time>2021-08-08T13:56:00Z</time>
      </trkpt>
      <trkpt lat="49.68174" lon="3.99757">
        <ele>150.1</ele>
        <time>2021-08-08T13:56:04Z</time>
      </trkpt>
      <trkpt lat="49.68173" lon="3.99753">
        <ele>150.1</ele>
        <time>2021-08-08T13:56:05Z</time>
      </trkpt>
      <trkpt lat="49.68181" lon="3.99737">
        <ele>150.1</ele>
        <time>2021-08-08T13:56:10Z</time>
      </trkpt>
      <trkpt lat="49.68183" lon="3.99733">
        <ele>150.1</ele>
        <time>2021-08-08T13:56:11Z</time>
      </trkpt>
      <trkpt lat="49.68198" lon="3.997">
        <ele>149.62</ele>
        <time>2021-08-08T13:56:19Z</time>
      </trkpt>
      <trkpt lat="49.682" lon="3.99678">
        <ele>149.62</ele>
        <time>2021-08-08T13:56:24Z</time>
      </trkpt>
      <trkpt lat="49.68195" lon="3.99647">
        <ele>149.62</ele>
        <time>2021-08-08T13:56:31Z</time>
      </trkpt>
      <trkpt lat="49.68182" lon="3.99628">
        <ele>149.14</ele>
        <time>2021-08-08T13:56:37Z</time>
      </trkpt>
      <trkpt lat="49.68163" lon="3.99625">
        <ele>148.18</ele>
        <time>2021-08-08T13:56:44Z</time>
      </trkpt>
      <trkpt lat="49.68144" lon="3.99629">
        <ele>148.18</ele>
        <time>2021-08-08T13:56:51Z</time>
      </trkpt>
      <trkpt lat="49.68126" lon="3.99635">
        <ele>147.7</ele>
        <time>2021-08-08T13:56:58Z</time>
      </trkpt>
      <trkpt lat="49.68121" lon="3.99637">
        <ele>149.14</ele>
        <time>2021-08-08T13:57:00Z</time>
      </trkpt>
      <trkpt lat="49.68102" lon="3.99643">
        <ele>149.62</ele>
        <time>2021-08-08T13:57:08Z</time>
      </trkpt>
      <trkpt lat="49.68099" lon="3.99641">
        <ele>150.1</ele>
        <time>2021-08-08T13:57:13Z</time>
      </trkpt>
      <trkpt lat="49.68099" lon="3.9964">
        <ele>150.1</ele>
        <time>2021-08-08T13:57:25Z</time>
      </trkpt>
      <trkpt lat="49.68099" lon="3.9964">
        <ele>150.1</ele>
        <time>2021-08-08T13:57:34Z</time>
      </trkpt>
      <trkpt lat="49.68099" lon="3.99639">
        <ele>150.1</ele>
        <time>2021-08-08T13:57:45Z</time>
      </trkpt>
      <trkpt lat="49.68099" lon="3.9964">
        <ele>150.58</ele>
        <time>2021-08-08T13:57:55Z</time>
      </trkpt>
      <trkpt lat="49.68099" lon="3.9964">
        <ele>150.58</ele>
        <time>2021-08-08T13:58:03Z</time>
      </trkpt>
      <trkpt lat="49.68099" lon="3.99639">
        <ele>150.58</ele>
        <time>2021-08-08T13:58:11Z</time>
      </trkpt>
      <trkpt lat="49.68094" lon="3.99637">
        <ele>150.58</ele>
        <time>2021-08-08T13:58:17Z</time>
      </trkpt>
      <trkpt lat="49.68084" lon="3.99626">
        <ele>150.58</ele>
        <time>2021-08-08T13:58:24Z</time>
      </trkpt>
      <trkpt lat="49.68066" lon="3.99605">
        <ele>151.06</ele>
        <time>2021-08-08T13:58:32Z</time>
      </trkpt>
      <trkpt lat="49.68047" lon="3.99576">
        <ele>151.06</ele>
        <time>2021-08-08T13:58:41Z</time>
      </trkpt>
      <trkpt lat="49.68032" lon="3.99556">
        <ele>151.54</ele>
        <time>2021-08-08T13:58:48Z</time>
      </trkpt>
      <trkpt lat="49.68011" lon="3.99523">
        <ele>152.03</ele>
        <time>2021-08-08T13:58:58Z</time>
      </trkpt>
      <trkpt lat="49.68001" lon="3.99507">
        <ele>151.06</ele>
        <time>2021-08-08T13:59:03Z</time>
      </trkpt>
      <trkpt lat="49.67984" lon="3.99473">
        <ele>149.62</ele>
        <time>2021-08-08T13:59:12Z</time>
      </trkpt>
      <trkpt lat="49.67966" lon="3.99426">
        <ele>148.66</ele>
        <time>2021-08-08T13:59:23Z</time>
      </trkpt>
      <trkpt lat="49.6795" lon="3.99389">
        <ele>147.7</ele>
        <time>2021-08-08T13:59:31Z</time>
      </trkpt>
      <trkpt lat="49.67931" lon="3.99344">
        <ele>147.7</ele>
        <time>2021-08-08T13:59:41Z</time>
      </trkpt>
      <trkpt lat="49.6791" lon="3.99294">
        <ele>147.7</ele>
        <time>2021-08-08T13:59:53Z</time>
      </trkpt>
      <trkpt lat="49.67902" lon="3.99289">
        <ele>147.7</ele>
        <time>2021-08-08T13:59:56Z</time>
      </trkpt>
      <trkpt lat="49.67899" lon="3.9929">
        <ele>147.7</ele>
        <time>2021-08-08T13:59:57Z</time>
      </trkpt>
      <trkpt lat="49.67896" lon="3.99291">
        <ele>147.7</ele>
        <time>2021-08-08T13:59:58Z</time>
      </trkpt>
      <trkpt lat="49.6789" lon="3.99296">
        <ele>149.62</ele>
        <time>2021-08-08T14:00:00Z</time>
      </trkpt>
      <trkpt lat="49.67873" lon="3.99308">
        <ele>150.1</ele>
        <time>2021-08-08T14:00:06Z</time>
      </trkpt>
      <trkpt lat="49.6786" lon="3.99318">
        <ele>151.54</ele>
        <time>2021-08-08T14:00:12Z</time>
      </trkpt>
      <trkpt lat="49.67839" lon="3.99333">
        <ele>150.1</ele>
        <time>2021-08-08T14:00:19Z</time>
      </trkpt>
      <trkpt lat="49.67836" lon="3.99335">
        <ele>150.1</ele>
        <time>2021-08-08T14:00:20Z</time>
      </trkpt>
      <trkpt lat="49.67814" lon="3.99348">
        <ele>151.06</ele>
        <time>2021-08-08T14:00:27Z</time>
      </trkpt>
      <trkpt lat="49.67798" lon="3.99358">
        <ele>149.62</ele>
        <time>2021-08-08T14:00:32Z</time>
      </trkpt>
      <trkpt lat="49.67764" lon="3.99377">
        <ele>151.54</ele>
        <time>2021-08-08T14:00:42Z</time>
      </trkpt>
      <trkpt lat="49.67728" lon="3.99398">
        <ele>151.54</ele>
        <time>2021-08-08T14:00:52Z</time>
      </trkpt>
      <trkpt lat="49.67717" lon="3.99404">
        <ele>149.62</ele>
        <time>2021-08-08T14:00:55Z</time>
      </trkpt>
      <trkpt lat="49.67686" lon="3.99421">
        <ele>149.62</ele>
        <time>2021-08-08T14:01:04Z</time>
      </trkpt>
      <trkpt lat="49.67645" lon="3.99442">
        <ele>147.7</ele>
        <time>2021-08-08T14:01:14Z</time>
      </trkpt>
      <trkpt lat="49.6764" lon="3.99444">
        <ele>147.7</ele>
        <time>2021-08-08T14:01:15Z</time>
      </trkpt>
      <trkpt lat="49.67601" lon="3.99461">
        <ele>144.82</ele>
        <time>2021-08-08T14:01:23Z</time>
      </trkpt>
      <trkpt lat="49.67592" lon="3.99465">
        <ele>146.26</ele>
        <time>2021-08-08T14:01:25Z</time>
      </trkpt>
      <trkpt lat="49.67575" lon="3.99469">
        <ele>145.3</ele>
        <time>2021-08-08T14:01:30Z</time>
      </trkpt>
      <trkpt lat="49.67573" lon="3.99467">
        <ele>145.3</ele>
        <time>2021-08-08T14:01:31Z</time>
      </trkpt>
      <trkpt lat="49.67571" lon="3.99464">
        <ele>145.3</ele>
        <time>2021-08-08T14:01:32Z</time>
      </trkpt>
      <trkpt lat="49.67569" lon="3.9946">
        <ele>145.3</ele>
        <time>2021-08-08T14:01:33Z</time>
      </trkpt>
      <trkpt lat="49.67567" lon="3.99456">
        <ele>145.3</ele>
        <time>2021-08-08T14:01:34Z</time>
      </trkpt>
      <trkpt lat="49.67565" lon="3.99453">
        <ele>145.3</ele>
        <time>2021-08-08T14:01:35Z</time>
      </trkpt>
      <trkpt lat="49.67549" lon="3.99425">
        <ele>146.26</ele>
        <time>2021-08-08T14:01:42Z</time>
      </trkpt>
      <trkpt lat="49.67529" lon="3.99395">
        <ele>146.74</ele>
        <time>2021-08-08T14:01:50Z</time>
      </trkpt>
      <trkpt lat="49.6751" lon="3.99364">
        <ele>147.22</ele>
        <time>2021-08-08T14:01:58Z</time>
      </trkpt>
      <trkpt lat="49.67484" lon="3.99325">
        <ele>146.26</ele>
        <time>2021-08-08T14:02:08Z</time>
      </trkpt>
      <trkpt lat="49.67479" lon="3.99317">
        <ele>147.7</ele>
        <time>2021-08-08T14:02:10Z</time>
      </trkpt>
      <trkpt lat="49.67462" lon="3.99292">
        <ele>146.26</ele>
        <time>2021-08-08T14:02:16Z</time>
      </trkpt>
      <trkpt lat="49.6744" lon="3.99258">
        <ele>145.78</ele>
        <time>2021-08-08T14:02:24Z</time>
      </trkpt>
      <trkpt lat="49.67434" lon="3.99249">
        <ele>147.7</ele>
        <time>2021-08-08T14:02:26Z</time>
      </trkpt>
      <trkpt lat="49.674" lon="3.99197">
        <ele>147.7</ele>
        <time>2021-08-08T14:02:37Z</time>
      </trkpt>
      <trkpt lat="49.67366" lon="3.99146">
        <ele>148.18</ele>
        <time>2021-08-08T14:02:48Z</time>
      </trkpt>
      <trkpt lat="49.67359" lon="3.99138">
        <ele>148.18</ele>
        <time>2021-08-08T14:02:50Z</time>
      </trkpt>
      <trkpt lat="49.67355" lon="3.99136">
        <ele>148.18</ele>
        <time>2021-08-08T14:02:51Z</time>
      </trkpt>
      <trkpt lat="49.67334" lon="3.99127">
        <ele>147.22</ele>
        <time>2021-08-08T14:02:56Z</time>
      </trkpt>
      <trkpt lat="49.67294" lon="3.99109">
        <ele>147.22</ele>
        <time>2021-08-08T14:03:05Z</time>
      </trkpt>
      <trkpt lat="49.67247" lon="3.99073">
        <ele>145.3</ele>
        <time>2021-08-08T14:03:14Z</time>
      </trkpt>
      <trkpt lat="49.67194" lon="3.99018">
        <ele>143.85</ele>
        <time>2021-08-08T14:03:24Z</time>
      </trkpt>
      <trkpt lat="49.67147" lon="3.98976">
        <ele>140.97</ele>
        <time>2021-08-08T14:03:32Z</time>
      </trkpt>
      <trkpt lat="49.67085" lon="3.98923">
        <ele>140.49</ele>
        <time>2021-08-08T14:03:42Z</time>
      </trkpt>
      <trkpt lat="49.67069" lon="3.98904">
        <ele>140.49</ele>
        <time>2021-08-08T14:03:45Z</time>
      </trkpt>
      <trkpt lat="49.6706" lon="3.98889">
        <ele>140.49</ele>
        <time>2021-08-08T14:03:47Z</time>
      </trkpt>
      <trkpt lat="49.67056" lon="3.98881">
        <ele>140.49</ele>
        <time>2021-08-08T14:03:48Z</time>
      </trkpt>
      <trkpt lat="49.67053" lon="3.98872">
        <ele>140.49</ele>
        <time>2021-08-08T14:03:49Z</time>
      </trkpt>
      <trkpt lat="49.6705" lon="3.98863">
        <ele>140.49</ele>
        <time>2021-08-08T14:03:50Z</time>
      </trkpt>
      <trkpt lat="49.67048" lon="3.98854">
        <ele>140.49</ele>
        <time>2021-08-08T14:03:51Z</time>
      </trkpt>
      <trkpt lat="49.67034" lon="3.98787">
        <ele>138.09</ele>
        <time>2021-08-08T14:03:58Z</time>
      </trkpt>
      <trkpt lat="49.67019" lon="3.98723">
        <ele>135.68</ele>
        <time>2021-08-08T14:04:04Z</time>
      </trkpt>
      <trkpt lat="49.67001" lon="3.98667">
        <ele>134.72</ele>
        <time>2021-08-08T14:04:10Z</time>
      </trkpt>
      <trkpt lat="49.66997" lon="3.9866">
        <ele>134.72</ele>
        <time>2021-08-08T14:04:11Z</time>
      </trkpt>
      <trkpt lat="49.66993" lon="3.98653">
        <ele>134.72</ele>
        <time>2021-08-08T14:04:12Z</time>
      </trkpt>
      <trkpt lat="49.66989" lon="3.98648">
        <ele>134.72</ele>
        <time>2021-08-08T14:04:13Z</time>
      </trkpt>
      <trkpt lat="49.66983" lon="3.98642">
        <ele>136.64</ele>
        <time>2021-08-08T14:04:14Z</time>
      </trkpt>
      <trkpt lat="49.66979" lon="3.98638">
        <ele>137.61</ele>
        <time>2021-08-08T14:04:15Z</time>
      </trkpt>
      <trkpt lat="49.66975" lon="3.98634">
        <ele>137.61</ele>
        <time>2021-08-08T14:04:16Z</time>
      </trkpt>
      <trkpt lat="49.66943" lon="3.98604">
        <ele>138.57</ele>
        <time>2021-08-08T14:04:24Z</time>
      </trkpt>
      <trkpt lat="49.66921" lon="3.98583">
        <ele>139.05</ele>
        <time>2021-08-08T14:04:31Z</time>
      </trkpt>
      <trkpt lat="49.66896" lon="3.98561">
        <ele>141.45</ele>
        <time>2021-08-08T14:04:40Z</time>
      </trkpt>
      <trkpt lat="49.66872" lon="3.98539">
        <ele>143.37</ele>
        <time>2021-08-08T14:04:50Z</time>
      </trkpt>
      <trkpt lat="49.66853" lon="3.98521">
        <ele>143.85</ele>
        <time>2021-08-08T14:04:58Z</time>
      </trkpt>
      <trkpt lat="49.66833" lon="3.98501">
        <ele>146.74</ele>
        <time>2021-08-08T14:05:06Z</time>
      </trkpt>
      <trkpt lat="49.6683" lon="3.98499">
        <ele>146.74</ele>
        <time>2021-08-08T14:05:07Z</time>
      </trkpt>
      <trkpt lat="49.66812" lon="3.98481">
        <ele>146.74</ele>
        <time>2021-08-08T14:05:14Z</time>
      </trkpt>
      <trkpt lat="49.66798" lon="3.98468">
        <ele>147.22</ele>
        <time>2021-08-08T14:05:20Z</time>
      </trkpt>
      <trkpt lat="49.66774" lon="3.98446">
        <ele>148.18</ele>
        <time>2021-08-08T14:05:31Z</time>
      </trkpt>
      <trkpt lat="49.66767" lon="3.98438">
        <ele>148.66</ele>
        <time>2021-08-08T14:05:35Z</time>
      </trkpt>
      <trkpt lat="49.66766" lon="3.98434">
        <ele>148.66</ele>
        <time>2021-08-08T14:05:36Z</time>
      </trkpt>
      <trkpt lat="49.66766" lon="3.9843">
        <ele>148.66</ele>
        <time>2021-08-08T14:05:37Z</time>
      </trkpt>
      <trkpt lat="49.66766" lon="3.98425">
        <ele>149.14</ele>
        <time>2021-08-08T14:05:38Z</time>
      </trkpt>
      <trkpt lat="49.66767" lon="3.98421">
        <ele>149.14</ele>
        <time>2021-08-08T14:05:39Z</time>
      </trkpt>
      <trkpt lat="49.66777" lon="3.98392">
        <ele>149.14</ele>
        <time>2021-08-08T14:05:46Z</time>
      </trkpt>
      <trkpt lat="49.66776" lon="3.98378">
        <ele>147.7</ele>
        <time>2021-08-08T14:05:49Z</time>
      </trkpt>
      <trkpt lat="49.66774" lon="3.98375">
        <ele>147.7</ele>
        <time>2021-08-08T14:05:50Z</time>
      </trkpt>
      <trkpt lat="49.66767" lon="3.9837">
        <ele>149.14</ele>
        <time>2021-08-08T14:05:53Z</time>
      </trkpt>
      <trkpt lat="49.66765" lon="3.98369">
        <ele>149.14</ele>
        <time>2021-08-08T14:05:54Z</time>
      </trkpt>
      <trkpt lat="49.66762" lon="3.98368">
        <ele>149.14</ele>
        <time>2021-08-08T14:05:55Z</time>
      </trkpt>
      <trkpt lat="49.66759" lon="3.98366">
        <ele>149.14</ele>
        <time>2021-08-08T14:05:56Z</time>
      </trkpt>
      <trkpt lat="49.66731" lon="3.98347">
        <ele>149.14</ele>
        <time>2021-08-08T14:06:04Z</time>
      </trkpt>
      <trkpt lat="49.66695" lon="3.98325">
        <ele>149.62</ele>
        <time>2021-08-08T14:06:14Z</time>
      </trkpt>
      <trkpt lat="49.66667" lon="3.98307">
        <ele>148.18</ele>
        <time>2021-08-08T14:06:21Z</time>
      </trkpt>
      <trkpt lat="49.66649" lon="3.98295">
        <ele>147.7</ele>
        <time>2021-08-08T14:06:26Z</time>
      </trkpt>
      <trkpt lat="49.66611" lon="3.98269">
        <ele>148.18</ele>
        <time>2021-08-08T14:06:36Z</time>
      </trkpt>
      <trkpt lat="49.66564" lon="3.98238">
        <ele>149.14</ele>
        <time>2021-08-08T14:06:49Z</time>
      </trkpt>
      <trkpt lat="49.6656" lon="3.98235">
        <ele>149.14</ele>
        <time>2021-08-08T14:06:50Z</time>
      </trkpt>
      <trkpt lat="49.66525" lon="3.98212">
        <ele>147.7</ele>
        <time>2021-08-08T14:06:59Z</time>
      </trkpt>
      <trkpt lat="49.66488" lon="3.98187">
        <ele>147.7</ele>
        <time>2021-08-08T14:07:08Z</time>
      </trkpt>
      <trkpt lat="49.66439" lon="3.98155">
        <ele>146.26</ele>
        <time>2021-08-08T14:07:19Z</time>
      </trkpt>
      <trkpt lat="49.66426" lon="3.98146">
        <ele>146.26</ele>
        <time>2021-08-08T14:07:22Z</time>
      </trkpt>
      <trkpt lat="49.66422" lon="3.98144">
        <ele>146.26</ele>
        <time>2021-08-08T14:07:23Z</time>
      </trkpt>
      <trkpt lat="49.66387" lon="3.9812">
        <ele>144.34</ele>
        <time>2021-08-08T14:07:32Z</time>
      </trkpt>
      <trkpt lat="49.66382" lon="3.98118">
        <ele>144.34</ele>
        <time>2021-08-08T14:07:33Z</time>
      </trkpt>
      <trkpt lat="49.66378" lon="3.98117">
        <ele>144.34</ele>
        <time>2021-08-08T14:07:34Z</time>
      </trkpt>
      <trkpt lat="49.66374" lon="3.98117">
        <ele>144.34</ele>
        <time>2021-08-08T14:07:35Z</time>
      </trkpt>
      <trkpt lat="49.66371" lon="3.98119">
        <ele>146.26</ele>
        <time>2021-08-08T14:07:36Z</time>
      </trkpt>
      <trkpt lat="49.66368" lon="3.98122">
        <ele>146.26</ele>
        <time>2021-08-08T14:07:37Z</time>
      </trkpt>
      <trkpt lat="49.66366" lon="3.98125">
        <ele>146.26</ele>
        <time>2021-08-08T14:07:38Z</time>
      </trkpt>
      <trkpt lat="49.66363" lon="3.98128">
        <ele>146.26</ele>
        <time>2021-08-08T14:07:39Z</time>
      </trkpt>
      <trkpt lat="49.66361" lon="3.9813">
        <ele>146.26</ele>
        <time>2021-08-08T14:07:40Z</time>
      </trkpt>
      <trkpt lat="49.66359" lon="3.9813">
        <ele>144.82</ele>
        <time>2021-08-08T14:07:41Z</time>
      </trkpt>
      <trkpt lat="49.66357" lon="3.98128">
        <ele>144.82</ele>
        <time>2021-08-08T14:07:42Z</time>
      </trkpt>
      <trkpt lat="49.66355" lon="3.98125">
        <ele>144.82</ele>
        <time>2021-08-08T14:07:43Z</time>
      </trkpt>
      <trkpt lat="49.66354" lon="3.98122">
        <ele>144.82</ele>
        <time>2021-08-08T14:07:44Z</time>
      </trkpt>
      <trkpt lat="49.66353" lon="3.9812">
        <ele>144.82</ele>
        <time>2021-08-08T14:07:45Z</time>
      </trkpt>
      <trkpt lat="49.66351" lon="3.98117">
        <ele>144.82</ele>
        <time>2021-08-08T14:07:46Z</time>
      </trkpt>
      <trkpt lat="49.66346" lon="3.98112">
        <ele>144.82</ele>
        <time>2021-08-08T14:07:50Z</time>
      </trkpt>
      <trkpt lat="49.66345" lon="3.98113">
        <ele>144.82</ele>
        <time>2021-08-08T14:07:51Z</time>
      </trkpt>
      <trkpt lat="49.66345" lon="3.98115">
        <ele>146.26</ele>
        <time>2021-08-08T14:07:52Z</time>
      </trkpt>
      <trkpt lat="49.66347" lon="3.98116">
        <ele>146.26</ele>
        <time>2021-08-08T14:07:53Z</time>
      </trkpt>
      <trkpt lat="49.66348" lon="3.98115">
        <ele>146.26</ele>
        <time>2021-08-08T14:07:54Z</time>
      </trkpt>
      <trkpt lat="49.66348" lon="3.98113">
        <ele>146.26</ele>
        <time>2021-08-08T14:07:55Z</time>
      </trkpt>
      <trkpt lat="49.66348" lon="3.98111">
        <ele>146.26</ele>
        <time>2021-08-08T14:07:56Z</time>
      </trkpt>
      <trkpt lat="49.6634" lon="3.98105">
        <ele>144.82</ele>
        <time>2021-08-08T14:08:01Z</time>
      </trkpt>
      <trkpt lat="49.66319" lon="3.98094">
        <ele>143.85</ele>
        <time>2021-08-08T14:08:09Z</time>
      </trkpt>
      <trkpt lat="49.66305" lon="3.98088">
        <ele>142.41</ele>
        <time>2021-08-08T14:08:13Z</time>
      </trkpt>
      <trkpt lat="49.6629" lon="3.98081">
        <ele>143.37</ele>
        <time>2021-08-08T14:08:17Z</time>
      </trkpt>
      <trkpt lat="49.66273" lon="3.98072">
        <ele>142.41</ele>
        <time>2021-08-08T14:08:22Z</time>
      </trkpt>
      <trkpt lat="49.66239" lon="3.98048">
        <ele>143.37</ele>
        <time>2021-08-08T14:08:32Z</time>
      </trkpt>
      <trkpt lat="49.66205" lon="3.98008">
        <ele>142.89</ele>
        <time>2021-08-08T14:08:44Z</time>
      </trkpt>
      <trkpt lat="49.66175" lon="3.9797">
        <ele>144.34</ele>
        <time>2021-08-08T14:08:55Z</time>
      </trkpt>
      <trkpt lat="49.66159" lon="3.97949">
        <ele>142.89</ele>
        <time>2021-08-08T14:09:01Z</time>
      </trkpt>
      <trkpt lat="49.66136" lon="3.97916">
        <ele>144.34</ele>
        <time>2021-08-08T14:09:10Z</time>
      </trkpt>
      <trkpt lat="49.66108" lon="3.9788">
        <ele>144.82</ele>
        <time>2021-08-08T14:09:20Z</time>
      </trkpt>
      <trkpt lat="49.66082" lon="3.97842">
        <ele>143.85</ele>
        <time>2021-08-08T14:09:30Z</time>
      </trkpt>
      <trkpt lat="49.66076" lon="3.97833">
        <ele>144.82</ele>
        <time>2021-08-08T14:09:32Z</time>
      </trkpt>
      <trkpt lat="49.66071" lon="3.97824">
        <ele>143.85</ele>
        <time>2021-08-08T14:09:34Z</time>
      </trkpt>
      <trkpt lat="49.66042" lon="3.97772">
        <ele>143.37</ele>
        <time>2021-08-08T14:09:45Z</time>
      </trkpt>
      <trkpt lat="49.66019" lon="3.97721">
        <ele>143.37</ele>
        <time>2021-08-08T14:09:55Z</time>
      </trkpt>
      <trkpt lat="49.65989" lon="3.97661">
        <ele>143.37</ele>
        <time>2021-08-08T14:10:07Z</time>
      </trkpt>
      <trkpt lat="49.65986" lon="3.97656">
        <ele>143.37</ele>
        <time>2021-08-08T14:10:08Z</time>
      </trkpt>
      <trkpt lat="49.65951" lon="3.97607">
        <ele>142.41</ele>
        <time>2021-08-08T14:10:19Z</time>
      </trkpt>
      <trkpt lat="49.65922" lon="3.97567">
        <ele>142.41</ele>
        <time>2021-08-08T14:10:29Z</time>
      </trkpt>
      <trkpt lat="49.6591" lon="3.9755">
        <ele>143.37</ele>
        <time>2021-08-08T14:10:33Z</time>
      </trkpt>
      <trkpt lat="49.65874" lon="3.97501">
        <ele>142.89</ele>
        <time>2021-08-08T14:10:45Z</time>
      </trkpt>
      <trkpt lat="49.65865" lon="3.9749">
        <ele>144.34</ele>
        <time>2021-08-08T14:10:48Z</time>
      </trkpt>
      <trkpt lat="49.65831" lon="3.97446">
        <ele>144.34</ele>
        <time>2021-08-08T14:10:59Z</time>
      </trkpt>
      <trkpt lat="49.65799" lon="3.97409">
        <ele>142.89</ele>
        <time>2021-08-08T14:11:09Z</time>
      </trkpt>
      <trkpt lat="49.65792" lon="3.97401">
        <ele>144.34</ele>
        <time>2021-08-08T14:11:11Z</time>
      </trkpt>
      <trkpt lat="49.65764" lon="3.97375">
        <ele>144.34</ele>
        <time>2021-08-08T14:11:19Z</time>
      </trkpt>
      <trkpt lat="49.6574" lon="3.97353">
        <ele>143.37</ele>
        <time>2021-08-08T14:11:25Z</time>
      </trkpt>
      <trkpt lat="49.65715" lon="3.9733">
        <ele>141.45</ele>
        <time>2021-08-08T14:11:31Z</time>
      </trkpt>
      <trkpt lat="49.65673" lon="3.97289">
        <ele>142.41</ele>
        <time>2021-08-08T14:11:41Z</time>
      </trkpt>
      <trkpt lat="49.65634" lon="3.97244">
        <ele>140.49</ele>
        <time>2021-08-08T14:11:51Z</time>
      </trkpt>
      <trkpt lat="49.65597" lon="3.97198">
        <ele>140.49</ele>
        <time>2021-08-08T14:12:01Z</time>
      </trkpt>
      <trkpt lat="49.65587" lon="3.97186">
        <ele>140.49</ele>
        <time>2021-08-08T14:12:04Z</time>
      </trkpt>
      <trkpt lat="49.65565" lon="3.97159">
        <ele>140.49</ele>
        <time>2021-08-08T14:12:10Z</time>
      </trkpt>
      <trkpt lat="49.65554" lon="3.97145">
        <ele>139.53</ele>
        <time>2021-08-08T14:12:13Z</time>
      </trkpt>
      <trkpt lat="49.65521" lon="3.97095">
        <ele>139.53</ele>
        <time>2021-08-08T14:12:23Z</time>
      </trkpt>
      <trkpt lat="49.65495" lon="3.9704">
        <ele>138.57</ele>
        <time>2021-08-08T14:12:33Z</time>
      </trkpt>
      <trkpt lat="49.65474" lon="3.96996">
        <ele>137.61</ele>
        <time>2021-08-08T14:12:41Z</time>
      </trkpt>
      <trkpt lat="49.65444" lon="3.96934">
        <ele>137.13</ele>
        <time>2021-08-08T14:12:52Z</time>
      </trkpt>
      <trkpt lat="49.65428" lon="3.969">
        <ele>137.13</ele>
        <time>2021-08-08T14:12:58Z</time>
      </trkpt>
      <trkpt lat="49.65409" lon="3.96864">
        <ele>135.68</ele>
        <time>2021-08-08T14:13:05Z</time>
      </trkpt>
      <trkpt lat="49.65383" lon="3.96818">
        <ele>136.16</ele>
        <time>2021-08-08T14:13:15Z</time>
      </trkpt>
      <trkpt lat="49.65358" lon="3.96771">
        <ele>135.2</ele>
        <time>2021-08-08T14:13:26Z</time>
      </trkpt>
      <trkpt lat="49.65332" lon="3.96724">
        <ele>138.09</ele>
        <time>2021-08-08T14:13:37Z</time>
      </trkpt>
      <trkpt lat="49.65309" lon="3.96681">
        <ele>138.57</ele>
        <time>2021-08-08T14:13:47Z</time>
      </trkpt>
      <trkpt lat="49.65287" lon="3.96638">
        <ele>138.57</ele>
        <time>2021-08-08T14:13:57Z</time>
      </trkpt>
      <trkpt lat="49.65271" lon="3.9661">
        <ele>139.05</ele>
        <time>2021-08-08T14:14:04Z</time>
      </trkpt>
      <trkpt lat="49.65255" lon="3.96581">
        <ele>139.05</ele>
        <time>2021-08-08T14:14:11Z</time>
      </trkpt>
      <trkpt lat="49.65239" lon="3.9655">
        <ele>139.05</ele>
        <time>2021-08-08T14:14:19Z</time>
      </trkpt>
      <trkpt lat="49.65227" lon="3.96528">
        <ele>137.61</ele>
        <time>2021-08-08T14:14:24Z</time>
      </trkpt>
      <trkpt lat="49.65205" lon="3.96489">
        <ele>137.61</ele>
        <time>2021-08-08T14:14:34Z</time>
      </trkpt>
      <trkpt lat="49.65182" lon="3.96447">
        <ele>137.61</ele>
        <time>2021-08-08T14:14:42Z</time>
      </trkpt>
      <trkpt lat="49.65175" lon="3.96435">
        <ele>137.13</ele>
        <time>2021-08-08T14:14:44Z</time>
      </trkpt>
      <trkpt lat="49.65172" lon="3.96429">
        <ele>136.64</ele>
        <time>2021-08-08T14:14:45Z</time>
      </trkpt>
      <trkpt lat="49.65145" lon="3.96382">
        <ele>135.68</ele>
        <time>2021-08-08T14:14:53Z</time>
      </trkpt>
      <trkpt lat="49.65102" lon="3.96325">
        <ele>135.68</ele>
        <time>2021-08-08T14:15:03Z</time>
      </trkpt>
      <trkpt lat="49.65065" lon="3.96277">
        <ele>134.24</ele>
        <time>2021-08-08T14:15:11Z</time>
      </trkpt>
      <trkpt lat="49.65028" lon="3.96227">
        <ele>134.24</ele>
        <time>2021-08-08T14:15:19Z</time>
      </trkpt>
      <trkpt lat="49.64991" lon="3.96177">
        <ele>133.28</ele>
        <time>2021-08-08T14:15:27Z</time>
      </trkpt>
      <trkpt lat="49.64953" lon="3.9613">
        <ele>133.28</ele>
        <time>2021-08-08T14:15:35Z</time>
      </trkpt>
      <trkpt lat="49.64908" lon="3.96082">
        <ele>133.28</ele>
        <time>2021-08-08T14:15:44Z</time>
      </trkpt>
      <trkpt lat="49.64863" lon="3.96052">
        <ele>132.32</ele>
        <time>2021-08-08T14:15:52Z</time>
      </trkpt>
      <trkpt lat="49.6485" lon="3.96047">
        <ele>132.32</ele>
        <time>2021-08-08T14:15:54Z</time>
      </trkpt>
      <trkpt lat="49.64844" lon="3.96045">
        <ele>131.84</ele>
        <time>2021-08-08T14:15:55Z</time>
      </trkpt>
      <trkpt lat="49.6479" lon="3.96032">
        <ele>131.84</ele>
        <time>2021-08-08T14:16:04Z</time>
      </trkpt>
      <trkpt lat="49.64751" lon="3.96021">
        <ele>131.84</ele>
        <time>2021-08-08T14:16:11Z</time>
      </trkpt>
      <trkpt lat="49.64746" lon="3.96019">
        <ele>131.84</ele>
        <time>2021-08-08T14:16:12Z</time>
      </trkpt>
      <trkpt lat="49.64701" lon="3.95994">
        <ele>131.36</ele>
        <time>2021-08-08T14:16:21Z</time>
      </trkpt>
      <trkpt lat="49.64662" lon="3.95969">
        <ele>130.4</ele>
        <time>2021-08-08T14:16:29Z</time>
      </trkpt>
      <trkpt lat="49.64653" lon="3.95963">
        <ele>131.84</ele>
        <time>2021-08-08T14:16:31Z</time>
      </trkpt>
      <trkpt lat="49.64636" lon="3.95951">
        <ele>130.4</ele>
        <time>2021-08-08T14:16:35Z</time>
      </trkpt>
      <trkpt lat="49.64623" lon="3.95943">
        <ele>128.95</ele>
        <time>2021-08-08T14:16:38Z</time>
      </trkpt>
      <trkpt lat="49.64577" lon="3.95908">
        <ele>128.47</ele>
        <time>2021-08-08T14:16:48Z</time>
      </trkpt>
      <trkpt lat="49.64527" lon="3.95871">
        <ele>127.03</ele>
        <time>2021-08-08T14:16:58Z</time>
      </trkpt>
      <trkpt lat="49.64517" lon="3.95863">
        <ele>126.07</ele>
        <time>2021-08-08T14:17:00Z</time>
      </trkpt>
      <trkpt lat="49.64512" lon="3.9586">
        <ele>126.07</ele>
        <time>2021-08-08T14:17:01Z</time>
      </trkpt>
      <trkpt lat="49.64483" lon="3.9584">
        <ele>124.15</ele>
        <time>2021-08-08T14:17:07Z</time>
      </trkpt>
      <trkpt lat="49.64437" lon="3.95817">
        <ele>123.19</ele>
        <time>2021-08-08T14:17:17Z</time>
      </trkpt>
      <trkpt lat="49.64423" lon="3.95811">
        <ele>124.63</ele>
        <time>2021-08-08T14:17:20Z</time>
      </trkpt>
      <trkpt lat="49.64396" lon="3.95801">
        <ele>123.19</ele>
        <time>2021-08-08T14:17:26Z</time>
      </trkpt>
      <trkpt lat="49.64351" lon="3.95787">
        <ele>122.71</ele>
        <time>2021-08-08T14:17:36Z</time>
      </trkpt>
      <trkpt lat="49.6433" lon="3.95782">
        <ele>122.22</ele>
        <time>2021-08-08T14:17:41Z</time>
      </trkpt>
      <trkpt lat="49.64307" lon="3.95771">
        <ele>122.22</ele>
        <time>2021-08-08T14:17:47Z</time>
      </trkpt>
      <trkpt lat="49.64269" lon="3.9574">
        <ele>122.22</ele>
        <time>2021-08-08T14:17:57Z</time>
      </trkpt>
      <trkpt lat="49.64233" lon="3.95706">
        <ele>122.22</ele>
        <time>2021-08-08T14:18:07Z</time>
      </trkpt>
      <trkpt lat="49.64195" lon="3.9567">
        <ele>122.71</ele>
        <time>2021-08-08T14:18:17Z</time>
      </trkpt>
      <trkpt lat="49.64173" lon="3.95647">
        <ele>122.71</ele>
        <time>2021-08-08T14:18:23Z</time>
      </trkpt>
      <trkpt lat="49.64169" lon="3.95644">
        <ele>122.71</ele>
        <time>2021-08-08T14:18:24Z</time>
      </trkpt>
      <trkpt lat="49.64166" lon="3.95641">
        <ele>122.71</ele>
        <time>2021-08-08T14:18:25Z</time>
      </trkpt>
      <trkpt lat="49.64162" lon="3.95638">
        <ele>121.26</ele>
        <time>2021-08-08T14:18:26Z</time>
      </trkpt>
      <trkpt lat="49.64159" lon="3.95635">
        <ele>121.26</ele>
        <time>2021-08-08T14:18:27Z</time>
      </trkpt>
      <trkpt lat="49.64155" lon="3.95632">
        <ele>121.26</ele>
        <time>2021-08-08T14:18:28Z</time>
      </trkpt>
      <trkpt lat="49.64124" lon="3.95602">
        <ele>120.3</ele>
        <time>2021-08-08T14:18:36Z</time>
      </trkpt>
      <trkpt lat="49.64084" lon="3.95568">
        <ele>118.86</ele>
        <time>2021-08-08T14:18:45Z</time>
      </trkpt>
      <trkpt lat="49.64069" lon="3.95556">
        <ele>117.42</ele>
        <time>2021-08-08T14:18:48Z</time>
      </trkpt>
      <trkpt lat="49.64037" lon="3.95528">
        <ele>114.05</ele>
        <time>2021-08-08T14:18:54Z</time>
      </trkpt>
      <trkpt lat="49.64032" lon="3.95524">
        <ele>114.05</ele>
        <time>2021-08-08T14:18:55Z</time>
      </trkpt>
      <trkpt lat="49.63984" lon="3.95481">
        <ele>111.65</ele>
        <time>2021-08-08T14:19:04Z</time>
      </trkpt>
      <trkpt lat="49.63954" lon="3.95455">
        <ele>108.29</ele>
        <time>2021-08-08T14:19:09Z</time>
      </trkpt>
      <trkpt lat="49.63947" lon="3.9545">
        <ele>108.29</ele>
        <time>2021-08-08T14:19:10Z</time>
      </trkpt>
      <trkpt lat="49.63922" lon="3.95429">
        <ele>106.84</ele>
        <time>2021-08-08T14:19:14Z</time>
      </trkpt>
      <trkpt lat="49.63864" lon="3.95387">
        <ele>105.4</ele>
        <time>2021-08-08T14:19:23Z</time>
      </trkpt>
      <trkpt lat="49.63821" lon="3.95365">
        <ele>105.4</ele>
        <time>2021-08-08T14:19:31Z</time>
      </trkpt>
      <trkpt lat="49.63794" lon="3.95355">
        <ele>105.4</ele>
        <time>2021-08-08T14:19:37Z</time>
      </trkpt>
      <trkpt lat="49.63754" lon="3.95338">
        <ele>104.92</ele>
        <time>2021-08-08T14:19:46Z</time>
      </trkpt>
      <trkpt lat="49.63724" lon="3.95327">
        <ele>105.88</ele>
        <time>2021-08-08T14:19:53Z</time>
      </trkpt>
      <trkpt lat="49.63713" lon="3.95323">
        <ele>105.88</ele>
        <time>2021-08-08T14:19:56Z</time>
      </trkpt>
      <trkpt lat="49.63705" lon="3.9532">
        <ele>105.88</ele>
        <time>2021-08-08T14:19:58Z</time>
      </trkpt>
      <trkpt lat="49.63701" lon="3.95319">
        <ele>105.88</ele>
        <time>2021-08-08T14:19:59Z</time>
      </trkpt>
      <trkpt lat="49.63678" lon="3.95311">
        <ele>105.88</ele>
        <time>2021-08-08T14:20:06Z</time>
      </trkpt>
      <trkpt lat="49.63648" lon="3.95299">
        <ele>106.36</ele>
        <time>2021-08-08T14:20:14Z</time>
      </trkpt>
      <trkpt lat="49.63634" lon="3.95293">
        <ele>104.92</ele>
        <time>2021-08-08T14:20:18Z</time>
      </trkpt>
      <trkpt lat="49.63611" lon="3.95285">
        <ele>104.44</ele>
        <time>2021-08-08T14:20:25Z</time>
      </trkpt>
      <trkpt lat="49.63586" lon="3.95274">
        <ele>104.44</ele>
        <time>2021-08-08T14:20:33Z</time>
      </trkpt>
      <trkpt lat="49.63572" lon="3.95268">
        <ele>105.88</ele>
        <time>2021-08-08T14:20:38Z</time>
      </trkpt>
      <trkpt lat="49.63545" lon="3.95255">
        <ele>106.36</ele>
        <time>2021-08-08T14:20:47Z</time>
      </trkpt>
      <trkpt lat="49.63513" lon="3.95239">
        <ele>107.32</ele>
        <time>2021-08-08T14:20:58Z</time>
      </trkpt>
      <trkpt lat="49.63508" lon="3.95237">
        <ele>107.32</ele>
        <time>2021-08-08T14:21:00Z</time>
      </trkpt>
      <trkpt lat="49.63505" lon="3.95235">
        <ele>107.32</ele>
        <time>2021-08-08T14:21:01Z</time>
      </trkpt>
      <trkpt lat="49.63502" lon="3.95234">
        <ele>107.32</ele>
        <time>2021-08-08T14:21:02Z</time>
      </trkpt>
      <trkpt lat="49.63479" lon="3.95223">
        <ele>108.29</ele>
        <time>2021-08-08T14:21:11Z</time>
      </trkpt>
      <trkpt lat="49.63464" lon="3.95214">
        <ele>109.25</ele>
        <time>2021-08-08T14:21:18Z</time>
      </trkpt>
      <trkpt lat="49.63441" lon="3.95203">
        <ele>109.73</ele>
        <time>2021-08-08T14:21:27Z</time>
      </trkpt>
      <trkpt lat="49.63416" lon="3.95191">
        <ele>111.17</ele>
        <time>2021-08-08T14:21:37Z</time>
      </trkpt>
      <trkpt lat="49.63387" lon="3.95178">
        <ele>112.13</ele>
        <time>2021-08-08T14:21:48Z</time>
      </trkpt>
      <trkpt lat="49.63363" lon="3.95166">
        <ele>112.61</ele>
        <time>2021-08-08T14:21:57Z</time>
      </trkpt>
      <trkpt lat="49.63341" lon="3.95156">
        <ele>114.05</ele>
        <time>2021-08-08T14:22:05Z</time>
      </trkpt>
      <trkpt lat="49.63315" lon="3.95144">
        <ele>114.53</ele>
        <time>2021-08-08T14:22:14Z</time>
      </trkpt>
      <trkpt lat="49.63287" lon="3.95131">
        <ele>114.53</ele>
        <time>2021-08-08T14:22:23Z</time>
      </trkpt>
      <trkpt lat="49.63254" lon="3.95115">
        <ele>114.53</ele>
        <time>2021-08-08T14:22:34Z</time>
      </trkpt>
      <trkpt lat="49.63237" lon="3.95106">
        <ele>114.53</ele>
        <time>2021-08-08T14:22:40Z</time>
      </trkpt>
      <trkpt lat="49.63213" lon="3.95094">
        <ele>114.53</ele>
        <time>2021-08-08T14:22:48Z</time>
      </trkpt>
      <trkpt lat="49.63185" lon="3.95079">
        <ele>114.53</ele>
        <time>2021-08-08T14:22:57Z</time>
      </trkpt>
      <trkpt lat="49.63152" lon="3.95064">
        <ele>115.5</ele>
        <time>2021-08-08T14:23:07Z</time>
      </trkpt>
      <trkpt lat="49.63128" lon="3.95053">
        <ele>115.5</ele>
        <time>2021-08-08T14:23:14Z</time>
      </trkpt>
      <trkpt lat="49.63092" lon="3.95035">
        <ele>115.5</ele>
        <time>2021-08-08T14:23:25Z</time>
      </trkpt>
      <trkpt lat="49.63059" lon="3.95018">
        <ele>115.98</ele>
        <time>2021-08-08T14:23:35Z</time>
      </trkpt>
      <trkpt lat="49.63036" lon="3.95008">
        <ele>115.98</ele>
        <time>2021-08-08T14:23:42Z</time>
      </trkpt>
      <trkpt lat="49.63015" lon="3.94997">
        <ele>116.46</ele>
        <time>2021-08-08T14:23:49Z</time>
      </trkpt>
      <trkpt lat="49.62985" lon="3.94983">
        <ele>116.46</ele>
        <time>2021-08-08T14:23:58Z</time>
      </trkpt>
      <trkpt lat="49.62953" lon="3.94969">
        <ele>116.94</ele>
        <time>2021-08-08T14:24:07Z</time>
      </trkpt>
      <trkpt lat="49.6292" lon="3.94949">
        <ele>117.9</ele>
        <time>2021-08-08T14:24:17Z</time>
      </trkpt>
      <trkpt lat="49.62896" lon="3.94932">
        <ele>118.38</ele>
        <time>2021-08-08T14:24:25Z</time>
      </trkpt>
      <trkpt lat="49.62869" lon="3.94911">
        <ele>119.34</ele>
        <time>2021-08-08T14:24:35Z</time>
      </trkpt>
      <trkpt lat="49.62855" lon="3.949">
        <ele>120.3</ele>
        <time>2021-08-08T14:24:41Z</time>
      </trkpt>
      <trkpt lat="49.62832" lon="3.94882">
        <ele>121.26</ele>
        <time>2021-08-08T14:24:51Z</time>
      </trkpt>
      <trkpt lat="49.6281" lon="3.94867">
        <ele>121.74</ele>
        <time>2021-08-08T14:24:59Z</time>
      </trkpt>
      <trkpt lat="49.62785" lon="3.94853">
        <ele>122.22</ele>
        <time>2021-08-08T14:25:08Z</time>
      </trkpt>
      <trkpt lat="49.62755" lon="3.94842">
        <ele>122.22</ele>
        <time>2021-08-08T14:25:16Z</time>
      </trkpt>
      <trkpt lat="49.62721" lon="3.94828">
        <ele>117.9</ele>
        <time>2021-08-08T14:25:23Z</time>
      </trkpt>
      <trkpt lat="49.62711" lon="3.94825">
        <ele>117.42</ele>
        <time>2021-08-08T14:25:25Z</time>
      </trkpt>
      <trkpt lat="49.62664" lon="3.94814">
        <ele>117.42</ele>
        <time>2021-08-08T14:25:35Z</time>
      </trkpt>
      <trkpt lat="49.6261" lon="3.94807">
        <ele>116.94</ele>
        <time>2021-08-08T14:25:46Z</time>
      </trkpt>
      <trkpt lat="49.62581" lon="3.94804">
        <ele>117.9</ele>
        <time>2021-08-08T14:25:52Z</time>
      </trkpt>
      <trkpt lat="49.6253" lon="3.94798">
        <ele>118.86</ele>
        <time>2021-08-08T14:26:03Z</time>
      </trkpt>
      <trkpt lat="49.62495" lon="3.9479">
        <ele>116.46</ele>
        <time>2021-08-08T14:26:11Z</time>
      </trkpt>
      <trkpt lat="49.62485" lon="3.94788">
        <ele>116.46</ele>
        <time>2021-08-08T14:26:13Z</time>
      </trkpt>
      <trkpt lat="49.62481" lon="3.94788">
        <ele>116.46</ele>
        <time>2021-08-08T14:26:14Z</time>
      </trkpt>
      <trkpt lat="49.62475" lon="3.94787">
        <ele>116.46</ele>
        <time>2021-08-08T14:26:15Z</time>
      </trkpt>
      <trkpt lat="49.62471" lon="3.94786">
        <ele>116.46</ele>
        <time>2021-08-08T14:26:16Z</time>
      </trkpt>
      <trkpt lat="49.62466" lon="3.94785">
        <ele>115.98</ele>
        <time>2021-08-08T14:26:17Z</time>
      </trkpt>
      <trkpt lat="49.62418" lon="3.94774">
        <ele>115.5</ele>
        <time>2021-08-08T14:26:27Z</time>
      </trkpt>
      <trkpt lat="49.62384" lon="3.94767">
        <ele>114.53</ele>
        <time>2021-08-08T14:26:35Z</time>
      </trkpt>
      <trkpt lat="49.62376" lon="3.94764">
        <ele>114.53</ele>
        <time>2021-08-08T14:26:37Z</time>
      </trkpt>
      <trkpt lat="49.62371" lon="3.94763">
        <ele>114.53</ele>
        <time>2021-08-08T14:26:38Z</time>
      </trkpt>
      <trkpt lat="49.62363" lon="3.94761">
        <ele>115.98</ele>
        <time>2021-08-08T14:26:40Z</time>
      </trkpt>
      <trkpt lat="49.62354" lon="3.94759">
        <ele>114.05</ele>
        <time>2021-08-08T14:26:42Z</time>
      </trkpt>
      <trkpt lat="49.62322" lon="3.94751">
        <ele>114.05</ele>
        <time>2021-08-08T14:26:50Z</time>
      </trkpt>
      <trkpt lat="49.62293" lon="3.94745">
        <ele>114.05</ele>
        <time>2021-08-08T14:26:58Z</time>
      </trkpt>
      <trkpt lat="49.62261" lon="3.94737">
        <ele>115.5</ele>
        <time>2021-08-08T14:27:07Z</time>
      </trkpt>
      <trkpt lat="49.62228" lon="3.94731">
        <ele>116.46</ele>
        <time>2021-08-08T14:27:17Z</time>
      </trkpt>
      <trkpt lat="49.62197" lon="3.94726">
        <ele>116.46</ele>
        <time>2021-08-08T14:27:25Z</time>
      </trkpt>
      <trkpt lat="49.62193" lon="3.94725">
        <ele>115.5</ele>
        <time>2021-08-08T14:27:26Z</time>
      </trkpt>
      <trkpt lat="49.62189" lon="3.94724">
        <ele>115.01</ele>
        <time>2021-08-08T14:27:27Z</time>
      </trkpt>
      <trkpt lat="49.62149" lon="3.94719">
        <ele>114.53</ele>
        <time>2021-08-08T14:27:36Z</time>
      </trkpt>
      <trkpt lat="49.62099" lon="3.94713">
        <ele>113.57</ele>
        <time>2021-08-08T14:27:47Z</time>
      </trkpt>
      <trkpt lat="49.6205" lon="3.94706">
        <ele>113.57</ele>
        <time>2021-08-08T14:27:58Z</time>
      </trkpt>
      <trkpt lat="49.62029" lon="3.94703">
        <ele>113.09</ele>
        <time>2021-08-08T14:28:03Z</time>
      </trkpt>
      <trkpt lat="49.61993" lon="3.94698">
        <ele>113.09</ele>
        <time>2021-08-08T14:28:12Z</time>
      </trkpt>
      <trkpt lat="49.61988" lon="3.94698">
        <ele>113.09</ele>
        <time>2021-08-08T14:28:13Z</time>
      </trkpt>
      <trkpt lat="49.61971" lon="3.94697">
        <ele>113.09</ele>
        <time>2021-08-08T14:28:17Z</time>
      </trkpt>
      <trkpt lat="49.61967" lon="3.94696">
        <ele>113.09</ele>
        <time>2021-08-08T14:28:18Z</time>
      </trkpt>
      <trkpt lat="49.61963" lon="3.94696">
        <ele>114.53</ele>
        <time>2021-08-08T14:28:19Z</time>
      </trkpt>
      <trkpt lat="49.61958" lon="3.94695">
        <ele>114.53</ele>
        <time>2021-08-08T14:28:20Z</time>
      </trkpt>
      <trkpt lat="49.61954" lon="3.94693">
        <ele>114.53</ele>
        <time>2021-08-08T14:28:21Z</time>
      </trkpt>
      <trkpt lat="49.6195" lon="3.9469">
        <ele>114.53</ele>
        <time>2021-08-08T14:28:22Z</time>
      </trkpt>
      <trkpt lat="49.61947" lon="3.94688">
        <ele>114.53</ele>
        <time>2021-08-08T14:28:23Z</time>
      </trkpt>
      <trkpt lat="49.61944" lon="3.94687">
        <ele>114.53</ele>
        <time>2021-08-08T14:28:24Z</time>
      </trkpt>
      <trkpt lat="49.6194" lon="3.94687">
        <ele>114.53</ele>
        <time>2021-08-08T14:28:25Z</time>
      </trkpt>
      <trkpt lat="49.61936" lon="3.94687">
        <ele>114.53</ele>
        <time>2021-08-08T14:28:26Z</time>
      </trkpt>
      <trkpt lat="49.61932" lon="3.94687">
        <ele>114.53</ele>
        <time>2021-08-08T14:28:27Z</time>
      </trkpt>
      <trkpt lat="49.61928" lon="3.94686">
        <ele>114.53</ele>
        <time>2021-08-08T14:28:28Z</time>
      </trkpt>
      <trkpt lat="49.61906" lon="3.94681">
        <ele>115.01</ele>
        <time>2021-08-08T14:28:34Z</time>
      </trkpt>
      <trkpt lat="49.61878" lon="3.9468">
        <ele>115.5</ele>
        <time>2021-08-08T14:28:41Z</time>
      </trkpt>
      <trkpt lat="49.6184" lon="3.94681">
        <ele>116.46</ele>
        <time>2021-08-08T14:28:51Z</time>
      </trkpt>
      <trkpt lat="49.61813" lon="3.94678">
        <ele>116.94</ele>
        <time>2021-08-08T14:28:59Z</time>
      </trkpt>
      <trkpt lat="49.61788" lon="3.94673">
        <ele>118.38</ele>
        <time>2021-08-08T14:29:08Z</time>
      </trkpt>
      <trkpt lat="49.61781" lon="3.94676">
        <ele>119.34</ele>
        <time>2021-08-08T14:29:12Z</time>
      </trkpt>
      <trkpt lat="49.61765" lon="3.94687">
        <ele>119.82</ele>
        <time>2021-08-08T14:29:19Z</time>
      </trkpt>
      <trkpt lat="49.61739" lon="3.94691">
        <ele>120.3</ele>
        <time>2021-08-08T14:29:27Z</time>
      </trkpt>
      <trkpt lat="49.61708" lon="3.947">
        <ele>118.38</ele>
        <time>2021-08-08T14:29:34Z</time>
      </trkpt>
      <trkpt lat="49.61691" lon="3.94705">
        <ele>117.42</ele>
        <time>2021-08-08T14:29:37Z</time>
      </trkpt>
      <trkpt lat="49.61685" lon="3.94704">
        <ele>115.98</ele>
        <time>2021-08-08T14:29:38Z</time>
      </trkpt>
      <trkpt lat="49.6168" lon="3.94702">
        <ele>115.98</ele>
        <time>2021-08-08T14:29:39Z</time>
      </trkpt>
      <trkpt lat="49.61674" lon="3.94699">
        <ele>115.5</ele>
        <time>2021-08-08T14:29:40Z</time>
      </trkpt>
      <trkpt lat="49.61668" lon="3.94696">
        <ele>115.5</ele>
        <time>2021-08-08T14:29:41Z</time>
      </trkpt>
      <trkpt lat="49.61657" lon="3.94688">
        <ele>114.05</ele>
        <time>2021-08-08T14:29:43Z</time>
      </trkpt>
      <trkpt lat="49.61638" lon="3.94679">
        <ele>112.61</ele>
        <time>2021-08-08T14:29:46Z</time>
      </trkpt>
      <trkpt lat="49.61622" lon="3.94668">
        <ele>110.21</ele>
        <time>2021-08-08T14:29:50Z</time>
      </trkpt>
      <trkpt lat="49.61618" lon="3.94664">
        <ele>110.21</ele>
        <time>2021-08-08T14:29:51Z</time>
      </trkpt>
      <trkpt lat="49.61615" lon="3.94661">
        <ele>109.73</ele>
        <time>2021-08-08T14:29:52Z</time>
      </trkpt>
      <trkpt lat="49.61612" lon="3.9466">
        <ele>109.25</ele>
        <time>2021-08-08T14:29:53Z</time>
      </trkpt>
      <trkpt lat="49.61608" lon="3.94659">
        <ele>109.25</ele>
        <time>2021-08-08T14:29:54Z</time>
      </trkpt>
      <trkpt lat="49.61583" lon="3.94657">
        <ele>107.32</ele>
        <time>2021-08-08T14:29:59Z</time>
      </trkpt>
      <trkpt lat="49.61557" lon="3.94653">
        <ele>104.92</ele>
        <time>2021-08-08T14:30:03Z</time>
      </trkpt>
      <trkpt lat="49.61532" lon="3.9465">
        <ele>101.56</ele>
        <time>2021-08-08T14:30:06Z</time>
      </trkpt>
      <trkpt lat="49.61505" lon="3.94644">
        <ele>99.15</ele>
        <time>2021-08-08T14:30:09Z</time>
      </trkpt>
      <trkpt lat="49.61475" lon="3.94639">
        <ele>95.79</ele>
        <time>2021-08-08T14:30:12Z</time>
      </trkpt>
      <trkpt lat="49.61444" lon="3.94629">
        <ele>92.9</ele>
        <time>2021-08-08T14:30:16Z</time>
      </trkpt>
      <trkpt lat="49.61442" lon="3.94623">
        <ele>92.9</ele>
        <time>2021-08-08T14:30:17Z</time>
      </trkpt>
      <trkpt lat="49.61441" lon="3.94616">
        <ele>92.9</ele>
        <time>2021-08-08T14:30:18Z</time>
      </trkpt>
      <trkpt lat="49.61441" lon="3.94609">
        <ele>92.9</ele>
        <time>2021-08-08T14:30:19Z</time>
      </trkpt>
      <trkpt lat="49.61442" lon="3.94602">
        <ele>92.9</ele>
        <time>2021-08-08T14:30:20Z</time>
      </trkpt>
      <trkpt lat="49.61443" lon="3.94596">
        <ele>93.39</ele>
        <time>2021-08-08T14:30:21Z</time>
      </trkpt>
      <trkpt lat="49.6145" lon="3.9457">
        <ele>94.83</ele>
        <time>2021-08-08T14:30:26Z</time>
      </trkpt>
      <trkpt lat="49.61459" lon="3.94532">
        <ele>94.83</ele>
        <time>2021-08-08T14:30:34Z</time>
      </trkpt>
      <trkpt lat="49.61459" lon="3.94531">
        <ele>94.83</ele>
        <time>2021-08-08T14:30:39Z</time>
      </trkpt>
      <trkpt lat="49.61462" lon="3.94515">
        <ele>94.83</ele>
        <time>2021-08-08T14:30:44Z</time>
      </trkpt>
      <trkpt lat="49.61462" lon="3.94508">
        <ele>94.83</ele>
        <time>2021-08-08T14:30:46Z</time>
      </trkpt>
      <trkpt lat="49.61462" lon="3.94505">
        <ele>94.83</ele>
        <time>2021-08-08T14:30:47Z</time>
      </trkpt>
      <trkpt lat="49.6146" lon="3.94502">
        <ele>94.83</ele>
        <time>2021-08-08T14:30:48Z</time>
      </trkpt>
      <trkpt lat="49.61458" lon="3.945">
        <ele>94.83</ele>
        <time>2021-08-08T14:30:49Z</time>
      </trkpt>
      <trkpt lat="49.61455" lon="3.94497">
        <ele>92.9</ele>
        <time>2021-08-08T14:30:50Z</time>
      </trkpt>
      <trkpt lat="49.61452" lon="3.94494">
        <ele>92.42</ele>
        <time>2021-08-08T14:30:51Z</time>
      </trkpt>
      <trkpt lat="49.61448" lon="3.94492">
        <ele>90.98</ele>
        <time>2021-08-08T14:30:52Z</time>
      </trkpt>
      <trkpt lat="49.61444" lon="3.94488">
        <ele>90.5</ele>
        <time>2021-08-08T14:30:53Z</time>
      </trkpt>
      <trkpt lat="49.6144" lon="3.94484">
        <ele>90.5</ele>
        <time>2021-08-08T14:30:54Z</time>
      </trkpt>
      <trkpt lat="49.61405" lon="3.9445">
        <ele>88.1</ele>
        <time>2021-08-08T14:31:01Z</time>
      </trkpt>
      <trkpt lat="49.614" lon="3.94445">
        <ele>88.1</ele>
        <time>2021-08-08T14:31:02Z</time>
      </trkpt>
      <trkpt lat="49.61396" lon="3.94437">
        <ele>88.1</ele>
        <time>2021-08-08T14:31:03Z</time>
      </trkpt>
      <trkpt lat="49.61393" lon="3.9443">
        <ele>88.1</ele>
        <time>2021-08-08T14:31:04Z</time>
      </trkpt>
      <trkpt lat="49.6139" lon="3.94416">
        <ele>88.1</ele>
        <time>2021-08-08T14:31:06Z</time>
      </trkpt>
      <trkpt lat="49.61388" lon="3.94409">
        <ele>88.1</ele>
        <time>2021-08-08T14:31:07Z</time>
      </trkpt>
      <trkpt lat="49.61385" lon="3.94403">
        <ele>88.1</ele>
        <time>2021-08-08T14:31:08Z</time>
      </trkpt>
      <trkpt lat="49.61382" lon="3.94397">
        <ele>88.1</ele>
        <time>2021-08-08T14:31:09Z</time>
      </trkpt>
      <trkpt lat="49.61379" lon="3.94391">
        <ele>88.1</ele>
        <time>2021-08-08T14:31:10Z</time>
      </trkpt>
      <trkpt lat="49.61365" lon="3.9437">
        <ele>89.06</ele>
        <time>2021-08-08T14:31:15Z</time>
      </trkpt>
      <trkpt lat="49.61363" lon="3.9437">
        <ele>89.06</ele>
        <time>2021-08-08T14:31:16Z</time>
      </trkpt>
      <trkpt lat="49.61361" lon="3.94372">
        <ele>89.06</ele>
        <time>2021-08-08T14:31:17Z</time>
      </trkpt>
      <trkpt lat="49.61359" lon="3.94374">
        <ele>89.06</ele>
        <time>2021-08-08T14:31:18Z</time>
      </trkpt>
      <trkpt lat="49.61358" lon="3.94375">
        <ele>89.54</ele>
        <time>2021-08-08T14:31:19Z</time>
      </trkpt>
      <trkpt lat="49.61357" lon="3.94376">
        <ele>90.02</ele>
        <time>2021-08-08T14:31:20Z</time>
      </trkpt>
      <trkpt lat="49.61356" lon="3.94378">
        <ele>90.02</ele>
        <time>2021-08-08T14:31:26Z</time>
      </trkpt>
      <trkpt lat="49.61356" lon="3.9438">
        <ele>90.02</ele>
        <time>2021-08-08T14:31:33Z</time>
      </trkpt>
      <trkpt lat="49.61356" lon="3.94382">
        <ele>90.02</ele>
        <time>2021-08-08T14:31:34Z</time>
      </trkpt>
      <trkpt lat="49.61357" lon="3.94388">
        <ele>90.02</ele>
        <time>2021-08-08T14:31:42Z</time>
      </trkpt>
      <trkpt lat="49.61356" lon="3.94387">
        <ele>90.5</ele>
        <time>2021-08-08T14:31:58Z</time>
      </trkpt>
      <trkpt lat="49.61357" lon="3.94387">
        <ele>90.98</ele>
        <time>2021-08-08T14:32:09Z</time>
      </trkpt>
      <trkpt lat="49.61357" lon="3.94387">
        <ele>90.98</ele>
        <time>2021-08-08T14:32:24Z</time>
      </trkpt>
      <trkpt lat="49.61359" lon="3.94389">
        <ele>90.98</ele>
        <time>2021-08-08T14:32:29Z</time>
      </trkpt>
      <trkpt lat="49.61359" lon="3.94389">
        <ele>90.98</ele>
        <time>2021-08-08T14:32:37Z</time>
      </trkpt>
      <trkpt lat="49.61359" lon="3.9439">
        <ele>90.98</ele>
        <time>2021-08-08T14:32:50Z</time>
      </trkpt>
      <trkpt lat="49.61359" lon="3.94388">
        <ele>90.98</ele>
        <time>2021-08-08T14:33:17Z</time>
      </trkpt>
      <trkpt lat="49.61359" lon="3.9439">
        <ele>90.98</ele>
        <time>2021-08-08T14:33:50Z</time>
      </trkpt>
      <trkpt lat="49.61359" lon="3.9439">
        <ele>90.98</ele>
        <time>2021-08-08T14:34:13Z</time>
      </trkpt>
      <trkpt lat="49.6136" lon="3.94389">
        <ele>90.98</ele>
        <time>2021-08-08T14:34:33Z</time>
      </trkpt>
      <trkpt lat="49.6136" lon="3.94389">
        <ele>90.98</ele>
        <time>2021-08-08T14:34:51Z</time>
      </trkpt>
      <trkpt lat="49.6136" lon="3.94387">
        <ele>90.98</ele>
        <time>2021-08-08T14:35:10Z</time>
      </trkpt>
      <trkpt lat="49.61359" lon="3.94386">
        <ele>90.98</ele>
        <time>2021-08-08T14:35:29Z</time>
      </trkpt>
      <trkpt lat="49.61359" lon="3.94387">
        <ele>90.98</ele>
        <time>2021-08-08T14:35:47Z</time>
      </trkpt>
      <trkpt lat="49.61358" lon="3.94388">
        <ele>90.98</ele>
        <time>2021-08-08T14:36:02Z</time>
      </trkpt>
      <trkpt lat="49.61359" lon="3.94387">
        <ele>90.98</ele>
        <time>2021-08-08T14:36:05Z</time>
      </trkpt>
      <trkpt lat="49.6136" lon="3.94386">
        <ele>90.98</ele>
        <time>2021-08-08T14:36:11Z</time>
      </trkpt>
      <trkpt lat="49.6136" lon="3.94386">
        <ele>90.98</ele>
        <time>2021-08-08T14:36:23Z</time>
      </trkpt>
      <trkpt lat="49.6136" lon="3.94386">
        <ele>90.98</ele>
        <time>2021-08-08T14:36:39Z</time>
      </trkpt>
      <trkpt lat="49.6136" lon="3.94387">
        <ele>91.46</ele>
        <time>2021-08-08T14:36:59Z</time>
      </trkpt>
      <trkpt lat="49.6136" lon="3.94388">
        <ele>91.46</ele>
        <time>2021-08-08T14:37:14Z</time>
      </trkpt>
      <trkpt lat="49.6136" lon="3.94389">
        <ele>91.46</ele>
        <time>2021-08-08T14:37:30Z</time>
      </trkpt>
      <trkpt lat="49.6136" lon="3.94389">
        <ele>91.46</ele>
        <time>2021-08-08T14:37:45Z</time>
      </trkpt>
      <trkpt lat="49.61359" lon="3.94388">
        <ele>91.46</ele>
        <time>2021-08-08T14:38:03Z</time>
      </trkpt>
      <trkpt lat="49.61359" lon="3.94388">
        <ele>91.46</ele>
        <time>2021-08-08T14:38:18Z</time>
      </trkpt>
      <trkpt lat="49.61359" lon="3.94389">
        <ele>91.46</ele>
        <time>2021-08-08T14:38:32Z</time>
      </trkpt>
      <trkpt lat="49.61358" lon="3.94389">
        <ele>91.46</ele>
        <time>2021-08-08T14:38:43Z</time>
      </trkpt>
      <trkpt lat="49.61359" lon="3.9439">
        <ele>91.46</ele>
        <time>2021-08-08T14:39:01Z</time>
      </trkpt>
      <trkpt lat="49.61359" lon="3.94389">
        <ele>91.46</ele>
        <time>2021-08-08T14:39:18Z</time>
      </trkpt>
      <trkpt lat="49.61358" lon="3.9439">
        <ele>90.02</ele>
        <time>2021-08-08T14:39:32Z</time>
      </trkpt>
      <trkpt lat="49.61359" lon="3.94389">
        <ele>90.02</ele>
        <time>2021-08-08T14:39:53Z</time>
      </trkpt>
      <trkpt lat="49.6136" lon="3.94389">
        <ele>90.02</ele>
        <time>2021-08-08T14:40:15Z</time>
      </trkpt>
      <trkpt lat="49.6136" lon="3.94389">
        <ele>90.02</ele>
        <time>2021-08-08T14:40:31Z</time>
      </trkpt>
      <trkpt lat="49.6136" lon="3.94389">
        <ele>90.02</ele>
        <time>2021-08-08T14:40:51Z</time>
      </trkpt>
      <trkpt lat="49.6136" lon="3.94389">
        <ele>90.02</ele>
        <time>2021-08-08T14:41:06Z</time>
      </trkpt>
      <trkpt lat="49.61361" lon="3.9439">
        <ele>90.02</ele>
        <time>2021-08-08T14:41:13Z</time>
      </trkpt>
      <trkpt lat="49.6136" lon="3.94389">
        <ele>90.02</ele>
        <time>2021-08-08T14:41:32Z</time>
      </trkpt>
      <trkpt lat="49.61359" lon="3.94389">
        <ele>90.02</ele>
        <time>2021-08-08T14:41:49Z</time>
      </trkpt>
      <trkpt lat="49.61358" lon="3.94389">
        <ele>89.54</ele>
        <time>2021-08-08T14:42:04Z</time>
      </trkpt>
      <trkpt lat="49.61358" lon="3.94388">
        <ele>89.54</ele>
        <time>2021-08-08T14:42:21Z</time>
      </trkpt>
      <trkpt lat="49.61358" lon="3.94388">
        <ele>89.54</ele>
        <time>2021-08-08T14:42:35Z</time>
      </trkpt>
      <trkpt lat="49.61359" lon="3.94388">
        <ele>89.54</ele>
        <time>2021-08-08T14:42:54Z</time>
      </trkpt>
      <trkpt lat="49.61359" lon="3.94389">
        <ele>89.54</ele>
        <time>2021-08-08T14:43:11Z</time>
      </trkpt>
      <trkpt lat="49.6136" lon="3.94389">
        <ele>89.54</ele>
        <time>2021-08-08T14:43:27Z</time>
      </trkpt>
      <trkpt lat="49.61359" lon="3.94387">
        <ele>89.54</ele>
        <time>2021-08-08T14:43:44Z</time>
      </trkpt>
      <trkpt lat="49.61359" lon="3.94387">
        <ele>89.06</ele>
        <time>2021-08-08T14:43:59Z</time>
      </trkpt>
      <trkpt lat="49.61359" lon="3.94388">
        <ele>89.06</ele>
        <time>2021-08-08T14:44:24Z</time>
      </trkpt>
      <trkpt lat="49.6136" lon="3.94388">
        <ele>89.06</ele>
        <time>2021-08-08T14:44:39Z</time>
      </trkpt>
      <trkpt lat="49.6136" lon="3.94388">
        <ele>89.06</ele>
        <time>2021-08-08T14:44:58Z</time>
      </trkpt>
      <trkpt lat="49.6136" lon="3.94388">
        <ele>89.06</ele>
        <time>2021-08-08T14:45:15Z</time>
      </trkpt>
      <trkpt lat="49.6136" lon="3.94388">
        <ele>89.06</ele>
        <time>2021-08-08T14:45:32Z</time>
      </trkpt>
      <trkpt lat="49.6136" lon="3.94388">
        <ele>89.06</ele>
        <time>2021-08-08T14:45:50Z</time>
      </trkpt>
      <trkpt lat="49.6136" lon="3.94388">
        <ele>89.06</ele>
        <time>2021-08-08T14:46:07Z</time>
      </trkpt>
      <trkpt lat="49.61359" lon="3.94387">
        <ele>89.06</ele>
        <time>2021-08-08T14:46:26Z</time>
      </trkpt>
      <trkpt lat="49.61357" lon="3.94386">
        <ele>89.06</ele>
        <time>2021-08-08T14:46:37Z</time>
      </trkpt>
      <trkpt lat="49.61358" lon="3.94386">
        <ele>89.06</ele>
        <time>2021-08-08T14:46:47Z</time>
      </trkpt>
      <trkpt lat="49.61358" lon="3.94388">
        <ele>89.06</ele>
        <time>2021-08-08T14:47:11Z</time>
      </trkpt>
      <trkpt lat="49.61358" lon="3.94387">
        <ele>89.06</ele>
        <time>2021-08-08T14:47:31Z</time>
      </trkpt>
      <trkpt lat="49.61358" lon="3.94386">
        <ele>89.06</ele>
        <time>2021-08-08T14:47:48Z</time>
      </trkpt>
      <trkpt lat="49.61359" lon="3.94388">
        <ele>89.06</ele>
        <time>2021-08-08T14:48:07Z</time>
      </trkpt>
      <trkpt lat="49.61359" lon="3.94388">
        <ele>89.06</ele>
        <time>2021-08-08T14:48:27Z</time>
      </trkpt>
      <trkpt lat="49.61359" lon="3.94388">
        <ele>89.06</ele>
        <time>2021-08-08T14:48:44Z</time>
      </trkpt>
      <trkpt lat="49.61359" lon="3.94388">
        <ele>89.06</ele>
        <time>2021-08-08T14:49:01Z</time>
      </trkpt>
      <trkpt lat="49.61359" lon="3.94389">
        <ele>89.06</ele>
        <time>2021-08-08T14:49:20Z</time>
      </trkpt>
      <trkpt lat="49.61359" lon="3.94389">
        <ele>89.06</ele>
        <time>2021-08-08T14:49:40Z</time>
      </trkpt>
      <trkpt lat="49.61359" lon="3.94387">
        <ele>89.06</ele>
        <time>2021-08-08T14:50:01Z</time>
      </trkpt>
      <trkpt lat="49.61359" lon="3.94387">
        <ele>89.06</ele>
        <time>2021-08-08T14:50:17Z</time>
      </trkpt>
      <trkpt lat="49.6136" lon="3.94388">
        <ele>89.06</ele>
        <time>2021-08-08T14:50:34Z</time>
      </trkpt>
      <trkpt lat="49.6136" lon="3.94389">
        <ele>89.06</ele>
        <time>2021-08-08T14:50:51Z</time>
      </trkpt>
      <trkpt lat="49.61361" lon="3.94389">
        <ele>89.06</ele>
        <time>2021-08-08T14:51:07Z</time>
      </trkpt>
      <trkpt lat="49.6136" lon="3.94387">
        <ele>89.06</ele>
        <time>2021-08-08T14:51:32Z</time>
      </trkpt>
      <trkpt lat="49.61359" lon="3.94387">
        <ele>89.06</ele>
        <time>2021-08-08T14:51:55Z</time>
      </trkpt>
      <trkpt lat="49.61359" lon="3.94389">
        <ele>89.06</ele>
        <time>2021-08-08T14:52:19Z</time>
      </trkpt>
      <trkpt lat="49.6136" lon="3.94388">
        <ele>89.54</ele>
        <time>2021-08-08T14:52:43Z</time>
      </trkpt>
      <trkpt lat="49.6136" lon="3.94388">
        <ele>89.54</ele>
        <time>2021-08-08T14:53:00Z</time>
      </trkpt>
      <trkpt lat="49.6136" lon="3.94387">
        <ele>89.54</ele>
        <time>2021-08-08T14:53:18Z</time>
      </trkpt>
      <trkpt lat="49.6136" lon="3.94387">
        <ele>89.54</ele>
        <time>2021-08-08T14:53:41Z</time>
      </trkpt>
      <trkpt lat="49.61359" lon="3.94387">
        <ele>89.54</ele>
        <time>2021-08-08T14:53:57Z</time>
      </trkpt>
      <trkpt lat="49.61359" lon="3.94387">
        <ele>89.54</ele>
        <time>2021-08-08T14:54:16Z</time>
      </trkpt>
      <trkpt lat="49.61359" lon="3.94388">
        <ele>89.54</ele>
        <time>2021-08-08T14:54:29Z</time>
      </trkpt>
      <trkpt lat="49.61359" lon="3.94388">
        <ele>89.54</ele>
        <time>2021-08-08T14:54:47Z</time>
      </trkpt>
      <trkpt lat="49.6136" lon="3.94389">
        <ele>89.06</ele>
        <time>2021-08-08T14:55:13Z</time>
      </trkpt>
      <trkpt lat="49.6136" lon="3.94389">
        <ele>89.06</ele>
        <time>2021-08-08T14:55:25Z</time>
      </trkpt>
      <trkpt lat="49.6136" lon="3.9439">
        <ele>90.5</ele>
        <time>2021-08-08T14:55:39Z</time>
      </trkpt>
      <trkpt lat="49.61359" lon="3.94388">
        <ele>90.5</ele>
        <time>2021-08-08T14:55:53Z</time>
      </trkpt>
      <trkpt lat="49.61359" lon="3.94388">
        <ele>90.5</ele>
        <time>2021-08-08T14:56:11Z</time>
      </trkpt>
      <trkpt lat="49.61358" lon="3.94391">
        <ele>90.5</ele>
        <time>2021-08-08T14:56:27Z</time>
      </trkpt>
      <trkpt lat="49.61357" lon="3.94391">
        <ele>88.1</ele>
        <time>2021-08-08T14:56:29Z</time>
      </trkpt>
      <trkpt lat="49.61356" lon="3.94392">
        <ele>88.1</ele>
        <time>2021-08-08T14:56:38Z</time>
      </trkpt>
      <trkpt lat="49.61356" lon="3.94391">
        <ele>89.54</ele>
        <time>2021-08-08T14:56:40Z</time>
      </trkpt>
      <trkpt lat="49.61355" lon="3.94389">
        <ele>89.54</ele>
        <time>2021-08-08T14:56:46Z</time>
      </trkpt>
      <trkpt lat="49.61355" lon="3.94388">
        <ele>90.02</ele>
        <time>2021-08-08T14:56:53Z</time>
      </trkpt>
      <trkpt lat="49.61354" lon="3.9439">
        <ele>89.06</ele>
        <time>2021-08-08T14:57:03Z</time>
      </trkpt>
      <trkpt lat="49.61353" lon="3.94386">
        <ele>89.06</ele>
        <time>2021-08-08T14:57:05Z</time>
      </trkpt>
      <trkpt lat="49.61353" lon="3.94386">
        <ele>89.06</ele>
        <time>2021-08-08T14:57:09Z</time>
      </trkpt>
      <trkpt lat="49.61353" lon="3.94389">
        <ele>89.06</ele>
        <time>2021-08-08T14:57:21Z</time>
      </trkpt>
      <trkpt lat="49.61353" lon="3.94389">
        <ele>89.06</ele>
        <time>2021-08-08T14:57:34Z</time>
      </trkpt>
      <trkpt lat="49.61353" lon="3.94388">
        <ele>89.06</ele>
        <time>2021-08-08T14:57:47Z</time>
      </trkpt>
      <trkpt lat="49.61354" lon="3.94389">
        <ele>89.06</ele>
        <time>2021-08-08T14:58:01Z</time>
      </trkpt>
      <trkpt lat="49.61354" lon="3.94389">
        <ele>89.06</ele>
        <time>2021-08-08T14:58:09Z</time>
      </trkpt>
      <trkpt lat="49.61353" lon="3.9439">
        <ele>89.06</ele>
        <time>2021-08-08T14:58:15Z</time>
      </trkpt>
      <trkpt lat="49.61353" lon="3.94389">
        <ele>89.06</ele>
        <time>2021-08-08T14:58:22Z</time>
      </trkpt>
      <trkpt lat="49.61347" lon="3.9438">
        <ele>89.06</ele>
        <time>2021-08-08T14:58:28Z</time>
      </trkpt>
      <trkpt lat="49.6133" lon="3.94362">
        <ele>88.58</ele>
        <time>2021-08-08T14:58:35Z</time>
      </trkpt>
      <trkpt lat="49.61302" lon="3.9433">
        <ele>88.1</ele>
        <time>2021-08-08T14:58:44Z</time>
      </trkpt>
      <trkpt lat="49.61266" lon="3.94292">
        <ele>88.1</ele>
        <time>2021-08-08T14:58:55Z</time>
      </trkpt>
      <trkpt lat="49.61254" lon="3.94278">
        <ele>89.54</ele>
        <time>2021-08-08T14:58:59Z</time>
      </trkpt>
      <trkpt lat="49.61228" lon="3.94256">
        <ele>89.54</ele>
        <time>2021-08-08T14:59:07Z</time>
      </trkpt>
      <trkpt lat="49.61202" lon="3.94233">
        <ele>90.5</ele>
        <time>2021-08-08T14:59:16Z</time>
      </trkpt>
      <trkpt lat="49.61174" lon="3.94204">
        <ele>91.46</ele>
        <time>2021-08-08T14:59:27Z</time>
      </trkpt>
      <trkpt lat="49.61165" lon="3.94193">
        <ele>93.87</ele>
        <time>2021-08-08T14:59:32Z</time>
      </trkpt>
      <trkpt lat="49.61157" lon="3.94167">
        <ele>94.35</ele>
        <time>2021-08-08T14:59:40Z</time>
      </trkpt>
      <trkpt lat="49.61158" lon="3.94139">
        <ele>95.79</ele>
        <time>2021-08-08T14:59:47Z</time>
      </trkpt>
      <trkpt lat="49.61162" lon="3.94103">
        <ele>96.27</ele>
        <time>2021-08-08T14:59:56Z</time>
      </trkpt>
      <trkpt lat="49.61165" lon="3.94072">
        <ele>97.23</ele>
        <time>2021-08-08T15:00:06Z</time>
      </trkpt>
      <trkpt lat="49.61169" lon="3.94043">
        <ele>98.19</ele>
        <time>2021-08-08T15:00:15Z</time>
      </trkpt>
      <trkpt lat="49.61172" lon="3.94012">
        <ele>99.63</ele>
        <time>2021-08-08T15:00:24Z</time>
      </trkpt>
      <trkpt lat="49.61175" lon="3.93991">
        <ele>100.11</ele>
        <time>2021-08-08T15:00:30Z</time>
      </trkpt>
      <trkpt lat="49.6118" lon="3.93947">
        <ele>100.11</ele>
        <time>2021-08-08T15:00:39Z</time>
      </trkpt>
      <trkpt lat="49.61188" lon="3.93898">
        <ele>100.11</ele>
        <time>2021-08-08T15:00:49Z</time>
      </trkpt>
      <trkpt lat="49.61198" lon="3.93848">
        <ele>100.11</ele>
        <time>2021-08-08T15:00:59Z</time>
      </trkpt>
      <trkpt lat="49.61211" lon="3.93791">
        <ele>100.11</ele>
        <time>2021-08-08T15:01:10Z</time>
      </trkpt>
      <trkpt lat="49.61224" lon="3.93735">
        <ele>100.6</ele>
        <time>2021-08-08T15:01:21Z</time>
      </trkpt>
      <trkpt lat="49.61233" lon="3.93695">
        <ele>101.56</ele>
        <time>2021-08-08T15:01:29Z</time>
      </trkpt>
      <trkpt lat="49.61242" lon="3.93652">
        <ele>101.56</ele>
        <time>2021-08-08T15:01:38Z</time>
      </trkpt>
      <trkpt lat="49.61248" lon="3.93612">
        <ele>103</ele>
        <time>2021-08-08T15:01:47Z</time>
      </trkpt>
      <trkpt lat="49.61254" lon="3.93564">
        <ele>103.96</ele>
        <time>2021-08-08T15:01:58Z</time>
      </trkpt>
      <trkpt lat="49.61258" lon="3.93527">
        <ele>104.92</ele>
        <time>2021-08-08T15:02:06Z</time>
      </trkpt>
      <trkpt lat="49.61263" lon="3.93475">
        <ele>105.88</ele>
        <time>2021-08-08T15:02:17Z</time>
      </trkpt>
      <trkpt lat="49.61269" lon="3.93423">
        <ele>106.36</ele>
        <time>2021-08-08T15:02:28Z</time>
      </trkpt>
      <trkpt lat="49.61273" lon="3.93381">
        <ele>106.84</ele>
        <time>2021-08-08T15:02:37Z</time>
      </trkpt>
      <trkpt lat="49.61278" lon="3.93327">
        <ele>107.32</ele>
        <time>2021-08-08T15:02:48Z</time>
      </trkpt>
      <trkpt lat="49.61281" lon="3.9329">
        <ele>107.32</ele>
        <time>2021-08-08T15:02:56Z</time>
      </trkpt>
      <trkpt lat="49.61283" lon="3.93255">
        <ele>107.32</ele>
        <time>2021-08-08T15:03:03Z</time>
      </trkpt>
      <trkpt lat="49.61282" lon="3.93207">
        <ele>106.36</ele>
        <time>2021-08-08T15:03:11Z</time>
      </trkpt>
      <trkpt lat="49.61282" lon="3.932">
        <ele>106.36</ele>
        <time>2021-08-08T15:03:12Z</time>
      </trkpt>
      <trkpt lat="49.61278" lon="3.93131">
        <ele>103.48</ele>
        <time>2021-08-08T15:03:21Z</time>
      </trkpt>
      <trkpt lat="49.61276" lon="3.93112">
        <ele>102.04</ele>
        <time>2021-08-08T15:03:23Z</time>
      </trkpt>
      <trkpt lat="49.61272" lon="3.93058">
        <ele>99.15</ele>
        <time>2021-08-08T15:03:28Z</time>
      </trkpt>
      <trkpt lat="49.61272" lon="3.93046">
        <ele>99.15</ele>
        <time>2021-08-08T15:03:29Z</time>
      </trkpt>
      <trkpt lat="49.61274" lon="3.9301">
        <ele>96.75</ele>
        <time>2021-08-08T15:03:32Z</time>
      </trkpt>
      <trkpt lat="49.61276" lon="3.92999">
        <ele>97.23</ele>
        <time>2021-08-08T15:03:33Z</time>
      </trkpt>
      <trkpt lat="49.61281" lon="3.92977">
        <ele>96.27</ele>
        <time>2021-08-08T15:03:35Z</time>
      </trkpt>
      <trkpt lat="49.61284" lon="3.92969">
        <ele>96.75</ele>
        <time>2021-08-08T15:03:36Z</time>
      </trkpt>
      <trkpt lat="49.61316" lon="3.92896">
        <ele>95.79</ele>
        <time>2021-08-08T15:03:45Z</time>
      </trkpt>
      <trkpt lat="49.61341" lon="3.92834">
        <ele>94.35</ele>
        <time>2021-08-08T15:03:53Z</time>
      </trkpt>
      <trkpt lat="49.61343" lon="3.92826">
        <ele>94.35</ele>
        <time>2021-08-08T15:03:54Z</time>
      </trkpt>
      <trkpt lat="49.61353" lon="3.92786">
        <ele>93.87</ele>
        <time>2021-08-08T15:03:59Z</time>
      </trkpt>
      <trkpt lat="49.61355" lon="3.92779">
        <ele>93.87</ele>
        <time>2021-08-08T15:04:00Z</time>
      </trkpt>
      <trkpt lat="49.61358" lon="3.92749">
        <ele>93.87</ele>
        <time>2021-08-08T15:04:04Z</time>
      </trkpt>
      <trkpt lat="49.61361" lon="3.92728">
        <ele>93.39</ele>
        <time>2021-08-08T15:04:07Z</time>
      </trkpt>
      <trkpt lat="49.61366" lon="3.92713">
        <ele>92.9</ele>
        <time>2021-08-08T15:04:09Z</time>
      </trkpt>
      <trkpt lat="49.61368" lon="3.92705">
        <ele>92.42</ele>
        <time>2021-08-08T15:04:10Z</time>
      </trkpt>
      <trkpt lat="49.61387" lon="3.92647">
        <ele>90.5</ele>
        <time>2021-08-08T15:04:17Z</time>
      </trkpt>
      <trkpt lat="49.61406" lon="3.9259">
        <ele>90.5</ele>
        <time>2021-08-08T15:04:25Z</time>
      </trkpt>
      <trkpt lat="49.61429" lon="3.92522">
        <ele>90.5</ele>
        <time>2021-08-08T15:04:36Z</time>
      </trkpt>
      <trkpt lat="49.6144" lon="3.92491">
        <ele>92.9</ele>
        <time>2021-08-08T15:04:43Z</time>
      </trkpt>
      <trkpt lat="49.61448" lon="3.92471">
        <ele>94.35</ele>
        <time>2021-08-08T15:04:50Z</time>
      </trkpt>
      <trkpt lat="49.61455" lon="3.92454">
        <ele>95.31</ele>
        <time>2021-08-08T15:04:57Z</time>
      </trkpt>
      <trkpt lat="49.61465" lon="3.92426">
        <ele>96.27</ele>
        <time>2021-08-08T15:05:06Z</time>
      </trkpt>
      <trkpt lat="49.61477" lon="3.92392">
        <ele>97.71</ele>
        <time>2021-08-08T15:05:16Z</time>
      </trkpt>
      <trkpt lat="49.61488" lon="3.92359">
        <ele>98.19</ele>
        <time>2021-08-08T15:05:25Z</time>
      </trkpt>
      <trkpt lat="49.61501" lon="3.92324">
        <ele>98.67</ele>
        <time>2021-08-08T15:05:34Z</time>
      </trkpt>
      <trkpt lat="49.61516" lon="3.92281">
        <ele>99.15</ele>
        <time>2021-08-08T15:05:43Z</time>
      </trkpt>
      <trkpt lat="49.6153" lon="3.92234">
        <ele>98.19</ele>
        <time>2021-08-08T15:05:51Z</time>
      </trkpt>
      <trkpt lat="49.61548" lon="3.92175">
        <ele>97.23</ele>
        <time>2021-08-08T15:05:59Z</time>
      </trkpt>
      <trkpt lat="49.61551" lon="3.92167">
        <ele>96.27</ele>
        <time>2021-08-08T15:06:00Z</time>
      </trkpt>
      <trkpt lat="49.61554" lon="3.9216">
        <ele>96.27</ele>
        <time>2021-08-08T15:06:01Z</time>
      </trkpt>
      <trkpt lat="49.61557" lon="3.92151">
        <ele>95.31</ele>
        <time>2021-08-08T15:06:02Z</time>
      </trkpt>
      <trkpt lat="49.61559" lon="3.92142">
        <ele>95.79</ele>
        <time>2021-08-08T15:06:03Z</time>
      </trkpt>
      <trkpt lat="49.61561" lon="3.92133">
        <ele>95.79</ele>
        <time>2021-08-08T15:06:04Z</time>
      </trkpt>
      <trkpt lat="49.61563" lon="3.92124">
        <ele>95.79</ele>
        <time>2021-08-08T15:06:05Z</time>
      </trkpt>
      <trkpt lat="49.61585" lon="3.92046">
        <ele>94.83</ele>
        <time>2021-08-08T15:06:14Z</time>
      </trkpt>
      <trkpt lat="49.616" lon="3.91996">
        <ele>94.83</ele>
        <time>2021-08-08T15:06:21Z</time>
      </trkpt>
      <trkpt lat="49.61613" lon="3.91956">
        <ele>96.75</ele>
        <time>2021-08-08T15:06:28Z</time>
      </trkpt>
      <trkpt lat="49.61627" lon="3.91913">
        <ele>98.19</ele>
        <time>2021-08-08T15:06:37Z</time>
      </trkpt>
      <trkpt lat="49.61638" lon="3.91875">
        <ele>98.19</ele>
        <time>2021-08-08T15:06:44Z</time>
      </trkpt>
      <trkpt lat="49.6164" lon="3.91869">
        <ele>98.19</ele>
        <time>2021-08-08T15:06:45Z</time>
      </trkpt>
      <trkpt lat="49.61648" lon="3.91834">
        <ele>98.67</ele>
        <time>2021-08-08T15:06:51Z</time>
      </trkpt>
      <trkpt lat="49.61649" lon="3.91828">
        <ele>98.67</ele>
        <time>2021-08-08T15:06:52Z</time>
      </trkpt>
      <trkpt lat="49.61651" lon="3.91821">
        <ele>98.67</ele>
        <time>2021-08-08T15:06:53Z</time>
      </trkpt>
      <trkpt lat="49.61652" lon="3.91814">
        <ele>98.67</ele>
        <time>2021-08-08T15:06:54Z</time>
      </trkpt>
      <trkpt lat="49.61653" lon="3.91807">
        <ele>98.67</ele>
        <time>2021-08-08T15:06:55Z</time>
      </trkpt>
      <trkpt lat="49.61654" lon="3.91801">
        <ele>98.67</ele>
        <time>2021-08-08T15:06:56Z</time>
      </trkpt>
      <trkpt lat="49.61657" lon="3.91778">
        <ele>98.67</ele>
        <time>2021-08-08T15:07:00Z</time>
      </trkpt>
      <trkpt lat="49.61657" lon="3.91772">
        <ele>98.67</ele>
        <time>2021-08-08T15:07:01Z</time>
      </trkpt>
      <trkpt lat="49.6166" lon="3.91738">
        <ele>97.23</ele>
        <time>2021-08-08T15:07:07Z</time>
      </trkpt>
      <trkpt lat="49.61666" lon="3.91676">
        <ele>95.31</ele>
        <time>2021-08-08T15:07:16Z</time>
      </trkpt>
      <trkpt lat="49.6167" lon="3.91612">
        <ele>91.94</ele>
        <time>2021-08-08T15:07:23Z</time>
      </trkpt>
      <trkpt lat="49.61677" lon="3.91528">
        <ele>88.58</ele>
        <time>2021-08-08T15:07:31Z</time>
      </trkpt>
      <trkpt lat="49.6168" lon="3.91507">
        <ele>88.1</ele>
        <time>2021-08-08T15:07:33Z</time>
      </trkpt>
      <trkpt lat="49.61688" lon="3.91415">
        <ele>85.21</ele>
        <time>2021-08-08T15:07:42Z</time>
      </trkpt>
      <trkpt lat="49.61694" lon="3.91316">
        <ele>82.81</ele>
        <time>2021-08-08T15:07:52Z</time>
      </trkpt>
      <trkpt lat="49.61693" lon="3.91305">
        <ele>82.81</ele>
        <time>2021-08-08T15:07:53Z</time>
      </trkpt>
      <trkpt lat="49.61687" lon="3.91235">
        <ele>82.33</ele>
        <time>2021-08-08T15:08:01Z</time>
      </trkpt>
      <trkpt lat="49.6168" lon="3.91153">
        <ele>83.77</ele>
        <time>2021-08-08T15:08:11Z</time>
      </trkpt>
      <trkpt lat="49.61681" lon="3.91146">
        <ele>83.77</ele>
        <time>2021-08-08T15:08:12Z</time>
      </trkpt>
      <trkpt lat="49.61684" lon="3.9114">
        <ele>84.25</ele>
        <time>2021-08-08T15:08:13Z</time>
      </trkpt>
      <trkpt lat="49.61686" lon="3.91137">
        <ele>85.21</ele>
        <time>2021-08-08T15:08:14Z</time>
      </trkpt>
      <trkpt lat="49.6169" lon="3.91135">
        <ele>85.21</ele>
        <time>2021-08-08T15:08:15Z</time>
      </trkpt>
      <trkpt lat="49.61694" lon="3.91133">
        <ele>85.21</ele>
        <time>2021-08-08T15:08:16Z</time>
      </trkpt>
      <trkpt lat="49.61698" lon="3.91131">
        <ele>85.21</ele>
        <time>2021-08-08T15:08:17Z</time>
      </trkpt>
      <trkpt lat="49.61701" lon="3.91127">
        <ele>85.21</ele>
        <time>2021-08-08T15:08:18Z</time>
      </trkpt>
      <trkpt lat="49.61704" lon="3.91121">
        <ele>85.21</ele>
        <time>2021-08-08T15:08:19Z</time>
      </trkpt>
      <trkpt lat="49.61706" lon="3.91114">
        <ele>83.77</ele>
        <time>2021-08-08T15:08:20Z</time>
      </trkpt>
      <trkpt lat="49.61707" lon="3.91106">
        <ele>83.77</ele>
        <time>2021-08-08T15:08:21Z</time>
      </trkpt>
      <trkpt lat="49.61706" lon="3.91099">
        <ele>83.29</ele>
        <time>2021-08-08T15:08:22Z</time>
      </trkpt>
      <trkpt lat="49.61704" lon="3.91093">
        <ele>83.29</ele>
        <time>2021-08-08T15:08:23Z</time>
      </trkpt>
      <trkpt lat="49.61702" lon="3.91087">
        <ele>83.29</ele>
        <time>2021-08-08T15:08:24Z</time>
      </trkpt>
      <trkpt lat="49.61699" lon="3.91081">
        <ele>83.29</ele>
        <time>2021-08-08T15:08:25Z</time>
      </trkpt>
      <trkpt lat="49.61697" lon="3.91075">
        <ele>83.29</ele>
        <time>2021-08-08T15:08:26Z</time>
      </trkpt>
      <trkpt lat="49.61694" lon="3.91069">
        <ele>83.29</ele>
        <time>2021-08-08T15:08:27Z</time>
      </trkpt>
      <trkpt lat="49.61662" lon="3.91019">
        <ele>83.77</ele>
        <time>2021-08-08T15:08:37Z</time>
      </trkpt>
      <trkpt lat="49.61651" lon="3.91005">
        <ele>83.77</ele>
        <time>2021-08-08T15:08:40Z</time>
      </trkpt>
      <trkpt lat="49.61636" lon="3.90991">
        <ele>83.77</ele>
        <time>2021-08-08T15:08:44Z</time>
      </trkpt>
      <trkpt lat="49.61627" lon="3.90986">
        <ele>81.85</ele>
        <time>2021-08-08T15:08:46Z</time>
      </trkpt>
      <trkpt lat="49.61618" lon="3.9098">
        <ele>82.81</ele>
        <time>2021-08-08T15:08:48Z</time>
      </trkpt>
      <trkpt lat="49.61598" lon="3.90963">
        <ele>83.29</ele>
        <time>2021-08-08T15:08:53Z</time>
      </trkpt>
      <trkpt lat="49.61595" lon="3.90959">
        <ele>83.29</ele>
        <time>2021-08-08T15:08:54Z</time>
      </trkpt>
      <trkpt lat="49.61591" lon="3.90953">
        <ele>83.29</ele>
        <time>2021-08-08T15:08:55Z</time>
      </trkpt>
      <trkpt lat="49.61588" lon="3.90948">
        <ele>83.29</ele>
        <time>2021-08-08T15:08:56Z</time>
      </trkpt>
      <trkpt lat="49.61586" lon="3.90942">
        <ele>83.29</ele>
        <time>2021-08-08T15:08:57Z</time>
      </trkpt>
      <trkpt lat="49.61583" lon="3.90936">
        <ele>83.29</ele>
        <time>2021-08-08T15:08:58Z</time>
      </trkpt>
      <trkpt lat="49.61578" lon="3.90916">
        <ele>83.29</ele>
        <time>2021-08-08T15:09:01Z</time>
      </trkpt>
      <trkpt lat="49.61573" lon="3.90849">
        <ele>83.29</ele>
        <time>2021-08-08T15:09:10Z</time>
      </trkpt>
      <trkpt lat="49.61569" lon="3.90767">
        <ele>83.29</ele>
        <time>2021-08-08T15:09:21Z</time>
      </trkpt>
      <trkpt lat="49.61563" lon="3.90693">
        <ele>83.29</ele>
        <time>2021-08-08T15:09:31Z</time>
      </trkpt>
      <trkpt lat="49.61562" lon="3.90654">
        <ele>83.29</ele>
        <time>2021-08-08T15:09:36Z</time>
      </trkpt>
      <trkpt lat="49.61563" lon="3.90647">
        <ele>83.29</ele>
        <time>2021-08-08T15:09:37Z</time>
      </trkpt>
      <trkpt lat="49.61564" lon="3.90639">
        <ele>83.29</ele>
        <time>2021-08-08T15:09:38Z</time>
      </trkpt>
      <trkpt lat="49.61566" lon="3.90632">
        <ele>83.29</ele>
        <time>2021-08-08T15:09:39Z</time>
      </trkpt>
      <trkpt lat="49.61568" lon="3.90624">
        <ele>83.29</ele>
        <time>2021-08-08T15:09:40Z</time>
      </trkpt>
      <trkpt lat="49.6157" lon="3.90618">
        <ele>83.29</ele>
        <time>2021-08-08T15:09:41Z</time>
      </trkpt>
      <trkpt lat="49.61573" lon="3.90612">
        <ele>83.29</ele>
        <time>2021-08-08T15:09:42Z</time>
      </trkpt>
      <trkpt lat="49.61577" lon="3.90607">
        <ele>83.29</ele>
        <time>2021-08-08T15:09:43Z</time>
      </trkpt>
      <trkpt lat="49.6158" lon="3.90602">
        <ele>83.29</ele>
        <time>2021-08-08T15:09:44Z</time>
      </trkpt>
      <trkpt lat="49.61592" lon="3.90588">
        <ele>83.29</ele>
        <time>2021-08-08T15:09:47Z</time>
      </trkpt>
      <trkpt lat="49.61633" lon="3.90554">
        <ele>83.29</ele>
        <time>2021-08-08T15:09:57Z</time>
      </trkpt>
      <trkpt lat="49.61645" lon="3.90544">
        <ele>83.29</ele>
        <time>2021-08-08T15:10:00Z</time>
      </trkpt>
      <trkpt lat="49.61649" lon="3.9054">
        <ele>83.29</ele>
        <time>2021-08-08T15:10:01Z</time>
      </trkpt>
      <trkpt lat="49.61653" lon="3.90537">
        <ele>83.29</ele>
        <time>2021-08-08T15:10:02Z</time>
      </trkpt>
      <trkpt lat="49.61661" lon="3.9053">
        <ele>83.29</ele>
        <time>2021-08-08T15:10:04Z</time>
      </trkpt>
      <trkpt lat="49.61665" lon="3.90527">
        <ele>83.29</ele>
        <time>2021-08-08T15:10:05Z</time>
      </trkpt>
      <trkpt lat="49.61705" lon="3.90488">
        <ele>83.29</ele>
        <time>2021-08-08T15:10:15Z</time>
      </trkpt>
      <trkpt lat="49.61712" lon="3.9048">
        <ele>83.29</ele>
        <time>2021-08-08T15:10:17Z</time>
      </trkpt>
      <trkpt lat="49.61715" lon="3.90475">
        <ele>83.29</ele>
        <time>2021-08-08T15:10:18Z</time>
      </trkpt>
      <trkpt lat="49.61741" lon="3.90435">
        <ele>83.29</ele>
        <time>2021-08-08T15:10:27Z</time>
      </trkpt>
      <trkpt lat="49.61744" lon="3.90418">
        <ele>83.29</ele>
        <time>2021-08-08T15:10:30Z</time>
      </trkpt>
      <trkpt lat="49.61742" lon="3.90366">
        <ele>83.29</ele>
        <time>2021-08-08T15:10:39Z</time>
      </trkpt>
      <trkpt lat="49.61731" lon="3.90329">
        <ele>83.29</ele>
        <time>2021-08-08T15:10:46Z</time>
      </trkpt>
      <trkpt lat="49.61706" lon="3.90269">
        <ele>83.29</ele>
        <time>2021-08-08T15:10:57Z</time>
      </trkpt>
      <trkpt lat="49.61697" lon="3.90246">
        <ele>81.85</ele>
        <time>2021-08-08T15:11:01Z</time>
      </trkpt>
      <trkpt lat="49.61695" lon="3.90241">
        <ele>81.85</ele>
        <time>2021-08-08T15:11:02Z</time>
      </trkpt>
      <trkpt lat="49.61693" lon="3.90236">
        <ele>81.85</ele>
        <time>2021-08-08T15:11:03Z</time>
      </trkpt>
      <trkpt lat="49.61691" lon="3.9023">
        <ele>81.85</ele>
        <time>2021-08-08T15:11:04Z</time>
      </trkpt>
      <trkpt lat="49.61688" lon="3.90225">
        <ele>81.85</ele>
        <time>2021-08-08T15:11:05Z</time>
      </trkpt>
      <trkpt lat="49.61669" lon="3.90174">
        <ele>81.85</ele>
        <time>2021-08-08T15:11:14Z</time>
      </trkpt>
      <trkpt lat="49.61646" lon="3.90111">
        <ele>81.85</ele>
        <time>2021-08-08T15:11:24Z</time>
      </trkpt>
      <trkpt lat="49.61623" lon="3.90047">
        <ele>81.85</ele>
        <time>2021-08-08T15:11:34Z</time>
      </trkpt>
      <trkpt lat="49.61601" lon="3.89997">
        <ele>81.85</ele>
        <time>2021-08-08T15:11:43Z</time>
      </trkpt>
      <trkpt lat="49.61577" lon="3.89955">
        <ele>84.73</ele>
        <time>2021-08-08T15:11:53Z</time>
      </trkpt>
      <trkpt lat="49.61568" lon="3.8994">
        <ele>85.21</ele>
        <time>2021-08-08T15:11:58Z</time>
      </trkpt>
      <trkpt lat="49.61566" lon="3.89939">
        <ele>85.69</ele>
        <time>2021-08-08T15:11:59Z</time>
      </trkpt>
      <trkpt lat="49.61565" lon="3.89936">
        <ele>85.69</ele>
        <time>2021-08-08T15:12:00Z</time>
      </trkpt>
      <trkpt lat="49.6155" lon="3.89904">
        <ele>87.14</ele>
        <time>2021-08-08T15:12:09Z</time>
      </trkpt>
      <trkpt lat="49.61531" lon="3.8987">
        <ele>88.58</ele>
        <time>2021-08-08T15:12:20Z</time>
      </trkpt>
      <trkpt lat="49.61517" lon="3.8984">
        <ele>89.54</ele>
        <time>2021-08-08T15:12:29Z</time>
      </trkpt>
      <trkpt lat="49.61496" lon="3.898">
        <ele>90.5</ele>
        <time>2021-08-08T15:12:41Z</time>
      </trkpt>
      <trkpt lat="49.61478" lon="3.89766">
        <ele>90.98</ele>
        <time>2021-08-08T15:12:51Z</time>
      </trkpt>
      <trkpt lat="49.6146" lon="3.89731">
        <ele>91.46</ele>
        <time>2021-08-08T15:13:01Z</time>
      </trkpt>
      <trkpt lat="49.61438" lon="3.89692">
        <ele>92.42</ele>
        <time>2021-08-08T15:13:12Z</time>
      </trkpt>
      <trkpt lat="49.61427" lon="3.89667">
        <ele>92.42</ele>
        <time>2021-08-08T15:13:18Z</time>
      </trkpt>
      <trkpt lat="49.6141" lon="3.89631">
        <ele>91.46</ele>
        <time>2021-08-08T15:13:25Z</time>
      </trkpt>
      <trkpt lat="49.61395" lon="3.896">
        <ele>90.98</ele>
        <time>2021-08-08T15:13:31Z</time>
      </trkpt>
      <trkpt lat="49.61392" lon="3.89595">
        <ele>90.98</ele>
        <time>2021-08-08T15:13:32Z</time>
      </trkpt>
      <trkpt lat="49.61379" lon="3.89572">
        <ele>90.5</ele>
        <time>2021-08-08T15:13:36Z</time>
      </trkpt>
      <trkpt lat="49.61363" lon="3.89529">
        <ele>91.46</ele>
        <time>2021-08-08T15:13:43Z</time>
      </trkpt>
      <trkpt lat="49.61346" lon="3.89498">
        <ele>92.42</ele>
        <time>2021-08-08T15:13:49Z</time>
      </trkpt>
      <trkpt lat="49.6133" lon="3.89469">
        <ele>93.39</ele>
        <time>2021-08-08T15:13:55Z</time>
      </trkpt>
      <trkpt lat="49.61306" lon="3.89427">
        <ele>95.31</ele>
        <time>2021-08-08T15:14:04Z</time>
      </trkpt>
      <trkpt lat="49.61279" lon="3.89377">
        <ele>96.75</ele>
        <time>2021-08-08T15:14:12Z</time>
      </trkpt>
      <trkpt lat="49.61263" lon="3.89344">
        <ele>97.23</ele>
        <time>2021-08-08T15:14:19Z</time>
      </trkpt>
      <trkpt lat="49.61263" lon="3.89316">
        <ele>97.71</ele>
        <time>2021-08-08T15:14:25Z</time>
      </trkpt>
      <trkpt lat="49.61269" lon="3.89281">
        <ele>97.71</ele>
        <time>2021-08-08T15:14:31Z</time>
      </trkpt>
      <trkpt lat="49.61287" lon="3.89215">
        <ele>95.31</ele>
        <time>2021-08-08T15:14:40Z</time>
      </trkpt>
      <trkpt lat="49.61297" lon="3.89179">
        <ele>93.87</ele>
        <time>2021-08-08T15:14:44Z</time>
      </trkpt>
      <trkpt lat="49.61299" lon="3.89168">
        <ele>93.39</ele>
        <time>2021-08-08T15:14:45Z</time>
      </trkpt>
      <trkpt lat="49.61301" lon="3.89149">
        <ele>93.39</ele>
        <time>2021-08-08T15:14:47Z</time>
      </trkpt>
      <trkpt lat="49.61307" lon="3.89118">
        <ele>93.39</ele>
        <time>2021-08-08T15:14:50Z</time>
      </trkpt>
      <trkpt lat="49.61327" lon="3.89037">
        <ele>93.87</ele>
        <time>2021-08-08T15:14:58Z</time>
      </trkpt>
      <trkpt lat="49.61347" lon="3.88967">
        <ele>93.87</ele>
        <time>2021-08-08T15:15:06Z</time>
      </trkpt>
      <trkpt lat="49.61359" lon="3.88909">
        <ele>95.31</ele>
        <time>2021-08-08T15:15:14Z</time>
      </trkpt>
      <trkpt lat="49.61361" lon="3.88894">
        <ele>93.87</ele>
        <time>2021-08-08T15:15:16Z</time>
      </trkpt>
      <trkpt lat="49.61363" lon="3.88886">
        <ele>93.87</ele>
        <time>2021-08-08T15:15:17Z</time>
      </trkpt>
      <trkpt lat="49.61371" lon="3.88849">
        <ele>93.87</ele>
        <time>2021-08-08T15:15:22Z</time>
      </trkpt>
      <trkpt lat="49.61388" lon="3.88781">
        <ele>93.39</ele>
        <time>2021-08-08T15:15:31Z</time>
      </trkpt>
      <trkpt lat="49.61404" lon="3.8871">
        <ele>90.5</ele>
        <time>2021-08-08T15:15:40Z</time>
      </trkpt>
      <trkpt lat="49.61406" lon="3.88701">
        <ele>90.5</ele>
        <time>2021-08-08T15:15:41Z</time>
      </trkpt>
      <trkpt lat="49.61416" lon="3.8866">
        <ele>89.54</ele>
        <time>2021-08-08T15:15:46Z</time>
      </trkpt>
      <trkpt lat="49.61428" lon="3.88599">
        <ele>89.54</ele>
        <time>2021-08-08T15:15:54Z</time>
      </trkpt>
      <trkpt lat="49.61445" lon="3.88531">
        <ele>88.1</ele>
        <time>2021-08-08T15:16:02Z</time>
      </trkpt>
      <trkpt lat="49.61461" lon="3.88456">
        <ele>89.06</ele>
        <time>2021-08-08T15:16:11Z</time>
      </trkpt>
      <trkpt lat="49.61476" lon="3.8838">
        <ele>87.62</ele>
        <time>2021-08-08T15:16:21Z</time>
      </trkpt>
      <trkpt lat="49.61486" lon="3.88328">
        <ele>88.58</ele>
        <time>2021-08-08T15:16:29Z</time>
      </trkpt>
      <trkpt lat="49.61487" lon="3.88322">
        <ele>88.58</ele>
        <time>2021-08-08T15:16:30Z</time>
      </trkpt>
      <trkpt lat="49.61489" lon="3.88316">
        <ele>88.58</ele>
        <time>2021-08-08T15:16:31Z</time>
      </trkpt>
      <trkpt lat="49.6149" lon="3.88311">
        <ele>88.58</ele>
        <time>2021-08-08T15:16:32Z</time>
      </trkpt>
      <trkpt lat="49.61491" lon="3.88305">
        <ele>88.58</ele>
        <time>2021-08-08T15:16:33Z</time>
      </trkpt>
      <trkpt lat="49.61491" lon="3.883">
        <ele>89.54</ele>
        <time>2021-08-08T15:16:34Z</time>
      </trkpt>
      <trkpt lat="49.61491" lon="3.88295">
        <ele>89.54</ele>
        <time>2021-08-08T15:16:35Z</time>
      </trkpt>
      <trkpt lat="49.6149" lon="3.88291">
        <ele>89.54</ele>
        <time>2021-08-08T15:16:36Z</time>
      </trkpt>
      <trkpt lat="49.61488" lon="3.88287">
        <ele>89.54</ele>
        <time>2021-08-08T15:16:37Z</time>
      </trkpt>
      <trkpt lat="49.61486" lon="3.88284">
        <ele>89.54</ele>
        <time>2021-08-08T15:16:38Z</time>
      </trkpt>
      <trkpt lat="49.61484" lon="3.8828">
        <ele>90.02</ele>
        <time>2021-08-08T15:16:39Z</time>
      </trkpt>
      <trkpt lat="49.61474" lon="3.8825">
        <ele>90.5</ele>
        <time>2021-08-08T15:16:46Z</time>
      </trkpt>
      <trkpt lat="49.61475" lon="3.88215">
        <ele>90.98</ele>
        <time>2021-08-08T15:16:53Z</time>
      </trkpt>
      <trkpt lat="49.61478" lon="3.88175">
        <ele>90.98</ele>
        <time>2021-08-08T15:17:00Z</time>
      </trkpt>
      <trkpt lat="49.61462" lon="3.88132">
        <ele>90.98</ele>
        <time>2021-08-08T15:17:08Z</time>
      </trkpt>
      <trkpt lat="49.61437" lon="3.88074">
        <ele>90.98</ele>
        <time>2021-08-08T15:17:19Z</time>
      </trkpt>
      <trkpt lat="49.61409" lon="3.88009">
        <ele>91.46</ele>
        <time>2021-08-08T15:17:31Z</time>
      </trkpt>
      <trkpt lat="49.61382" lon="3.87942">
        <ele>91.46</ele>
        <time>2021-08-08T15:17:42Z</time>
      </trkpt>
      <trkpt lat="49.6136" lon="3.8789">
        <ele>91.46</ele>
        <time>2021-08-08T15:17:50Z</time>
      </trkpt>
      <trkpt lat="49.61358" lon="3.87882">
        <ele>91.46</ele>
        <time>2021-08-08T15:17:51Z</time>
      </trkpt>
      <trkpt lat="49.61357" lon="3.87874">
        <ele>91.46</ele>
        <time>2021-08-08T15:17:52Z</time>
      </trkpt>
      <trkpt lat="49.61357" lon="3.87866">
        <ele>90.02</ele>
        <time>2021-08-08T15:17:53Z</time>
      </trkpt>
      <trkpt lat="49.61359" lon="3.87859">
        <ele>90.02</ele>
        <time>2021-08-08T15:17:54Z</time>
      </trkpt>
      <trkpt lat="49.61362" lon="3.87853">
        <ele>90.02</ele>
        <time>2021-08-08T15:17:55Z</time>
      </trkpt>
      <trkpt lat="49.61365" lon="3.87849">
        <ele>90.02</ele>
        <time>2021-08-08T15:17:56Z</time>
      </trkpt>
      <trkpt lat="49.61369" lon="3.87847">
        <ele>90.02</ele>
        <time>2021-08-08T15:17:57Z</time>
      </trkpt>
      <trkpt lat="49.61373" lon="3.87845">
        <ele>90.02</ele>
        <time>2021-08-08T15:17:58Z</time>
      </trkpt>
      <trkpt lat="49.61378" lon="3.87844">
        <ele>90.02</ele>
        <time>2021-08-08T15:17:59Z</time>
      </trkpt>
      <trkpt lat="49.61382" lon="3.87842">
        <ele>90.02</ele>
        <time>2021-08-08T15:18:00Z</time>
      </trkpt>
      <trkpt lat="49.61413" lon="3.87835">
        <ele>91.46</ele>
        <time>2021-08-08T15:18:07Z</time>
      </trkpt>
      <trkpt lat="49.61421" lon="3.87833">
        <ele>91.46</ele>
        <time>2021-08-08T15:18:09Z</time>
      </trkpt>
      <trkpt lat="49.61426" lon="3.87832">
        <ele>91.46</ele>
        <time>2021-08-08T15:18:10Z</time>
      </trkpt>
      <trkpt lat="49.61467" lon="3.87823">
        <ele>90.02</ele>
        <time>2021-08-08T15:18:18Z</time>
      </trkpt>
      <trkpt lat="49.61501" lon="3.87815">
        <ele>87.62</ele>
        <time>2021-08-08T15:18:23Z</time>
      </trkpt>
      <trkpt lat="49.61529" lon="3.87808">
        <ele>86.18</ele>
        <time>2021-08-08T15:18:27Z</time>
      </trkpt>
      <trkpt lat="49.61563" lon="3.87799">
        <ele>84.25</ele>
        <time>2021-08-08T15:18:31Z</time>
      </trkpt>
      <trkpt lat="49.61606" lon="3.8779">
        <ele>80.89</ele>
        <time>2021-08-08T15:18:36Z</time>
      </trkpt>
      <trkpt lat="49.61614" lon="3.87789">
        <ele>80.41</ele>
        <time>2021-08-08T15:18:37Z</time>
      </trkpt>
      <trkpt lat="49.61652" lon="3.87811">
        <ele>79.45</ele>
        <time>2021-08-08T15:18:42Z</time>
      </trkpt>
      <trkpt lat="49.61664" lon="3.87836">
        <ele>79.45</ele>
        <time>2021-08-08T15:18:45Z</time>
      </trkpt>
      <trkpt lat="49.61686" lon="3.87895">
        <ele>79.93</ele>
        <time>2021-08-08T15:18:52Z</time>
      </trkpt>
      <trkpt lat="49.61691" lon="3.87901">
        <ele>79.93</ele>
        <time>2021-08-08T15:18:53Z</time>
      </trkpt>
      <trkpt lat="49.61698" lon="3.87905">
        <ele>79.93</ele>
        <time>2021-08-08T15:18:54Z</time>
      </trkpt>
      <trkpt lat="49.61704" lon="3.87906">
        <ele>79.93</ele>
        <time>2021-08-08T15:18:55Z</time>
      </trkpt>
      <trkpt lat="49.61711" lon="3.87906">
        <ele>79.93</ele>
        <time>2021-08-08T15:18:56Z</time>
      </trkpt>
      <trkpt lat="49.61764" lon="3.87899">
        <ele>79.93</ele>
        <time>2021-08-08T15:19:04Z</time>
      </trkpt>
      <trkpt lat="49.61803" lon="3.87895">
        <ele>78.97</ele>
        <time>2021-08-08T15:19:11Z</time>
      </trkpt>
      <trkpt lat="49.61814" lon="3.87897">
        <ele>78.97</ele>
        <time>2021-08-08T15:19:13Z</time>
      </trkpt>
      <trkpt lat="49.6182" lon="3.87898">
        <ele>78.97</ele>
        <time>2021-08-08T15:19:14Z</time>
      </trkpt>
      <trkpt lat="49.6185" lon="3.87917">
        <ele>78.97</ele>
        <time>2021-08-08T15:19:20Z</time>
      </trkpt>
      <trkpt lat="49.61903" lon="3.87949">
        <ele>78.97</ele>
        <time>2021-08-08T15:19:29Z</time>
      </trkpt>
      <trkpt lat="49.61955" lon="3.87976">
        <ele>78.97</ele>
        <time>2021-08-08T15:19:38Z</time>
      </trkpt>
      <trkpt lat="49.61964" lon="3.87982">
        <ele>80.41</ele>
        <time>2021-08-08T15:19:40Z</time>
      </trkpt>
      <trkpt lat="49.61969" lon="3.87984">
        <ele>80.41</ele>
        <time>2021-08-08T15:19:41Z</time>
      </trkpt>
      <trkpt lat="49.61992" lon="3.87999">
        <ele>83.77</ele>
        <time>2021-08-08T15:19:48Z</time>
      </trkpt>
      <trkpt lat="49.62007" lon="3.8801">
        <ele>85.21</ele>
        <time>2021-08-08T15:19:53Z</time>
      </trkpt>
      <trkpt lat="49.62009" lon="3.88008">
        <ele>85.21</ele>
        <time>2021-08-08T15:19:54Z</time>
      </trkpt>
      <trkpt lat="49.6201" lon="3.88004">
        <ele>85.21</ele>
        <time>2021-08-08T15:19:55Z</time>
      </trkpt>
      <trkpt lat="49.6201" lon="3.88">
        <ele>85.21</ele>
        <time>2021-08-08T15:19:56Z</time>
      </trkpt>
      <trkpt lat="49.62009" lon="3.87995">
        <ele>85.21</ele>
        <time>2021-08-08T15:19:57Z</time>
      </trkpt>
      <trkpt lat="49.62008" lon="3.8799">
        <ele>85.21</ele>
        <time>2021-08-08T15:19:58Z</time>
      </trkpt>
      <trkpt lat="49.62008" lon="3.87985">
        <ele>85.21</ele>
        <time>2021-08-08T15:19:59Z</time>
      </trkpt>
      <trkpt lat="49.62007" lon="3.87979">
        <ele>85.21</ele>
        <time>2021-08-08T15:20:00Z</time>
      </trkpt>
      <trkpt lat="49.62002" lon="3.87936">
        <ele>85.69</ele>
        <time>2021-08-08T15:20:08Z</time>
      </trkpt>
      <trkpt lat="49.61998" lon="3.8788">
        <ele>86.18</ele>
        <time>2021-08-08T15:20:18Z</time>
      </trkpt>
      <trkpt lat="49.61998" lon="3.87827">
        <ele>86.66</ele>
        <time>2021-08-08T15:20:28Z</time>
      </trkpt>
      <trkpt lat="49.62002" lon="3.87789">
        <ele>86.66</ele>
        <time>2021-08-08T15:20:36Z</time>
      </trkpt>
      <trkpt lat="49.62007" lon="3.87753">
        <ele>87.14</ele>
        <time>2021-08-08T15:20:44Z</time>
      </trkpt>
      <trkpt lat="49.62015" lon="3.87701">
        <ele>87.62</ele>
        <time>2021-08-08T15:20:55Z</time>
      </trkpt>
      <trkpt lat="49.6202" lon="3.87657">
        <ele>88.58</ele>
        <time>2021-08-08T15:21:04Z</time>
      </trkpt>
      <trkpt lat="49.62024" lon="3.87602">
        <ele>88.58</ele>
        <time>2021-08-08T15:21:14Z</time>
      </trkpt>
      <trkpt lat="49.62031" lon="3.87544">
        <ele>87.14</ele>
        <time>2021-08-08T15:21:24Z</time>
      </trkpt>
      <trkpt lat="49.62033" lon="3.87495">
        <ele>86.66</ele>
        <time>2021-08-08T15:21:32Z</time>
      </trkpt>
      <trkpt lat="49.62033" lon="3.87489">
        <ele>85.69</ele>
        <time>2021-08-08T15:21:33Z</time>
      </trkpt>
      <trkpt lat="49.62035" lon="3.87452">
        <ele>85.21</ele>
        <time>2021-08-08T15:21:39Z</time>
      </trkpt>
      <trkpt lat="49.62036" lon="3.87445">
        <ele>85.21</ele>
        <time>2021-08-08T15:21:40Z</time>
      </trkpt>
      <trkpt lat="49.62039" lon="3.87394">
        <ele>84.73</ele>
        <time>2021-08-08T15:21:48Z</time>
      </trkpt>
      <trkpt lat="49.62042" lon="3.87345">
        <ele>84.25</ele>
        <time>2021-08-08T15:21:56Z</time>
      </trkpt>
      <trkpt lat="49.62046" lon="3.87297">
        <ele>83.77</ele>
        <time>2021-08-08T15:22:04Z</time>
      </trkpt>
      <trkpt lat="49.6205" lon="3.87241">
        <ele>82.81</ele>
        <time>2021-08-08T15:22:13Z</time>
      </trkpt>
      <trkpt lat="49.62055" lon="3.87193">
        <ele>82.81</ele>
        <time>2021-08-08T15:22:21Z</time>
      </trkpt>
      <trkpt lat="49.62058" lon="3.87168">
        <ele>81.37</ele>
        <time>2021-08-08T15:22:25Z</time>
      </trkpt>
      <trkpt lat="49.62062" lon="3.87122">
        <ele>80.41</ele>
        <time>2021-08-08T15:22:33Z</time>
      </trkpt>
      <trkpt lat="49.62066" lon="3.87076">
        <ele>81.37</ele>
        <time>2021-08-08T15:22:41Z</time>
      </trkpt>
      <trkpt lat="49.62071" lon="3.87031">
        <ele>78.97</ele>
        <time>2021-08-08T15:22:49Z</time>
      </trkpt>
      <trkpt lat="49.62073" lon="3.8701">
        <ele>80.89</ele>
        <time>2021-08-08T15:22:53Z</time>
      </trkpt>
      <trkpt lat="49.62078" lon="3.86963">
        <ele>80.89</ele>
        <time>2021-08-08T15:23:01Z</time>
      </trkpt>
      <trkpt lat="49.62088" lon="3.86897">
        <ele>78.97</ele>
        <time>2021-08-08T15:23:11Z</time>
      </trkpt>
      <trkpt lat="49.62104" lon="3.86844">
        <ele>78.48</ele>
        <time>2021-08-08T15:23:20Z</time>
      </trkpt>
      <trkpt lat="49.6212" lon="3.86793">
        <ele>78</ele>
        <time>2021-08-08T15:23:29Z</time>
      </trkpt>
      <trkpt lat="49.62133" lon="3.86757">
        <ele>78</ele>
        <time>2021-08-08T15:23:36Z</time>
      </trkpt>
      <trkpt lat="49.62137" lon="3.86745">
        <ele>77.52</ele>
        <time>2021-08-08T15:23:38Z</time>
      </trkpt>
      <trkpt lat="49.62149" lon="3.86698">
        <ele>78</ele>
        <time>2021-08-08T15:23:46Z</time>
      </trkpt>
      <trkpt lat="49.62157" lon="3.86652">
        <ele>78.97</ele>
        <time>2021-08-08T15:23:54Z</time>
      </trkpt>
      <trkpt lat="49.62163" lon="3.86595">
        <ele>79.45</ele>
        <time>2021-08-08T15:24:04Z</time>
      </trkpt>
      <trkpt lat="49.62166" lon="3.86549">
        <ele>79.93</ele>
        <time>2021-08-08T15:24:12Z</time>
      </trkpt>
      <trkpt lat="49.62173" lon="3.86491">
        <ele>79.93</ele>
        <time>2021-08-08T15:24:22Z</time>
      </trkpt>
      <trkpt lat="49.62189" lon="3.8647">
        <ele>80.41</ele>
        <time>2021-08-08T15:24:28Z</time>
      </trkpt>
      <trkpt lat="49.62203" lon="3.86444">
        <ele>81.85</ele>
        <time>2021-08-08T15:24:35Z</time>
      </trkpt>
      <trkpt lat="49.62208" lon="3.86404">
        <ele>82.81</ele>
        <time>2021-08-08T15:24:43Z</time>
      </trkpt>
      <trkpt lat="49.62208" lon="3.86374">
        <ele>81.37</ele>
        <time>2021-08-08T15:24:48Z</time>
      </trkpt>
      <trkpt lat="49.62213" lon="3.86331">
        <ele>82.33</ele>
        <time>2021-08-08T15:24:56Z</time>
      </trkpt>
      <trkpt lat="49.62222" lon="3.86285">
        <ele>83.77</ele>
        <time>2021-08-08T15:25:06Z</time>
      </trkpt>
      <trkpt lat="49.62229" lon="3.86248">
        <ele>83.29</ele>
        <time>2021-08-08T15:25:14Z</time>
      </trkpt>
      <trkpt lat="49.62235" lon="3.86208">
        <ele>84.25</ele>
        <time>2021-08-08T15:25:23Z</time>
      </trkpt>
      <trkpt lat="49.62231" lon="3.86162">
        <ele>84.73</ele>
        <time>2021-08-08T15:25:32Z</time>
      </trkpt>
      <trkpt lat="49.6222" lon="3.8611">
        <ele>83.77</ele>
        <time>2021-08-08T15:25:41Z</time>
      </trkpt>
      <trkpt lat="49.62209" lon="3.86052">
        <ele>83.77</ele>
        <time>2021-08-08T15:25:50Z</time>
      </trkpt>
      <trkpt lat="49.62198" lon="3.85992">
        <ele>82.33</ele>
        <time>2021-08-08T15:25:59Z</time>
      </trkpt>
      <trkpt lat="49.62185" lon="3.85929">
        <ele>81.37</ele>
        <time>2021-08-08T15:26:09Z</time>
      </trkpt>
      <trkpt lat="49.62184" lon="3.85923">
        <ele>81.37</ele>
        <time>2021-08-08T15:26:10Z</time>
      </trkpt>
      <trkpt lat="49.62172" lon="3.85868">
        <ele>80.89</ele>
        <time>2021-08-08T15:26:18Z</time>
      </trkpt>
      <trkpt lat="49.62159" lon="3.85797">
        <ele>79.45</ele>
        <time>2021-08-08T15:26:28Z</time>
      </trkpt>
      <trkpt lat="49.62144" lon="3.85717">
        <ele>78.97</ele>
        <time>2021-08-08T15:26:39Z</time>
      </trkpt>
      <trkpt lat="49.62138" lon="3.85689">
        <ele>78</ele>
        <time>2021-08-08T15:26:44Z</time>
      </trkpt>
      <trkpt lat="49.62136" lon="3.85687">
        <ele>78</ele>
        <time>2021-08-08T15:26:45Z</time>
      </trkpt>
      <trkpt lat="49.62133" lon="3.85686">
        <ele>77.52</ele>
        <time>2021-08-08T15:26:46Z</time>
      </trkpt>
      <trkpt lat="49.6213" lon="3.85686">
        <ele>77.52</ele>
        <time>2021-08-08T15:26:47Z</time>
      </trkpt>
      <trkpt lat="49.62126" lon="3.85685">
        <ele>77.52</ele>
        <time>2021-08-08T15:26:48Z</time>
      </trkpt>
      <trkpt lat="49.62123" lon="3.85683">
        <ele>77.04</ele>
        <time>2021-08-08T15:26:49Z</time>
      </trkpt>
      <trkpt lat="49.62119" lon="3.8568">
        <ele>77.04</ele>
        <time>2021-08-08T15:26:50Z</time>
      </trkpt>
      <trkpt lat="49.62115" lon="3.85676">
        <ele>77.04</ele>
        <time>2021-08-08T15:26:51Z</time>
      </trkpt>
      <trkpt lat="49.62111" lon="3.85672">
        <ele>77.04</ele>
        <time>2021-08-08T15:26:52Z</time>
      </trkpt>
      <trkpt lat="49.62102" lon="3.85664">
        <ele>77.04</ele>
        <time>2021-08-08T15:26:54Z</time>
      </trkpt>
      <trkpt lat="49.62095" lon="3.85657">
        <ele>77.04</ele>
        <time>2021-08-08T15:26:56Z</time>
      </trkpt>
      <trkpt lat="49.62056" lon="3.85615">
        <ele>76.08</ele>
        <time>2021-08-08T15:27:05Z</time>
      </trkpt>
      <trkpt lat="49.62027" lon="3.85586">
        <ele>76.08</ele>
        <time>2021-08-08T15:27:12Z</time>
      </trkpt>
      <trkpt lat="49.62002" lon="3.85565">
        <ele>76.08</ele>
        <time>2021-08-08T15:27:18Z</time>
      </trkpt>
      <trkpt lat="49.61974" lon="3.85539">
        <ele>76.08</ele>
        <time>2021-08-08T15:27:24Z</time>
      </trkpt>
      <trkpt lat="49.61929" lon="3.85512">
        <ele>74.64</ele>
        <time>2021-08-08T15:27:33Z</time>
      </trkpt>
      <trkpt lat="49.61918" lon="3.85508">
        <ele>74.64</ele>
        <time>2021-08-08T15:27:35Z</time>
      </trkpt>
      <trkpt lat="49.61897" lon="3.85502">
        <ele>74.64</ele>
        <time>2021-08-08T15:27:39Z</time>
      </trkpt>
      <trkpt lat="49.61886" lon="3.85501">
        <ele>74.64</ele>
        <time>2021-08-08T15:27:41Z</time>
      </trkpt>
      <trkpt lat="49.61881" lon="3.85501">
        <ele>74.16</ele>
        <time>2021-08-08T15:27:42Z</time>
      </trkpt>
      <trkpt lat="49.61826" lon="3.85507">
        <ele>74.16</ele>
        <time>2021-08-08T15:27:53Z</time>
      </trkpt>
      <trkpt lat="49.61778" lon="3.8551">
        <ele>75.6</ele>
        <time>2021-08-08T15:28:03Z</time>
      </trkpt>
      <trkpt lat="49.61734" lon="3.8551">
        <ele>76.56</ele>
        <time>2021-08-08T15:28:13Z</time>
      </trkpt>
      <trkpt lat="49.6168" lon="3.85507">
        <ele>76.08</ele>
        <time>2021-08-08T15:28:25Z</time>
      </trkpt>
      <trkpt lat="49.61645" lon="3.85503">
        <ele>76.08</ele>
        <time>2021-08-08T15:28:34Z</time>
      </trkpt>
      <trkpt lat="49.61619" lon="3.855">
        <ele>76.56</ele>
        <time>2021-08-08T15:28:40Z</time>
      </trkpt>
      <trkpt lat="49.61575" lon="3.85495">
        <ele>76.56</ele>
        <time>2021-08-08T15:28:49Z</time>
      </trkpt>
      <trkpt lat="49.61571" lon="3.85493">
        <ele>76.56</ele>
        <time>2021-08-08T15:28:50Z</time>
      </trkpt>
      <trkpt lat="49.61567" lon="3.85489">
        <ele>76.56</ele>
        <time>2021-08-08T15:28:51Z</time>
      </trkpt>
      <trkpt lat="49.61564" lon="3.85483">
        <ele>76.56</ele>
        <time>2021-08-08T15:28:52Z</time>
      </trkpt>
      <trkpt lat="49.61564" lon="3.85478">
        <ele>76.56</ele>
        <time>2021-08-08T15:28:53Z</time>
      </trkpt>
      <trkpt lat="49.61564" lon="3.85473">
        <ele>76.56</ele>
        <time>2021-08-08T15:28:54Z</time>
      </trkpt>
      <trkpt lat="49.61565" lon="3.85468">
        <ele>76.56</ele>
        <time>2021-08-08T15:28:55Z</time>
      </trkpt>
      <trkpt lat="49.61566" lon="3.85462">
        <ele>76.56</ele>
        <time>2021-08-08T15:28:56Z</time>
      </trkpt>
      <trkpt lat="49.61573" lon="3.85438">
        <ele>75.6</ele>
        <time>2021-08-08T15:29:02Z</time>
      </trkpt>
      <trkpt lat="49.61572" lon="3.85441">
        <ele>75.6</ele>
        <time>2021-08-08T15:29:07Z</time>
      </trkpt>
      <trkpt lat="49.61571" lon="3.85447">
        <ele>75.6</ele>
        <time>2021-08-08T15:29:10Z</time>
      </trkpt>
      <trkpt lat="49.6157" lon="3.8545">
        <ele>75.6</ele>
        <time>2021-08-08T15:29:11Z</time>
      </trkpt>
      <trkpt lat="49.61566" lon="3.85463">
        <ele>75.6</ele>
        <time>2021-08-08T15:29:16Z</time>
      </trkpt>
      <trkpt lat="49.61566" lon="3.85466">
        <ele>75.6</ele>
        <time>2021-08-08T15:29:17Z</time>
      </trkpt>
      <trkpt lat="49.61565" lon="3.85474">
        <ele>75.6</ele>
        <time>2021-08-08T15:29:20Z</time>
      </trkpt>
      <trkpt lat="49.61565" lon="3.85476">
        <ele>75.6</ele>
        <time>2021-08-08T15:29:21Z</time>
      </trkpt>
      <trkpt lat="49.61565" lon="3.85488">
        <ele>75.6</ele>
        <time>2021-08-08T15:29:25Z</time>
      </trkpt>
      <trkpt lat="49.61564" lon="3.8549">
        <ele>75.6</ele>
        <time>2021-08-08T15:29:26Z</time>
      </trkpt>
      <trkpt lat="49.61562" lon="3.85491">
        <ele>75.6</ele>
        <time>2021-08-08T15:29:27Z</time>
      </trkpt>
      <trkpt lat="49.6156" lon="3.8549">
        <ele>75.6</ele>
        <time>2021-08-08T15:29:28Z</time>
      </trkpt>
      <trkpt lat="49.61558" lon="3.8549">
        <ele>75.6</ele>
        <time>2021-08-08T15:29:29Z</time>
      </trkpt>
      <trkpt lat="49.61541" lon="3.85478">
        <ele>75.6</ele>
        <time>2021-08-08T15:29:35Z</time>
      </trkpt>
      <trkpt lat="49.61522" lon="3.85459">
        <ele>75.6</ele>
        <time>2021-08-08T15:29:42Z</time>
      </trkpt>
      <trkpt lat="49.61497" lon="3.85434">
        <ele>74.64</ele>
        <time>2021-08-08T15:29:50Z</time>
      </trkpt>
      <trkpt lat="49.61477" lon="3.85413">
        <ele>74.16</ele>
        <time>2021-08-08T15:29:57Z</time>
      </trkpt>
      <trkpt lat="49.61457" lon="3.85393">
        <ele>73.68</ele>
        <time>2021-08-08T15:30:04Z</time>
      </trkpt>
      <trkpt lat="49.6143" lon="3.85364">
        <ele>73.68</ele>
        <time>2021-08-08T15:30:13Z</time>
      </trkpt>
      <trkpt lat="49.61402" lon="3.85338">
        <ele>73.2</ele>
        <time>2021-08-08T15:30:21Z</time>
      </trkpt>
      <trkpt lat="49.61372" lon="3.85306">
        <ele>73.2</ele>
        <time>2021-08-08T15:30:29Z</time>
      </trkpt>
      <trkpt lat="49.61341" lon="3.85272">
        <ele>73.2</ele>
        <time>2021-08-08T15:30:38Z</time>
      </trkpt>
      <trkpt lat="49.61313" lon="3.85242">
        <ele>73.2</ele>
        <time>2021-08-08T15:30:47Z</time>
      </trkpt>
      <trkpt lat="49.61288" lon="3.85215">
        <ele>73.2</ele>
        <time>2021-08-08T15:30:55Z</time>
      </trkpt>
      <trkpt lat="49.61266" lon="3.85191">
        <ele>73.2</ele>
        <time>2021-08-08T15:31:02Z</time>
      </trkpt>
      <trkpt lat="49.61234" lon="3.85157">
        <ele>73.2</ele>
        <time>2021-08-08T15:31:12Z</time>
      </trkpt>
      <trkpt lat="49.61208" lon="3.85129">
        <ele>73.2</ele>
        <time>2021-08-08T15:31:20Z</time>
      </trkpt>
      <trkpt lat="49.61183" lon="3.85101">
        <ele>73.2</ele>
        <time>2021-08-08T15:31:28Z</time>
      </trkpt>
      <trkpt lat="49.61154" lon="3.8507">
        <ele>73.2</ele>
        <time>2021-08-08T15:31:37Z</time>
      </trkpt>
      <trkpt lat="49.61124" lon="3.8504">
        <ele>73.2</ele>
        <time>2021-08-08T15:31:46Z</time>
      </trkpt>
      <trkpt lat="49.61117" lon="3.85034">
        <ele>73.2</ele>
        <time>2021-08-08T15:31:48Z</time>
      </trkpt>
      <trkpt lat="49.61113" lon="3.85031">
        <ele>73.2</ele>
        <time>2021-08-08T15:31:49Z</time>
      </trkpt>
      <trkpt lat="49.61092" lon="3.8501">
        <ele>73.2</ele>
        <time>2021-08-08T15:31:55Z</time>
      </trkpt>
      <trkpt lat="49.61071" lon="3.84988">
        <ele>73.2</ele>
        <time>2021-08-08T15:32:02Z</time>
      </trkpt>
      <trkpt lat="49.6105" lon="3.8496">
        <ele>73.2</ele>
        <time>2021-08-08T15:32:10Z</time>
      </trkpt>
      <trkpt lat="49.61035" lon="3.84943">
        <ele>73.2</ele>
        <time>2021-08-08T15:32:15Z</time>
      </trkpt>
      <trkpt lat="49.61005" lon="3.84915">
        <ele>73.2</ele>
        <time>2021-08-08T15:32:23Z</time>
      </trkpt>
      <trkpt lat="49.60972" lon="3.84882">
        <ele>73.2</ele>
        <time>2021-08-08T15:32:31Z</time>
      </trkpt>
      <trkpt lat="49.60952" lon="3.84861">
        <ele>73.2</ele>
        <time>2021-08-08T15:32:37Z</time>
      </trkpt>
      <trkpt lat="49.60922" lon="3.84827">
        <ele>73.2</ele>
        <time>2021-08-08T15:32:45Z</time>
      </trkpt>
      <trkpt lat="49.60907" lon="3.84812">
        <ele>73.2</ele>
        <time>2021-08-08T15:32:48Z</time>
      </trkpt>
      <trkpt lat="49.60902" lon="3.84807">
        <ele>73.2</ele>
        <time>2021-08-08T15:32:49Z</time>
      </trkpt>
      <trkpt lat="49.60857" lon="3.84758">
        <ele>72.24</ele>
        <time>2021-08-08T15:32:58Z</time>
      </trkpt>
      <trkpt lat="49.60808" lon="3.84706">
        <ele>72.24</ele>
        <time>2021-08-08T15:33:08Z</time>
      </trkpt>
      <trkpt lat="49.60773" lon="3.84672">
        <ele>71.76</ele>
        <time>2021-08-08T15:33:15Z</time>
      </trkpt>
      <trkpt lat="49.60738" lon="3.84637">
        <ele>71.76</ele>
        <time>2021-08-08T15:33:22Z</time>
      </trkpt>
      <trkpt lat="49.60698" lon="3.84594">
        <ele>71.76</ele>
        <time>2021-08-08T15:33:30Z</time>
      </trkpt>
      <trkpt lat="49.60674" lon="3.84568">
        <ele>71.76</ele>
        <time>2021-08-08T15:33:35Z</time>
      </trkpt>
      <trkpt lat="49.6067" lon="3.84562">
        <ele>71.76</ele>
        <time>2021-08-08T15:33:36Z</time>
      </trkpt>
      <trkpt lat="49.60662" lon="3.84549">
        <ele>71.76</ele>
        <time>2021-08-08T15:33:38Z</time>
      </trkpt>
      <trkpt lat="49.60653" lon="3.84526">
        <ele>71.76</ele>
        <time>2021-08-08T15:33:41Z</time>
      </trkpt>
      <trkpt lat="49.60651" lon="3.84518">
        <ele>71.76</ele>
        <time>2021-08-08T15:33:42Z</time>
      </trkpt>
      <trkpt lat="49.6065" lon="3.8451">
        <ele>71.76</ele>
        <time>2021-08-08T15:33:43Z</time>
      </trkpt>
      <trkpt lat="49.60637" lon="3.84429">
        <ele>71.76</ele>
        <time>2021-08-08T15:33:53Z</time>
      </trkpt>
      <trkpt lat="49.60631" lon="3.844">
        <ele>73.2</ele>
        <time>2021-08-08T15:33:57Z</time>
      </trkpt>
      <trkpt lat="49.60616" lon="3.8436">
        <ele>71.76</ele>
        <time>2021-08-08T15:34:03Z</time>
      </trkpt>
      <trkpt lat="49.6061" lon="3.84349">
        <ele>73.2</ele>
        <time>2021-08-08T15:34:05Z</time>
      </trkpt>
      <trkpt lat="49.60594" lon="3.84305">
        <ele>72.24</ele>
        <time>2021-08-08T15:34:13Z</time>
      </trkpt>
      <trkpt lat="49.60591" lon="3.84298">
        <ele>72.24</ele>
        <time>2021-08-08T15:34:14Z</time>
      </trkpt>
      <trkpt lat="49.60588" lon="3.84293">
        <ele>72.24</ele>
        <time>2021-08-08T15:34:15Z</time>
      </trkpt>
      <trkpt lat="49.60565" lon="3.84242">
        <ele>73.2</ele>
        <time>2021-08-08T15:34:24Z</time>
      </trkpt>
      <trkpt lat="49.60555" lon="3.84218">
        <ele>73.2</ele>
        <time>2021-08-08T15:34:28Z</time>
      </trkpt>
      <trkpt lat="49.60549" lon="3.842">
        <ele>73.2</ele>
        <time>2021-08-08T15:34:31Z</time>
      </trkpt>
      <trkpt lat="49.6054" lon="3.84182">
        <ele>73.2</ele>
        <time>2021-08-08T15:34:34Z</time>
      </trkpt>
      <trkpt lat="49.60521" lon="3.84129">
        <ele>74.64</ele>
        <time>2021-08-08T15:34:43Z</time>
      </trkpt>
      <trkpt lat="49.60504" lon="3.84083">
        <ele>74.64</ele>
        <time>2021-08-08T15:34:51Z</time>
      </trkpt>
      <trkpt lat="49.60493" lon="3.84047">
        <ele>75.6</ele>
        <time>2021-08-08T15:34:58Z</time>
      </trkpt>
      <trkpt lat="49.60478" lon="3.84">
        <ele>77.04</ele>
        <time>2021-08-08T15:35:07Z</time>
      </trkpt>
      <trkpt lat="49.60472" lon="3.83947">
        <ele>78</ele>
        <time>2021-08-08T15:35:16Z</time>
      </trkpt>
      <trkpt lat="49.60479" lon="3.83893">
        <ele>78.48</ele>
        <time>2021-08-08T15:35:25Z</time>
      </trkpt>
      <trkpt lat="49.6049" lon="3.83849">
        <ele>78.48</ele>
        <time>2021-08-08T15:35:32Z</time>
      </trkpt>
      <trkpt lat="49.60492" lon="3.83843">
        <ele>78.48</ele>
        <time>2021-08-08T15:35:33Z</time>
      </trkpt>
      <trkpt lat="49.60493" lon="3.83836">
        <ele>78.48</ele>
        <time>2021-08-08T15:35:34Z</time>
      </trkpt>
      <trkpt lat="49.60495" lon="3.83829">
        <ele>78.48</ele>
        <time>2021-08-08T15:35:35Z</time>
      </trkpt>
      <trkpt lat="49.60497" lon="3.83822">
        <ele>78.48</ele>
        <time>2021-08-08T15:35:36Z</time>
      </trkpt>
      <trkpt lat="49.60516" lon="3.8375">
        <ele>77.04</ele>
        <time>2021-08-08T15:35:46Z</time>
      </trkpt>
      <trkpt lat="49.60532" lon="3.83689">
        <ele>76.56</ele>
        <time>2021-08-08T15:35:54Z</time>
      </trkpt>
      <trkpt lat="49.60534" lon="3.83682">
        <ele>76.08</ele>
        <time>2021-08-08T15:35:55Z</time>
      </trkpt>
      <trkpt lat="49.60536" lon="3.83674">
        <ele>76.08</ele>
        <time>2021-08-08T15:35:56Z</time>
      </trkpt>
      <trkpt lat="49.60538" lon="3.83666">
        <ele>76.08</ele>
        <time>2021-08-08T15:35:57Z</time>
      </trkpt>
      <trkpt lat="49.6054" lon="3.83659">
        <ele>76.08</ele>
        <time>2021-08-08T15:35:58Z</time>
      </trkpt>
      <trkpt lat="49.60541" lon="3.83651">
        <ele>76.08</ele>
        <time>2021-08-08T15:35:59Z</time>
      </trkpt>
      <trkpt lat="49.60559" lon="3.83582">
        <ele>75.6</ele>
        <time>2021-08-08T15:36:08Z</time>
      </trkpt>
      <trkpt lat="49.60581" lon="3.83499">
        <ele>75.6</ele>
        <time>2021-08-08T15:36:18Z</time>
      </trkpt>
      <trkpt lat="49.60607" lon="3.834">
        <ele>74.16</ele>
        <time>2021-08-08T15:36:29Z</time>
      </trkpt>
      <trkpt lat="49.60628" lon="3.83318">
        <ele>73.68</ele>
        <time>2021-08-08T15:36:38Z</time>
      </trkpt>
      <trkpt lat="49.60634" lon="3.83293">
        <ele>73.68</ele>
        <time>2021-08-08T15:36:41Z</time>
      </trkpt>
      <trkpt lat="49.60636" lon="3.83286">
        <ele>73.68</ele>
        <time>2021-08-08T15:36:42Z</time>
      </trkpt>
      <trkpt lat="49.60653" lon="3.83225">
        <ele>74.64</ele>
        <time>2021-08-08T15:36:50Z</time>
      </trkpt>
      <trkpt lat="49.60655" lon="3.83219">
        <ele>74.64</ele>
        <time>2021-08-08T15:36:51Z</time>
      </trkpt>
      <trkpt lat="49.60657" lon="3.83213">
        <ele>74.64</ele>
        <time>2021-08-08T15:36:52Z</time>
      </trkpt>
      <trkpt lat="49.60659" lon="3.83205">
        <ele>74.64</ele>
        <time>2021-08-08T15:36:53Z</time>
      </trkpt>
      <trkpt lat="49.60661" lon="3.83198">
        <ele>75.12</ele>
        <time>2021-08-08T15:36:54Z</time>
      </trkpt>
      <trkpt lat="49.60666" lon="3.8318">
        <ele>75.6</ele>
        <time>2021-08-08T15:36:57Z</time>
      </trkpt>
      <trkpt lat="49.60668" lon="3.83173">
        <ele>75.6</ele>
        <time>2021-08-08T15:36:58Z</time>
      </trkpt>
      <trkpt lat="49.60683" lon="3.83106">
        <ele>77.04</ele>
        <time>2021-08-08T15:37:08Z</time>
      </trkpt>
      <trkpt lat="49.6069" lon="3.83052">
        <ele>77.04</ele>
        <time>2021-08-08T15:37:17Z</time>
      </trkpt>
      <trkpt lat="49.60695" lon="3.83022">
        <ele>77.04</ele>
        <time>2021-08-08T15:37:22Z</time>
      </trkpt>
      <trkpt lat="49.60697" lon="3.83003">
        <ele>77.04</ele>
        <time>2021-08-08T15:37:25Z</time>
      </trkpt>
      <trkpt lat="49.60698" lon="3.82996">
        <ele>77.04</ele>
        <time>2021-08-08T15:37:26Z</time>
      </trkpt>
      <trkpt lat="49.607" lon="3.82969">
        <ele>77.04</ele>
        <time>2021-08-08T15:37:30Z</time>
      </trkpt>
      <trkpt lat="49.60701" lon="3.82956">
        <ele>77.04</ele>
        <time>2021-08-08T15:37:32Z</time>
      </trkpt>
      <trkpt lat="49.60706" lon="3.82918">
        <ele>77.04</ele>
        <time>2021-08-08T15:37:38Z</time>
      </trkpt>
      <trkpt lat="49.60711" lon="3.82884">
        <ele>77.04</ele>
        <time>2021-08-08T15:37:43Z</time>
      </trkpt>
      <trkpt lat="49.60712" lon="3.82876">
        <ele>77.04</ele>
        <time>2021-08-08T15:37:44Z</time>
      </trkpt>
      <trkpt lat="49.60713" lon="3.82869">
        <ele>77.04</ele>
        <time>2021-08-08T15:37:45Z</time>
      </trkpt>
      <trkpt lat="49.60719" lon="3.82814">
        <ele>77.04</ele>
        <time>2021-08-08T15:37:52Z</time>
      </trkpt>
      <trkpt lat="49.6072" lon="3.82806">
        <ele>77.04</ele>
        <time>2021-08-08T15:37:53Z</time>
      </trkpt>
      <trkpt lat="49.60721" lon="3.82799">
        <ele>77.52</ele>
        <time>2021-08-08T15:37:54Z</time>
      </trkpt>
      <trkpt lat="49.60721" lon="3.82791">
        <ele>77.52</ele>
        <time>2021-08-08T15:37:55Z</time>
      </trkpt>
      <trkpt lat="49.60722" lon="3.82784">
        <ele>77.52</ele>
        <time>2021-08-08T15:37:56Z</time>
      </trkpt>
      <trkpt lat="49.60722" lon="3.82778">
        <ele>76.08</ele>
        <time>2021-08-08T15:37:57Z</time>
      </trkpt>
      <trkpt lat="49.60723" lon="3.82771">
        <ele>76.08</ele>
        <time>2021-08-08T15:37:58Z</time>
      </trkpt>
      <trkpt lat="49.60729" lon="3.82736">
        <ele>77.52</ele>
        <time>2021-08-08T15:38:05Z</time>
      </trkpt>
      <trkpt lat="49.6073" lon="3.8273">
        <ele>77.52</ele>
        <time>2021-08-08T15:38:07Z</time>
      </trkpt>
      <trkpt lat="49.6073" lon="3.82727">
        <ele>77.52</ele>
        <time>2021-08-08T15:38:08Z</time>
      </trkpt>
      <trkpt lat="49.60732" lon="3.82696">
        <ele>77.52</ele>
        <time>2021-08-08T15:38:15Z</time>
      </trkpt>
      <trkpt lat="49.60738" lon="3.82647">
        <ele>78.48</ele>
        <time>2021-08-08T15:38:23Z</time>
      </trkpt>
      <trkpt lat="49.60741" lon="3.82622">
        <ele>78.48</ele>
        <time>2021-08-08T15:38:27Z</time>
      </trkpt>
      <trkpt lat="49.60748" lon="3.82559">
        <ele>78.48</ele>
        <time>2021-08-08T15:38:37Z</time>
      </trkpt>
      <trkpt lat="49.60756" lon="3.82502">
        <ele>78.48</ele>
        <time>2021-08-08T15:38:46Z</time>
      </trkpt>
      <trkpt lat="49.60758" lon="3.82482">
        <ele>78.97</ele>
        <time>2021-08-08T15:38:49Z</time>
      </trkpt>
      <trkpt lat="49.60766" lon="3.82427">
        <ele>77.52</ele>
        <time>2021-08-08T15:38:57Z</time>
      </trkpt>
      <trkpt lat="49.60768" lon="3.82413">
        <ele>77.52</ele>
        <time>2021-08-08T15:38:59Z</time>
      </trkpt>
      <trkpt lat="49.60769" lon="3.82405">
        <ele>77.52</ele>
        <time>2021-08-08T15:39:00Z</time>
      </trkpt>
      <trkpt lat="49.60773" lon="3.82373">
        <ele>77.52</ele>
        <time>2021-08-08T15:39:04Z</time>
      </trkpt>
      <trkpt lat="49.60781" lon="3.82308">
        <ele>77.52</ele>
        <time>2021-08-08T15:39:12Z</time>
      </trkpt>
      <trkpt lat="49.60785" lon="3.82277">
        <ele>77.52</ele>
        <time>2021-08-08T15:39:16Z</time>
      </trkpt>
      <trkpt lat="49.60796" lon="3.82198">
        <ele>76.08</ele>
        <time>2021-08-08T15:39:26Z</time>
      </trkpt>
      <trkpt lat="49.60797" lon="3.82191">
        <ele>76.08</ele>
        <time>2021-08-08T15:39:27Z</time>
      </trkpt>
      <trkpt lat="49.60798" lon="3.82175">
        <ele>76.08</ele>
        <time>2021-08-08T15:39:29Z</time>
      </trkpt>
      <trkpt lat="49.60803" lon="3.82145">
        <ele>76.08</ele>
        <time>2021-08-08T15:39:33Z</time>
      </trkpt>
      <trkpt lat="49.60804" lon="3.82137">
        <ele>76.08</ele>
        <time>2021-08-08T15:39:34Z</time>
      </trkpt>
      <trkpt lat="49.60807" lon="3.82094">
        <ele>76.08</ele>
        <time>2021-08-08T15:39:39Z</time>
      </trkpt>
      <trkpt lat="49.60818" lon="3.82013">
        <ele>76.08</ele>
        <time>2021-08-08T15:39:49Z</time>
      </trkpt>
      <trkpt lat="49.60829" lon="3.81922">
        <ele>76.08</ele>
        <time>2021-08-08T15:40:00Z</time>
      </trkpt>
      <trkpt lat="49.60839" lon="3.81843">
        <ele>76.08</ele>
        <time>2021-08-08T15:40:10Z</time>
      </trkpt>
      <trkpt lat="49.60849" lon="3.81767">
        <ele>76.08</ele>
        <time>2021-08-08T15:40:18Z</time>
      </trkpt>
      <trkpt lat="49.6086" lon="3.8168">
        <ele>74.16</ele>
        <time>2021-08-08T15:40:27Z</time>
      </trkpt>
      <trkpt lat="49.60871" lon="3.8159">
        <ele>74.16</ele>
        <time>2021-08-08T15:40:37Z</time>
      </trkpt>
      <trkpt lat="49.60882" lon="3.81499">
        <ele>74.16</ele>
        <time>2021-08-08T15:40:47Z</time>
      </trkpt>
      <trkpt lat="49.60891" lon="3.8143">
        <ele>75.6</ele>
        <time>2021-08-08T15:40:55Z</time>
      </trkpt>
      <trkpt lat="49.609" lon="3.81359">
        <ele>74.16</ele>
        <time>2021-08-08T15:41:03Z</time>
      </trkpt>
      <trkpt lat="49.60911" lon="3.81271">
        <ele>73.68</ele>
        <time>2021-08-08T15:41:13Z</time>
      </trkpt>
      <trkpt lat="49.60923" lon="3.81183">
        <ele>73.2</ele>
        <time>2021-08-08T15:41:23Z</time>
      </trkpt>
      <trkpt lat="49.60932" lon="3.81111">
        <ele>73.2</ele>
        <time>2021-08-08T15:41:31Z</time>
      </trkpt>
      <trkpt lat="49.60944" lon="3.81024">
        <ele>72.72</ele>
        <time>2021-08-08T15:41:41Z</time>
      </trkpt>
      <trkpt lat="49.60956" lon="3.80934">
        <ele>72.72</ele>
        <time>2021-08-08T15:41:51Z</time>
      </trkpt>
      <trkpt lat="49.60964" lon="3.80868">
        <ele>72.72</ele>
        <time>2021-08-08T15:41:59Z</time>
      </trkpt>
      <trkpt lat="49.60965" lon="3.80862">
        <ele>72.72</ele>
        <time>2021-08-08T15:42:00Z</time>
      </trkpt>
      <trkpt lat="49.60967" lon="3.80838">
        <ele>74.16</ele>
        <time>2021-08-08T15:42:04Z</time>
      </trkpt>
      <trkpt lat="49.60968" lon="3.80832">
        <ele>74.16</ele>
        <time>2021-08-08T15:42:05Z</time>
      </trkpt>
      <trkpt lat="49.60975" lon="3.80772">
        <ele>74.16</ele>
        <time>2021-08-08T15:42:13Z</time>
      </trkpt>
      <trkpt lat="49.60983" lon="3.80729">
        <ele>74.16</ele>
        <time>2021-08-08T15:42:19Z</time>
      </trkpt>
      <trkpt lat="49.60997" lon="3.80668">
        <ele>74.16</ele>
        <time>2021-08-08T15:42:27Z</time>
      </trkpt>
      <trkpt lat="49.61008" lon="3.80606">
        <ele>74.16</ele>
        <time>2021-08-08T15:42:35Z</time>
      </trkpt>
      <trkpt lat="49.6101" lon="3.80589">
        <ele>74.16</ele>
        <time>2021-08-08T15:42:38Z</time>
      </trkpt>
      <trkpt lat="49.61013" lon="3.80586">
        <ele>74.16</ele>
        <time>2021-08-08T15:42:39Z</time>
      </trkpt>
      <trkpt lat="49.61016" lon="3.80585">
        <ele>74.16</ele>
        <time>2021-08-08T15:42:40Z</time>
      </trkpt>
      <trkpt lat="49.6102" lon="3.80585">
        <ele>74.16</ele>
        <time>2021-08-08T15:42:41Z</time>
      </trkpt>
      <trkpt lat="49.61023" lon="3.80585">
        <ele>74.16</ele>
        <time>2021-08-08T15:42:42Z</time>
      </trkpt>
      <trkpt lat="49.61042" lon="3.80578">
        <ele>74.16</ele>
        <time>2021-08-08T15:42:48Z</time>
      </trkpt>
      <trkpt lat="49.61042" lon="3.80575">
        <ele>74.16</ele>
        <time>2021-08-08T15:42:49Z</time>
      </trkpt>
      <trkpt lat="49.6104" lon="3.8057">
        <ele>74.16</ele>
        <time>2021-08-08T15:42:50Z</time>
      </trkpt>
      <trkpt lat="49.61039" lon="3.80566">
        <ele>74.16</ele>
        <time>2021-08-08T15:42:51Z</time>
      </trkpt>
      <trkpt lat="49.61037" lon="3.80562">
        <ele>74.16</ele>
        <time>2021-08-08T15:42:52Z</time>
      </trkpt>
      <trkpt lat="49.61035" lon="3.80557">
        <ele>74.16</ele>
        <time>2021-08-08T15:42:53Z</time>
      </trkpt>
      <trkpt lat="49.61025" lon="3.80534">
        <ele>72.72</ele>
        <time>2021-08-08T15:42:57Z</time>
      </trkpt>
      <trkpt lat="49.61023" lon="3.80527">
        <ele>72.72</ele>
        <time>2021-08-08T15:42:58Z</time>
      </trkpt>
      <trkpt lat="49.61022" lon="3.8052">
        <ele>72.72</ele>
        <time>2021-08-08T15:42:59Z</time>
      </trkpt>
      <trkpt lat="49.61021" lon="3.80507">
        <ele>72.72</ele>
        <time>2021-08-08T15:43:01Z</time>
      </trkpt>
      <trkpt lat="49.61021" lon="3.80501">
        <ele>74.16</ele>
        <time>2021-08-08T15:43:02Z</time>
      </trkpt>
      <trkpt lat="49.61021" lon="3.80495">
        <ele>74.16</ele>
        <time>2021-08-08T15:43:03Z</time>
      </trkpt>
      <trkpt lat="49.61017" lon="3.80453">
        <ele>74.16</ele>
        <time>2021-08-08T15:43:10Z</time>
      </trkpt>
      <trkpt lat="49.61014" lon="3.80413">
        <ele>74.16</ele>
        <time>2021-08-08T15:43:16Z</time>
      </trkpt>
      <trkpt lat="49.61014" lon="3.80407">
        <ele>74.16</ele>
        <time>2021-08-08T15:43:17Z</time>
      </trkpt>
      <trkpt lat="49.61014" lon="3.804">
        <ele>74.16</ele>
        <time>2021-08-08T15:43:18Z</time>
      </trkpt>
      <trkpt lat="49.6101" lon="3.80364">
        <ele>74.64</ele>
        <time>2021-08-08T15:43:25Z</time>
      </trkpt>
      <trkpt lat="49.61008" lon="3.80363">
        <ele>74.64</ele>
        <time>2021-08-08T15:43:26Z</time>
      </trkpt>
      <trkpt lat="49.61005" lon="3.80364">
        <ele>74.64</ele>
        <time>2021-08-08T15:43:27Z</time>
      </trkpt>
      <trkpt lat="49.60987" lon="3.80371">
        <ele>74.64</ele>
        <time>2021-08-08T15:43:33Z</time>
      </trkpt>
      <trkpt lat="49.60982" lon="3.80376">
        <ele>74.64</ele>
        <time>2021-08-08T15:43:37Z</time>
      </trkpt>
      <trkpt lat="49.6098" lon="3.80379">
        <ele>74.64</ele>
        <time>2021-08-08T15:43:44Z</time>
      </trkpt>
      <trkpt lat="49.60979" lon="3.80382">
        <ele>74.64</ele>
        <time>2021-08-08T15:43:51Z</time>
      </trkpt>
      <trkpt lat="49.60977" lon="3.80384">
        <ele>74.64</ele>
        <time>2021-08-08T15:43:52Z</time>
      </trkpt>
      <trkpt lat="49.60976" lon="3.80385">
        <ele>74.64</ele>
        <time>2021-08-08T15:43:53Z</time>
      </trkpt>
      <trkpt lat="49.60974" lon="3.80384">
        <ele>75.12</ele>
        <time>2021-08-08T15:43:55Z</time>
      </trkpt>
      <trkpt lat="49.60974" lon="3.80382">
        <ele>75.12</ele>
        <time>2021-08-08T15:43:56Z</time>
      </trkpt>
      <trkpt lat="49.60975" lon="3.80381">
        <ele>75.12</ele>
        <time>2021-08-08T15:43:57Z</time>
      </trkpt>
      <trkpt lat="49.60976" lon="3.80381">
        <ele>75.12</ele>
        <time>2021-08-08T15:43:58Z</time>
      </trkpt>
      <trkpt lat="49.60977" lon="3.80379">
        <ele>75.12</ele>
        <time>2021-08-08T15:43:59Z</time>
      </trkpt>
      <trkpt lat="49.60979" lon="3.80379">
        <ele>75.12</ele>
        <time>2021-08-08T15:44:00Z</time>
      </trkpt>
      <trkpt lat="49.6098" lon="3.80378">
        <ele>75.12</ele>
        <time>2021-08-08T15:44:01Z</time>
      </trkpt>
      <trkpt lat="49.60982" lon="3.80378">
        <ele>75.12</ele>
        <time>2021-08-08T15:44:02Z</time>
      </trkpt>
      <trkpt lat="49.60986" lon="3.80374">
        <ele>75.12</ele>
        <time>2021-08-08T15:44:05Z</time>
      </trkpt>
      <trkpt lat="49.60988" lon="3.8037">
        <ele>75.12</ele>
        <time>2021-08-08T15:44:08Z</time>
      </trkpt>
      <trkpt lat="49.60987" lon="3.80371">
        <ele>75.12</ele>
        <time>2021-08-08T15:44:09Z</time>
      </trkpt>
      <trkpt lat="49.60985" lon="3.80372">
        <ele>75.12</ele>
        <time>2021-08-08T15:44:10Z</time>
      </trkpt>
      <trkpt lat="49.60984" lon="3.80372">
        <ele>75.12</ele>
        <time>2021-08-08T15:44:11Z</time>
      </trkpt>
      <trkpt lat="49.60983" lon="3.80373">
        <ele>75.12</ele>
        <time>2021-08-08T15:44:12Z</time>
      </trkpt>
      <trkpt lat="49.60981" lon="3.80374">
        <ele>75.12</ele>
        <time>2021-08-08T15:44:13Z</time>
      </trkpt>
      <trkpt lat="49.60969" lon="3.80379">
        <ele>75.12</ele>
        <time>2021-08-08T15:44:19Z</time>
      </trkpt>
      <trkpt lat="49.60957" lon="3.80387">
        <ele>75.12</ele>
        <time>2021-08-08T15:44:25Z</time>
      </trkpt>
      <trkpt lat="49.60955" lon="3.80389">
        <ele>75.6</ele>
        <time>2021-08-08T15:44:33Z</time>
      </trkpt>
      <trkpt lat="49.60959" lon="3.804">
        <ele>75.6</ele>
        <time>2021-08-08T15:44:49Z</time>
      </trkpt>
      <trkpt lat="49.60965" lon="3.80406">
        <ele>76.08</ele>
        <time>2021-08-08T15:45:11Z</time>
      </trkpt>
      <trkpt lat="49.60966" lon="3.80415">
        <ele>76.08</ele>
        <time>2021-08-08T15:45:30Z</time>
      </trkpt>
      <trkpt lat="49.60969" lon="3.80416">
        <ele>76.56</ele>
        <time>2021-08-08T15:45:49Z</time>
      </trkpt>
      <trkpt lat="49.60972" lon="3.80414">
        <ele>76.56</ele>
        <time>2021-08-08T15:46:07Z</time>
      </trkpt>
      <trkpt lat="49.60976" lon="3.80418">
        <ele>76.56</ele>
        <time>2021-08-08T15:46:31Z</time>
      </trkpt>
      <trkpt lat="49.60975" lon="3.80418">
        <ele>76.56</ele>
        <time>2021-08-08T15:46:50Z</time>
      </trkpt>
      <trkpt lat="49.60972" lon="3.80414">
        <ele>77.04</ele>
        <time>2021-08-08T15:47:07Z</time>
      </trkpt>
      <trkpt lat="49.60974" lon="3.8041">
        <ele>77.04</ele>
        <time>2021-08-08T15:47:15Z</time>
      </trkpt>
      <trkpt lat="49.60972" lon="3.80409">
        <ele>77.52</ele>
        <time>2021-08-08T15:47:31Z</time>
      </trkpt>
      <trkpt lat="49.6097" lon="3.80411">
        <ele>76.56</ele>
        <time>2021-08-08T15:47:58Z</time>
      </trkpt>
      <trkpt lat="49.60965" lon="3.80415">
        <ele>77.04</ele>
        <time>2021-08-08T15:48:20Z</time>
      </trkpt>
      <trkpt lat="49.60966" lon="3.80418">
        <ele>77.04</ele>
        <time>2021-08-08T15:48:41Z</time>
      </trkpt>
      <trkpt lat="49.60964" lon="3.8042">
        <ele>77.52</ele>
        <time>2021-08-08T15:49:03Z</time>
      </trkpt>
      <trkpt lat="49.60965" lon="3.8042">
        <ele>78.48</ele>
        <time>2021-08-08T15:49:05Z</time>
      </trkpt>
      <trkpt lat="49.60966" lon="3.80421">
        <ele>77.04</ele>
        <time>2021-08-08T15:49:10Z</time>
      </trkpt>
      <trkpt lat="49.60967" lon="3.80418">
        <ele>77.52</ele>
        <time>2021-08-08T15:49:30Z</time>
      </trkpt>
      <trkpt lat="49.60974" lon="3.80418">
        <ele>77.52</ele>
        <time>2021-08-08T15:49:50Z</time>
      </trkpt>
      <trkpt lat="49.60972" lon="3.80414">
        <ele>78</ele>
        <time>2021-08-08T15:50:07Z</time>
      </trkpt>
      <trkpt lat="49.60969" lon="3.80416">
        <ele>78</ele>
        <time>2021-08-08T15:50:26Z</time>
      </trkpt>
      <trkpt lat="49.60963" lon="3.80416">
        <ele>78.48</ele>
        <time>2021-08-08T15:50:44Z</time>
      </trkpt>
      <trkpt lat="49.60961" lon="3.80417">
        <ele>78</ele>
        <time>2021-08-08T15:51:03Z</time>
      </trkpt>
      <trkpt lat="49.60962" lon="3.80417">
        <ele>78.48</ele>
        <time>2021-08-08T15:51:15Z</time>
      </trkpt>
      <trkpt lat="49.60966" lon="3.80415">
        <ele>78.48</ele>
        <time>2021-08-08T15:51:33Z</time>
      </trkpt>
      <trkpt lat="49.60965" lon="3.80411">
        <ele>78.97</ele>
        <time>2021-08-08T15:51:52Z</time>
      </trkpt>
      <trkpt lat="49.60966" lon="3.80412">
        <ele>78.97</ele>
        <time>2021-08-08T15:52:08Z</time>
      </trkpt>
      <trkpt lat="49.60967" lon="3.80418">
        <ele>78.97</ele>
        <time>2021-08-08T15:52:27Z</time>
      </trkpt>
      <trkpt lat="49.60965" lon="3.80418">
        <ele>79.45</ele>
        <time>2021-08-08T15:52:39Z</time>
      </trkpt>
      <trkpt lat="49.60968" lon="3.80417">
        <ele>79.45</ele>
        <time>2021-08-08T15:52:52Z</time>
      </trkpt>
      <trkpt lat="49.60969" lon="3.80417">
        <ele>79.45</ele>
        <time>2021-08-08T15:53:04Z</time>
      </trkpt>
      <trkpt lat="49.60973" lon="3.80417">
        <ele>79.93</ele>
        <time>2021-08-08T15:53:17Z</time>
      </trkpt>
      <trkpt lat="49.60972" lon="3.80416">
        <ele>79.93</ele>
        <time>2021-08-08T15:53:31Z</time>
      </trkpt>
      <trkpt lat="49.60965" lon="3.80414">
        <ele>80.41</ele>
        <time>2021-08-08T15:53:49Z</time>
      </trkpt>
      <trkpt lat="49.60956" lon="3.80412">
        <ele>80.41</ele>
        <time>2021-08-08T15:53:57Z</time>
      </trkpt>
      <trkpt lat="49.60955" lon="3.80405">
        <ele>80.41</ele>
        <time>2021-08-08T15:54:08Z</time>
      </trkpt>
      <trkpt lat="49.60957" lon="3.80401">
        <ele>80.41</ele>
        <time>2021-08-08T15:54:18Z</time>
      </trkpt>
      <trkpt lat="49.60962" lon="3.80399">
        <ele>80.89</ele>
        <time>2021-08-08T15:54:23Z</time>
      </trkpt>
      <trkpt lat="49.60964" lon="3.80397">
        <ele>80.89</ele>
        <time>2021-08-08T15:54:24Z</time>
      </trkpt>
      <trkpt lat="49.6098" lon="3.80389">
        <ele>80.89</ele>
        <time>2021-08-08T15:54:31Z</time>
      </trkpt>
      <trkpt lat="49.61005" lon="3.80374">
        <ele>80.41</ele>
        <time>2021-08-08T15:54:39Z</time>
      </trkpt>
      <trkpt lat="49.61013" lon="3.80369">
        <ele>80.41</ele>
        <time>2021-08-08T15:54:42Z</time>
      </trkpt>
      <trkpt lat="49.61022" lon="3.8036">
        <ele>80.41</ele>
        <time>2021-08-08T15:54:48Z</time>
      </trkpt>
      <trkpt lat="49.61035" lon="3.80347">
        <ele>80.41</ele>
        <time>2021-08-08T15:54:54Z</time>
      </trkpt>
      <trkpt lat="49.61048" lon="3.80328">
        <ele>80.89</ele>
        <time>2021-08-08T15:55:01Z</time>
      </trkpt>
      <trkpt lat="49.61056" lon="3.80289">
        <ele>80.89</ele>
        <time>2021-08-08T15:55:09Z</time>
      </trkpt>
      <trkpt lat="49.61067" lon="3.80237">
        <ele>80.41</ele>
        <time>2021-08-08T15:55:19Z</time>
      </trkpt>
      <trkpt lat="49.6107" lon="3.80225">
        <ele>80.41</ele>
        <time>2021-08-08T15:55:21Z</time>
      </trkpt>
      <trkpt lat="49.61077" lon="3.80187">
        <ele>79.93</ele>
        <time>2021-08-08T15:55:27Z</time>
      </trkpt>
      <trkpt lat="49.61078" lon="3.8018">
        <ele>79.93</ele>
        <time>2021-08-08T15:55:28Z</time>
      </trkpt>
      <trkpt lat="49.61079" lon="3.80173">
        <ele>79.45</ele>
        <time>2021-08-08T15:55:29Z</time>
      </trkpt>
      <trkpt lat="49.61083" lon="3.80133">
        <ele>79.45</ele>
        <time>2021-08-08T15:55:35Z</time>
      </trkpt>
      <trkpt lat="49.61082" lon="3.80127">
        <ele>79.45</ele>
        <time>2021-08-08T15:55:36Z</time>
      </trkpt>
      <trkpt lat="49.6108" lon="3.8012">
        <ele>79.45</ele>
        <time>2021-08-08T15:55:37Z</time>
      </trkpt>
      <trkpt lat="49.61078" lon="3.80114">
        <ele>79.45</ele>
        <time>2021-08-08T15:55:38Z</time>
      </trkpt>
      <trkpt lat="49.61076" lon="3.80109">
        <ele>79.45</ele>
        <time>2021-08-08T15:55:39Z</time>
      </trkpt>
      <trkpt lat="49.61048" lon="3.80053">
        <ele>78.48</ele>
        <time>2021-08-08T15:55:48Z</time>
      </trkpt>
      <trkpt lat="49.61017" lon="3.79976">
        <ele>78</ele>
        <time>2021-08-08T15:55:59Z</time>
      </trkpt>
      <trkpt lat="49.60988" lon="3.79898">
        <ele>78</ele>
        <time>2021-08-08T15:56:10Z</time>
      </trkpt>
      <trkpt lat="49.60974" lon="3.79832">
        <ele>78</ele>
        <time>2021-08-08T15:56:18Z</time>
      </trkpt>
      <trkpt lat="49.60966" lon="3.79748">
        <ele>78</ele>
        <time>2021-08-08T15:56:28Z</time>
      </trkpt>
      <trkpt lat="49.60956" lon="3.79643">
        <ele>79.45</ele>
        <time>2021-08-08T15:56:40Z</time>
      </trkpt>
      <trkpt lat="49.60948" lon="3.79555">
        <ele>79.93</ele>
        <time>2021-08-08T15:56:50Z</time>
      </trkpt>
      <trkpt lat="49.60945" lon="3.79518">
        <ele>78.48</ele>
        <time>2021-08-08T15:56:54Z</time>
      </trkpt>
      <trkpt lat="49.60939" lon="3.79454">
        <ele>78.48</ele>
        <time>2021-08-08T15:57:01Z</time>
      </trkpt>
      <trkpt lat="49.60935" lon="3.79428">
        <ele>78.48</ele>
        <time>2021-08-08T15:57:04Z</time>
      </trkpt>
      <trkpt lat="49.60933" lon="3.7942">
        <ele>78.48</ele>
        <time>2021-08-08T15:57:05Z</time>
      </trkpt>
      <trkpt lat="49.6093" lon="3.79412">
        <ele>78.48</ele>
        <time>2021-08-08T15:57:06Z</time>
      </trkpt>
      <trkpt lat="49.60924" lon="3.79396">
        <ele>78.48</ele>
        <time>2021-08-08T15:57:08Z</time>
      </trkpt>
      <trkpt lat="49.60921" lon="3.79389">
        <ele>78.48</ele>
        <time>2021-08-08T15:57:09Z</time>
      </trkpt>
      <trkpt lat="49.60886" lon="3.79332">
        <ele>78</ele>
        <time>2021-08-08T15:57:18Z</time>
      </trkpt>
      <trkpt lat="49.60848" lon="3.79272">
        <ele>78</ele>
        <time>2021-08-08T15:57:28Z</time>
      </trkpt>
      <trkpt lat="49.60803" lon="3.79201">
        <ele>78</ele>
        <time>2021-08-08T15:57:40Z</time>
      </trkpt>
      <trkpt lat="49.60761" lon="3.79136">
        <ele>78</ele>
        <time>2021-08-08T15:57:51Z</time>
      </trkpt>
      <trkpt lat="49.6073" lon="3.79088">
        <ele>78</ele>
        <time>2021-08-08T15:57:59Z</time>
      </trkpt>
      <trkpt lat="49.60689" lon="3.79025">
        <ele>78</ele>
        <time>2021-08-08T15:58:10Z</time>
      </trkpt>
      <trkpt lat="49.60655" lon="3.7897">
        <ele>77.52</ele>
        <time>2021-08-08T15:58:19Z</time>
      </trkpt>
      <trkpt lat="49.60615" lon="3.78907">
        <ele>77.52</ele>
        <time>2021-08-08T15:58:30Z</time>
      </trkpt>
      <trkpt lat="49.60579" lon="3.7885">
        <ele>78.48</ele>
        <time>2021-08-08T15:58:40Z</time>
      </trkpt>
      <trkpt lat="49.60575" lon="3.78845">
        <ele>78</ele>
        <time>2021-08-08T15:58:41Z</time>
      </trkpt>
      <trkpt lat="49.60535" lon="3.78782">
        <ele>78.48</ele>
        <time>2021-08-08T15:58:53Z</time>
      </trkpt>
      <trkpt lat="49.60504" lon="3.78733">
        <ele>78.97</ele>
        <time>2021-08-08T15:59:03Z</time>
      </trkpt>
      <trkpt lat="49.60474" lon="3.78686">
        <ele>78</ele>
        <time>2021-08-08T15:59:12Z</time>
      </trkpt>
      <trkpt lat="49.60448" lon="3.78644">
        <ele>78.97</ele>
        <time>2021-08-08T15:59:20Z</time>
      </trkpt>
      <trkpt lat="49.60407" lon="3.7858">
        <ele>78.97</ele>
        <time>2021-08-08T15:59:32Z</time>
      </trkpt>
      <trkpt lat="49.60377" lon="3.78532">
        <ele>77.52</ele>
        <time>2021-08-08T15:59:41Z</time>
      </trkpt>
      <trkpt lat="49.60332" lon="3.78461">
        <ele>77.52</ele>
        <time>2021-08-08T15:59:54Z</time>
      </trkpt>
      <trkpt lat="49.60296" lon="3.78404">
        <ele>77.52</ele>
        <time>2021-08-08T16:00:05Z</time>
      </trkpt>
      <trkpt lat="49.6026" lon="3.78347">
        <ele>79.45</ele>
        <time>2021-08-08T16:00:16Z</time>
      </trkpt>
      <trkpt lat="49.6022" lon="3.78285">
        <ele>79.45</ele>
        <time>2021-08-08T16:00:28Z</time>
      </trkpt>
      <trkpt lat="49.60186" lon="3.78232">
        <ele>79.45</ele>
        <time>2021-08-08T16:00:38Z</time>
      </trkpt>
      <trkpt lat="49.60152" lon="3.78178">
        <ele>79.45</ele>
        <time>2021-08-08T16:00:48Z</time>
      </trkpt>
      <trkpt lat="49.60109" lon="3.78111">
        <ele>79.45</ele>
        <time>2021-08-08T16:01:00Z</time>
      </trkpt>
      <trkpt lat="49.60072" lon="3.78054">
        <ele>79.45</ele>
        <time>2021-08-08T16:01:10Z</time>
      </trkpt>
      <trkpt lat="49.60038" lon="3.77999">
        <ele>79.45</ele>
        <time>2021-08-08T16:01:20Z</time>
      </trkpt>
      <trkpt lat="49.6" lon="3.7794">
        <ele>79.45</ele>
        <time>2021-08-08T16:01:31Z</time>
      </trkpt>
      <trkpt lat="49.59981" lon="3.77902">
        <ele>79.45</ele>
        <time>2021-08-08T16:01:37Z</time>
      </trkpt>
      <trkpt lat="49.59978" lon="3.77895">
        <ele>79.45</ele>
        <time>2021-08-08T16:01:38Z</time>
      </trkpt>
      <trkpt lat="49.59974" lon="3.7788">
        <ele>79.45</ele>
        <time>2021-08-08T16:01:40Z</time>
      </trkpt>
      <trkpt lat="49.59972" lon="3.77873">
        <ele>79.45</ele>
        <time>2021-08-08T16:01:41Z</time>
      </trkpt>
      <trkpt lat="49.59971" lon="3.77866">
        <ele>79.45</ele>
        <time>2021-08-08T16:01:42Z</time>
      </trkpt>
      <trkpt lat="49.5997" lon="3.77856">
        <ele>79.45</ele>
        <time>2021-08-08T16:01:43Z</time>
      </trkpt>
      <trkpt lat="49.59969" lon="3.77849">
        <ele>79.45</ele>
        <time>2021-08-08T16:01:44Z</time>
      </trkpt>
      <trkpt lat="49.59968" lon="3.77842">
        <ele>79.45</ele>
        <time>2021-08-08T16:01:45Z</time>
      </trkpt>
      <trkpt lat="49.59965" lon="3.77779">
        <ele>79.45</ele>
        <time>2021-08-08T16:01:53Z</time>
      </trkpt>
      <trkpt lat="49.59961" lon="3.77677">
        <ele>79.45</ele>
        <time>2021-08-08T16:02:06Z</time>
      </trkpt>
      <trkpt lat="49.59957" lon="3.77592">
        <ele>79.93</ele>
        <time>2021-08-08T16:02:17Z</time>
      </trkpt>
      <trkpt lat="49.59954" lon="3.77537">
        <ele>78.48</ele>
        <time>2021-08-08T16:02:24Z</time>
      </trkpt>
      <trkpt lat="49.59949" lon="3.77484">
        <ele>79.93</ele>
        <time>2021-08-08T16:02:31Z</time>
      </trkpt>
      <trkpt lat="49.59938" lon="3.77404">
        <ele>80.41</ele>
        <time>2021-08-08T16:02:42Z</time>
      </trkpt>
      <trkpt lat="49.59927" lon="3.77337">
        <ele>80.41</ele>
        <time>2021-08-08T16:02:51Z</time>
      </trkpt>
      <trkpt lat="49.5991" lon="3.7726">
        <ele>80.41</ele>
        <time>2021-08-08T16:03:02Z</time>
      </trkpt>
      <trkpt lat="49.59886" lon="3.77171">
        <ele>80.89</ele>
        <time>2021-08-08T16:03:15Z</time>
      </trkpt>
      <trkpt lat="49.59862" lon="3.77081">
        <ele>80.89</ele>
        <time>2021-08-08T16:03:28Z</time>
      </trkpt>
      <trkpt lat="49.59837" lon="3.77006">
        <ele>81.37</ele>
        <time>2021-08-08T16:03:39Z</time>
      </trkpt>
      <trkpt lat="49.59804" lon="3.76945">
        <ele>79.93</ele>
        <time>2021-08-08T16:03:49Z</time>
      </trkpt>
      <trkpt lat="49.59758" lon="3.76862">
        <ele>79.93</ele>
        <time>2021-08-08T16:04:02Z</time>
      </trkpt>
      <trkpt lat="49.59715" lon="3.76785">
        <ele>78.97</ele>
        <time>2021-08-08T16:04:14Z</time>
      </trkpt>
      <trkpt lat="49.59679" lon="3.76711">
        <ele>78.97</ele>
        <time>2021-08-08T16:04:25Z</time>
      </trkpt>
      <trkpt lat="49.59646" lon="3.76628">
        <ele>78.97</ele>
        <time>2021-08-08T16:04:37Z</time>
      </trkpt>
      <trkpt lat="49.59608" lon="3.76527">
        <ele>78.97</ele>
        <time>2021-08-08T16:04:51Z</time>
      </trkpt>
      <trkpt lat="49.59578" lon="3.76447">
        <ele>78.97</ele>
        <time>2021-08-08T16:05:02Z</time>
      </trkpt>
      <trkpt lat="49.59549" lon="3.76371">
        <ele>78.97</ele>
        <time>2021-08-08T16:05:13Z</time>
      </trkpt>
      <trkpt lat="49.59522" lon="3.76298">
        <ele>80.41</ele>
        <time>2021-08-08T16:05:24Z</time>
      </trkpt>
      <trkpt lat="49.59493" lon="3.76221">
        <ele>80.41</ele>
        <time>2021-08-08T16:05:36Z</time>
      </trkpt>
      <trkpt lat="49.59465" lon="3.76147">
        <ele>80.89</ele>
        <time>2021-08-08T16:05:46Z</time>
      </trkpt>
      <trkpt lat="49.59435" lon="3.76071">
        <ele>79.93</ele>
        <time>2021-08-08T16:05:56Z</time>
      </trkpt>
      <trkpt lat="49.59407" lon="3.76002">
        <ele>79.93</ele>
        <time>2021-08-08T16:06:05Z</time>
      </trkpt>
      <trkpt lat="49.59394" lon="3.75964">
        <ele>79.93</ele>
        <time>2021-08-08T16:06:10Z</time>
      </trkpt>
      <trkpt lat="49.59365" lon="3.75898">
        <ele>79.93</ele>
        <time>2021-08-08T16:06:19Z</time>
      </trkpt>
      <trkpt lat="49.59362" lon="3.7589">
        <ele>79.93</ele>
        <time>2021-08-08T16:06:20Z</time>
      </trkpt>
      <trkpt lat="49.5933" lon="3.75806">
        <ele>79.93</ele>
        <time>2021-08-08T16:06:31Z</time>
      </trkpt>
      <trkpt lat="49.59303" lon="3.75733">
        <ele>79.93</ele>
        <time>2021-08-08T16:06:40Z</time>
      </trkpt>
      <trkpt lat="49.59273" lon="3.75658">
        <ele>78.48</ele>
        <time>2021-08-08T16:06:49Z</time>
      </trkpt>
      <trkpt lat="49.59235" lon="3.75557">
        <ele>78.48</ele>
        <time>2021-08-08T16:07:01Z</time>
      </trkpt>
      <trkpt lat="49.59204" lon="3.75479">
        <ele>78.48</ele>
        <time>2021-08-08T16:07:11Z</time>
      </trkpt>
      <trkpt lat="49.59192" lon="3.75449">
        <ele>79.93</ele>
        <time>2021-08-08T16:07:15Z</time>
      </trkpt>
      <trkpt lat="49.5916" lon="3.75364">
        <ele>79.93</ele>
        <time>2021-08-08T16:07:26Z</time>
      </trkpt>
      <trkpt lat="49.59136" lon="3.75294">
        <ele>79.93</ele>
        <time>2021-08-08T16:07:35Z</time>
      </trkpt>
      <trkpt lat="49.59112" lon="3.75227">
        <ele>79.93</ele>
        <time>2021-08-08T16:07:44Z</time>
      </trkpt>
      <trkpt lat="49.59085" lon="3.7516">
        <ele>80.41</ele>
        <time>2021-08-08T16:07:53Z</time>
      </trkpt>
      <trkpt lat="49.59052" lon="3.75079">
        <ele>80.41</ele>
        <time>2021-08-08T16:08:04Z</time>
      </trkpt>
      <trkpt lat="49.59017" lon="3.74991">
        <ele>80.41</ele>
        <time>2021-08-08T16:08:15Z</time>
      </trkpt>
      <trkpt lat="49.58989" lon="3.74921">
        <ele>79.93</ele>
        <time>2021-08-08T16:08:24Z</time>
      </trkpt>
      <trkpt lat="49.58953" lon="3.74832">
        <ele>79.93</ele>
        <time>2021-08-08T16:08:35Z</time>
      </trkpt>
      <trkpt lat="49.58912" lon="3.74735">
        <ele>79.93</ele>
        <time>2021-08-08T16:08:47Z</time>
      </trkpt>
      <trkpt lat="49.58878" lon="3.74649">
        <ele>79.93</ele>
        <time>2021-08-08T16:08:58Z</time>
      </trkpt>
      <trkpt lat="49.58843" lon="3.74566">
        <ele>79.93</ele>
        <time>2021-08-08T16:09:09Z</time>
      </trkpt>
      <trkpt lat="49.58817" lon="3.745">
        <ele>79.93</ele>
        <time>2021-08-08T16:09:18Z</time>
      </trkpt>
      <trkpt lat="49.58784" lon="3.74418">
        <ele>79.93</ele>
        <time>2021-08-08T16:09:29Z</time>
      </trkpt>
      <trkpt lat="49.58754" lon="3.74346">
        <ele>80.41</ele>
        <time>2021-08-08T16:09:39Z</time>
      </trkpt>
      <trkpt lat="49.58721" lon="3.74264">
        <ele>80.41</ele>
        <time>2021-08-08T16:09:50Z</time>
      </trkpt>
      <trkpt lat="49.58687" lon="3.74179">
        <ele>78.97</ele>
        <time>2021-08-08T16:10:01Z</time>
      </trkpt>
      <trkpt lat="49.58657" lon="3.74103">
        <ele>78</ele>
        <time>2021-08-08T16:10:11Z</time>
      </trkpt>
      <trkpt lat="49.58634" lon="3.74029">
        <ele>78</ele>
        <time>2021-08-08T16:10:20Z</time>
      </trkpt>
      <trkpt lat="49.58617" lon="3.73939">
        <ele>78</ele>
        <time>2021-08-08T16:10:30Z</time>
      </trkpt>
      <trkpt lat="49.58598" lon="3.73825">
        <ele>77.52</ele>
        <time>2021-08-08T16:10:42Z</time>
      </trkpt>
      <trkpt lat="49.58592" lon="3.73787">
        <ele>76.56</ele>
        <time>2021-08-08T16:10:46Z</time>
      </trkpt>
      <trkpt lat="49.58585" lon="3.73744">
        <ele>77.52</ele>
        <time>2021-08-08T16:10:51Z</time>
      </trkpt>
      <trkpt lat="49.5857" lon="3.73656">
        <ele>78</ele>
        <time>2021-08-08T16:11:01Z</time>
      </trkpt>
      <trkpt lat="49.58557" lon="3.7357">
        <ele>76.56</ele>
        <time>2021-08-08T16:11:11Z</time>
      </trkpt>
      <trkpt lat="49.58553" lon="3.73546">
        <ele>78</ele>
        <time>2021-08-08T16:11:14Z</time>
      </trkpt>
      <trkpt lat="49.58538" lon="3.73457">
        <ele>78.97</ele>
        <time>2021-08-08T16:11:26Z</time>
      </trkpt>
      <trkpt lat="49.58536" lon="3.7345">
        <ele>78.97</ele>
        <time>2021-08-08T16:11:27Z</time>
      </trkpt>
      <trkpt lat="49.58534" lon="3.73446">
        <ele>78.97</ele>
        <time>2021-08-08T16:11:28Z</time>
      </trkpt>
      <trkpt lat="49.5853" lon="3.73443">
        <ele>78.97</ele>
        <time>2021-08-08T16:11:29Z</time>
      </trkpt>
      <trkpt lat="49.58526" lon="3.73442">
        <ele>78.97</ele>
        <time>2021-08-08T16:11:30Z</time>
      </trkpt>
      <trkpt lat="49.58522" lon="3.73443">
        <ele>78.97</ele>
        <time>2021-08-08T16:11:31Z</time>
      </trkpt>
      <trkpt lat="49.58517" lon="3.73444">
        <ele>78.97</ele>
        <time>2021-08-08T16:11:32Z</time>
      </trkpt>
      <trkpt lat="49.5847" lon="3.73449">
        <ele>78.48</ele>
        <time>2021-08-08T16:11:41Z</time>
      </trkpt>
      <trkpt lat="49.58461" lon="3.73448">
        <ele>78.48</ele>
        <time>2021-08-08T16:11:43Z</time>
      </trkpt>
      <trkpt lat="49.58448" lon="3.73443">
        <ele>78.48</ele>
        <time>2021-08-08T16:11:46Z</time>
      </trkpt>
      <trkpt lat="49.58444" lon="3.7344">
        <ele>78.48</ele>
        <time>2021-08-08T16:11:47Z</time>
      </trkpt>
      <trkpt lat="49.58415" lon="3.73406">
        <ele>77.52</ele>
        <time>2021-08-08T16:11:54Z</time>
      </trkpt>
      <trkpt lat="49.58411" lon="3.73401">
        <ele>77.52</ele>
        <time>2021-08-08T16:11:55Z</time>
      </trkpt>
      <trkpt lat="49.58378" lon="3.73348">
        <ele>77.04</ele>
        <time>2021-08-08T16:12:04Z</time>
      </trkpt>
      <trkpt lat="49.58353" lon="3.7331">
        <ele>77.04</ele>
        <time>2021-08-08T16:12:11Z</time>
      </trkpt>
      <trkpt lat="49.58349" lon="3.73303">
        <ele>77.04</ele>
        <time>2021-08-08T16:12:12Z</time>
      </trkpt>
      <trkpt lat="49.58347" lon="3.73297">
        <ele>77.04</ele>
        <time>2021-08-08T16:12:13Z</time>
      </trkpt>
      <trkpt lat="49.58345" lon="3.73289">
        <ele>77.04</ele>
        <time>2021-08-08T16:12:14Z</time>
      </trkpt>
      <trkpt lat="49.58343" lon="3.73282">
        <ele>77.04</ele>
        <time>2021-08-08T16:12:15Z</time>
      </trkpt>
      <trkpt lat="49.58342" lon="3.73274">
        <ele>77.04</ele>
        <time>2021-08-08T16:12:16Z</time>
      </trkpt>
      <trkpt lat="49.58326" lon="3.73194">
        <ele>77.04</ele>
        <time>2021-08-08T16:12:26Z</time>
      </trkpt>
      <trkpt lat="49.58322" lon="3.73179">
        <ele>76.56</ele>
        <time>2021-08-08T16:12:28Z</time>
      </trkpt>
      <trkpt lat="49.5832" lon="3.73172">
        <ele>76.56</ele>
        <time>2021-08-08T16:12:29Z</time>
      </trkpt>
      <trkpt lat="49.58317" lon="3.73165">
        <ele>76.56</ele>
        <time>2021-08-08T16:12:30Z</time>
      </trkpt>
      <trkpt lat="49.58313" lon="3.73157">
        <ele>76.56</ele>
        <time>2021-08-08T16:12:31Z</time>
      </trkpt>
      <trkpt lat="49.58309" lon="3.73151">
        <ele>76.56</ele>
        <time>2021-08-08T16:12:32Z</time>
      </trkpt>
      <trkpt lat="49.58306" lon="3.73145">
        <ele>76.56</ele>
        <time>2021-08-08T16:12:33Z</time>
      </trkpt>
      <trkpt lat="49.58301" lon="3.73139">
        <ele>76.56</ele>
        <time>2021-08-08T16:12:34Z</time>
      </trkpt>
      <trkpt lat="49.58257" lon="3.73086">
        <ele>76.08</ele>
        <time>2021-08-08T16:12:44Z</time>
      </trkpt>
      <trkpt lat="49.5822" lon="3.73041">
        <ele>76.08</ele>
        <time>2021-08-08T16:12:53Z</time>
      </trkpt>
      <trkpt lat="49.58207" lon="3.73028">
        <ele>76.08</ele>
        <time>2021-08-08T16:12:56Z</time>
      </trkpt>
      <trkpt lat="49.58186" lon="3.73002">
        <ele>77.04</ele>
        <time>2021-08-08T16:13:01Z</time>
      </trkpt>
      <trkpt lat="49.58183" lon="3.72995">
        <ele>77.04</ele>
        <time>2021-08-08T16:13:02Z</time>
      </trkpt>
      <trkpt lat="49.5818" lon="3.7299">
        <ele>77.04</ele>
        <time>2021-08-08T16:13:03Z</time>
      </trkpt>
      <trkpt lat="49.58176" lon="3.72985">
        <ele>77.04</ele>
        <time>2021-08-08T16:13:04Z</time>
      </trkpt>
      <trkpt lat="49.58173" lon="3.72983">
        <ele>77.04</ele>
        <time>2021-08-08T16:13:05Z</time>
      </trkpt>
      <trkpt lat="49.58168" lon="3.72981">
        <ele>77.04</ele>
        <time>2021-08-08T16:13:06Z</time>
      </trkpt>
      <trkpt lat="49.58164" lon="3.72981">
        <ele>77.04</ele>
        <time>2021-08-08T16:13:07Z</time>
      </trkpt>
      <trkpt lat="49.58159" lon="3.72982">
        <ele>77.04</ele>
        <time>2021-08-08T16:13:08Z</time>
      </trkpt>
      <trkpt lat="49.58123" lon="3.72988">
        <ele>77.04</ele>
        <time>2021-08-08T16:13:15Z</time>
      </trkpt>
      <trkpt lat="49.5807" lon="3.72992">
        <ele>78</ele>
        <time>2021-08-08T16:13:26Z</time>
      </trkpt>
      <trkpt lat="49.58066" lon="3.72991">
        <ele>78.48</ele>
        <time>2021-08-08T16:13:27Z</time>
      </trkpt>
      <trkpt lat="49.58061" lon="3.72989">
        <ele>78.97</ele>
        <time>2021-08-08T16:13:28Z</time>
      </trkpt>
      <trkpt lat="49.58027" lon="3.72974">
        <ele>79.45</ele>
        <time>2021-08-08T16:13:36Z</time>
      </trkpt>
      <trkpt lat="49.57996" lon="3.72958">
        <ele>79.93</ele>
        <time>2021-08-08T16:13:43Z</time>
      </trkpt>
      <trkpt lat="49.57966" lon="3.72943">
        <ele>81.37</ele>
        <time>2021-08-08T16:13:51Z</time>
      </trkpt>
      <trkpt lat="49.57951" lon="3.72934">
        <ele>81.37</ele>
        <time>2021-08-08T16:13:55Z</time>
      </trkpt>
      <trkpt lat="49.57947" lon="3.72931">
        <ele>81.37</ele>
        <time>2021-08-08T16:13:56Z</time>
      </trkpt>
      <trkpt lat="49.57944" lon="3.72926">
        <ele>81.37</ele>
        <time>2021-08-08T16:13:57Z</time>
      </trkpt>
      <trkpt lat="49.57942" lon="3.72921">
        <ele>81.37</ele>
        <time>2021-08-08T16:13:58Z</time>
      </trkpt>
      <trkpt lat="49.5794" lon="3.72915">
        <ele>81.37</ele>
        <time>2021-08-08T16:13:59Z</time>
      </trkpt>
      <trkpt lat="49.57932" lon="3.72885">
        <ele>81.37</ele>
        <time>2021-08-08T16:14:05Z</time>
      </trkpt>
      <trkpt lat="49.57928" lon="3.72872">
        <ele>79.93</ele>
        <time>2021-08-08T16:14:07Z</time>
      </trkpt>
      <trkpt lat="49.57926" lon="3.72865">
        <ele>79.93</ele>
        <time>2021-08-08T16:14:08Z</time>
      </trkpt>
      <trkpt lat="49.57924" lon="3.72858">
        <ele>78.97</ele>
        <time>2021-08-08T16:14:09Z</time>
      </trkpt>
      <trkpt lat="49.57921" lon="3.72843">
        <ele>78.48</ele>
        <time>2021-08-08T16:14:11Z</time>
      </trkpt>
      <trkpt lat="49.5792" lon="3.72835">
        <ele>78.48</ele>
        <time>2021-08-08T16:14:12Z</time>
      </trkpt>
      <trkpt lat="49.57918" lon="3.72828">
        <ele>78.48</ele>
        <time>2021-08-08T16:14:13Z</time>
      </trkpt>
      <trkpt lat="49.57914" lon="3.72815">
        <ele>78</ele>
        <time>2021-08-08T16:14:15Z</time>
      </trkpt>
      <trkpt lat="49.57907" lon="3.72794">
        <ele>77.52</ele>
        <time>2021-08-08T16:14:18Z</time>
      </trkpt>
      <trkpt lat="49.57892" lon="3.72729">
        <ele>77.04</ele>
        <time>2021-08-08T16:14:26Z</time>
      </trkpt>
      <trkpt lat="49.57882" lon="3.72692">
        <ele>77.04</ele>
        <time>2021-08-08T16:14:31Z</time>
      </trkpt>
      <trkpt lat="49.5788" lon="3.72684">
        <ele>77.04</ele>
        <time>2021-08-08T16:14:32Z</time>
      </trkpt>
      <trkpt lat="49.57879" lon="3.72677">
        <ele>77.04</ele>
        <time>2021-08-08T16:14:33Z</time>
      </trkpt>
      <trkpt lat="49.57869" lon="3.72632">
        <ele>77.04</ele>
        <time>2021-08-08T16:14:39Z</time>
      </trkpt>
      <trkpt lat="49.57857" lon="3.72589">
        <ele>77.04</ele>
        <time>2021-08-08T16:14:45Z</time>
      </trkpt>
      <trkpt lat="49.57855" lon="3.72582">
        <ele>77.04</ele>
        <time>2021-08-08T16:14:46Z</time>
      </trkpt>
      <trkpt lat="49.57851" lon="3.72566">
        <ele>77.04</ele>
        <time>2021-08-08T16:14:48Z</time>
      </trkpt>
      <trkpt lat="49.5785" lon="3.72559">
        <ele>77.04</ele>
        <time>2021-08-08T16:14:49Z</time>
      </trkpt>
      <trkpt lat="49.57847" lon="3.72551">
        <ele>77.52</ele>
        <time>2021-08-08T16:14:50Z</time>
      </trkpt>
      <trkpt lat="49.57846" lon="3.72544">
        <ele>77.52</ele>
        <time>2021-08-08T16:14:51Z</time>
      </trkpt>
      <trkpt lat="49.57843" lon="3.72537">
        <ele>77.52</ele>
        <time>2021-08-08T16:14:52Z</time>
      </trkpt>
      <trkpt lat="49.57838" lon="3.72515">
        <ele>78.48</ele>
        <time>2021-08-08T16:14:55Z</time>
      </trkpt>
      <trkpt lat="49.57821" lon="3.72446">
        <ele>78.48</ele>
        <time>2021-08-08T16:15:04Z</time>
      </trkpt>
      <trkpt lat="49.57806" lon="3.7238">
        <ele>78.48</ele>
        <time>2021-08-08T16:15:13Z</time>
      </trkpt>
      <trkpt lat="49.57788" lon="3.72307">
        <ele>79.45</ele>
        <time>2021-08-08T16:15:23Z</time>
      </trkpt>
      <trkpt lat="49.57786" lon="3.723">
        <ele>79.45</ele>
        <time>2021-08-08T16:15:24Z</time>
      </trkpt>
      <trkpt lat="49.57784" lon="3.72293">
        <ele>79.45</ele>
        <time>2021-08-08T16:15:25Z</time>
      </trkpt>
      <trkpt lat="49.57769" lon="3.72244">
        <ele>79.45</ele>
        <time>2021-08-08T16:15:32Z</time>
      </trkpt>
      <trkpt lat="49.5775" lon="3.72165">
        <ele>79.45</ele>
        <time>2021-08-08T16:15:42Z</time>
      </trkpt>
      <trkpt lat="49.57748" lon="3.72157">
        <ele>79.45</ele>
        <time>2021-08-08T16:15:43Z</time>
      </trkpt>
      <trkpt lat="49.57746" lon="3.72149">
        <ele>79.93</ele>
        <time>2021-08-08T16:15:44Z</time>
      </trkpt>
      <trkpt lat="49.5773" lon="3.72081">
        <ele>78.48</ele>
        <time>2021-08-08T16:15:52Z</time>
      </trkpt>
      <trkpt lat="49.57714" lon="3.72011">
        <ele>78.97</ele>
        <time>2021-08-08T16:16:00Z</time>
      </trkpt>
      <trkpt lat="49.57704" lon="3.71979">
        <ele>78.97</ele>
        <time>2021-08-08T16:16:04Z</time>
      </trkpt>
      <trkpt lat="49.57702" lon="3.71971">
        <ele>78.97</ele>
        <time>2021-08-08T16:16:05Z</time>
      </trkpt>
      <trkpt lat="49.577" lon="3.71964">
        <ele>78.97</ele>
        <time>2021-08-08T16:16:06Z</time>
      </trkpt>
      <trkpt lat="49.57699" lon="3.71957">
        <ele>78.97</ele>
        <time>2021-08-08T16:16:07Z</time>
      </trkpt>
      <trkpt lat="49.57697" lon="3.71949">
        <ele>78.97</ele>
        <time>2021-08-08T16:16:08Z</time>
      </trkpt>
      <trkpt lat="49.57696" lon="3.71941">
        <ele>78.97</ele>
        <time>2021-08-08T16:16:09Z</time>
      </trkpt>
      <trkpt lat="49.57694" lon="3.71933">
        <ele>78.97</ele>
        <time>2021-08-08T16:16:10Z</time>
      </trkpt>
      <trkpt lat="49.57692" lon="3.71926">
        <ele>78.97</ele>
        <time>2021-08-08T16:16:11Z</time>
      </trkpt>
      <trkpt lat="49.5769" lon="3.71918">
        <ele>78.97</ele>
        <time>2021-08-08T16:16:12Z</time>
      </trkpt>
      <trkpt lat="49.57679" lon="3.71852">
        <ele>78.97</ele>
        <time>2021-08-08T16:16:20Z</time>
      </trkpt>
      <trkpt lat="49.57675" lon="3.71839">
        <ele>78.97</ele>
        <time>2021-08-08T16:16:22Z</time>
      </trkpt>
      <trkpt lat="49.57674" lon="3.71833">
        <ele>78.97</ele>
        <time>2021-08-08T16:16:23Z</time>
      </trkpt>
      <trkpt lat="49.57673" lon="3.71826">
        <ele>78.97</ele>
        <time>2021-08-08T16:16:24Z</time>
      </trkpt>
      <trkpt lat="49.57668" lon="3.71807">
        <ele>78.48</ele>
        <time>2021-08-08T16:16:27Z</time>
      </trkpt>
      <trkpt lat="49.57666" lon="3.71801">
        <ele>78.48</ele>
        <time>2021-08-08T16:16:28Z</time>
      </trkpt>
      <trkpt lat="49.57663" lon="3.71795">
        <ele>78.48</ele>
        <time>2021-08-08T16:16:29Z</time>
      </trkpt>
      <trkpt lat="49.5766" lon="3.71789">
        <ele>78</ele>
        <time>2021-08-08T16:16:30Z</time>
      </trkpt>
      <trkpt lat="49.57657" lon="3.71783">
        <ele>78</ele>
        <time>2021-08-08T16:16:31Z</time>
      </trkpt>
      <trkpt lat="49.57645" lon="3.71767">
        <ele>78</ele>
        <time>2021-08-08T16:16:34Z</time>
      </trkpt>
      <trkpt lat="49.57639" lon="3.71763">
        <ele>78</ele>
        <time>2021-08-08T16:16:35Z</time>
      </trkpt>
      <trkpt lat="49.57625" lon="3.71747">
        <ele>78</ele>
        <time>2021-08-08T16:16:38Z</time>
      </trkpt>
      <trkpt lat="49.57605" lon="3.71713">
        <ele>78</ele>
        <time>2021-08-08T16:16:44Z</time>
      </trkpt>
      <trkpt lat="49.5758" lon="3.71669">
        <ele>78.48</ele>
        <time>2021-08-08T16:16:51Z</time>
      </trkpt>
      <trkpt lat="49.57557" lon="3.71616">
        <ele>78.48</ele>
        <time>2021-08-08T16:16:58Z</time>
      </trkpt>
      <trkpt lat="49.57549" lon="3.71592">
        <ele>78.48</ele>
        <time>2021-08-08T16:17:01Z</time>
      </trkpt>
      <trkpt lat="49.57547" lon="3.71584">
        <ele>78.48</ele>
        <time>2021-08-08T16:17:02Z</time>
      </trkpt>
      <trkpt lat="49.57548" lon="3.71576">
        <ele>78.48</ele>
        <time>2021-08-08T16:17:03Z</time>
      </trkpt>
      <trkpt lat="49.57551" lon="3.71525">
        <ele>78.48</ele>
        <time>2021-08-08T16:17:10Z</time>
      </trkpt>
      <trkpt lat="49.57548" lon="3.71483">
        <ele>79.93</ele>
        <time>2021-08-08T16:17:15Z</time>
      </trkpt>
      <trkpt lat="49.57537" lon="3.71409">
        <ele>81.37</ele>
        <time>2021-08-08T16:17:26Z</time>
      </trkpt>
      <trkpt lat="49.5753" lon="3.71331">
        <ele>80.89</ele>
        <time>2021-08-08T16:17:38Z</time>
      </trkpt>
      <trkpt lat="49.57525" lon="3.71258">
        <ele>81.37</ele>
        <time>2021-08-08T16:17:50Z</time>
      </trkpt>
      <trkpt lat="49.57522" lon="3.71201">
        <ele>81.37</ele>
        <time>2021-08-08T16:17:59Z</time>
      </trkpt>
      <trkpt lat="49.57518" lon="3.71144">
        <ele>81.37</ele>
        <time>2021-08-08T16:18:09Z</time>
      </trkpt>
      <trkpt lat="49.57515" lon="3.71093">
        <ele>81.37</ele>
        <time>2021-08-08T16:18:18Z</time>
      </trkpt>
      <trkpt lat="49.57514" lon="3.71071">
        <ele>81.37</ele>
        <time>2021-08-08T16:18:23Z</time>
      </trkpt>
      <trkpt lat="49.57512" lon="3.71069">
        <ele>81.37</ele>
        <time>2021-08-08T16:18:24Z</time>
      </trkpt>
      <trkpt lat="49.5751" lon="3.71068">
        <ele>81.37</ele>
        <time>2021-08-08T16:18:25Z</time>
      </trkpt>
      <trkpt lat="49.57509" lon="3.71068">
        <ele>81.85</ele>
        <time>2021-08-08T16:18:26Z</time>
      </trkpt>
      <trkpt lat="49.57506" lon="3.71069">
        <ele>81.85</ele>
        <time>2021-08-08T16:18:27Z</time>
      </trkpt>
      <trkpt lat="49.57504" lon="3.71069">
        <ele>81.85</ele>
        <time>2021-08-08T16:18:28Z</time>
      </trkpt>
      <trkpt lat="49.57502" lon="3.7107">
        <ele>81.85</ele>
        <time>2021-08-08T16:18:29Z</time>
      </trkpt>
      <trkpt lat="49.57499" lon="3.71072">
        <ele>81.85</ele>
        <time>2021-08-08T16:18:30Z</time>
      </trkpt>
      <trkpt lat="49.57496" lon="3.71073">
        <ele>81.85</ele>
        <time>2021-08-08T16:18:31Z</time>
      </trkpt>
      <trkpt lat="49.57493" lon="3.71074">
        <ele>81.85</ele>
        <time>2021-08-08T16:18:32Z</time>
      </trkpt>
      <trkpt lat="49.5749" lon="3.71076">
        <ele>81.85</ele>
        <time>2021-08-08T16:18:33Z</time>
      </trkpt>
      <trkpt lat="49.57465" lon="3.71088">
        <ele>82.33</ele>
        <time>2021-08-08T16:18:41Z</time>
      </trkpt>
      <trkpt lat="49.57424" lon="3.71107">
        <ele>83.77</ele>
        <time>2021-08-08T16:18:52Z</time>
      </trkpt>
      <trkpt lat="49.57402" lon="3.71116">
        <ele>83.77</ele>
        <time>2021-08-08T16:18:58Z</time>
      </trkpt>
      <trkpt lat="49.5738" lon="3.71129">
        <ele>84.25</ele>
        <time>2021-08-08T16:19:04Z</time>
      </trkpt>
      <trkpt lat="49.57373" lon="3.71137">
        <ele>84.25</ele>
        <time>2021-08-08T16:19:06Z</time>
      </trkpt>
      <trkpt lat="49.57347" lon="3.71178">
        <ele>85.21</ele>
        <time>2021-08-08T16:19:16Z</time>
      </trkpt>
      <trkpt lat="49.57326" lon="3.712">
        <ele>87.14</ele>
        <time>2021-08-08T16:19:24Z</time>
      </trkpt>
      <trkpt lat="49.57303" lon="3.712">
        <ele>87.62</ele>
        <time>2021-08-08T16:19:31Z</time>
      </trkpt>
      <trkpt lat="49.57275" lon="3.71188">
        <ele>88.58</ele>
        <time>2021-08-08T16:19:39Z</time>
      </trkpt>
      <trkpt lat="49.57237" lon="3.71172">
        <ele>88.58</ele>
        <time>2021-08-08T16:19:48Z</time>
      </trkpt>
      <trkpt lat="49.57218" lon="3.71164">
        <ele>87.62</ele>
        <time>2021-08-08T16:19:52Z</time>
      </trkpt>
      <trkpt lat="49.57212" lon="3.71164">
        <ele>87.62</ele>
        <time>2021-08-08T16:19:53Z</time>
      </trkpt>
      <trkpt lat="49.57206" lon="3.71164">
        <ele>86.66</ele>
        <time>2021-08-08T16:19:54Z</time>
      </trkpt>
      <trkpt lat="49.57199" lon="3.71166">
        <ele>85.69</ele>
        <time>2021-08-08T16:19:55Z</time>
      </trkpt>
      <trkpt lat="49.57193" lon="3.71168">
        <ele>85.69</ele>
        <time>2021-08-08T16:19:56Z</time>
      </trkpt>
      <trkpt lat="49.57187" lon="3.71173">
        <ele>85.69</ele>
        <time>2021-08-08T16:19:57Z</time>
      </trkpt>
      <trkpt lat="49.57181" lon="3.71179">
        <ele>84.73</ele>
        <time>2021-08-08T16:19:58Z</time>
      </trkpt>
      <trkpt lat="49.57176" lon="3.71186">
        <ele>84.25</ele>
        <time>2021-08-08T16:19:59Z</time>
      </trkpt>
      <trkpt lat="49.57172" lon="3.71196">
        <ele>83.29</ele>
        <time>2021-08-08T16:20:00Z</time>
      </trkpt>
      <trkpt lat="49.57168" lon="3.71206">
        <ele>82.33</ele>
        <time>2021-08-08T16:20:01Z</time>
      </trkpt>
      <trkpt lat="49.57152" lon="3.71246">
        <ele>79.93</ele>
        <time>2021-08-08T16:20:05Z</time>
      </trkpt>
      <trkpt lat="49.57148" lon="3.71254">
        <ele>78.97</ele>
        <time>2021-08-08T16:20:06Z</time>
      </trkpt>
      <trkpt lat="49.57142" lon="3.71261">
        <ele>78.97</ele>
        <time>2021-08-08T16:20:07Z</time>
      </trkpt>
      <trkpt lat="49.57137" lon="3.71266">
        <ele>78.97</ele>
        <time>2021-08-08T16:20:08Z</time>
      </trkpt>
      <trkpt lat="49.57133" lon="3.71268">
        <ele>78.97</ele>
        <time>2021-08-08T16:20:09Z</time>
      </trkpt>
      <trkpt lat="49.57129" lon="3.71268">
        <ele>78.97</ele>
        <time>2021-08-08T16:20:10Z</time>
      </trkpt>
      <trkpt lat="49.57127" lon="3.71266">
        <ele>78.97</ele>
        <time>2021-08-08T16:20:11Z</time>
      </trkpt>
      <trkpt lat="49.57126" lon="3.71262">
        <ele>78.97</ele>
        <time>2021-08-08T16:20:12Z</time>
      </trkpt>
      <trkpt lat="49.57127" lon="3.71259">
        <ele>78.97</ele>
        <time>2021-08-08T16:20:13Z</time>
      </trkpt>
      <trkpt lat="49.57128" lon="3.71256">
        <ele>78.97</ele>
        <time>2021-08-08T16:20:14Z</time>
      </trkpt>
      <trkpt lat="49.57131" lon="3.71253">
        <ele>78.97</ele>
        <time>2021-08-08T16:20:15Z</time>
      </trkpt>
      <trkpt lat="49.57133" lon="3.7125">
        <ele>78.97</ele>
        <time>2021-08-08T16:20:16Z</time>
      </trkpt>
      <trkpt lat="49.57136" lon="3.71247">
        <ele>78.97</ele>
        <time>2021-08-08T16:20:17Z</time>
      </trkpt>
      <trkpt lat="49.57139" lon="3.71244">
        <ele>78.97</ele>
        <time>2021-08-08T16:20:18Z</time>
      </trkpt>
      <trkpt lat="49.57141" lon="3.7124">
        <ele>78.97</ele>
        <time>2021-08-08T16:20:19Z</time>
      </trkpt>
      <trkpt lat="49.57144" lon="3.71235">
        <ele>78.97</ele>
        <time>2021-08-08T16:20:20Z</time>
      </trkpt>
      <trkpt lat="49.57146" lon="3.7123">
        <ele>78.97</ele>
        <time>2021-08-08T16:20:21Z</time>
      </trkpt>
      <trkpt lat="49.57149" lon="3.71224">
        <ele>78.97</ele>
        <time>2021-08-08T16:20:22Z</time>
      </trkpt>
      <trkpt lat="49.57153" lon="3.71213">
        <ele>80.41</ele>
        <time>2021-08-08T16:20:24Z</time>
      </trkpt>
      <trkpt lat="49.57164" lon="3.71172">
        <ele>79.93</ele>
        <time>2021-08-08T16:20:31Z</time>
      </trkpt>
      <trkpt lat="49.57167" lon="3.71167">
        <ele>79.93</ele>
        <time>2021-08-08T16:20:32Z</time>
      </trkpt>
      <trkpt lat="49.5717" lon="3.71162">
        <ele>79.93</ele>
        <time>2021-08-08T16:20:33Z</time>
      </trkpt>
      <trkpt lat="49.57173" lon="3.71156">
        <ele>79.93</ele>
        <time>2021-08-08T16:20:34Z</time>
      </trkpt>
      <trkpt lat="49.57176" lon="3.71151">
        <ele>79.93</ele>
        <time>2021-08-08T16:20:35Z</time>
      </trkpt>
      <trkpt lat="49.5718" lon="3.71146">
        <ele>79.93</ele>
        <time>2021-08-08T16:20:36Z</time>
      </trkpt>
      <trkpt lat="49.57183" lon="3.71143">
        <ele>79.93</ele>
        <time>2021-08-08T16:20:37Z</time>
      </trkpt>
      <trkpt lat="49.57187" lon="3.7114">
        <ele>79.93</ele>
        <time>2021-08-08T16:20:38Z</time>
      </trkpt>
      <trkpt lat="49.57215" lon="3.71133">
        <ele>81.37</ele>
        <time>2021-08-08T16:20:45Z</time>
      </trkpt>
      <trkpt lat="49.57241" lon="3.71139">
        <ele>81.85</ele>
        <time>2021-08-08T16:20:52Z</time>
      </trkpt>
      <trkpt lat="49.57251" lon="3.71134">
        <ele>81.85</ele>
        <time>2021-08-08T16:20:55Z</time>
      </trkpt>
      <trkpt lat="49.57255" lon="3.7113">
        <ele>81.85</ele>
        <time>2021-08-08T16:20:56Z</time>
      </trkpt>
      <trkpt lat="49.57258" lon="3.71125">
        <ele>81.85</ele>
        <time>2021-08-08T16:20:57Z</time>
      </trkpt>
      <trkpt lat="49.57282" lon="3.71073">
        <ele>81.85</ele>
        <time>2021-08-08T16:21:06Z</time>
      </trkpt>
      <trkpt lat="49.5731" lon="3.71016">
        <ele>82.81</ele>
        <time>2021-08-08T16:21:16Z</time>
      </trkpt>
      <trkpt lat="49.57316" lon="3.71005">
        <ele>82.81</ele>
        <time>2021-08-08T16:21:18Z</time>
      </trkpt>
      <trkpt lat="49.57326" lon="3.70989">
        <ele>82.81</ele>
        <time>2021-08-08T16:21:21Z</time>
      </trkpt>
      <trkpt lat="49.57329" lon="3.70983">
        <ele>82.81</ele>
        <time>2021-08-08T16:21:22Z</time>
      </trkpt>
      <trkpt lat="49.57341" lon="3.7096">
        <ele>82.81</ele>
        <time>2021-08-08T16:21:26Z</time>
      </trkpt>
      <trkpt lat="49.57343" lon="3.70954">
        <ele>82.81</ele>
        <time>2021-08-08T16:21:27Z</time>
      </trkpt>
      <trkpt lat="49.57344" lon="3.70948">
        <ele>82.81</ele>
        <time>2021-08-08T16:21:28Z</time>
      </trkpt>
      <trkpt lat="49.57345" lon="3.70941">
        <ele>82.81</ele>
        <time>2021-08-08T16:21:29Z</time>
      </trkpt>
      <trkpt lat="49.57346" lon="3.70933">
        <ele>82.81</ele>
        <time>2021-08-08T16:21:30Z</time>
      </trkpt>
      <trkpt lat="49.57346" lon="3.70925">
        <ele>82.81</ele>
        <time>2021-08-08T16:21:31Z</time>
      </trkpt>
      <trkpt lat="49.57342" lon="3.70891">
        <ele>82.81</ele>
        <time>2021-08-08T16:21:36Z</time>
      </trkpt>
      <trkpt lat="49.57335" lon="3.70813">
        <ele>81.37</ele>
        <time>2021-08-08T16:21:45Z</time>
      </trkpt>
      <trkpt lat="49.5733" lon="3.70764">
        <ele>80.41</ele>
        <time>2021-08-08T16:21:50Z</time>
      </trkpt>
      <trkpt lat="49.57327" lon="3.70684">
        <ele>79.93</ele>
        <time>2021-08-08T16:21:58Z</time>
      </trkpt>
      <trkpt lat="49.57319" lon="3.70592">
        <ele>79.45</ele>
        <time>2021-08-08T16:22:07Z</time>
      </trkpt>
      <trkpt lat="49.57318" lon="3.70582">
        <ele>79.45</ele>
        <time>2021-08-08T16:22:08Z</time>
      </trkpt>
      <trkpt lat="49.57318" lon="3.70573">
        <ele>79.45</ele>
        <time>2021-08-08T16:22:09Z</time>
      </trkpt>
      <trkpt lat="49.57319" lon="3.70564">
        <ele>79.45</ele>
        <time>2021-08-08T16:22:10Z</time>
      </trkpt>
      <trkpt lat="49.57321" lon="3.70557">
        <ele>79.45</ele>
        <time>2021-08-08T16:22:11Z</time>
      </trkpt>
      <trkpt lat="49.57325" lon="3.70552">
        <ele>79.45</ele>
        <time>2021-08-08T16:22:12Z</time>
      </trkpt>
      <trkpt lat="49.5733" lon="3.7055">
        <ele>79.45</ele>
        <time>2021-08-08T16:22:13Z</time>
      </trkpt>
      <trkpt lat="49.57335" lon="3.70548">
        <ele>79.45</ele>
        <time>2021-08-08T16:22:14Z</time>
      </trkpt>
      <trkpt lat="49.5734" lon="3.70547">
        <ele>79.45</ele>
        <time>2021-08-08T16:22:15Z</time>
      </trkpt>
      <trkpt lat="49.57353" lon="3.70546">
        <ele>78.97</ele>
        <time>2021-08-08T16:22:18Z</time>
      </trkpt>
      <trkpt lat="49.57358" lon="3.70545">
        <ele>78.97</ele>
        <time>2021-08-08T16:22:19Z</time>
      </trkpt>
      <trkpt lat="49.57362" lon="3.70544">
        <ele>78.97</ele>
        <time>2021-08-08T16:22:20Z</time>
      </trkpt>
      <trkpt lat="49.57397" lon="3.70529">
        <ele>78.97</ele>
        <time>2021-08-08T16:22:28Z</time>
      </trkpt>
      <trkpt lat="49.5741" lon="3.70521">
        <ele>78.97</ele>
        <time>2021-08-08T16:22:31Z</time>
      </trkpt>
      <trkpt lat="49.57433" lon="3.70494">
        <ele>78.97</ele>
        <time>2021-08-08T16:22:37Z</time>
      </trkpt>
      <trkpt lat="49.57446" lon="3.70472">
        <ele>78.97</ele>
        <time>2021-08-08T16:22:41Z</time>
      </trkpt>
      <trkpt lat="49.57452" lon="3.70459">
        <ele>78</ele>
        <time>2021-08-08T16:22:43Z</time>
      </trkpt>
      <trkpt lat="49.57454" lon="3.70451">
        <ele>78</ele>
        <time>2021-08-08T16:22:44Z</time>
      </trkpt>
      <trkpt lat="49.57455" lon="3.70444">
        <ele>78</ele>
        <time>2021-08-08T16:22:45Z</time>
      </trkpt>
      <trkpt lat="49.57456" lon="3.70436">
        <ele>78</ele>
        <time>2021-08-08T16:22:46Z</time>
      </trkpt>
      <trkpt lat="49.57456" lon="3.70429">
        <ele>78</ele>
        <time>2021-08-08T16:22:47Z</time>
      </trkpt>
      <trkpt lat="49.57456" lon="3.70421">
        <ele>78</ele>
        <time>2021-08-08T16:22:48Z</time>
      </trkpt>
      <trkpt lat="49.57456" lon="3.70414">
        <ele>78</ele>
        <time>2021-08-08T16:22:49Z</time>
      </trkpt>
      <trkpt lat="49.57455" lon="3.70406">
        <ele>78</ele>
        <time>2021-08-08T16:22:50Z</time>
      </trkpt>
      <trkpt lat="49.57454" lon="3.704">
        <ele>78</ele>
        <time>2021-08-08T16:22:51Z</time>
      </trkpt>
      <trkpt lat="49.57452" lon="3.70392">
        <ele>78</ele>
        <time>2021-08-08T16:22:52Z</time>
      </trkpt>
      <trkpt lat="49.57445" lon="3.70358">
        <ele>78</ele>
        <time>2021-08-08T16:22:57Z</time>
      </trkpt>
      <trkpt lat="49.57444" lon="3.70351">
        <ele>78</ele>
        <time>2021-08-08T16:22:58Z</time>
      </trkpt>
      <trkpt lat="49.57441" lon="3.70336">
        <ele>78</ele>
        <time>2021-08-08T16:23:00Z</time>
      </trkpt>
      <trkpt lat="49.57436" lon="3.70303">
        <ele>77.52</ele>
        <time>2021-08-08T16:23:05Z</time>
      </trkpt>
      <trkpt lat="49.57435" lon="3.70296">
        <ele>77.52</ele>
        <time>2021-08-08T16:23:06Z</time>
      </trkpt>
      <trkpt lat="49.57435" lon="3.70289">
        <ele>77.52</ele>
        <time>2021-08-08T16:23:07Z</time>
      </trkpt>
      <trkpt lat="49.57434" lon="3.70282">
        <ele>77.52</ele>
        <time>2021-08-08T16:23:08Z</time>
      </trkpt>
      <trkpt lat="49.57434" lon="3.70275">
        <ele>77.52</ele>
        <time>2021-08-08T16:23:09Z</time>
      </trkpt>
      <trkpt lat="49.57433" lon="3.70267">
        <ele>77.04</ele>
        <time>2021-08-08T16:23:10Z</time>
      </trkpt>
      <trkpt lat="49.57431" lon="3.70259">
        <ele>77.04</ele>
        <time>2021-08-08T16:23:11Z</time>
      </trkpt>
      <trkpt lat="49.57429" lon="3.70242">
        <ele>77.04</ele>
        <time>2021-08-08T16:23:13Z</time>
      </trkpt>
      <trkpt lat="49.57429" lon="3.70235">
        <ele>77.04</ele>
        <time>2021-08-08T16:23:14Z</time>
      </trkpt>
      <trkpt lat="49.57431" lon="3.70174">
        <ele>77.04</ele>
        <time>2021-08-08T16:23:23Z</time>
      </trkpt>
      <trkpt lat="49.57434" lon="3.70131">
        <ele>77.04</ele>
        <time>2021-08-08T16:23:30Z</time>
      </trkpt>
      <trkpt lat="49.57434" lon="3.70059">
        <ele>77.04</ele>
        <time>2021-08-08T16:23:40Z</time>
      </trkpt>
      <trkpt lat="49.57434" lon="3.69988">
        <ele>77.04</ele>
        <time>2021-08-08T16:23:50Z</time>
      </trkpt>
      <trkpt lat="49.57435" lon="3.69973">
        <ele>77.04</ele>
        <time>2021-08-08T16:23:52Z</time>
      </trkpt>
      <trkpt lat="49.57435" lon="3.69965">
        <ele>77.04</ele>
        <time>2021-08-08T16:23:53Z</time>
      </trkpt>
      <trkpt lat="49.57433" lon="3.69915">
        <ele>77.04</ele>
        <time>2021-08-08T16:24:00Z</time>
      </trkpt>
      <trkpt lat="49.57427" lon="3.69875">
        <ele>77.04</ele>
        <time>2021-08-08T16:24:07Z</time>
      </trkpt>
      <trkpt lat="49.57424" lon="3.69871">
        <ele>77.04</ele>
        <time>2021-08-08T16:24:08Z</time>
      </trkpt>
      <trkpt lat="49.5742" lon="3.69867">
        <ele>77.04</ele>
        <time>2021-08-08T16:24:09Z</time>
      </trkpt>
      <trkpt lat="49.57417" lon="3.69866">
        <ele>77.04</ele>
        <time>2021-08-08T16:24:10Z</time>
      </trkpt>
      <trkpt lat="49.57413" lon="3.69866">
        <ele>77.04</ele>
        <time>2021-08-08T16:24:11Z</time>
      </trkpt>
      <trkpt lat="49.57408" lon="3.69867">
        <ele>77.04</ele>
        <time>2021-08-08T16:24:12Z</time>
      </trkpt>
      <trkpt lat="49.57404" lon="3.69867">
        <ele>77.04</ele>
        <time>2021-08-08T16:24:13Z</time>
      </trkpt>
      <trkpt lat="49.57395" lon="3.69869">
        <ele>77.04</ele>
        <time>2021-08-08T16:24:15Z</time>
      </trkpt>
      <trkpt lat="49.57381" lon="3.69871">
        <ele>77.04</ele>
        <time>2021-08-08T16:24:18Z</time>
      </trkpt>
      <trkpt lat="49.57346" lon="3.69875">
        <ele>77.04</ele>
        <time>2021-08-08T16:24:26Z</time>
      </trkpt>
      <trkpt lat="49.57341" lon="3.69874">
        <ele>77.04</ele>
        <time>2021-08-08T16:24:27Z</time>
      </trkpt>
      <trkpt lat="49.57337" lon="3.6987">
        <ele>77.04</ele>
        <time>2021-08-08T16:24:28Z</time>
      </trkpt>
      <trkpt lat="49.57334" lon="3.69864">
        <ele>77.04</ele>
        <time>2021-08-08T16:24:29Z</time>
      </trkpt>
      <trkpt lat="49.57332" lon="3.69857">
        <ele>77.04</ele>
        <time>2021-08-08T16:24:30Z</time>
      </trkpt>
      <trkpt lat="49.57332" lon="3.6985">
        <ele>77.04</ele>
        <time>2021-08-08T16:24:31Z</time>
      </trkpt>
      <trkpt lat="49.57332" lon="3.69842">
        <ele>77.04</ele>
        <time>2021-08-08T16:24:32Z</time>
      </trkpt>
      <trkpt lat="49.57332" lon="3.69834">
        <ele>77.04</ele>
        <time>2021-08-08T16:24:33Z</time>
      </trkpt>
      <trkpt lat="49.57332" lon="3.69825">
        <ele>76.56</ele>
        <time>2021-08-08T16:24:34Z</time>
      </trkpt>
      <trkpt lat="49.57333" lon="3.69817">
        <ele>76.56</ele>
        <time>2021-08-08T16:24:35Z</time>
      </trkpt>
      <trkpt lat="49.57332" lon="3.69801">
        <ele>76.56</ele>
        <time>2021-08-08T16:24:37Z</time>
      </trkpt>
      <trkpt lat="49.57332" lon="3.69793">
        <ele>76.56</ele>
        <time>2021-08-08T16:24:38Z</time>
      </trkpt>
      <trkpt lat="49.5733" lon="3.69785">
        <ele>76.56</ele>
        <time>2021-08-08T16:24:39Z</time>
      </trkpt>
      <trkpt lat="49.57327" lon="3.69778">
        <ele>76.56</ele>
        <time>2021-08-08T16:24:40Z</time>
      </trkpt>
      <trkpt lat="49.57323" lon="3.69772">
        <ele>76.56</ele>
        <time>2021-08-08T16:24:41Z</time>
      </trkpt>
      <trkpt lat="49.57319" lon="3.69767">
        <ele>76.56</ele>
        <time>2021-08-08T16:24:42Z</time>
      </trkpt>
      <trkpt lat="49.57315" lon="3.69761">
        <ele>76.56</ele>
        <time>2021-08-08T16:24:43Z</time>
      </trkpt>
      <trkpt lat="49.57312" lon="3.69755">
        <ele>76.56</ele>
        <time>2021-08-08T16:24:44Z</time>
      </trkpt>
      <trkpt lat="49.57308" lon="3.6975">
        <ele>76.08</ele>
        <time>2021-08-08T16:24:45Z</time>
      </trkpt>
      <trkpt lat="49.57304" lon="3.69744">
        <ele>76.08</ele>
        <time>2021-08-08T16:24:46Z</time>
      </trkpt>
      <trkpt lat="49.57283" lon="3.69709">
        <ele>76.08</ele>
        <time>2021-08-08T16:24:52Z</time>
      </trkpt>
      <trkpt lat="49.57279" lon="3.69703">
        <ele>76.08</ele>
        <time>2021-08-08T16:24:53Z</time>
      </trkpt>
      <trkpt lat="49.57275" lon="3.69698">
        <ele>76.08</ele>
        <time>2021-08-08T16:24:54Z</time>
      </trkpt>
      <trkpt lat="49.5725" lon="3.69655">
        <ele>76.08</ele>
        <time>2021-08-08T16:25:01Z</time>
      </trkpt>
      <trkpt lat="49.57247" lon="3.69649">
        <ele>75.6</ele>
        <time>2021-08-08T16:25:02Z</time>
      </trkpt>
      <trkpt lat="49.57243" lon="3.69642">
        <ele>75.6</ele>
        <time>2021-08-08T16:25:03Z</time>
      </trkpt>
      <trkpt lat="49.57241" lon="3.69635">
        <ele>75.6</ele>
        <time>2021-08-08T16:25:04Z</time>
      </trkpt>
      <trkpt lat="49.57239" lon="3.69627">
        <ele>75.6</ele>
        <time>2021-08-08T16:25:05Z</time>
      </trkpt>
      <trkpt lat="49.57238" lon="3.69618">
        <ele>75.6</ele>
        <time>2021-08-08T16:25:06Z</time>
      </trkpt>
      <trkpt lat="49.57239" lon="3.6961">
        <ele>77.04</ele>
        <time>2021-08-08T16:25:07Z</time>
      </trkpt>
      <trkpt lat="49.57239" lon="3.69602">
        <ele>77.04</ele>
        <time>2021-08-08T16:25:08Z</time>
      </trkpt>
      <trkpt lat="49.5724" lon="3.69578">
        <ele>77.04</ele>
        <time>2021-08-08T16:25:11Z</time>
      </trkpt>
      <trkpt lat="49.57238" lon="3.69509">
        <ele>77.04</ele>
        <time>2021-08-08T16:25:20Z</time>
      </trkpt>
      <trkpt lat="49.57242" lon="3.69438">
        <ele>77.04</ele>
        <time>2021-08-08T16:25:30Z</time>
      </trkpt>
      <trkpt lat="49.57249" lon="3.694">
        <ele>77.04</ele>
        <time>2021-08-08T16:25:35Z</time>
      </trkpt>
      <trkpt lat="49.5727" lon="3.69338">
        <ele>77.04</ele>
        <time>2021-08-08T16:25:44Z</time>
      </trkpt>
      <trkpt lat="49.57294" lon="3.69265">
        <ele>77.04</ele>
        <time>2021-08-08T16:25:54Z</time>
      </trkpt>
      <trkpt lat="49.57296" lon="3.69258">
        <ele>77.04</ele>
        <time>2021-08-08T16:25:55Z</time>
      </trkpt>
      <trkpt lat="49.57297" lon="3.6925">
        <ele>77.04</ele>
        <time>2021-08-08T16:25:56Z</time>
      </trkpt>
      <trkpt lat="49.57297" lon="3.69167">
        <ele>77.52</ele>
        <time>2021-08-08T16:26:06Z</time>
      </trkpt>
      <trkpt lat="49.57295" lon="3.69089">
        <ele>77.52</ele>
        <time>2021-08-08T16:26:16Z</time>
      </trkpt>
      <trkpt lat="49.57291" lon="3.69006">
        <ele>77.52</ele>
        <time>2021-08-08T16:26:26Z</time>
      </trkpt>
      <trkpt lat="49.57286" lon="3.68939">
        <ele>77.52</ele>
        <time>2021-08-08T16:26:34Z</time>
      </trkpt>
      <trkpt lat="49.57279" lon="3.689">
        <ele>77.52</ele>
        <time>2021-08-08T16:26:39Z</time>
      </trkpt>
      <trkpt lat="49.57277" lon="3.68894">
        <ele>77.52</ele>
        <time>2021-08-08T16:26:40Z</time>
      </trkpt>
      <trkpt lat="49.57275" lon="3.68888">
        <ele>77.52</ele>
        <time>2021-08-08T16:26:41Z</time>
      </trkpt>
      <trkpt lat="49.57275" lon="3.68883">
        <ele>77.52</ele>
        <time>2021-08-08T16:26:42Z</time>
      </trkpt>
      <trkpt lat="49.57278" lon="3.68879">
        <ele>77.52</ele>
        <time>2021-08-08T16:26:43Z</time>
      </trkpt>
      <trkpt lat="49.57282" lon="3.68878">
        <ele>77.52</ele>
        <time>2021-08-08T16:26:44Z</time>
      </trkpt>
      <trkpt lat="49.57285" lon="3.68879">
        <ele>77.52</ele>
        <time>2021-08-08T16:26:45Z</time>
      </trkpt>
      <trkpt lat="49.5729" lon="3.6888">
        <ele>77.52</ele>
        <time>2021-08-08T16:26:46Z</time>
      </trkpt>
      <trkpt lat="49.57294" lon="3.68881">
        <ele>77.52</ele>
        <time>2021-08-08T16:26:47Z</time>
      </trkpt>
      <trkpt lat="49.57304" lon="3.68881">
        <ele>77.52</ele>
        <time>2021-08-08T16:26:49Z</time>
      </trkpt>
      <trkpt lat="49.57313" lon="3.68878">
        <ele>77.52</ele>
        <time>2021-08-08T16:26:51Z</time>
      </trkpt>
      <trkpt lat="49.57348" lon="3.68856">
        <ele>77.52</ele>
        <time>2021-08-08T16:26:58Z</time>
      </trkpt>
      <trkpt lat="49.57381" lon="3.68831">
        <ele>77.52</ele>
        <time>2021-08-08T16:27:06Z</time>
      </trkpt>
      <trkpt lat="49.57396" lon="3.68818">
        <ele>77.52</ele>
        <time>2021-08-08T16:27:10Z</time>
      </trkpt>
      <trkpt lat="49.57412" lon="3.68801">
        <ele>77.52</ele>
        <time>2021-08-08T16:27:14Z</time>
      </trkpt>
      <trkpt lat="49.57442" lon="3.68756">
        <ele>76.08</ele>
        <time>2021-08-08T16:27:22Z</time>
      </trkpt>
      <trkpt lat="49.57446" lon="3.68751">
        <ele>76.08</ele>
        <time>2021-08-08T16:27:23Z</time>
      </trkpt>
      <trkpt lat="49.5745" lon="3.68746">
        <ele>76.08</ele>
        <time>2021-08-08T16:27:24Z</time>
      </trkpt>
      <trkpt lat="49.57467" lon="3.68724">
        <ele>75.6</ele>
        <time>2021-08-08T16:27:28Z</time>
      </trkpt>
      <trkpt lat="49.57472" lon="3.6872">
        <ele>75.6</ele>
        <time>2021-08-08T16:27:29Z</time>
      </trkpt>
      <trkpt lat="49.5751" lon="3.68685">
        <ele>75.12</ele>
        <time>2021-08-08T16:27:37Z</time>
      </trkpt>
      <trkpt lat="49.57515" lon="3.68682">
        <ele>75.12</ele>
        <time>2021-08-08T16:27:38Z</time>
      </trkpt>
      <trkpt lat="49.5752" lon="3.68678">
        <ele>75.12</ele>
        <time>2021-08-08T16:27:39Z</time>
      </trkpt>
      <trkpt lat="49.57526" lon="3.68674">
        <ele>75.12</ele>
        <time>2021-08-08T16:27:40Z</time>
      </trkpt>
      <trkpt lat="49.57531" lon="3.6867">
        <ele>75.12</ele>
        <time>2021-08-08T16:27:41Z</time>
      </trkpt>
      <trkpt lat="49.57536" lon="3.68666">
        <ele>75.12</ele>
        <time>2021-08-08T16:27:42Z</time>
      </trkpt>
      <trkpt lat="49.57566" lon="3.68643">
        <ele>75.12</ele>
        <time>2021-08-08T16:27:48Z</time>
      </trkpt>
      <trkpt lat="49.57596" lon="3.68614">
        <ele>76.56</ele>
        <time>2021-08-08T16:27:55Z</time>
      </trkpt>
      <trkpt lat="49.57603" lon="3.68607">
        <ele>77.04</ele>
        <time>2021-08-08T16:27:57Z</time>
      </trkpt>
      <trkpt lat="49.57615" lon="3.68593">
        <ele>77.04</ele>
        <time>2021-08-08T16:28:01Z</time>
      </trkpt>
      <trkpt lat="49.57614" lon="3.68588">
        <ele>77.04</ele>
        <time>2021-08-08T16:28:02Z</time>
      </trkpt>
      <trkpt lat="49.57613" lon="3.68585">
        <ele>77.04</ele>
        <time>2021-08-08T16:28:03Z</time>
      </trkpt>
      <trkpt lat="49.5761" lon="3.68582">
        <ele>77.04</ele>
        <time>2021-08-08T16:28:04Z</time>
      </trkpt>
      <trkpt lat="49.57607" lon="3.6858">
        <ele>77.04</ele>
        <time>2021-08-08T16:28:05Z</time>
      </trkpt>
      <trkpt lat="49.57604" lon="3.68576">
        <ele>77.04</ele>
        <time>2021-08-08T16:28:06Z</time>
      </trkpt>
      <trkpt lat="49.576" lon="3.68572">
        <ele>77.04</ele>
        <time>2021-08-08T16:28:07Z</time>
      </trkpt>
      <trkpt lat="49.57597" lon="3.68567">
        <ele>77.04</ele>
        <time>2021-08-08T16:28:08Z</time>
      </trkpt>
      <trkpt lat="49.57595" lon="3.68562">
        <ele>77.04</ele>
        <time>2021-08-08T16:28:09Z</time>
      </trkpt>
      <trkpt lat="49.57594" lon="3.68555">
        <ele>75.6</ele>
        <time>2021-08-08T16:28:10Z</time>
      </trkpt>
      <trkpt lat="49.57592" lon="3.68548">
        <ele>75.6</ele>
        <time>2021-08-08T16:28:11Z</time>
      </trkpt>
      <trkpt lat="49.57592" lon="3.68541">
        <ele>75.6</ele>
        <time>2021-08-08T16:28:12Z</time>
      </trkpt>
      <trkpt lat="49.57579" lon="3.68479">
        <ele>75.6</ele>
        <time>2021-08-08T16:28:21Z</time>
      </trkpt>
      <trkpt lat="49.57565" lon="3.68406">
        <ele>77.04</ele>
        <time>2021-08-08T16:28:31Z</time>
      </trkpt>
      <trkpt lat="49.57551" lon="3.68353">
        <ele>77.04</ele>
        <time>2021-08-08T16:28:39Z</time>
      </trkpt>
      <trkpt lat="49.57549" lon="3.68348">
        <ele>77.04</ele>
        <time>2021-08-08T16:28:40Z</time>
      </trkpt>
      <trkpt lat="49.57545" lon="3.68331">
        <ele>77.04</ele>
        <time>2021-08-08T16:28:43Z</time>
      </trkpt>
      <trkpt lat="49.57546" lon="3.68325">
        <ele>77.04</ele>
        <time>2021-08-08T16:28:44Z</time>
      </trkpt>
      <trkpt lat="49.57546" lon="3.68321">
        <ele>77.04</ele>
        <time>2021-08-08T16:28:45Z</time>
      </trkpt>
      <trkpt lat="49.57547" lon="3.68317">
        <ele>77.04</ele>
        <time>2021-08-08T16:28:46Z</time>
      </trkpt>
      <trkpt lat="49.57546" lon="3.68313">
        <ele>77.04</ele>
        <time>2021-08-08T16:28:47Z</time>
      </trkpt>
      <trkpt lat="49.57546" lon="3.6831">
        <ele>77.04</ele>
        <time>2021-08-08T16:28:48Z</time>
      </trkpt>
      <trkpt lat="49.57546" lon="3.68306">
        <ele>77.04</ele>
        <time>2021-08-08T16:28:49Z</time>
      </trkpt>
      <trkpt lat="49.57546" lon="3.68303">
        <ele>77.52</ele>
        <time>2021-08-08T16:28:50Z</time>
      </trkpt>
      <trkpt lat="49.57543" lon="3.68275">
        <ele>77.52</ele>
        <time>2021-08-08T16:28:55Z</time>
      </trkpt>
      <trkpt lat="49.57545" lon="3.6827">
        <ele>77.52</ele>
        <time>2021-08-08T16:28:56Z</time>
      </trkpt>
      <trkpt lat="49.57547" lon="3.68266">
        <ele>77.52</ele>
        <time>2021-08-08T16:28:57Z</time>
      </trkpt>
      <trkpt lat="49.5757" lon="3.68249">
        <ele>77.52</ele>
        <time>2021-08-08T16:29:04Z</time>
      </trkpt>
      <trkpt lat="49.57597" lon="3.68228">
        <ele>78</ele>
        <time>2021-08-08T16:29:11Z</time>
      </trkpt>
      <trkpt lat="49.57609" lon="3.68218">
        <ele>78</ele>
        <time>2021-08-08T16:29:14Z</time>
      </trkpt>
      <trkpt lat="49.57611" lon="3.68214">
        <ele>78</ele>
        <time>2021-08-08T16:29:15Z</time>
      </trkpt>
      <trkpt lat="49.57611" lon="3.68208">
        <ele>78</ele>
        <time>2021-08-08T16:29:16Z</time>
      </trkpt>
      <trkpt lat="49.5761" lon="3.68203">
        <ele>78.48</ele>
        <time>2021-08-08T16:29:17Z</time>
      </trkpt>
      <trkpt lat="49.5761" lon="3.68198">
        <ele>78.48</ele>
        <time>2021-08-08T16:29:18Z</time>
      </trkpt>
      <trkpt lat="49.5761" lon="3.68194">
        <ele>78.48</ele>
        <time>2021-08-08T16:29:19Z</time>
      </trkpt>
      <trkpt lat="49.5761" lon="3.6819">
        <ele>78.48</ele>
        <time>2021-08-08T16:29:20Z</time>
      </trkpt>
      <trkpt lat="49.57612" lon="3.68188">
        <ele>78.48</ele>
        <time>2021-08-08T16:29:21Z</time>
      </trkpt>
      <trkpt lat="49.57614" lon="3.68186">
        <ele>78.48</ele>
        <time>2021-08-08T16:29:22Z</time>
      </trkpt>
      <trkpt lat="49.57635" lon="3.68168">
        <ele>78.48</ele>
        <time>2021-08-08T16:29:30Z</time>
      </trkpt>
      <trkpt lat="49.57637" lon="3.68163">
        <ele>78.48</ele>
        <time>2021-08-08T16:29:32Z</time>
      </trkpt>
      <trkpt lat="49.57637" lon="3.68158">
        <ele>78.48</ele>
        <time>2021-08-08T16:29:33Z</time>
      </trkpt>
      <trkpt lat="49.57636" lon="3.68154">
        <ele>78.48</ele>
        <time>2021-08-08T16:29:34Z</time>
      </trkpt>
      <trkpt lat="49.57628" lon="3.6813">
        <ele>77.04</ele>
        <time>2021-08-08T16:29:39Z</time>
      </trkpt>
      <trkpt lat="49.57609" lon="3.68079">
        <ele>76.56</ele>
        <time>2021-08-08T16:29:48Z</time>
      </trkpt>
      <trkpt lat="49.57602" lon="3.68057">
        <ele>78.48</ele>
        <time>2021-08-08T16:29:54Z</time>
      </trkpt>
      <trkpt lat="49.57602" lon="3.68057">
        <ele>78.48</ele>
        <time>2021-08-08T16:30:00Z</time>
      </trkpt>
      <trkpt lat="49.57602" lon="3.68058">
        <ele>78.48</ele>
        <time>2021-08-08T16:30:17Z</time>
      </trkpt>
      <trkpt lat="49.57601" lon="3.68057">
        <ele>78.48</ele>
        <time>2021-08-08T16:30:28Z</time>
      </trkpt>
      <trkpt lat="49.57603" lon="3.68056">
        <ele>78.97</ele>
        <time>2021-08-08T16:30:43Z</time>
      </trkpt>
      <trkpt lat="49.57604" lon="3.68055">
        <ele>78.97</ele>
        <time>2021-08-08T16:31:04Z</time>
      </trkpt>
      <trkpt lat="49.57603" lon="3.68053">
        <ele>78.97</ele>
        <time>2021-08-08T16:31:21Z</time>
      </trkpt>
      <trkpt lat="49.576" lon="3.68054">
        <ele>78.97</ele>
        <time>2021-08-08T16:31:35Z</time>
      </trkpt>
      <trkpt lat="49.57599" lon="3.68055">
        <ele>78.97</ele>
        <time>2021-08-08T16:31:39Z</time>
      </trkpt>
      <trkpt lat="49.57599" lon="3.68055">
        <ele>78.97</ele>
        <time>2021-08-08T16:32:01Z</time>
      </trkpt>
      <trkpt lat="49.57601" lon="3.68056">
        <ele>78.97</ele>
        <time>2021-08-08T16:32:22Z</time>
      </trkpt>
      <trkpt lat="49.57603" lon="3.68054">
        <ele>78.97</ele>
        <time>2021-08-08T16:32:48Z</time>
      </trkpt>
      <trkpt lat="49.57602" lon="3.68055">
        <ele>78.97</ele>
        <time>2021-08-08T16:33:00Z</time>
      </trkpt>
      <trkpt lat="49.57603" lon="3.68054">
        <ele>78.97</ele>
        <time>2021-08-08T16:33:11Z</time>
      </trkpt>
      <trkpt lat="49.57601" lon="3.68056">
        <ele>78.97</ele>
        <time>2021-08-08T16:33:17Z</time>
      </trkpt>
      <trkpt lat="49.57602" lon="3.68058">
        <ele>78.97</ele>
        <time>2021-08-08T16:33:18Z</time>
      </trkpt>
      <trkpt lat="49.57604" lon="3.68063">
        <ele>78.97</ele>
        <time>2021-08-08T16:33:21Z</time>
      </trkpt>
      <trkpt lat="49.57605" lon="3.68063">
        <ele>78.97</ele>
        <time>2021-08-08T16:33:22Z</time>
      </trkpt>
      <trkpt lat="49.57605" lon="3.68059">
        <ele>78.97</ele>
        <time>2021-08-08T16:33:24Z</time>
      </trkpt>
      <trkpt lat="49.57601" lon="3.6805">
        <ele>78.97</ele>
        <time>2021-08-08T16:33:30Z</time>
      </trkpt>
      <trkpt lat="49.57599" lon="3.6804">
        <ele>78.97</ele>
        <time>2021-08-08T16:33:35Z</time>
      </trkpt>
      <trkpt lat="49.57592" lon="3.68026">
        <ele>78.97</ele>
        <time>2021-08-08T16:33:44Z</time>
      </trkpt>
      <trkpt lat="49.57591" lon="3.68022">
        <ele>78.48</ele>
        <time>2021-08-08T16:33:46Z</time>
      </trkpt>
      <trkpt lat="49.57588" lon="3.68016">
        <ele>78.97</ele>
        <time>2021-08-08T16:33:50Z</time>
      </trkpt>
      <trkpt lat="49.57584" lon="3.68002">
        <ele>78.48</ele>
        <time>2021-08-08T16:33:58Z</time>
      </trkpt>
      <trkpt lat="49.57582" lon="3.67993">
        <ele>78.48</ele>
        <time>2021-08-08T16:34:04Z</time>
      </trkpt>
      <trkpt lat="49.57581" lon="3.67991">
        <ele>78.48</ele>
        <time>2021-08-08T16:34:08Z</time>
      </trkpt>
      <trkpt lat="49.57578" lon="3.67986">
        <ele>78.48</ele>
        <time>2021-08-08T16:34:12Z</time>
      </trkpt>
      <trkpt lat="49.57571" lon="3.67961">
        <ele>77.04</ele>
        <time>2021-08-08T16:34:18Z</time>
      </trkpt>
      <trkpt lat="49.57572" lon="3.67955">
        <ele>77.04</ele>
        <time>2021-08-08T16:34:19Z</time>
      </trkpt>
      <trkpt lat="49.57574" lon="3.6795">
        <ele>77.04</ele>
        <time>2021-08-08T16:34:20Z</time>
      </trkpt>
      <trkpt lat="49.57576" lon="3.67945">
        <ele>77.04</ele>
        <time>2021-08-08T16:34:21Z</time>
      </trkpt>
      <trkpt lat="49.57578" lon="3.67939">
        <ele>77.04</ele>
        <time>2021-08-08T16:34:22Z</time>
      </trkpt>
      <trkpt lat="49.5758" lon="3.67934">
        <ele>77.04</ele>
        <time>2021-08-08T16:34:23Z</time>
      </trkpt>
      <trkpt lat="49.57581" lon="3.67927">
        <ele>77.04</ele>
        <time>2021-08-08T16:34:24Z</time>
      </trkpt>
      <trkpt lat="49.57581" lon="3.6792">
        <ele>77.04</ele>
        <time>2021-08-08T16:34:25Z</time>
      </trkpt>
      <trkpt lat="49.57579" lon="3.67914">
        <ele>77.04</ele>
        <time>2021-08-08T16:34:26Z</time>
      </trkpt>
      <trkpt lat="49.57577" lon="3.67909">
        <ele>77.04</ele>
        <time>2021-08-08T16:34:27Z</time>
      </trkpt>
      <trkpt lat="49.57573" lon="3.67905">
        <ele>77.04</ele>
        <time>2021-08-08T16:34:28Z</time>
      </trkpt>
      <trkpt lat="49.57569" lon="3.67902">
        <ele>77.04</ele>
        <time>2021-08-08T16:34:29Z</time>
      </trkpt>
      <trkpt lat="49.57565" lon="3.679">
        <ele>77.04</ele>
        <time>2021-08-08T16:34:30Z</time>
      </trkpt>
      <trkpt lat="49.5756" lon="3.67898">
        <ele>77.04</ele>
        <time>2021-08-08T16:34:31Z</time>
      </trkpt>
      <trkpt lat="49.57552" lon="3.67894">
        <ele>76.56</ele>
        <time>2021-08-08T16:34:33Z</time>
      </trkpt>
      <trkpt lat="49.57548" lon="3.67891">
        <ele>76.56</ele>
        <time>2021-08-08T16:34:34Z</time>
      </trkpt>
      <trkpt lat="49.57544" lon="3.67885">
        <ele>76.56</ele>
        <time>2021-08-08T16:34:35Z</time>
      </trkpt>
      <trkpt lat="49.57541" lon="3.67878">
        <ele>76.56</ele>
        <time>2021-08-08T16:34:36Z</time>
      </trkpt>
      <trkpt lat="49.5754" lon="3.67872">
        <ele>76.56</ele>
        <time>2021-08-08T16:34:37Z</time>
      </trkpt>
      <trkpt lat="49.57538" lon="3.67866">
        <ele>76.56</ele>
        <time>2021-08-08T16:34:38Z</time>
      </trkpt>
      <trkpt lat="49.57524" lon="3.6782">
        <ele>78</ele>
        <time>2021-08-08T16:34:45Z</time>
      </trkpt>
      <trkpt lat="49.57506" lon="3.67763">
        <ele>78</ele>
        <time>2021-08-08T16:34:54Z</time>
      </trkpt>
      <trkpt lat="49.57482" lon="3.67698">
        <ele>78</ele>
        <time>2021-08-08T16:35:04Z</time>
      </trkpt>
      <trkpt lat="49.57453" lon="3.67624">
        <ele>78</ele>
        <time>2021-08-08T16:35:15Z</time>
      </trkpt>
      <trkpt lat="49.57416" lon="3.67532">
        <ele>78</ele>
        <time>2021-08-08T16:35:28Z</time>
      </trkpt>
      <trkpt lat="49.57385" lon="3.67456">
        <ele>78</ele>
        <time>2021-08-08T16:35:38Z</time>
      </trkpt>
      <trkpt lat="49.57351" lon="3.67363">
        <ele>76.56</ele>
        <time>2021-08-08T16:35:50Z</time>
      </trkpt>
      <trkpt lat="49.57327" lon="3.67278">
        <ele>76.56</ele>
        <time>2021-08-08T16:36:01Z</time>
      </trkpt>
      <trkpt lat="49.57308" lon="3.67199">
        <ele>76.56</ele>
        <time>2021-08-08T16:36:11Z</time>
      </trkpt>
      <trkpt lat="49.57294" lon="3.67131">
        <ele>78</ele>
        <time>2021-08-08T16:36:20Z</time>
      </trkpt>
      <trkpt lat="49.57281" lon="3.67072">
        <ele>76.56</ele>
        <time>2021-08-08T16:36:28Z</time>
      </trkpt>
      <trkpt lat="49.57267" lon="3.67013">
        <ele>76.56</ele>
        <time>2021-08-08T16:36:36Z</time>
      </trkpt>
      <trkpt lat="49.57261" lon="3.66984">
        <ele>78</ele>
        <time>2021-08-08T16:36:40Z</time>
      </trkpt>
      <trkpt lat="49.57249" lon="3.66929">
        <ele>78</ele>
        <time>2021-08-08T16:36:48Z</time>
      </trkpt>
      <trkpt lat="49.57228" lon="3.66838">
        <ele>78.97</ele>
        <time>2021-08-08T16:37:01Z</time>
      </trkpt>
      <trkpt lat="49.5721" lon="3.66755">
        <ele>79.45</ele>
        <time>2021-08-08T16:37:13Z</time>
      </trkpt>
      <trkpt lat="49.57196" lon="3.6669">
        <ele>80.41</ele>
        <time>2021-08-08T16:37:23Z</time>
      </trkpt>
      <trkpt lat="49.57178" lon="3.66609">
        <ele>80.41</ele>
        <time>2021-08-08T16:37:35Z</time>
      </trkpt>
      <trkpt lat="49.57159" lon="3.66527">
        <ele>79.93</ele>
        <time>2021-08-08T16:37:47Z</time>
      </trkpt>
      <trkpt lat="49.57145" lon="3.66459">
        <ele>81.37</ele>
        <time>2021-08-08T16:37:57Z</time>
      </trkpt>
      <trkpt lat="49.57144" lon="3.66451">
        <ele>81.37</ele>
        <time>2021-08-08T16:37:58Z</time>
      </trkpt>
      <trkpt lat="49.57142" lon="3.66414">
        <ele>80.89</ele>
        <time>2021-08-08T16:38:03Z</time>
      </trkpt>
      <trkpt lat="49.57143" lon="3.66407">
        <ele>80.89</ele>
        <time>2021-08-08T16:38:04Z</time>
      </trkpt>
      <trkpt lat="49.57146" lon="3.664">
        <ele>80.89</ele>
        <time>2021-08-08T16:38:05Z</time>
      </trkpt>
      <trkpt lat="49.57149" lon="3.66394">
        <ele>81.37</ele>
        <time>2021-08-08T16:38:06Z</time>
      </trkpt>
      <trkpt lat="49.57152" lon="3.66389">
        <ele>81.37</ele>
        <time>2021-08-08T16:38:07Z</time>
      </trkpt>
      <trkpt lat="49.57154" lon="3.66383">
        <ele>81.37</ele>
        <time>2021-08-08T16:38:08Z</time>
      </trkpt>
      <trkpt lat="49.57156" lon="3.66377">
        <ele>81.37</ele>
        <time>2021-08-08T16:38:09Z</time>
      </trkpt>
      <trkpt lat="49.57156" lon="3.66368">
        <ele>81.37</ele>
        <time>2021-08-08T16:38:10Z</time>
      </trkpt>
      <trkpt lat="49.57155" lon="3.66362">
        <ele>81.37</ele>
        <time>2021-08-08T16:38:11Z</time>
      </trkpt>
      <trkpt lat="49.57152" lon="3.66354">
        <ele>81.37</ele>
        <time>2021-08-08T16:38:12Z</time>
      </trkpt>
      <trkpt lat="49.57149" lon="3.66349">
        <ele>81.37</ele>
        <time>2021-08-08T16:38:13Z</time>
      </trkpt>
      <trkpt lat="49.57144" lon="3.66342">
        <ele>81.37</ele>
        <time>2021-08-08T16:38:14Z</time>
      </trkpt>
      <trkpt lat="49.57141" lon="3.66337">
        <ele>81.37</ele>
        <time>2021-08-08T16:38:15Z</time>
      </trkpt>
      <trkpt lat="49.57138" lon="3.66331">
        <ele>81.37</ele>
        <time>2021-08-08T16:38:16Z</time>
      </trkpt>
      <trkpt lat="49.57136" lon="3.66324">
        <ele>81.37</ele>
        <time>2021-08-08T16:38:17Z</time>
      </trkpt>
      <trkpt lat="49.57134" lon="3.66315">
        <ele>81.37</ele>
        <time>2021-08-08T16:38:18Z</time>
      </trkpt>
      <trkpt lat="49.57132" lon="3.66291">
        <ele>81.37</ele>
        <time>2021-08-08T16:38:21Z</time>
      </trkpt>
      <trkpt lat="49.57133" lon="3.66253">
        <ele>81.37</ele>
        <time>2021-08-08T16:38:26Z</time>
      </trkpt>
      <trkpt lat="49.57134" lon="3.66245">
        <ele>81.37</ele>
        <time>2021-08-08T16:38:27Z</time>
      </trkpt>
      <trkpt lat="49.57135" lon="3.66238">
        <ele>81.37</ele>
        <time>2021-08-08T16:38:28Z</time>
      </trkpt>
      <trkpt lat="49.57135" lon="3.66229">
        <ele>81.37</ele>
        <time>2021-08-08T16:38:29Z</time>
      </trkpt>
      <trkpt lat="49.57135" lon="3.66221">
        <ele>81.37</ele>
        <time>2021-08-08T16:38:30Z</time>
      </trkpt>
      <trkpt lat="49.57132" lon="3.66132">
        <ele>81.85</ele>
        <time>2021-08-08T16:38:41Z</time>
      </trkpt>
      <trkpt lat="49.57131" lon="3.66044">
        <ele>81.85</ele>
        <time>2021-08-08T16:38:52Z</time>
      </trkpt>
      <trkpt lat="49.57131" lon="3.66013">
        <ele>82.81</ele>
        <time>2021-08-08T16:38:56Z</time>
      </trkpt>
      <trkpt lat="49.57128" lon="3.65951">
        <ele>82.33</ele>
        <time>2021-08-08T16:39:04Z</time>
      </trkpt>
      <trkpt lat="49.57127" lon="3.65897">
        <ele>83.29</ele>
        <time>2021-08-08T16:39:11Z</time>
      </trkpt>
      <trkpt lat="49.57124" lon="3.65804">
        <ele>83.77</ele>
        <time>2021-08-08T16:39:22Z</time>
      </trkpt>
      <trkpt lat="49.57123" lon="3.65786">
        <ele>82.33</ele>
        <time>2021-08-08T16:39:24Z</time>
      </trkpt>
      <trkpt lat="49.5712" lon="3.65688">
        <ele>81.85</ele>
        <time>2021-08-08T16:39:35Z</time>
      </trkpt>
      <trkpt lat="49.57123" lon="3.65606">
        <ele>81.37</ele>
        <time>2021-08-08T16:39:44Z</time>
      </trkpt>
      <trkpt lat="49.57125" lon="3.65599">
        <ele>81.37</ele>
        <time>2021-08-08T16:39:45Z</time>
      </trkpt>
      <trkpt lat="49.57135" lon="3.65558">
        <ele>81.37</ele>
        <time>2021-08-08T16:39:50Z</time>
      </trkpt>
      <trkpt lat="49.57136" lon="3.6555">
        <ele>81.37</ele>
        <time>2021-08-08T16:39:51Z</time>
      </trkpt>
      <trkpt lat="49.57136" lon="3.65541">
        <ele>81.37</ele>
        <time>2021-08-08T16:39:52Z</time>
      </trkpt>
      <trkpt lat="49.57134" lon="3.65533">
        <ele>81.37</ele>
        <time>2021-08-08T16:39:53Z</time>
      </trkpt>
      <trkpt lat="49.57131" lon="3.65525">
        <ele>81.37</ele>
        <time>2021-08-08T16:39:54Z</time>
      </trkpt>
      <trkpt lat="49.57127" lon="3.65519">
        <ele>81.37</ele>
        <time>2021-08-08T16:39:55Z</time>
      </trkpt>
      <trkpt lat="49.57123" lon="3.65515">
        <ele>81.37</ele>
        <time>2021-08-08T16:39:56Z</time>
      </trkpt>
      <trkpt lat="49.57117" lon="3.65512">
        <ele>81.37</ele>
        <time>2021-08-08T16:39:57Z</time>
      </trkpt>
      <trkpt lat="49.57112" lon="3.65511">
        <ele>81.37</ele>
        <time>2021-08-08T16:39:58Z</time>
      </trkpt>
      <trkpt lat="49.57107" lon="3.65511">
        <ele>81.37</ele>
        <time>2021-08-08T16:39:59Z</time>
      </trkpt>
      <trkpt lat="49.57101" lon="3.65513">
        <ele>81.37</ele>
        <time>2021-08-08T16:40:00Z</time>
      </trkpt>
      <trkpt lat="49.57095" lon="3.65516">
        <ele>81.37</ele>
        <time>2021-08-08T16:40:01Z</time>
      </trkpt>
      <trkpt lat="49.5709" lon="3.65519">
        <ele>81.37</ele>
        <time>2021-08-08T16:40:02Z</time>
      </trkpt>
      <trkpt lat="49.57086" lon="3.65522">
        <ele>81.37</ele>
        <time>2021-08-08T16:40:03Z</time>
      </trkpt>
      <trkpt lat="49.57081" lon="3.65524">
        <ele>80.89</ele>
        <time>2021-08-08T16:40:04Z</time>
      </trkpt>
      <trkpt lat="49.57076" lon="3.65523">
        <ele>80.89</ele>
        <time>2021-08-08T16:40:05Z</time>
      </trkpt>
      <trkpt lat="49.57057" lon="3.65518">
        <ele>81.85</ele>
        <time>2021-08-08T16:40:09Z</time>
      </trkpt>
      <trkpt lat="49.57034" lon="3.65512">
        <ele>84.25</ele>
        <time>2021-08-08T16:40:15Z</time>
      </trkpt>
      <trkpt lat="49.57004" lon="3.65503">
        <ele>86.18</ele>
        <time>2021-08-08T16:40:23Z</time>
      </trkpt>
      <trkpt lat="49.56967" lon="3.6549">
        <ele>86.66</ele>
        <time>2021-08-08T16:40:32Z</time>
      </trkpt>
      <trkpt lat="49.56924" lon="3.65475">
        <ele>86.66</ele>
        <time>2021-08-08T16:40:41Z</time>
      </trkpt>
      <trkpt lat="49.56907" lon="3.65469">
        <ele>85.21</ele>
        <time>2021-08-08T16:40:44Z</time>
      </trkpt>
      <trkpt lat="49.56874" lon="3.65457">
        <ele>83.29</ele>
        <time>2021-08-08T16:40:49Z</time>
      </trkpt>
      <trkpt lat="49.56838" lon="3.65442">
        <ele>79.93</ele>
        <time>2021-08-08T16:40:54Z</time>
      </trkpt>
      <trkpt lat="49.56815" lon="3.65431">
        <ele>78</ele>
        <time>2021-08-08T16:40:57Z</time>
      </trkpt>
      <trkpt lat="49.56806" lon="3.65425">
        <ele>76.56</ele>
        <time>2021-08-08T16:40:58Z</time>
      </trkpt>
      <trkpt lat="49.568" lon="3.65418">
        <ele>76.56</ele>
        <time>2021-08-08T16:40:59Z</time>
      </trkpt>
      <trkpt lat="49.56795" lon="3.6541">
        <ele>76.08</ele>
        <time>2021-08-08T16:41:00Z</time>
      </trkpt>
      <trkpt lat="49.56791" lon="3.654">
        <ele>75.6</ele>
        <time>2021-08-08T16:41:01Z</time>
      </trkpt>
      <trkpt lat="49.56786" lon="3.65389">
        <ele>76.08</ele>
        <time>2021-08-08T16:41:02Z</time>
      </trkpt>
      <trkpt lat="49.56783" lon="3.6538">
        <ele>76.08</ele>
        <time>2021-08-08T16:41:03Z</time>
      </trkpt>
      <trkpt lat="49.5678" lon="3.65373">
        <ele>76.08</ele>
        <time>2021-08-08T16:41:04Z</time>
      </trkpt>
      <trkpt lat="49.56776" lon="3.65364">
        <ele>76.08</ele>
        <time>2021-08-08T16:41:05Z</time>
      </trkpt>
      <trkpt lat="49.56776" lon="3.65352">
        <ele>76.08</ele>
        <time>2021-08-08T16:41:06Z</time>
      </trkpt>
      <trkpt lat="49.56777" lon="3.65344">
        <ele>76.08</ele>
        <time>2021-08-08T16:41:07Z</time>
      </trkpt>
      <trkpt lat="49.56778" lon="3.65333">
        <ele>76.08</ele>
        <time>2021-08-08T16:41:08Z</time>
      </trkpt>
      <trkpt lat="49.56784" lon="3.65291">
        <ele>76.08</ele>
        <time>2021-08-08T16:41:12Z</time>
      </trkpt>
      <trkpt lat="49.56783" lon="3.65282">
        <ele>76.08</ele>
        <time>2021-08-08T16:41:13Z</time>
      </trkpt>
      <trkpt lat="49.56778" lon="3.6524">
        <ele>75.6</ele>
        <time>2021-08-08T16:41:18Z</time>
      </trkpt>
      <trkpt lat="49.56779" lon="3.6523">
        <ele>75.6</ele>
        <time>2021-08-08T16:41:19Z</time>
      </trkpt>
      <trkpt lat="49.56788" lon="3.65175">
        <ele>76.56</ele>
        <time>2021-08-08T16:41:26Z</time>
      </trkpt>
      <trkpt lat="49.56789" lon="3.6517">
        <ele>76.56</ele>
        <time>2021-08-08T16:41:27Z</time>
      </trkpt>
      <trkpt lat="49.56797" lon="3.65115">
        <ele>76.56</ele>
        <time>2021-08-08T16:41:35Z</time>
      </trkpt>
      <trkpt lat="49.56806" lon="3.65053">
        <ele>76.56</ele>
        <time>2021-08-08T16:41:44Z</time>
      </trkpt>
      <trkpt lat="49.56814" lon="3.65026">
        <ele>76.56</ele>
        <time>2021-08-08T16:41:50Z</time>
      </trkpt>
      <trkpt lat="49.56815" lon="3.64997">
        <ele>77.52</ele>
        <time>2021-08-08T16:41:57Z</time>
      </trkpt>
      <trkpt lat="49.56816" lon="3.64995">
        <ele>77.04</ele>
        <time>2021-08-08T16:42:01Z</time>
      </trkpt>
      <trkpt lat="49.56816" lon="3.64993">
        <ele>77.04</ele>
        <time>2021-08-08T16:42:11Z</time>
      </trkpt>
      <trkpt lat="49.56815" lon="3.64991">
        <ele>77.04</ele>
        <time>2021-08-08T16:42:12Z</time>
      </trkpt>
      <trkpt lat="49.56815" lon="3.64989">
        <ele>77.04</ele>
        <time>2021-08-08T16:42:13Z</time>
      </trkpt>
      <trkpt lat="49.56815" lon="3.64986">
        <ele>77.04</ele>
        <time>2021-08-08T16:42:14Z</time>
      </trkpt>
      <trkpt lat="49.56816" lon="3.64983">
        <ele>77.04</ele>
        <time>2021-08-08T16:42:15Z</time>
      </trkpt>
      <trkpt lat="49.56821" lon="3.64954">
        <ele>77.04</ele>
        <time>2021-08-08T16:42:22Z</time>
      </trkpt>
      <trkpt lat="49.56827" lon="3.64898">
        <ele>77.04</ele>
        <time>2021-08-08T16:42:31Z</time>
      </trkpt>
      <trkpt lat="49.56832" lon="3.64861">
        <ele>77.04</ele>
        <time>2021-08-08T16:42:37Z</time>
      </trkpt>
      <trkpt lat="49.56839" lon="3.64817">
        <ele>78</ele>
        <time>2021-08-08T16:42:44Z</time>
      </trkpt>
      <trkpt lat="49.56845" lon="3.64762">
        <ele>78</ele>
        <time>2021-08-08T16:42:52Z</time>
      </trkpt>
      <trkpt lat="49.56846" lon="3.64746">
        <ele>78</ele>
        <time>2021-08-08T16:42:54Z</time>
      </trkpt>
      <trkpt lat="49.56845" lon="3.64739">
        <ele>78</ele>
        <time>2021-08-08T16:42:55Z</time>
      </trkpt>
      <trkpt lat="49.56843" lon="3.64733">
        <ele>78</ele>
        <time>2021-08-08T16:42:56Z</time>
      </trkpt>
      <trkpt lat="49.56839" lon="3.64702">
        <ele>78.48</ele>
        <time>2021-08-08T16:43:01Z</time>
      </trkpt>
      <trkpt lat="49.56836" lon="3.64676">
        <ele>78.97</ele>
        <time>2021-08-08T16:43:06Z</time>
      </trkpt>
      <trkpt lat="49.56835" lon="3.64669">
        <ele>78.97</ele>
        <time>2021-08-08T16:43:08Z</time>
      </trkpt>
      <trkpt lat="49.56834" lon="3.64666">
        <ele>78.97</ele>
        <time>2021-08-08T16:43:09Z</time>
      </trkpt>
      <trkpt lat="49.56832" lon="3.64663">
        <ele>78.97</ele>
        <time>2021-08-08T16:43:10Z</time>
      </trkpt>
      <trkpt lat="49.56831" lon="3.6466">
        <ele>78.97</ele>
        <time>2021-08-08T16:43:11Z</time>
      </trkpt>
      <trkpt lat="49.5683" lon="3.64658">
        <ele>78.97</ele>
        <time>2021-08-08T16:43:12Z</time>
      </trkpt>
      <trkpt lat="49.56829" lon="3.64655">
        <ele>78.97</ele>
        <time>2021-08-08T16:43:13Z</time>
      </trkpt>
      <trkpt lat="49.56817" lon="3.64632">
        <ele>79.45</ele>
        <time>2021-08-08T16:43:20Z</time>
      </trkpt>
      <trkpt lat="49.56818" lon="3.6463">
        <ele>79.45</ele>
        <time>2021-08-08T16:43:21Z</time>
      </trkpt>
      <trkpt lat="49.5682" lon="3.64627">
        <ele>79.45</ele>
        <time>2021-08-08T16:43:22Z</time>
      </trkpt>
      <trkpt lat="49.56833" lon="3.64617">
        <ele>79.45</ele>
        <time>2021-08-08T16:43:27Z</time>
      </trkpt>
      <trkpt lat="49.56834" lon="3.64615">
        <ele>79.45</ele>
        <time>2021-08-08T16:43:28Z</time>
      </trkpt>
      <trkpt lat="49.56835" lon="3.64613">
        <ele>79.45</ele>
        <time>2021-08-08T16:43:29Z</time>
      </trkpt>
      <trkpt lat="49.56835" lon="3.64609">
        <ele>79.45</ele>
        <time>2021-08-08T16:43:30Z</time>
      </trkpt>
      <trkpt lat="49.56836" lon="3.64604">
        <ele>79.45</ele>
        <time>2021-08-08T16:43:31Z</time>
      </trkpt>
      <trkpt lat="49.56836" lon="3.64597">
        <ele>79.45</ele>
        <time>2021-08-08T16:43:32Z</time>
      </trkpt>
      <trkpt lat="49.56836" lon="3.64589">
        <ele>79.45</ele>
        <time>2021-08-08T16:43:33Z</time>
      </trkpt>
      <trkpt lat="49.56835" lon="3.64582">
        <ele>79.45</ele>
        <time>2021-08-08T16:43:34Z</time>
      </trkpt>
      <trkpt lat="49.56827" lon="3.64514">
        <ele>79.93</ele>
        <time>2021-08-08T16:43:43Z</time>
      </trkpt>
      <trkpt lat="49.56821" lon="3.64456">
        <ele>80.89</ele>
        <time>2021-08-08T16:43:51Z</time>
      </trkpt>
      <trkpt lat="49.5682" lon="3.64448">
        <ele>80.89</ele>
        <time>2021-08-08T16:43:52Z</time>
      </trkpt>
      <trkpt lat="49.56817" lon="3.6442">
        <ele>81.37</ele>
        <time>2021-08-08T16:43:56Z</time>
      </trkpt>
      <trkpt lat="49.56812" lon="3.64353">
        <ele>81.85</ele>
        <time>2021-08-08T16:44:06Z</time>
      </trkpt>
      <trkpt lat="49.56809" lon="3.64322">
        <ele>81.85</ele>
        <time>2021-08-08T16:44:11Z</time>
      </trkpt>
      <trkpt lat="49.56808" lon="3.64316">
        <ele>81.85</ele>
        <time>2021-08-08T16:44:12Z</time>
      </trkpt>
      <trkpt lat="49.56807" lon="3.64303">
        <ele>81.85</ele>
        <time>2021-08-08T16:44:14Z</time>
      </trkpt>
      <trkpt lat="49.56801" lon="3.64244">
        <ele>81.37</ele>
        <time>2021-08-08T16:44:23Z</time>
      </trkpt>
      <trkpt lat="49.56795" lon="3.64166">
        <ele>80.89</ele>
        <time>2021-08-08T16:44:34Z</time>
      </trkpt>
      <trkpt lat="49.56789" lon="3.64082">
        <ele>80.89</ele>
        <time>2021-08-08T16:44:46Z</time>
      </trkpt>
      <trkpt lat="49.56788" lon="3.64075">
        <ele>80.89</ele>
        <time>2021-08-08T16:44:47Z</time>
      </trkpt>
      <trkpt lat="49.56784" lon="3.64035">
        <ele>79.93</ele>
        <time>2021-08-08T16:44:53Z</time>
      </trkpt>
      <trkpt lat="49.56777" lon="3.63971">
        <ele>79.93</ele>
        <time>2021-08-08T16:45:02Z</time>
      </trkpt>
      <trkpt lat="49.56771" lon="3.63909">
        <ele>79.45</ele>
        <time>2021-08-08T16:45:11Z</time>
      </trkpt>
      <trkpt lat="49.56762" lon="3.63825">
        <ele>79.45</ele>
        <time>2021-08-08T16:45:23Z</time>
      </trkpt>
      <trkpt lat="49.56755" lon="3.63768">
        <ele>79.45</ele>
        <time>2021-08-08T16:45:31Z</time>
      </trkpt>
      <trkpt lat="49.56749" lon="3.63729">
        <ele>80.89</ele>
        <time>2021-08-08T16:45:37Z</time>
      </trkpt>
      <trkpt lat="49.56741" lon="3.63686">
        <ele>82.33</ele>
        <time>2021-08-08T16:45:46Z</time>
      </trkpt>
      <trkpt lat="49.5674" lon="3.63659">
        <ele>84.73</ele>
        <time>2021-08-08T16:45:53Z</time>
      </trkpt>
      <trkpt lat="49.56745" lon="3.63625">
        <ele>84.73</ele>
        <time>2021-08-08T16:46:01Z</time>
      </trkpt>
      <trkpt lat="49.56744" lon="3.63607">
        <ele>85.21</ele>
        <time>2021-08-08T16:46:06Z</time>
      </trkpt>
      <trkpt lat="49.56741" lon="3.63605">
        <ele>85.21</ele>
        <time>2021-08-08T16:46:07Z</time>
      </trkpt>
      <trkpt lat="49.56738" lon="3.63603">
        <ele>85.21</ele>
        <time>2021-08-08T16:46:08Z</time>
      </trkpt>
      <trkpt lat="49.56709" lon="3.63603">
        <ele>85.21</ele>
        <time>2021-08-08T16:46:16Z</time>
      </trkpt>
      <trkpt lat="49.56668" lon="3.63606">
        <ele>84.25</ele>
        <time>2021-08-08T16:46:25Z</time>
      </trkpt>
      <trkpt lat="49.56617" lon="3.63609">
        <ele>84.73</ele>
        <time>2021-08-08T16:46:36Z</time>
      </trkpt>
      <trkpt lat="49.56584" lon="3.63607">
        <ele>85.69</ele>
        <time>2021-08-08T16:46:45Z</time>
      </trkpt>
      <trkpt lat="49.56559" lon="3.63599">
        <ele>87.62</ele>
        <time>2021-08-08T16:46:55Z</time>
      </trkpt>
      <trkpt lat="49.56539" lon="3.63586">
        <ele>89.06</ele>
        <time>2021-08-08T16:47:04Z</time>
      </trkpt>
      <trkpt lat="49.56532" lon="3.63571">
        <ele>90.5</ele>
        <time>2021-08-08T16:47:10Z</time>
      </trkpt>
      <trkpt lat="49.56532" lon="3.63552">
        <ele>90.98</ele>
        <time>2021-08-08T16:47:16Z</time>
      </trkpt>
      <trkpt lat="49.56537" lon="3.63543">
        <ele>91.46</ele>
        <time>2021-08-08T16:47:20Z</time>
      </trkpt>
      <trkpt lat="49.56537" lon="3.6354">
        <ele>91.46</ele>
        <time>2021-08-08T16:47:21Z</time>
      </trkpt>
      <trkpt lat="49.56537" lon="3.63536">
        <ele>91.46</ele>
        <time>2021-08-08T16:47:22Z</time>
      </trkpt>
      <trkpt lat="49.56536" lon="3.63534">
        <ele>91.46</ele>
        <time>2021-08-08T16:47:23Z</time>
      </trkpt>
      <trkpt lat="49.56536" lon="3.63531">
        <ele>91.46</ele>
        <time>2021-08-08T16:47:24Z</time>
      </trkpt>
      <trkpt lat="49.56529" lon="3.63506">
        <ele>92.42</ele>
        <time>2021-08-08T16:47:34Z</time>
      </trkpt>
      <trkpt lat="49.56525" lon="3.6349">
        <ele>93.39</ele>
        <time>2021-08-08T16:47:41Z</time>
      </trkpt>
      <trkpt lat="49.56524" lon="3.63489">
        <ele>93.39</ele>
        <time>2021-08-08T16:47:42Z</time>
      </trkpt>
      <trkpt lat="49.56523" lon="3.63487">
        <ele>93.39</ele>
        <time>2021-08-08T16:47:43Z</time>
      </trkpt>
      <trkpt lat="49.56523" lon="3.63484">
        <ele>93.87</ele>
        <time>2021-08-08T16:47:44Z</time>
      </trkpt>
      <trkpt lat="49.56522" lon="3.63482">
        <ele>93.87</ele>
        <time>2021-08-08T16:47:45Z</time>
      </trkpt>
      <trkpt lat="49.56522" lon="3.6348">
        <ele>93.87</ele>
        <time>2021-08-08T16:47:46Z</time>
      </trkpt>
      <trkpt lat="49.56521" lon="3.63477">
        <ele>94.83</ele>
        <time>2021-08-08T16:47:47Z</time>
      </trkpt>
      <trkpt lat="49.56521" lon="3.63475">
        <ele>94.83</ele>
        <time>2021-08-08T16:47:48Z</time>
      </trkpt>
      <trkpt lat="49.5652" lon="3.63473">
        <ele>94.83</ele>
        <time>2021-08-08T16:47:49Z</time>
      </trkpt>
      <trkpt lat="49.56519" lon="3.63471">
        <ele>95.31</ele>
        <time>2021-08-08T16:47:50Z</time>
      </trkpt>
      <trkpt lat="49.56519" lon="3.63468">
        <ele>95.31</ele>
        <time>2021-08-08T16:47:51Z</time>
      </trkpt>
      <trkpt lat="49.56518" lon="3.63466">
        <ele>96.27</ele>
        <time>2021-08-08T16:47:52Z</time>
      </trkpt>
      <trkpt lat="49.56517" lon="3.63464">
        <ele>96.27</ele>
        <time>2021-08-08T16:47:53Z</time>
      </trkpt>
      <trkpt lat="49.56517" lon="3.63461">
        <ele>96.75</ele>
        <time>2021-08-08T16:47:54Z</time>
      </trkpt>
      <trkpt lat="49.56514" lon="3.63452">
        <ele>97.71</ele>
        <time>2021-08-08T16:47:59Z</time>
      </trkpt>
      <trkpt lat="49.56513" lon="3.6345">
        <ele>97.71</ele>
        <time>2021-08-08T16:48:00Z</time>
      </trkpt>
      <trkpt lat="49.56513" lon="3.63448">
        <ele>97.71</ele>
        <time>2021-08-08T16:48:01Z</time>
      </trkpt>
      <trkpt lat="49.56513" lon="3.63447">
        <ele>98.19</ele>
        <time>2021-08-08T16:48:02Z</time>
      </trkpt>
      <trkpt lat="49.56512" lon="3.63445">
        <ele>98.19</ele>
        <time>2021-08-08T16:48:03Z</time>
      </trkpt>
      <trkpt lat="49.56511" lon="3.63443">
        <ele>98.67</ele>
        <time>2021-08-08T16:48:04Z</time>
      </trkpt>
      <trkpt lat="49.56511" lon="3.63441">
        <ele>98.67</ele>
        <time>2021-08-08T16:48:05Z</time>
      </trkpt>
      <trkpt lat="49.5651" lon="3.6344">
        <ele>98.67</ele>
        <time>2021-08-08T16:48:06Z</time>
      </trkpt>
      <trkpt lat="49.56509" lon="3.63438">
        <ele>99.63</ele>
        <time>2021-08-08T16:48:07Z</time>
      </trkpt>
      <trkpt lat="49.56509" lon="3.63436">
        <ele>99.63</ele>
        <time>2021-08-08T16:48:08Z</time>
      </trkpt>
      <trkpt lat="49.56508" lon="3.63435">
        <ele>99.63</ele>
        <time>2021-08-08T16:48:09Z</time>
      </trkpt>
      <trkpt lat="49.56505" lon="3.6342">
        <ele>102.52</ele>
        <time>2021-08-08T16:48:17Z</time>
      </trkpt>
      <trkpt lat="49.56503" lon="3.63402">
        <ele>104.92</ele>
        <time>2021-08-08T16:48:26Z</time>
      </trkpt>
      <trkpt lat="49.56504" lon="3.63388">
        <ele>106.36</ele>
        <time>2021-08-08T16:48:33Z</time>
      </trkpt>
      <trkpt lat="49.56502" lon="3.63371">
        <ele>108.29</ele>
        <time>2021-08-08T16:48:42Z</time>
      </trkpt>
      <trkpt lat="49.56502" lon="3.63365">
        <ele>108.29</ele>
        <time>2021-08-08T16:48:45Z</time>
      </trkpt>
      <trkpt lat="49.56501" lon="3.63351">
        <ele>111.17</ele>
        <time>2021-08-08T16:48:54Z</time>
      </trkpt>
      <trkpt lat="49.56501" lon="3.63341">
        <ele>113.57</ele>
        <time>2021-08-08T16:49:03Z</time>
      </trkpt>
      <trkpt lat="49.56503" lon="3.63338">
        <ele>114.05</ele>
        <time>2021-08-08T16:49:05Z</time>
      </trkpt>
      <trkpt lat="49.5651" lon="3.63326">
        <ele>115.5</ele>
        <time>2021-08-08T16:49:13Z</time>
      </trkpt>
      <trkpt lat="49.56517" lon="3.63324">
        <ele>117.42</ele>
        <time>2021-08-08T16:49:20Z</time>
      </trkpt>
      <trkpt lat="49.56528" lon="3.63325">
        <ele>119.34</ele>
        <time>2021-08-08T16:49:29Z</time>
      </trkpt>
      <trkpt lat="49.56528" lon="3.6332">
        <ele>120.3</ele>
        <time>2021-08-08T16:49:34Z</time>
      </trkpt>
      <trkpt lat="49.56527" lon="3.63317">
        <ele>120.78</ele>
        <time>2021-08-08T16:49:36Z</time>
      </trkpt>
      <trkpt lat="49.56523" lon="3.63311">
        <ele>122.22</ele>
        <time>2021-08-08T16:49:44Z</time>
      </trkpt>
      <trkpt lat="49.5652" lon="3.63305">
        <ele>124.63</ele>
        <time>2021-08-08T16:49:52Z</time>
      </trkpt>
      <trkpt lat="49.56512" lon="3.63298">
        <ele>126.07</ele>
        <time>2021-08-08T16:49:59Z</time>
      </trkpt>
      <trkpt lat="49.56505" lon="3.63293">
        <ele>127.51</ele>
        <time>2021-08-08T16:50:07Z</time>
      </trkpt>
      <trkpt lat="49.56497" lon="3.63287">
        <ele>129.43</ele>
        <time>2021-08-08T16:50:15Z</time>
      </trkpt>
      <trkpt lat="49.56489" lon="3.63282">
        <ele>131.36</ele>
        <time>2021-08-08T16:50:22Z</time>
      </trkpt>
      <trkpt lat="49.56487" lon="3.63281">
        <ele>132.32</ele>
        <time>2021-08-08T16:50:24Z</time>
      </trkpt>
      <trkpt lat="49.56473" lon="3.63276">
        <ele>134.72</ele>
        <time>2021-08-08T16:50:34Z</time>
      </trkpt>
      <trkpt lat="49.56469" lon="3.63273">
        <ele>135.2</ele>
        <time>2021-08-08T16:50:37Z</time>
      </trkpt>
      <trkpt lat="49.56467" lon="3.63271">
        <ele>135.68</ele>
        <time>2021-08-08T16:50:38Z</time>
      </trkpt>
      <trkpt lat="49.56458" lon="3.63264">
        <ele>138.09</ele>
        <time>2021-08-08T16:50:45Z</time>
      </trkpt>
      <trkpt lat="49.56445" lon="3.63256">
        <ele>140.01</ele>
        <time>2021-08-08T16:50:54Z</time>
      </trkpt>
      <trkpt lat="49.56434" lon="3.63249">
        <ele>142.41</ele>
        <time>2021-08-08T16:51:02Z</time>
      </trkpt>
      <trkpt lat="49.56415" lon="3.63242">
        <ele>145.3</ele>
        <time>2021-08-08T16:51:14Z</time>
      </trkpt>
      <trkpt lat="49.56402" lon="3.63242">
        <ele>145.78</ele>
        <time>2021-08-08T16:51:22Z</time>
      </trkpt>
      <trkpt lat="49.56399" lon="3.63242">
        <ele>146.26</ele>
        <time>2021-08-08T16:51:24Z</time>
      </trkpt>
      <trkpt lat="49.56386" lon="3.63242">
        <ele>146.26</ele>
        <time>2021-08-08T16:51:31Z</time>
      </trkpt>
      <trkpt lat="49.56383" lon="3.6324">
        <ele>146.74</ele>
        <time>2021-08-08T16:51:34Z</time>
      </trkpt>
      <trkpt lat="49.56376" lon="3.63228">
        <ele>148.18</ele>
        <time>2021-08-08T16:51:40Z</time>
      </trkpt>
      <trkpt lat="49.56374" lon="3.63208">
        <ele>150.58</ele>
        <time>2021-08-08T16:51:50Z</time>
      </trkpt>
      <trkpt lat="49.56373" lon="3.63193">
        <ele>152.99</ele>
        <time>2021-08-08T16:51:58Z</time>
      </trkpt>
      <trkpt lat="49.56371" lon="3.63176">
        <ele>155.39</ele>
        <time>2021-08-08T16:52:07Z</time>
      </trkpt>
      <trkpt lat="49.5637" lon="3.63164">
        <ele>157.79</ele>
        <time>2021-08-08T16:52:14Z</time>
      </trkpt>
      <trkpt lat="49.5637" lon="3.63153">
        <ele>158.75</ele>
        <time>2021-08-08T16:52:19Z</time>
      </trkpt>
      <trkpt lat="49.56368" lon="3.63132">
        <ele>159.24</ele>
        <time>2021-08-08T16:52:28Z</time>
      </trkpt>
      <trkpt lat="49.56368" lon="3.63131">
        <ele>159.72</ele>
        <time>2021-08-08T16:52:29Z</time>
      </trkpt>
      <trkpt lat="49.56366" lon="3.63113">
        <ele>161.64</ele>
        <time>2021-08-08T16:52:38Z</time>
      </trkpt>
      <trkpt lat="49.56365" lon="3.63101">
        <ele>163.08</ele>
        <time>2021-08-08T16:52:44Z</time>
      </trkpt>
      <trkpt lat="49.56363" lon="3.63085">
        <ele>165</ele>
        <time>2021-08-08T16:52:52Z</time>
      </trkpt>
      <trkpt lat="49.56362" lon="3.6308">
        <ele>165.48</ele>
        <time>2021-08-08T16:52:55Z</time>
      </trkpt>
      <trkpt lat="49.56357" lon="3.63062">
        <ele>166.45</ele>
        <time>2021-08-08T16:53:03Z</time>
      </trkpt>
      <trkpt lat="49.56344" lon="3.6303">
        <ele>166.45</ele>
        <time>2021-08-08T16:53:13Z</time>
      </trkpt>
      <trkpt lat="49.56335" lon="3.63009">
        <ele>167.89</ele>
        <time>2021-08-08T16:53:20Z</time>
      </trkpt>
      <trkpt lat="49.56333" lon="3.63003">
        <ele>168.37</ele>
        <time>2021-08-08T16:53:22Z</time>
      </trkpt>
      <trkpt lat="49.56333" lon="3.63">
        <ele>168.37</ele>
        <time>2021-08-08T16:53:23Z</time>
      </trkpt>
      <trkpt lat="49.56334" lon="3.62997">
        <ele>168.85</ele>
        <time>2021-08-08T16:53:24Z</time>
      </trkpt>
      <trkpt lat="49.56336" lon="3.62995">
        <ele>168.85</ele>
        <time>2021-08-08T16:53:25Z</time>
      </trkpt>
      <trkpt lat="49.56337" lon="3.62993">
        <ele>168.85</ele>
        <time>2021-08-08T16:53:26Z</time>
      </trkpt>
      <trkpt lat="49.56339" lon="3.62992">
        <ele>169.33</ele>
        <time>2021-08-08T16:53:27Z</time>
      </trkpt>
      <trkpt lat="49.5634" lon="3.62991">
        <ele>169.33</ele>
        <time>2021-08-08T16:53:28Z</time>
      </trkpt>
      <trkpt lat="49.56352" lon="3.6299">
        <ele>170.29</ele>
        <time>2021-08-08T16:53:34Z</time>
      </trkpt>
      <trkpt lat="49.56353" lon="3.62991">
        <ele>170.29</ele>
        <time>2021-08-08T16:53:35Z</time>
      </trkpt>
      <trkpt lat="49.56354" lon="3.62993">
        <ele>170.29</ele>
        <time>2021-08-08T16:53:36Z</time>
      </trkpt>
      <trkpt lat="49.56354" lon="3.62995">
        <ele>170.29</ele>
        <time>2021-08-08T16:53:37Z</time>
      </trkpt>
      <trkpt lat="49.56355" lon="3.62998">
        <ele>170.29</ele>
        <time>2021-08-08T16:53:38Z</time>
      </trkpt>
      <trkpt lat="49.56356" lon="3.63002">
        <ele>170.29</ele>
        <time>2021-08-08T16:53:39Z</time>
      </trkpt>
      <trkpt lat="49.56365" lon="3.63027">
        <ele>168.85</ele>
        <time>2021-08-08T16:53:44Z</time>
      </trkpt>
      <trkpt lat="49.56381" lon="3.63084">
        <ele>165.96</ele>
        <time>2021-08-08T16:53:51Z</time>
      </trkpt>
      <trkpt lat="49.56397" lon="3.63158">
        <ele>163.08</ele>
        <time>2021-08-08T16:53:58Z</time>
      </trkpt>
      <trkpt lat="49.56407" lon="3.6319">
        <ele>163.08</ele>
        <time>2021-08-08T16:54:02Z</time>
      </trkpt>
      <trkpt lat="49.56411" lon="3.63193">
        <ele>163.08</ele>
        <time>2021-08-08T16:54:03Z</time>
      </trkpt>
      <trkpt lat="49.56414" lon="3.63194">
        <ele>162.6</ele>
        <time>2021-08-08T16:54:04Z</time>
      </trkpt>
      <trkpt lat="49.56443" lon="3.632">
        <ele>162.6</ele>
        <time>2021-08-08T16:54:11Z</time>
      </trkpt>
      <trkpt lat="49.56456" lon="3.63204">
        <ele>162.6</ele>
        <time>2021-08-08T16:54:14Z</time>
      </trkpt>
      <trkpt lat="49.56465" lon="3.63206">
        <ele>162.6</ele>
        <time>2021-08-08T16:54:16Z</time>
      </trkpt>
      <trkpt lat="49.56488" lon="3.63214">
        <ele>162.6</ele>
        <time>2021-08-08T16:54:23Z</time>
      </trkpt>
      <trkpt lat="49.56501" lon="3.6322">
        <ele>163.08</ele>
        <time>2021-08-08T16:54:31Z</time>
      </trkpt>
      <trkpt lat="49.56518" lon="3.63211">
        <ele>162.6</ele>
        <time>2021-08-08T16:54:40Z</time>
      </trkpt>
      <trkpt lat="49.56521" lon="3.63209">
        <ele>162.6</ele>
        <time>2021-08-08T16:54:42Z</time>
      </trkpt>
      <trkpt lat="49.56523" lon="3.63208">
        <ele>162.6</ele>
        <time>2021-08-08T16:54:43Z</time>
      </trkpt>
      <trkpt lat="49.56532" lon="3.63203">
        <ele>164.04</ele>
        <time>2021-08-08T16:54:50Z</time>
      </trkpt>
      <trkpt lat="49.56533" lon="3.63202">
        <ele>164.04</ele>
        <time>2021-08-08T16:55:00Z</time>
      </trkpt>
      <trkpt lat="49.56533" lon="3.63203">
        <ele>164.52</ele>
        <time>2021-08-08T16:55:15Z</time>
      </trkpt>
      <trkpt lat="49.56534" lon="3.63202">
        <ele>164.52</ele>
        <time>2021-08-08T16:55:16Z</time>
      </trkpt>
      <trkpt lat="49.56544" lon="3.63193">
        <ele>164.52</ele>
        <time>2021-08-08T16:55:23Z</time>
      </trkpt>
      <trkpt lat="49.5656" lon="3.63184">
        <ele>164.52</ele>
        <time>2021-08-08T16:55:31Z</time>
      </trkpt>
      <trkpt lat="49.56583" lon="3.63175">
        <ele>165</ele>
        <time>2021-08-08T16:55:39Z</time>
      </trkpt>
      <trkpt lat="49.56587" lon="3.63166">
        <ele>165</ele>
        <time>2021-08-08T16:55:41Z</time>
      </trkpt>
      <trkpt lat="49.56587" lon="3.63162">
        <ele>165</ele>
        <time>2021-08-08T16:55:42Z</time>
      </trkpt>
      <trkpt lat="49.56586" lon="3.63157">
        <ele>165</ele>
        <time>2021-08-08T16:55:43Z</time>
      </trkpt>
      <trkpt lat="49.56584" lon="3.63152">
        <ele>165</ele>
        <time>2021-08-08T16:55:44Z</time>
      </trkpt>
      <trkpt lat="49.56583" lon="3.63149">
        <ele>165</ele>
        <time>2021-08-08T16:55:45Z</time>
      </trkpt>
      <trkpt lat="49.56571" lon="3.63115">
        <ele>165.96</ele>
        <time>2021-08-08T16:55:53Z</time>
      </trkpt>
      <trkpt lat="49.5656" lon="3.63082">
        <ele>166.93</ele>
        <time>2021-08-08T16:56:01Z</time>
      </trkpt>
      <trkpt lat="49.56552" lon="3.63045">
        <ele>167.41</ele>
        <time>2021-08-08T16:56:09Z</time>
      </trkpt>
      <trkpt lat="49.56545" lon="3.63013">
        <ele>167.89</ele>
        <time>2021-08-08T16:56:16Z</time>
      </trkpt>
      <trkpt lat="49.56535" lon="3.62974">
        <ele>168.85</ele>
        <time>2021-08-08T16:56:24Z</time>
      </trkpt>
      <trkpt lat="49.56526" lon="3.62941">
        <ele>168.85</ele>
        <time>2021-08-08T16:56:31Z</time>
      </trkpt>
      <trkpt lat="49.56519" lon="3.62905">
        <ele>170.29</ele>
        <time>2021-08-08T16:56:37Z</time>
      </trkpt>
      <trkpt lat="49.56508" lon="3.62871">
        <ele>170.77</ele>
        <time>2021-08-08T16:56:44Z</time>
      </trkpt>
      <trkpt lat="49.56505" lon="3.62863">
        <ele>171.73</ele>
        <time>2021-08-08T16:56:46Z</time>
      </trkpt>
      <trkpt lat="49.56502" lon="3.62856">
        <ele>171.73</ele>
        <time>2021-08-08T16:56:48Z</time>
      </trkpt>
      <trkpt lat="49.56501" lon="3.6283">
        <ele>172.21</ele>
        <time>2021-08-08T16:56:55Z</time>
      </trkpt>
      <trkpt lat="49.56493" lon="3.62819">
        <ele>174.14</ele>
        <time>2021-08-08T16:57:02Z</time>
      </trkpt>
      <trkpt lat="49.56493" lon="3.62815">
        <ele>173.66</ele>
        <time>2021-08-08T16:57:03Z</time>
      </trkpt>
      <trkpt lat="49.56492" lon="3.62812">
        <ele>174.14</ele>
        <time>2021-08-08T16:57:04Z</time>
      </trkpt>
      <trkpt lat="49.56488" lon="3.62771">
        <ele>173.66</ele>
        <time>2021-08-08T16:57:12Z</time>
      </trkpt>
      <trkpt lat="49.5648" lon="3.62711">
        <ele>173.66</ele>
        <time>2021-08-08T16:57:22Z</time>
      </trkpt>
      <trkpt lat="49.56482" lon="3.62665">
        <ele>174.14</ele>
        <time>2021-08-08T16:57:30Z</time>
      </trkpt>
      <trkpt lat="49.56488" lon="3.62628">
        <ele>174.62</ele>
        <time>2021-08-08T16:57:38Z</time>
      </trkpt>
      <trkpt lat="49.56489" lon="3.62627">
        <ele>174.62</ele>
        <time>2021-08-08T16:57:39Z</time>
      </trkpt>
      <trkpt lat="49.56489" lon="3.62625">
        <ele>174.62</ele>
        <time>2021-08-08T16:57:40Z</time>
      </trkpt>
      <trkpt lat="49.56494" lon="3.62603">
        <ele>174.62</ele>
        <time>2021-08-08T16:57:46Z</time>
      </trkpt>
      <trkpt lat="49.56498" lon="3.62583">
        <ele>175.1</ele>
        <time>2021-08-08T16:57:51Z</time>
      </trkpt>
      <trkpt lat="49.56502" lon="3.62566">
        <ele>175.1</ele>
        <time>2021-08-08T16:57:54Z</time>
      </trkpt>
      <trkpt lat="49.56517" lon="3.62509">
        <ele>176.06</ele>
        <time>2021-08-08T16:58:03Z</time>
      </trkpt>
      <trkpt lat="49.56533" lon="3.62444">
        <ele>176.06</ele>
        <time>2021-08-08T16:58:13Z</time>
      </trkpt>
      <trkpt lat="49.56551" lon="3.62378">
        <ele>177.02</ele>
        <time>2021-08-08T16:58:23Z</time>
      </trkpt>
      <trkpt lat="49.56553" lon="3.62366">
        <ele>177.02</ele>
        <time>2021-08-08T16:58:25Z</time>
      </trkpt>
      <trkpt lat="49.56562" lon="3.6231">
        <ele>177.02</ele>
        <time>2021-08-08T16:58:35Z</time>
      </trkpt>
      <trkpt lat="49.56566" lon="3.62273">
        <ele>177.5</ele>
        <time>2021-08-08T16:58:43Z</time>
      </trkpt>
      <trkpt lat="49.56565" lon="3.62248">
        <ele>177.5</ele>
        <time>2021-08-08T16:58:48Z</time>
      </trkpt>
      <trkpt lat="49.56564" lon="3.62241">
        <ele>177.5</ele>
        <time>2021-08-08T16:58:49Z</time>
      </trkpt>
      <trkpt lat="49.56563" lon="3.62235">
        <ele>176.06</ele>
        <time>2021-08-08T16:58:50Z</time>
      </trkpt>
      <trkpt lat="49.56561" lon="3.62228">
        <ele>176.06</ele>
        <time>2021-08-08T16:58:51Z</time>
      </trkpt>
      <trkpt lat="49.56544" lon="3.62163">
        <ele>175.58</ele>
        <time>2021-08-08T16:59:00Z</time>
      </trkpt>
      <trkpt lat="49.56538" lon="3.62145">
        <ele>177.5</ele>
        <time>2021-08-08T16:59:05Z</time>
      </trkpt>
      <trkpt lat="49.5653" lon="3.62118">
        <ele>179.42</ele>
        <time>2021-08-08T16:59:13Z</time>
      </trkpt>
      <trkpt lat="49.56519" lon="3.62101">
        <ele>180.38</ele>
        <time>2021-08-08T16:59:20Z</time>
      </trkpt>
      <trkpt lat="49.56511" lon="3.62095">
        <ele>180.38</ele>
        <time>2021-08-08T16:59:26Z</time>
      </trkpt>
      <trkpt lat="49.56513" lon="3.62094">
        <ele>180.38</ele>
        <time>2021-08-08T16:59:34Z</time>
      </trkpt>
      <trkpt lat="49.56515" lon="3.62094">
        <ele>180.38</ele>
        <time>2021-08-08T16:59:42Z</time>
      </trkpt>
      <trkpt lat="49.56515" lon="3.62095">
        <ele>180.38</ele>
        <time>2021-08-08T16:59:43Z</time>
      </trkpt>
      <trkpt lat="49.56514" lon="3.62096">
        <ele>180.38</ele>
        <time>2021-08-08T16:59:44Z</time>
      </trkpt>
      <trkpt lat="49.56512" lon="3.62096">
        <ele>180.38</ele>
        <time>2021-08-08T16:59:45Z</time>
      </trkpt>
      <trkpt lat="49.56511" lon="3.62096">
        <ele>180.38</ele>
        <time>2021-08-08T16:59:46Z</time>
      </trkpt>
      <trkpt lat="49.56509" lon="3.62095">
        <ele>180.38</ele>
        <time>2021-08-08T16:59:47Z</time>
      </trkpt>
      <trkpt lat="49.56507" lon="3.62094">
        <ele>180.38</ele>
        <time>2021-08-08T16:59:48Z</time>
      </trkpt>
      <trkpt lat="49.56506" lon="3.62093">
        <ele>180.38</ele>
        <time>2021-08-08T16:59:49Z</time>
      </trkpt>
      <trkpt lat="49.56504" lon="3.62091">
        <ele>180.38</ele>
        <time>2021-08-08T16:59:50Z</time>
      </trkpt>
      <trkpt lat="49.56501" lon="3.62089">
        <ele>180.38</ele>
        <time>2021-08-08T16:59:51Z</time>
      </trkpt>
      <trkpt lat="49.56499" lon="3.62087">
        <ele>180.38</ele>
        <time>2021-08-08T16:59:52Z</time>
      </trkpt>
      <trkpt lat="49.56497" lon="3.62083">
        <ele>179.42</ele>
        <time>2021-08-08T16:59:53Z</time>
      </trkpt>
      <trkpt lat="49.56496" lon="3.62079">
        <ele>179.42</ele>
        <time>2021-08-08T16:59:54Z</time>
      </trkpt>
      <trkpt lat="49.56492" lon="3.62073">
        <ele>179.42</ele>
        <time>2021-08-08T16:59:56Z</time>
      </trkpt>
      <trkpt lat="49.5649" lon="3.62072">
        <ele>179.42</ele>
        <time>2021-08-08T16:59:57Z</time>
      </trkpt>
      <trkpt lat="49.56487" lon="3.62072">
        <ele>179.42</ele>
        <time>2021-08-08T16:59:58Z</time>
      </trkpt>
      <trkpt lat="49.56484" lon="3.62071">
        <ele>179.42</ele>
        <time>2021-08-08T16:59:59Z</time>
      </trkpt>
      <trkpt lat="49.56481" lon="3.62072">
        <ele>179.42</ele>
        <time>2021-08-08T17:00:00Z</time>
      </trkpt>
      <trkpt lat="49.56478" lon="3.62072">
        <ele>179.42</ele>
        <time>2021-08-08T17:00:01Z</time>
      </trkpt>
      <trkpt lat="49.56476" lon="3.62073">
        <ele>179.42</ele>
        <time>2021-08-08T17:00:02Z</time>
      </trkpt>
      <trkpt lat="49.56463" lon="3.62071">
        <ele>178.46</ele>
        <time>2021-08-08T17:00:08Z</time>
      </trkpt>
      <trkpt lat="49.56463" lon="3.62068">
        <ele>178.46</ele>
        <time>2021-08-08T17:00:09Z</time>
      </trkpt>
      <trkpt lat="49.56456" lon="3.62052">
        <ele>177.98</ele>
        <time>2021-08-08T17:00:15Z</time>
      </trkpt>
      <trkpt lat="49.56452" lon="3.62046">
        <ele>177.5</ele>
        <time>2021-08-08T17:00:18Z</time>
      </trkpt>
      <trkpt lat="49.5645" lon="3.62042">
        <ele>177.5</ele>
        <time>2021-08-08T17:00:20Z</time>
      </trkpt>
      <trkpt lat="49.56449" lon="3.62033">
        <ele>177.02</ele>
        <time>2021-08-08T17:00:23Z</time>
      </trkpt>
      <trkpt lat="49.56447" lon="3.6203">
        <ele>176.54</ele>
        <time>2021-08-08T17:00:24Z</time>
      </trkpt>
      <trkpt lat="49.56446" lon="3.62029">
        <ele>176.54</ele>
        <time>2021-08-08T17:00:25Z</time>
      </trkpt>
      <trkpt lat="49.56444" lon="3.62028">
        <ele>176.54</ele>
        <time>2021-08-08T17:00:26Z</time>
      </trkpt>
      <trkpt lat="49.56442" lon="3.62027">
        <ele>176.06</ele>
        <time>2021-08-08T17:00:27Z</time>
      </trkpt>
      <trkpt lat="49.56441" lon="3.62026">
        <ele>176.06</ele>
        <time>2021-08-08T17:00:28Z</time>
      </trkpt>
      <trkpt lat="49.56429" lon="3.62025">
        <ele>174.14</ele>
        <time>2021-08-08T17:00:35Z</time>
      </trkpt>
      <trkpt lat="49.56426" lon="3.62022">
        <ele>173.66</ele>
        <time>2021-08-08T17:00:37Z</time>
      </trkpt>
      <trkpt lat="49.56423" lon="3.62018">
        <ele>173.17</ele>
        <time>2021-08-08T17:00:39Z</time>
      </trkpt>
      <trkpt lat="49.56421" lon="3.62012">
        <ele>172.69</ele>
        <time>2021-08-08T17:00:44Z</time>
      </trkpt>
      <trkpt lat="49.56417" lon="3.62">
        <ele>171.25</ele>
        <time>2021-08-08T17:00:48Z</time>
      </trkpt>
      <trkpt lat="49.5641" lon="3.61979">
        <ele>168.85</ele>
        <time>2021-08-08T17:00:52Z</time>
      </trkpt>
      <trkpt lat="49.56408" lon="3.61971">
        <ele>168.37</ele>
        <time>2021-08-08T17:00:54Z</time>
      </trkpt>
      <trkpt lat="49.56409" lon="3.6197">
        <ele>167.89</ele>
        <time>2021-08-08T17:00:59Z</time>
      </trkpt>
      <trkpt lat="49.56407" lon="3.6197">
        <ele>167.89</ele>
        <time>2021-08-08T17:01:12Z</time>
      </trkpt>
      <trkpt lat="49.56406" lon="3.61969">
        <ele>167.89</ele>
        <time>2021-08-08T17:01:13Z</time>
      </trkpt>
      <trkpt lat="49.56405" lon="3.61966">
        <ele>167.89</ele>
        <time>2021-08-08T17:01:14Z</time>
      </trkpt>
      <trkpt lat="49.56398" lon="3.61938">
        <ele>165.48</ele>
        <time>2021-08-08T17:01:19Z</time>
      </trkpt>
      <trkpt lat="49.56398" lon="3.6193">
        <ele>164.52</ele>
        <time>2021-08-08T17:01:20Z</time>
      </trkpt>
      <trkpt lat="49.56397" lon="3.61923">
        <ele>164.52</ele>
        <time>2021-08-08T17:01:21Z</time>
      </trkpt>
      <trkpt lat="49.56397" lon="3.61886">
        <ele>165</ele>
        <time>2021-08-08T17:01:27Z</time>
      </trkpt>
      <trkpt lat="49.56399" lon="3.61866">
        <ele>166.45</ele>
        <time>2021-08-08T17:01:33Z</time>
      </trkpt>
      <trkpt lat="49.564" lon="3.61841">
        <ele>168.85</ele>
        <time>2021-08-08T17:01:40Z</time>
      </trkpt>
      <trkpt lat="49.56385" lon="3.61808">
        <ele>170.77</ele>
        <time>2021-08-08T17:01:50Z</time>
      </trkpt>
      <trkpt lat="49.56378" lon="3.61774">
        <ele>171.73</ele>
        <time>2021-08-08T17:01:58Z</time>
      </trkpt>
      <trkpt lat="49.56368" lon="3.6173">
        <ele>173.17</ele>
        <time>2021-08-08T17:02:07Z</time>
      </trkpt>
      <trkpt lat="49.5636" lon="3.61683">
        <ele>174.62</ele>
        <time>2021-08-08T17:02:17Z</time>
      </trkpt>
      <trkpt lat="49.56355" lon="3.6165">
        <ele>175.1</ele>
        <time>2021-08-08T17:02:24Z</time>
      </trkpt>
      <trkpt lat="49.5635" lon="3.61617">
        <ele>175.1</ele>
        <time>2021-08-08T17:02:31Z</time>
      </trkpt>
      <trkpt lat="49.56352" lon="3.61613">
        <ele>175.58</ele>
        <time>2021-08-08T17:02:35Z</time>
      </trkpt>
      <trkpt lat="49.56352" lon="3.61615">
        <ele>175.58</ele>
        <time>2021-08-08T17:02:36Z</time>
      </trkpt>
      <trkpt lat="49.56353" lon="3.61618">
        <ele>175.58</ele>
        <time>2021-08-08T17:02:37Z</time>
      </trkpt>
      <trkpt lat="49.56359" lon="3.61639">
        <ele>176.54</ele>
        <time>2021-08-08T17:02:45Z</time>
      </trkpt>
      <trkpt lat="49.56362" lon="3.61657">
        <ele>177.5</ele>
        <time>2021-08-08T17:02:53Z</time>
      </trkpt>
      <trkpt lat="49.56365" lon="3.61673">
        <ele>179.42</ele>
        <time>2021-08-08T17:03:00Z</time>
      </trkpt>
      <trkpt lat="49.56368" lon="3.61686">
        <ele>180.38</ele>
        <time>2021-08-08T17:03:07Z</time>
      </trkpt>
      <trkpt lat="49.56371" lon="3.61691">
        <ele>180.87</ele>
        <time>2021-08-08T17:03:11Z</time>
      </trkpt>
      <trkpt lat="49.56373" lon="3.61691">
        <ele>180.87</ele>
        <time>2021-08-08T17:03:12Z</time>
      </trkpt>
      <trkpt lat="49.56375" lon="3.6169">
        <ele>180.87</ele>
        <time>2021-08-08T17:03:13Z</time>
      </trkpt>
      <trkpt lat="49.56377" lon="3.6169">
        <ele>180.87</ele>
        <time>2021-08-08T17:03:14Z</time>
      </trkpt>
      <trkpt lat="49.56379" lon="3.6169">
        <ele>180.87</ele>
        <time>2021-08-08T17:03:15Z</time>
      </trkpt>
      <trkpt lat="49.56399" lon="3.61681">
        <ele>181.83</ele>
        <time>2021-08-08T17:03:23Z</time>
      </trkpt>
      <trkpt lat="49.56411" lon="3.61687">
        <ele>181.35</ele>
        <time>2021-08-08T17:03:28Z</time>
      </trkpt>
      <trkpt lat="49.56412" lon="3.61691">
        <ele>181.35</ele>
        <time>2021-08-08T17:03:29Z</time>
      </trkpt>
      <trkpt lat="49.56419" lon="3.61704">
        <ele>181.35</ele>
        <time>2021-08-08T17:03:33Z</time>
      </trkpt>
      <trkpt lat="49.56422" lon="3.61704">
        <ele>181.35</ele>
        <time>2021-08-08T17:03:34Z</time>
      </trkpt>
      <trkpt lat="49.56428" lon="3.61703">
        <ele>181.35</ele>
        <time>2021-08-08T17:03:37Z</time>
      </trkpt>
      <trkpt lat="49.56428" lon="3.61701">
        <ele>181.35</ele>
        <time>2021-08-08T17:03:38Z</time>
      </trkpt>
      <trkpt lat="49.56428" lon="3.61689">
        <ele>181.35</ele>
        <time>2021-08-08T17:03:44Z</time>
      </trkpt>
      <trkpt lat="49.56425" lon="3.61673">
        <ele>181.83</ele>
        <time>2021-08-08T17:03:51Z</time>
      </trkpt>
      <trkpt lat="49.56424" lon="3.61671">
        <ele>181.83</ele>
        <time>2021-08-08T17:03:52Z</time>
      </trkpt>
      <trkpt lat="49.56423" lon="3.61669">
        <ele>181.83</ele>
        <time>2021-08-08T17:03:53Z</time>
      </trkpt>
      <trkpt lat="49.56422" lon="3.61667">
        <ele>181.83</ele>
        <time>2021-08-08T17:03:54Z</time>
      </trkpt>
      <trkpt lat="49.56422" lon="3.61665">
        <ele>181.83</ele>
        <time>2021-08-08T17:03:55Z</time>
      </trkpt>
      <trkpt lat="49.56422" lon="3.61662">
        <ele>181.83</ele>
        <time>2021-08-08T17:03:56Z</time>
      </trkpt>
      <trkpt lat="49.56423" lon="3.61655">
        <ele>181.83</ele>
        <time>2021-08-08T17:04:02Z</time>
      </trkpt>
      <trkpt lat="49.56425" lon="3.61655">
        <ele>181.83</ele>
        <time>2021-08-08T17:04:07Z</time>
      </trkpt>
      <trkpt lat="49.56435" lon="3.6164">
        <ele>171.73</ele>
        <time>2021-08-08T18:08:11Z</time>
      </trkpt>
      <trkpt lat="49.56434" lon="3.61641">
        <ele>171.73</ele>
        <time>2021-08-08T18:08:12Z</time>
      </trkpt>
      <trkpt lat="49.56433" lon="3.61647">
        <ele>171.73</ele>
        <time>2021-08-08T18:08:24Z</time>
      </trkpt>
      <trkpt lat="49.56424" lon="3.61643">
        <ele>171.73</ele>
        <time>2021-08-08T18:08:36Z</time>
      </trkpt>
      <trkpt lat="49.56419" lon="3.61642">
        <ele>171.73</ele>
        <time>2021-08-08T18:08:47Z</time>
      </trkpt>
      <trkpt lat="49.56419" lon="3.6164">
        <ele>171.73</ele>
        <time>2021-08-08T18:09:02Z</time>
      </trkpt>
      <trkpt lat="49.56421" lon="3.61642">
        <ele>171.73</ele>
        <time>2021-08-08T18:09:16Z</time>
      </trkpt>
      <trkpt lat="49.56421" lon="3.61642">
        <ele>176.54</ele>
        <time>2021-08-08T18:09:21Z</time>
      </trkpt>
      <trkpt lat="49.56421" lon="3.61642">
        <ele>176.54</ele>
        <time>2021-08-08T18:09:22Z</time>
      </trkpt>
      <trkpt lat="49.56422" lon="3.61643">
        <ele>179.9</ele>
        <time>2021-08-08T18:09:25Z</time>
      </trkpt>
      <trkpt lat="49.56422" lon="3.61643">
        <ele>182.79</ele>
        <time>2021-08-08T18:09:28Z</time>
      </trkpt>
      <trkpt lat="49.56422" lon="3.61643">
        <ele>186.63</ele>
        <time>2021-08-08T18:09:32Z</time>
      </trkpt>
      <trkpt lat="49.56422" lon="3.61643">
        <ele>190</ele>
        <time>2021-08-08T18:09:36Z</time>
      </trkpt>
      <trkpt lat="49.56423" lon="3.61642">
        <ele>193.84</ele>
        <time>2021-08-08T18:09:41Z</time>
      </trkpt>
      <trkpt lat="49.56423" lon="3.61643">
        <ele>197.21</ele>
        <time>2021-08-08T18:09:46Z</time>
      </trkpt>
      <trkpt lat="49.56422" lon="3.61642">
        <ele>200.57</ele>
        <time>2021-08-08T18:09:54Z</time>
      </trkpt>
      <trkpt lat="49.56422" lon="3.61642">
        <ele>203.94</ele>
        <time>2021-08-08T18:10:02Z</time>
      </trkpt>
      <trkpt lat="49.56424" lon="3.61646">
        <ele>205.38</ele>
        <time>2021-08-08T18:10:20Z</time>
      </trkpt>
      <trkpt lat="49.56423" lon="3.61645">
        <ele>205.38</ele>
        <time>2021-08-08T18:10:33Z</time>
      </trkpt>
      <trkpt lat="49.56421" lon="3.61644">
        <ele>205.38</ele>
        <time>2021-08-08T18:10:45Z</time>
      </trkpt>
      <trkpt lat="49.56417" lon="3.61645">
        <ele>204.9</ele>
        <time>2021-08-08T18:10:59Z</time>
      </trkpt>
      <trkpt lat="49.56416" lon="3.61647">
        <ele>204.9</ele>
        <time>2021-08-08T18:11:09Z</time>
      </trkpt>
      <trkpt lat="49.56416" lon="3.61647">
        <ele>204.9</ele>
        <time>2021-08-08T18:11:24Z</time>
      </trkpt>
      <trkpt lat="49.56419" lon="3.61647">
        <ele>204.9</ele>
        <time>2021-08-08T18:11:35Z</time>
      </trkpt>
      <trkpt lat="49.56421" lon="3.61647">
        <ele>204.9</ele>
        <time>2021-08-08T18:11:44Z</time>
      </trkpt>
      <trkpt lat="49.56423" lon="3.61645">
        <ele>204.42</ele>
        <time>2021-08-08T18:11:58Z</time>
      </trkpt>
      <trkpt lat="49.56421" lon="3.61645">
        <ele>204.42</ele>
        <time>2021-08-08T18:12:21Z</time>
      </trkpt>
      <trkpt lat="49.56422" lon="3.61646">
        <ele>204.42</ele>
        <time>2021-08-08T18:12:33Z</time>
      </trkpt>
      <trkpt lat="49.56423" lon="3.61647">
        <ele>204.42</ele>
        <time>2021-08-08T18:12:44Z</time>
      </trkpt>
      <trkpt lat="49.56421" lon="3.61649">
        <ele>203.94</ele>
        <time>2021-08-08T18:13:01Z</time>
      </trkpt>
      <trkpt lat="49.56419" lon="3.61648">
        <ele>203.94</ele>
        <time>2021-08-08T18:13:17Z</time>
      </trkpt>
      <trkpt lat="49.56417" lon="3.61647">
        <ele>203.94</ele>
        <time>2021-08-08T18:13:28Z</time>
      </trkpt>
      <trkpt lat="49.56415" lon="3.61647">
        <ele>203.94</ele>
        <time>2021-08-08T18:13:43Z</time>
      </trkpt>
      <trkpt lat="49.56419" lon="3.61645">
        <ele>203.94</ele>
        <time>2021-08-08T18:14:01Z</time>
      </trkpt>
      <trkpt lat="49.56421" lon="3.61645">
        <ele>203.46</ele>
        <time>2021-08-08T18:14:11Z</time>
      </trkpt>
      <trkpt lat="49.56421" lon="3.61645">
        <ele>203.46</ele>
        <time>2021-08-08T18:14:23Z</time>
      </trkpt>
      <trkpt lat="49.5642" lon="3.61647">
        <ele>203.46</ele>
        <time>2021-08-08T18:14:35Z</time>
      </trkpt>
      <trkpt lat="49.56421" lon="3.61645">
        <ele>203.46</ele>
        <time>2021-08-08T18:14:46Z</time>
      </trkpt>
      <trkpt lat="49.56422" lon="3.61642">
        <ele>202.98</ele>
        <time>2021-08-08T18:15:00Z</time>
      </trkpt>
      <trkpt lat="49.56422" lon="3.61644">
        <ele>202.98</ele>
        <time>2021-08-08T18:15:08Z</time>
      </trkpt>
      <trkpt lat="49.56423" lon="3.61647">
        <ele>202.98</ele>
        <time>2021-08-08T18:15:14Z</time>
      </trkpt>
      <trkpt lat="49.56423" lon="3.6165">
        <ele>202.98</ele>
        <time>2021-08-08T18:15:28Z</time>
      </trkpt>
      <trkpt lat="49.56424" lon="3.61651">
        <ele>202.98</ele>
        <time>2021-08-08T18:15:41Z</time>
      </trkpt>
      <trkpt lat="49.56424" lon="3.61651">
        <ele>202.49</ele>
        <time>2021-08-08T18:15:52Z</time>
      </trkpt>
      <trkpt lat="49.56423" lon="3.61651">
        <ele>202.49</ele>
        <time>2021-08-08T18:15:59Z</time>
      </trkpt>
      <trkpt lat="49.56423" lon="3.61651">
        <ele>201.53</ele>
        <time>2021-08-08T18:16:08Z</time>
      </trkpt>
      <trkpt lat="49.56423" lon="3.61651">
        <ele>201.53</ele>
        <time>2021-08-08T18:16:09Z</time>
      </trkpt>
      <trkpt lat="49.56422" lon="3.61649">
        <ele>201.05</ele>
        <time>2021-08-08T18:16:18Z</time>
      </trkpt>
      <trkpt lat="49.5642" lon="3.61649">
        <ele>201.05</ele>
        <time>2021-08-08T18:16:34Z</time>
      </trkpt>
      <trkpt lat="49.56421" lon="3.6165">
        <ele>201.05</ele>
        <time>2021-08-08T18:16:43Z</time>
      </trkpt>
      <trkpt lat="49.5642" lon="3.6165">
        <ele>201.05</ele>
        <time>2021-08-08T18:16:52Z</time>
      </trkpt>
      <trkpt lat="49.56421" lon="3.61652">
        <ele>200.57</ele>
        <time>2021-08-08T18:17:06Z</time>
      </trkpt>
      <trkpt lat="49.56421" lon="3.61652">
        <ele>200.57</ele>
        <time>2021-08-08T18:17:18Z</time>
      </trkpt>
      <trkpt lat="49.56422" lon="3.61653">
        <ele>200.57</ele>
        <time>2021-08-08T18:17:29Z</time>
      </trkpt>
      <trkpt lat="49.56422" lon="3.61653">
        <ele>200.09</ele>
        <time>2021-08-08T18:17:40Z</time>
      </trkpt>
      <trkpt lat="49.56424" lon="3.61653">
        <ele>200.09</ele>
        <time>2021-08-08T18:17:54Z</time>
      </trkpt>
      <trkpt lat="49.56425" lon="3.61653">
        <ele>200.09</ele>
        <time>2021-08-08T18:18:06Z</time>
      </trkpt>
      <trkpt lat="49.56426" lon="3.61654">
        <ele>200.09</ele>
        <time>2021-08-08T18:18:15Z</time>
      </trkpt>
      <trkpt lat="49.56426" lon="3.61654">
        <ele>199.61</ele>
        <time>2021-08-08T18:18:28Z</time>
      </trkpt>
      <trkpt lat="49.56428" lon="3.61658">
        <ele>199.61</ele>
        <time>2021-08-08T18:18:34Z</time>
      </trkpt>
      <trkpt lat="49.56428" lon="3.61659">
        <ele>199.61</ele>
        <time>2021-08-08T18:18:41Z</time>
      </trkpt>
      <trkpt lat="49.56428" lon="3.6166">
        <ele>199.61</ele>
        <time>2021-08-08T18:18:50Z</time>
      </trkpt>
      <trkpt lat="49.56426" lon="3.6166">
        <ele>199.61</ele>
        <time>2021-08-08T18:19:00Z</time>
      </trkpt>
      <trkpt lat="49.56426" lon="3.6166">
        <ele>199.61</ele>
        <time>2021-08-08T18:19:08Z</time>
      </trkpt>
      <trkpt lat="49.56425" lon="3.6166">
        <ele>199.13</ele>
        <time>2021-08-08T18:19:22Z</time>
      </trkpt>
      <trkpt lat="49.56426" lon="3.61661">
        <ele>199.13</ele>
        <time>2021-08-08T18:19:25Z</time>
      </trkpt>
      <trkpt lat="49.56431" lon="3.61687">
        <ele>198.65</ele>
        <time>2021-08-08T18:19:33Z</time>
      </trkpt>
      <trkpt lat="49.56435" lon="3.61711">
        <ele>197.69</ele>
        <time>2021-08-08T18:19:40Z</time>
      </trkpt>
      <trkpt lat="49.56439" lon="3.61722">
        <ele>197.69</ele>
        <time>2021-08-08T18:19:46Z</time>
      </trkpt>
      <trkpt lat="49.56445" lon="3.61742">
        <ele>197.21</ele>
        <time>2021-08-08T18:19:52Z</time>
      </trkpt>
      <trkpt lat="49.56447" lon="3.61744">
        <ele>197.21</ele>
        <time>2021-08-08T18:19:53Z</time>
      </trkpt>
      <trkpt lat="49.5645" lon="3.61744">
        <ele>197.21</ele>
        <time>2021-08-08T18:19:54Z</time>
      </trkpt>
      <trkpt lat="49.56452" lon="3.61744">
        <ele>197.21</ele>
        <time>2021-08-08T18:19:55Z</time>
      </trkpt>
      <trkpt lat="49.56455" lon="3.61744">
        <ele>197.21</ele>
        <time>2021-08-08T18:19:56Z</time>
      </trkpt>
      <trkpt lat="49.56457" lon="3.61743">
        <ele>197.21</ele>
        <time>2021-08-08T18:19:57Z</time>
      </trkpt>
      <trkpt lat="49.5646" lon="3.61741">
        <ele>197.21</ele>
        <time>2021-08-08T18:19:58Z</time>
      </trkpt>
      <trkpt lat="49.56472" lon="3.61732">
        <ele>196.73</ele>
        <time>2021-08-08T18:20:04Z</time>
      </trkpt>
      <trkpt lat="49.56474" lon="3.61727">
        <ele>196.73</ele>
        <time>2021-08-08T18:20:05Z</time>
      </trkpt>
      <trkpt lat="49.56475" lon="3.61723">
        <ele>196.73</ele>
        <time>2021-08-08T18:20:06Z</time>
      </trkpt>
      <trkpt lat="49.56475" lon="3.61719">
        <ele>196.73</ele>
        <time>2021-08-08T18:20:07Z</time>
      </trkpt>
      <trkpt lat="49.56475" lon="3.61714">
        <ele>196.73</ele>
        <time>2021-08-08T18:20:08Z</time>
      </trkpt>
      <trkpt lat="49.56475" lon="3.61709">
        <ele>196.73</ele>
        <time>2021-08-08T18:20:09Z</time>
      </trkpt>
      <trkpt lat="49.56475" lon="3.61681">
        <ele>199.13</ele>
        <time>2021-08-08T18:20:16Z</time>
      </trkpt>
      <trkpt lat="49.5648" lon="3.61662">
        <ele>198.65</ele>
        <time>2021-08-08T18:20:21Z</time>
      </trkpt>
      <trkpt lat="49.56482" lon="3.6166">
        <ele>198.65</ele>
        <time>2021-08-08T18:20:22Z</time>
      </trkpt>
      <trkpt lat="49.565" lon="3.61654">
        <ele>198.65</ele>
        <time>2021-08-08T18:20:28Z</time>
      </trkpt>
      <trkpt lat="49.5651" lon="3.6165">
        <ele>197.21</ele>
        <time>2021-08-08T18:20:31Z</time>
      </trkpt>
      <trkpt lat="49.5653" lon="3.61652">
        <ele>195.77</ele>
        <time>2021-08-08T18:20:37Z</time>
      </trkpt>
      <trkpt lat="49.56536" lon="3.61652">
        <ele>195.77</ele>
        <time>2021-08-08T18:20:39Z</time>
      </trkpt>
      <trkpt lat="49.56539" lon="3.61649">
        <ele>195.77</ele>
        <time>2021-08-08T18:20:40Z</time>
      </trkpt>
      <trkpt lat="49.5654" lon="3.61645">
        <ele>195.77</ele>
        <time>2021-08-08T18:20:41Z</time>
      </trkpt>
      <trkpt lat="49.56547" lon="3.61609">
        <ele>197.21</ele>
        <time>2021-08-08T18:20:49Z</time>
      </trkpt>
      <trkpt lat="49.56554" lon="3.61568">
        <ele>198.65</ele>
        <time>2021-08-08T18:20:59Z</time>
      </trkpt>
      <trkpt lat="49.56557" lon="3.61533">
        <ele>198.65</ele>
        <time>2021-08-08T18:21:07Z</time>
      </trkpt>
      <trkpt lat="49.56555" lon="3.61501">
        <ele>198.65</ele>
        <time>2021-08-08T18:21:13Z</time>
      </trkpt>
      <trkpt lat="49.56543" lon="3.61431">
        <ele>199.13</ele>
        <time>2021-08-08T18:21:25Z</time>
      </trkpt>
      <trkpt lat="49.56539" lon="3.61416">
        <ele>199.13</ele>
        <time>2021-08-08T18:21:30Z</time>
      </trkpt>
      <trkpt lat="49.5654" lon="3.61414">
        <ele>198.65</ele>
        <time>2021-08-08T18:21:31Z</time>
      </trkpt>
      <trkpt lat="49.5654" lon="3.61413">
        <ele>198.65</ele>
        <time>2021-08-08T18:21:32Z</time>
      </trkpt>
      <trkpt lat="49.56542" lon="3.61412">
        <ele>199.61</ele>
        <time>2021-08-08T18:21:33Z</time>
      </trkpt>
      <trkpt lat="49.56543" lon="3.61412">
        <ele>199.61</ele>
        <time>2021-08-08T18:21:34Z</time>
      </trkpt>
      <trkpt lat="49.56544" lon="3.61407">
        <ele>199.61</ele>
        <time>2021-08-08T18:21:37Z</time>
      </trkpt>
      <trkpt lat="49.56543" lon="3.61405">
        <ele>199.61</ele>
        <time>2021-08-08T18:21:38Z</time>
      </trkpt>
      <trkpt lat="49.56543" lon="3.61401">
        <ele>197.69</ele>
        <time>2021-08-08T18:21:39Z</time>
      </trkpt>
      <trkpt lat="49.56543" lon="3.61395">
        <ele>197.69</ele>
        <time>2021-08-08T18:21:40Z</time>
      </trkpt>
      <trkpt lat="49.56542" lon="3.61389">
        <ele>196.73</ele>
        <time>2021-08-08T18:21:41Z</time>
      </trkpt>
      <trkpt lat="49.56542" lon="3.61373">
        <ele>195.28</ele>
        <time>2021-08-08T18:21:43Z</time>
      </trkpt>
      <trkpt lat="49.56543" lon="3.61367">
        <ele>194.32</ele>
        <time>2021-08-08T18:21:44Z</time>
      </trkpt>
      <trkpt lat="49.56545" lon="3.61359">
        <ele>193.36</ele>
        <time>2021-08-08T18:21:45Z</time>
      </trkpt>
      <trkpt lat="49.56547" lon="3.61352">
        <ele>193.36</ele>
        <time>2021-08-08T18:21:46Z</time>
      </trkpt>
      <trkpt lat="49.56548" lon="3.61344">
        <ele>193.36</ele>
        <time>2021-08-08T18:21:47Z</time>
      </trkpt>
      <trkpt lat="49.56548" lon="3.61336">
        <ele>193.36</ele>
        <time>2021-08-08T18:21:48Z</time>
      </trkpt>
      <trkpt lat="49.56547" lon="3.61328">
        <ele>193.36</ele>
        <time>2021-08-08T18:21:49Z</time>
      </trkpt>
      <trkpt lat="49.56546" lon="3.61288">
        <ele>192.88</ele>
        <time>2021-08-08T18:21:54Z</time>
      </trkpt>
      <trkpt lat="49.56548" lon="3.61272">
        <ele>192.88</ele>
        <time>2021-08-08T18:21:56Z</time>
      </trkpt>
      <trkpt lat="49.56553" lon="3.6124">
        <ele>192.88</ele>
        <time>2021-08-08T18:22:00Z</time>
      </trkpt>
      <trkpt lat="49.56568" lon="3.61169">
        <ele>191.92</ele>
        <time>2021-08-08T18:22:09Z</time>
      </trkpt>
      <trkpt lat="49.5658" lon="3.61088">
        <ele>191.92</ele>
        <time>2021-08-08T18:22:19Z</time>
      </trkpt>
      <trkpt lat="49.56593" lon="3.60989">
        <ele>191.92</ele>
        <time>2021-08-08T18:22:31Z</time>
      </trkpt>
      <trkpt lat="49.56605" lon="3.60907">
        <ele>190.96</ele>
        <time>2021-08-08T18:22:41Z</time>
      </trkpt>
      <trkpt lat="49.56618" lon="3.60844">
        <ele>190.48</ele>
        <time>2021-08-08T18:22:49Z</time>
      </trkpt>
      <trkpt lat="49.56633" lon="3.60777">
        <ele>188.08</ele>
        <time>2021-08-08T18:22:57Z</time>
      </trkpt>
      <trkpt lat="49.56638" lon="3.6073">
        <ele>187.11</ele>
        <time>2021-08-08T18:23:02Z</time>
      </trkpt>
      <trkpt lat="49.56642" lon="3.60645">
        <ele>186.15</ele>
        <time>2021-08-08T18:23:11Z</time>
      </trkpt>
      <trkpt lat="49.5664" lon="3.60565">
        <ele>186.15</ele>
        <time>2021-08-08T18:23:20Z</time>
      </trkpt>
      <trkpt lat="49.56639" lon="3.60557">
        <ele>186.15</ele>
        <time>2021-08-08T18:23:21Z</time>
      </trkpt>
      <trkpt lat="49.56638" lon="3.60549">
        <ele>186.15</ele>
        <time>2021-08-08T18:23:22Z</time>
      </trkpt>
      <trkpt lat="49.56628" lon="3.60473">
        <ele>184.71</ele>
        <time>2021-08-08T18:23:31Z</time>
      </trkpt>
      <trkpt lat="49.56614" lon="3.60418">
        <ele>184.71</ele>
        <time>2021-08-08T18:23:39Z</time>
      </trkpt>
      <trkpt lat="49.56599" lon="3.60358">
        <ele>183.27</ele>
        <time>2021-08-08T18:23:47Z</time>
      </trkpt>
      <trkpt lat="49.56589" lon="3.60315">
        <ele>182.79</ele>
        <time>2021-08-08T18:23:54Z</time>
      </trkpt>
      <trkpt lat="49.56594" lon="3.603">
        <ele>180.38</ele>
        <time>2021-08-08T18:24:01Z</time>
      </trkpt>
      <trkpt lat="49.56595" lon="3.60294">
        <ele>179.42</ele>
        <time>2021-08-08T18:24:02Z</time>
      </trkpt>
      <trkpt lat="49.56595" lon="3.60275">
        <ele>176.54</ele>
        <time>2021-08-08T18:24:05Z</time>
      </trkpt>
      <trkpt lat="49.56594" lon="3.60268">
        <ele>175.1</ele>
        <time>2021-08-08T18:24:06Z</time>
      </trkpt>
      <trkpt lat="49.5659" lon="3.60247">
        <ele>170.77</ele>
        <time>2021-08-08T18:24:09Z</time>
      </trkpt>
      <trkpt lat="49.56586" lon="3.60227">
        <ele>167.41</ele>
        <time>2021-08-08T18:24:12Z</time>
      </trkpt>
      <trkpt lat="49.5658" lon="3.60205">
        <ele>163.08</ele>
        <time>2021-08-08T18:24:15Z</time>
      </trkpt>
      <trkpt lat="49.56579" lon="3.60198">
        <ele>162.12</ele>
        <time>2021-08-08T18:24:16Z</time>
      </trkpt>
      <trkpt lat="49.56575" lon="3.60184">
        <ele>159.72</ele>
        <time>2021-08-08T18:24:18Z</time>
      </trkpt>
      <trkpt lat="49.56574" lon="3.60177">
        <ele>158.27</ele>
        <time>2021-08-08T18:24:19Z</time>
      </trkpt>
      <trkpt lat="49.56569" lon="3.6015">
        <ele>154.43</ele>
        <time>2021-08-08T18:24:22Z</time>
      </trkpt>
      <trkpt lat="49.56562" lon="3.60121">
        <ele>151.06</ele>
        <time>2021-08-08T18:24:26Z</time>
      </trkpt>
      <trkpt lat="49.5656" lon="3.60105">
        <ele>149.62</ele>
        <time>2021-08-08T18:24:31Z</time>
      </trkpt>
      <trkpt lat="49.56558" lon="3.60089">
        <ele>146.74</ele>
        <time>2021-08-08T18:24:37Z</time>
      </trkpt>
      <trkpt lat="49.56558" lon="3.6008">
        <ele>146.26</ele>
        <time>2021-08-08T18:24:40Z</time>
      </trkpt>
      <trkpt lat="49.56559" lon="3.60074">
        <ele>144.82</ele>
        <time>2021-08-08T18:24:42Z</time>
      </trkpt>
      <trkpt lat="49.56562" lon="3.60057">
        <ele>141.93</ele>
        <time>2021-08-08T18:24:47Z</time>
      </trkpt>
      <trkpt lat="49.56562" lon="3.6005">
        <ele>141.45</ele>
        <time>2021-08-08T18:24:49Z</time>
      </trkpt>
      <trkpt lat="49.56562" lon="3.6004">
        <ele>140.01</ele>
        <time>2021-08-08T18:24:52Z</time>
      </trkpt>
      <trkpt lat="49.56561" lon="3.60024">
        <ele>138.09</ele>
        <time>2021-08-08T18:24:57Z</time>
      </trkpt>
      <trkpt lat="49.56564" lon="3.60004">
        <ele>134.72</ele>
        <time>2021-08-08T18:25:03Z</time>
      </trkpt>
      <trkpt lat="49.56566" lon="3.59985">
        <ele>131.84</ele>
        <time>2021-08-08T18:25:06Z</time>
      </trkpt>
      <trkpt lat="49.56566" lon="3.59979">
        <ele>130.88</ele>
        <time>2021-08-08T18:25:07Z</time>
      </trkpt>
      <trkpt lat="49.56565" lon="3.59975">
        <ele>130.88</ele>
        <time>2021-08-08T18:25:08Z</time>
      </trkpt>
      <trkpt lat="49.56564" lon="3.59972">
        <ele>130.88</ele>
        <time>2021-08-08T18:25:09Z</time>
      </trkpt>
      <trkpt lat="49.56565" lon="3.5997">
        <ele>129.43</ele>
        <time>2021-08-08T18:25:10Z</time>
      </trkpt>
      <trkpt lat="49.56566" lon="3.59967">
        <ele>128.47</ele>
        <time>2021-08-08T18:25:11Z</time>
      </trkpt>
      <trkpt lat="49.56567" lon="3.59961">
        <ele>127.99</ele>
        <time>2021-08-08T18:25:12Z</time>
      </trkpt>
      <trkpt lat="49.56568" lon="3.59954">
        <ele>126.55</ele>
        <time>2021-08-08T18:25:13Z</time>
      </trkpt>
      <trkpt lat="49.56569" lon="3.59944">
        <ele>126.07</ele>
        <time>2021-08-08T18:25:14Z</time>
      </trkpt>
      <trkpt lat="49.5657" lon="3.59934">
        <ele>125.59</ele>
        <time>2021-08-08T18:25:15Z</time>
      </trkpt>
      <trkpt lat="49.56571" lon="3.59923">
        <ele>124.63</ele>
        <time>2021-08-08T18:25:16Z</time>
      </trkpt>
      <trkpt lat="49.56572" lon="3.599">
        <ele>123.67</ele>
        <time>2021-08-08T18:25:18Z</time>
      </trkpt>
      <trkpt lat="49.56569" lon="3.59876">
        <ele>123.67</ele>
        <time>2021-08-08T18:25:21Z</time>
      </trkpt>
      <trkpt lat="49.56566" lon="3.59868">
        <ele>124.15</ele>
        <time>2021-08-08T18:25:27Z</time>
      </trkpt>
      <trkpt lat="49.56565" lon="3.59858">
        <ele>124.15</ele>
        <time>2021-08-08T18:25:33Z</time>
      </trkpt>
      <trkpt lat="49.56565" lon="3.59856">
        <ele>123.19</ele>
        <time>2021-08-08T18:25:34Z</time>
      </trkpt>
      <trkpt lat="49.56569" lon="3.5983">
        <ele>119.34</ele>
        <time>2021-08-08T18:25:38Z</time>
      </trkpt>
      <trkpt lat="49.56571" lon="3.59794">
        <ele>115.98</ele>
        <time>2021-08-08T18:25:41Z</time>
      </trkpt>
      <trkpt lat="49.56578" lon="3.59732">
        <ele>112.13</ele>
        <time>2021-08-08T18:25:46Z</time>
      </trkpt>
      <trkpt lat="49.56584" lon="3.59698">
        <ele>110.69</ele>
        <time>2021-08-08T18:25:49Z</time>
      </trkpt>
      <trkpt lat="49.56587" lon="3.59669">
        <ele>108.77</ele>
        <time>2021-08-08T18:25:53Z</time>
      </trkpt>
      <trkpt lat="49.56585" lon="3.59663">
        <ele>108.29</ele>
        <time>2021-08-08T18:25:55Z</time>
      </trkpt>
      <trkpt lat="49.56584" lon="3.59662">
        <ele>108.29</ele>
        <time>2021-08-08T18:25:56Z</time>
      </trkpt>
      <trkpt lat="49.56582" lon="3.59662">
        <ele>108.29</ele>
        <time>2021-08-08T18:25:57Z</time>
      </trkpt>
      <trkpt lat="49.56563" lon="3.59656">
        <ele>108.29</ele>
        <time>2021-08-08T18:26:05Z</time>
      </trkpt>
      <trkpt lat="49.56547" lon="3.59647">
        <ele>109.73</ele>
        <time>2021-08-08T18:26:13Z</time>
      </trkpt>
      <trkpt lat="49.5653" lon="3.59641">
        <ele>109.73</ele>
        <time>2021-08-08T18:26:20Z</time>
      </trkpt>
      <trkpt lat="49.56514" lon="3.59636">
        <ele>108.29</ele>
        <time>2021-08-08T18:26:25Z</time>
      </trkpt>
      <trkpt lat="49.56488" lon="3.59631">
        <ele>107.81</ele>
        <time>2021-08-08T18:26:33Z</time>
      </trkpt>
      <trkpt lat="49.5646" lon="3.59628">
        <ele>107.32</ele>
        <time>2021-08-08T18:26:41Z</time>
      </trkpt>
      <trkpt lat="49.56436" lon="3.59631">
        <ele>107.32</ele>
        <time>2021-08-08T18:26:49Z</time>
      </trkpt>
      <trkpt lat="49.56412" lon="3.59634">
        <ele>107.32</ele>
        <time>2021-08-08T18:26:58Z</time>
      </trkpt>
      <trkpt lat="49.56409" lon="3.59639">
        <ele>107.32</ele>
        <time>2021-08-08T18:27:00Z</time>
      </trkpt>
      <trkpt lat="49.56409" lon="3.59641">
        <ele>108.29</ele>
        <time>2021-08-08T18:27:01Z</time>
      </trkpt>
      <trkpt lat="49.56404" lon="3.59665">
        <ele>108.77</ele>
        <time>2021-08-08T18:27:08Z</time>
      </trkpt>
      <trkpt lat="49.56402" lon="3.59667">
        <ele>108.77</ele>
        <time>2021-08-08T18:27:09Z</time>
      </trkpt>
      <trkpt lat="49.564" lon="3.59668">
        <ele>109.25</ele>
        <time>2021-08-08T18:27:10Z</time>
      </trkpt>
      <trkpt lat="49.56398" lon="3.59669">
        <ele>109.25</ele>
        <time>2021-08-08T18:27:11Z</time>
      </trkpt>
      <trkpt lat="49.56396" lon="3.5967">
        <ele>109.25</ele>
        <time>2021-08-08T18:27:12Z</time>
      </trkpt>
      <trkpt lat="49.56394" lon="3.5967">
        <ele>109.73</ele>
        <time>2021-08-08T18:27:13Z</time>
      </trkpt>
      <trkpt lat="49.56381" lon="3.59668">
        <ele>111.65</ele>
        <time>2021-08-08T18:27:21Z</time>
      </trkpt>
      <trkpt lat="49.56367" lon="3.59673">
        <ele>112.61</ele>
        <time>2021-08-08T18:27:28Z</time>
      </trkpt>
      <trkpt lat="49.56344" lon="3.59684">
        <ele>112.61</ele>
        <time>2021-08-08T18:27:37Z</time>
      </trkpt>
      <trkpt lat="49.56336" lon="3.59702">
        <ele>112.61</ele>
        <time>2021-08-08T18:27:42Z</time>
      </trkpt>
      <trkpt lat="49.56322" lon="3.59738">
        <ele>112.61</ele>
        <time>2021-08-08T18:27:50Z</time>
      </trkpt>
      <trkpt lat="49.56302" lon="3.59777">
        <ele>113.09</ele>
        <time>2021-08-08T18:28:00Z</time>
      </trkpt>
      <trkpt lat="49.56282" lon="3.59806">
        <ele>113.57</ele>
        <time>2021-08-08T18:28:09Z</time>
      </trkpt>
      <trkpt lat="49.56248" lon="3.59814">
        <ele>113.09</ele>
        <time>2021-08-08T18:28:17Z</time>
      </trkpt>
      <trkpt lat="49.56236" lon="3.59816">
        <ele>113.09</ele>
        <time>2021-08-08T18:28:20Z</time>
      </trkpt>
      <trkpt lat="49.56194" lon="3.59828">
        <ele>113.09</ele>
        <time>2021-08-08T18:28:30Z</time>
      </trkpt>
      <trkpt lat="49.56174" lon="3.59832">
        <ele>113.09</ele>
        <time>2021-08-08T18:28:35Z</time>
      </trkpt>
      <trkpt lat="49.56172" lon="3.59828">
        <ele>113.09</ele>
        <time>2021-08-08T18:28:36Z</time>
      </trkpt>
      <trkpt lat="49.5617" lon="3.59821">
        <ele>111.65</ele>
        <time>2021-08-08T18:28:37Z</time>
      </trkpt>
      <trkpt lat="49.56163" lon="3.59791">
        <ele>108.29</ele>
        <time>2021-08-08T18:28:40Z</time>
      </trkpt>
      <trkpt lat="49.56154" lon="3.59754">
        <ele>104.92</ele>
        <time>2021-08-08T18:28:43Z</time>
      </trkpt>
      <trkpt lat="49.56149" lon="3.59731">
        <ele>104.44</ele>
        <time>2021-08-08T18:28:45Z</time>
      </trkpt>
      <trkpt lat="49.56139" lon="3.5969">
        <ele>102.52</ele>
        <time>2021-08-08T18:28:51Z</time>
      </trkpt>
      <trkpt lat="49.56138" lon="3.59687">
        <ele>102.52</ele>
        <time>2021-08-08T18:28:52Z</time>
      </trkpt>
      <trkpt lat="49.56137" lon="3.59686">
        <ele>102.52</ele>
        <time>2021-08-08T18:28:53Z</time>
      </trkpt>
      <trkpt lat="49.56135" lon="3.59683">
        <ele>102.52</ele>
        <time>2021-08-08T18:28:54Z</time>
      </trkpt>
      <trkpt lat="49.56135" lon="3.59679">
        <ele>102.52</ele>
        <time>2021-08-08T18:28:55Z</time>
      </trkpt>
      <trkpt lat="49.56134" lon="3.59675">
        <ele>102.52</ele>
        <time>2021-08-08T18:28:56Z</time>
      </trkpt>
      <trkpt lat="49.56133" lon="3.59671">
        <ele>102.04</ele>
        <time>2021-08-08T18:28:57Z</time>
      </trkpt>
      <trkpt lat="49.56131" lon="3.59669">
        <ele>102.04</ele>
        <time>2021-08-08T18:28:58Z</time>
      </trkpt>
      <trkpt lat="49.56128" lon="3.59667">
        <ele>102.04</ele>
        <time>2021-08-08T18:28:59Z</time>
      </trkpt>
      <trkpt lat="49.56125" lon="3.59666">
        <ele>101.56</ele>
        <time>2021-08-08T18:29:00Z</time>
      </trkpt>
      <trkpt lat="49.56121" lon="3.59667">
        <ele>101.56</ele>
        <time>2021-08-08T18:29:01Z</time>
      </trkpt>
      <trkpt lat="49.56118" lon="3.59669">
        <ele>101.56</ele>
        <time>2021-08-08T18:29:02Z</time>
      </trkpt>
      <trkpt lat="49.56115" lon="3.59671">
        <ele>101.56</ele>
        <time>2021-08-08T18:29:03Z</time>
      </trkpt>
      <trkpt lat="49.56112" lon="3.59675">
        <ele>101.56</ele>
        <time>2021-08-08T18:29:04Z</time>
      </trkpt>
      <trkpt lat="49.56109" lon="3.59678">
        <ele>101.56</ele>
        <time>2021-08-08T18:29:05Z</time>
      </trkpt>
      <trkpt lat="49.56107" lon="3.59681">
        <ele>101.56</ele>
        <time>2021-08-08T18:29:06Z</time>
      </trkpt>
      <trkpt lat="49.56104" lon="3.59686">
        <ele>101.56</ele>
        <time>2021-08-08T18:29:07Z</time>
      </trkpt>
      <trkpt lat="49.56101" lon="3.59689">
        <ele>101.56</ele>
        <time>2021-08-08T18:29:08Z</time>
      </trkpt>
      <trkpt lat="49.56098" lon="3.59693">
        <ele>101.56</ele>
        <time>2021-08-08T18:29:09Z</time>
      </trkpt>
      <trkpt lat="49.56072" lon="3.59721">
        <ele>101.56</ele>
        <time>2021-08-08T18:29:18Z</time>
      </trkpt>
      <trkpt lat="49.56048" lon="3.59752">
        <ele>101.56</ele>
        <time>2021-08-08T18:29:27Z</time>
      </trkpt>
      <trkpt lat="49.56017" lon="3.59791">
        <ele>101.56</ele>
        <time>2021-08-08T18:29:37Z</time>
      </trkpt>
      <trkpt lat="49.55992" lon="3.59815">
        <ele>103</ele>
        <time>2021-08-08T18:29:45Z</time>
      </trkpt>
      <trkpt lat="49.55985" lon="3.59821">
        <ele>103</ele>
        <time>2021-08-08T18:29:47Z</time>
      </trkpt>
      <trkpt lat="49.55964" lon="3.59839">
        <ele>103.48</ele>
        <time>2021-08-08T18:29:53Z</time>
      </trkpt>
      <trkpt lat="49.55943" lon="3.59867">
        <ele>103.48</ele>
        <time>2021-08-08T18:30:00Z</time>
      </trkpt>
      <trkpt lat="49.55916" lon="3.59903">
        <ele>103.96</ele>
        <time>2021-08-08T18:30:09Z</time>
      </trkpt>
      <trkpt lat="49.55886" lon="3.59945">
        <ele>103.96</ele>
        <time>2021-08-08T18:30:19Z</time>
      </trkpt>
      <trkpt lat="49.55843" lon="3.60001">
        <ele>103.48</ele>
        <time>2021-08-08T18:30:31Z</time>
      </trkpt>
      <trkpt lat="49.55804" lon="3.60052">
        <ele>103.48</ele>
        <time>2021-08-08T18:30:42Z</time>
      </trkpt>
      <trkpt lat="49.55786" lon="3.60077">
        <ele>103.48</ele>
        <time>2021-08-08T18:30:47Z</time>
      </trkpt>
      <trkpt lat="49.55763" lon="3.60125">
        <ele>103.48</ele>
        <time>2021-08-08T18:30:56Z</time>
      </trkpt>
      <trkpt lat="49.55742" lon="3.60169">
        <ele>103.96</ele>
        <time>2021-08-08T18:31:05Z</time>
      </trkpt>
      <trkpt lat="49.55738" lon="3.60196">
        <ele>104.92</ele>
        <time>2021-08-08T18:31:11Z</time>
      </trkpt>
      <trkpt lat="49.55733" lon="3.60235">
        <ele>105.4</ele>
        <time>2021-08-08T18:31:19Z</time>
      </trkpt>
      <trkpt lat="49.55724" lon="3.60253">
        <ele>105.4</ele>
        <time>2021-08-08T18:31:23Z</time>
      </trkpt>
      <trkpt lat="49.5572" lon="3.60256">
        <ele>105.4</ele>
        <time>2021-08-08T18:31:24Z</time>
      </trkpt>
      <trkpt lat="49.5569" lon="3.60281">
        <ele>103.96</ele>
        <time>2021-08-08T18:31:31Z</time>
      </trkpt>
      <trkpt lat="49.55655" lon="3.60324">
        <ele>103.48</ele>
        <time>2021-08-08T18:31:39Z</time>
      </trkpt>
      <trkpt lat="49.55619" lon="3.60377">
        <ele>102.52</ele>
        <time>2021-08-08T18:31:48Z</time>
      </trkpt>
      <trkpt lat="49.55564" lon="3.60448">
        <ele>102.04</ele>
        <time>2021-08-08T18:32:01Z</time>
      </trkpt>
      <trkpt lat="49.5552" lon="3.60526">
        <ele>101.08</ele>
        <time>2021-08-08T18:32:13Z</time>
      </trkpt>
      <trkpt lat="49.55479" lon="3.60598">
        <ele>100.6</ele>
        <time>2021-08-08T18:32:24Z</time>
      </trkpt>
      <trkpt lat="49.55455" lon="3.60635">
        <ele>100.11</ele>
        <time>2021-08-08T18:32:30Z</time>
      </trkpt>
      <trkpt lat="49.5541" lon="3.60672">
        <ele>99.63</ele>
        <time>2021-08-08T18:32:39Z</time>
      </trkpt>
      <trkpt lat="49.55399" lon="3.60676">
        <ele>98.67</ele>
        <time>2021-08-08T18:32:41Z</time>
      </trkpt>
      <trkpt lat="49.55394" lon="3.60677">
        <ele>98.67</ele>
        <time>2021-08-08T18:32:42Z</time>
      </trkpt>
      <trkpt lat="49.55388" lon="3.60677">
        <ele>98.67</ele>
        <time>2021-08-08T18:32:43Z</time>
      </trkpt>
      <trkpt lat="49.55382" lon="3.60676">
        <ele>98.19</ele>
        <time>2021-08-08T18:32:44Z</time>
      </trkpt>
      <trkpt lat="49.55376" lon="3.60675">
        <ele>98.19</ele>
        <time>2021-08-08T18:32:45Z</time>
      </trkpt>
      <trkpt lat="49.5537" lon="3.60672">
        <ele>98.19</ele>
        <time>2021-08-08T18:32:46Z</time>
      </trkpt>
      <trkpt lat="49.55365" lon="3.6067">
        <ele>97.71</ele>
        <time>2021-08-08T18:32:47Z</time>
      </trkpt>
      <trkpt lat="49.55354" lon="3.60666">
        <ele>97.71</ele>
        <time>2021-08-08T18:32:49Z</time>
      </trkpt>
      <trkpt lat="49.55347" lon="3.60668">
        <ele>96.75</ele>
        <time>2021-08-08T18:32:50Z</time>
      </trkpt>
      <trkpt lat="49.55343" lon="3.60671">
        <ele>96.75</ele>
        <time>2021-08-08T18:32:51Z</time>
      </trkpt>
      <trkpt lat="49.55306" lon="3.60693">
        <ele>96.75</ele>
        <time>2021-08-08T18:32:59Z</time>
      </trkpt>
      <trkpt lat="49.55301" lon="3.60698">
        <ele>96.27</ele>
        <time>2021-08-08T18:33:00Z</time>
      </trkpt>
      <trkpt lat="49.55297" lon="3.60703">
        <ele>96.27</ele>
        <time>2021-08-08T18:33:01Z</time>
      </trkpt>
      <trkpt lat="49.55294" lon="3.60709">
        <ele>96.27</ele>
        <time>2021-08-08T18:33:02Z</time>
      </trkpt>
      <trkpt lat="49.55291" lon="3.60716">
        <ele>96.27</ele>
        <time>2021-08-08T18:33:03Z</time>
      </trkpt>
      <trkpt lat="49.55252" lon="3.60798">
        <ele>95.31</ele>
        <time>2021-08-08T18:33:15Z</time>
      </trkpt>
      <trkpt lat="49.55248" lon="3.60803">
        <ele>95.31</ele>
        <time>2021-08-08T18:33:16Z</time>
      </trkpt>
      <trkpt lat="49.55244" lon="3.60808">
        <ele>95.31</ele>
        <time>2021-08-08T18:33:17Z</time>
      </trkpt>
      <trkpt lat="49.55206" lon="3.60843">
        <ele>95.31</ele>
        <time>2021-08-08T18:33:25Z</time>
      </trkpt>
      <trkpt lat="49.55176" lon="3.60886">
        <ele>95.31</ele>
        <time>2021-08-08T18:33:33Z</time>
      </trkpt>
      <trkpt lat="49.55165" lon="3.60905">
        <ele>94.35</ele>
        <time>2021-08-08T18:33:36Z</time>
      </trkpt>
      <trkpt lat="49.55121" lon="3.60962">
        <ele>93.87</ele>
        <time>2021-08-08T18:33:46Z</time>
      </trkpt>
      <trkpt lat="49.55097" lon="3.60996">
        <ele>93.39</ele>
        <time>2021-08-08T18:33:52Z</time>
      </trkpt>
      <trkpt lat="49.55093" lon="3.61003">
        <ele>93.39</ele>
        <time>2021-08-08T18:33:53Z</time>
      </trkpt>
      <trkpt lat="49.55067" lon="3.61061">
        <ele>91.46</ele>
        <time>2021-08-08T18:34:00Z</time>
      </trkpt>
      <trkpt lat="49.55063" lon="3.61071">
        <ele>90.98</ele>
        <time>2021-08-08T18:34:01Z</time>
      </trkpt>
      <trkpt lat="49.55058" lon="3.61079">
        <ele>90.5</ele>
        <time>2021-08-08T18:34:02Z</time>
      </trkpt>
      <trkpt lat="49.55052" lon="3.61086">
        <ele>89.54</ele>
        <time>2021-08-08T18:34:03Z</time>
      </trkpt>
      <trkpt lat="49.55025" lon="3.61115">
        <ele>88.1</ele>
        <time>2021-08-08T18:34:07Z</time>
      </trkpt>
      <trkpt lat="49.5502" lon="3.61125">
        <ele>87.14</ele>
        <time>2021-08-08T18:34:08Z</time>
      </trkpt>
      <trkpt lat="49.55015" lon="3.61135">
        <ele>87.14</ele>
        <time>2021-08-08T18:34:09Z</time>
      </trkpt>
      <trkpt lat="49.55011" lon="3.61146">
        <ele>87.14</ele>
        <time>2021-08-08T18:34:10Z</time>
      </trkpt>
      <trkpt lat="49.55008" lon="3.61158">
        <ele>86.18</ele>
        <time>2021-08-08T18:34:11Z</time>
      </trkpt>
      <trkpt lat="49.55005" lon="3.61171">
        <ele>86.18</ele>
        <time>2021-08-08T18:34:12Z</time>
      </trkpt>
      <trkpt lat="49.55004" lon="3.61183">
        <ele>86.18</ele>
        <time>2021-08-08T18:34:13Z</time>
      </trkpt>
      <trkpt lat="49.55003" lon="3.61196">
        <ele>85.69</ele>
        <time>2021-08-08T18:34:14Z</time>
      </trkpt>
      <trkpt lat="49.55002" lon="3.6122">
        <ele>85.69</ele>
        <time>2021-08-08T18:34:16Z</time>
      </trkpt>
      <trkpt lat="49.55003" lon="3.61288">
        <ele>85.69</ele>
        <time>2021-08-08T18:34:22Z</time>
      </trkpt>
      <trkpt lat="49.55002" lon="3.61362">
        <ele>85.69</ele>
        <time>2021-08-08T18:34:30Z</time>
      </trkpt>
      <trkpt lat="49.54998" lon="3.61437">
        <ele>85.69</ele>
        <time>2021-08-08T18:34:39Z</time>
      </trkpt>
      <trkpt lat="49.54992" lon="3.61496">
        <ele>85.69</ele>
        <time>2021-08-08T18:34:46Z</time>
      </trkpt>
      <trkpt lat="49.5499" lon="3.61512">
        <ele>85.69</ele>
        <time>2021-08-08T18:34:48Z</time>
      </trkpt>
      <trkpt lat="49.54988" lon="3.61519">
        <ele>85.69</ele>
        <time>2021-08-08T18:34:49Z</time>
      </trkpt>
      <trkpt lat="49.54987" lon="3.61528">
        <ele>85.69</ele>
        <time>2021-08-08T18:34:50Z</time>
      </trkpt>
      <trkpt lat="49.54977" lon="3.61634">
        <ele>84.73</ele>
        <time>2021-08-08T18:35:02Z</time>
      </trkpt>
      <trkpt lat="49.5497" lon="3.617">
        <ele>84.73</ele>
        <time>2021-08-08T18:35:10Z</time>
      </trkpt>
      <trkpt lat="49.54969" lon="3.61707">
        <ele>84.73</ele>
        <time>2021-08-08T18:35:11Z</time>
      </trkpt>
      <trkpt lat="49.54966" lon="3.61716">
        <ele>84.73</ele>
        <time>2021-08-08T18:35:12Z</time>
      </trkpt>
      <trkpt lat="49.54964" lon="3.61723">
        <ele>84.73</ele>
        <time>2021-08-08T18:35:13Z</time>
      </trkpt>
      <trkpt lat="49.54963" lon="3.61731">
        <ele>83.77</ele>
        <time>2021-08-08T18:35:14Z</time>
      </trkpt>
      <trkpt lat="49.54962" lon="3.61738">
        <ele>83.77</ele>
        <time>2021-08-08T18:35:15Z</time>
      </trkpt>
      <trkpt lat="49.54964" lon="3.61747">
        <ele>83.77</ele>
        <time>2021-08-08T18:35:16Z</time>
      </trkpt>
      <trkpt lat="49.54966" lon="3.61755">
        <ele>83.77</ele>
        <time>2021-08-08T18:35:17Z</time>
      </trkpt>
      <trkpt lat="49.54978" lon="3.61816">
        <ele>83.77</ele>
        <time>2021-08-08T18:35:25Z</time>
      </trkpt>
      <trkpt lat="49.54999" lon="3.61868">
        <ele>83.77</ele>
        <time>2021-08-08T18:35:33Z</time>
      </trkpt>
      <trkpt lat="49.55012" lon="3.61887">
        <ele>83.77</ele>
        <time>2021-08-08T18:35:37Z</time>
      </trkpt>
      <trkpt lat="49.55041" lon="3.61913">
        <ele>85.21</ele>
        <time>2021-08-08T18:35:45Z</time>
      </trkpt>
      <trkpt lat="49.55044" lon="3.61915">
        <ele>85.21</ele>
        <time>2021-08-08T18:35:46Z</time>
      </trkpt>
      <trkpt lat="49.55083" lon="3.61929">
        <ele>86.18</ele>
        <time>2021-08-08T18:35:56Z</time>
      </trkpt>
      <trkpt lat="49.55111" lon="3.61945">
        <ele>86.66</ele>
        <time>2021-08-08T18:36:04Z</time>
      </trkpt>
      <trkpt lat="49.55135" lon="3.61972">
        <ele>87.62</ele>
        <time>2021-08-08T18:36:12Z</time>
      </trkpt>
      <trkpt lat="49.55154" lon="3.62003">
        <ele>87.62</ele>
        <time>2021-08-08T18:36:20Z</time>
      </trkpt>
      <trkpt lat="49.55177" lon="3.62045">
        <ele>87.62</ele>
        <time>2021-08-08T18:36:28Z</time>
      </trkpt>
      <trkpt lat="49.55205" lon="3.62098">
        <ele>86.66</ele>
        <time>2021-08-08T18:36:37Z</time>
      </trkpt>
      <trkpt lat="49.55223" lon="3.62144">
        <ele>86.18</ele>
        <time>2021-08-08T18:36:44Z</time>
      </trkpt>
      <trkpt lat="49.55238" lon="3.62204">
        <ele>84.73</ele>
        <time>2021-08-08T18:36:52Z</time>
      </trkpt>
      <trkpt lat="49.55252" lon="3.62276">
        <ele>84.25</ele>
        <time>2021-08-08T18:37:01Z</time>
      </trkpt>
      <trkpt lat="49.55267" lon="3.62358">
        <ele>83.29</ele>
        <time>2021-08-08T18:37:11Z</time>
      </trkpt>
      <trkpt lat="49.55283" lon="3.62435">
        <ele>82.33</ele>
        <time>2021-08-08T18:37:20Z</time>
      </trkpt>
      <trkpt lat="49.55292" lon="3.62484">
        <ele>82.33</ele>
        <time>2021-08-08T18:37:27Z</time>
      </trkpt>
      <trkpt lat="49.55291" lon="3.62487">
        <ele>82.33</ele>
        <time>2021-08-08T18:37:28Z</time>
      </trkpt>
      <trkpt lat="49.55291" lon="3.62489">
        <ele>82.33</ele>
        <time>2021-08-08T18:37:29Z</time>
      </trkpt>
      <trkpt lat="49.55291" lon="3.62492">
        <ele>82.33</ele>
        <time>2021-08-08T18:37:30Z</time>
      </trkpt>
      <trkpt lat="49.55292" lon="3.62495">
        <ele>82.33</ele>
        <time>2021-08-08T18:37:31Z</time>
      </trkpt>
      <trkpt lat="49.55293" lon="3.62499">
        <ele>82.33</ele>
        <time>2021-08-08T18:37:32Z</time>
      </trkpt>
      <trkpt lat="49.55293" lon="3.62504">
        <ele>82.33</ele>
        <time>2021-08-08T18:37:33Z</time>
      </trkpt>
      <trkpt lat="49.55292" lon="3.62508">
        <ele>82.33</ele>
        <time>2021-08-08T18:37:34Z</time>
      </trkpt>
      <trkpt lat="49.55291" lon="3.62511">
        <ele>82.33</ele>
        <time>2021-08-08T18:37:35Z</time>
      </trkpt>
      <trkpt lat="49.55289" lon="3.62513">
        <ele>82.33</ele>
        <time>2021-08-08T18:37:36Z</time>
      </trkpt>
      <trkpt lat="49.55286" lon="3.62516">
        <ele>82.33</ele>
        <time>2021-08-08T18:37:37Z</time>
      </trkpt>
      <trkpt lat="49.55271" lon="3.62532">
        <ele>82.33</ele>
        <time>2021-08-08T18:37:43Z</time>
      </trkpt>
      <trkpt lat="49.55269" lon="3.62533">
        <ele>82.33</ele>
        <time>2021-08-08T18:37:44Z</time>
      </trkpt>
      <trkpt lat="49.55255" lon="3.62544">
        <ele>79.93</ele>
        <time>2021-08-08T18:37:48Z</time>
      </trkpt>
      <trkpt lat="49.55241" lon="3.62553">
        <ele>79.93</ele>
        <time>2021-08-08T18:37:51Z</time>
      </trkpt>
      <trkpt lat="49.55222" lon="3.62571">
        <ele>80.89</ele>
        <time>2021-08-08T18:37:56Z</time>
      </trkpt>
      <trkpt lat="49.55196" lon="3.62595">
        <ele>80.89</ele>
        <time>2021-08-08T18:38:03Z</time>
      </trkpt>
      <trkpt lat="49.55178" lon="3.62609">
        <ele>80.89</ele>
        <time>2021-08-08T18:38:09Z</time>
      </trkpt>
      <trkpt lat="49.55171" lon="3.62615">
        <ele>80.89</ele>
        <time>2021-08-08T18:38:11Z</time>
      </trkpt>
      <trkpt lat="49.55167" lon="3.62618">
        <ele>80.89</ele>
        <time>2021-08-08T18:38:12Z</time>
      </trkpt>
      <trkpt lat="49.55163" lon="3.62622">
        <ele>80.89</ele>
        <time>2021-08-08T18:38:13Z</time>
      </trkpt>
      <trkpt lat="49.55159" lon="3.62625">
        <ele>80.89</ele>
        <time>2021-08-08T18:38:14Z</time>
      </trkpt>
      <trkpt lat="49.55155" lon="3.62628">
        <ele>80.89</ele>
        <time>2021-08-08T18:38:15Z</time>
      </trkpt>
      <trkpt lat="49.55125" lon="3.62654">
        <ele>79.93</ele>
        <time>2021-08-08T18:38:23Z</time>
      </trkpt>
      <trkpt lat="49.55095" lon="3.62681">
        <ele>79.93</ele>
        <time>2021-08-08T18:38:32Z</time>
      </trkpt>
      <trkpt lat="49.55091" lon="3.62686">
        <ele>79.93</ele>
        <time>2021-08-08T18:38:34Z</time>
      </trkpt>
      <trkpt lat="49.55083" lon="3.627">
        <ele>79.93</ele>
        <time>2021-08-08T18:38:38Z</time>
      </trkpt>
      <trkpt lat="49.55078" lon="3.62701">
        <ele>79.93</ele>
        <time>2021-08-08T18:38:39Z</time>
      </trkpt>
      <trkpt lat="49.55074" lon="3.62701">
        <ele>79.93</ele>
        <time>2021-08-08T18:38:40Z</time>
      </trkpt>
      <trkpt lat="49.5507" lon="3.62701">
        <ele>79.93</ele>
        <time>2021-08-08T18:38:41Z</time>
      </trkpt>
      <trkpt lat="49.55022" lon="3.62695">
        <ele>78.48</ele>
        <time>2021-08-08T18:38:51Z</time>
      </trkpt>
      <trkpt lat="49.54967" lon="3.62679">
        <ele>78</ele>
        <time>2021-08-08T18:39:02Z</time>
      </trkpt>
      <trkpt lat="49.54952" lon="3.62674">
        <ele>77.52</ele>
        <time>2021-08-08T18:39:05Z</time>
      </trkpt>
      <trkpt lat="49.54907" lon="3.62655">
        <ele>77.52</ele>
        <time>2021-08-08T18:39:14Z</time>
      </trkpt>
      <trkpt lat="49.54866" lon="3.62642">
        <ele>77.52</ele>
        <time>2021-08-08T18:39:22Z</time>
      </trkpt>
      <trkpt lat="49.5484" lon="3.62639">
        <ele>77.52</ele>
        <time>2021-08-08T18:39:27Z</time>
      </trkpt>
      <trkpt lat="49.54831" lon="3.62642">
        <ele>77.52</ele>
        <time>2021-08-08T18:39:29Z</time>
      </trkpt>
      <trkpt lat="49.54828" lon="3.62647">
        <ele>77.52</ele>
        <time>2021-08-08T18:39:30Z</time>
      </trkpt>
      <trkpt lat="49.54827" lon="3.62652">
        <ele>77.52</ele>
        <time>2021-08-08T18:39:31Z</time>
      </trkpt>
      <trkpt lat="49.54827" lon="3.62658">
        <ele>77.52</ele>
        <time>2021-08-08T18:39:32Z</time>
      </trkpt>
      <trkpt lat="49.54827" lon="3.62664">
        <ele>77.52</ele>
        <time>2021-08-08T18:39:33Z</time>
      </trkpt>
      <trkpt lat="49.54827" lon="3.62671">
        <ele>77.52</ele>
        <time>2021-08-08T18:39:34Z</time>
      </trkpt>
      <trkpt lat="49.54831" lon="3.62702">
        <ele>78.48</ele>
        <time>2021-08-08T18:39:40Z</time>
      </trkpt>
      <trkpt lat="49.54832" lon="3.62706">
        <ele>78.48</ele>
        <time>2021-08-08T18:39:41Z</time>
      </trkpt>
      <trkpt lat="49.54835" lon="3.62721">
        <ele>78.48</ele>
        <time>2021-08-08T18:39:44Z</time>
      </trkpt>
      <trkpt lat="49.54837" lon="3.62724">
        <ele>78.48</ele>
        <time>2021-08-08T18:39:45Z</time>
      </trkpt>
      <trkpt lat="49.54849" lon="3.62752">
        <ele>78.48</ele>
        <time>2021-08-08T18:39:51Z</time>
      </trkpt>
      <trkpt lat="49.54857" lon="3.62762">
        <ele>78.48</ele>
        <time>2021-08-08T18:39:54Z</time>
      </trkpt>
      <trkpt lat="49.5486" lon="3.62763">
        <ele>78.48</ele>
        <time>2021-08-08T18:39:55Z</time>
      </trkpt>
      <trkpt lat="49.54891" lon="3.6277">
        <ele>78.48</ele>
        <time>2021-08-08T18:40:03Z</time>
      </trkpt>
      <trkpt lat="49.549" lon="3.62776">
        <ele>78.48</ele>
        <time>2021-08-08T18:40:06Z</time>
      </trkpt>
      <trkpt lat="49.54901" lon="3.62782">
        <ele>78.48</ele>
        <time>2021-08-08T18:40:07Z</time>
      </trkpt>
      <trkpt lat="49.54901" lon="3.62787">
        <ele>78.48</ele>
        <time>2021-08-08T18:40:08Z</time>
      </trkpt>
      <trkpt lat="49.54889" lon="3.62848">
        <ele>78.48</ele>
        <time>2021-08-08T18:40:18Z</time>
      </trkpt>
      <trkpt lat="49.5488" lon="3.62893">
        <ele>78.48</ele>
        <time>2021-08-08T18:40:25Z</time>
      </trkpt>
      <trkpt lat="49.54877" lon="3.62904">
        <ele>78.48</ele>
        <time>2021-08-08T18:40:27Z</time>
      </trkpt>
      <trkpt lat="49.54874" lon="3.62908">
        <ele>78.48</ele>
        <time>2021-08-08T18:40:28Z</time>
      </trkpt>
      <trkpt lat="49.5487" lon="3.62911">
        <ele>78</ele>
        <time>2021-08-08T18:40:29Z</time>
      </trkpt>
      <trkpt lat="49.54867" lon="3.62915">
        <ele>78.48</ele>
        <time>2021-08-08T18:40:30Z</time>
      </trkpt>
      <trkpt lat="49.54865" lon="3.62922">
        <ele>78</ele>
        <time>2021-08-08T18:40:31Z</time>
      </trkpt>
      <trkpt lat="49.54864" lon="3.62928">
        <ele>78</ele>
        <time>2021-08-08T18:40:32Z</time>
      </trkpt>
      <trkpt lat="49.54864" lon="3.62934">
        <ele>78</ele>
        <time>2021-08-08T18:40:33Z</time>
      </trkpt>
      <trkpt lat="49.54864" lon="3.62941">
        <ele>78</ele>
        <time>2021-08-08T18:40:34Z</time>
      </trkpt>
      <trkpt lat="49.54865" lon="3.62948">
        <ele>78</ele>
        <time>2021-08-08T18:40:35Z</time>
      </trkpt>
      <trkpt lat="49.54861" lon="3.62967">
        <ele>78</ele>
        <time>2021-08-08T18:40:39Z</time>
      </trkpt>
      <trkpt lat="49.54858" lon="3.6297">
        <ele>78</ele>
        <time>2021-08-08T18:40:40Z</time>
      </trkpt>
      <trkpt lat="49.54831" lon="3.62992">
        <ele>77.04</ele>
        <time>2021-08-08T18:40:47Z</time>
      </trkpt>
      <trkpt lat="49.5479" lon="3.63012">
        <ele>76.56</ele>
        <time>2021-08-08T18:40:56Z</time>
      </trkpt>
      <trkpt lat="49.54738" lon="3.63028">
        <ele>76.56</ele>
        <time>2021-08-08T18:41:07Z</time>
      </trkpt>
      <trkpt lat="49.54686" lon="3.63049">
        <ele>76.08</ele>
        <time>2021-08-08T18:41:18Z</time>
      </trkpt>
      <trkpt lat="49.54641" lon="3.63072">
        <ele>76.08</ele>
        <time>2021-08-08T18:41:28Z</time>
      </trkpt>
      <trkpt lat="49.54604" lon="3.63095">
        <ele>76.08</ele>
        <time>2021-08-08T18:41:37Z</time>
      </trkpt>
      <trkpt lat="49.54576" lon="3.63133">
        <ele>77.04</ele>
        <time>2021-08-08T18:41:46Z</time>
      </trkpt>
      <trkpt lat="49.54569" lon="3.63155">
        <ele>77.04</ele>
        <time>2021-08-08T18:41:50Z</time>
      </trkpt>
      <trkpt lat="49.5457" lon="3.63161">
        <ele>77.04</ele>
        <time>2021-08-08T18:41:51Z</time>
      </trkpt>
      <trkpt lat="49.5457" lon="3.63174">
        <ele>77.04</ele>
        <time>2021-08-08T18:41:53Z</time>
      </trkpt>
      <trkpt lat="49.5457" lon="3.63181">
        <ele>77.04</ele>
        <time>2021-08-08T18:41:54Z</time>
      </trkpt>
      <trkpt lat="49.54569" lon="3.63188">
        <ele>77.04</ele>
        <time>2021-08-08T18:41:55Z</time>
      </trkpt>
      <trkpt lat="49.54558" lon="3.63263">
        <ele>77.52</ele>
        <time>2021-08-08T18:42:06Z</time>
      </trkpt>
      <trkpt lat="49.54548" lon="3.63335">
        <ele>78</ele>
        <time>2021-08-08T18:42:17Z</time>
      </trkpt>
      <trkpt lat="49.54538" lon="3.63407">
        <ele>78.48</ele>
        <time>2021-08-08T18:42:28Z</time>
      </trkpt>
      <trkpt lat="49.54525" lon="3.63482">
        <ele>79.45</ele>
        <time>2021-08-08T18:42:40Z</time>
      </trkpt>
      <trkpt lat="49.54512" lon="3.6354">
        <ele>80.41</ele>
        <time>2021-08-08T18:42:50Z</time>
      </trkpt>
      <trkpt lat="49.54499" lon="3.63604">
        <ele>81.85</ele>
        <time>2021-08-08T18:43:02Z</time>
      </trkpt>
      <trkpt lat="49.54488" lon="3.63653">
        <ele>82.81</ele>
        <time>2021-08-08T18:43:11Z</time>
      </trkpt>
      <trkpt lat="49.54478" lon="3.63707">
        <ele>84.25</ele>
        <time>2021-08-08T18:43:21Z</time>
      </trkpt>
      <trkpt lat="49.54476" lon="3.63745">
        <ele>84.25</ele>
        <time>2021-08-08T18:43:28Z</time>
      </trkpt>
      <trkpt lat="49.54474" lon="3.63794">
        <ele>84.25</ele>
        <time>2021-08-08T18:43:36Z</time>
      </trkpt>
      <trkpt lat="49.54472" lon="3.63813">
        <ele>84.25</ele>
        <time>2021-08-08T18:43:39Z</time>
      </trkpt>
      <trkpt lat="49.54472" lon="3.6382">
        <ele>84.25</ele>
        <time>2021-08-08T18:43:40Z</time>
      </trkpt>
      <trkpt lat="49.54461" lon="3.63881">
        <ele>81.85</ele>
        <time>2021-08-08T18:43:48Z</time>
      </trkpt>
      <trkpt lat="49.54446" lon="3.63948">
        <ele>78.97</ele>
        <time>2021-08-08T18:43:55Z</time>
      </trkpt>
      <trkpt lat="49.54443" lon="3.64023">
        <ele>77.04</ele>
        <time>2021-08-08T18:44:02Z</time>
      </trkpt>
      <trkpt lat="49.54446" lon="3.64072">
        <ele>76.56</ele>
        <time>2021-08-08T18:44:07Z</time>
      </trkpt>
      <trkpt lat="49.54444" lon="3.64079">
        <ele>76.56</ele>
        <time>2021-08-08T18:44:08Z</time>
      </trkpt>
      <trkpt lat="49.5444" lon="3.64085">
        <ele>76.56</ele>
        <time>2021-08-08T18:44:09Z</time>
      </trkpt>
      <trkpt lat="49.54436" lon="3.64087">
        <ele>75.6</ele>
        <time>2021-08-08T18:44:10Z</time>
      </trkpt>
      <trkpt lat="49.54431" lon="3.6409">
        <ele>75.6</ele>
        <time>2021-08-08T18:44:11Z</time>
      </trkpt>
      <trkpt lat="49.54426" lon="3.64092">
        <ele>75.6</ele>
        <time>2021-08-08T18:44:12Z</time>
      </trkpt>
      <trkpt lat="49.54421" lon="3.64094">
        <ele>75.6</ele>
        <time>2021-08-08T18:44:13Z</time>
      </trkpt>
      <trkpt lat="49.54416" lon="3.64097">
        <ele>75.6</ele>
        <time>2021-08-08T18:44:14Z</time>
      </trkpt>
      <trkpt lat="49.54411" lon="3.641">
        <ele>75.6</ele>
        <time>2021-08-08T18:44:15Z</time>
      </trkpt>
      <trkpt lat="49.54394" lon="3.64115">
        <ele>75.6</ele>
        <time>2021-08-08T18:44:19Z</time>
      </trkpt>
      <trkpt lat="49.5439" lon="3.64119">
        <ele>75.6</ele>
        <time>2021-08-08T18:44:20Z</time>
      </trkpt>
      <trkpt lat="49.54377" lon="3.6414">
        <ele>75.6</ele>
        <time>2021-08-08T18:44:24Z</time>
      </trkpt>
      <trkpt lat="49.54375" lon="3.64146">
        <ele>75.6</ele>
        <time>2021-08-08T18:44:25Z</time>
      </trkpt>
      <trkpt lat="49.54372" lon="3.64154">
        <ele>75.6</ele>
        <time>2021-08-08T18:44:26Z</time>
      </trkpt>
      <trkpt lat="49.54369" lon="3.64167">
        <ele>75.6</ele>
        <time>2021-08-08T18:44:28Z</time>
      </trkpt>
      <trkpt lat="49.54367" lon="3.64175">
        <ele>75.6</ele>
        <time>2021-08-08T18:44:29Z</time>
      </trkpt>
      <trkpt lat="49.54366" lon="3.64183">
        <ele>75.6</ele>
        <time>2021-08-08T18:44:30Z</time>
      </trkpt>
      <trkpt lat="49.54365" lon="3.64206">
        <ele>75.6</ele>
        <time>2021-08-08T18:44:33Z</time>
      </trkpt>
      <trkpt lat="49.54368" lon="3.64263">
        <ele>75.6</ele>
        <time>2021-08-08T18:44:41Z</time>
      </trkpt>
      <trkpt lat="49.54369" lon="3.6427">
        <ele>75.6</ele>
        <time>2021-08-08T18:44:42Z</time>
      </trkpt>
      <trkpt lat="49.54368" lon="3.64279">
        <ele>75.6</ele>
        <time>2021-08-08T18:44:43Z</time>
      </trkpt>
      <trkpt lat="49.54368" lon="3.64285">
        <ele>75.6</ele>
        <time>2021-08-08T18:44:44Z</time>
      </trkpt>
      <trkpt lat="49.54366" lon="3.64292">
        <ele>75.6</ele>
        <time>2021-08-08T18:44:45Z</time>
      </trkpt>
      <trkpt lat="49.54364" lon="3.64299">
        <ele>75.6</ele>
        <time>2021-08-08T18:44:46Z</time>
      </trkpt>
      <trkpt lat="49.54362" lon="3.64306">
        <ele>75.6</ele>
        <time>2021-08-08T18:44:47Z</time>
      </trkpt>
      <trkpt lat="49.54359" lon="3.64313">
        <ele>75.6</ele>
        <time>2021-08-08T18:44:48Z</time>
      </trkpt>
      <trkpt lat="49.54357" lon="3.64318">
        <ele>75.6</ele>
        <time>2021-08-08T18:44:49Z</time>
      </trkpt>
      <trkpt lat="49.54353" lon="3.64323">
        <ele>75.6</ele>
        <time>2021-08-08T18:44:50Z</time>
      </trkpt>
      <trkpt lat="49.5435" lon="3.64328">
        <ele>75.6</ele>
        <time>2021-08-08T18:44:51Z</time>
      </trkpt>
      <trkpt lat="49.54347" lon="3.64333">
        <ele>75.6</ele>
        <time>2021-08-08T18:44:52Z</time>
      </trkpt>
      <trkpt lat="49.54324" lon="3.64397">
        <ele>75.6</ele>
        <time>2021-08-08T18:45:02Z</time>
      </trkpt>
      <trkpt lat="49.54303" lon="3.64462">
        <ele>75.6</ele>
        <time>2021-08-08T18:45:12Z</time>
      </trkpt>
      <trkpt lat="49.54281" lon="3.64533">
        <ele>75.6</ele>
        <time>2021-08-08T18:45:23Z</time>
      </trkpt>
      <trkpt lat="49.54273" lon="3.64557">
        <ele>75.6</ele>
        <time>2021-08-08T18:45:27Z</time>
      </trkpt>
      <trkpt lat="49.54265" lon="3.64588">
        <ele>75.6</ele>
        <time>2021-08-08T18:45:32Z</time>
      </trkpt>
      <trkpt lat="49.54263" lon="3.64594">
        <ele>75.6</ele>
        <time>2021-08-08T18:45:33Z</time>
      </trkpt>
      <trkpt lat="49.54262" lon="3.646">
        <ele>75.6</ele>
        <time>2021-08-08T18:45:34Z</time>
      </trkpt>
      <trkpt lat="49.54261" lon="3.64607">
        <ele>75.6</ele>
        <time>2021-08-08T18:45:35Z</time>
      </trkpt>
      <trkpt lat="49.54259" lon="3.64613">
        <ele>75.6</ele>
        <time>2021-08-08T18:45:36Z</time>
      </trkpt>
      <trkpt lat="49.54246" lon="3.64651">
        <ele>75.12</ele>
        <time>2021-08-08T18:45:43Z</time>
      </trkpt>
      <trkpt lat="49.54224" lon="3.64687">
        <ele>75.12</ele>
        <time>2021-08-08T18:45:51Z</time>
      </trkpt>
      <trkpt lat="49.54209" lon="3.64709">
        <ele>75.12</ele>
        <time>2021-08-08T18:45:56Z</time>
      </trkpt>
      <trkpt lat="49.54204" lon="3.64719">
        <ele>75.12</ele>
        <time>2021-08-08T18:45:58Z</time>
      </trkpt>
      <trkpt lat="49.542" lon="3.64723">
        <ele>75.12</ele>
        <time>2021-08-08T18:45:59Z</time>
      </trkpt>
      <trkpt lat="49.54196" lon="3.64727">
        <ele>75.12</ele>
        <time>2021-08-08T18:46:00Z</time>
      </trkpt>
      <trkpt lat="49.54193" lon="3.64731">
        <ele>75.12</ele>
        <time>2021-08-08T18:46:01Z</time>
      </trkpt>
      <trkpt lat="49.54191" lon="3.64736">
        <ele>75.12</ele>
        <time>2021-08-08T18:46:02Z</time>
      </trkpt>
      <trkpt lat="49.54188" lon="3.64741">
        <ele>75.12</ele>
        <time>2021-08-08T18:46:03Z</time>
      </trkpt>
      <trkpt lat="49.54187" lon="3.64747">
        <ele>75.12</ele>
        <time>2021-08-08T18:46:04Z</time>
      </trkpt>
      <trkpt lat="49.54186" lon="3.64753">
        <ele>75.12</ele>
        <time>2021-08-08T18:46:05Z</time>
      </trkpt>
      <trkpt lat="49.54187" lon="3.64759">
        <ele>75.12</ele>
        <time>2021-08-08T18:46:06Z</time>
      </trkpt>
      <trkpt lat="49.54187" lon="3.64766">
        <ele>75.12</ele>
        <time>2021-08-08T18:46:07Z</time>
      </trkpt>
      <trkpt lat="49.54189" lon="3.64812">
        <ele>75.12</ele>
        <time>2021-08-08T18:46:15Z</time>
      </trkpt>
      <trkpt lat="49.54201" lon="3.64843">
        <ele>75.12</ele>
        <time>2021-08-08T18:46:21Z</time>
      </trkpt>
      <trkpt lat="49.54217" lon="3.64866">
        <ele>75.12</ele>
        <time>2021-08-08T18:46:27Z</time>
      </trkpt>
      <trkpt lat="49.54237" lon="3.64896">
        <ele>75.12</ele>
        <time>2021-08-08T18:46:35Z</time>
      </trkpt>
      <trkpt lat="49.54255" lon="3.64921">
        <ele>76.56</ele>
        <time>2021-08-08T18:46:42Z</time>
      </trkpt>
      <trkpt lat="49.54268" lon="3.64952">
        <ele>76.56</ele>
        <time>2021-08-08T18:46:49Z</time>
      </trkpt>
      <trkpt lat="49.54261" lon="3.64972">
        <ele>76.56</ele>
        <time>2021-08-08T18:46:53Z</time>
      </trkpt>
      <trkpt lat="49.54245" lon="3.65001">
        <ele>77.04</ele>
        <time>2021-08-08T18:47:00Z</time>
      </trkpt>
      <trkpt lat="49.54228" lon="3.65029">
        <ele>77.04</ele>
        <time>2021-08-08T18:47:07Z</time>
      </trkpt>
      <trkpt lat="49.5421" lon="3.65061">
        <ele>77.04</ele>
        <time>2021-08-08T18:47:14Z</time>
      </trkpt>
      <trkpt lat="49.54189" lon="3.65111">
        <ele>77.52</ele>
        <time>2021-08-08T18:47:23Z</time>
      </trkpt>
      <trkpt lat="49.54169" lon="3.65166">
        <ele>77.52</ele>
        <time>2021-08-08T18:47:33Z</time>
      </trkpt>
      <trkpt lat="49.54149" lon="3.65216">
        <ele>77.52</ele>
        <time>2021-08-08T18:47:43Z</time>
      </trkpt>
      <trkpt lat="49.54133" lon="3.6526">
        <ele>77.52</ele>
        <time>2021-08-08T18:47:52Z</time>
      </trkpt>
      <trkpt lat="49.5412" lon="3.65299">
        <ele>77.52</ele>
        <time>2021-08-08T18:48:00Z</time>
      </trkpt>
      <trkpt lat="49.54107" lon="3.65333">
        <ele>77.52</ele>
        <time>2021-08-08T18:48:08Z</time>
      </trkpt>
      <trkpt lat="49.54088" lon="3.65378">
        <ele>78.48</ele>
        <time>2021-08-08T18:48:19Z</time>
      </trkpt>
      <trkpt lat="49.54074" lon="3.65409">
        <ele>78.48</ele>
        <time>2021-08-08T18:48:27Z</time>
      </trkpt>
      <trkpt lat="49.5406" lon="3.65433">
        <ele>78.48</ele>
        <time>2021-08-08T18:48:34Z</time>
      </trkpt>
      <trkpt lat="49.54042" lon="3.65453">
        <ele>78.48</ele>
        <time>2021-08-08T18:48:41Z</time>
      </trkpt>
      <trkpt lat="49.54016" lon="3.65469">
        <ele>78.48</ele>
        <time>2021-08-08T18:48:49Z</time>
      </trkpt>
      <trkpt lat="49.53985" lon="3.65491">
        <ele>78.97</ele>
        <time>2021-08-08T18:48:59Z</time>
      </trkpt>
      <trkpt lat="49.53956" lon="3.65514">
        <ele>78.97</ele>
        <time>2021-08-08T18:49:09Z</time>
      </trkpt>
      <trkpt lat="49.53941" lon="3.65532">
        <ele>78.97</ele>
        <time>2021-08-08T18:49:15Z</time>
      </trkpt>
      <trkpt lat="49.5393" lon="3.65562">
        <ele>79.45</ele>
        <time>2021-08-08T18:49:22Z</time>
      </trkpt>
      <trkpt lat="49.53923" lon="3.65596">
        <ele>79.45</ele>
        <time>2021-08-08T18:49:29Z</time>
      </trkpt>
      <trkpt lat="49.5391" lon="3.65614">
        <ele>79.45</ele>
        <time>2021-08-08T18:49:35Z</time>
      </trkpt>
      <trkpt lat="49.53897" lon="3.65621">
        <ele>79.45</ele>
        <time>2021-08-08T18:49:42Z</time>
      </trkpt>
      <trkpt lat="49.53886" lon="3.65629">
        <ele>79.93</ele>
        <time>2021-08-08T18:49:47Z</time>
      </trkpt>
      <trkpt lat="49.53868" lon="3.65647">
        <ele>79.93</ele>
        <time>2021-08-08T18:49:54Z</time>
      </trkpt>
      <trkpt lat="49.53846" lon="3.6566">
        <ele>79.93</ele>
        <time>2021-08-08T18:50:00Z</time>
      </trkpt>
      <trkpt lat="49.53823" lon="3.65676">
        <ele>79.93</ele>
        <time>2021-08-08T18:50:07Z</time>
      </trkpt>
      <trkpt lat="49.53807" lon="3.65685">
        <ele>80.41</ele>
        <time>2021-08-08T18:50:12Z</time>
      </trkpt>
      <trkpt lat="49.53787" lon="3.65701">
        <ele>80.41</ele>
        <time>2021-08-08T18:50:19Z</time>
      </trkpt>
      <trkpt lat="49.53771" lon="3.65712">
        <ele>80.89</ele>
        <time>2021-08-08T18:50:24Z</time>
      </trkpt>
      <trkpt lat="49.53753" lon="3.65738">
        <ele>80.89</ele>
        <time>2021-08-08T18:50:31Z</time>
      </trkpt>
      <trkpt lat="49.53734" lon="3.6577">
        <ele>81.37</ele>
        <time>2021-08-08T18:50:39Z</time>
      </trkpt>
      <trkpt lat="49.5372" lon="3.65793">
        <ele>81.85</ele>
        <time>2021-08-08T18:50:45Z</time>
      </trkpt>
      <trkpt lat="49.53704" lon="3.65807">
        <ele>81.85</ele>
        <time>2021-08-08T18:50:51Z</time>
      </trkpt>
      <trkpt lat="49.53677" lon="3.65808">
        <ele>81.85</ele>
        <time>2021-08-08T18:50:58Z</time>
      </trkpt>
      <trkpt lat="49.53653" lon="3.65808">
        <ele>81.85</ele>
        <time>2021-08-08T18:51:05Z</time>
      </trkpt>
      <trkpt lat="49.53628" lon="3.65808">
        <ele>81.85</ele>
        <time>2021-08-08T18:51:12Z</time>
      </trkpt>
      <trkpt lat="49.53604" lon="3.65816">
        <ele>82.33</ele>
        <time>2021-08-08T18:51:19Z</time>
      </trkpt>
      <trkpt lat="49.53594" lon="3.65829">
        <ele>82.33</ele>
        <time>2021-08-08T18:51:24Z</time>
      </trkpt>
      <trkpt lat="49.53577" lon="3.65856">
        <ele>82.33</ele>
        <time>2021-08-08T18:51:31Z</time>
      </trkpt>
      <trkpt lat="49.53562" lon="3.6588">
        <ele>82.33</ele>
        <time>2021-08-08T18:51:37Z</time>
      </trkpt>
      <trkpt lat="49.53543" lon="3.65907">
        <ele>82.81</ele>
        <time>2021-08-08T18:51:44Z</time>
      </trkpt>
      <trkpt lat="49.53519" lon="3.65925">
        <ele>82.81</ele>
        <time>2021-08-08T18:51:51Z</time>
      </trkpt>
      <trkpt lat="49.53493" lon="3.65926">
        <ele>83.29</ele>
        <time>2021-08-08T18:51:58Z</time>
      </trkpt>
      <trkpt lat="49.5347" lon="3.65926">
        <ele>83.29</ele>
        <time>2021-08-08T18:52:04Z</time>
      </trkpt>
      <trkpt lat="49.53443" lon="3.65929">
        <ele>83.29</ele>
        <time>2021-08-08T18:52:11Z</time>
      </trkpt>
      <trkpt lat="49.53415" lon="3.65929">
        <ele>83.29</ele>
        <time>2021-08-08T18:52:18Z</time>
      </trkpt>
      <trkpt lat="49.53384" lon="3.6593">
        <ele>83.29</ele>
        <time>2021-08-08T18:52:26Z</time>
      </trkpt>
      <trkpt lat="49.53359" lon="3.65929">
        <ele>83.29</ele>
        <time>2021-08-08T18:52:33Z</time>
      </trkpt>
      <trkpt lat="49.5332" lon="3.65924">
        <ele>83.77</ele>
        <time>2021-08-08T18:52:42Z</time>
      </trkpt>
      <trkpt lat="49.53295" lon="3.65923">
        <ele>83.77</ele>
        <time>2021-08-08T18:52:48Z</time>
      </trkpt>
      <trkpt lat="49.53262" lon="3.65926">
        <ele>83.77</ele>
        <time>2021-08-08T18:52:56Z</time>
      </trkpt>
      <trkpt lat="49.53227" lon="3.65944">
        <ele>84.73</ele>
        <time>2021-08-08T18:53:05Z</time>
      </trkpt>
      <trkpt lat="49.53198" lon="3.65967">
        <ele>84.73</ele>
        <time>2021-08-08T18:53:13Z</time>
      </trkpt>
      <trkpt lat="49.53173" lon="3.66001">
        <ele>84.73</ele>
        <time>2021-08-08T18:53:22Z</time>
      </trkpt>
      <trkpt lat="49.53153" lon="3.66029">
        <ele>84.73</ele>
        <time>2021-08-08T18:53:29Z</time>
      </trkpt>
      <trkpt lat="49.53131" lon="3.66066">
        <ele>84.73</ele>
        <time>2021-08-08T18:53:37Z</time>
      </trkpt>
      <trkpt lat="49.53115" lon="3.66095">
        <ele>85.21</ele>
        <time>2021-08-08T18:53:43Z</time>
      </trkpt>
      <trkpt lat="49.5309" lon="3.66145">
        <ele>85.21</ele>
        <time>2021-08-08T18:53:53Z</time>
      </trkpt>
      <trkpt lat="49.53076" lon="3.66174">
        <ele>85.21</ele>
        <time>2021-08-08T18:53:59Z</time>
      </trkpt>
      <trkpt lat="49.53057" lon="3.66219">
        <ele>85.69</ele>
        <time>2021-08-08T18:54:08Z</time>
      </trkpt>
      <trkpt lat="49.53039" lon="3.66236">
        <ele>85.69</ele>
        <time>2021-08-08T18:54:14Z</time>
      </trkpt>
      <trkpt lat="49.53017" lon="3.6624">
        <ele>85.69</ele>
        <time>2021-08-08T18:54:20Z</time>
      </trkpt>
      <trkpt lat="49.52985" lon="3.66244">
        <ele>86.66</ele>
        <time>2021-08-08T18:54:28Z</time>
      </trkpt>
      <trkpt lat="49.52952" lon="3.66243">
        <ele>86.66</ele>
        <time>2021-08-08T18:54:37Z</time>
      </trkpt>
      <trkpt lat="49.52912" lon="3.66247">
        <ele>87.14</ele>
        <time>2021-08-08T18:54:47Z</time>
      </trkpt>
      <trkpt lat="49.52891" lon="3.6625">
        <ele>87.14</ele>
        <time>2021-08-08T18:54:52Z</time>
      </trkpt>
      <trkpt lat="49.52862" lon="3.66259">
        <ele>87.14</ele>
        <time>2021-08-08T18:54:59Z</time>
      </trkpt>
      <trkpt lat="49.52836" lon="3.66272">
        <ele>87.14</ele>
        <time>2021-08-08T18:55:06Z</time>
      </trkpt>
      <trkpt lat="49.52801" lon="3.66296">
        <ele>87.62</ele>
        <time>2021-08-08T18:55:16Z</time>
      </trkpt>
      <trkpt lat="49.52796" lon="3.66306">
        <ele>87.62</ele>
        <time>2021-08-08T18:55:18Z</time>
      </trkpt>
      <trkpt lat="49.52793" lon="3.66311">
        <ele>87.62</ele>
        <time>2021-08-08T18:55:19Z</time>
      </trkpt>
      <trkpt lat="49.52773" lon="3.6635">
        <ele>87.62</ele>
        <time>2021-08-08T18:55:27Z</time>
      </trkpt>
      <trkpt lat="49.52768" lon="3.66367">
        <ele>87.62</ele>
        <time>2021-08-08T18:55:30Z</time>
      </trkpt>
      <trkpt lat="49.52766" lon="3.66373">
        <ele>87.62</ele>
        <time>2021-08-08T18:55:31Z</time>
      </trkpt>
      <trkpt lat="49.52765" lon="3.66379">
        <ele>87.62</ele>
        <time>2021-08-08T18:55:32Z</time>
      </trkpt>
      <trkpt lat="49.52752" lon="3.66434">
        <ele>87.62</ele>
        <time>2021-08-08T18:55:41Z</time>
      </trkpt>
      <trkpt lat="49.52751" lon="3.6644">
        <ele>87.62</ele>
        <time>2021-08-08T18:55:42Z</time>
      </trkpt>
      <trkpt lat="49.52743" lon="3.6646">
        <ele>87.62</ele>
        <time>2021-08-08T18:55:46Z</time>
      </trkpt>
      <trkpt lat="49.52725" lon="3.66485">
        <ele>87.62</ele>
        <time>2021-08-08T18:55:53Z</time>
      </trkpt>
      <trkpt lat="49.527" lon="3.6651">
        <ele>87.62</ele>
        <time>2021-08-08T18:56:01Z</time>
      </trkpt>
      <trkpt lat="49.52686" lon="3.66524">
        <ele>87.62</ele>
        <time>2021-08-08T18:56:07Z</time>
      </trkpt>
      <trkpt lat="49.52685" lon="3.66528">
        <ele>87.62</ele>
        <time>2021-08-08T18:56:08Z</time>
      </trkpt>
      <trkpt lat="49.52683" lon="3.66533">
        <ele>87.62</ele>
        <time>2021-08-08T18:56:09Z</time>
      </trkpt>
      <trkpt lat="49.52683" lon="3.66538">
        <ele>87.62</ele>
        <time>2021-08-08T18:56:10Z</time>
      </trkpt>
      <trkpt lat="49.52687" lon="3.6659">
        <ele>87.62</ele>
        <time>2021-08-08T18:56:19Z</time>
      </trkpt>
      <trkpt lat="49.52693" lon="3.66629">
        <ele>87.62</ele>
        <time>2021-08-08T18:56:26Z</time>
      </trkpt>
      <trkpt lat="49.52691" lon="3.66657">
        <ele>88.1</ele>
        <time>2021-08-08T18:56:31Z</time>
      </trkpt>
      <trkpt lat="49.52688" lon="3.66659">
        <ele>88.1</ele>
        <time>2021-08-08T18:56:32Z</time>
      </trkpt>
      <trkpt lat="49.52684" lon="3.66662">
        <ele>88.1</ele>
        <time>2021-08-08T18:56:33Z</time>
      </trkpt>
      <trkpt lat="49.52681" lon="3.66663">
        <ele>88.1</ele>
        <time>2021-08-08T18:56:34Z</time>
      </trkpt>
      <trkpt lat="49.52677" lon="3.66665">
        <ele>88.58</ele>
        <time>2021-08-08T18:56:35Z</time>
      </trkpt>
      <trkpt lat="49.52673" lon="3.66666">
        <ele>88.58</ele>
        <time>2021-08-08T18:56:36Z</time>
      </trkpt>
      <trkpt lat="49.52669" lon="3.66667">
        <ele>88.58</ele>
        <time>2021-08-08T18:56:37Z</time>
      </trkpt>
      <trkpt lat="49.52637" lon="3.66684">
        <ele>89.06</ele>
        <time>2021-08-08T18:56:46Z</time>
      </trkpt>
      <trkpt lat="49.52635" lon="3.6669">
        <ele>89.06</ele>
        <time>2021-08-08T18:56:47Z</time>
      </trkpt>
      <trkpt lat="49.52634" lon="3.66695">
        <ele>89.06</ele>
        <time>2021-08-08T18:56:48Z</time>
      </trkpt>
      <trkpt lat="49.52634" lon="3.66702">
        <ele>89.06</ele>
        <time>2021-08-08T18:56:49Z</time>
      </trkpt>
      <trkpt lat="49.52635" lon="3.66708">
        <ele>89.06</ele>
        <time>2021-08-08T18:56:50Z</time>
      </trkpt>
      <trkpt lat="49.52636" lon="3.66714">
        <ele>89.06</ele>
        <time>2021-08-08T18:56:51Z</time>
      </trkpt>
      <trkpt lat="49.52643" lon="3.66771">
        <ele>89.54</ele>
        <time>2021-08-08T18:57:01Z</time>
      </trkpt>
      <trkpt lat="49.52637" lon="3.6679">
        <ele>89.54</ele>
        <time>2021-08-08T18:57:05Z</time>
      </trkpt>
      <trkpt lat="49.5263" lon="3.66809">
        <ele>89.54</ele>
        <time>2021-08-08T18:57:10Z</time>
      </trkpt>
      <trkpt lat="49.52632" lon="3.66814">
        <ele>89.54</ele>
        <time>2021-08-08T18:57:11Z</time>
      </trkpt>
      <trkpt lat="49.52634" lon="3.66817">
        <ele>89.54</ele>
        <time>2021-08-08T18:57:12Z</time>
      </trkpt>
      <trkpt lat="49.52636" lon="3.66822">
        <ele>89.54</ele>
        <time>2021-08-08T18:57:13Z</time>
      </trkpt>
      <trkpt lat="49.52639" lon="3.66826">
        <ele>89.54</ele>
        <time>2021-08-08T18:57:14Z</time>
      </trkpt>
      <trkpt lat="49.52669" lon="3.66873">
        <ele>89.54</ele>
        <time>2021-08-08T18:57:25Z</time>
      </trkpt>
      <trkpt lat="49.52682" lon="3.6689">
        <ele>90.02</ele>
        <time>2021-08-08T18:57:29Z</time>
      </trkpt>
      <trkpt lat="49.52685" lon="3.66894">
        <ele>90.02</ele>
        <time>2021-08-08T18:57:30Z</time>
      </trkpt>
      <trkpt lat="49.52716" lon="3.66917">
        <ele>90.02</ele>
        <time>2021-08-08T18:57:38Z</time>
      </trkpt>
      <trkpt lat="49.52728" lon="3.66924">
        <ele>90.02</ele>
        <time>2021-08-08T18:57:41Z</time>
      </trkpt>
      <trkpt lat="49.52732" lon="3.66928">
        <ele>90.02</ele>
        <time>2021-08-08T18:57:42Z</time>
      </trkpt>
      <trkpt lat="49.52738" lon="3.66938">
        <ele>90.02</ele>
        <time>2021-08-08T18:57:44Z</time>
      </trkpt>
      <trkpt lat="49.52741" lon="3.66943">
        <ele>90.02</ele>
        <time>2021-08-08T18:57:45Z</time>
      </trkpt>
      <trkpt lat="49.52743" lon="3.66948">
        <ele>90.02</ele>
        <time>2021-08-08T18:57:46Z</time>
      </trkpt>
      <trkpt lat="49.52762" lon="3.6699">
        <ele>90.98</ele>
        <time>2021-08-08T18:57:55Z</time>
      </trkpt>
      <trkpt lat="49.52773" lon="3.67031">
        <ele>91.46</ele>
        <time>2021-08-08T18:58:03Z</time>
      </trkpt>
      <trkpt lat="49.52785" lon="3.67071">
        <ele>92.42</ele>
        <time>2021-08-08T18:58:11Z</time>
      </trkpt>
      <trkpt lat="49.52798" lon="3.67102">
        <ele>93.39</ele>
        <time>2021-08-08T18:58:19Z</time>
      </trkpt>
      <trkpt lat="49.528" lon="3.67105">
        <ele>93.87</ele>
        <time>2021-08-08T18:58:25Z</time>
      </trkpt>
      <trkpt lat="49.52802" lon="3.67104">
        <ele>93.87</ele>
        <time>2021-08-08T18:58:31Z</time>
      </trkpt>
      <trkpt lat="49.52803" lon="3.67105">
        <ele>93.87</ele>
        <time>2021-08-08T18:58:32Z</time>
      </trkpt>
      <trkpt lat="49.52804" lon="3.67108">
        <ele>93.87</ele>
        <time>2021-08-08T18:58:33Z</time>
      </trkpt>
      <trkpt lat="49.52805" lon="3.67111">
        <ele>93.87</ele>
        <time>2021-08-08T18:58:34Z</time>
      </trkpt>
      <trkpt lat="49.52806" lon="3.67113">
        <ele>93.87</ele>
        <time>2021-08-08T18:58:35Z</time>
      </trkpt>
      <trkpt lat="49.5282" lon="3.67137">
        <ele>93.87</ele>
        <time>2021-08-08T18:58:43Z</time>
      </trkpt>
      <trkpt lat="49.52839" lon="3.67162">
        <ele>95.31</ele>
        <time>2021-08-08T18:58:52Z</time>
      </trkpt>
      <trkpt lat="49.52855" lon="3.67175">
        <ele>96.75</ele>
        <time>2021-08-08T18:59:01Z</time>
      </trkpt>
      <trkpt lat="49.52872" lon="3.67187">
        <ele>97.71</ele>
        <time>2021-08-08T18:59:10Z</time>
      </trkpt>
      <trkpt lat="49.52888" lon="3.67199">
        <ele>99.15</ele>
        <time>2021-08-08T18:59:19Z</time>
      </trkpt>
      <trkpt lat="49.52894" lon="3.67202">
        <ele>99.63</ele>
        <time>2021-08-08T18:59:26Z</time>
      </trkpt>
      <trkpt lat="49.52891" lon="3.672">
        <ele>99.63</ele>
        <time>2021-08-08T18:59:33Z</time>
      </trkpt>
      <trkpt lat="49.5289" lon="3.67199">
        <ele>99.63</ele>
        <time>2021-08-08T18:59:34Z</time>
      </trkpt>
      <trkpt lat="49.52888" lon="3.67198">
        <ele>99.63</ele>
        <time>2021-08-08T18:59:35Z</time>
      </trkpt>
      <trkpt lat="49.52887" lon="3.67197">
        <ele>99.63</ele>
        <time>2021-08-08T18:59:36Z</time>
      </trkpt>
      <trkpt lat="49.52885" lon="3.67195">
        <ele>99.63</ele>
        <time>2021-08-08T18:59:37Z</time>
      </trkpt>
      <trkpt lat="49.52884" lon="3.67193">
        <ele>99.63</ele>
        <time>2021-08-08T18:59:38Z</time>
      </trkpt>
      <trkpt lat="49.52882" lon="3.67191">
        <ele>98.67</ele>
        <time>2021-08-08T18:59:39Z</time>
      </trkpt>
      <trkpt lat="49.5288" lon="3.67189">
        <ele>98.67</ele>
        <time>2021-08-08T18:59:40Z</time>
      </trkpt>
      <trkpt lat="49.52877" lon="3.67187">
        <ele>97.71</ele>
        <time>2021-08-08T18:59:41Z</time>
      </trkpt>
      <trkpt lat="49.52857" lon="3.67173">
        <ele>96.27</ele>
        <time>2021-08-08T18:59:47Z</time>
      </trkpt>
      <trkpt lat="49.52839" lon="3.67157">
        <ele>95.31</ele>
        <time>2021-08-08T18:59:53Z</time>
      </trkpt>
      <trkpt lat="49.52837" lon="3.67155">
        <ele>94.83</ele>
        <time>2021-08-08T18:59:56Z</time>
      </trkpt>
      <trkpt lat="49.52837" lon="3.67158">
        <ele>94.83</ele>
        <time>2021-08-08T18:59:58Z</time>
      </trkpt>
      <trkpt lat="49.52837" lon="3.67159">
        <ele>94.83</ele>
        <time>2021-08-08T18:59:59Z</time>
      </trkpt>
      <trkpt lat="49.52838" lon="3.6716">
        <ele>94.83</ele>
        <time>2021-08-08T19:00:00Z</time>
      </trkpt>
      <trkpt lat="49.5284" lon="3.67163">
        <ele>94.83</ele>
        <time>2021-08-08T19:00:07Z</time>
      </trkpt>
      <trkpt lat="49.5284" lon="3.67165">
        <ele>94.83</ele>
        <time>2021-08-08T19:00:08Z</time>
      </trkpt>
      <trkpt lat="49.52839" lon="3.67167">
        <ele>94.83</ele>
        <time>2021-08-08T19:00:09Z</time>
      </trkpt>
      <trkpt lat="49.52838" lon="3.67168">
        <ele>94.83</ele>
        <time>2021-08-08T19:00:10Z</time>
      </trkpt>
      <trkpt lat="49.52838" lon="3.6717">
        <ele>96.27</ele>
        <time>2021-08-08T19:00:11Z</time>
      </trkpt>
      <trkpt lat="49.52838" lon="3.67172">
        <ele>96.27</ele>
        <time>2021-08-08T19:00:12Z</time>
      </trkpt>
      <trkpt lat="49.52838" lon="3.67173">
        <ele>96.27</ele>
        <time>2021-08-08T19:00:13Z</time>
      </trkpt>
      <trkpt lat="49.52838" lon="3.67175">
        <ele>96.27</ele>
        <time>2021-08-08T19:00:14Z</time>
      </trkpt>
      <trkpt lat="49.52838" lon="3.67177">
        <ele>96.75</ele>
        <time>2021-08-08T19:00:15Z</time>
      </trkpt>
      <trkpt lat="49.52839" lon="3.67191">
        <ele>97.23</ele>
        <time>2021-08-08T19:00:21Z</time>
      </trkpt>
      <trkpt lat="49.52839" lon="3.67193">
        <ele>97.23</ele>
        <time>2021-08-08T19:00:22Z</time>
      </trkpt>
      <trkpt lat="49.52839" lon="3.67195">
        <ele>97.71</ele>
        <time>2021-08-08T19:00:23Z</time>
      </trkpt>
      <trkpt lat="49.52839" lon="3.67213">
        <ele>99.15</ele>
        <time>2021-08-08T19:00:32Z</time>
      </trkpt>
      <trkpt lat="49.52841" lon="3.67219">
        <ele>99.63</ele>
        <time>2021-08-08T19:00:35Z</time>
      </trkpt>
      <trkpt lat="49.52842" lon="3.67223">
        <ele>99.63</ele>
        <time>2021-08-08T19:00:37Z</time>
      </trkpt>
      <trkpt lat="49.52842" lon="3.67225">
        <ele>100.6</ele>
        <time>2021-08-08T19:00:38Z</time>
      </trkpt>
      <trkpt lat="49.52843" lon="3.67239">
        <ele>102.04</ele>
        <time>2021-08-08T19:00:45Z</time>
      </trkpt>
      <trkpt lat="49.5284" lon="3.67244">
        <ele>103</ele>
        <time>2021-08-08T19:00:51Z</time>
      </trkpt>
      <trkpt lat="49.5284" lon="3.67247">
        <ele>103</ele>
        <time>2021-08-08T19:01:01Z</time>
      </trkpt>
      <trkpt lat="49.52843" lon="3.67247">
        <ele>103</ele>
        <time>2021-08-08T19:01:09Z</time>
      </trkpt>
      <trkpt lat="49.52845" lon="3.67247">
        <ele>103</ele>
        <time>2021-08-08T19:01:11Z</time>
      </trkpt>
      <trkpt lat="49.52846" lon="3.67247">
        <ele>103</ele>
        <time>2021-08-08T19:01:12Z</time>
      </trkpt>
      <trkpt lat="49.52853" lon="3.67247">
        <ele>103.48</ele>
        <time>2021-08-08T19:01:20Z</time>
      </trkpt>
      <trkpt lat="49.52861" lon="3.67249">
        <ele>103.96</ele>
        <time>2021-08-08T19:01:26Z</time>
      </trkpt>
      <trkpt lat="49.52862" lon="3.6725">
        <ele>103.96</ele>
        <time>2021-08-08T19:01:27Z</time>
      </trkpt>
      <trkpt lat="49.52874" lon="3.67259">
        <ele>105.4</ele>
        <time>2021-08-08T19:01:36Z</time>
      </trkpt>
      <trkpt lat="49.52875" lon="3.6726">
        <ele>105.4</ele>
        <time>2021-08-08T19:01:37Z</time>
      </trkpt>
      <trkpt lat="49.52876" lon="3.67261">
        <ele>105.88</ele>
        <time>2021-08-08T19:01:38Z</time>
      </trkpt>
      <trkpt lat="49.52877" lon="3.67263">
        <ele>105.88</ele>
        <time>2021-08-08T19:01:39Z</time>
      </trkpt>
      <trkpt lat="49.52883" lon="3.67274">
        <ele>106.84</ele>
        <time>2021-08-08T19:01:46Z</time>
      </trkpt>
      <trkpt lat="49.52889" lon="3.67289">
        <ele>108.77</ele>
        <time>2021-08-08T19:01:53Z</time>
      </trkpt>
      <trkpt lat="49.52891" lon="3.67291">
        <ele>108.77</ele>
        <time>2021-08-08T19:01:54Z</time>
      </trkpt>
      <trkpt lat="49.52892" lon="3.67293">
        <ele>108.77</ele>
        <time>2021-08-08T19:01:55Z</time>
      </trkpt>
      <trkpt lat="49.52893" lon="3.67295">
        <ele>108.77</ele>
        <time>2021-08-08T19:01:56Z</time>
      </trkpt>
      <trkpt lat="49.52899" lon="3.67309">
        <ele>110.69</ele>
        <time>2021-08-08T19:02:04Z</time>
      </trkpt>
      <trkpt lat="49.52899" lon="3.67312">
        <ele>110.69</ele>
        <time>2021-08-08T19:02:05Z</time>
      </trkpt>
      <trkpt lat="49.529" lon="3.67313">
        <ele>110.69</ele>
        <time>2021-08-08T19:02:06Z</time>
      </trkpt>
      <trkpt lat="49.52904" lon="3.67325">
        <ele>112.13</ele>
        <time>2021-08-08T19:02:13Z</time>
      </trkpt>
      <trkpt lat="49.52905" lon="3.67327">
        <ele>112.13</ele>
        <time>2021-08-08T19:02:14Z</time>
      </trkpt>
      <trkpt lat="49.52905" lon="3.67329">
        <ele>112.13</ele>
        <time>2021-08-08T19:02:15Z</time>
      </trkpt>
      <trkpt lat="49.52909" lon="3.67347">
        <ele>114.05</ele>
        <time>2021-08-08T19:02:26Z</time>
      </trkpt>
      <trkpt lat="49.5291" lon="3.67367">
        <ele>115.5</ele>
        <time>2021-08-08T19:02:35Z</time>
      </trkpt>
      <trkpt lat="49.5291" lon="3.67372">
        <ele>116.94</ele>
        <time>2021-08-08T19:02:37Z</time>
      </trkpt>
      <trkpt lat="49.5291" lon="3.67374">
        <ele>116.94</ele>
        <time>2021-08-08T19:02:38Z</time>
      </trkpt>
      <trkpt lat="49.52908" lon="3.67387">
        <ele>118.86</ele>
        <time>2021-08-08T19:02:46Z</time>
      </trkpt>
      <trkpt lat="49.52911" lon="3.67377">
        <ele>118.86</ele>
        <time>2021-08-08T19:02:50Z</time>
      </trkpt>
      <trkpt lat="49.52906" lon="3.674">
        <ele>121.26</ele>
        <time>2021-08-08T19:02:53Z</time>
      </trkpt>
      <trkpt lat="49.52907" lon="3.67408">
        <ele>120.3</ele>
        <time>2021-08-08T19:03:00Z</time>
      </trkpt>
      <trkpt lat="49.52911" lon="3.67377">
        <ele>122.22</ele>
        <time>2021-08-08T19:03:08Z</time>
      </trkpt>
      <trkpt lat="49.5291" lon="3.67377">
        <ele>129.43</ele>
        <time>2021-08-08T19:03:57Z</time>
      </trkpt>
      <trkpt lat="49.5291" lon="3.67377">
        <ele>131.36</ele>
        <time>2021-08-08T19:04:15Z</time>
      </trkpt>
      <trkpt lat="49.52862" lon="3.67465">
        <ele>132.8</ele>
        <time>2021-08-08T19:04:21Z</time>
      </trkpt>
      <trkpt lat="49.5286" lon="3.67471">
        <ele>133.76</ele>
        <time>2021-08-08T19:04:28Z</time>
      </trkpt>
      <trkpt lat="49.52858" lon="3.67477">
        <ele>134.72</ele>
        <time>2021-08-08T19:04:35Z</time>
      </trkpt>
      <trkpt lat="49.52855" lon="3.67484">
        <ele>135.68</ele>
        <time>2021-08-08T19:04:41Z</time>
      </trkpt>
      <trkpt lat="49.52854" lon="3.6749">
        <ele>136.64</ele>
        <time>2021-08-08T19:04:47Z</time>
      </trkpt>
      <trkpt lat="49.52854" lon="3.67493">
        <ele>137.61</ele>
        <time>2021-08-08T19:04:53Z</time>
      </trkpt>
      <trkpt lat="49.52854" lon="3.67499">
        <ele>139.05</ele>
        <time>2021-08-08T19:05:01Z</time>
      </trkpt>
      <trkpt lat="49.52854" lon="3.67513">
        <ele>140.49</ele>
        <time>2021-08-08T19:05:10Z</time>
      </trkpt>
      <trkpt lat="49.52855" lon="3.67527">
        <ele>141.45</ele>
        <time>2021-08-08T19:05:19Z</time>
      </trkpt>
      <trkpt lat="49.52856" lon="3.67538">
        <ele>142.89</ele>
        <time>2021-08-08T19:05:26Z</time>
      </trkpt>
      <trkpt lat="49.52859" lon="3.67559">
        <ele>144.34</ele>
        <time>2021-08-08T19:05:36Z</time>
      </trkpt>
      <trkpt lat="49.52862" lon="3.67574">
        <ele>144.82</ele>
        <time>2021-08-08T19:05:43Z</time>
      </trkpt>
      <trkpt lat="49.52863" lon="3.67582">
        <ele>145.3</ele>
        <time>2021-08-08T19:05:50Z</time>
      </trkpt>
      <trkpt lat="49.52864" lon="3.67584">
        <ele>145.3</ele>
        <time>2021-08-08T19:06:06Z</time>
      </trkpt>
      <trkpt lat="49.52863" lon="3.67584">
        <ele>145.3</ele>
        <time>2021-08-08T19:06:23Z</time>
      </trkpt>
      <trkpt lat="49.52867" lon="3.67578">
        <ele>145.3</ele>
        <time>2021-08-08T19:06:44Z</time>
      </trkpt>
      <trkpt lat="49.52865" lon="3.67583">
        <ele>145.3</ele>
        <time>2021-08-08T19:06:58Z</time>
      </trkpt>
      <trkpt lat="49.52859" lon="3.67582">
        <ele>145.3</ele>
        <time>2021-08-08T19:07:06Z</time>
      </trkpt>
      <trkpt lat="49.52859" lon="3.67583">
        <ele>145.78</ele>
        <time>2021-08-08T19:07:12Z</time>
      </trkpt>
      <trkpt lat="49.5286" lon="3.67583">
        <ele>145.78</ele>
        <time>2021-08-08T19:07:29Z</time>
      </trkpt>
      <trkpt lat="49.52858" lon="3.67581">
        <ele>145.78</ele>
        <time>2021-08-08T19:07:49Z</time>
      </trkpt>
      <trkpt lat="49.52852" lon="3.67583">
        <ele>145.78</ele>
        <time>2021-08-08T19:08:05Z</time>
      </trkpt>
    </trkseg>
  </trk>
</gpx>